<?xml version='1.0' encoding='UTF-8'?><gpx version="1.1" creator="JPX - https://github.com/jenetics/jpx" xmlns="http://www.topografix.com/GPX/1/1"><trk><trkseg><trkpt lat="46.1166928" lon="13.5190804"><ele>154.0</ele><time>2026-05-03T07:06:30.887Z</time></trkpt><trkpt lat="46.1166159" lon="13.5190652"><ele>154.0</ele><time>2026-05-03T07:06:33.889Z</time></trkpt><trkpt lat="46.1165117" lon="13.5189651"><ele>154.0</ele><time>2026-05-03T07:06:35.891Z</time></trkpt><trkpt lat="46.1164523" lon="13.5189004"><ele>154.0</ele><time>2026-05-03T07:06:36.887Z</time></trkpt><trkpt lat="46.1163884" lon="13.5188257"><ele>154.0</ele><time>2026-05-03T07:06:37.898Z</time></trkpt><trkpt lat="46.1163188" lon="13.5187284"><ele>153.25</ele><time>2026-05-03T07:06:38.888Z</time></trkpt><trkpt lat="46.1162521" lon="13.5186383"><ele>152.5</ele><time>2026-05-03T07:06:39.788Z</time></trkpt><trkpt lat="46.1161123" lon="13.5184739"><ele>151.75</ele><time>2026-05-03T07:06:41.587Z</time></trkpt><trkpt lat="46.1160352" lon="13.5184086"><ele>151.0</ele><time>2026-05-03T07:06:42.494Z</time></trkpt><trkpt lat="46.115858" lon="13.5182845"><ele>151.0</ele><time>2026-05-03T07:06:44.289Z</time></trkpt><trkpt lat="46.1156874" lon="13.5181607"><ele>151.0</ele><time>2026-05-03T07:06:46.091Z</time></trkpt><trkpt lat="46.1155962" lon="13.5180893"><ele>151.0</ele><time>2026-05-03T07:06:47.078Z</time></trkpt><trkpt lat="46.115513" lon="13.5180271"><ele>151.0</ele><time>2026-05-03T07:06:48.075Z</time></trkpt><trkpt lat="46.1154529" lon="13.5179435"><ele>151.2</ele><time>2026-05-03T07:06:49.071Z</time></trkpt><trkpt lat="46.1153883" lon="13.5178378"><ele>151.39999999999998</ele><time>2026-05-03T07:06:50.081Z</time></trkpt><trkpt lat="46.1153161" lon="13.5177092"><ele>151.6</ele><time>2026-05-03T07:06:51.083Z</time></trkpt><trkpt lat="46.1152404" lon="13.517574"><ele>151.79999999999998</ele><time>2026-05-03T07:06:52.078Z</time></trkpt><trkpt lat="46.115162" lon="13.5174501"><ele>152.0</ele><time>2026-05-03T07:06:53.074Z</time></trkpt><trkpt lat="46.1150799" lon="13.5173332"><ele>152.0</ele><time>2026-05-03T07:06:54.079Z</time></trkpt><trkpt lat="46.1150034" lon="13.5172169"><ele>152.0</ele><time>2026-05-03T07:06:55.076Z</time></trkpt><trkpt lat="46.1149356" lon="13.5170904"><ele>152.0</ele><time>2026-05-03T07:06:56.077Z</time></trkpt><trkpt lat="46.1148692" lon="13.5169547"><ele>152.0</ele><time>2026-05-03T07:06:57.073Z</time></trkpt><trkpt lat="46.1148004" lon="13.5168228"><ele>156.0</ele><time>2026-05-03T07:06:58.082Z</time></trkpt><trkpt lat="46.1147327" lon="13.5166991"><ele>160.0</ele><time>2026-05-03T07:06:59.081Z</time></trkpt><trkpt lat="46.1146711" lon="13.5165766"><ele>164.0</ele><time>2026-05-03T07:07:00.075Z</time></trkpt><trkpt lat="46.1146143" lon="13.5164413"><ele>168.0</ele><time>2026-05-03T07:07:01.077Z</time></trkpt><trkpt lat="46.1145701" lon="13.5162909"><ele>172.0</ele><time>2026-05-03T07:07:02.088Z</time></trkpt><trkpt lat="46.1145296" lon="13.5161344"><ele>172.0</ele><time>2026-05-03T07:07:03.075Z</time></trkpt><trkpt lat="46.1144871" lon="13.5159881"><ele>172.0</ele><time>2026-05-03T07:07:04.076Z</time></trkpt><trkpt lat="46.1144497" lon="13.515858"><ele>172.0</ele><time>2026-05-03T07:07:05.072Z</time></trkpt><trkpt lat="46.1144195" lon="13.5157416"><ele>172.0</ele><time>2026-05-03T07:07:06.082Z</time></trkpt><trkpt lat="46.1144025" lon="13.5156267"><ele>172.0</ele><time>2026-05-03T07:07:07.072Z</time></trkpt><trkpt lat="46.1144133" lon="13.5154992"><ele>171.25</ele><time>2026-05-03T07:07:08.075Z</time></trkpt><trkpt lat="46.1144228" lon="13.5153615"><ele>170.5</ele><time>2026-05-03T07:07:09.086Z</time></trkpt><trkpt lat="46.1144206" lon="13.515194"><ele>169.75</ele><time>2026-05-03T07:07:10.083Z</time></trkpt><trkpt lat="46.1144134" lon="13.5149979"><ele>169.0</ele><time>2026-05-03T07:07:11.083Z</time></trkpt><trkpt lat="46.1144064" lon="13.5148036"><ele>169.0</ele><time>2026-05-03T07:07:12.074Z</time></trkpt><trkpt lat="46.114396" lon="13.5146199"><ele>169.0</ele><time>2026-05-03T07:07:13.082Z</time></trkpt><trkpt lat="46.1143804" lon="13.5144549"><ele>169.0</ele><time>2026-05-03T07:07:14.078Z</time></trkpt><trkpt lat="46.1143586" lon="13.5143083"><ele>169.0</ele><time>2026-05-03T07:07:15.077Z</time></trkpt><trkpt lat="46.1143348" lon="13.5141632"><ele>168.2</ele><time>2026-05-03T07:07:16.08Z</time></trkpt><trkpt lat="46.1143238" lon="13.5140237"><ele>167.39999999999998</ele><time>2026-05-03T07:07:17.077Z</time></trkpt><trkpt lat="46.1143098" lon="13.5138897"><ele>166.6</ele><time>2026-05-03T07:07:18.079Z</time></trkpt><trkpt lat="46.1142877" lon="13.5137607"><ele>165.8</ele><time>2026-05-03T07:07:19.082Z</time></trkpt><trkpt lat="46.114258" lon="13.5136303"><ele>165.0</ele><time>2026-05-03T07:07:20.086Z</time></trkpt><trkpt lat="46.1142226" lon="13.5135001"><ele>164.25</ele><time>2026-05-03T07:07:21.087Z</time></trkpt><trkpt lat="46.1141767" lon="13.5133475"><ele>163.5</ele><time>2026-05-03T07:07:22.08Z</time></trkpt><trkpt lat="46.1141361" lon="13.5131849"><ele>162.75</ele><time>2026-05-03T07:07:23.072Z</time></trkpt><trkpt lat="46.1141021" lon="13.5130191"><ele>162.0</ele><time>2026-05-03T07:07:24.075Z</time></trkpt><trkpt lat="46.1140818" lon="13.5128485"><ele>164.8</ele><time>2026-05-03T07:07:25.081Z</time></trkpt><trkpt lat="46.1140659" lon="13.512684"><ele>167.6</ele><time>2026-05-03T07:07:26.084Z</time></trkpt><trkpt lat="46.1140398" lon="13.5125328"><ele>170.4</ele><time>2026-05-03T07:07:27.073Z</time></trkpt><trkpt lat="46.114016" lon="13.5123941"><ele>173.20000000000002</ele><time>2026-05-03T07:07:28.08Z</time></trkpt><trkpt lat="46.1139828" lon="13.5122506"><ele>176.0</ele><time>2026-05-03T07:07:29.093Z</time></trkpt><trkpt lat="46.1139495" lon="13.5120953"><ele>173.4</ele><time>2026-05-03T07:07:30.073Z</time></trkpt><trkpt lat="46.113916" lon="13.5119505"><ele>170.8</ele><time>2026-05-03T07:07:31.082Z</time></trkpt><trkpt lat="46.1138765" lon="13.5118155"><ele>168.20000000000002</ele><time>2026-05-03T07:07:32.086Z</time></trkpt><trkpt lat="46.1138494" lon="13.5116857"><ele>165.60000000000002</ele><time>2026-05-03T07:07:33.076Z</time></trkpt><trkpt lat="46.113842" lon="13.5115573"><ele>163.0</ele><time>2026-05-03T07:07:34.071Z</time></trkpt><trkpt lat="46.1138562" lon="13.5114335"><ele>163.0</ele><time>2026-05-03T07:07:35.075Z</time></trkpt><trkpt lat="46.1138697" lon="13.5113077"><ele>163.0</ele><time>2026-05-03T07:07:36.075Z</time></trkpt><trkpt lat="46.1138771" lon="13.5111794"><ele>163.0</ele><time>2026-05-03T07:07:37.077Z</time></trkpt><trkpt lat="46.1138778" lon="13.5110507"><ele>163.0</ele><time>2026-05-03T07:07:38.076Z</time></trkpt><trkpt lat="46.1138789" lon="13.5109273"><ele>163.0</ele><time>2026-05-03T07:07:39.076Z</time></trkpt><trkpt lat="46.1138755" lon="13.5108003"><ele>163.0</ele><time>2026-05-03T07:07:40.075Z</time></trkpt><trkpt lat="46.1138684" lon="13.5106813"><ele>163.0</ele><time>2026-05-03T07:07:41.079Z</time></trkpt><trkpt lat="46.1138581" lon="13.5105757"><ele>163.0</ele><time>2026-05-03T07:07:42.085Z</time></trkpt><trkpt lat="46.113849" lon="13.5104723"><ele>163.0</ele><time>2026-05-03T07:07:43.074Z</time></trkpt><trkpt lat="46.1138395" lon="13.5103669"><ele>163.0</ele><time>2026-05-03T07:07:44.075Z</time></trkpt><trkpt lat="46.1138287" lon="13.5102579"><ele>163.0</ele><time>2026-05-03T07:07:45.07Z</time></trkpt><trkpt lat="46.1138164" lon="13.5101459"><ele>163.0</ele><time>2026-05-03T07:07:46.079Z</time></trkpt><trkpt lat="46.1138055" lon="13.5100273"><ele>163.0</ele><time>2026-05-03T07:07:47.076Z</time></trkpt><trkpt lat="46.1137955" lon="13.5098981"><ele>163.0</ele><time>2026-05-03T07:07:48.08Z</time></trkpt><trkpt lat="46.1137868" lon="13.5097716"><ele>163.0</ele><time>2026-05-03T07:07:49.077Z</time></trkpt><trkpt lat="46.1137743" lon="13.5096517"><ele>163.0</ele><time>2026-05-03T07:07:50.076Z</time></trkpt><trkpt lat="46.1137602" lon="13.509546"><ele>163.0</ele><time>2026-05-03T07:07:51.089Z</time></trkpt><trkpt lat="46.1137573" lon="13.5093794"><ele>162.0</ele><time>2026-05-03T07:07:53.079Z</time></trkpt><trkpt lat="46.1138242" lon="13.5092799"><ele>161.0</ele><time>2026-05-03T07:07:55.071Z</time></trkpt><trkpt lat="46.1139132" lon="13.5092251"><ele>160.0</ele><time>2026-05-03T07:07:57.089Z</time></trkpt><trkpt lat="46.1139744" lon="13.5091377"><ele>159.0</ele><time>2026-05-03T07:07:59.075Z</time></trkpt><trkpt lat="46.1139574" lon="13.5089971"><ele>158.0</ele><time>2026-05-03T07:08:01.079Z</time></trkpt><trkpt lat="46.1139029" lon="13.5089005"><ele>158.0</ele><time>2026-05-03T07:08:02.074Z</time></trkpt><trkpt lat="46.11383" lon="13.5087942"><ele>158.0</ele><time>2026-05-03T07:08:03.096Z</time></trkpt><trkpt lat="46.1137609" lon="13.508686"><ele>158.0</ele><time>2026-05-03T07:08:04.079Z</time></trkpt><trkpt lat="46.1136901" lon="13.5085815"><ele>158.0</ele><time>2026-05-03T07:08:05.077Z</time></trkpt><trkpt lat="46.1136145" lon="13.5084739"><ele>158.0</ele><time>2026-05-03T07:08:06.082Z</time></trkpt><trkpt lat="46.1135385" lon="13.5083613"><ele>157.25</ele><time>2026-05-03T07:08:07.08Z</time></trkpt><trkpt lat="46.1134614" lon="13.5082257"><ele>156.5</ele><time>2026-05-03T07:08:08.079Z</time></trkpt><trkpt lat="46.1133921" lon="13.5080756"><ele>155.75</ele><time>2026-05-03T07:08:09.079Z</time></trkpt><trkpt lat="46.1133391" lon="13.5079058"><ele>155.0</ele><time>2026-05-03T07:08:10.082Z</time></trkpt><trkpt lat="46.1132971" lon="13.5077175"><ele>155.0</ele><time>2026-05-03T07:08:11.076Z</time></trkpt><trkpt lat="46.1132539" lon="13.5075398"><ele>155.0</ele><time>2026-05-03T07:08:12.091Z</time></trkpt><trkpt lat="46.1132028" lon="13.5073953"><ele>155.0</ele><time>2026-05-03T07:08:13.081Z</time></trkpt><trkpt lat="46.1131519" lon="13.5072811"><ele>155.0</ele><time>2026-05-03T07:08:14.077Z</time></trkpt><trkpt lat="46.1131036" lon="13.5071715"><ele>155.0</ele><time>2026-05-03T07:08:15.078Z</time></trkpt><trkpt lat="46.1130605" lon="13.5070799"><ele>159.0</ele><time>2026-05-03T07:08:16.077Z</time></trkpt><trkpt lat="46.1130056" lon="13.5069304"><ele>163.0</ele><time>2026-05-03T07:08:18.081Z</time></trkpt><trkpt lat="46.1129268" lon="13.5067969"><ele>167.0</ele><time>2026-05-03T07:08:20.079Z</time></trkpt><trkpt lat="46.1128732" lon="13.5067416"><ele>171.0</ele><time>2026-05-03T07:08:21.078Z</time></trkpt><trkpt lat="46.1127568" lon="13.5066555"><ele>175.0</ele><time>2026-05-03T07:08:23.071Z</time></trkpt><trkpt lat="46.112691" lon="13.5066022"><ele>175.0</ele><time>2026-05-03T07:08:24.076Z</time></trkpt><trkpt lat="46.1126262" lon="13.5065339"><ele>175.0</ele><time>2026-05-03T07:08:25.079Z</time></trkpt><trkpt lat="46.1125706" lon="13.5064402"><ele>175.0</ele><time>2026-05-03T07:08:26.076Z</time></trkpt><trkpt lat="46.1125205" lon="13.5063384"><ele>175.0</ele><time>2026-05-03T07:08:27.078Z</time></trkpt><trkpt lat="46.1124611" lon="13.5062348"><ele>175.0</ele><time>2026-05-03T07:08:28.071Z</time></trkpt><trkpt lat="46.112395" lon="13.5061374"><ele>175.0</ele><time>2026-05-03T07:08:29.078Z</time></trkpt><trkpt lat="46.1123323" lon="13.5060428"><ele>172.6</ele><time>2026-05-03T07:08:30.075Z</time></trkpt><trkpt lat="46.1122681" lon="13.5059445"><ele>170.2</ele><time>2026-05-03T07:08:31.076Z</time></trkpt><trkpt lat="46.1122045" lon="13.5058467"><ele>167.8</ele><time>2026-05-03T07:08:32.072Z</time></trkpt><trkpt lat="46.1121388" lon="13.5057503"><ele>165.4</ele><time>2026-05-03T07:08:33.089Z</time></trkpt><trkpt lat="46.112077" lon="13.5056604"><ele>163.0</ele><time>2026-05-03T07:08:34.078Z</time></trkpt><trkpt lat="46.1120129" lon="13.5055573"><ele>163.0</ele><time>2026-05-03T07:08:35.077Z</time></trkpt><trkpt lat="46.1119523" lon="13.505449"><ele>163.0</ele><time>2026-05-03T07:08:36.08Z</time></trkpt><trkpt lat="46.1118954" lon="13.5053351"><ele>163.0</ele><time>2026-05-03T07:08:37.088Z</time></trkpt><trkpt lat="46.1118466" lon="13.5052141"><ele>163.0</ele><time>2026-05-03T07:08:38.084Z</time></trkpt><trkpt lat="46.1118283" lon="13.5050927"><ele>163.0</ele><time>2026-05-03T07:08:39.076Z</time></trkpt><trkpt lat="46.1118375" lon="13.5049671"><ele>160.4</ele><time>2026-05-03T07:08:40.079Z</time></trkpt><trkpt lat="46.1118651" lon="13.5048338"><ele>157.8</ele><time>2026-05-03T07:08:41.075Z</time></trkpt><trkpt lat="46.1119009" lon="13.5046974"><ele>155.2</ele><time>2026-05-03T07:08:42.076Z</time></trkpt><trkpt lat="46.1119473" lon="13.5045536"><ele>152.6</ele><time>2026-05-03T07:08:43.087Z</time></trkpt><trkpt lat="46.112003" lon="13.5044023"><ele>150.0</ele><time>2026-05-03T07:08:44.084Z</time></trkpt><trkpt lat="46.1120532" lon="13.5042463"><ele>150.0</ele><time>2026-05-03T07:08:45.075Z</time></trkpt><trkpt lat="46.112103" lon="13.5040888"><ele>150.0</ele><time>2026-05-03T07:08:46.078Z</time></trkpt><trkpt lat="46.1121555" lon="13.5039366"><ele>150.0</ele><time>2026-05-03T07:08:47.077Z</time></trkpt><trkpt lat="46.1122054" lon="13.503798"><ele>150.0</ele><time>2026-05-03T07:08:48.079Z</time></trkpt><trkpt lat="46.1122443" lon="13.5036694"><ele>150.0</ele><time>2026-05-03T07:08:49.078Z</time></trkpt><trkpt lat="46.1122762" lon="13.5035505"><ele>150.0</ele><time>2026-05-03T07:08:50.08Z</time></trkpt><trkpt lat="46.1122903" lon="13.5034321"><ele>150.0</ele><time>2026-05-03T07:08:51.074Z</time></trkpt><trkpt lat="46.1122921" lon="13.5033217"><ele>150.0</ele><time>2026-05-03T07:08:52.08Z</time></trkpt><trkpt lat="46.112281" lon="13.5031665"><ele>150.0</ele><time>2026-05-03T07:08:54.085Z</time></trkpt><trkpt lat="46.1123256" lon="13.5030684"><ele>150.0</ele><time>2026-05-03T07:08:56.074Z</time></trkpt><trkpt lat="46.1124382" lon="13.5030496"><ele>150.0</ele><time>2026-05-03T07:08:58.074Z</time></trkpt><trkpt lat="46.1125207" lon="13.5030569"><ele>150.0</ele><time>2026-05-03T07:08:59.077Z</time></trkpt><trkpt lat="46.1126068" lon="13.5030496"><ele>150.0</ele><time>2026-05-03T07:09:00.079Z</time></trkpt><trkpt lat="46.1126913" lon="13.5030212"><ele>150.0</ele><time>2026-05-03T07:09:01.072Z</time></trkpt><trkpt lat="46.112775" lon="13.5029784"><ele>150.0</ele><time>2026-05-03T07:09:02.079Z</time></trkpt><trkpt lat="46.1128551" lon="13.5029139"><ele>150.0</ele><time>2026-05-03T07:09:03.082Z</time></trkpt><trkpt lat="46.11293" lon="13.5028267"><ele>149.8</ele><time>2026-05-03T07:09:04.074Z</time></trkpt><trkpt lat="46.113008" lon="13.5027286"><ele>149.6</ele><time>2026-05-03T07:09:05.079Z</time></trkpt><trkpt lat="46.1130848" lon="13.5026366"><ele>149.4</ele><time>2026-05-03T07:09:06.083Z</time></trkpt><trkpt lat="46.1131612" lon="13.5025448"><ele>149.2</ele><time>2026-05-03T07:09:07.075Z</time></trkpt><trkpt lat="46.1132361" lon="13.5024404"><ele>149.0</ele><time>2026-05-03T07:09:08.072Z</time></trkpt><trkpt lat="46.1133058" lon="13.5023316"><ele>149.0</ele><time>2026-05-03T07:09:09.073Z</time></trkpt><trkpt lat="46.1133651" lon="13.5022094"><ele>149.0</ele><time>2026-05-03T07:09:10.074Z</time></trkpt><trkpt lat="46.1134143" lon="13.5020686"><ele>149.0</ele><time>2026-05-03T07:09:11.076Z</time></trkpt><trkpt lat="46.1134581" lon="13.5019269"><ele>149.0</ele><time>2026-05-03T07:09:12.073Z</time></trkpt><trkpt lat="46.1134946" lon="13.501795"><ele>149.0</ele><time>2026-05-03T07:09:13.073Z</time></trkpt><trkpt lat="46.1135286" lon="13.5016623"><ele>149.4</ele><time>2026-05-03T07:09:14.076Z</time></trkpt><trkpt lat="46.113573" lon="13.5015304"><ele>149.8</ele><time>2026-05-03T07:09:15.081Z</time></trkpt><trkpt lat="46.1136201" lon="13.501393"><ele>150.2</ele><time>2026-05-03T07:09:16.081Z</time></trkpt><trkpt lat="46.1136722" lon="13.5012493"><ele>150.6</ele><time>2026-05-03T07:09:17.085Z</time></trkpt><trkpt lat="46.113721" lon="13.5010974"><ele>151.0</ele><time>2026-05-03T07:09:18.082Z</time></trkpt><trkpt lat="46.1137661" lon="13.5009301"><ele>151.0</ele><time>2026-05-03T07:09:19.077Z</time></trkpt><trkpt lat="46.1138075" lon="13.5007489"><ele>151.0</ele><time>2026-05-03T07:09:20.074Z</time></trkpt><trkpt lat="46.1138404" lon="13.5005543"><ele>151.0</ele><time>2026-05-03T07:09:21.081Z</time></trkpt><trkpt lat="46.1138718" lon="13.500345"><ele>151.0</ele><time>2026-05-03T07:09:22.079Z</time></trkpt><trkpt lat="46.1138982" lon="13.5001313"><ele>148.66666666666669</ele><time>2026-05-03T07:09:23.074Z</time></trkpt><trkpt lat="46.1139151" lon="13.4998999"><ele>146.33333333333334</ele><time>2026-05-03T07:09:24.078Z</time></trkpt><trkpt lat="46.1139251" lon="13.4996646"><ele>144.0</ele><time>2026-05-03T07:09:25.081Z</time></trkpt><trkpt lat="46.113942" lon="13.4994238"><ele>143.33333333333334</ele><time>2026-05-03T07:09:26.073Z</time></trkpt><trkpt lat="46.1139646" lon="13.4991973"><ele>142.66666666666669</ele><time>2026-05-03T07:09:27.077Z</time></trkpt><trkpt lat="46.1139885" lon="13.4989608"><ele>142.0</ele><time>2026-05-03T07:09:28.075Z</time></trkpt><trkpt lat="46.1140069" lon="13.4987278"><ele>141.66666666666669</ele><time>2026-05-03T07:09:29.076Z</time></trkpt><trkpt lat="46.1140289" lon="13.4985018"><ele>141.33333333333334</ele><time>2026-05-03T07:09:30.076Z</time></trkpt><trkpt lat="46.1140512" lon="13.4982674"><ele>141.0</ele><time>2026-05-03T07:09:31.078Z</time></trkpt><trkpt lat="46.1140786" lon="13.4980351"><ele>141.0</ele><time>2026-05-03T07:09:32.073Z</time></trkpt><trkpt lat="46.1141038" lon="13.4978096"><ele>141.0</ele><time>2026-05-03T07:09:33.07Z</time></trkpt><trkpt lat="46.1141279" lon="13.497571"><ele>141.0</ele><time>2026-05-03T07:09:34.068Z</time></trkpt><trkpt lat="46.1141503" lon="13.4973356"><ele>141.0</ele><time>2026-05-03T07:09:35.076Z</time></trkpt><trkpt lat="46.1141752" lon="13.4970997"><ele>141.0</ele><time>2026-05-03T07:09:36.082Z</time></trkpt><trkpt lat="46.1142028" lon="13.4968612"><ele>141.0</ele><time>2026-05-03T07:09:37.083Z</time></trkpt><trkpt lat="46.1142337" lon="13.4966174"><ele>141.0</ele><time>2026-05-03T07:09:38.075Z</time></trkpt><trkpt lat="46.1142546" lon="13.4963943"><ele>141.0</ele><time>2026-05-03T07:09:39.078Z</time></trkpt><trkpt lat="46.1142715" lon="13.496162"><ele>141.0</ele><time>2026-05-03T07:09:40.077Z</time></trkpt><trkpt lat="46.1142962" lon="13.495924"><ele>141.0</ele><time>2026-05-03T07:09:41.074Z</time></trkpt><trkpt lat="46.1143249" lon="13.4956955"><ele>141.0</ele><time>2026-05-03T07:09:42.075Z</time></trkpt><trkpt lat="46.1143564" lon="13.4954835"><ele>141.0</ele><time>2026-05-03T07:09:43.082Z</time></trkpt><trkpt lat="46.1143706" lon="13.4952635"><ele>140.33333333333334</ele><time>2026-05-03T07:09:44.075Z</time></trkpt><trkpt lat="46.1143763" lon="13.4950458"><ele>139.66666666666669</ele><time>2026-05-03T07:09:45.077Z</time></trkpt><trkpt lat="46.11437" lon="13.4948279"><ele>139.0</ele><time>2026-05-03T07:09:46.072Z</time></trkpt><trkpt lat="46.1143527" lon="13.4946106"><ele>138.5</ele><time>2026-05-03T07:09:47.073Z</time></trkpt><trkpt lat="46.1143271" lon="13.4944055"><ele>138.0</ele><time>2026-05-03T07:09:48.079Z</time></trkpt><trkpt lat="46.1142981" lon="13.4942197"><ele>137.5</ele><time>2026-05-03T07:09:49.078Z</time></trkpt><trkpt lat="46.1142568" lon="13.4940404"><ele>137.0</ele><time>2026-05-03T07:09:50.073Z</time></trkpt><trkpt lat="46.1142093" lon="13.4938587"><ele>137.33333333333331</ele><time>2026-05-03T07:09:51.079Z</time></trkpt><trkpt lat="46.1141543" lon="13.4936525"><ele>137.66666666666666</ele><time>2026-05-03T07:09:52.078Z</time></trkpt><trkpt lat="46.1140973" lon="13.4934371"><ele>138.0</ele><time>2026-05-03T07:09:53.081Z</time></trkpt><trkpt lat="46.1140354" lon="13.4932231"><ele>138.0</ele><time>2026-05-03T07:09:54.081Z</time></trkpt><trkpt lat="46.1139703" lon="13.4930105"><ele>138.0</ele><time>2026-05-03T07:09:55.077Z</time></trkpt><trkpt lat="46.1139032" lon="13.4927923"><ele>138.0</ele><time>2026-05-03T07:09:56.073Z</time></trkpt><trkpt lat="46.1138437" lon="13.492576"><ele>138.0</ele><time>2026-05-03T07:09:57.074Z</time></trkpt><trkpt lat="46.1137876" lon="13.4923799"><ele>138.0</ele><time>2026-05-03T07:09:58.076Z</time></trkpt><trkpt lat="46.1137426" lon="13.4922048"><ele>138.0</ele><time>2026-05-03T07:09:59.077Z</time></trkpt><trkpt lat="46.113704" lon="13.4920647"><ele>138.0</ele><time>2026-05-03T07:10:00.076Z</time></trkpt><trkpt lat="46.1136607" lon="13.4919448"><ele>138.0</ele><time>2026-05-03T07:10:01.073Z</time></trkpt><trkpt lat="46.1136191" lon="13.4918687"><ele>138.0</ele><time>2026-05-03T07:10:02.08Z</time></trkpt><trkpt lat="46.1134884" lon="13.4918037"><ele>138.0</ele><time>2026-05-03T07:10:04.074Z</time></trkpt><trkpt lat="46.1133946" lon="13.4917928"><ele>138.0</ele><time>2026-05-03T07:10:05.078Z</time></trkpt><trkpt lat="46.113301" lon="13.4917765"><ele>138.0</ele><time>2026-05-03T07:10:06.073Z</time></trkpt><trkpt lat="46.1132177" lon="13.4917706"><ele>141.83333333333334</ele><time>2026-05-03T07:10:07.073Z</time></trkpt><trkpt lat="46.1131407" lon="13.4917793"><ele>145.66666666666666</ele><time>2026-05-03T07:10:08.083Z</time></trkpt><trkpt lat="46.1130729" lon="13.4917889"><ele>149.5</ele><time>2026-05-03T07:10:09.09Z</time></trkpt><trkpt lat="46.1130094" lon="13.4917719"><ele>153.33333333333331</ele><time>2026-05-03T07:10:10.079Z</time></trkpt><trkpt lat="46.1129481" lon="13.4917155"><ele>157.16666666666666</ele><time>2026-05-03T07:10:11.084Z</time></trkpt><trkpt lat="46.1128966" lon="13.4916188"><ele>161.0</ele><time>2026-05-03T07:10:12.08Z</time></trkpt><trkpt lat="46.1128555" lon="13.4914878"><ele>161.0</ele><time>2026-05-03T07:10:13.078Z</time></trkpt><trkpt lat="46.1128302" lon="13.491335"><ele>161.0</ele><time>2026-05-03T07:10:14.072Z</time></trkpt><trkpt lat="46.1128117" lon="13.4911666"><ele>161.0</ele><time>2026-05-03T07:10:15.087Z</time></trkpt><trkpt lat="46.1128061" lon="13.490987"><ele>161.0</ele><time>2026-05-03T07:10:16.074Z</time></trkpt><trkpt lat="46.1128172" lon="13.4907876"><ele>163.25</ele><time>2026-05-03T07:10:17.075Z</time></trkpt><trkpt lat="46.1128385" lon="13.49058"><ele>165.5</ele><time>2026-05-03T07:10:18.071Z</time></trkpt><trkpt lat="46.1128548" lon="13.4903841"><ele>167.75</ele><time>2026-05-03T07:10:19.079Z</time></trkpt><trkpt lat="46.1128737" lon="13.4901998"><ele>170.0</ele><time>2026-05-03T07:10:20.075Z</time></trkpt><trkpt lat="46.112893" lon="13.4900146"><ele>171.5</ele><time>2026-05-03T07:10:21.077Z</time></trkpt><trkpt lat="46.1129196" lon="13.4898297"><ele>173.0</ele><time>2026-05-03T07:10:22.08Z</time></trkpt><trkpt lat="46.1129527" lon="13.4896506"><ele>174.5</ele><time>2026-05-03T07:10:23.08Z</time></trkpt><trkpt lat="46.1129753" lon="13.4894813"><ele>176.0</ele><time>2026-05-03T07:10:24.08Z</time></trkpt><trkpt lat="46.1129917" lon="13.489334"><ele>176.5</ele><time>2026-05-03T07:10:25.084Z</time></trkpt><trkpt lat="46.1130067" lon="13.4891992"><ele>177.0</ele><time>2026-05-03T07:10:26.079Z</time></trkpt><trkpt lat="46.1130137" lon="13.4890765"><ele>177.5</ele><time>2026-05-03T07:10:27.076Z</time></trkpt><trkpt lat="46.1130167" lon="13.4889541"><ele>178.0</ele><time>2026-05-03T07:10:28.075Z</time></trkpt><trkpt lat="46.1130038" lon="13.4888327"><ele>178.5</ele><time>2026-05-03T07:10:29.073Z</time></trkpt><trkpt lat="46.1129805" lon="13.4887166"><ele>179.0</ele><time>2026-05-03T07:10:30.075Z</time></trkpt><trkpt lat="46.1129453" lon="13.4886109"><ele>176.79999999999998</ele><time>2026-05-03T07:10:31.076Z</time></trkpt><trkpt lat="46.1128832" lon="13.488513"><ele>174.6</ele><time>2026-05-03T07:10:32.073Z</time></trkpt><trkpt lat="46.1128044" lon="13.4884171"><ele>172.4</ele><time>2026-05-03T07:10:33.076Z</time></trkpt><trkpt lat="46.1127233" lon="13.4883195"><ele>170.2</ele><time>2026-05-03T07:10:34.071Z</time></trkpt><trkpt lat="46.1126376" lon="13.4882189"><ele>168.0</ele><time>2026-05-03T07:10:35.074Z</time></trkpt><trkpt lat="46.1125428" lon="13.4881193"><ele>168.0</ele><time>2026-05-03T07:10:36.08Z</time></trkpt><trkpt lat="46.1124418" lon="13.4880311"><ele>168.0</ele><time>2026-05-03T07:10:37.082Z</time></trkpt><trkpt lat="46.112336" lon="13.4879694"><ele>168.0</ele><time>2026-05-03T07:10:38.076Z</time></trkpt><trkpt lat="46.1122274" lon="13.4879321"><ele>168.0</ele><time>2026-05-03T07:10:39.079Z</time></trkpt><trkpt lat="46.1121234" lon="13.4879061"><ele>168.0</ele><time>2026-05-03T07:10:40.072Z</time></trkpt><trkpt lat="46.1120347" lon="13.4878748"><ele>170.16666666666666</ele><time>2026-05-03T07:10:41.075Z</time></trkpt><trkpt lat="46.1119574" lon="13.4878259"><ele>172.33333333333334</ele><time>2026-05-03T07:10:42.078Z</time></trkpt><trkpt lat="46.1118826" lon="13.4877817"><ele>174.5</ele><time>2026-05-03T07:10:43.074Z</time></trkpt><trkpt lat="46.1118153" lon="13.4877352"><ele>176.66666666666669</ele><time>2026-05-03T07:10:44.081Z</time></trkpt><trkpt lat="46.1117653" lon="13.4876644"><ele>178.83333333333334</ele><time>2026-05-03T07:10:45.075Z</time></trkpt><trkpt lat="46.1117204" lon="13.4875787"><ele>181.0</ele><time>2026-05-03T07:10:46.075Z</time></trkpt><trkpt lat="46.1116732" lon="13.4874998"><ele>181.0</ele><time>2026-05-03T07:10:47.08Z</time></trkpt><trkpt lat="46.1116155" lon="13.487448"><ele>181.0</ele><time>2026-05-03T07:10:48.073Z</time></trkpt><trkpt lat="46.111505" lon="13.4874272"><ele>181.0</ele><time>2026-05-03T07:10:50.084Z</time></trkpt><trkpt lat="46.1114339" lon="13.4874297"><ele>181.0</ele><time>2026-05-03T07:10:51.074Z</time></trkpt><trkpt lat="46.1113604" lon="13.487408"><ele>181.0</ele><time>2026-05-03T07:10:52.073Z</time></trkpt><trkpt lat="46.11129" lon="13.487361"><ele>181.0</ele><time>2026-05-03T07:10:53.073Z</time></trkpt><trkpt lat="46.1112177" lon="13.4872984"><ele>181.0</ele><time>2026-05-03T07:10:54.077Z</time></trkpt><trkpt lat="46.1111375" lon="13.4872253"><ele>181.0</ele><time>2026-05-03T07:10:55.074Z</time></trkpt><trkpt lat="46.1110475" lon="13.4871568"><ele>181.0</ele><time>2026-05-03T07:10:56.085Z</time></trkpt><trkpt lat="46.1109548" lon="13.4870836"><ele>181.0</ele><time>2026-05-03T07:10:57.075Z</time></trkpt><trkpt lat="46.1108594" lon="13.4870023"><ele>181.0</ele><time>2026-05-03T07:10:58.072Z</time></trkpt><trkpt lat="46.1107695" lon="13.4869238"><ele>185.33333333333334</ele><time>2026-05-03T07:10:59.077Z</time></trkpt><trkpt lat="46.1106933" lon="13.486865"><ele>189.66666666666669</ele><time>2026-05-03T07:11:00.075Z</time></trkpt><trkpt lat="46.110629" lon="13.4868058"><ele>194.0</ele><time>2026-05-03T07:11:01.076Z</time></trkpt><trkpt lat="46.1105853" lon="13.486735"><ele>198.33333333333334</ele><time>2026-05-03T07:11:02.077Z</time></trkpt><trkpt lat="46.1105494" lon="13.4866542"><ele>202.66666666666666</ele><time>2026-05-03T07:11:03.074Z</time></trkpt><trkpt lat="46.1104687" lon="13.4865265"><ele>207.0</ele><time>2026-05-03T07:11:05.081Z</time></trkpt><trkpt lat="46.1104069" lon="13.4864869"><ele>207.0</ele><time>2026-05-03T07:11:06.086Z</time></trkpt><trkpt lat="46.110345" lon="13.4864478"><ele>207.0</ele><time>2026-05-03T07:11:07.073Z</time></trkpt><trkpt lat="46.1102852" lon="13.4864021"><ele>207.0</ele><time>2026-05-03T07:11:08.073Z</time></trkpt><trkpt lat="46.1101874" lon="13.4862974"><ele>207.0</ele><time>2026-05-03T07:11:10.082Z</time></trkpt><trkpt lat="46.1101105" lon="13.4861745"><ele>207.0</ele><time>2026-05-03T07:11:12.081Z</time></trkpt><trkpt lat="46.1100312" lon="13.486156"><ele>207.0</ele><time>2026-05-03T07:11:14.081Z</time></trkpt><trkpt lat="46.1100106" lon="13.4862644"><ele>207.0</ele><time>2026-05-03T07:11:17.083Z</time></trkpt><trkpt lat="46.1100355" lon="13.4864166"><ele>207.0</ele><time>2026-05-03T07:11:19.072Z</time></trkpt><trkpt lat="46.1100428" lon="13.4865931"><ele>207.0</ele><time>2026-05-03T07:11:21.075Z</time></trkpt><trkpt lat="46.1100743" lon="13.4867139"><ele>207.0</ele><time>2026-05-03T07:11:23.074Z</time></trkpt><trkpt lat="46.110102" lon="13.4868444"><ele>207.0</ele><time>2026-05-03T07:11:25.074Z</time></trkpt><trkpt lat="46.1101286" lon="13.4870067"><ele>207.0</ele><time>2026-05-03T07:11:27.073Z</time></trkpt><trkpt lat="46.1101445" lon="13.4870989"><ele>207.0</ele><time>2026-05-03T07:11:28.071Z</time></trkpt><trkpt lat="46.1101665" lon="13.487199"><ele>207.0</ele><time>2026-05-03T07:11:29.071Z</time></trkpt><trkpt lat="46.1101929" lon="13.4872999"><ele>207.0</ele><time>2026-05-03T07:11:30.075Z</time></trkpt><trkpt lat="46.1102116" lon="13.487403"><ele>207.0</ele><time>2026-05-03T07:11:31.083Z</time></trkpt><trkpt lat="46.1102285" lon="13.487491"><ele>208.42857142857144</ele><time>2026-05-03T07:11:32.072Z</time></trkpt><trkpt lat="46.1102544" lon="13.487578"><ele>209.85714285714286</ele><time>2026-05-03T07:11:33.078Z</time></trkpt><trkpt lat="46.1102905" lon="13.4876681"><ele>211.28571428571428</ele><time>2026-05-03T07:11:34.081Z</time></trkpt><trkpt lat="46.1103316" lon="13.4877504"><ele>212.71428571428572</ele><time>2026-05-03T07:11:35.072Z</time></trkpt><trkpt lat="46.1103781" lon="13.4878227"><ele>214.14285714285714</ele><time>2026-05-03T07:11:36.082Z</time></trkpt><trkpt lat="46.1104254" lon="13.4878974"><ele>215.57142857142858</ele><time>2026-05-03T07:11:37.083Z</time></trkpt><trkpt lat="46.1104655" lon="13.4879763"><ele>217.0</ele><time>2026-05-03T07:11:38.082Z</time></trkpt><trkpt lat="46.1104978" lon="13.4880587"><ele>220.33333333333331</ele><time>2026-05-03T07:11:39.076Z</time></trkpt><trkpt lat="46.1105288" lon="13.4881511"><ele>223.66666666666666</ele><time>2026-05-03T07:11:40.077Z</time></trkpt><trkpt lat="46.1105554" lon="13.4882494"><ele>227.0</ele><time>2026-05-03T07:11:41.085Z</time></trkpt><trkpt lat="46.1105808" lon="13.4883551"><ele>230.33333333333331</ele><time>2026-05-03T07:11:42.077Z</time></trkpt><trkpt lat="46.1106115" lon="13.4884664"><ele>233.66666666666666</ele><time>2026-05-03T07:11:43.073Z</time></trkpt><trkpt lat="46.1106441" lon="13.4885758"><ele>237.0</ele><time>2026-05-03T07:11:44.069Z</time></trkpt><trkpt lat="46.1106746" lon="13.4886963"><ele>235.5</ele><time>2026-05-03T07:11:45.076Z</time></trkpt><trkpt lat="46.1107049" lon="13.4888117"><ele>234.0</ele><time>2026-05-03T07:11:46.079Z</time></trkpt><trkpt lat="46.1107394" lon="13.4889262"><ele>232.5</ele><time>2026-05-03T07:11:47.067Z</time></trkpt><trkpt lat="46.1107739" lon="13.4890292"><ele>231.0</ele><time>2026-05-03T07:11:48.077Z</time></trkpt><trkpt lat="46.1108109" lon="13.4891258"><ele>229.5</ele><time>2026-05-03T07:11:49.079Z</time></trkpt><trkpt lat="46.1108567" lon="13.4892029"><ele>228.0</ele><time>2026-05-03T07:11:50.084Z</time></trkpt><trkpt lat="46.1109098" lon="13.4892683"><ele>228.0</ele><time>2026-05-03T07:11:51.08Z</time></trkpt><trkpt lat="46.1109609" lon="13.4893297"><ele>228.0</ele><time>2026-05-03T07:11:52.085Z</time></trkpt><trkpt lat="46.1110267" lon="13.489472"><ele>228.0</ele><time>2026-05-03T07:11:54.081Z</time></trkpt><trkpt lat="46.111066" lon="13.4896495"><ele>228.0</ele><time>2026-05-03T07:11:56.069Z</time></trkpt><trkpt lat="46.1110752" lon="13.4897537"><ele>228.0</ele><time>2026-05-03T07:11:57.084Z</time></trkpt><trkpt lat="46.1111" lon="13.4898543"><ele>230.83333333333334</ele><time>2026-05-03T07:11:58.074Z</time></trkpt><trkpt lat="46.11113" lon="13.4899488"><ele>233.66666666666669</ele><time>2026-05-03T07:11:59.071Z</time></trkpt><trkpt lat="46.1111685" lon="13.4900404"><ele>236.5</ele><time>2026-05-03T07:12:00.081Z</time></trkpt><trkpt lat="46.1112056" lon="13.4901356"><ele>239.33333333333334</ele><time>2026-05-03T07:12:01.078Z</time></trkpt><trkpt lat="46.1112301" lon="13.490227"><ele>242.16666666666669</ele><time>2026-05-03T07:12:02.073Z</time></trkpt><trkpt lat="46.1112329" lon="13.4903973"><ele>245.0</ele><time>2026-05-03T07:12:04.072Z</time></trkpt><trkpt lat="46.1112279" lon="13.4905259"><ele>247.4</ele><time>2026-05-03T07:12:06.074Z</time></trkpt><trkpt lat="46.1112045" lon="13.4906918"><ele>249.8</ele><time>2026-05-03T07:12:08.071Z</time></trkpt><trkpt lat="46.1111902" lon="13.4907932"><ele>252.2</ele><time>2026-05-03T07:12:09.07Z</time></trkpt><trkpt lat="46.1111743" lon="13.4909136"><ele>254.6</ele><time>2026-05-03T07:12:10.081Z</time></trkpt><trkpt lat="46.1111521" lon="13.4910338"><ele>257.0</ele><time>2026-05-03T07:12:11.073Z</time></trkpt><trkpt lat="46.1111281" lon="13.4911621"><ele>258.2</ele><time>2026-05-03T07:12:12.074Z</time></trkpt><trkpt lat="46.1111043" lon="13.4912865"><ele>259.4</ele><time>2026-05-03T07:12:13.071Z</time></trkpt><trkpt lat="46.1110726" lon="13.4914158"><ele>260.6</ele><time>2026-05-03T07:12:14.077Z</time></trkpt><trkpt lat="46.1110278" lon="13.4915373"><ele>261.8</ele><time>2026-05-03T07:12:15.078Z</time></trkpt><trkpt lat="46.1109782" lon="13.4916616"><ele>263.0</ele><time>2026-05-03T07:12:16.075Z</time></trkpt><trkpt lat="46.1109354" lon="13.4917902"><ele>263.0</ele><time>2026-05-03T07:12:17.087Z</time></trkpt><trkpt lat="46.1108929" lon="13.4919189"><ele>263.0</ele><time>2026-05-03T07:12:18.076Z</time></trkpt><trkpt lat="46.1108536" lon="13.4920411"><ele>263.0</ele><time>2026-05-03T07:12:19.077Z</time></trkpt><trkpt lat="46.1108139" lon="13.4921707"><ele>263.0</ele><time>2026-05-03T07:12:20.079Z</time></trkpt><trkpt lat="46.1107814" lon="13.4923005"><ele>263.0</ele><time>2026-05-03T07:12:21.076Z</time></trkpt><trkpt lat="46.1107479" lon="13.4924364"><ele>266.0</ele><time>2026-05-03T07:12:22.077Z</time></trkpt><trkpt lat="46.1107232" lon="13.4925705"><ele>269.0</ele><time>2026-05-03T07:12:23.072Z</time></trkpt><trkpt lat="46.1107016" lon="13.4927032"><ele>272.0</ele><time>2026-05-03T07:12:24.078Z</time></trkpt><trkpt lat="46.1106762" lon="13.4928407"><ele>275.0</ele><time>2026-05-03T07:12:25.074Z</time></trkpt><trkpt lat="46.1106468" lon="13.4929729"><ele>278.0</ele><time>2026-05-03T07:12:26.08Z</time></trkpt><trkpt lat="46.1106149" lon="13.4931005"><ele>278.0</ele><time>2026-05-03T07:12:27.078Z</time></trkpt><trkpt lat="46.1105804" lon="13.4932115"><ele>278.0</ele><time>2026-05-03T07:12:28.08Z</time></trkpt><trkpt lat="46.1104916" lon="13.4933278"><ele>278.0</ele><time>2026-05-03T07:12:30.073Z</time></trkpt><trkpt lat="46.1104288" lon="13.4933716"><ele>278.0</ele><time>2026-05-03T07:12:31.072Z</time></trkpt><trkpt lat="46.1103656" lon="13.4934138"><ele>278.0</ele><time>2026-05-03T07:12:32.073Z</time></trkpt><trkpt lat="46.1102926" lon="13.4934564"><ele>278.0</ele><time>2026-05-03T07:12:33.077Z</time></trkpt><trkpt lat="46.1102151" lon="13.4934923"><ele>278.0</ele><time>2026-05-03T07:12:34.069Z</time></trkpt><trkpt lat="46.1101338" lon="13.493528"><ele>278.0</ele><time>2026-05-03T07:12:35.074Z</time></trkpt><trkpt lat="46.1100508" lon="13.4935624"><ele>278.0</ele><time>2026-05-03T07:12:36.072Z</time></trkpt><trkpt lat="46.1099641" lon="13.4935941"><ele>278.0</ele><time>2026-05-03T07:12:37.074Z</time></trkpt><trkpt lat="46.1098791" lon="13.4936116"><ele>278.0</ele><time>2026-05-03T07:12:38.09Z</time></trkpt><trkpt lat="46.1097022" lon="13.4936254"><ele>279.33333333333337</ele><time>2026-05-03T07:12:40.075Z</time></trkpt><trkpt lat="46.1096175" lon="13.4936458"><ele>280.6666666666667</ele><time>2026-05-03T07:12:41.07Z</time></trkpt><trkpt lat="46.1095319" lon="13.4936793"><ele>282.0</ele><time>2026-05-03T07:12:42.077Z</time></trkpt><trkpt lat="46.1094419" lon="13.4936986"><ele>283.3333333333333</ele><time>2026-05-03T07:12:43.072Z</time></trkpt><trkpt lat="46.1093512" lon="13.4937064"><ele>284.66666666666663</ele><time>2026-05-03T07:12:44.077Z</time></trkpt><trkpt lat="46.1092649" lon="13.4936954"><ele>286.0</ele><time>2026-05-03T07:12:45.08Z</time></trkpt><trkpt lat="46.1091844" lon="13.4936808"><ele>286.0</ele><time>2026-05-03T07:12:46.07Z</time></trkpt><trkpt lat="46.1091073" lon="13.4936188"><ele>286.0</ele><time>2026-05-03T07:12:48.073Z</time></trkpt><trkpt lat="46.1091385" lon="13.4935364"><ele>286.0</ele><time>2026-05-03T07:12:53.077Z</time></trkpt><trkpt lat="46.1092438" lon="13.4934925"><ele>286.0</ele><time>2026-05-03T07:13:15.08Z</time></trkpt><trkpt lat="46.1093154" lon="13.4934552"><ele>286.0</ele><time>2026-05-03T07:13:16.071Z</time></trkpt><trkpt lat="46.1093983" lon="13.4934208"><ele>286.0</ele><time>2026-05-03T07:13:17.071Z</time></trkpt><trkpt lat="46.1094895" lon="13.4933751"><ele>286.0</ele><time>2026-05-03T07:13:18.075Z</time></trkpt><trkpt lat="46.1095801" lon="13.4933103"><ele>286.0</ele><time>2026-05-03T07:13:19.078Z</time></trkpt><trkpt lat="46.1096448" lon="13.49324"><ele>286.0</ele><time>2026-05-03T07:13:20.081Z</time></trkpt><trkpt lat="46.1097084" lon="13.4931617"><ele>286.0</ele><time>2026-05-03T07:13:21.081Z</time></trkpt><trkpt lat="46.1097734" lon="13.4930686"><ele>286.0</ele><time>2026-05-03T07:13:22.074Z</time></trkpt><trkpt lat="46.1098204" lon="13.4929798"><ele>286.0</ele><time>2026-05-03T07:13:23.073Z</time></trkpt><trkpt lat="46.1098669" lon="13.4928889"><ele>287.6</ele><time>2026-05-03T07:13:24.081Z</time></trkpt><trkpt lat="46.109907" lon="13.4927932"><ele>289.20000000000005</ele><time>2026-05-03T07:13:25.081Z</time></trkpt><trkpt lat="46.1099321" lon="13.4926801"><ele>290.79999999999995</ele><time>2026-05-03T07:13:26.075Z</time></trkpt><trkpt lat="46.109951" lon="13.492543"><ele>292.4</ele><time>2026-05-03T07:13:27.079Z</time></trkpt><trkpt lat="46.1099689" lon="13.4923999"><ele>294.0</ele><time>2026-05-03T07:13:28.071Z</time></trkpt><trkpt lat="46.1099863" lon="13.4922621"><ele>294.0</ele><time>2026-05-03T07:13:29.082Z</time></trkpt><trkpt lat="46.1099891" lon="13.4921245"><ele>294.0</ele><time>2026-05-03T07:13:30.075Z</time></trkpt><trkpt lat="46.1099776" lon="13.4919875"><ele>294.0</ele><time>2026-05-03T07:13:31.072Z</time></trkpt><trkpt lat="46.1099516" lon="13.4918586"><ele>294.0</ele><time>2026-05-03T07:13:32.075Z</time></trkpt><trkpt lat="46.1099166" lon="13.491731"><ele>294.0</ele><time>2026-05-03T07:13:33.084Z</time></trkpt><trkpt lat="46.1098824" lon="13.491619"><ele>297.0</ele><time>2026-05-03T07:13:34.075Z</time></trkpt><trkpt lat="46.1098382" lon="13.4915254"><ele>300.0</ele><time>2026-05-03T07:13:35.072Z</time></trkpt><trkpt lat="46.1097866" lon="13.4914495"><ele>303.0</ele><time>2026-05-03T07:13:36.074Z</time></trkpt><trkpt lat="46.1097311" lon="13.4913972"><ele>306.0</ele><time>2026-05-03T07:13:37.075Z</time></trkpt><trkpt lat="46.109655" lon="13.4913654"><ele>309.0</ele><time>2026-05-03T07:13:38.069Z</time></trkpt><trkpt lat="46.1095621" lon="13.4913384"><ele>312.0</ele><time>2026-05-03T07:13:39.082Z</time></trkpt><trkpt lat="46.1094563" lon="13.4912935"><ele>312.2</ele><time>2026-05-03T07:13:40.074Z</time></trkpt><trkpt lat="46.1093488" lon="13.4912331"><ele>312.4</ele><time>2026-05-03T07:13:41.075Z</time></trkpt><trkpt lat="46.1092514" lon="13.4911507"><ele>312.6</ele><time>2026-05-03T07:13:42.074Z</time></trkpt><trkpt lat="46.1091749" lon="13.4910517"><ele>312.8</ele><time>2026-05-03T07:13:43.086Z</time></trkpt><trkpt lat="46.1091204" lon="13.4909511"><ele>313.0</ele><time>2026-05-03T07:13:44.076Z</time></trkpt><trkpt lat="46.1090947" lon="13.4908416"><ele>315.0</ele><time>2026-05-03T07:13:45.073Z</time></trkpt><trkpt lat="46.1090707" lon="13.4907162"><ele>317.0</ele><time>2026-05-03T07:13:46.074Z</time></trkpt><trkpt lat="46.1090504" lon="13.4905629"><ele>319.0</ele><time>2026-05-03T07:13:47.078Z</time></trkpt><trkpt lat="46.1090339" lon="13.4903932"><ele>321.0</ele><time>2026-05-03T07:13:48.071Z</time></trkpt><trkpt lat="46.1090187" lon="13.4902226"><ele>323.0</ele><time>2026-05-03T07:13:49.073Z</time></trkpt><trkpt lat="46.1090073" lon="13.4900639"><ele>323.79999999999995</ele><time>2026-05-03T07:13:50.076Z</time></trkpt><trkpt lat="46.1089841" lon="13.4899188"><ele>324.6</ele><time>2026-05-03T07:13:51.076Z</time></trkpt><trkpt lat="46.1089551" lon="13.489779"><ele>325.4</ele><time>2026-05-03T07:13:52.069Z</time></trkpt><trkpt lat="46.1089223" lon="13.4896528"><ele>326.20000000000005</ele><time>2026-05-03T07:13:53.076Z</time></trkpt><trkpt lat="46.1088725" lon="13.4895537"><ele>327.0</ele><time>2026-05-03T07:13:54.076Z</time></trkpt><trkpt lat="46.1088129" lon="13.4894707"><ele>322.8</ele><time>2026-05-03T07:13:55.072Z</time></trkpt><trkpt lat="46.1087333" lon="13.4893993"><ele>318.6</ele><time>2026-05-03T07:13:56.072Z</time></trkpt><trkpt lat="46.1086312" lon="13.4893366"><ele>314.40000000000003</ele><time>2026-05-03T07:13:57.083Z</time></trkpt><trkpt lat="46.1085178" lon="13.489276"><ele>310.20000000000005</ele><time>2026-05-03T07:13:58.072Z</time></trkpt><trkpt lat="46.1084094" lon="13.4892117"><ele>306.0</ele><time>2026-05-03T07:13:59.075Z</time></trkpt><trkpt lat="46.108315" lon="13.4891594"><ele>306.0</ele><time>2026-05-03T07:14:00.08Z</time></trkpt><trkpt lat="46.1082498" lon="13.4891041"><ele>306.0</ele><time>2026-05-03T07:14:01.078Z</time></trkpt><trkpt lat="46.1081984" lon="13.4889514"><ele>306.0</ele><time>2026-05-03T07:14:03.079Z</time></trkpt><trkpt lat="46.1081859" lon="13.4888514"><ele>306.0</ele><time>2026-05-03T07:14:04.077Z</time></trkpt><trkpt lat="46.108187" lon="13.4887302"><ele>306.0</ele><time>2026-05-03T07:14:05.075Z</time></trkpt><trkpt lat="46.1082074" lon="13.4885798"><ele>305.0</ele><time>2026-05-03T07:14:06.079Z</time></trkpt><trkpt lat="46.1082417" lon="13.4884216"><ele>304.0</ele><time>2026-05-03T07:14:07.072Z</time></trkpt><trkpt lat="46.1082672" lon="13.4882543"><ele>303.0</ele><time>2026-05-03T07:14:08.076Z</time></trkpt><trkpt lat="46.1082899" lon="13.4880846"><ele>302.0</ele><time>2026-05-03T07:14:09.076Z</time></trkpt><trkpt lat="46.1083098" lon="13.4879094"><ele>302.0</ele><time>2026-05-03T07:14:10.073Z</time></trkpt><trkpt lat="46.1083287" lon="13.4877337"><ele>302.0</ele><time>2026-05-03T07:14:11.071Z</time></trkpt><trkpt lat="46.108347" lon="13.4875568"><ele>302.0</ele><time>2026-05-03T07:14:12.082Z</time></trkpt><trkpt lat="46.1083566" lon="13.4873899"><ele>302.0</ele><time>2026-05-03T07:14:13.084Z</time></trkpt><trkpt lat="46.1083556" lon="13.4872262"><ele>300.25</ele><time>2026-05-03T07:14:14.078Z</time></trkpt><trkpt lat="46.1083447" lon="13.4870651"><ele>298.5</ele><time>2026-05-03T07:14:15.075Z</time></trkpt><trkpt lat="46.1083291" lon="13.4868947"><ele>296.75</ele><time>2026-05-03T07:14:16.077Z</time></trkpt><trkpt lat="46.1083046" lon="13.4867244"><ele>295.0</ele><time>2026-05-03T07:14:17.069Z</time></trkpt><trkpt lat="46.108285" lon="13.4865569"><ele>295.0</ele><time>2026-05-03T07:14:18.076Z</time></trkpt><trkpt lat="46.1082724" lon="13.4864039"><ele>295.0</ele><time>2026-05-03T07:14:19.078Z</time></trkpt><trkpt lat="46.108262" lon="13.4862501"><ele>295.0</ele><time>2026-05-03T07:14:20.071Z</time></trkpt><trkpt lat="46.1082424" lon="13.4860991"><ele>295.0</ele><time>2026-05-03T07:14:21.075Z</time></trkpt><trkpt lat="46.1082224" lon="13.4859476"><ele>295.0</ele><time>2026-05-03T07:14:22.075Z</time></trkpt><trkpt lat="46.1081983" lon="13.4858134"><ele>302.0</ele><time>2026-05-03T07:14:23.078Z</time></trkpt><trkpt lat="46.1081642" lon="13.4857008"><ele>309.0</ele><time>2026-05-03T07:14:24.073Z</time></trkpt><trkpt lat="46.1081177" lon="13.4855824"><ele>316.0</ele><time>2026-05-03T07:14:25.081Z</time></trkpt><trkpt lat="46.1080677" lon="13.4854322"><ele>323.0</ele><time>2026-05-03T07:14:26.079Z</time></trkpt><trkpt lat="46.108024" lon="13.4852724"><ele>330.0</ele><time>2026-05-03T07:14:27.071Z</time></trkpt><trkpt lat="46.1079806" lon="13.4851174"><ele>330.0</ele><time>2026-05-03T07:14:28.081Z</time></trkpt><trkpt lat="46.1079394" lon="13.4849667"><ele>330.0</ele><time>2026-05-03T07:14:29.071Z</time></trkpt><trkpt lat="46.1079056" lon="13.484816"><ele>330.0</ele><time>2026-05-03T07:14:30.083Z</time></trkpt><trkpt lat="46.1078801" lon="13.4846819"><ele>330.0</ele><time>2026-05-03T07:14:31.074Z</time></trkpt><trkpt lat="46.1078592" lon="13.4845436"><ele>330.0</ele><time>2026-05-03T07:14:32.074Z</time></trkpt><trkpt lat="46.1078514" lon="13.4844072"><ele>331.4</ele><time>2026-05-03T07:14:33.075Z</time></trkpt><trkpt lat="46.1078564" lon="13.4842598"><ele>332.8</ele><time>2026-05-03T07:14:34.091Z</time></trkpt><trkpt lat="46.1078662" lon="13.4841128"><ele>334.20000000000005</ele><time>2026-05-03T07:14:35.081Z</time></trkpt><trkpt lat="46.1078862" lon="13.4839855"><ele>335.6</ele><time>2026-05-03T07:14:36.075Z</time></trkpt><trkpt lat="46.1079047" lon="13.4838619"><ele>337.0</ele><time>2026-05-03T07:14:37.079Z</time></trkpt><trkpt lat="46.107929" lon="13.4837383"><ele>338.0</ele><time>2026-05-03T07:14:38.074Z</time></trkpt><trkpt lat="46.1079701" lon="13.4836219"><ele>339.0</ele><time>2026-05-03T07:14:39.074Z</time></trkpt><trkpt lat="46.108014" lon="13.4835"><ele>340.0</ele><time>2026-05-03T07:14:40.076Z</time></trkpt><trkpt lat="46.1080628" lon="13.4833772"><ele>341.0</ele><time>2026-05-03T07:14:41.075Z</time></trkpt><trkpt lat="46.1081059" lon="13.483241"><ele>342.0</ele><time>2026-05-03T07:14:42.072Z</time></trkpt><trkpt lat="46.108141" lon="13.4831013"><ele>342.0</ele><time>2026-05-03T07:14:43.078Z</time></trkpt><trkpt lat="46.1081612" lon="13.4829638"><ele>342.0</ele><time>2026-05-03T07:14:44.074Z</time></trkpt><trkpt lat="46.1081658" lon="13.4828272"><ele>342.0</ele><time>2026-05-03T07:14:45.073Z</time></trkpt><trkpt lat="46.1081633" lon="13.4826964"><ele>342.0</ele><time>2026-05-03T07:14:46.07Z</time></trkpt><trkpt lat="46.1081611" lon="13.4825658"><ele>342.0</ele><time>2026-05-03T07:14:47.072Z</time></trkpt><trkpt lat="46.1081571" lon="13.4824492"><ele>341.1666666666667</ele><time>2026-05-03T07:14:48.082Z</time></trkpt><trkpt lat="46.108144" lon="13.4823531"><ele>340.3333333333333</ele><time>2026-05-03T07:14:49.076Z</time></trkpt><trkpt lat="46.1081207" lon="13.4822581"><ele>339.5</ele><time>2026-05-03T07:14:50.076Z</time></trkpt><trkpt lat="46.1080813" lon="13.4821651"><ele>338.66666666666663</ele><time>2026-05-03T07:14:51.071Z</time></trkpt><trkpt lat="46.1080291" lon="13.4820619"><ele>337.8333333333333</ele><time>2026-05-03T07:14:52.073Z</time></trkpt><trkpt lat="46.1079645" lon="13.4819531"><ele>337.0</ele><time>2026-05-03T07:14:53.078Z</time></trkpt><trkpt lat="46.1078942" lon="13.4818448"><ele>333.40000000000003</ele><time>2026-05-03T07:14:54.075Z</time></trkpt><trkpt lat="46.1078221" lon="13.4817378"><ele>329.8</ele><time>2026-05-03T07:14:55.076Z</time></trkpt><trkpt lat="46.107751" lon="13.4816252"><ele>326.2</ele><time>2026-05-03T07:14:56.077Z</time></trkpt><trkpt lat="46.1076845" lon="13.4814966"><ele>322.6</ele><time>2026-05-03T07:14:57.082Z</time></trkpt><trkpt lat="46.1076231" lon="13.4813584"><ele>319.0</ele><time>2026-05-03T07:14:58.071Z</time></trkpt><trkpt lat="46.1075675" lon="13.4812099"><ele>318.25</ele><time>2026-05-03T07:14:59.069Z</time></trkpt><trkpt lat="46.107521" lon="13.4810598"><ele>317.5</ele><time>2026-05-03T07:15:00.081Z</time></trkpt><trkpt lat="46.1074756" lon="13.4809064"><ele>316.75</ele><time>2026-05-03T07:15:01.08Z</time></trkpt><trkpt lat="46.1074366" lon="13.480749"><ele>316.0</ele><time>2026-05-03T07:15:02.078Z</time></trkpt><trkpt lat="46.1074007" lon="13.4805927"><ele>316.0</ele><time>2026-05-03T07:15:03.073Z</time></trkpt><trkpt lat="46.107366" lon="13.4804435"><ele>316.0</ele><time>2026-05-03T07:15:04.074Z</time></trkpt><trkpt lat="46.1073393" lon="13.480298"><ele>316.0</ele><time>2026-05-03T07:15:05.075Z</time></trkpt><trkpt lat="46.107319" lon="13.4801819"><ele>316.0</ele><time>2026-05-03T07:15:06.077Z</time></trkpt><trkpt lat="46.1072798" lon="13.4800653"><ele>316.0</ele><time>2026-05-03T07:15:08.074Z</time></trkpt><trkpt lat="46.1072321" lon="13.4799773"><ele>311.3333333333333</ele><time>2026-05-03T07:15:11.076Z</time></trkpt><trkpt lat="46.1071434" lon="13.4799583"><ele>306.66666666666663</ele><time>2026-05-03T07:15:14.072Z</time></trkpt><trkpt lat="46.1070808" lon="13.4799364"><ele>302.0</ele><time>2026-05-03T07:15:27.073Z</time></trkpt><trkpt lat="46.1070039" lon="13.4798757"><ele>297.3333333333333</ele><time>2026-05-03T07:15:30.073Z</time></trkpt><trkpt lat="46.106894" lon="13.479903"><ele>292.6666666666667</ele><time>2026-05-03T07:15:32.074Z</time></trkpt><trkpt lat="46.1068124" lon="13.4799468"><ele>288.0</ele><time>2026-05-03T07:15:33.074Z</time></trkpt><trkpt lat="46.106714" lon="13.4799832"><ele>288.0</ele><time>2026-05-03T07:15:34.072Z</time></trkpt><trkpt lat="46.1066128" lon="13.4800234"><ele>288.0</ele><time>2026-05-03T07:15:35.074Z</time></trkpt><trkpt lat="46.1065101" lon="13.4800866"><ele>288.0</ele><time>2026-05-03T07:15:36.077Z</time></trkpt><trkpt lat="46.1064172" lon="13.480162"><ele>288.0</ele><time>2026-05-03T07:15:37.073Z</time></trkpt><trkpt lat="46.10632" lon="13.4802542"><ele>288.0</ele><time>2026-05-03T07:15:38.072Z</time></trkpt><trkpt lat="46.1062235" lon="13.4803475"><ele>290.5</ele><time>2026-05-03T07:15:39.071Z</time></trkpt><trkpt lat="46.106126" lon="13.4804368"><ele>293.0</ele><time>2026-05-03T07:15:40.08Z</time></trkpt><trkpt lat="46.1060231" lon="13.4805248"><ele>295.5</ele><time>2026-05-03T07:15:41.073Z</time></trkpt><trkpt lat="46.1059177" lon="13.4806122"><ele>298.0</ele><time>2026-05-03T07:15:42.072Z</time></trkpt><trkpt lat="46.1058186" lon="13.4807059"><ele>300.2</ele><time>2026-05-03T07:15:43.083Z</time></trkpt><trkpt lat="46.1057175" lon="13.4808042"><ele>302.4</ele><time>2026-05-03T07:15:44.075Z</time></trkpt><trkpt lat="46.1056233" lon="13.4808931"><ele>304.59999999999997</ele><time>2026-05-03T07:15:45.077Z</time></trkpt><trkpt lat="46.1055407" lon="13.4809827"><ele>306.8</ele><time>2026-05-03T07:15:46.071Z</time></trkpt><trkpt lat="46.1054691" lon="13.4810664"><ele>309.0</ele><time>2026-05-03T07:15:47.072Z</time></trkpt><trkpt lat="46.1054079" lon="13.4811244"><ele>309.0</ele><time>2026-05-03T07:15:48.072Z</time></trkpt><trkpt lat="46.1053273" lon="13.4810988"><ele>309.0</ele><time>2026-05-03T07:15:50.071Z</time></trkpt><trkpt lat="46.1052914" lon="13.4809214"><ele>309.0</ele><time>2026-05-03T07:15:52.071Z</time></trkpt><trkpt lat="46.1052993" lon="13.4807888"><ele>309.0</ele><time>2026-05-03T07:15:53.075Z</time></trkpt><trkpt lat="46.1053142" lon="13.4806362"><ele>309.0</ele><time>2026-05-03T07:15:54.072Z</time></trkpt><trkpt lat="46.1053298" lon="13.4804571"><ele>304.5</ele><time>2026-05-03T07:15:55.078Z</time></trkpt><trkpt lat="46.1053438" lon="13.4802458"><ele>300.0</ele><time>2026-05-03T07:15:56.075Z</time></trkpt><trkpt lat="46.1053535" lon="13.480034"><ele>295.5</ele><time>2026-05-03T07:15:57.073Z</time></trkpt><trkpt lat="46.1053614" lon="13.4798353"><ele>291.0</ele><time>2026-05-03T07:15:58.074Z</time></trkpt><trkpt lat="46.1053595" lon="13.4796764"><ele>287.5</ele><time>2026-05-03T07:15:59.082Z</time></trkpt><trkpt lat="46.1053351" lon="13.4795686"><ele>284.0</ele><time>2026-05-03T07:16:00.07Z</time></trkpt><trkpt lat="46.1052918" lon="13.4794792"><ele>280.5</ele><time>2026-05-03T07:16:01.075Z</time></trkpt><trkpt lat="46.1052312" lon="13.4794189"><ele>277.0</ele><time>2026-05-03T07:16:02.079Z</time></trkpt><trkpt lat="46.1051553" lon="13.4793799"><ele>273.5</ele><time>2026-05-03T07:16:03.073Z</time></trkpt><trkpt lat="46.1050668" lon="13.4793533"><ele>270.0</ele><time>2026-05-03T07:16:04.071Z</time></trkpt><trkpt lat="46.1049547" lon="13.4793164"><ele>270.5</ele><time>2026-05-03T07:16:05.082Z</time></trkpt><trkpt lat="46.1048398" lon="13.4792739"><ele>271.0</ele><time>2026-05-03T07:16:06.072Z</time></trkpt><trkpt lat="46.1047272" lon="13.4792327"><ele>271.5</ele><time>2026-05-03T07:16:07.072Z</time></trkpt><trkpt lat="46.1046298" lon="13.4791886"><ele>272.0</ele><time>2026-05-03T07:16:08.07Z</time></trkpt><trkpt lat="46.1045551" lon="13.479054"><ele>272.0</ele><time>2026-05-03T07:16:10.075Z</time></trkpt><trkpt lat="46.1045404" lon="13.4789189"><ele>272.0</ele><time>2026-05-03T07:16:11.071Z</time></trkpt><trkpt lat="46.1045102" lon="13.4787203"><ele>272.0</ele><time>2026-05-03T07:16:12.072Z</time></trkpt><trkpt lat="46.1044654" lon="13.4784704"><ele>272.0</ele><time>2026-05-03T07:16:13.076Z</time></trkpt><trkpt lat="46.1044236" lon="13.4781924"><ele>265.5</ele><time>2026-05-03T07:16:14.077Z</time></trkpt><trkpt lat="46.1043955" lon="13.477918"><ele>259.0</ele><time>2026-05-03T07:16:15.07Z</time></trkpt><trkpt lat="46.1043608" lon="13.477721"><ele>252.5</ele><time>2026-05-03T07:16:16.075Z</time></trkpt><trkpt lat="46.1043231" lon="13.4776169"><ele>246.0</ele><time>2026-05-03T07:16:17.077Z</time></trkpt><trkpt lat="46.1042737" lon="13.477552"><ele>246.0</ele><time>2026-05-03T07:16:18.072Z</time></trkpt><trkpt lat="46.1042097" lon="13.4775211"><ele>246.0</ele><time>2026-05-03T07:16:19.076Z</time></trkpt><trkpt lat="46.1041361" lon="13.4775403"><ele>246.0</ele><time>2026-05-03T07:16:20.082Z</time></trkpt><trkpt lat="46.1040521" lon="13.4775764"><ele>246.0</ele><time>2026-05-03T07:16:21.07Z</time></trkpt><trkpt lat="46.1039633" lon="13.4776121"><ele>246.0</ele><time>2026-05-03T07:16:22.072Z</time></trkpt><trkpt lat="46.1038803" lon="13.4776533"><ele>246.0</ele><time>2026-05-03T07:16:23.073Z</time></trkpt><trkpt lat="46.1038048" lon="13.47771"><ele>243.4</ele><time>2026-05-03T07:16:24.079Z</time></trkpt><trkpt lat="46.1037346" lon="13.477781"><ele>240.8</ele><time>2026-05-03T07:16:25.079Z</time></trkpt><trkpt lat="46.1036666" lon="13.4778878"><ele>238.20000000000002</ele><time>2026-05-03T07:16:26.074Z</time></trkpt><trkpt lat="46.1035926" lon="13.478022"><ele>235.60000000000002</ele><time>2026-05-03T07:16:27.077Z</time></trkpt><trkpt lat="46.1035357" lon="13.4781762"><ele>233.0</ele><time>2026-05-03T07:16:28.076Z</time></trkpt><trkpt lat="46.1034924" lon="13.478331"><ele>233.0</ele><time>2026-05-03T07:16:29.07Z</time></trkpt><trkpt lat="46.1034429" lon="13.4784773"><ele>233.0</ele><time>2026-05-03T07:16:30.074Z</time></trkpt><trkpt lat="46.1033917" lon="13.4786178"><ele>233.0</ele><time>2026-05-03T07:16:31.075Z</time></trkpt><trkpt lat="46.1033356" lon="13.4787483"><ele>233.0</ele><time>2026-05-03T07:16:32.07Z</time></trkpt><trkpt lat="46.103284" lon="13.4788761"><ele>233.0</ele><time>2026-05-03T07:16:33.073Z</time></trkpt><trkpt lat="46.1032407" lon="13.4790047"><ele>231.4</ele><time>2026-05-03T07:16:34.074Z</time></trkpt><trkpt lat="46.1031983" lon="13.4791374"><ele>229.8</ele><time>2026-05-03T07:16:35.071Z</time></trkpt><trkpt lat="46.1031601" lon="13.4792662"><ele>228.2</ele><time>2026-05-03T07:16:36.074Z</time></trkpt><trkpt lat="46.1031241" lon="13.4793975"><ele>226.6</ele><time>2026-05-03T07:16:37.072Z</time></trkpt><trkpt lat="46.1030864" lon="13.4795295"><ele>225.0</ele><time>2026-05-03T07:16:38.072Z</time></trkpt><trkpt lat="46.1030427" lon="13.4796506"><ele>225.0</ele><time>2026-05-03T07:16:39.078Z</time></trkpt><trkpt lat="46.1029881" lon="13.4797745"><ele>225.0</ele><time>2026-05-03T07:16:40.071Z</time></trkpt><trkpt lat="46.1029146" lon="13.4798971"><ele>225.0</ele><time>2026-05-03T07:16:41.07Z</time></trkpt><trkpt lat="46.1028275" lon="13.480019"><ele>225.0</ele><time>2026-05-03T07:16:42.073Z</time></trkpt><trkpt lat="46.1027339" lon="13.4801341"><ele>225.0</ele><time>2026-05-03T07:16:43.084Z</time></trkpt><trkpt lat="46.1026292" lon="13.4802281"><ele>225.0</ele><time>2026-05-03T07:16:44.071Z</time></trkpt><trkpt lat="46.1025148" lon="13.4803052"><ele>225.0</ele><time>2026-05-03T07:16:45.072Z</time></trkpt><trkpt lat="46.1023984" lon="13.4803891"><ele>225.0</ele><time>2026-05-03T07:16:46.081Z</time></trkpt><trkpt lat="46.102281" lon="13.4804857"><ele>220.75</ele><time>2026-05-03T07:16:47.074Z</time></trkpt><trkpt lat="46.1021607" lon="13.4805752"><ele>216.5</ele><time>2026-05-03T07:16:48.076Z</time></trkpt><trkpt lat="46.1020488" lon="13.4806758"><ele>212.25</ele><time>2026-05-03T07:16:49.076Z</time></trkpt><trkpt lat="46.1019511" lon="13.4807948"><ele>208.0</ele><time>2026-05-03T07:16:50.078Z</time></trkpt><trkpt lat="46.1018712" lon="13.4809401"><ele>208.0</ele><time>2026-05-03T07:16:51.075Z</time></trkpt><trkpt lat="46.101801" lon="13.4810847"><ele>208.0</ele><time>2026-05-03T07:16:52.078Z</time></trkpt><trkpt lat="46.1017442" lon="13.4812257"><ele>208.0</ele><time>2026-05-03T07:16:53.075Z</time></trkpt><trkpt lat="46.1017079" lon="13.4813677"><ele>208.0</ele><time>2026-05-03T07:16:54.071Z</time></trkpt><trkpt lat="46.1016911" lon="13.4814979"><ele>208.0</ele><time>2026-05-03T07:16:55.072Z</time></trkpt><trkpt lat="46.1016688" lon="13.481604"><ele>207.83333333333331</ele><time>2026-05-03T07:16:56.073Z</time></trkpt><trkpt lat="46.101625" lon="13.4816782"><ele>207.66666666666666</ele><time>2026-05-03T07:16:57.074Z</time></trkpt><trkpt lat="46.1015101" lon="13.4816752"><ele>207.5</ele><time>2026-05-03T07:16:59.073Z</time></trkpt><trkpt lat="46.1014263" lon="13.4816341"><ele>207.33333333333331</ele><time>2026-05-03T07:17:00.081Z</time></trkpt><trkpt lat="46.1013419" lon="13.4816102"><ele>207.16666666666666</ele><time>2026-05-03T07:17:01.071Z</time></trkpt><trkpt lat="46.1012585" lon="13.4816477"><ele>207.0</ele><time>2026-05-03T07:17:02.07Z</time></trkpt><trkpt lat="46.101179" lon="13.4817201"><ele>207.0</ele><time>2026-05-03T07:17:03.076Z</time></trkpt><trkpt lat="46.1011096" lon="13.4817863"><ele>207.0</ele><time>2026-05-03T07:17:04.082Z</time></trkpt><trkpt lat="46.1010379" lon="13.4818378"><ele>207.0</ele><time>2026-05-03T07:17:05.077Z</time></trkpt><trkpt lat="46.10096" lon="13.4818739"><ele>207.0</ele><time>2026-05-03T07:17:06.076Z</time></trkpt><trkpt lat="46.1008689" lon="13.4818903"><ele>207.0</ele><time>2026-05-03T07:17:07.078Z</time></trkpt><trkpt lat="46.100778" lon="13.4818517"><ele>207.0</ele><time>2026-05-03T07:17:08.074Z</time></trkpt><trkpt lat="46.1006838" lon="13.4817731"><ele>205.5</ele><time>2026-05-03T07:17:09.07Z</time></trkpt><trkpt lat="46.1005891" lon="13.4816873"><ele>204.0</ele><time>2026-05-03T07:17:10.075Z</time></trkpt><trkpt lat="46.1004938" lon="13.4815904"><ele>202.5</ele><time>2026-05-03T07:17:11.082Z</time></trkpt><trkpt lat="46.1004034" lon="13.4814751"><ele>201.0</ele><time>2026-05-03T07:17:12.073Z</time></trkpt><trkpt lat="46.1003292" lon="13.4813446"><ele>197.0</ele><time>2026-05-03T07:17:13.069Z</time></trkpt><trkpt lat="46.1002532" lon="13.4812164"><ele>193.0</ele><time>2026-05-03T07:17:14.07Z</time></trkpt><trkpt lat="46.100174" lon="13.4810956"><ele>189.0</ele><time>2026-05-03T07:17:15.073Z</time></trkpt><trkpt lat="46.100104" lon="13.481008"><ele>185.0</ele><time>2026-05-03T07:17:16.072Z</time></trkpt><trkpt lat="46.1000392" lon="13.4809727"><ele>181.0</ele><time>2026-05-03T07:17:17.074Z</time></trkpt><trkpt lat="46.0999731" lon="13.480998"><ele>179.8</ele><time>2026-05-03T07:17:18.071Z</time></trkpt><trkpt lat="46.0998997" lon="13.4810784"><ele>178.60000000000002</ele><time>2026-05-03T07:17:19.076Z</time></trkpt><trkpt lat="46.0998289" lon="13.4812001"><ele>177.4</ele><time>2026-05-03T07:17:20.078Z</time></trkpt><trkpt lat="46.0997676" lon="13.4813253"><ele>176.2</ele><time>2026-05-03T07:17:21.07Z</time></trkpt><trkpt lat="46.099708" lon="13.4814284"><ele>175.0</ele><time>2026-05-03T07:17:22.072Z</time></trkpt><trkpt lat="46.0996382" lon="13.4814908"><ele>175.0</ele><time>2026-05-03T07:17:23.076Z</time></trkpt><trkpt lat="46.0995719" lon="13.4815164"><ele>175.0</ele><time>2026-05-03T07:17:24.078Z</time></trkpt><trkpt lat="46.0994929" lon="13.4814369"><ele>175.0</ele><time>2026-05-03T07:17:26.073Z</time></trkpt><trkpt lat="46.0995644" lon="13.4812748"><ele>175.0</ele><time>2026-05-03T07:17:28.075Z</time></trkpt><trkpt lat="46.0996374" lon="13.4811874"><ele>175.0</ele><time>2026-05-03T07:17:29.08Z</time></trkpt><trkpt lat="46.0997103" lon="13.4810918"><ele>174.0</ele><time>2026-05-03T07:17:30.079Z</time></trkpt><trkpt lat="46.0997808" lon="13.4809791"><ele>173.0</ele><time>2026-05-03T07:17:31.074Z</time></trkpt><trkpt lat="46.0998403" lon="13.4808626"><ele>172.0</ele><time>2026-05-03T07:17:32.077Z</time></trkpt><trkpt lat="46.0998777" lon="13.4807505"><ele>171.0</ele><time>2026-05-03T07:17:33.074Z</time></trkpt><trkpt lat="46.0999216" lon="13.4806448"><ele>170.0</ele><time>2026-05-03T07:17:34.071Z</time></trkpt><trkpt lat="46.0999718" lon="13.4805677"><ele>171.57142857142858</ele><time>2026-05-03T07:17:35.071Z</time></trkpt><trkpt lat="46.1000327" lon="13.4805168"><ele>173.14285714285714</ele><time>2026-05-03T07:17:36.07Z</time></trkpt><trkpt lat="46.1001011" lon="13.4805013"><ele>174.71428571428572</ele><time>2026-05-03T07:17:37.079Z</time></trkpt><trkpt lat="46.1001692" lon="13.4805319"><ele>176.28571428571428</ele><time>2026-05-03T07:17:38.08Z</time></trkpt><trkpt lat="46.1002269" lon="13.4805701"><ele>177.85714285714283</ele><time>2026-05-03T07:17:39.074Z</time></trkpt><trkpt lat="46.1002737" lon="13.480644"><ele>179.42857142857142</ele><time>2026-05-03T07:17:40.073Z</time></trkpt><trkpt lat="46.1003197" lon="13.4807257"><ele>181.0</ele><time>2026-05-03T07:17:41.068Z</time></trkpt><trkpt lat="46.1003808" lon="13.4808105"><ele>181.0</ele><time>2026-05-03T07:17:42.073Z</time></trkpt><trkpt lat="46.1004526" lon="13.480887"><ele>181.0</ele><time>2026-05-03T07:17:43.072Z</time></trkpt><trkpt lat="46.1005284" lon="13.4809457"><ele>181.0</ele><time>2026-05-03T07:17:44.072Z</time></trkpt><trkpt lat="46.1005979" lon="13.4809916"><ele>181.0</ele><time>2026-05-03T07:17:45.076Z</time></trkpt><trkpt lat="46.1006589" lon="13.4810259"><ele>181.0</ele><time>2026-05-03T07:17:46.076Z</time></trkpt><trkpt lat="46.100772" lon="13.4810574"><ele>181.0</ele><time>2026-05-03T07:17:48.076Z</time></trkpt><trkpt lat="46.1008804" lon="13.4809619"><ele>181.20000000000002</ele><time>2026-05-03T07:17:50.07Z</time></trkpt><trkpt lat="46.1009295" lon="13.4808522"><ele>181.4</ele><time>2026-05-03T07:17:51.069Z</time></trkpt><trkpt lat="46.1009703" lon="13.4807146"><ele>181.6</ele><time>2026-05-03T07:17:52.074Z</time></trkpt><trkpt lat="46.1009962" lon="13.4805532"><ele>181.8</ele><time>2026-05-03T07:17:53.075Z</time></trkpt><trkpt lat="46.1010256" lon="13.4803837"><ele>182.0</ele><time>2026-05-03T07:17:54.077Z</time></trkpt><trkpt lat="46.1010507" lon="13.4802122"><ele>177.75</ele><time>2026-05-03T07:17:55.075Z</time></trkpt><trkpt lat="46.1010711" lon="13.4800378"><ele>173.5</ele><time>2026-05-03T07:17:56.072Z</time></trkpt><trkpt lat="46.1010831" lon="13.479861"><ele>169.25</ele><time>2026-05-03T07:17:57.073Z</time></trkpt><trkpt lat="46.1010988" lon="13.4796885"><ele>165.0</ele><time>2026-05-03T07:17:58.076Z</time></trkpt><trkpt lat="46.1011149" lon="13.4795272"><ele>164.16666666666666</ele><time>2026-05-03T07:17:59.076Z</time></trkpt><trkpt lat="46.1011397" lon="13.4793775"><ele>163.33333333333334</ele><time>2026-05-03T07:18:00.07Z</time></trkpt><trkpt lat="46.1011917" lon="13.4792639"><ele>162.5</ele><time>2026-05-03T07:18:01.072Z</time></trkpt><trkpt lat="46.1012548" lon="13.4791923"><ele>161.66666666666669</ele><time>2026-05-03T07:18:02.074Z</time></trkpt><trkpt lat="46.1013251" lon="13.479147"><ele>160.83333333333334</ele><time>2026-05-03T07:18:03.071Z</time></trkpt><trkpt lat="46.1014028" lon="13.4790981"><ele>160.0</ele><time>2026-05-03T07:18:04.074Z</time></trkpt><trkpt lat="46.1014797" lon="13.4790356"><ele>160.0</ele><time>2026-05-03T07:18:05.07Z</time></trkpt><trkpt lat="46.1015507" lon="13.4789717"><ele>160.0</ele><time>2026-05-03T07:18:06.074Z</time></trkpt><trkpt lat="46.1016152" lon="13.4788991"><ele>160.0</ele><time>2026-05-03T07:18:07.077Z</time></trkpt><trkpt lat="46.1016719" lon="13.4788061"><ele>160.0</ele><time>2026-05-03T07:18:08.077Z</time></trkpt><trkpt lat="46.1017239" lon="13.4787012"><ele>160.0</ele><time>2026-05-03T07:18:09.078Z</time></trkpt><trkpt lat="46.1017695" lon="13.4785852"><ele>160.0</ele><time>2026-05-03T07:18:10.075Z</time></trkpt><trkpt lat="46.101809" lon="13.4784478"><ele>159.75</ele><time>2026-05-03T07:18:11.067Z</time></trkpt><trkpt lat="46.1018369" lon="13.4782894"><ele>159.5</ele><time>2026-05-03T07:18:12.086Z</time></trkpt><trkpt lat="46.1018563" lon="13.4781167"><ele>159.25</ele><time>2026-05-03T07:18:13.075Z</time></trkpt><trkpt lat="46.1018751" lon="13.477946"><ele>159.0</ele><time>2026-05-03T07:18:14.08Z</time></trkpt><trkpt lat="46.1018817" lon="13.4777692"><ele>159.0</ele><time>2026-05-03T07:18:15.071Z</time></trkpt><trkpt lat="46.1018802" lon="13.4775933"><ele>159.0</ele><time>2026-05-03T07:18:16.073Z</time></trkpt><trkpt lat="46.1018718" lon="13.4774163"><ele>159.0</ele><time>2026-05-03T07:18:17.077Z</time></trkpt><trkpt lat="46.1018744" lon="13.4772403"><ele>159.0</ele><time>2026-05-03T07:18:18.073Z</time></trkpt><trkpt lat="46.1018824" lon="13.4770646"><ele>158.75</ele><time>2026-05-03T07:18:19.07Z</time></trkpt><trkpt lat="46.101891" lon="13.4768945"><ele>158.5</ele><time>2026-05-03T07:18:20.071Z</time></trkpt><trkpt lat="46.1018862" lon="13.4767257"><ele>158.25</ele><time>2026-05-03T07:18:21.069Z</time></trkpt><trkpt lat="46.1018753" lon="13.4765607"><ele>158.0</ele><time>2026-05-03T07:18:22.081Z</time></trkpt><trkpt lat="46.1018681" lon="13.4764015"><ele>158.20000000000002</ele><time>2026-05-03T07:18:23.078Z</time></trkpt><trkpt lat="46.1018699" lon="13.4762517"><ele>158.4</ele><time>2026-05-03T07:18:24.071Z</time></trkpt><trkpt lat="46.1018793" lon="13.4761212"><ele>158.60000000000002</ele><time>2026-05-03T07:18:25.08Z</time></trkpt><trkpt lat="46.10189" lon="13.4759944"><ele>158.8</ele><time>2026-05-03T07:18:26.071Z</time></trkpt><trkpt lat="46.1018884" lon="13.4758681"><ele>159.0</ele><time>2026-05-03T07:18:27.071Z</time></trkpt><trkpt lat="46.1018749" lon="13.4757466"><ele>159.0</ele><time>2026-05-03T07:18:28.076Z</time></trkpt><trkpt lat="46.1018536" lon="13.475631"><ele>159.0</ele><time>2026-05-03T07:18:29.074Z</time></trkpt><trkpt lat="46.1018308" lon="13.4755205"><ele>159.0</ele><time>2026-05-03T07:18:30.078Z</time></trkpt><trkpt lat="46.1018156" lon="13.4754257"><ele>159.0</ele><time>2026-05-03T07:18:31.071Z</time></trkpt><trkpt lat="46.1018082" lon="13.4752801"><ele>159.0</ele><time>2026-05-03T07:18:33.073Z</time></trkpt><trkpt lat="46.1017651" lon="13.4751799"><ele>159.0</ele><time>2026-05-03T07:18:35.071Z</time></trkpt><trkpt lat="46.101684" lon="13.4751155"><ele>157.8</ele><time>2026-05-03T07:18:37.073Z</time></trkpt><trkpt lat="46.1015791" lon="13.4750166"><ele>156.60000000000002</ele><time>2026-05-03T07:18:39.076Z</time></trkpt><trkpt lat="46.1015283" lon="13.4749468"><ele>155.4</ele><time>2026-05-03T07:18:40.068Z</time></trkpt><trkpt lat="46.1014712" lon="13.4748711"><ele>154.20000000000002</ele><time>2026-05-03T07:18:41.073Z</time></trkpt><trkpt lat="46.1014048" lon="13.474792"><ele>153.0</ele><time>2026-05-03T07:18:42.081Z</time></trkpt><trkpt lat="46.101322" lon="13.4747212"><ele>153.0</ele><time>2026-05-03T07:18:43.071Z</time></trkpt><trkpt lat="46.1012275" lon="13.4746554"><ele>153.0</ele><time>2026-05-03T07:18:44.071Z</time></trkpt><trkpt lat="46.1011286" lon="13.4745844"><ele>153.0</ele><time>2026-05-03T07:18:45.072Z</time></trkpt><trkpt lat="46.1010248" lon="13.4745096"><ele>153.0</ele><time>2026-05-03T07:18:46.081Z</time></trkpt><trkpt lat="46.1009175" lon="13.4744364"><ele>153.25</ele><time>2026-05-03T07:18:47.083Z</time></trkpt><trkpt lat="46.1008054" lon="13.4743636"><ele>153.5</ele><time>2026-05-03T07:18:48.07Z</time></trkpt><trkpt lat="46.100699" lon="13.474292"><ele>153.75</ele><time>2026-05-03T07:18:49.079Z</time></trkpt><trkpt lat="46.1005975" lon="13.4742293"><ele>154.0</ele><time>2026-05-03T07:18:50.076Z</time></trkpt><trkpt lat="46.1004988" lon="13.4741712"><ele>153.6</ele><time>2026-05-03T07:18:51.076Z</time></trkpt><trkpt lat="46.1004016" lon="13.4741137"><ele>153.2</ele><time>2026-05-03T07:18:52.077Z</time></trkpt><trkpt lat="46.1003049" lon="13.474071"><ele>152.79999999999998</ele><time>2026-05-03T07:18:53.075Z</time></trkpt><trkpt lat="46.10021" lon="13.4740333"><ele>152.4</ele><time>2026-05-03T07:18:54.069Z</time></trkpt><trkpt lat="46.1001195" lon="13.4740074"><ele>152.0</ele><time>2026-05-03T07:18:55.069Z</time></trkpt><trkpt lat="46.1000303" lon="13.4739855"><ele>152.0</ele><time>2026-05-03T07:18:56.07Z</time></trkpt><trkpt lat="46.099938" lon="13.4739652"><ele>152.0</ele><time>2026-05-03T07:18:57.077Z</time></trkpt><trkpt lat="46.0998518" lon="13.473934"><ele>152.0</ele><time>2026-05-03T07:18:58.074Z</time></trkpt><trkpt lat="46.0997667" lon="13.4738975"><ele>152.0</ele><time>2026-05-03T07:18:59.069Z</time></trkpt><trkpt lat="46.0996714" lon="13.4738697"><ele>152.0</ele><time>2026-05-03T07:19:00.069Z</time></trkpt><trkpt lat="46.099569" lon="13.4738509"><ele>151.6</ele><time>2026-05-03T07:19:01.074Z</time></trkpt><trkpt lat="46.0994686" lon="13.4738255"><ele>151.2</ele><time>2026-05-03T07:19:02.079Z</time></trkpt><trkpt lat="46.0993685" lon="13.4737809"><ele>150.8</ele><time>2026-05-03T07:19:03.074Z</time></trkpt><trkpt lat="46.0992828" lon="13.4736993"><ele>150.4</ele><time>2026-05-03T07:19:04.078Z</time></trkpt><trkpt lat="46.0992104" lon="13.4735749"><ele>150.0</ele><time>2026-05-03T07:19:05.075Z</time></trkpt><trkpt lat="46.0991626" lon="13.4734118"><ele>150.0</ele><time>2026-05-03T07:19:06.072Z</time></trkpt><trkpt lat="46.0991468" lon="13.4732346"><ele>150.0</ele><time>2026-05-03T07:19:07.079Z</time></trkpt><trkpt lat="46.0991499" lon="13.4730603"><ele>150.0</ele><time>2026-05-03T07:19:08.071Z</time></trkpt><trkpt lat="46.0991568" lon="13.4728835"><ele>150.0</ele><time>2026-05-03T07:19:09.07Z</time></trkpt><trkpt lat="46.0991683" lon="13.4727022"><ele>149.75</ele><time>2026-05-03T07:19:10.065Z</time></trkpt><trkpt lat="46.0991836" lon="13.4725227"><ele>149.5</ele><time>2026-05-03T07:19:11.078Z</time></trkpt><trkpt lat="46.0991957" lon="13.4723473"><ele>149.25</ele><time>2026-05-03T07:19:12.071Z</time></trkpt><trkpt lat="46.0991815" lon="13.4721753"><ele>149.0</ele><time>2026-05-03T07:19:13.075Z</time></trkpt><trkpt lat="46.0991279" lon="13.4720123"><ele>148.5</ele><time>2026-05-03T07:19:14.076Z</time></trkpt><trkpt lat="46.0990604" lon="13.4718564"><ele>148.0</ele><time>2026-05-03T07:19:15.074Z</time></trkpt><trkpt lat="46.098988" lon="13.471694"><ele>147.5</ele><time>2026-05-03T07:19:16.074Z</time></trkpt><trkpt lat="46.0989144" lon="13.4715242"><ele>147.0</ele><time>2026-05-03T07:19:17.073Z</time></trkpt><trkpt lat="46.0988411" lon="13.4713479"><ele>146.33333333333334</ele><time>2026-05-03T07:19:18.072Z</time></trkpt><trkpt lat="46.0987734" lon="13.4711654"><ele>145.66666666666669</ele><time>2026-05-03T07:19:19.084Z</time></trkpt><trkpt lat="46.0987114" lon="13.4709602"><ele>145.0</ele><time>2026-05-03T07:19:20.07Z</time></trkpt><trkpt lat="46.0986666" lon="13.4707491"><ele>145.0</ele><time>2026-05-03T07:19:21.071Z</time></trkpt><trkpt lat="46.0986241" lon="13.4705456"><ele>145.0</ele><time>2026-05-03T07:19:22.075Z</time></trkpt><trkpt lat="46.0985794" lon="13.4703296"><ele>145.0</ele><time>2026-05-03T07:19:23.07Z</time></trkpt><trkpt lat="46.0985314" lon="13.4701272"><ele>145.33333333333334</ele><time>2026-05-03T07:19:24.071Z</time></trkpt><trkpt lat="46.0984981" lon="13.4699176"><ele>145.66666666666666</ele><time>2026-05-03T07:19:25.08Z</time></trkpt><trkpt lat="46.0984862" lon="13.4696918"><ele>146.0</ele><time>2026-05-03T07:19:26.079Z</time></trkpt><trkpt lat="46.0985048" lon="13.469467"><ele>145.33333333333331</ele><time>2026-05-03T07:19:27.069Z</time></trkpt><trkpt lat="46.0985592" lon="13.4692477"><ele>144.66666666666666</ele><time>2026-05-03T07:19:28.067Z</time></trkpt><trkpt lat="46.0986185" lon="13.469027"><ele>144.0</ele><time>2026-05-03T07:19:29.069Z</time></trkpt><trkpt lat="46.0986835" lon="13.4688046"><ele>144.66666666666666</ele><time>2026-05-03T07:19:30.076Z</time></trkpt><trkpt lat="46.0987394" lon="13.4685772"><ele>145.33333333333331</ele><time>2026-05-03T07:19:31.079Z</time></trkpt><trkpt lat="46.0987896" lon="13.4683399"><ele>146.0</ele><time>2026-05-03T07:19:32.071Z</time></trkpt><trkpt lat="46.0988473" lon="13.4681051"><ele>145.33333333333331</ele><time>2026-05-03T07:19:33.074Z</time></trkpt><trkpt lat="46.0989117" lon="13.4678651"><ele>144.66666666666666</ele><time>2026-05-03T07:19:34.071Z</time></trkpt><trkpt lat="46.0989796" lon="13.4676384"><ele>144.0</ele><time>2026-05-03T07:19:35.078Z</time></trkpt><trkpt lat="46.0990373" lon="13.4674083"><ele>144.33333333333334</ele><time>2026-05-03T07:19:36.08Z</time></trkpt><trkpt lat="46.0991014" lon="13.4671727"><ele>144.66666666666669</ele><time>2026-05-03T07:19:37.078Z</time></trkpt><trkpt lat="46.0991615" lon="13.4669322"><ele>145.0</ele><time>2026-05-03T07:19:38.069Z</time></trkpt><trkpt lat="46.0992284" lon="13.4666851"><ele>145.0</ele><time>2026-05-03T07:19:39.083Z</time></trkpt><trkpt lat="46.0992994" lon="13.4664247"><ele>145.0</ele><time>2026-05-03T07:19:40.082Z</time></trkpt><trkpt lat="46.0993659" lon="13.466174"><ele>145.0</ele><time>2026-05-03T07:19:41.072Z</time></trkpt><trkpt lat="46.09943" lon="13.465929"><ele>144.66666666666669</ele><time>2026-05-03T07:19:42.08Z</time></trkpt><trkpt lat="46.0994871" lon="13.4656803"><ele>144.33333333333334</ele><time>2026-05-03T07:19:43.069Z</time></trkpt><trkpt lat="46.0995367" lon="13.4654274"><ele>144.0</ele><time>2026-05-03T07:19:44.078Z</time></trkpt><trkpt lat="46.0995848" lon="13.4651936"><ele>144.0</ele><time>2026-05-03T07:19:45.07Z</time></trkpt><trkpt lat="46.0996255" lon="13.4649885"><ele>144.0</ele><time>2026-05-03T07:19:46.07Z</time></trkpt><trkpt lat="46.0996662" lon="13.4647921"><ele>144.0</ele><time>2026-05-03T07:19:47.072Z</time></trkpt><trkpt lat="46.0997003" lon="13.4645965"><ele>144.0</ele><time>2026-05-03T07:19:48.075Z</time></trkpt><trkpt lat="46.0997388" lon="13.4644141"><ele>144.2</ele><time>2026-05-03T07:19:49.075Z</time></trkpt><trkpt lat="46.0997615" lon="13.4642363"><ele>144.4</ele><time>2026-05-03T07:19:50.07Z</time></trkpt><trkpt lat="46.0997853" lon="13.4640757"><ele>144.6</ele><time>2026-05-03T07:19:51.078Z</time></trkpt><trkpt lat="46.0997902" lon="13.4639264"><ele>144.8</ele><time>2026-05-03T07:19:52.071Z</time></trkpt><trkpt lat="46.0997937" lon="13.4637986"><ele>145.0</ele><time>2026-05-03T07:19:53.078Z</time></trkpt><trkpt lat="46.099826" lon="13.4636681"><ele>145.4</ele><time>2026-05-03T07:19:55.071Z</time></trkpt><trkpt lat="46.0998327" lon="13.463519"><ele>145.8</ele><time>2026-05-03T07:19:57.071Z</time></trkpt><trkpt lat="46.0998072" lon="13.4634101"><ele>146.2</ele><time>2026-05-03T07:19:58.085Z</time></trkpt><trkpt lat="46.0997515" lon="13.4632871"><ele>146.6</ele><time>2026-05-03T07:19:59.075Z</time></trkpt><trkpt lat="46.0996812" lon="13.4631414"><ele>147.0</ele><time>2026-05-03T07:20:00.069Z</time></trkpt><trkpt lat="46.0996021" lon="13.4629881"><ele>146.75</ele><time>2026-05-03T07:20:01.082Z</time></trkpt><trkpt lat="46.0995225" lon="13.4628216"><ele>146.5</ele><time>2026-05-03T07:20:02.072Z</time></trkpt><trkpt lat="46.0994413" lon="13.4626497"><ele>146.25</ele><time>2026-05-03T07:20:03.073Z</time></trkpt><trkpt lat="46.0993595" lon="13.462468"><ele>146.0</ele><time>2026-05-03T07:20:04.071Z</time></trkpt><trkpt lat="46.0992764" lon="13.4622685"><ele>145.66666666666666</ele><time>2026-05-03T07:20:05.074Z</time></trkpt><trkpt lat="46.0991973" lon="13.4620606"><ele>145.33333333333334</ele><time>2026-05-03T07:20:06.069Z</time></trkpt><trkpt lat="46.0991244" lon="13.4618468"><ele>145.0</ele><time>2026-05-03T07:20:07.072Z</time></trkpt><trkpt lat="46.0990538" lon="13.4616166"><ele>145.0</ele><time>2026-05-03T07:20:08.073Z</time></trkpt><trkpt lat="46.098983" lon="13.461388"><ele>145.0</ele><time>2026-05-03T07:20:09.086Z</time></trkpt><trkpt lat="46.0989195" lon="13.4611628"><ele>145.0</ele><time>2026-05-03T07:20:10.072Z</time></trkpt><trkpt lat="46.0988463" lon="13.4609382"><ele>144.66666666666669</ele><time>2026-05-03T07:20:11.068Z</time></trkpt><trkpt lat="46.0987776" lon="13.4607111"><ele>144.33333333333334</ele><time>2026-05-03T07:20:12.075Z</time></trkpt><trkpt lat="46.0987167" lon="13.4604819"><ele>144.0</ele><time>2026-05-03T07:20:13.075Z</time></trkpt><trkpt lat="46.0986539" lon="13.4602414"><ele>143.66666666666666</ele><time>2026-05-03T07:20:14.072Z</time></trkpt><trkpt lat="46.0985929" lon="13.4600012"><ele>143.33333333333331</ele><time>2026-05-03T07:20:15.072Z</time></trkpt><trkpt lat="46.0985281" lon="13.4597595"><ele>143.0</ele><time>2026-05-03T07:20:16.075Z</time></trkpt><trkpt lat="46.0984693" lon="13.4595069"><ele>142.66666666666666</ele><time>2026-05-03T07:20:17.072Z</time></trkpt><trkpt lat="46.0984085" lon="13.4592677"><ele>142.33333333333334</ele><time>2026-05-03T07:20:18.071Z</time></trkpt><trkpt lat="46.0983491" lon="13.4590224"><ele>142.0</ele><time>2026-05-03T07:20:19.076Z</time></trkpt><trkpt lat="46.0982945" lon="13.4587787"><ele>141.33333333333334</ele><time>2026-05-03T07:20:20.074Z</time></trkpt><trkpt lat="46.0982388" lon="13.4585475"><ele>140.66666666666666</ele><time>2026-05-03T07:20:21.072Z</time></trkpt><trkpt lat="46.098184" lon="13.4583337"><ele>140.0</ele><time>2026-05-03T07:20:22.068Z</time></trkpt><trkpt lat="46.0981358" lon="13.4581159"><ele>140.0</ele><time>2026-05-03T07:20:23.073Z</time></trkpt><trkpt lat="46.0980868" lon="13.4579028"><ele>140.0</ele><time>2026-05-03T07:20:24.075Z</time></trkpt><trkpt lat="46.0980327" lon="13.4576842"><ele>140.0</ele><time>2026-05-03T07:20:25.072Z</time></trkpt><trkpt lat="46.0979812" lon="13.457455"><ele>140.0</ele><time>2026-05-03T07:20:26.069Z</time></trkpt><trkpt lat="46.0979297" lon="13.4572214"><ele>140.0</ele><time>2026-05-03T07:20:27.074Z</time></trkpt><trkpt lat="46.097873" lon="13.4569911"><ele>140.0</ele><time>2026-05-03T07:20:28.075Z</time></trkpt><trkpt lat="46.0978032" lon="13.4567512"><ele>140.33333333333331</ele><time>2026-05-03T07:20:29.072Z</time></trkpt><trkpt lat="46.0977069" lon="13.4565033"><ele>140.66666666666666</ele><time>2026-05-03T07:20:30.081Z</time></trkpt><trkpt lat="46.097608" lon="13.4562426"><ele>141.0</ele><time>2026-05-03T07:20:31.079Z</time></trkpt><trkpt lat="46.0975065" lon="13.4559608"><ele>141.0</ele><time>2026-05-03T07:20:32.083Z</time></trkpt><trkpt lat="46.097403" lon="13.4556683"><ele>141.0</ele><time>2026-05-03T07:20:33.068Z</time></trkpt><trkpt lat="46.0973015" lon="13.4553921"><ele>141.0</ele><time>2026-05-03T07:20:34.075Z</time></trkpt><trkpt lat="46.0972031" lon="13.4551283"><ele>141.33333333333334</ele><time>2026-05-03T07:20:35.073Z</time></trkpt><trkpt lat="46.0971023" lon="13.4548699"><ele>141.66666666666669</ele><time>2026-05-03T07:20:36.078Z</time></trkpt><trkpt lat="46.0970033" lon="13.4546235"><ele>142.0</ele><time>2026-05-03T07:20:37.07Z</time></trkpt><trkpt lat="46.096894" lon="13.4543935"><ele>141.33333333333334</ele><time>2026-05-03T07:20:38.068Z</time></trkpt><trkpt lat="46.0967913" lon="13.4541864"><ele>140.66666666666666</ele><time>2026-05-03T07:20:39.071Z</time></trkpt><trkpt lat="46.0966797" lon="13.4539764"><ele>140.0</ele><time>2026-05-03T07:20:40.081Z</time></trkpt><trkpt lat="46.0965726" lon="13.4537568"><ele>140.0</ele><time>2026-05-03T07:20:41.075Z</time></trkpt><trkpt lat="46.0964662" lon="13.4535349"><ele>140.0</ele><time>2026-05-03T07:20:42.073Z</time></trkpt><trkpt lat="46.0963606" lon="13.4533222"><ele>140.0</ele><time>2026-05-03T07:20:43.071Z</time></trkpt><trkpt lat="46.0962504" lon="13.4531215"><ele>140.33333333333331</ele><time>2026-05-03T07:20:44.069Z</time></trkpt><trkpt lat="46.096144" lon="13.4529396"><ele>140.66666666666666</ele><time>2026-05-03T07:20:45.075Z</time></trkpt><trkpt lat="46.0960279" lon="13.4527735"><ele>141.0</ele><time>2026-05-03T07:20:46.071Z</time></trkpt><trkpt lat="46.0959161" lon="13.4526137"><ele>141.0</ele><time>2026-05-03T07:20:47.076Z</time></trkpt><trkpt lat="46.0958063" lon="13.452454"><ele>141.0</ele><time>2026-05-03T07:20:48.087Z</time></trkpt><trkpt lat="46.095701" lon="13.452281"><ele>141.0</ele><time>2026-05-03T07:20:49.085Z</time></trkpt><trkpt lat="46.0955994" lon="13.4520906"><ele>140.33333333333334</ele><time>2026-05-03T07:20:50.078Z</time></trkpt><trkpt lat="46.0955055" lon="13.4518981"><ele>139.66666666666669</ele><time>2026-05-03T07:20:51.073Z</time></trkpt><trkpt lat="46.095403" lon="13.4517123"><ele>139.0</ele><time>2026-05-03T07:20:52.07Z</time></trkpt><trkpt lat="46.0953002" lon="13.4515367"><ele>139.0</ele><time>2026-05-03T07:20:53.079Z</time></trkpt><trkpt lat="46.0951859" lon="13.451371"><ele>139.0</ele><time>2026-05-03T07:20:54.071Z</time></trkpt><trkpt lat="46.0950629" lon="13.4512126"><ele>139.0</ele><time>2026-05-03T07:20:55.07Z</time></trkpt><trkpt lat="46.0949398" lon="13.4510606"><ele>138.33333333333334</ele><time>2026-05-03T07:20:56.067Z</time></trkpt><trkpt lat="46.094817" lon="13.4509013"><ele>137.66666666666666</ele><time>2026-05-03T07:20:57.076Z</time></trkpt><trkpt lat="46.0946896" lon="13.4507649"><ele>137.0</ele><time>2026-05-03T07:20:58.071Z</time></trkpt><trkpt lat="46.0945717" lon="13.4506141"><ele>137.0</ele><time>2026-05-03T07:20:59.077Z</time></trkpt><trkpt lat="46.0944513" lon="13.4504692"><ele>137.0</ele><time>2026-05-03T07:21:00.071Z</time></trkpt><trkpt lat="46.094331" lon="13.4503235"><ele>137.0</ele><time>2026-05-03T07:21:01.087Z</time></trkpt><trkpt lat="46.0942028" lon="13.450178"><ele>136.33333333333331</ele><time>2026-05-03T07:21:02.079Z</time></trkpt><trkpt lat="46.0940778" lon="13.4500329"><ele>135.66666666666666</ele><time>2026-05-03T07:21:03.07Z</time></trkpt><trkpt lat="46.0939512" lon="13.4498768"><ele>135.0</ele><time>2026-05-03T07:21:04.072Z</time></trkpt><trkpt lat="46.0938238" lon="13.449719"><ele>133.66666666666666</ele><time>2026-05-03T07:21:05.072Z</time></trkpt><trkpt lat="46.0936951" lon="13.4495558"><ele>132.33333333333331</ele><time>2026-05-03T07:21:06.073Z</time></trkpt><trkpt lat="46.0935827" lon="13.4493761"><ele>131.0</ele><time>2026-05-03T07:21:07.071Z</time></trkpt><trkpt lat="46.0934781" lon="13.4491763"><ele>131.0</ele><time>2026-05-03T07:21:08.071Z</time></trkpt><trkpt lat="46.0933798" lon="13.4489606"><ele>131.0</ele><time>2026-05-03T07:21:09.071Z</time></trkpt><trkpt lat="46.093284" lon="13.4487452"><ele>131.0</ele><time>2026-05-03T07:21:10.077Z</time></trkpt><trkpt lat="46.093189" lon="13.4485321"><ele>134.0</ele><time>2026-05-03T07:21:11.07Z</time></trkpt><trkpt lat="46.0930932" lon="13.4483234"><ele>137.0</ele><time>2026-05-03T07:21:12.075Z</time></trkpt><trkpt lat="46.0929954" lon="13.448129"><ele>140.0</ele><time>2026-05-03T07:21:13.075Z</time></trkpt><trkpt lat="46.0929036" lon="13.4479467"><ele>140.0</ele><time>2026-05-03T07:21:14.071Z</time></trkpt><trkpt lat="46.0928139" lon="13.4477709"><ele>140.0</ele><time>2026-05-03T07:21:15.083Z</time></trkpt><trkpt lat="46.0927318" lon="13.4476259"><ele>140.0</ele><time>2026-05-03T07:21:16.069Z</time></trkpt><trkpt lat="46.0926514" lon="13.4474725"><ele>140.0</ele><time>2026-05-03T07:21:17.074Z</time></trkpt><trkpt lat="46.0925702" lon="13.4473224"><ele>140.0</ele><time>2026-05-03T07:21:18.066Z</time></trkpt><trkpt lat="46.0924968" lon="13.4471813"><ele>140.0</ele><time>2026-05-03T07:21:19.07Z</time></trkpt><trkpt lat="46.0924253" lon="13.4470486"><ele>140.0</ele><time>2026-05-03T07:21:20.076Z</time></trkpt><trkpt lat="46.0923629" lon="13.4469324"><ele>140.0</ele><time>2026-05-03T07:21:21.076Z</time></trkpt><trkpt lat="46.0922981" lon="13.4468344"><ele>140.0</ele><time>2026-05-03T07:21:22.075Z</time></trkpt><trkpt lat="46.0922224" lon="13.4467672"><ele>140.33333333333331</ele><time>2026-05-03T07:21:23.069Z</time></trkpt><trkpt lat="46.0921435" lon="13.446718"><ele>140.66666666666666</ele><time>2026-05-03T07:21:24.071Z</time></trkpt><trkpt lat="46.0920636" lon="13.4466725"><ele>141.0</ele><time>2026-05-03T07:21:25.079Z</time></trkpt><trkpt lat="46.0919924" lon="13.446626"><ele>141.33333333333334</ele><time>2026-05-03T07:21:26.073Z</time></trkpt><trkpt lat="46.0918985" lon="13.446598"><ele>141.66666666666669</ele><time>2026-05-03T07:21:28.074Z</time></trkpt><trkpt lat="46.0918486" lon="13.4466577"><ele>142.0</ele><time>2026-05-03T07:21:30.071Z</time></trkpt><trkpt lat="46.0917863" lon="13.4467138"><ele>142.0</ele><time>2026-05-03T07:21:43.073Z</time></trkpt><trkpt lat="46.0917452" lon="13.446788"><ele>142.0</ele><time>2026-05-03T07:21:45.076Z</time></trkpt><trkpt lat="46.091699" lon="13.4470078"><ele>142.0</ele><time>2026-05-03T07:21:47.072Z</time></trkpt><trkpt lat="46.0916398" lon="13.447128"><ele>142.0</ele><time>2026-05-03T07:21:48.074Z</time></trkpt><trkpt lat="46.0915484" lon="13.44724"><ele>142.0</ele><time>2026-05-03T07:21:49.08Z</time></trkpt><trkpt lat="46.0914536" lon="13.4473493"><ele>141.75</ele><time>2026-05-03T07:21:50.071Z</time></trkpt><trkpt lat="46.0913569" lon="13.4474794"><ele>141.5</ele><time>2026-05-03T07:21:51.068Z</time></trkpt><trkpt lat="46.0912564" lon="13.4476082"><ele>141.25</ele><time>2026-05-03T07:21:52.075Z</time></trkpt><trkpt lat="46.0911547" lon="13.4477525"><ele>141.0</ele><time>2026-05-03T07:21:53.078Z</time></trkpt><trkpt lat="46.0910604" lon="13.4479162"><ele>141.25</ele><time>2026-05-03T07:21:54.077Z</time></trkpt><trkpt lat="46.0909782" lon="13.4481112"><ele>141.5</ele><time>2026-05-03T07:21:55.067Z</time></trkpt><trkpt lat="46.0909235" lon="13.4483015"><ele>141.75</ele><time>2026-05-03T07:21:56.073Z</time></trkpt><trkpt lat="46.0908474" lon="13.4484797"><ele>142.0</ele><time>2026-05-03T07:21:57.08Z</time></trkpt><trkpt lat="46.0907524" lon="13.4486478"><ele>142.0</ele><time>2026-05-03T07:21:58.074Z</time></trkpt><trkpt lat="46.0906488" lon="13.4488127"><ele>142.0</ele><time>2026-05-03T07:21:59.077Z</time></trkpt><trkpt lat="46.0905409" lon="13.4489645"><ele>142.0</ele><time>2026-05-03T07:22:00.07Z</time></trkpt><trkpt lat="46.0904263" lon="13.4491239"><ele>142.0</ele><time>2026-05-03T07:22:01.076Z</time></trkpt><trkpt lat="46.0903164" lon="13.4492854"><ele>142.0</ele><time>2026-05-03T07:22:02.076Z</time></trkpt><trkpt lat="46.0902051" lon="13.4494398"><ele>142.0</ele><time>2026-05-03T07:22:03.076Z</time></trkpt><trkpt lat="46.0900993" lon="13.4495809"><ele>142.25</ele><time>2026-05-03T07:22:04.075Z</time></trkpt><trkpt lat="46.0900041" lon="13.4497069"><ele>142.5</ele><time>2026-05-03T07:22:05.072Z</time></trkpt><trkpt lat="46.0899142" lon="13.449833"><ele>142.75</ele><time>2026-05-03T07:22:06.072Z</time></trkpt><trkpt lat="46.0898264" lon="13.4499494"><ele>143.0</ele><time>2026-05-03T07:22:07.071Z</time></trkpt><trkpt lat="46.0897462" lon="13.450038"><ele>142.25</ele><time>2026-05-03T07:22:08.074Z</time></trkpt><trkpt lat="46.0896588" lon="13.4501261"><ele>141.5</ele><time>2026-05-03T07:22:09.072Z</time></trkpt><trkpt lat="46.0895551" lon="13.4502091"><ele>140.75</ele><time>2026-05-03T07:22:10.076Z</time></trkpt><trkpt lat="46.0894461" lon="13.4502871"><ele>140.0</ele><time>2026-05-03T07:22:11.072Z</time></trkpt><trkpt lat="46.089326" lon="13.4503674"><ele>140.0</ele><time>2026-05-03T07:22:12.076Z</time></trkpt><trkpt lat="46.0892061" lon="13.4504531"><ele>140.0</ele><time>2026-05-03T07:22:13.068Z</time></trkpt><trkpt lat="46.0890876" lon="13.4505396"><ele>140.0</ele><time>2026-05-03T07:22:14.07Z</time></trkpt><trkpt lat="46.0889734" lon="13.4506236"><ele>140.0</ele><time>2026-05-03T07:22:15.067Z</time></trkpt><trkpt lat="46.0888615" lon="13.4507023"><ele>140.5</ele><time>2026-05-03T07:22:16.069Z</time></trkpt><trkpt lat="46.0887563" lon="13.4507837"><ele>141.0</ele><time>2026-05-03T07:22:17.075Z</time></trkpt><trkpt lat="46.0886541" lon="13.4508646"><ele>141.5</ele><time>2026-05-03T07:22:18.079Z</time></trkpt><trkpt lat="46.0885595" lon="13.4509498"><ele>142.0</ele><time>2026-05-03T07:22:19.072Z</time></trkpt><trkpt lat="46.0884768" lon="13.451045"><ele>142.0</ele><time>2026-05-03T07:22:20.074Z</time></trkpt><trkpt lat="46.0884131" lon="13.4511469"><ele>142.0</ele><time>2026-05-03T07:22:21.074Z</time></trkpt><trkpt lat="46.0883557" lon="13.4512418"><ele>142.0</ele><time>2026-05-03T07:22:22.07Z</time></trkpt><trkpt lat="46.0882848" lon="13.4513047"><ele>142.0</ele><time>2026-05-03T07:22:23.07Z</time></trkpt><trkpt lat="46.088194" lon="13.451323"><ele>142.0</ele><time>2026-05-03T07:22:24.075Z</time></trkpt><trkpt lat="46.0880779" lon="13.4512983"><ele>142.0</ele><time>2026-05-03T07:22:25.069Z</time></trkpt><trkpt lat="46.0879517" lon="13.4512724"><ele>142.0</ele><time>2026-05-03T07:22:26.07Z</time></trkpt><trkpt lat="46.0878246" lon="13.4512683"><ele>142.0</ele><time>2026-05-03T07:22:27.073Z</time></trkpt><trkpt lat="46.0877001" lon="13.4512902"><ele>142.0</ele><time>2026-05-03T07:22:28.068Z</time></trkpt><trkpt lat="46.087567" lon="13.4513217"><ele>143.25</ele><time>2026-05-03T07:22:29.07Z</time></trkpt><trkpt lat="46.0874331" lon="13.451363"><ele>144.5</ele><time>2026-05-03T07:22:30.074Z</time></trkpt><trkpt lat="46.0872977" lon="13.4514113"><ele>145.75</ele><time>2026-05-03T07:22:31.07Z</time></trkpt><trkpt lat="46.0871603" lon="13.4514651"><ele>147.0</ele><time>2026-05-03T07:22:32.075Z</time></trkpt><trkpt lat="46.0870202" lon="13.4515316"><ele>147.0</ele><time>2026-05-03T07:22:33.07Z</time></trkpt><trkpt lat="46.086881" lon="13.4516059"><ele>147.0</ele><time>2026-05-03T07:22:34.076Z</time></trkpt><trkpt lat="46.0867516" lon="13.451693"><ele>147.0</ele><time>2026-05-03T07:22:35.075Z</time></trkpt><trkpt lat="46.0866357" lon="13.451773"><ele>147.0</ele><time>2026-05-03T07:22:36.07Z</time></trkpt><trkpt lat="46.0865193" lon="13.4518489"><ele>147.25</ele><time>2026-05-03T07:22:37.075Z</time></trkpt><trkpt lat="46.086382" lon="13.4519238"><ele>147.5</ele><time>2026-05-03T07:22:38.07Z</time></trkpt><trkpt lat="46.0862446" lon="13.452004"><ele>147.75</ele><time>2026-05-03T07:22:39.074Z</time></trkpt><trkpt lat="46.0861118" lon="13.4520837"><ele>148.0</ele><time>2026-05-03T07:22:40.068Z</time></trkpt><trkpt lat="46.0859751" lon="13.4521526"><ele>148.0</ele><time>2026-05-03T07:22:41.07Z</time></trkpt><trkpt lat="46.0858365" lon="13.4522239"><ele>148.0</ele><time>2026-05-03T07:22:42.072Z</time></trkpt><trkpt lat="46.0856933" lon="13.452293"><ele>148.0</ele><time>2026-05-03T07:22:43.069Z</time></trkpt><trkpt lat="46.085557" lon="13.4523655"><ele>148.0</ele><time>2026-05-03T07:22:44.074Z</time></trkpt><trkpt lat="46.0854136" lon="13.4524342"><ele>145.66666666666669</ele><time>2026-05-03T07:22:45.081Z</time></trkpt><trkpt lat="46.0852675" lon="13.4525022"><ele>143.33333333333334</ele><time>2026-05-03T07:22:46.077Z</time></trkpt><trkpt lat="46.0851214" lon="13.4525763"><ele>141.0</ele><time>2026-05-03T07:22:47.068Z</time></trkpt><trkpt lat="46.0849666" lon="13.4526518"><ele>140.33333333333334</ele><time>2026-05-03T07:22:48.082Z</time></trkpt><trkpt lat="46.0848145" lon="13.4527274"><ele>139.66666666666669</ele><time>2026-05-03T07:22:49.07Z</time></trkpt><trkpt lat="46.0846618" lon="13.4527976"><ele>139.0</ele><time>2026-05-03T07:22:50.072Z</time></trkpt><trkpt lat="46.0845078" lon="13.4528717"><ele>139.0</ele><time>2026-05-03T07:22:51.071Z</time></trkpt><trkpt lat="46.0843608" lon="13.4529309"><ele>139.0</ele><time>2026-05-03T07:22:52.078Z</time></trkpt><trkpt lat="46.0842185" lon="13.4529812"><ele>139.0</ele><time>2026-05-03T07:22:53.076Z</time></trkpt><trkpt lat="46.0840705" lon="13.4530037"><ele>139.0</ele><time>2026-05-03T07:22:54.071Z</time></trkpt><trkpt lat="46.0839178" lon="13.4530142"><ele>140.33333333333334</ele><time>2026-05-03T07:22:55.072Z</time></trkpt><trkpt lat="46.0837531" lon="13.4530336"><ele>141.66666666666666</ele><time>2026-05-03T07:22:56.073Z</time></trkpt><trkpt lat="46.0835904" lon="13.4530645"><ele>143.0</ele><time>2026-05-03T07:22:57.086Z</time></trkpt><trkpt lat="46.0834259" lon="13.4531144"><ele>143.0</ele><time>2026-05-03T07:22:58.073Z</time></trkpt><trkpt lat="46.0832651" lon="13.453191"><ele>143.0</ele><time>2026-05-03T07:22:59.069Z</time></trkpt><trkpt lat="46.0831074" lon="13.4532712"><ele>143.0</ele><time>2026-05-03T07:23:00.074Z</time></trkpt><trkpt lat="46.0829472" lon="13.4533341"><ele>144.0</ele><time>2026-05-03T07:23:01.072Z</time></trkpt><trkpt lat="46.0828027" lon="13.4533911"><ele>145.0</ele><time>2026-05-03T07:23:02.068Z</time></trkpt><trkpt lat="46.0826627" lon="13.4534388"><ele>146.0</ele><time>2026-05-03T07:23:03.069Z</time></trkpt><trkpt lat="46.0825398" lon="13.4534452"><ele>147.0</ele><time>2026-05-03T07:23:04.07Z</time></trkpt><trkpt lat="46.0824134" lon="13.453406"><ele>147.5</ele><time>2026-05-03T07:23:05.07Z</time></trkpt><trkpt lat="46.0822876" lon="13.4533269"><ele>148.0</ele><time>2026-05-03T07:23:06.071Z</time></trkpt><trkpt lat="46.0821637" lon="13.4532478"><ele>148.5</ele><time>2026-05-03T07:23:07.07Z</time></trkpt><trkpt lat="46.0820458" lon="13.453152"><ele>149.0</ele><time>2026-05-03T07:23:08.074Z</time></trkpt><trkpt lat="46.0819275" lon="13.4530553"><ele>147.5</ele><time>2026-05-03T07:23:09.071Z</time></trkpt><trkpt lat="46.0818133" lon="13.4529474"><ele>146.0</ele><time>2026-05-03T07:23:10.075Z</time></trkpt><trkpt lat="46.0817013" lon="13.452834"><ele>144.5</ele><time>2026-05-03T07:23:11.072Z</time></trkpt><trkpt lat="46.0815733" lon="13.4527476"><ele>143.0</ele><time>2026-05-03T07:23:12.069Z</time></trkpt><trkpt lat="46.0814241" lon="13.4527148"><ele>142.75</ele><time>2026-05-03T07:23:13.071Z</time></trkpt><trkpt lat="46.0812846" lon="13.4527269"><ele>142.5</ele><time>2026-05-03T07:23:14.07Z</time></trkpt><trkpt lat="46.0811619" lon="13.452798"><ele>142.25</ele><time>2026-05-03T07:23:15.068Z</time></trkpt><trkpt lat="46.0810414" lon="13.4529424"><ele>142.0</ele><time>2026-05-03T07:23:16.071Z</time></trkpt><trkpt lat="46.0809261" lon="13.4530848"><ele>142.0</ele><time>2026-05-03T07:23:17.067Z</time></trkpt><trkpt lat="46.0808162" lon="13.4532318"><ele>142.0</ele><time>2026-05-03T07:23:18.077Z</time></trkpt><trkpt lat="46.0807199" lon="13.4533493"><ele>142.0</ele><time>2026-05-03T07:23:19.07Z</time></trkpt><trkpt lat="46.0806284" lon="13.4534572"><ele>142.0</ele><time>2026-05-03T07:23:20.07Z</time></trkpt><trkpt lat="46.0805488" lon="13.4535517"><ele>141.4</ele><time>2026-05-03T07:23:21.07Z</time></trkpt><trkpt lat="46.0804717" lon="13.4536076"><ele>140.79999999999998</ele><time>2026-05-03T07:23:22.072Z</time></trkpt><trkpt lat="46.0804045" lon="13.4535907"><ele>140.2</ele><time>2026-05-03T07:23:23.067Z</time></trkpt><trkpt lat="46.0803389" lon="13.4535021"><ele>139.6</ele><time>2026-05-03T07:23:24.086Z</time></trkpt><trkpt lat="46.0802968" lon="13.4533783"><ele>139.0</ele><time>2026-05-03T07:23:25.068Z</time></trkpt><trkpt lat="46.0802648" lon="13.453216"><ele>139.0</ele><time>2026-05-03T07:23:26.077Z</time></trkpt><trkpt lat="46.080239" lon="13.4530317"><ele>139.0</ele><time>2026-05-03T07:23:27.072Z</time></trkpt><trkpt lat="46.0802141" lon="13.4528433"><ele>139.0</ele><time>2026-05-03T07:23:28.07Z</time></trkpt><trkpt lat="46.0801878" lon="13.4526529"><ele>139.0</ele><time>2026-05-03T07:23:29.07Z</time></trkpt><trkpt lat="46.080164" lon="13.4524637"><ele>139.0</ele><time>2026-05-03T07:23:30.069Z</time></trkpt><trkpt lat="46.0801496" lon="13.4522791"><ele>139.0</ele><time>2026-05-03T07:23:31.078Z</time></trkpt><trkpt lat="46.0801363" lon="13.4520935"><ele>139.0</ele><time>2026-05-03T07:23:32.067Z</time></trkpt><trkpt lat="46.0801123" lon="13.4519168"><ele>139.0</ele><time>2026-05-03T07:23:33.072Z</time></trkpt><trkpt lat="46.080067" lon="13.4517581"><ele>139.4</ele><time>2026-05-03T07:23:34.084Z</time></trkpt><trkpt lat="46.0799963" lon="13.4516232"><ele>139.8</ele><time>2026-05-03T07:23:35.069Z</time></trkpt><trkpt lat="46.0799159" lon="13.4515082"><ele>140.2</ele><time>2026-05-03T07:23:36.071Z</time></trkpt><trkpt lat="46.0798389" lon="13.4514024"><ele>140.6</ele><time>2026-05-03T07:23:37.073Z</time></trkpt><trkpt lat="46.0797743" lon="13.4513168"><ele>141.0</ele><time>2026-05-03T07:23:38.072Z</time></trkpt><trkpt lat="46.079721" lon="13.4512424"><ele>143.0</ele><time>2026-05-03T07:23:39.068Z</time></trkpt><trkpt lat="46.079653" lon="13.4511586"><ele>145.0</ele><time>2026-05-03T07:23:41.076Z</time></trkpt><trkpt lat="46.0795556" lon="13.4512175"><ele>147.0</ele><time>2026-05-03T07:23:44.072Z</time></trkpt><trkpt lat="46.0795092" lon="13.4513016"><ele>149.0</ele><time>2026-05-03T07:23:45.071Z</time></trkpt><trkpt lat="46.0794599" lon="13.4514148"><ele>151.0</ele><time>2026-05-03T07:23:46.07Z</time></trkpt><trkpt lat="46.0794064" lon="13.4515383"><ele>151.0</ele><time>2026-05-03T07:23:47.083Z</time></trkpt><trkpt lat="46.0793497" lon="13.4516831"><ele>151.0</ele><time>2026-05-03T07:23:48.069Z</time></trkpt><trkpt lat="46.0792896" lon="13.4518409"><ele>151.0</ele><time>2026-05-03T07:23:49.069Z</time></trkpt><trkpt lat="46.0792252" lon="13.4520108"><ele>151.0</ele><time>2026-05-03T07:23:50.07Z</time></trkpt><trkpt lat="46.0791589" lon="13.4521829"><ele>155.0</ele><time>2026-05-03T07:23:51.078Z</time></trkpt><trkpt lat="46.0790893" lon="13.4523591"><ele>159.0</ele><time>2026-05-03T07:23:52.07Z</time></trkpt><trkpt lat="46.079018" lon="13.4525436"><ele>163.0</ele><time>2026-05-03T07:23:53.078Z</time></trkpt><trkpt lat="46.0789354" lon="13.4527425"><ele>167.0</ele><time>2026-05-03T07:23:54.088Z</time></trkpt><trkpt lat="46.0788492" lon="13.452937"><ele>161.66666666666666</ele><time>2026-05-03T07:23:55.077Z</time></trkpt><trkpt lat="46.0787484" lon="13.4531048"><ele>156.33333333333334</ele><time>2026-05-03T07:23:56.068Z</time></trkpt><trkpt lat="46.0786438" lon="13.453264"><ele>151.0</ele><time>2026-05-03T07:23:57.068Z</time></trkpt><trkpt lat="46.0785335" lon="13.4534264"><ele>151.0</ele><time>2026-05-03T07:23:58.076Z</time></trkpt><trkpt lat="46.0784234" lon="13.4535916"><ele>151.0</ele><time>2026-05-03T07:23:59.076Z</time></trkpt><trkpt lat="46.0783184" lon="13.4537613"><ele>151.0</ele><time>2026-05-03T07:24:00.07Z</time></trkpt><trkpt lat="46.0782114" lon="13.4539329"><ele>155.66666666666669</ele><time>2026-05-03T07:24:01.078Z</time></trkpt><trkpt lat="46.0780985" lon="13.4540989"><ele>160.33333333333334</ele><time>2026-05-03T07:24:02.077Z</time></trkpt><trkpt lat="46.0779865" lon="13.4542622"><ele>165.0</ele><time>2026-05-03T07:24:03.07Z</time></trkpt><trkpt lat="46.0778768" lon="13.4544235"><ele>165.0</ele><time>2026-05-03T07:24:04.069Z</time></trkpt><trkpt lat="46.0777614" lon="13.4545869"><ele>165.0</ele><time>2026-05-03T07:24:05.07Z</time></trkpt><trkpt lat="46.0776453" lon="13.4547548"><ele>165.0</ele><time>2026-05-03T07:24:06.072Z</time></trkpt><trkpt lat="46.077536" lon="13.4549136"><ele>161.0</ele><time>2026-05-03T07:24:07.075Z</time></trkpt><trkpt lat="46.0774139" lon="13.4550513"><ele>157.0</ele><time>2026-05-03T07:24:08.075Z</time></trkpt><trkpt lat="46.0772797" lon="13.4551748"><ele>153.0</ele><time>2026-05-03T07:24:09.075Z</time></trkpt><trkpt lat="46.0771385" lon="13.4552817"><ele>153.0</ele><time>2026-05-03T07:24:10.07Z</time></trkpt><trkpt lat="46.0769905" lon="13.455378"><ele>153.0</ele><time>2026-05-03T07:24:11.072Z</time></trkpt><trkpt lat="46.0768429" lon="13.4554724"><ele>153.0</ele><time>2026-05-03T07:24:12.073Z</time></trkpt><trkpt lat="46.0766969" lon="13.4555856"><ele>151.33333333333334</ele><time>2026-05-03T07:24:13.068Z</time></trkpt><trkpt lat="46.0765584" lon="13.4557212"><ele>149.66666666666669</ele><time>2026-05-03T07:24:14.07Z</time></trkpt><trkpt lat="46.0764076" lon="13.455846"><ele>148.0</ele><time>2026-05-03T07:24:15.074Z</time></trkpt><trkpt lat="46.0762558" lon="13.4559641"><ele>148.0</ele><time>2026-05-03T07:24:16.078Z</time></trkpt><trkpt lat="46.0761011" lon="13.4560905"><ele>148.0</ele><time>2026-05-03T07:24:17.075Z</time></trkpt><trkpt lat="46.0759563" lon="13.4562228"><ele>148.0</ele><time>2026-05-03T07:24:18.069Z</time></trkpt><trkpt lat="46.0758025" lon="13.4563566"><ele>145.66666666666669</ele><time>2026-05-03T07:24:19.074Z</time></trkpt><trkpt lat="46.0756528" lon="13.4564944"><ele>143.33333333333334</ele><time>2026-05-03T07:24:20.071Z</time></trkpt><trkpt lat="46.0755126" lon="13.4566503"><ele>141.0</ele><time>2026-05-03T07:24:21.073Z</time></trkpt><trkpt lat="46.0753779" lon="13.4568091"><ele>141.0</ele><time>2026-05-03T07:24:22.072Z</time></trkpt><trkpt lat="46.0752426" lon="13.4569628"><ele>141.0</ele><time>2026-05-03T07:24:23.08Z</time></trkpt><trkpt lat="46.0751033" lon="13.4571269"><ele>141.0</ele><time>2026-05-03T07:24:24.077Z</time></trkpt><trkpt lat="46.0749679" lon="13.4572974"><ele>139.66666666666666</ele><time>2026-05-03T07:24:25.067Z</time></trkpt><trkpt lat="46.0748292" lon="13.457466"><ele>138.33333333333331</ele><time>2026-05-03T07:24:26.064Z</time></trkpt><trkpt lat="46.0746996" lon="13.4576325"><ele>137.0</ele><time>2026-05-03T07:24:27.071Z</time></trkpt><trkpt lat="46.0745742" lon="13.4577952"><ele>137.66666666666666</ele><time>2026-05-03T07:24:28.068Z</time></trkpt><trkpt lat="46.0744431" lon="13.4579646"><ele>138.33333333333334</ele><time>2026-05-03T07:24:29.071Z</time></trkpt><trkpt lat="46.074308" lon="13.4581149"><ele>139.0</ele><time>2026-05-03T07:24:30.066Z</time></trkpt><trkpt lat="46.0741757" lon="13.4582812"><ele>136.66666666666669</ele><time>2026-05-03T07:24:31.074Z</time></trkpt><trkpt lat="46.0740475" lon="13.4584401"><ele>134.33333333333334</ele><time>2026-05-03T07:24:32.073Z</time></trkpt><trkpt lat="46.0739127" lon="13.4586053"><ele>132.0</ele><time>2026-05-03T07:24:33.073Z</time></trkpt><trkpt lat="46.0737819" lon="13.4587737"><ele>132.33333333333334</ele><time>2026-05-03T07:24:34.077Z</time></trkpt><trkpt lat="46.0736398" lon="13.4589468"><ele>132.66666666666669</ele><time>2026-05-03T07:24:35.071Z</time></trkpt><trkpt lat="46.0735037" lon="13.4591255"><ele>133.0</ele><time>2026-05-03T07:24:36.072Z</time></trkpt><trkpt lat="46.0733626" lon="13.4593077"><ele>133.33333333333334</ele><time>2026-05-03T07:24:37.069Z</time></trkpt><trkpt lat="46.0732235" lon="13.4594915"><ele>133.66666666666666</ele><time>2026-05-03T07:24:38.068Z</time></trkpt><trkpt lat="46.0730804" lon="13.4596742"><ele>134.0</ele><time>2026-05-03T07:24:39.076Z</time></trkpt><trkpt lat="46.0729426" lon="13.45987"><ele>133.0</ele><time>2026-05-03T07:24:40.072Z</time></trkpt><trkpt lat="46.0728058" lon="13.4600622"><ele>132.0</ele><time>2026-05-03T07:24:41.069Z</time></trkpt><trkpt lat="46.0726653" lon="13.4602555"><ele>131.0</ele><time>2026-05-03T07:24:42.07Z</time></trkpt><trkpt lat="46.0725248" lon="13.4604441"><ele>131.33333333333331</ele><time>2026-05-03T07:24:43.07Z</time></trkpt><trkpt lat="46.0723891" lon="13.4606271"><ele>131.66666666666666</ele><time>2026-05-03T07:24:44.076Z</time></trkpt><trkpt lat="46.0722523" lon="13.4608251"><ele>132.0</ele><time>2026-05-03T07:24:45.076Z</time></trkpt><trkpt lat="46.0721077" lon="13.4610099"><ele>132.0</ele><time>2026-05-03T07:24:46.072Z</time></trkpt><trkpt lat="46.0719623" lon="13.4611888"><ele>132.0</ele><time>2026-05-03T07:24:47.068Z</time></trkpt><trkpt lat="46.0718246" lon="13.4613723"><ele>132.0</ele><time>2026-05-03T07:24:48.068Z</time></trkpt><trkpt lat="46.0716872" lon="13.4615599"><ele>132.0</ele><time>2026-05-03T07:24:49.069Z</time></trkpt><trkpt lat="46.0715422" lon="13.4617422"><ele>132.0</ele><time>2026-05-03T07:24:50.083Z</time></trkpt><trkpt lat="46.0714169" lon="13.4619162"><ele>132.0</ele><time>2026-05-03T07:24:51.075Z</time></trkpt><trkpt lat="46.0712917" lon="13.4620737"><ele>131.75</ele><time>2026-05-03T07:24:52.073Z</time></trkpt><trkpt lat="46.0711779" lon="13.4622327"><ele>131.5</ele><time>2026-05-03T07:24:53.071Z</time></trkpt><trkpt lat="46.0710738" lon="13.4623808"><ele>131.25</ele><time>2026-05-03T07:24:54.067Z</time></trkpt><trkpt lat="46.0709829" lon="13.4625137"><ele>131.0</ele><time>2026-05-03T07:24:55.067Z</time></trkpt><trkpt lat="46.070892" lon="13.4626319"><ele>131.0</ele><time>2026-05-03T07:24:56.069Z</time></trkpt><trkpt lat="46.070819" lon="13.4627423"><ele>131.0</ele><time>2026-05-03T07:24:57.07Z</time></trkpt><trkpt lat="46.0707586" lon="13.4628593"><ele>131.0</ele><time>2026-05-03T07:24:58.071Z</time></trkpt><trkpt lat="46.0707108" lon="13.4629971"><ele>131.0</ele><time>2026-05-03T07:24:59.07Z</time></trkpt><trkpt lat="46.0706573" lon="13.4631347"><ele>131.0</ele><time>2026-05-03T07:25:00.07Z</time></trkpt><trkpt lat="46.0705958" lon="13.4632561"><ele>130.4</ele><time>2026-05-03T07:25:01.076Z</time></trkpt><trkpt lat="46.0705369" lon="13.4633827"><ele>129.8</ele><time>2026-05-03T07:25:02.066Z</time></trkpt><trkpt lat="46.0704797" lon="13.4635145"><ele>129.20000000000002</ele><time>2026-05-03T07:25:03.074Z</time></trkpt><trkpt lat="46.070426" lon="13.4636581"><ele>128.6</ele><time>2026-05-03T07:25:04.076Z</time></trkpt><trkpt lat="46.070379" lon="13.463813"><ele>128.0</ele><time>2026-05-03T07:25:05.075Z</time></trkpt><trkpt lat="46.0703506" lon="13.4639765"><ele>128.0</ele><time>2026-05-03T07:25:06.077Z</time></trkpt><trkpt lat="46.0703505" lon="13.4641492"><ele>128.0</ele><time>2026-05-03T07:25:07.072Z</time></trkpt><trkpt lat="46.0703662" lon="13.464316"><ele>128.0</ele><time>2026-05-03T07:25:08.077Z</time></trkpt><trkpt lat="46.0703989" lon="13.4644752"><ele>128.0</ele><time>2026-05-03T07:25:09.071Z</time></trkpt><trkpt lat="46.0704348" lon="13.4646334"><ele>127.60000000000001</ele><time>2026-05-03T07:25:10.076Z</time></trkpt><trkpt lat="46.0704709" lon="13.4647775"><ele>127.20000000000002</ele><time>2026-05-03T07:25:11.072Z</time></trkpt><trkpt lat="46.0705028" lon="13.4649062"><ele>126.8</ele><time>2026-05-03T07:25:12.07Z</time></trkpt><trkpt lat="46.0705248" lon="13.4650277"><ele>126.4</ele><time>2026-05-03T07:25:13.069Z</time></trkpt><trkpt lat="46.0705284" lon="13.4651519"><ele>126.0</ele><time>2026-05-03T07:25:14.067Z</time></trkpt><trkpt lat="46.0705076" lon="13.4652763"><ele>126.0</ele><time>2026-05-03T07:25:15.07Z</time></trkpt><trkpt lat="46.070466" lon="13.4654088"><ele>126.0</ele><time>2026-05-03T07:25:16.076Z</time></trkpt><trkpt lat="46.0704142" lon="13.465553"><ele>126.0</ele><time>2026-05-03T07:25:17.073Z</time></trkpt><trkpt lat="46.0703557" lon="13.4657122"><ele>126.0</ele><time>2026-05-03T07:25:18.077Z</time></trkpt><trkpt lat="46.0702934" lon="13.4658852"><ele>126.0</ele><time>2026-05-03T07:25:19.065Z</time></trkpt><trkpt lat="46.0702326" lon="13.4660664"><ele>126.0</ele><time>2026-05-03T07:25:20.073Z</time></trkpt><trkpt lat="46.0701699" lon="13.4662491"><ele>126.0</ele><time>2026-05-03T07:25:21.075Z</time></trkpt><trkpt lat="46.0701081" lon="13.4664287"><ele>126.0</ele><time>2026-05-03T07:25:22.073Z</time></trkpt><trkpt lat="46.0700546" lon="13.4665919"><ele>126.0</ele><time>2026-05-03T07:25:23.068Z</time></trkpt><trkpt lat="46.070004" lon="13.4667352"><ele>126.0</ele><time>2026-05-03T07:25:24.066Z</time></trkpt><trkpt lat="46.069966" lon="13.4668395"><ele>126.0</ele><time>2026-05-03T07:25:25.072Z</time></trkpt><trkpt lat="46.0698746" lon="13.4669389"><ele>126.0</ele><time>2026-05-03T07:25:27.076Z</time></trkpt><trkpt lat="46.0698078" lon="13.4669371"><ele>126.0</ele><time>2026-05-03T07:25:28.074Z</time></trkpt><trkpt lat="46.0697187" lon="13.4669077"><ele>125.75</ele><time>2026-05-03T07:25:29.073Z</time></trkpt><trkpt lat="46.0696174" lon="13.4668756"><ele>125.5</ele><time>2026-05-03T07:25:30.07Z</time></trkpt><trkpt lat="46.0695065" lon="13.4668545"><ele>125.25</ele><time>2026-05-03T07:25:31.078Z</time></trkpt><trkpt lat="46.0693907" lon="13.4668329"><ele>125.0</ele><time>2026-05-03T07:25:32.071Z</time></trkpt><trkpt lat="46.0692738" lon="13.4668081"><ele>125.0</ele><time>2026-05-03T07:25:33.072Z</time></trkpt><trkpt lat="46.0691554" lon="13.4667927"><ele>125.0</ele><time>2026-05-03T07:25:34.071Z</time></trkpt><trkpt lat="46.0690414" lon="13.4668044"><ele>125.0</ele><time>2026-05-03T07:25:35.069Z</time></trkpt><trkpt lat="46.0689338" lon="13.4668367"><ele>125.0</ele><time>2026-05-03T07:25:36.069Z</time></trkpt><trkpt lat="46.0688346" lon="13.4668997"><ele>126.25</ele><time>2026-05-03T07:25:37.075Z</time></trkpt><trkpt lat="46.0687483" lon="13.4670105"><ele>127.5</ele><time>2026-05-03T07:25:38.074Z</time></trkpt><trkpt lat="46.0686666" lon="13.4671492"><ele>128.75</ele><time>2026-05-03T07:25:39.074Z</time></trkpt><trkpt lat="46.0685921" lon="13.4673063"><ele>130.0</ele><time>2026-05-03T07:25:40.066Z</time></trkpt><trkpt lat="46.0685193" lon="13.4674716"><ele>130.0</ele><time>2026-05-03T07:25:41.07Z</time></trkpt><trkpt lat="46.0684448" lon="13.467639"><ele>130.0</ele><time>2026-05-03T07:25:42.074Z</time></trkpt><trkpt lat="46.0683703" lon="13.4678087"><ele>130.0</ele><time>2026-05-03T07:25:43.076Z</time></trkpt><trkpt lat="46.0682944" lon="13.4679862"><ele>130.0</ele><time>2026-05-03T07:25:44.071Z</time></trkpt><trkpt lat="46.0682143" lon="13.4681653"><ele>132.33333333333334</ele><time>2026-05-03T07:25:45.072Z</time></trkpt><trkpt lat="46.068129" lon="13.4683497"><ele>134.66666666666666</ele><time>2026-05-03T07:25:46.068Z</time></trkpt><trkpt lat="46.0680419" lon="13.4685362"><ele>137.0</ele><time>2026-05-03T07:25:47.065Z</time></trkpt><trkpt lat="46.067944" lon="13.4687214"><ele>135.66666666666666</ele><time>2026-05-03T07:25:48.071Z</time></trkpt><trkpt lat="46.067856" lon="13.4689031"><ele>134.33333333333334</ele><time>2026-05-03T07:25:49.071Z</time></trkpt><trkpt lat="46.0677609" lon="13.4690956"><ele>133.0</ele><time>2026-05-03T07:25:50.069Z</time></trkpt><trkpt lat="46.0676651" lon="13.4692857"><ele>133.0</ele><time>2026-05-03T07:25:51.067Z</time></trkpt><trkpt lat="46.0675873" lon="13.4694912"><ele>133.0</ele><time>2026-05-03T07:25:52.071Z</time></trkpt><trkpt lat="46.0675206" lon="13.4697038"><ele>133.0</ele><time>2026-05-03T07:25:53.073Z</time></trkpt><trkpt lat="46.0674499" lon="13.4699229"><ele>132.25</ele><time>2026-05-03T07:25:54.078Z</time></trkpt><trkpt lat="46.0673795" lon="13.4701237"><ele>131.5</ele><time>2026-05-03T07:25:55.069Z</time></trkpt><trkpt lat="46.0673096" lon="13.4703103"><ele>130.75</ele><time>2026-05-03T07:25:56.071Z</time></trkpt><trkpt lat="46.0672396" lon="13.4704704"><ele>130.0</ele><time>2026-05-03T07:25:57.068Z</time></trkpt><trkpt lat="46.0671436" lon="13.4706005"><ele>130.0</ele><time>2026-05-03T07:25:58.065Z</time></trkpt><trkpt lat="46.0670466" lon="13.4707089"><ele>130.0</ele><time>2026-05-03T07:25:59.071Z</time></trkpt><trkpt lat="46.0669286" lon="13.4708157"><ele>130.0</ele><time>2026-05-03T07:26:00.069Z</time></trkpt><trkpt lat="46.0668178" lon="13.4709666"><ele>130.0</ele><time>2026-05-03T07:26:01.077Z</time></trkpt><trkpt lat="46.0667107" lon="13.4711439"><ele>127.66666666666667</ele><time>2026-05-03T07:26:02.072Z</time></trkpt><trkpt lat="46.066621" lon="13.4713343"><ele>125.33333333333334</ele><time>2026-05-03T07:26:03.073Z</time></trkpt><trkpt lat="46.06653" lon="13.4715278"><ele>123.0</ele><time>2026-05-03T07:26:04.069Z</time></trkpt><trkpt lat="46.0664364" lon="13.471725"><ele>123.0</ele><time>2026-05-03T07:26:05.074Z</time></trkpt><trkpt lat="46.0663305" lon="13.471918"><ele>123.0</ele><time>2026-05-03T07:26:06.067Z</time></trkpt><trkpt lat="46.0662253" lon="13.472118"><ele>123.0</ele><time>2026-05-03T07:26:07.066Z</time></trkpt><trkpt lat="46.0661244" lon="13.4723131"><ele>124.33333333333334</ele><time>2026-05-03T07:26:08.07Z</time></trkpt><trkpt lat="46.0660264" lon="13.4725055"><ele>125.66666666666667</ele><time>2026-05-03T07:26:09.076Z</time></trkpt><trkpt lat="46.0659402" lon="13.4726828"><ele>127.0</ele><time>2026-05-03T07:26:10.068Z</time></trkpt><trkpt lat="46.0658533" lon="13.4728597"><ele>126.5</ele><time>2026-05-03T07:26:11.078Z</time></trkpt><trkpt lat="46.0657671" lon="13.4730183"><ele>126.0</ele><time>2026-05-03T07:26:12.068Z</time></trkpt><trkpt lat="46.0656885" lon="13.4731754"><ele>125.5</ele><time>2026-05-03T07:26:13.076Z</time></trkpt><trkpt lat="46.0656071" lon="13.4733128"><ele>125.0</ele><time>2026-05-03T07:26:14.067Z</time></trkpt><trkpt lat="46.0655369" lon="13.4734223"><ele>125.0</ele><time>2026-05-03T07:26:15.071Z</time></trkpt><trkpt lat="46.0654668" lon="13.4735188"><ele>125.0</ele><time>2026-05-03T07:26:16.078Z</time></trkpt><trkpt lat="46.0653945" lon="13.4735997"><ele>125.0</ele><time>2026-05-03T07:26:17.069Z</time></trkpt><trkpt lat="46.0653321" lon="13.4736488"><ele>125.0</ele><time>2026-05-03T07:26:18.069Z</time></trkpt><trkpt lat="46.0652435" lon="13.4736331"><ele>125.0</ele><time>2026-05-03T07:26:20.078Z</time></trkpt><trkpt lat="46.0651628" lon="13.4735048"><ele>125.0</ele><time>2026-05-03T07:26:22.07Z</time></trkpt><trkpt lat="46.0651292" lon="13.4734018"><ele>125.0</ele><time>2026-05-03T07:26:23.07Z</time></trkpt><trkpt lat="46.0650997" lon="13.4732843"><ele>125.0</ele><time>2026-05-03T07:26:24.07Z</time></trkpt><trkpt lat="46.0650668" lon="13.4731534"><ele>125.0</ele><time>2026-05-03T07:26:25.069Z</time></trkpt><trkpt lat="46.0650295" lon="13.4730144"><ele>125.0</ele><time>2026-05-03T07:26:26.067Z</time></trkpt><trkpt lat="46.0649896" lon="13.4728658"><ele>124.5</ele><time>2026-05-03T07:26:27.075Z</time></trkpt><trkpt lat="46.0649517" lon="13.4727048"><ele>124.0</ele><time>2026-05-03T07:26:28.068Z</time></trkpt><trkpt lat="46.0649174" lon="13.4725326"><ele>123.5</ele><time>2026-05-03T07:26:29.067Z</time></trkpt><trkpt lat="46.0648855" lon="13.4723549"><ele>123.0</ele><time>2026-05-03T07:26:30.072Z</time></trkpt><trkpt lat="46.064854" lon="13.4721812"><ele>124.25</ele><time>2026-05-03T07:26:31.07Z</time></trkpt><trkpt lat="46.064826" lon="13.4720077"><ele>125.5</ele><time>2026-05-03T07:26:32.074Z</time></trkpt><trkpt lat="46.0648008" lon="13.4718346"><ele>126.75</ele><time>2026-05-03T07:26:33.07Z</time></trkpt><trkpt lat="46.064781" lon="13.4716557"><ele>128.0</ele><time>2026-05-03T07:26:34.067Z</time></trkpt><trkpt lat="46.0647667" lon="13.4714749"><ele>128.0</ele><time>2026-05-03T07:26:35.08Z</time></trkpt><trkpt lat="46.0647647" lon="13.4712928"><ele>128.0</ele><time>2026-05-03T07:26:36.072Z</time></trkpt><trkpt lat="46.0647671" lon="13.4711122"><ele>128.0</ele><time>2026-05-03T07:26:37.074Z</time></trkpt><trkpt lat="46.064775" lon="13.4709359"><ele>128.0</ele><time>2026-05-03T07:26:38.07Z</time></trkpt><trkpt lat="46.0647851" lon="13.4707669"><ele>128.6</ele><time>2026-05-03T07:26:39.07Z</time></trkpt><trkpt lat="46.0647985" lon="13.4706081"><ele>129.20000000000002</ele><time>2026-05-03T07:26:40.07Z</time></trkpt><trkpt lat="46.0648128" lon="13.4704637"><ele>129.8</ele><time>2026-05-03T07:26:41.07Z</time></trkpt><trkpt lat="46.0648318" lon="13.4703239"><ele>130.4</ele><time>2026-05-03T07:26:42.065Z</time></trkpt><trkpt lat="46.0648551" lon="13.4701882"><ele>131.0</ele><time>2026-05-03T07:26:43.072Z</time></trkpt><trkpt lat="46.0648792" lon="13.4700527"><ele>131.0</ele><time>2026-05-03T07:26:44.068Z</time></trkpt><trkpt lat="46.0649066" lon="13.4699212"><ele>131.0</ele><time>2026-05-03T07:26:45.072Z</time></trkpt><trkpt lat="46.0649409" lon="13.4697792"><ele>131.0</ele><time>2026-05-03T07:26:46.069Z</time></trkpt><trkpt lat="46.064971" lon="13.4696392"><ele>131.0</ele><time>2026-05-03T07:26:47.083Z</time></trkpt><trkpt lat="46.064996" lon="13.4695056"><ele>131.0</ele><time>2026-05-03T07:26:48.072Z</time></trkpt><trkpt lat="46.0649981" lon="13.4693864"><ele>130.2</ele><time>2026-05-03T07:26:49.07Z</time></trkpt><trkpt lat="46.0649815" lon="13.4692662"><ele>129.39999999999998</ele><time>2026-05-03T07:26:50.068Z</time></trkpt><trkpt lat="46.0649566" lon="13.4691391"><ele>128.6</ele><time>2026-05-03T07:26:51.071Z</time></trkpt><trkpt lat="46.0649276" lon="13.4690008"><ele>127.8</ele><time>2026-05-03T07:26:52.075Z</time></trkpt><trkpt lat="46.0649013" lon="13.4688662"><ele>127.0</ele><time>2026-05-03T07:26:53.072Z</time></trkpt><trkpt lat="46.0648719" lon="13.4687508"><ele>126.50000000000001</ele><time>2026-05-03T07:26:54.072Z</time></trkpt><trkpt lat="46.0648348" lon="13.4686592"><ele>126.0</ele><time>2026-05-03T07:26:55.068Z</time></trkpt><trkpt lat="46.0647334" lon="13.4685654"><ele>125.5</ele><time>2026-05-03T07:26:57.069Z</time></trkpt><trkpt lat="46.0646604" lon="13.468559"><ele>125.0</ele><time>2026-05-03T07:26:58.065Z</time></trkpt><trkpt lat="46.0645764" lon="13.4685603"><ele>124.50000000000001</ele><time>2026-05-03T07:26:59.074Z</time></trkpt><trkpt lat="46.0644906" lon="13.4685512"><ele>124.0</ele><time>2026-05-03T07:27:00.071Z</time></trkpt><trkpt lat="46.0644056" lon="13.4685142"><ele>124.0</ele><time>2026-05-03T07:27:01.075Z</time></trkpt><trkpt lat="46.0643228" lon="13.4684402"><ele>124.0</ele><time>2026-05-03T07:27:02.076Z</time></trkpt><trkpt lat="46.0642463" lon="13.4683513"><ele>124.0</ele><time>2026-05-03T07:27:03.068Z</time></trkpt><trkpt lat="46.0641791" lon="13.4682567"><ele>124.0</ele><time>2026-05-03T07:27:04.068Z</time></trkpt><trkpt lat="46.06412" lon="13.4681506"><ele>124.0</ele><time>2026-05-03T07:27:05.078Z</time></trkpt><trkpt lat="46.0640821" lon="13.468032"><ele>123.66666666666667</ele><time>2026-05-03T07:27:06.073Z</time></trkpt><trkpt lat="46.0640461" lon="13.4679189"><ele>123.33333333333334</ele><time>2026-05-03T07:27:07.069Z</time></trkpt><trkpt lat="46.0639955" lon="13.4678185"><ele>123.0</ele><time>2026-05-03T07:27:08.073Z</time></trkpt><trkpt lat="46.0639353" lon="13.4677362"><ele>122.66666666666666</ele><time>2026-05-03T07:27:09.066Z</time></trkpt><trkpt lat="46.0638632" lon="13.4676576"><ele>122.33333333333333</ele><time>2026-05-03T07:27:10.071Z</time></trkpt><trkpt lat="46.0637831" lon="13.467582"><ele>122.0</ele><time>2026-05-03T07:27:11.073Z</time></trkpt><trkpt lat="46.0636952" lon="13.4675163"><ele>122.0</ele><time>2026-05-03T07:27:12.069Z</time></trkpt><trkpt lat="46.0635917" lon="13.4674572"><ele>122.0</ele><time>2026-05-03T07:27:13.069Z</time></trkpt><trkpt lat="46.0634776" lon="13.4674083"><ele>122.0</ele><time>2026-05-03T07:27:14.067Z</time></trkpt><trkpt lat="46.0633619" lon="13.4673691"><ele>122.0</ele><time>2026-05-03T07:27:15.066Z</time></trkpt><trkpt lat="46.0632525" lon="13.4673206"><ele>122.25</ele><time>2026-05-03T07:27:16.066Z</time></trkpt><trkpt lat="46.0631452" lon="13.4672526"><ele>122.5</ele><time>2026-05-03T07:27:17.075Z</time></trkpt><trkpt lat="46.063045" lon="13.4671475"><ele>122.75</ele><time>2026-05-03T07:27:18.068Z</time></trkpt><trkpt lat="46.0629524" lon="13.4670347"><ele>123.0</ele><time>2026-05-03T07:27:19.072Z</time></trkpt><trkpt lat="46.0628623" lon="13.4669339"><ele>123.0</ele><time>2026-05-03T07:27:20.067Z</time></trkpt><trkpt lat="46.0627707" lon="13.4668532"><ele>123.0</ele><time>2026-05-03T07:27:21.074Z</time></trkpt><trkpt lat="46.0626664" lon="13.4667825"><ele>123.0</ele><time>2026-05-03T07:27:22.075Z</time></trkpt><trkpt lat="46.062557" lon="13.4667319"><ele>123.0</ele><time>2026-05-03T07:27:23.072Z</time></trkpt><trkpt lat="46.0624461" lon="13.4666832"><ele>122.2</ele><time>2026-05-03T07:27:24.067Z</time></trkpt><trkpt lat="46.0623521" lon="13.4666172"><ele>121.4</ele><time>2026-05-03T07:27:25.072Z</time></trkpt><trkpt lat="46.0622668" lon="13.4665391"><ele>120.60000000000001</ele><time>2026-05-03T07:27:26.075Z</time></trkpt><trkpt lat="46.0621886" lon="13.4664587"><ele>119.80000000000001</ele><time>2026-05-03T07:27:27.074Z</time></trkpt><trkpt lat="46.0621196" lon="13.4663999"><ele>119.0</ele><time>2026-05-03T07:27:28.072Z</time></trkpt><trkpt lat="46.0620472" lon="13.4663604"><ele>119.0</ele><time>2026-05-03T07:27:29.069Z</time></trkpt><trkpt lat="46.0619734" lon="13.466332"><ele>119.0</ele><time>2026-05-03T07:27:30.074Z</time></trkpt><trkpt lat="46.0618999" lon="13.4663136"><ele>119.0</ele><time>2026-05-03T07:27:31.07Z</time></trkpt><trkpt lat="46.0618077" lon="13.4662879"><ele>119.0</ele><time>2026-05-03T07:27:32.074Z</time></trkpt><trkpt lat="46.0617043" lon="13.4662509"><ele>119.0</ele><time>2026-05-03T07:27:33.069Z</time></trkpt><trkpt lat="46.0616004" lon="13.4662147"><ele>118.99999999999999</ele><time>2026-05-03T07:27:34.068Z</time></trkpt><trkpt lat="46.0615137" lon="13.4662007"><ele>119.0</ele><time>2026-05-03T07:27:35.07Z</time></trkpt><trkpt lat="46.0614318" lon="13.4661981"><ele>119.0</ele><time>2026-05-03T07:27:36.068Z</time></trkpt><trkpt lat="46.0613525" lon="13.4662032"><ele>119.0</ele><time>2026-05-03T07:27:37.069Z</time></trkpt><trkpt lat="46.0612706" lon="13.4662126"><ele>118.99999999999999</ele><time>2026-05-03T07:27:38.066Z</time></trkpt><trkpt lat="46.0611888" lon="13.4662234"><ele>119.0</ele><time>2026-05-03T07:27:39.07Z</time></trkpt><trkpt lat="46.0611131" lon="13.4662199"><ele>119.0</ele><time>2026-05-03T07:27:40.075Z</time></trkpt><trkpt lat="46.0610506" lon="13.4661889"><ele>119.0</ele><time>2026-05-03T07:27:41.069Z</time></trkpt><trkpt lat="46.0609856" lon="13.4661273"><ele>119.0</ele><time>2026-05-03T07:27:42.075Z</time></trkpt><trkpt lat="46.0609193" lon="13.4660351"><ele>119.0</ele><time>2026-05-03T07:27:43.068Z</time></trkpt><trkpt lat="46.0608551" lon="13.4659031"><ele>119.0</ele><time>2026-05-03T07:27:44.066Z</time></trkpt><trkpt lat="46.0607949" lon="13.465765"><ele>118.0</ele><time>2026-05-03T07:27:45.07Z</time></trkpt><trkpt lat="46.0607494" lon="13.4656192"><ele>117.0</ele><time>2026-05-03T07:27:46.074Z</time></trkpt><trkpt lat="46.0607132" lon="13.4654628"><ele>116.0</ele><time>2026-05-03T07:27:47.07Z</time></trkpt><trkpt lat="46.0606853" lon="13.4652934"><ele>115.0</ele><time>2026-05-03T07:27:48.071Z</time></trkpt><trkpt lat="46.0606608" lon="13.465129"><ele>115.0</ele><time>2026-05-03T07:27:49.068Z</time></trkpt><trkpt lat="46.060631" lon="13.4649854"><ele>115.0</ele><time>2026-05-03T07:27:50.073Z</time></trkpt><trkpt lat="46.0605867" lon="13.4648786"><ele>115.0</ele><time>2026-05-03T07:27:51.066Z</time></trkpt><trkpt lat="46.0605309" lon="13.464789"><ele>115.0</ele><time>2026-05-03T07:27:52.065Z</time></trkpt><trkpt lat="46.0604413" lon="13.4647071"><ele>115.0</ele><time>2026-05-03T07:27:53.068Z</time></trkpt><trkpt lat="46.0603345" lon="13.4646272"><ele>115.75</ele><time>2026-05-03T07:27:54.068Z</time></trkpt><trkpt lat="46.0602284" lon="13.4645445"><ele>116.5</ele><time>2026-05-03T07:27:55.073Z</time></trkpt><trkpt lat="46.0601293" lon="13.4644387"><ele>117.25</ele><time>2026-05-03T07:27:56.073Z</time></trkpt><trkpt lat="46.0600384" lon="13.464309"><ele>118.0</ele><time>2026-05-03T07:27:57.068Z</time></trkpt><trkpt lat="46.0599573" lon="13.4641564"><ele>117.25</ele><time>2026-05-03T07:27:58.068Z</time></trkpt><trkpt lat="46.0598825" lon="13.4639853"><ele>116.5</ele><time>2026-05-03T07:27:59.065Z</time></trkpt><trkpt lat="46.0598179" lon="13.4638131"><ele>115.75</ele><time>2026-05-03T07:28:00.065Z</time></trkpt><trkpt lat="46.0597491" lon="13.4636541"><ele>115.0</ele><time>2026-05-03T07:28:01.073Z</time></trkpt><trkpt lat="46.0596759" lon="13.4635068"><ele>115.0</ele><time>2026-05-03T07:28:02.068Z</time></trkpt><trkpt lat="46.0596051" lon="13.4633582"><ele>115.0</ele><time>2026-05-03T07:28:03.067Z</time></trkpt><trkpt lat="46.0595359" lon="13.4632015"><ele>115.0</ele><time>2026-05-03T07:28:04.07Z</time></trkpt><trkpt lat="46.0594715" lon="13.463054"><ele>115.0</ele><time>2026-05-03T07:28:05.067Z</time></trkpt><trkpt lat="46.0594134" lon="13.4629209"><ele>114.6</ele><time>2026-05-03T07:28:06.077Z</time></trkpt><trkpt lat="46.0593589" lon="13.4628017"><ele>114.2</ele><time>2026-05-03T07:28:07.07Z</time></trkpt><trkpt lat="46.0593092" lon="13.462694"><ele>113.80000000000001</ele><time>2026-05-03T07:28:08.071Z</time></trkpt><trkpt lat="46.0592565" lon="13.4626"><ele>113.4</ele><time>2026-05-03T07:28:09.07Z</time></trkpt><trkpt lat="46.0591864" lon="13.4625143"><ele>113.0</ele><time>2026-05-03T07:28:10.063Z</time></trkpt><trkpt lat="46.0591078" lon="13.4624341"><ele>113.0</ele><time>2026-05-03T07:28:11.079Z</time></trkpt><trkpt lat="46.0590379" lon="13.4623613"><ele>113.00000000000001</ele><time>2026-05-03T07:28:12.074Z</time></trkpt><trkpt lat="46.0589785" lon="13.4622692"><ele>113.00000000000001</ele><time>2026-05-03T07:28:13.065Z</time></trkpt><trkpt lat="46.0589189" lon="13.4621422"><ele>113.0</ele><time>2026-05-03T07:28:14.068Z</time></trkpt><trkpt lat="46.0588587" lon="13.4620096"><ele>113.0</ele><time>2026-05-03T07:28:15.071Z</time></trkpt><trkpt lat="46.0588056" lon="13.4618806"><ele>113.33333333333333</ele><time>2026-05-03T07:28:16.068Z</time></trkpt><trkpt lat="46.0587495" lon="13.4617761"><ele>113.66666666666666</ele><time>2026-05-03T07:28:17.071Z</time></trkpt><trkpt lat="46.0586887" lon="13.4616942"><ele>114.0</ele><time>2026-05-03T07:28:18.07Z</time></trkpt><trkpt lat="46.058621" lon="13.4616317"><ele>114.33333333333334</ele><time>2026-05-03T07:28:19.065Z</time></trkpt><trkpt lat="46.0585446" lon="13.4615827"><ele>114.66666666666667</ele><time>2026-05-03T07:28:20.066Z</time></trkpt><trkpt lat="46.0584535" lon="13.4615464"><ele>115.0</ele><time>2026-05-03T07:28:21.064Z</time></trkpt><trkpt lat="46.0583587" lon="13.461514"><ele>114.75</ele><time>2026-05-03T07:28:22.074Z</time></trkpt><trkpt lat="46.0582509" lon="13.4614626"><ele>114.5</ele><time>2026-05-03T07:28:23.067Z</time></trkpt><trkpt lat="46.0581269" lon="13.4613894"><ele>114.25</ele><time>2026-05-03T07:28:24.07Z</time></trkpt><trkpt lat="46.0580059" lon="13.4613129"><ele>114.0</ele><time>2026-05-03T07:28:25.067Z</time></trkpt><trkpt lat="46.0579014" lon="13.4612435"><ele>114.0</ele><time>2026-05-03T07:28:26.074Z</time></trkpt><trkpt lat="46.0578046" lon="13.46117"><ele>114.0</ele><time>2026-05-03T07:28:27.069Z</time></trkpt><trkpt lat="46.0577257" lon="13.4610855"><ele>114.0</ele><time>2026-05-03T07:28:28.07Z</time></trkpt><trkpt lat="46.0576553" lon="13.4609806"><ele>114.0</ele><time>2026-05-03T07:28:29.073Z</time></trkpt><trkpt lat="46.0575977" lon="13.4608467"><ele>114.0</ele><time>2026-05-03T07:28:30.071Z</time></trkpt><trkpt lat="46.0575536" lon="13.4606829"><ele>114.0</ele><time>2026-05-03T07:28:31.07Z</time></trkpt><trkpt lat="46.0575289" lon="13.4605182"><ele>114.0</ele><time>2026-05-03T07:28:32.074Z</time></trkpt><trkpt lat="46.0575059" lon="13.4603781"><ele>114.0</ele><time>2026-05-03T07:28:33.067Z</time></trkpt><trkpt lat="46.0574837" lon="13.4602777"><ele>114.0</ele><time>2026-05-03T07:28:34.071Z</time></trkpt><trkpt lat="46.0574973" lon="13.4600949"><ele>114.0</ele><time>2026-05-03T07:28:36.076Z</time></trkpt><trkpt lat="46.0575356" lon="13.459982"><ele>114.0</ele><time>2026-05-03T07:28:37.069Z</time></trkpt><trkpt lat="46.057578" lon="13.4598564"><ele>114.0</ele><time>2026-05-03T07:28:38.067Z</time></trkpt><trkpt lat="46.0575959" lon="13.4597278"><ele>114.0</ele><time>2026-05-03T07:28:39.071Z</time></trkpt><trkpt lat="46.0575965" lon="13.4595874"><ele>114.0</ele><time>2026-05-03T07:28:40.077Z</time></trkpt><trkpt lat="46.0575806" lon="13.4594486"><ele>114.0</ele><time>2026-05-03T07:28:41.065Z</time></trkpt><trkpt lat="46.057563" lon="13.4593107"><ele>114.0</ele><time>2026-05-03T07:28:42.067Z</time></trkpt><trkpt lat="46.057552" lon="13.4591706"><ele>114.0</ele><time>2026-05-03T07:28:43.076Z</time></trkpt><trkpt lat="46.0575493" lon="13.4590275"><ele>114.0</ele><time>2026-05-03T07:28:44.066Z</time></trkpt><trkpt lat="46.057549" lon="13.4588699"><ele>114.0</ele><time>2026-05-03T07:28:45.067Z</time></trkpt><trkpt lat="46.0575481" lon="13.4587113"><ele>114.0</ele><time>2026-05-03T07:28:46.075Z</time></trkpt><trkpt lat="46.0575523" lon="13.4585518"><ele>114.2</ele><time>2026-05-03T07:28:47.069Z</time></trkpt><trkpt lat="46.0575567" lon="13.4583976"><ele>114.4</ele><time>2026-05-03T07:28:48.072Z</time></trkpt><trkpt lat="46.0575613" lon="13.4582462"><ele>114.6</ele><time>2026-05-03T07:28:49.073Z</time></trkpt><trkpt lat="46.0575647" lon="13.4580988"><ele>114.8</ele><time>2026-05-03T07:28:50.068Z</time></trkpt><trkpt lat="46.0575676" lon="13.4579617"><ele>115.0</ele><time>2026-05-03T07:28:51.074Z</time></trkpt><trkpt lat="46.0575678" lon="13.4578397"><ele>115.4</ele><time>2026-05-03T07:28:52.072Z</time></trkpt><trkpt lat="46.0575657" lon="13.4577411"><ele>115.8</ele><time>2026-05-03T07:28:53.067Z</time></trkpt><trkpt lat="46.0575567" lon="13.4575954"><ele>116.19999999999999</ele><time>2026-05-03T07:28:55.07Z</time></trkpt><trkpt lat="46.0574931" lon="13.4575655"><ele>116.6</ele><time>2026-05-03T07:29:05.071Z</time></trkpt><trkpt lat="46.0574066" lon="13.4576698"><ele>117.0</ele><time>2026-05-03T07:29:07.068Z</time></trkpt><trkpt lat="46.0573185" lon="13.4577572"><ele>117.25</ele><time>2026-05-03T07:29:08.064Z</time></trkpt><trkpt lat="46.0572195" lon="13.457857"><ele>117.5</ele><time>2026-05-03T07:29:09.074Z</time></trkpt><trkpt lat="46.0571022" lon="13.4579597"><ele>117.75</ele><time>2026-05-03T07:29:10.078Z</time></trkpt><trkpt lat="46.0569853" lon="13.4580764"><ele>118.0</ele><time>2026-05-03T07:29:11.069Z</time></trkpt><trkpt lat="46.0568532" lon="13.4581869"><ele>117.33333333333334</ele><time>2026-05-03T07:29:12.066Z</time></trkpt><trkpt lat="46.0567135" lon="13.4583145"><ele>116.66666666666666</ele><time>2026-05-03T07:29:13.072Z</time></trkpt><trkpt lat="46.0565742" lon="13.4584304"><ele>116.0</ele><time>2026-05-03T07:29:14.075Z</time></trkpt><trkpt lat="46.0564418" lon="13.4585457"><ele>115.33333333333333</ele><time>2026-05-03T07:29:15.067Z</time></trkpt><trkpt lat="46.0563111" lon="13.4586655"><ele>114.66666666666666</ele><time>2026-05-03T07:29:16.065Z</time></trkpt><trkpt lat="46.0561774" lon="13.4587831"><ele>114.0</ele><time>2026-05-03T07:29:17.067Z</time></trkpt><trkpt lat="46.0560451" lon="13.4588954"><ele>114.0</ele><time>2026-05-03T07:29:18.069Z</time></trkpt><trkpt lat="46.0559112" lon="13.4590134"><ele>114.0</ele><time>2026-05-03T07:29:19.068Z</time></trkpt><trkpt lat="46.0557772" lon="13.4591302"><ele>114.0</ele><time>2026-05-03T07:29:20.076Z</time></trkpt><trkpt lat="46.0556406" lon="13.4592532"><ele>113.66666666666666</ele><time>2026-05-03T07:29:21.066Z</time></trkpt><trkpt lat="46.0555031" lon="13.4593826"><ele>113.33333333333333</ele><time>2026-05-03T07:29:22.072Z</time></trkpt><trkpt lat="46.0553652" lon="13.4595083"><ele>113.0</ele><time>2026-05-03T07:29:23.068Z</time></trkpt><trkpt lat="46.0552222" lon="13.459638"><ele>113.0</ele><time>2026-05-03T07:29:24.068Z</time></trkpt><trkpt lat="46.0550828" lon="13.4597644"><ele>113.0</ele><time>2026-05-03T07:29:25.073Z</time></trkpt><trkpt lat="46.0549364" lon="13.4598977"><ele>113.0</ele><time>2026-05-03T07:29:26.083Z</time></trkpt><trkpt lat="46.0547862" lon="13.4600342"><ele>113.0</ele><time>2026-05-03T07:29:27.074Z</time></trkpt><trkpt lat="46.0546406" lon="13.4601653"><ele>113.0</ele><time>2026-05-03T07:29:28.066Z</time></trkpt><trkpt lat="46.0544963" lon="13.4602993"><ele>113.0</ele><time>2026-05-03T07:29:29.074Z</time></trkpt><trkpt lat="46.0543714" lon="13.4604619"><ele>113.0</ele><time>2026-05-03T07:29:30.07Z</time></trkpt><trkpt lat="46.0542609" lon="13.4606353"><ele>113.0</ele><time>2026-05-03T07:29:31.064Z</time></trkpt><trkpt lat="46.0541597" lon="13.4607947"><ele>113.0</ele><time>2026-05-03T07:29:32.066Z</time></trkpt><trkpt lat="46.0540832" lon="13.4609561"><ele>113.0</ele><time>2026-05-03T07:29:33.07Z</time></trkpt><trkpt lat="46.0539937" lon="13.4610993"><ele>113.0</ele><time>2026-05-03T07:29:34.068Z</time></trkpt><trkpt lat="46.0539108" lon="13.4612569"><ele>113.0</ele><time>2026-05-03T07:29:35.071Z</time></trkpt><trkpt lat="46.0538301" lon="13.4614163"><ele>113.0</ele><time>2026-05-03T07:29:36.076Z</time></trkpt><trkpt lat="46.0537564" lon="13.4615614"><ele>113.0</ele><time>2026-05-03T07:29:37.069Z</time></trkpt><trkpt lat="46.0536834" lon="13.4617066"><ele>113.0</ele><time>2026-05-03T07:29:38.077Z</time></trkpt><trkpt lat="46.0535928" lon="13.461843"><ele>113.0</ele><time>2026-05-03T07:29:39.067Z</time></trkpt><trkpt lat="46.0534959" lon="13.4619494"><ele>113.0</ele><time>2026-05-03T07:29:40.066Z</time></trkpt><trkpt lat="46.0533727" lon="13.4620158"><ele>113.0</ele><time>2026-05-03T07:29:41.076Z</time></trkpt><trkpt lat="46.0532322" lon="13.4620188"><ele>113.0</ele><time>2026-05-03T07:29:42.073Z</time></trkpt><trkpt lat="46.0530792" lon="13.4619837"><ele>113.0</ele><time>2026-05-03T07:29:43.068Z</time></trkpt><trkpt lat="46.0529374" lon="13.4619574"><ele>113.0</ele><time>2026-05-03T07:29:44.064Z</time></trkpt><trkpt lat="46.0527997" lon="13.4619307"><ele>113.0</ele><time>2026-05-03T07:29:45.07Z</time></trkpt><trkpt lat="46.0526652" lon="13.4619057"><ele>113.0</ele><time>2026-05-03T07:29:46.068Z</time></trkpt><trkpt lat="46.0525287" lon="13.4618854"><ele>113.0</ele><time>2026-05-03T07:29:47.071Z</time></trkpt><trkpt lat="46.0523962" lon="13.4618642"><ele>113.0</ele><time>2026-05-03T07:29:48.069Z</time></trkpt><trkpt lat="46.0522647" lon="13.461853"><ele>113.0</ele><time>2026-05-03T07:29:49.07Z</time></trkpt><trkpt lat="46.0521331" lon="13.4618433"><ele>114.0</ele><time>2026-05-03T07:29:50.07Z</time></trkpt><trkpt lat="46.0519955" lon="13.4618564"><ele>115.0</ele><time>2026-05-03T07:29:51.071Z</time></trkpt><trkpt lat="46.0518544" lon="13.4619019"><ele>116.0</ele><time>2026-05-03T07:29:52.069Z</time></trkpt><trkpt lat="46.0517229" lon="13.4619721"><ele>117.0</ele><time>2026-05-03T07:29:53.066Z</time></trkpt><trkpt lat="46.0515988" lon="13.4620392"><ele>118.0</ele><time>2026-05-03T07:29:54.069Z</time></trkpt><trkpt lat="46.0514846" lon="13.4620974"><ele>118.99999999999999</ele><time>2026-05-03T07:29:55.072Z</time></trkpt><trkpt lat="46.0513951" lon="13.4621524"><ele>119.99999999999999</ele><time>2026-05-03T07:29:56.07Z</time></trkpt><trkpt lat="46.0513287" lon="13.4621982"><ele>121.0</ele><time>2026-05-03T07:29:57.078Z</time></trkpt><trkpt lat="46.0512638" lon="13.4622887"><ele>122.0</ele><time>2026-05-03T07:29:59.067Z</time></trkpt><trkpt lat="46.0512724" lon="13.4624279"><ele>120.19999999999999</ele><time>2026-05-03T07:30:01.067Z</time></trkpt><trkpt lat="46.0512538" lon="13.4626043"><ele>118.39999999999999</ele><time>2026-05-03T07:30:03.068Z</time></trkpt><trkpt lat="46.0512321" lon="13.4627192"><ele>116.60000000000001</ele><time>2026-05-03T07:30:04.072Z</time></trkpt><trkpt lat="46.0512049" lon="13.4628495"><ele>114.80000000000001</ele><time>2026-05-03T07:30:05.067Z</time></trkpt><trkpt lat="46.051173" lon="13.4629862"><ele>113.0</ele><time>2026-05-03T07:30:06.074Z</time></trkpt><trkpt lat="46.0511361" lon="13.4631327"><ele>113.0</ele><time>2026-05-03T07:30:07.073Z</time></trkpt><trkpt lat="46.0510969" lon="13.463286"><ele>113.0</ele><time>2026-05-03T07:30:08.069Z</time></trkpt><trkpt lat="46.0510632" lon="13.4634472"><ele>113.0</ele><time>2026-05-03T07:30:09.075Z</time></trkpt><trkpt lat="46.0510302" lon="13.4636166"><ele>113.0</ele><time>2026-05-03T07:30:10.071Z</time></trkpt><trkpt lat="46.051016" lon="13.4637862"><ele>115.25</ele><time>2026-05-03T07:30:11.065Z</time></trkpt><trkpt lat="46.0510182" lon="13.4639481"><ele>117.5</ele><time>2026-05-03T07:30:12.07Z</time></trkpt><trkpt lat="46.0510415" lon="13.4641027"><ele>119.75</ele><time>2026-05-03T07:30:13.073Z</time></trkpt><trkpt lat="46.0510923" lon="13.4642525"><ele>122.0</ele><time>2026-05-03T07:30:14.074Z</time></trkpt><trkpt lat="46.0511598" lon="13.4644115"><ele>122.0</ele><time>2026-05-03T07:30:15.075Z</time></trkpt><trkpt lat="46.051228" lon="13.464575"><ele>122.0</ele><time>2026-05-03T07:30:16.069Z</time></trkpt><trkpt lat="46.0512867" lon="13.4647435"><ele>122.0</ele><time>2026-05-03T07:30:17.073Z</time></trkpt><trkpt lat="46.0513337" lon="13.4649141"><ele>122.0</ele><time>2026-05-03T07:30:18.073Z</time></trkpt><trkpt lat="46.0513817" lon="13.4650886"><ele>123.25</ele><time>2026-05-03T07:30:19.067Z</time></trkpt><trkpt lat="46.0514276" lon="13.4652633"><ele>124.5</ele><time>2026-05-03T07:30:20.064Z</time></trkpt><trkpt lat="46.0514826" lon="13.4654418"><ele>125.75</ele><time>2026-05-03T07:30:21.072Z</time></trkpt><trkpt lat="46.0515376" lon="13.4656216"><ele>127.0</ele><time>2026-05-03T07:30:22.066Z</time></trkpt><trkpt lat="46.0515965" lon="13.4657964"><ele>127.0</ele><time>2026-05-03T07:30:23.072Z</time></trkpt><trkpt lat="46.0516489" lon="13.4659797"><ele>127.0</ele><time>2026-05-03T07:30:24.069Z</time></trkpt><trkpt lat="46.0517078" lon="13.4661667"><ele>127.0</ele><time>2026-05-03T07:30:25.067Z</time></trkpt><trkpt lat="46.0517699" lon="13.4663387"><ele>127.0</ele><time>2026-05-03T07:30:26.069Z</time></trkpt><trkpt lat="46.0518182" lon="13.4665039"><ele>128.25</ele><time>2026-05-03T07:30:27.069Z</time></trkpt><trkpt lat="46.0518761" lon="13.4666597"><ele>129.5</ele><time>2026-05-03T07:30:28.073Z</time></trkpt><trkpt lat="46.0519269" lon="13.4668139"><ele>130.75</ele><time>2026-05-03T07:30:29.069Z</time></trkpt><trkpt lat="46.051974" lon="13.4669779"><ele>132.0</ele><time>2026-05-03T07:30:30.065Z</time></trkpt><trkpt lat="46.05201" lon="13.4671385"><ele>132.4</ele><time>2026-05-03T07:30:31.069Z</time></trkpt><trkpt lat="46.0520226" lon="13.4672996"><ele>132.79999999999998</ele><time>2026-05-03T07:30:32.067Z</time></trkpt><trkpt lat="46.0520035" lon="13.4674551"><ele>133.2</ele><time>2026-05-03T07:30:33.074Z</time></trkpt><trkpt lat="46.0519709" lon="13.4675999"><ele>133.6</ele><time>2026-05-03T07:30:34.072Z</time></trkpt><trkpt lat="46.0519439" lon="13.4677434"><ele>134.0</ele><time>2026-05-03T07:30:35.07Z</time></trkpt><trkpt lat="46.0519457" lon="13.4678883"><ele>135.2</ele><time>2026-05-03T07:30:36.065Z</time></trkpt><trkpt lat="46.0519769" lon="13.46804"><ele>136.4</ele><time>2026-05-03T07:30:37.072Z</time></trkpt><trkpt lat="46.0520177" lon="13.4681966"><ele>137.6</ele><time>2026-05-03T07:30:38.075Z</time></trkpt><trkpt lat="46.0520433" lon="13.4683471"><ele>138.8</ele><time>2026-05-03T07:30:39.068Z</time></trkpt><trkpt lat="46.052047" lon="13.4684887"><ele>140.0</ele><time>2026-05-03T07:30:40.074Z</time></trkpt><trkpt lat="46.0520316" lon="13.4686133"><ele>140.0</ele><time>2026-05-03T07:30:41.077Z</time></trkpt><trkpt lat="46.0519955" lon="13.4687022"><ele>140.0</ele><time>2026-05-03T07:30:42.069Z</time></trkpt><trkpt lat="46.0519351" lon="13.4687368"><ele>140.0</ele><time>2026-05-03T07:30:43.065Z</time></trkpt><trkpt lat="46.0518573" lon="13.4687275"><ele>140.0</ele><time>2026-05-03T07:30:44.071Z</time></trkpt><trkpt lat="46.0517807" lon="13.4686985"><ele>140.0</ele><time>2026-05-03T07:30:45.069Z</time></trkpt><trkpt lat="46.0517058" lon="13.4686627"><ele>140.0</ele><time>2026-05-03T07:30:46.074Z</time></trkpt><trkpt lat="46.0516409" lon="13.4686433"><ele>140.0</ele><time>2026-05-03T07:30:47.071Z</time></trkpt><trkpt lat="46.0515742" lon="13.4686868"><ele>140.0</ele><time>2026-05-03T07:30:49.066Z</time></trkpt><trkpt lat="46.0516347" lon="13.4687468"><ele>140.0</ele><time>2026-05-03T07:30:51.074Z</time></trkpt><trkpt lat="46.0518481" lon="13.4687994"><ele>140.0</ele><time>2026-05-03T07:30:54.069Z</time></trkpt><trkpt lat="46.0519145" lon="13.4688474"><ele>140.0</ele><time>2026-05-03T07:30:55.066Z</time></trkpt><trkpt lat="46.0519734" lon="13.4688831"><ele>140.0</ele><time>2026-05-03T07:30:56.074Z</time></trkpt><trkpt lat="46.0520889" lon="13.4688626"><ele>140.0</ele><time>2026-05-03T07:30:58.067Z</time></trkpt><trkpt lat="46.0521421" lon="13.4688129"><ele>140.0</ele><time>2026-05-03T07:30:59.066Z</time></trkpt><trkpt lat="46.0521906" lon="13.468744"><ele>140.0</ele><time>2026-05-03T07:31:00.077Z</time></trkpt><trkpt lat="46.0522314" lon="13.4686621"><ele>140.0</ele><time>2026-05-03T07:31:01.079Z</time></trkpt><trkpt lat="46.0522685" lon="13.4685714"><ele>140.0</ele><time>2026-05-03T07:31:02.062Z</time></trkpt><trkpt lat="46.0523074" lon="13.4684773"><ele>140.0</ele><time>2026-05-03T07:31:03.063Z</time></trkpt><trkpt lat="46.0523525" lon="13.468399"><ele>140.0</ele><time>2026-05-03T07:31:04.074Z</time></trkpt><trkpt lat="46.0524411" lon="13.4683337"><ele>141.2</ele><time>2026-05-03T07:31:06.074Z</time></trkpt><trkpt lat="46.0525318" lon="13.4684136"><ele>142.4</ele><time>2026-05-03T07:31:08.07Z</time></trkpt><trkpt lat="46.0525914" lon="13.4684834"><ele>143.6</ele><time>2026-05-03T07:31:09.076Z</time></trkpt><trkpt lat="46.0526821" lon="13.468564"><ele>144.8</ele><time>2026-05-03T07:31:10.069Z</time></trkpt><trkpt lat="46.0527883" lon="13.4686508"><ele>146.0</ele><time>2026-05-03T07:31:11.08Z</time></trkpt><trkpt lat="46.0528976" lon="13.4687511"><ele>145.75</ele><time>2026-05-03T07:31:12.069Z</time></trkpt><trkpt lat="46.0530055" lon="13.4688676"><ele>145.5</ele><time>2026-05-03T07:31:13.069Z</time></trkpt><trkpt lat="46.0531063" lon="13.4689904"><ele>145.25</ele><time>2026-05-03T07:31:14.067Z</time></trkpt><trkpt lat="46.053202" lon="13.4691067"><ele>145.0</ele><time>2026-05-03T07:31:15.076Z</time></trkpt><trkpt lat="46.0532884" lon="13.4692145"><ele>145.5</ele><time>2026-05-03T07:31:16.068Z</time></trkpt><trkpt lat="46.0533893" lon="13.4693154"><ele>146.0</ele><time>2026-05-03T07:31:17.065Z</time></trkpt><trkpt lat="46.0534966" lon="13.469422"><ele>146.5</ele><time>2026-05-03T07:31:18.064Z</time></trkpt><trkpt lat="46.0536221" lon="13.4695165"><ele>147.0</ele><time>2026-05-03T07:31:19.065Z</time></trkpt><trkpt lat="46.053752" lon="13.4695952"><ele>145.0</ele><time>2026-05-03T07:31:20.063Z</time></trkpt><trkpt lat="46.053882" lon="13.4696756"><ele>143.0</ele><time>2026-05-03T07:31:21.061Z</time></trkpt><trkpt lat="46.0540033" lon="13.4697527"><ele>141.0</ele><time>2026-05-03T07:31:22.066Z</time></trkpt><trkpt lat="46.0541183" lon="13.4698278"><ele>139.0</ele><time>2026-05-03T07:31:23.063Z</time></trkpt><trkpt lat="46.0542263" lon="13.4698993"><ele>139.0</ele><time>2026-05-03T07:31:24.077Z</time></trkpt><trkpt lat="46.0543248" lon="13.4699629"><ele>139.0</ele><time>2026-05-03T07:31:25.064Z</time></trkpt><trkpt lat="46.0544074" lon="13.4700129"><ele>139.0</ele><time>2026-05-03T07:31:26.068Z</time></trkpt><trkpt lat="46.0544939" lon="13.4700708"><ele>139.0</ele><time>2026-05-03T07:31:28.06Z</time></trkpt><trkpt lat="46.054452" lon="13.4701637"><ele>139.0</ele><time>2026-05-03T07:31:31.066Z</time></trkpt><trkpt lat="46.054405" lon="13.4702367"><ele>139.0</ele><time>2026-05-03T07:31:33.061Z</time></trkpt><trkpt lat="46.0543344" lon="13.4703507"><ele>139.0</ele><time>2026-05-03T07:31:35.069Z</time></trkpt><trkpt lat="46.0542797" lon="13.4704263"><ele>139.0</ele><time>2026-05-03T07:31:36.065Z</time></trkpt><trkpt lat="46.0542284" lon="13.4705037"><ele>139.0</ele><time>2026-05-03T07:31:37.069Z</time></trkpt><trkpt lat="46.054165" lon="13.4706338"><ele>139.0</ele><time>2026-05-03T07:31:39.065Z</time></trkpt><trkpt lat="46.054239" lon="13.470723"><ele>139.0</ele><time>2026-05-03T07:31:42.063Z</time></trkpt><trkpt lat="46.0543133" lon="13.4708035"><ele>138.0</ele><time>2026-05-03T07:31:44.067Z</time></trkpt><trkpt lat="46.0543053" lon="13.4709344"><ele>137.0</ele><time>2026-05-03T07:31:46.061Z</time></trkpt><trkpt lat="46.0542007" lon="13.4709712"><ele>136.0</ele><time>2026-05-03T07:31:48.066Z</time></trkpt><trkpt lat="46.0540813" lon="13.4709255"><ele>135.0</ele><time>2026-05-03T07:31:50.073Z</time></trkpt><trkpt lat="46.0540189" lon="13.4709439"><ele>134.0</ele><time>2026-05-03T07:31:51.068Z</time></trkpt><trkpt lat="46.0539502" lon="13.4709867"><ele>132.83333333333331</ele><time>2026-05-03T07:31:52.07Z</time></trkpt><trkpt lat="46.0538767" lon="13.4710258"><ele>131.66666666666666</ele><time>2026-05-03T07:31:53.069Z</time></trkpt><trkpt lat="46.0537995" lon="13.4710604"><ele>130.5</ele><time>2026-05-03T07:31:54.064Z</time></trkpt><trkpt lat="46.0537185" lon="13.4710838"><ele>129.33333333333334</ele><time>2026-05-03T07:31:55.064Z</time></trkpt><trkpt lat="46.0536435" lon="13.4710993"><ele>128.16666666666669</ele><time>2026-05-03T07:31:56.073Z</time></trkpt><trkpt lat="46.0535654" lon="13.4711132"><ele>127.0</ele><time>2026-05-03T07:31:57.069Z</time></trkpt><trkpt lat="46.0534775" lon="13.4711103"><ele>127.0</ele><time>2026-05-03T07:31:58.064Z</time></trkpt><trkpt lat="46.0533845" lon="13.4710791"><ele>126.99999999999999</ele><time>2026-05-03T07:31:59.069Z</time></trkpt><trkpt lat="46.0532832" lon="13.4710317"><ele>126.99999999999999</ele><time>2026-05-03T07:32:00.067Z</time></trkpt><trkpt lat="46.0531849" lon="13.4709877"><ele>127.0</ele><time>2026-05-03T07:32:01.065Z</time></trkpt><trkpt lat="46.0530977" lon="13.4709508"><ele>127.0</ele><time>2026-05-03T07:32:02.076Z</time></trkpt><trkpt lat="46.0530257" lon="13.4709274"><ele>126.39999999999999</ele><time>2026-05-03T07:32:03.067Z</time></trkpt><trkpt lat="46.0529379" lon="13.4709811"><ele>125.79999999999998</ele><time>2026-05-03T07:32:05.065Z</time></trkpt><trkpt lat="46.0529286" lon="13.4710745"><ele>125.2</ele><time>2026-05-03T07:32:06.072Z</time></trkpt><trkpt lat="46.0529373" lon="13.4711983"><ele>124.6</ele><time>2026-05-03T07:32:07.065Z</time></trkpt><trkpt lat="46.052954" lon="13.4713422"><ele>124.0</ele><time>2026-05-03T07:32:08.068Z</time></trkpt><trkpt lat="46.052973" lon="13.4714888"><ele>122.50000000000001</ele><time>2026-05-03T07:32:09.079Z</time></trkpt><trkpt lat="46.0529954" lon="13.471623"><ele>121.0</ele><time>2026-05-03T07:32:10.069Z</time></trkpt><trkpt lat="46.0530193" lon="13.471739"><ele>119.5</ele><time>2026-05-03T07:32:11.06Z</time></trkpt><trkpt lat="46.0530581" lon="13.4718124"><ele>118.0</ele><time>2026-05-03T07:32:12.071Z</time></trkpt><trkpt lat="46.0531223" lon="13.4718455"><ele>116.50000000000001</ele><time>2026-05-03T07:32:13.066Z</time></trkpt><trkpt lat="46.0532144" lon="13.4718702"><ele>115.0</ele><time>2026-05-03T07:32:14.063Z</time></trkpt><trkpt lat="46.0533242" lon="13.4719138"><ele>115.0</ele><time>2026-05-03T07:32:15.069Z</time></trkpt><trkpt lat="46.053436" lon="13.471953"><ele>115.0</ele><time>2026-05-03T07:32:16.072Z</time></trkpt><trkpt lat="46.05353" lon="13.4719955"><ele>115.0</ele><time>2026-05-03T07:32:17.067Z</time></trkpt><trkpt lat="46.0535963" lon="13.4720409"><ele>115.0</ele><time>2026-05-03T07:32:18.065Z</time></trkpt><trkpt lat="46.0536276" lon="13.4721755"><ele>115.0</ele><time>2026-05-03T07:32:20.063Z</time></trkpt><trkpt lat="46.0535976" lon="13.4722655"><ele>115.4</ele><time>2026-05-03T07:32:21.066Z</time></trkpt><trkpt lat="46.0535552" lon="13.472342"><ele>115.8</ele><time>2026-05-03T07:32:22.066Z</time></trkpt><trkpt lat="46.0534387" lon="13.472398"><ele>116.19999999999999</ele><time>2026-05-03T07:32:24.08Z</time></trkpt><trkpt lat="46.0533619" lon="13.4723852"><ele>116.6</ele><time>2026-05-03T07:32:25.067Z</time></trkpt><trkpt lat="46.0532791" lon="13.4723583"><ele>117.0</ele><time>2026-05-03T07:32:26.065Z</time></trkpt><trkpt lat="46.0531856" lon="13.4723157"><ele>117.0</ele><time>2026-05-03T07:32:27.076Z</time></trkpt><trkpt lat="46.0530875" lon="13.4722564"><ele>116.99999999999999</ele><time>2026-05-03T07:32:28.067Z</time></trkpt><trkpt lat="46.0529886" lon="13.47219"><ele>116.99999999999999</ele><time>2026-05-03T07:32:29.062Z</time></trkpt><trkpt lat="46.0528953" lon="13.4721317"><ele>117.0</ele><time>2026-05-03T07:32:30.066Z</time></trkpt><trkpt lat="46.0528008" lon="13.472088"><ele>117.0</ele><time>2026-05-03T07:32:31.069Z</time></trkpt><trkpt lat="46.0527029" lon="13.4720642"><ele>116.25</ele><time>2026-05-03T07:32:32.066Z</time></trkpt><trkpt lat="46.0525926" lon="13.4720547"><ele>115.5</ele><time>2026-05-03T07:32:33.067Z</time></trkpt><trkpt lat="46.052474" lon="13.4720557"><ele>114.75</ele><time>2026-05-03T07:32:34.064Z</time></trkpt><trkpt lat="46.0523578" lon="13.4720516"><ele>114.0</ele><time>2026-05-03T07:32:35.069Z</time></trkpt><trkpt lat="46.0522425" lon="13.4720504"><ele>114.0</ele><time>2026-05-03T07:32:36.068Z</time></trkpt><trkpt lat="46.0521329" lon="13.4720643"><ele>114.0</ele><time>2026-05-03T07:32:37.074Z</time></trkpt><trkpt lat="46.0520325" lon="13.4720954"><ele>114.0</ele><time>2026-05-03T07:32:38.066Z</time></trkpt><trkpt lat="46.0519398" lon="13.4721358"><ele>114.0</ele><time>2026-05-03T07:32:39.065Z</time></trkpt><trkpt lat="46.0518559" lon="13.4721552"><ele>114.0</ele><time>2026-05-03T07:32:40.066Z</time></trkpt><trkpt lat="46.0517707" lon="13.4721298"><ele>114.0</ele><time>2026-05-03T07:32:41.065Z</time></trkpt><trkpt lat="46.0516812" lon="13.4720877"><ele>114.0</ele><time>2026-05-03T07:32:42.064Z</time></trkpt><trkpt lat="46.0515775" lon="13.4720452"><ele>114.0</ele><time>2026-05-03T07:32:43.063Z</time></trkpt><trkpt lat="46.05146" lon="13.4720117"><ele>114.0</ele><time>2026-05-03T07:32:44.071Z</time></trkpt><trkpt lat="46.0513401" lon="13.4719806"><ele>114.0</ele><time>2026-05-03T07:32:45.072Z</time></trkpt><trkpt lat="46.0512228" lon="13.4719477"><ele>114.25</ele><time>2026-05-03T07:32:46.067Z</time></trkpt><trkpt lat="46.0511002" lon="13.4719326"><ele>114.5</ele><time>2026-05-03T07:32:47.065Z</time></trkpt><trkpt lat="46.050967" lon="13.4719475"><ele>114.75</ele><time>2026-05-03T07:32:48.064Z</time></trkpt><trkpt lat="46.0508256" lon="13.4719894"><ele>115.0</ele><time>2026-05-03T07:32:49.065Z</time></trkpt><trkpt lat="46.0506971" lon="13.4720343"><ele>115.75</ele><time>2026-05-03T07:32:50.068Z</time></trkpt><trkpt lat="46.0505814" lon="13.472072"><ele>116.5</ele><time>2026-05-03T07:32:51.076Z</time></trkpt><trkpt lat="46.0504806" lon="13.4721224"><ele>117.25</ele><time>2026-05-03T07:32:52.067Z</time></trkpt><trkpt lat="46.0503815" lon="13.4721895"><ele>118.0</ele><time>2026-05-03T07:32:53.07Z</time></trkpt><trkpt lat="46.0502799" lon="13.4722688"><ele>118.25</ele><time>2026-05-03T07:32:54.067Z</time></trkpt><trkpt lat="46.0501793" lon="13.472366"><ele>118.5</ele><time>2026-05-03T07:32:55.069Z</time></trkpt><trkpt lat="46.0500799" lon="13.4724749"><ele>118.75</ele><time>2026-05-03T07:32:56.071Z</time></trkpt><trkpt lat="46.0499779" lon="13.4725836"><ele>119.0</ele><time>2026-05-03T07:32:57.07Z</time></trkpt><trkpt lat="46.0498763" lon="13.4726927"><ele>119.0</ele><time>2026-05-03T07:32:58.063Z</time></trkpt><trkpt lat="46.0497767" lon="13.4728024"><ele>119.0</ele><time>2026-05-03T07:32:59.066Z</time></trkpt><trkpt lat="46.0496752" lon="13.4728975"><ele>119.0</ele><time>2026-05-03T07:33:00.064Z</time></trkpt><trkpt lat="46.0495761" lon="13.4729889"><ele>119.0</ele><time>2026-05-03T07:33:01.074Z</time></trkpt><trkpt lat="46.0494871" lon="13.4730855"><ele>116.75</ele><time>2026-05-03T07:33:02.067Z</time></trkpt><trkpt lat="46.049398" lon="13.4731847"><ele>114.5</ele><time>2026-05-03T07:33:03.084Z</time></trkpt><trkpt lat="46.0493151" lon="13.4732965"><ele>112.25</ele><time>2026-05-03T07:33:04.065Z</time></trkpt><trkpt lat="46.0492335" lon="13.4734278"><ele>110.0</ele><time>2026-05-03T07:33:05.068Z</time></trkpt><trkpt lat="46.0491485" lon="13.473565"><ele>110.75</ele><time>2026-05-03T07:33:06.064Z</time></trkpt><trkpt lat="46.0490626" lon="13.4736991"><ele>111.5</ele><time>2026-05-03T07:33:07.072Z</time></trkpt><trkpt lat="46.0489776" lon="13.4738268"><ele>112.25</ele><time>2026-05-03T07:33:08.062Z</time></trkpt><trkpt lat="46.0488958" lon="13.4739457"><ele>113.0</ele><time>2026-05-03T07:33:09.069Z</time></trkpt><trkpt lat="46.0488203" lon="13.4740473"><ele>111.80000000000001</ele><time>2026-05-03T07:33:10.08Z</time></trkpt><trkpt lat="46.0487489" lon="13.4741287"><ele>110.60000000000001</ele><time>2026-05-03T07:33:11.063Z</time></trkpt><trkpt lat="46.0486666" lon="13.4742035"><ele>109.39999999999999</ele><time>2026-05-03T07:33:12.076Z</time></trkpt><trkpt lat="46.0485714" lon="13.4742726"><ele>108.19999999999999</ele><time>2026-05-03T07:33:13.069Z</time></trkpt><trkpt lat="46.0484755" lon="13.4743301"><ele>107.0</ele><time>2026-05-03T07:33:14.066Z</time></trkpt><trkpt lat="46.0483874" lon="13.4743898"><ele>107.0</ele><time>2026-05-03T07:33:15.064Z</time></trkpt><trkpt lat="46.0483016" lon="13.4744735"><ele>107.0</ele><time>2026-05-03T07:33:16.067Z</time></trkpt><trkpt lat="46.0482195" lon="13.474584"><ele>107.0</ele><time>2026-05-03T07:33:17.073Z</time></trkpt><trkpt lat="46.0481335" lon="13.4747456"><ele>107.0</ele><time>2026-05-03T07:33:18.07Z</time></trkpt><trkpt lat="46.0480436" lon="13.4749244"><ele>107.75</ele><time>2026-05-03T07:33:19.07Z</time></trkpt><trkpt lat="46.0479689" lon="13.4751067"><ele>108.5</ele><time>2026-05-03T07:33:20.066Z</time></trkpt><trkpt lat="46.0478958" lon="13.4752775"><ele>109.25</ele><time>2026-05-03T07:33:21.067Z</time></trkpt><trkpt lat="46.0478166" lon="13.4754219"><ele>110.0</ele><time>2026-05-03T07:33:22.063Z</time></trkpt><trkpt lat="46.0477492" lon="13.4755498"><ele>109.2</ele><time>2026-05-03T07:33:23.063Z</time></trkpt><trkpt lat="46.0476888" lon="13.47567"><ele>108.4</ele><time>2026-05-03T07:33:24.071Z</time></trkpt><trkpt lat="46.0476167" lon="13.4757844"><ele>107.6</ele><time>2026-05-03T07:33:25.066Z</time></trkpt><trkpt lat="46.047545" lon="13.4758854"><ele>106.8</ele><time>2026-05-03T07:33:26.068Z</time></trkpt><trkpt lat="46.0474705" lon="13.4759972"><ele>106.0</ele><time>2026-05-03T07:33:27.077Z</time></trkpt><trkpt lat="46.0473921" lon="13.4761239"><ele>106.0</ele><time>2026-05-03T07:33:28.068Z</time></trkpt><trkpt lat="46.0473165" lon="13.4762618"><ele>106.0</ele><time>2026-05-03T07:33:29.067Z</time></trkpt><trkpt lat="46.0472381" lon="13.4763924"><ele>106.0</ele><time>2026-05-03T07:33:30.069Z</time></trkpt><trkpt lat="46.0471423" lon="13.4765209"><ele>106.0</ele><time>2026-05-03T07:33:31.069Z</time></trkpt><trkpt lat="46.0470334" lon="13.4766451"><ele>105.5</ele><time>2026-05-03T07:33:32.065Z</time></trkpt><trkpt lat="46.0469172" lon="13.4767644"><ele>105.0</ele><time>2026-05-03T07:33:33.069Z</time></trkpt><trkpt lat="46.0467957" lon="13.4768755"><ele>104.5</ele><time>2026-05-03T07:33:34.072Z</time></trkpt><trkpt lat="46.0466883" lon="13.4769652"><ele>104.0</ele><time>2026-05-03T07:33:35.065Z</time></trkpt><trkpt lat="46.046575" lon="13.4770492"><ele>104.0</ele><time>2026-05-03T07:33:36.072Z</time></trkpt><trkpt lat="46.0464539" lon="13.4771166"><ele>104.0</ele><time>2026-05-03T07:33:37.071Z</time></trkpt><trkpt lat="46.0463207" lon="13.4771654"><ele>104.0</ele><time>2026-05-03T07:33:38.071Z</time></trkpt><trkpt lat="46.0461855" lon="13.4772062"><ele>104.0</ele><time>2026-05-03T07:33:39.07Z</time></trkpt><trkpt lat="46.0460619" lon="13.4772524"><ele>104.0</ele><time>2026-05-03T07:33:40.064Z</time></trkpt><trkpt lat="46.0459563" lon="13.4773006"><ele>104.0</ele><time>2026-05-03T07:33:41.068Z</time></trkpt><trkpt lat="46.0458653" lon="13.4773473"><ele>104.0</ele><time>2026-05-03T07:33:42.066Z</time></trkpt><trkpt lat="46.045791" lon="13.4773959"><ele>104.0</ele><time>2026-05-03T07:33:43.068Z</time></trkpt><trkpt lat="46.0457385" lon="13.4774602"><ele>104.0</ele><time>2026-05-03T07:33:44.07Z</time></trkpt><trkpt lat="46.0456982" lon="13.4776218"><ele>104.33333333333333</ele><time>2026-05-03T07:33:46.066Z</time></trkpt><trkpt lat="46.0456911" lon="13.4778077"><ele>104.66666666666666</ele><time>2026-05-03T07:33:48.065Z</time></trkpt><trkpt lat="46.0456877" lon="13.4779173"><ele>105.0</ele><time>2026-05-03T07:33:49.063Z</time></trkpt><trkpt lat="46.0456866" lon="13.4780299"><ele>105.33333333333334</ele><time>2026-05-03T07:33:50.07Z</time></trkpt><trkpt lat="46.0456868" lon="13.4781364"><ele>105.66666666666667</ele><time>2026-05-03T07:33:51.065Z</time></trkpt><trkpt lat="46.045695" lon="13.4782296"><ele>106.0</ele><time>2026-05-03T07:33:52.067Z</time></trkpt><trkpt lat="46.0456977" lon="13.4783243"><ele>106.0</ele><time>2026-05-03T07:33:54.068Z</time></trkpt><trkpt lat="46.0456082" lon="13.4783365"><ele>106.0</ele><time>2026-05-03T07:33:57.066Z</time></trkpt><trkpt lat="46.0455162" lon="13.4782798"><ele>106.0</ele><time>2026-05-03T07:33:59.079Z</time></trkpt><trkpt lat="46.0454009" lon="13.478234"><ele>106.0</ele><time>2026-05-03T07:34:01.072Z</time></trkpt><trkpt lat="46.0453346" lon="13.4781966"><ele>106.0</ele><time>2026-05-03T07:34:02.072Z</time></trkpt><trkpt lat="46.0452608" lon="13.4781614"><ele>106.0</ele><time>2026-05-03T07:34:03.067Z</time></trkpt><trkpt lat="46.045185" lon="13.4781239"><ele>106.0</ele><time>2026-05-03T07:34:04.065Z</time></trkpt><trkpt lat="46.0451047" lon="13.4780745"><ele>106.0</ele><time>2026-05-03T07:34:05.067Z</time></trkpt><trkpt lat="46.0450235" lon="13.4780149"><ele>106.0</ele><time>2026-05-03T07:34:06.062Z</time></trkpt><trkpt lat="46.0449317" lon="13.4779692"><ele>106.0</ele><time>2026-05-03T07:34:07.067Z</time></trkpt><trkpt lat="46.0448287" lon="13.4779346"><ele>104.25</ele><time>2026-05-03T07:34:08.07Z</time></trkpt><trkpt lat="46.0447201" lon="13.4779054"><ele>102.5</ele><time>2026-05-03T07:34:09.071Z</time></trkpt><trkpt lat="46.0446047" lon="13.4778791"><ele>100.75</ele><time>2026-05-03T07:34:10.065Z</time></trkpt><trkpt lat="46.0444839" lon="13.4778572"><ele>99.0</ele><time>2026-05-03T07:34:11.066Z</time></trkpt><trkpt lat="46.0443627" lon="13.4778323"><ele>99.0</ele><time>2026-05-03T07:34:12.065Z</time></trkpt><trkpt lat="46.0442394" lon="13.477813"><ele>99.0</ele><time>2026-05-03T07:34:13.068Z</time></trkpt><trkpt lat="46.0441149" lon="13.4778046"><ele>99.0</ele><time>2026-05-03T07:34:14.068Z</time></trkpt><trkpt lat="46.0439967" lon="13.4778185"><ele>99.0</ele><time>2026-05-03T07:34:15.074Z</time></trkpt><trkpt lat="46.0438824" lon="13.4778521"><ele>99.6</ele><time>2026-05-03T07:34:16.065Z</time></trkpt><trkpt lat="46.0437785" lon="13.4779044"><ele>100.2</ele><time>2026-05-03T07:34:17.066Z</time></trkpt><trkpt lat="46.0436928" lon="13.4779625"><ele>100.8</ele><time>2026-05-03T07:34:18.078Z</time></trkpt><trkpt lat="46.0436281" lon="13.4780083"><ele>101.39999999999999</ele><time>2026-05-03T07:34:19.068Z</time></trkpt><trkpt lat="46.043521" lon="13.4780085"><ele>102.0</ele><time>2026-05-03T07:34:21.064Z</time></trkpt><trkpt lat="46.0434556" lon="13.4779369"><ele>102.0</ele><time>2026-05-03T07:34:22.063Z</time></trkpt><trkpt lat="46.0433911" lon="13.4778265"><ele>102.0</ele><time>2026-05-03T07:34:23.068Z</time></trkpt><trkpt lat="46.0433284" lon="13.4777152"><ele>102.0</ele><time>2026-05-03T07:34:24.066Z</time></trkpt><trkpt lat="46.0432617" lon="13.4776148"><ele>102.0</ele><time>2026-05-03T07:34:25.063Z</time></trkpt><trkpt lat="46.0431867" lon="13.477534"><ele>102.0</ele><time>2026-05-03T07:34:26.072Z</time></trkpt><trkpt lat="46.0430924" lon="13.4774587"><ele>102.5</ele><time>2026-05-03T07:34:27.066Z</time></trkpt><trkpt lat="46.0429878" lon="13.4773915"><ele>103.0</ele><time>2026-05-03T07:34:28.066Z</time></trkpt><trkpt lat="46.0428818" lon="13.4773233"><ele>103.5</ele><time>2026-05-03T07:34:29.064Z</time></trkpt><trkpt lat="46.042775" lon="13.4772641"><ele>104.0</ele><time>2026-05-03T07:34:30.071Z</time></trkpt><trkpt lat="46.0426689" lon="13.4772141"><ele>104.0</ele><time>2026-05-03T07:34:31.073Z</time></trkpt><trkpt lat="46.0425598" lon="13.4771761"><ele>104.0</ele><time>2026-05-03T07:34:32.084Z</time></trkpt><trkpt lat="46.0424486" lon="13.4771543"><ele>104.0</ele><time>2026-05-03T07:34:33.062Z</time></trkpt><trkpt lat="46.0423323" lon="13.477157"><ele>104.0</ele><time>2026-05-03T07:34:34.068Z</time></trkpt><trkpt lat="46.0422044" lon="13.4771846"><ele>103.33333333333333</ele><time>2026-05-03T07:34:35.065Z</time></trkpt><trkpt lat="46.0420682" lon="13.477224"><ele>102.66666666666666</ele><time>2026-05-03T07:34:36.07Z</time></trkpt><trkpt lat="46.0419226" lon="13.4772744"><ele>102.0</ele><time>2026-05-03T07:34:37.063Z</time></trkpt><trkpt lat="46.0417631" lon="13.4773307"><ele>100.66666666666666</ele><time>2026-05-03T07:34:38.075Z</time></trkpt><trkpt lat="46.0415993" lon="13.4773748"><ele>99.33333333333333</ele><time>2026-05-03T07:34:39.068Z</time></trkpt><trkpt lat="46.0414416" lon="13.4774174"><ele>98.0</ele><time>2026-05-03T07:34:40.063Z</time></trkpt><trkpt lat="46.0412872" lon="13.477469"><ele>98.0</ele><time>2026-05-03T07:34:41.067Z</time></trkpt><trkpt lat="46.0411326" lon="13.4775084"><ele>98.0</ele><time>2026-05-03T07:34:42.067Z</time></trkpt><trkpt lat="46.040979" lon="13.4775438"><ele>98.0</ele><time>2026-05-03T07:34:43.066Z</time></trkpt><trkpt lat="46.0408211" lon="13.4775849"><ele>98.0</ele><time>2026-05-03T07:34:44.073Z</time></trkpt><trkpt lat="46.0406621" lon="13.4776266"><ele>98.0</ele><time>2026-05-03T07:34:45.068Z</time></trkpt><trkpt lat="46.0405024" lon="13.477666"><ele>98.0</ele><time>2026-05-03T07:34:46.071Z</time></trkpt><trkpt lat="46.0403407" lon="13.4777011"><ele>98.0</ele><time>2026-05-03T07:34:47.064Z</time></trkpt><trkpt lat="46.0401795" lon="13.477731"><ele>98.0</ele><time>2026-05-03T07:34:48.073Z</time></trkpt><trkpt lat="46.0400211" lon="13.477741"><ele>98.0</ele><time>2026-05-03T07:34:49.076Z</time></trkpt><trkpt lat="46.0398686" lon="13.4777132"><ele>97.75</ele><time>2026-05-03T07:34:50.07Z</time></trkpt><trkpt lat="46.0397346" lon="13.4776444"><ele>97.5</ele><time>2026-05-03T07:34:51.058Z</time></trkpt><trkpt lat="46.0395931" lon="13.4775776"><ele>97.25</ele><time>2026-05-03T07:34:52.08Z</time></trkpt><trkpt lat="46.0394435" lon="13.4775445"><ele>97.0</ele><time>2026-05-03T07:34:53.068Z</time></trkpt><trkpt lat="46.0392866" lon="13.4775332"><ele>97.33333333333334</ele><time>2026-05-03T07:34:54.065Z</time></trkpt><trkpt lat="46.0391324" lon="13.4775218"><ele>97.66666666666666</ele><time>2026-05-03T07:34:55.072Z</time></trkpt><trkpt lat="46.0389786" lon="13.4775386"><ele>98.0</ele><time>2026-05-03T07:34:56.067Z</time></trkpt><trkpt lat="46.0388166" lon="13.4775669"><ele>98.0</ele><time>2026-05-03T07:34:57.071Z</time></trkpt><trkpt lat="46.0386528" lon="13.4775899"><ele>98.0</ele><time>2026-05-03T07:34:58.066Z</time></trkpt><trkpt lat="46.0384834" lon="13.4776154"><ele>98.0</ele><time>2026-05-03T07:34:59.069Z</time></trkpt><trkpt lat="46.0383121" lon="13.4776388"><ele>96.66666666666666</ele><time>2026-05-03T07:35:00.064Z</time></trkpt><trkpt lat="46.0381373" lon="13.4776675"><ele>95.33333333333333</ele><time>2026-05-03T07:35:01.072Z</time></trkpt><trkpt lat="46.037959" lon="13.477707"><ele>94.0</ele><time>2026-05-03T07:35:02.075Z</time></trkpt><trkpt lat="46.0377807" lon="13.47775"><ele>94.0</ele><time>2026-05-03T07:35:03.065Z</time></trkpt><trkpt lat="46.0376019" lon="13.4777878"><ele>94.0</ele><time>2026-05-03T07:35:04.067Z</time></trkpt><trkpt lat="46.0374215" lon="13.4778242"><ele>94.0</ele><time>2026-05-03T07:35:05.075Z</time></trkpt><trkpt lat="46.0372361" lon="13.4778494"><ele>94.33333333333333</ele><time>2026-05-03T07:35:06.066Z</time></trkpt><trkpt lat="46.0370499" lon="13.4778741"><ele>94.66666666666667</ele><time>2026-05-03T07:35:07.062Z</time></trkpt><trkpt lat="46.0368625" lon="13.4778797"><ele>95.0</ele><time>2026-05-03T07:35:08.067Z</time></trkpt><trkpt lat="46.0366769" lon="13.4778574"><ele>94.0</ele><time>2026-05-03T07:35:09.073Z</time></trkpt><trkpt lat="46.0364943" lon="13.4777918"><ele>93.0</ele><time>2026-05-03T07:35:10.064Z</time></trkpt><trkpt lat="46.0363252" lon="13.4777012"><ele>92.0</ele><time>2026-05-03T07:35:11.066Z</time></trkpt><trkpt lat="46.0361508" lon="13.4776081"><ele>92.0</ele><time>2026-05-03T07:35:12.077Z</time></trkpt><trkpt lat="46.0359645" lon="13.4775188"><ele>92.0</ele><time>2026-05-03T07:35:13.067Z</time></trkpt><trkpt lat="46.0357745" lon="13.4774303"><ele>92.0</ele><time>2026-05-03T07:35:14.063Z</time></trkpt><trkpt lat="46.0355847" lon="13.4773433"><ele>91.33333333333334</ele><time>2026-05-03T07:35:15.064Z</time></trkpt><trkpt lat="46.0353949" lon="13.4772658"><ele>90.66666666666667</ele><time>2026-05-03T07:35:16.064Z</time></trkpt><trkpt lat="46.0351977" lon="13.4771869"><ele>90.0</ele><time>2026-05-03T07:35:17.071Z</time></trkpt><trkpt lat="46.0350002" lon="13.4771273"><ele>89.33333333333333</ele><time>2026-05-03T07:35:18.08Z</time></trkpt><trkpt lat="46.0348081" lon="13.4770735"><ele>88.66666666666666</ele><time>2026-05-03T07:35:19.067Z</time></trkpt><trkpt lat="46.0346192" lon="13.4770268"><ele>88.0</ele><time>2026-05-03T07:35:20.077Z</time></trkpt><trkpt lat="46.0344298" lon="13.4769744"><ele>88.0</ele><time>2026-05-03T07:35:21.067Z</time></trkpt><trkpt lat="46.0342439" lon="13.4769078"><ele>88.0</ele><time>2026-05-03T07:35:22.065Z</time></trkpt><trkpt lat="46.0340576" lon="13.4768295"><ele>88.0</ele><time>2026-05-03T07:35:23.074Z</time></trkpt><trkpt lat="46.0338775" lon="13.4767516"><ele>88.33333333333333</ele><time>2026-05-03T07:35:24.072Z</time></trkpt><trkpt lat="46.0337047" lon="13.4766746"><ele>88.66666666666667</ele><time>2026-05-03T07:35:25.063Z</time></trkpt><trkpt lat="46.0335363" lon="13.4765842"><ele>89.0</ele><time>2026-05-03T07:35:26.065Z</time></trkpt><trkpt lat="46.0333702" lon="13.4764924"><ele>89.0</ele><time>2026-05-03T07:35:27.065Z</time></trkpt><trkpt lat="46.0332083" lon="13.4763714"><ele>89.0</ele><time>2026-05-03T07:35:28.066Z</time></trkpt><trkpt lat="46.0330496" lon="13.4762269"><ele>89.0</ele><time>2026-05-03T07:35:29.064Z</time></trkpt><trkpt lat="46.0328986" lon="13.4760659"><ele>89.0</ele><time>2026-05-03T07:35:30.069Z</time></trkpt><trkpt lat="46.0327582" lon="13.4759147"><ele>89.0</ele><time>2026-05-03T07:35:31.072Z</time></trkpt><trkpt lat="46.0326263" lon="13.47578"><ele>89.0</ele><time>2026-05-03T07:35:32.067Z</time></trkpt><trkpt lat="46.0324877" lon="13.4756538"><ele>89.5</ele><time>2026-05-03T07:35:33.075Z</time></trkpt><trkpt lat="46.0323451" lon="13.4755595"><ele>90.0</ele><time>2026-05-03T07:35:34.064Z</time></trkpt><trkpt lat="46.032208" lon="13.4754788"><ele>90.5</ele><time>2026-05-03T07:35:35.068Z</time></trkpt><trkpt lat="46.0320724" lon="13.4754089"><ele>91.0</ele><time>2026-05-03T07:35:36.068Z</time></trkpt><trkpt lat="46.0319472" lon="13.4753665"><ele>91.0</ele><time>2026-05-03T07:35:37.064Z</time></trkpt><trkpt lat="46.0318268" lon="13.4753661"><ele>91.0</ele><time>2026-05-03T07:35:38.068Z</time></trkpt><trkpt lat="46.031738" lon="13.475435"><ele>91.0</ele><time>2026-05-03T07:35:39.07Z</time></trkpt><trkpt lat="46.0316719" lon="13.4755505"><ele>91.0</ele><time>2026-05-03T07:35:40.07Z</time></trkpt><trkpt lat="46.0316249" lon="13.4756969"><ele>91.0</ele><time>2026-05-03T07:35:41.066Z</time></trkpt><trkpt lat="46.031593" lon="13.4758486"><ele>89.83333333333333</ele><time>2026-05-03T07:35:42.068Z</time></trkpt><trkpt lat="46.0315637" lon="13.4759884"><ele>88.66666666666666</ele><time>2026-05-03T07:35:43.066Z</time></trkpt><trkpt lat="46.0315281" lon="13.4761068"><ele>87.5</ele><time>2026-05-03T07:35:44.062Z</time></trkpt><trkpt lat="46.0314838" lon="13.4761945"><ele>86.33333333333333</ele><time>2026-05-03T07:35:45.065Z</time></trkpt><trkpt lat="46.0314136" lon="13.4762417"><ele>85.16666666666667</ele><time>2026-05-03T07:35:46.064Z</time></trkpt><trkpt lat="46.0313256" lon="13.47625"><ele>84.0</ele><time>2026-05-03T07:35:47.063Z</time></trkpt><trkpt lat="46.0312296" lon="13.4762403"><ele>84.0</ele><time>2026-05-03T07:35:48.074Z</time></trkpt><trkpt lat="46.0311333" lon="13.4762256"><ele>84.0</ele><time>2026-05-03T07:35:49.069Z</time></trkpt><trkpt lat="46.0310333" lon="13.4762065"><ele>84.0</ele><time>2026-05-03T07:35:50.076Z</time></trkpt><trkpt lat="46.0309283" lon="13.4761881"><ele>84.0</ele><time>2026-05-03T07:35:51.066Z</time></trkpt><trkpt lat="46.0308163" lon="13.4761631"><ele>84.0</ele><time>2026-05-03T07:35:52.064Z</time></trkpt><trkpt lat="46.0306871" lon="13.4761382"><ele>83.66666666666667</ele><time>2026-05-03T07:35:53.072Z</time></trkpt><trkpt lat="46.030546" lon="13.4761061"><ele>83.33333333333334</ele><time>2026-05-03T07:35:54.064Z</time></trkpt><trkpt lat="46.030395" lon="13.4760738"><ele>83.0</ele><time>2026-05-03T07:35:55.063Z</time></trkpt><trkpt lat="46.0302266" lon="13.4760264"><ele>83.0</ele><time>2026-05-03T07:35:56.064Z</time></trkpt><trkpt lat="46.030053" lon="13.4759912"><ele>83.0</ele><time>2026-05-03T07:35:57.066Z</time></trkpt><trkpt lat="46.029892" lon="13.4759585"><ele>83.0</ele><time>2026-05-03T07:35:58.067Z</time></trkpt><trkpt lat="46.0297389" lon="13.4759097"><ele>82.33333333333334</ele><time>2026-05-03T07:35:59.064Z</time></trkpt><trkpt lat="46.0295833" lon="13.4758251"><ele>81.66666666666667</ele><time>2026-05-03T07:36:00.066Z</time></trkpt><trkpt lat="46.0294282" lon="13.4757217"><ele>81.0</ele><time>2026-05-03T07:36:01.067Z</time></trkpt><trkpt lat="46.0292797" lon="13.4756199"><ele>80.66666666666667</ele><time>2026-05-03T07:36:02.069Z</time></trkpt><trkpt lat="46.0291284" lon="13.4755229"><ele>80.33333333333334</ele><time>2026-05-03T07:36:03.066Z</time></trkpt><trkpt lat="46.0289836" lon="13.4754346"><ele>80.0</ele><time>2026-05-03T07:36:04.066Z</time></trkpt><trkpt lat="46.028848" lon="13.4753453"><ele>80.0</ele><time>2026-05-03T07:36:05.063Z</time></trkpt><trkpt lat="46.0287295" lon="13.4752705"><ele>80.0</ele><time>2026-05-03T07:36:06.078Z</time></trkpt><trkpt lat="46.028612" lon="13.4752195"><ele>80.0</ele><time>2026-05-03T07:36:07.07Z</time></trkpt><trkpt lat="46.0285341" lon="13.4751547"><ele>80.0</ele><time>2026-05-03T07:36:08.069Z</time></trkpt><trkpt lat="46.028487" lon="13.4750726"><ele>80.0</ele><time>2026-05-03T07:36:09.064Z</time></trkpt><trkpt lat="46.0284735" lon="13.4749789"><ele>80.0</ele><time>2026-05-03T07:36:10.066Z</time></trkpt><trkpt lat="46.028488" lon="13.4748712"><ele>80.0</ele><time>2026-05-03T07:36:11.068Z</time></trkpt><trkpt lat="46.0285244" lon="13.4747468"><ele>80.0</ele><time>2026-05-03T07:36:12.075Z</time></trkpt><trkpt lat="46.0285631" lon="13.474594"><ele>80.0</ele><time>2026-05-03T07:36:13.065Z</time></trkpt><trkpt lat="46.0286118" lon="13.4744286"><ele>80.0</ele><time>2026-05-03T07:36:14.064Z</time></trkpt><trkpt lat="46.0286587" lon="13.4742455"><ele>81.0</ele><time>2026-05-03T07:36:15.066Z</time></trkpt><trkpt lat="46.0287029" lon="13.4740578"><ele>82.0</ele><time>2026-05-03T07:36:16.071Z</time></trkpt><trkpt lat="46.0287449" lon="13.4738594"><ele>83.0</ele><time>2026-05-03T07:36:17.064Z</time></trkpt><trkpt lat="46.0287829" lon="13.4736564"><ele>84.0</ele><time>2026-05-03T07:36:18.066Z</time></trkpt><trkpt lat="46.0288118" lon="13.4734559"><ele>85.5</ele><time>2026-05-03T07:36:19.072Z</time></trkpt><trkpt lat="46.0288259" lon="13.4732784"><ele>87.0</ele><time>2026-05-03T07:36:20.062Z</time></trkpt><trkpt lat="46.0288073" lon="13.4731253"><ele>88.5</ele><time>2026-05-03T07:36:21.075Z</time></trkpt><trkpt lat="46.0287447" lon="13.4729705"><ele>90.0</ele><time>2026-05-03T07:36:22.07Z</time></trkpt><trkpt lat="46.0286651" lon="13.4727854"><ele>90.0</ele><time>2026-05-03T07:36:23.062Z</time></trkpt><trkpt lat="46.0285968" lon="13.4726151"><ele>90.0</ele><time>2026-05-03T07:36:24.064Z</time></trkpt><trkpt lat="46.0285379" lon="13.4724411"><ele>90.0</ele><time>2026-05-03T07:36:25.064Z</time></trkpt><trkpt lat="46.0284832" lon="13.4722607"><ele>90.0</ele><time>2026-05-03T07:36:26.068Z</time></trkpt><trkpt lat="46.0284654" lon="13.4720633"><ele>90.75</ele><time>2026-05-03T07:36:27.073Z</time></trkpt><trkpt lat="46.0284835" lon="13.4718651"><ele>91.5</ele><time>2026-05-03T07:36:28.062Z</time></trkpt><trkpt lat="46.0284986" lon="13.4716805"><ele>92.25</ele><time>2026-05-03T07:36:29.068Z</time></trkpt><trkpt lat="46.028497" lon="13.4714928"><ele>93.0</ele><time>2026-05-03T07:36:30.072Z</time></trkpt><trkpt lat="46.0284806" lon="13.4713016"><ele>93.75</ele><time>2026-05-03T07:36:31.065Z</time></trkpt><trkpt lat="46.0284343" lon="13.4711096"><ele>94.5</ele><time>2026-05-03T07:36:32.067Z</time></trkpt><trkpt lat="46.0283806" lon="13.4709148"><ele>95.25</ele><time>2026-05-03T07:36:33.068Z</time></trkpt><trkpt lat="46.028326" lon="13.47073"><ele>96.0</ele><time>2026-05-03T07:36:34.068Z</time></trkpt><trkpt lat="46.0282668" lon="13.4705453"><ele>97.25</ele><time>2026-05-03T07:36:35.069Z</time></trkpt><trkpt lat="46.0282167" lon="13.4703602"><ele>98.5</ele><time>2026-05-03T07:36:36.063Z</time></trkpt><trkpt lat="46.0281835" lon="13.4701746"><ele>99.75</ele><time>2026-05-03T07:36:37.073Z</time></trkpt><trkpt lat="46.0281472" lon="13.4699932"><ele>101.0</ele><time>2026-05-03T07:36:38.066Z</time></trkpt><trkpt lat="46.0280929" lon="13.4698153"><ele>101.0</ele><time>2026-05-03T07:36:39.065Z</time></trkpt><trkpt lat="46.0280154" lon="13.4696562"><ele>101.0</ele><time>2026-05-03T07:36:40.067Z</time></trkpt><trkpt lat="46.027921" lon="13.4695011"><ele>101.0</ele><time>2026-05-03T07:36:41.075Z</time></trkpt><trkpt lat="46.0278124" lon="13.4693703"><ele>101.0</ele><time>2026-05-03T07:36:42.068Z</time></trkpt><trkpt lat="46.0276798" lon="13.4692838"><ele>103.66666666666666</ele><time>2026-05-03T07:36:43.072Z</time></trkpt><trkpt lat="46.0275326" lon="13.4692265"><ele>106.33333333333334</ele><time>2026-05-03T07:36:44.069Z</time></trkpt><trkpt lat="46.0273855" lon="13.4691672"><ele>109.0</ele><time>2026-05-03T07:36:45.058Z</time></trkpt><trkpt lat="46.0272376" lon="13.4691113"><ele>109.0</ele><time>2026-05-03T07:36:46.067Z</time></trkpt><trkpt lat="46.0270953" lon="13.4690561"><ele>109.0</ele><time>2026-05-03T07:36:47.064Z</time></trkpt><trkpt lat="46.0269637" lon="13.4690118"><ele>109.0</ele><time>2026-05-03T07:36:48.065Z</time></trkpt><trkpt lat="46.0268365" lon="13.4689788"><ele>109.0</ele><time>2026-05-03T07:36:49.065Z</time></trkpt><trkpt lat="46.0267036" lon="13.4689346"><ele>109.75</ele><time>2026-05-03T07:36:50.068Z</time></trkpt><trkpt lat="46.0265891" lon="13.468867"><ele>110.5</ele><time>2026-05-03T07:36:51.068Z</time></trkpt><trkpt lat="46.026486" lon="13.4687785"><ele>111.25</ele><time>2026-05-03T07:36:52.069Z</time></trkpt><trkpt lat="46.0263922" lon="13.4686693"><ele>112.0</ele><time>2026-05-03T07:36:53.064Z</time></trkpt><trkpt lat="46.0262955" lon="13.4685512"><ele>112.0</ele><time>2026-05-03T07:36:54.066Z</time></trkpt><trkpt lat="46.0261915" lon="13.4684489"><ele>111.99999999999999</ele><time>2026-05-03T07:36:55.068Z</time></trkpt><trkpt lat="46.0260868" lon="13.468373"><ele>111.99999999999999</ele><time>2026-05-03T07:36:56.062Z</time></trkpt><trkpt lat="46.0259995" lon="13.4683068"><ele>112.0</ele><time>2026-05-03T07:36:57.072Z</time></trkpt><trkpt lat="46.0259357" lon="13.4682228"><ele>112.0</ele><time>2026-05-03T07:36:58.067Z</time></trkpt><trkpt lat="46.0258994" lon="13.4681195"><ele>112.0</ele><time>2026-05-03T07:36:59.065Z</time></trkpt><trkpt lat="46.0259044" lon="13.4680107"><ele>111.99999999999999</ele><time>2026-05-03T07:37:00.067Z</time></trkpt><trkpt lat="46.0259403" lon="13.4679013"><ele>111.99999999999999</ele><time>2026-05-03T07:37:01.064Z</time></trkpt><trkpt lat="46.026009" lon="13.4677923"><ele>112.0</ele><time>2026-05-03T07:37:02.064Z</time></trkpt><trkpt lat="46.0261029" lon="13.46768"><ele>112.0</ele><time>2026-05-03T07:37:03.063Z</time></trkpt><trkpt lat="46.0261984" lon="13.4675688"><ele>112.83333333333334</ele><time>2026-05-03T07:37:04.065Z</time></trkpt><trkpt lat="46.0262884" lon="13.4674645"><ele>113.66666666666667</ele><time>2026-05-03T07:37:05.064Z</time></trkpt><trkpt lat="46.0263681" lon="13.4673839"><ele>114.5</ele><time>2026-05-03T07:37:06.07Z</time></trkpt><trkpt lat="46.0264345" lon="13.4673169"><ele>115.33333333333334</ele><time>2026-05-03T07:37:07.063Z</time></trkpt><trkpt lat="46.0265022" lon="13.4672578"><ele>116.16666666666667</ele><time>2026-05-03T07:37:08.066Z</time></trkpt><trkpt lat="46.0265651" lon="13.4671985"><ele>117.0</ele><time>2026-05-03T07:37:09.066Z</time></trkpt><trkpt lat="46.0266159" lon="13.4671372"><ele>117.0</ele><time>2026-05-03T07:37:10.074Z</time></trkpt><trkpt lat="46.0266513" lon="13.4669894"><ele>117.0</ele><time>2026-05-03T07:37:12.065Z</time></trkpt><trkpt lat="46.0265773" lon="13.4669143"><ele>117.0</ele><time>2026-05-03T07:37:14.066Z</time></trkpt><trkpt lat="46.0265205" lon="13.4669884"><ele>117.0</ele><time>2026-05-03T07:37:16.066Z</time></trkpt><trkpt lat="46.0265433" lon="13.4671009"><ele>117.0</ele><time>2026-05-03T07:37:18.072Z</time></trkpt><trkpt lat="46.0265379" lon="13.4672006"><ele>117.0</ele><time>2026-05-03T07:37:20.069Z</time></trkpt><trkpt lat="46.0264868" lon="13.4672799"><ele>117.0</ele><time>2026-05-03T07:37:22.066Z</time></trkpt><trkpt lat="46.026435" lon="13.467336"><ele>117.0</ele><time>2026-05-03T07:37:24.067Z</time></trkpt><trkpt lat="46.0263722" lon="13.4674154"><ele>117.0</ele><time>2026-05-03T07:37:26.067Z</time></trkpt><trkpt lat="46.0263191" lon="13.4674808"><ele>117.0</ele><time>2026-05-03T07:37:27.07Z</time></trkpt><trkpt lat="46.0262488" lon="13.4675606"><ele>117.0</ele><time>2026-05-03T07:37:28.071Z</time></trkpt><trkpt lat="46.0261716" lon="13.4676453"><ele>117.0</ele><time>2026-05-03T07:37:29.065Z</time></trkpt><trkpt lat="46.0261011" lon="13.4677382"><ele>117.0</ele><time>2026-05-03T07:37:30.07Z</time></trkpt><trkpt lat="46.0260371" lon="13.4678327"><ele>117.0</ele><time>2026-05-03T07:37:31.071Z</time></trkpt><trkpt lat="46.0259882" lon="13.4679195"><ele>117.0</ele><time>2026-05-03T07:37:32.061Z</time></trkpt><trkpt lat="46.0259481" lon="13.4679903"><ele>117.0</ele><time>2026-05-03T07:37:33.067Z</time></trkpt><trkpt lat="46.0258666" lon="13.4680171"><ele>117.0</ele><time>2026-05-03T07:37:35.067Z</time></trkpt><trkpt lat="46.0257994" lon="13.4680044"><ele>117.0</ele><time>2026-05-03T07:37:36.064Z</time></trkpt><trkpt lat="46.0257271" lon="13.4679868"><ele>115.5</ele><time>2026-05-03T07:37:37.064Z</time></trkpt><trkpt lat="46.0256546" lon="13.4679671"><ele>114.0</ele><time>2026-05-03T07:37:38.069Z</time></trkpt><trkpt lat="46.025587" lon="13.4679441"><ele>112.5</ele><time>2026-05-03T07:37:39.061Z</time></trkpt><trkpt lat="46.0255145" lon="13.467933"><ele>111.0</ele><time>2026-05-03T07:37:40.07Z</time></trkpt><trkpt lat="46.0254362" lon="13.4679434"><ele>109.5</ele><time>2026-05-03T07:37:41.067Z</time></trkpt><trkpt lat="46.0253451" lon="13.4679786"><ele>108.0</ele><time>2026-05-03T07:37:42.069Z</time></trkpt><trkpt lat="46.0252447" lon="13.4680387"><ele>108.0</ele><time>2026-05-03T07:37:43.065Z</time></trkpt><trkpt lat="46.0251638" lon="13.4681159"><ele>108.0</ele><time>2026-05-03T07:37:44.067Z</time></trkpt><trkpt lat="46.0250922" lon="13.4682062"><ele>108.0</ele><time>2026-05-03T07:37:45.065Z</time></trkpt><trkpt lat="46.0250416" lon="13.4683167"><ele>108.0</ele><time>2026-05-03T07:37:46.079Z</time></trkpt><trkpt lat="46.0250221" lon="13.4684287"><ele>108.0</ele><time>2026-05-03T07:37:47.063Z</time></trkpt><trkpt lat="46.0250381" lon="13.4685257"><ele>108.0</ele><time>2026-05-03T07:37:48.067Z</time></trkpt><trkpt lat="46.0250868" lon="13.4686087"><ele>108.0</ele><time>2026-05-03T07:37:49.062Z</time></trkpt><trkpt lat="46.0251529" lon="13.4686904"><ele>108.0</ele><time>2026-05-03T07:37:50.064Z</time></trkpt><trkpt lat="46.0252134" lon="13.4687633"><ele>108.0</ele><time>2026-05-03T07:37:51.059Z</time></trkpt><trkpt lat="46.0252594" lon="13.4688307"><ele>108.0</ele><time>2026-05-03T07:37:52.068Z</time></trkpt><trkpt lat="46.0252573" lon="13.4689578"><ele>108.0</ele><time>2026-05-03T07:37:54.065Z</time></trkpt><trkpt lat="46.0252375" lon="13.4690535"><ele>108.0</ele><time>2026-05-03T07:37:56.066Z</time></trkpt><trkpt lat="46.0251748" lon="13.469199"><ele>107.4</ele><time>2026-05-03T07:37:58.067Z</time></trkpt><trkpt lat="46.0251105" lon="13.4692964"><ele>106.80000000000001</ele><time>2026-05-03T07:37:59.072Z</time></trkpt><trkpt lat="46.0250236" lon="13.4693954"><ele>106.2</ele><time>2026-05-03T07:38:00.065Z</time></trkpt><trkpt lat="46.0249208" lon="13.4694835"><ele>105.6</ele><time>2026-05-03T07:38:01.069Z</time></trkpt><trkpt lat="46.0248239" lon="13.4695418"><ele>105.0</ele><time>2026-05-03T07:38:02.07Z</time></trkpt><trkpt lat="46.0247362" lon="13.4695724"><ele>103.5</ele><time>2026-05-03T07:38:03.071Z</time></trkpt><trkpt lat="46.0246608" lon="13.4695895"><ele>102.0</ele><time>2026-05-03T07:38:04.063Z</time></trkpt><trkpt lat="46.024592" lon="13.4696121"><ele>100.5</ele><time>2026-05-03T07:38:05.071Z</time></trkpt><trkpt lat="46.0244791" lon="13.4696568"><ele>99.0</ele><time>2026-05-03T07:38:07.065Z</time></trkpt><trkpt lat="46.0244109" lon="13.469696"><ele>97.5</ele><time>2026-05-03T07:38:09.07Z</time></trkpt><trkpt lat="46.0244787" lon="13.4696758"><ele>96.0</ele><time>2026-05-03T07:38:14.066Z</time></trkpt><trkpt lat="46.0246335" lon="13.469592"><ele>96.0</ele><time>2026-05-03T07:38:16.062Z</time></trkpt><trkpt lat="46.0248028" lon="13.4695346"><ele>96.0</ele><time>2026-05-03T07:38:17.069Z</time></trkpt><trkpt lat="46.0249616" lon="13.4694513"><ele>96.0</ele><time>2026-05-03T07:38:18.067Z</time></trkpt><trkpt lat="46.0250637" lon="13.4693622"><ele>97.8</ele><time>2026-05-03T07:38:19.063Z</time></trkpt><trkpt lat="46.0251337" lon="13.4692721"><ele>99.6</ele><time>2026-05-03T07:38:20.069Z</time></trkpt><trkpt lat="46.0251804" lon="13.4691958"><ele>101.4</ele><time>2026-05-03T07:38:21.064Z</time></trkpt><trkpt lat="46.0252285" lon="13.4690522"><ele>103.2</ele><time>2026-05-03T07:38:23.063Z</time></trkpt><trkpt lat="46.0252505" lon="13.4689625"><ele>105.0</ele><time>2026-05-03T07:38:25.067Z</time></trkpt><trkpt lat="46.0251318" lon="13.4689751"><ele>105.0</ele><time>2026-05-03T07:38:31.062Z</time></trkpt><trkpt lat="46.0250652" lon="13.4689941"><ele>105.0</ele><time>2026-05-03T07:38:32.071Z</time></trkpt><trkpt lat="46.0250017" lon="13.4690145"><ele>105.0</ele><time>2026-05-03T07:38:33.071Z</time></trkpt><trkpt lat="46.0248914" lon="13.4690332"><ele>105.0</ele><time>2026-05-03T07:38:35.058Z</time></trkpt><trkpt lat="46.0247951" lon="13.4689964"><ele>105.0</ele><time>2026-05-03T07:38:37.062Z</time></trkpt><trkpt lat="46.024742" lon="13.4689471"><ele>105.0</ele><time>2026-05-03T07:38:38.065Z</time></trkpt><trkpt lat="46.0246845" lon="13.4688857"><ele>103.6</ele><time>2026-05-03T07:38:39.071Z</time></trkpt><trkpt lat="46.0246228" lon="13.4688245"><ele>102.2</ele><time>2026-05-03T07:38:40.065Z</time></trkpt><trkpt lat="46.0245449" lon="13.4687734"><ele>100.80000000000001</ele><time>2026-05-03T07:38:41.065Z</time></trkpt><trkpt lat="46.024458" lon="13.4687114"><ele>99.4</ele><time>2026-05-03T07:38:42.079Z</time></trkpt><trkpt lat="46.0243674" lon="13.4686311"><ele>98.0</ele><time>2026-05-03T07:38:43.066Z</time></trkpt><trkpt lat="46.0242792" lon="13.4685522"><ele>98.0</ele><time>2026-05-03T07:38:44.07Z</time></trkpt><trkpt lat="46.0241913" lon="13.4684815"><ele>98.0</ele><time>2026-05-03T07:38:45.062Z</time></trkpt><trkpt lat="46.0241031" lon="13.4684284"><ele>98.0</ele><time>2026-05-03T07:38:46.059Z</time></trkpt><trkpt lat="46.0240184" lon="13.4683788"><ele>98.0</ele><time>2026-05-03T07:38:47.062Z</time></trkpt><trkpt lat="46.0239324" lon="13.4683263"><ele>98.0</ele><time>2026-05-03T07:38:48.063Z</time></trkpt><trkpt lat="46.0238529" lon="13.4682708"><ele>97.16666666666666</ele><time>2026-05-03T07:38:49.062Z</time></trkpt><trkpt lat="46.0237778" lon="13.4682027"><ele>96.33333333333333</ele><time>2026-05-03T07:38:50.063Z</time></trkpt><trkpt lat="46.0237081" lon="13.4681228"><ele>95.5</ele><time>2026-05-03T07:38:51.067Z</time></trkpt><trkpt lat="46.0236386" lon="13.4680406"><ele>94.66666666666666</ele><time>2026-05-03T07:38:52.066Z</time></trkpt><trkpt lat="46.0235701" lon="13.4679679"><ele>93.83333333333333</ele><time>2026-05-03T07:38:53.067Z</time></trkpt><trkpt lat="46.0234999" lon="13.4679136"><ele>93.0</ele><time>2026-05-03T07:38:54.063Z</time></trkpt><trkpt lat="46.0234318" lon="13.4678935"><ele>93.0</ele><time>2026-05-03T07:38:55.063Z</time></trkpt><trkpt lat="46.0233648" lon="13.4679117"><ele>93.0</ele><time>2026-05-03T07:38:56.062Z</time></trkpt><trkpt lat="46.0232947" lon="13.4679613"><ele>93.0</ele><time>2026-05-03T07:38:57.063Z</time></trkpt><trkpt lat="46.0232202" lon="13.4680341"><ele>93.0</ele><time>2026-05-03T07:38:58.058Z</time></trkpt><trkpt lat="46.0231434" lon="13.4681196"><ele>93.0</ele><time>2026-05-03T07:38:59.064Z</time></trkpt><trkpt lat="46.0230737" lon="13.4682025"><ele>93.0</ele><time>2026-05-03T07:39:00.059Z</time></trkpt><trkpt lat="46.0230092" lon="13.4682896"><ele>92.4</ele><time>2026-05-03T07:39:01.06Z</time></trkpt><trkpt lat="46.022937" lon="13.4683835"><ele>91.80000000000001</ele><time>2026-05-03T07:39:02.055Z</time></trkpt><trkpt lat="46.0228596" lon="13.4684732"><ele>91.2</ele><time>2026-05-03T07:39:03.06Z</time></trkpt><trkpt lat="46.0227789" lon="13.4685515"><ele>90.6</ele><time>2026-05-03T07:39:04.061Z</time></trkpt><trkpt lat="46.0226896" lon="13.4686132"><ele>90.0</ele><time>2026-05-03T07:39:05.064Z</time></trkpt><trkpt lat="46.0225835" lon="13.4686614"><ele>90.0</ele><time>2026-05-03T07:39:06.063Z</time></trkpt><trkpt lat="46.0224688" lon="13.468704"><ele>90.0</ele><time>2026-05-03T07:39:07.06Z</time></trkpt><trkpt lat="46.0223485" lon="13.4687412"><ele>90.0</ele><time>2026-05-03T07:39:08.069Z</time></trkpt><trkpt lat="46.0222322" lon="13.4687854"><ele>90.0</ele><time>2026-05-03T07:39:09.065Z</time></trkpt><trkpt lat="46.0221159" lon="13.4688342"><ele>88.75</ele><time>2026-05-03T07:39:10.073Z</time></trkpt><trkpt lat="46.0220046" lon="13.4688768"><ele>87.5</ele><time>2026-05-03T07:39:11.065Z</time></trkpt><trkpt lat="46.0218911" lon="13.4689048"><ele>86.25</ele><time>2026-05-03T07:39:12.065Z</time></trkpt><trkpt lat="46.0217681" lon="13.4689089"><ele>85.0</ele><time>2026-05-03T07:39:13.058Z</time></trkpt><trkpt lat="46.0216402" lon="13.4689015"><ele>84.75</ele><time>2026-05-03T07:39:14.07Z</time></trkpt><trkpt lat="46.0215119" lon="13.4689022"><ele>84.5</ele><time>2026-05-03T07:39:15.068Z</time></trkpt><trkpt lat="46.0213848" lon="13.4689207"><ele>84.25</ele><time>2026-05-03T07:39:16.063Z</time></trkpt><trkpt lat="46.0212561" lon="13.4689523"><ele>84.0</ele><time>2026-05-03T07:39:17.067Z</time></trkpt><trkpt lat="46.021133" lon="13.4689817"><ele>84.0</ele><time>2026-05-03T07:39:18.063Z</time></trkpt><trkpt lat="46.02102" lon="13.4690135"><ele>84.0</ele><time>2026-05-03T07:39:19.064Z</time></trkpt><trkpt lat="46.0209166" lon="13.4690523"><ele>84.0</ele><time>2026-05-03T07:39:20.065Z</time></trkpt><trkpt lat="46.020819" lon="13.4690825"><ele>84.0</ele><time>2026-05-03T07:39:21.06Z</time></trkpt><trkpt lat="46.0207403" lon="13.4690715"><ele>84.0</ele><time>2026-05-03T07:39:22.064Z</time></trkpt><trkpt lat="46.0206723" lon="13.4690259"><ele>84.25</ele><time>2026-05-03T07:39:23.074Z</time></trkpt><trkpt lat="46.0205817" lon="13.4689452"><ele>84.5</ele><time>2026-05-03T07:39:24.064Z</time></trkpt><trkpt lat="46.0204712" lon="13.4688467"><ele>84.75</ele><time>2026-05-03T07:39:25.065Z</time></trkpt><trkpt lat="46.0203417" lon="13.4687437"><ele>85.0</ele><time>2026-05-03T07:39:26.069Z</time></trkpt><trkpt lat="46.0202086" lon="13.4686306"><ele>85.33333333333333</ele><time>2026-05-03T07:39:27.062Z</time></trkpt><trkpt lat="46.0200709" lon="13.468509"><ele>85.66666666666667</ele><time>2026-05-03T07:39:28.065Z</time></trkpt><trkpt lat="46.0199395" lon="13.4683952"><ele>86.0</ele><time>2026-05-03T07:39:29.069Z</time></trkpt><trkpt lat="46.0198136" lon="13.4683045"><ele>86.0</ele><time>2026-05-03T07:39:30.067Z</time></trkpt><trkpt lat="46.019702" lon="13.4682129"><ele>86.0</ele><time>2026-05-03T07:39:31.066Z</time></trkpt><trkpt lat="46.0195965" lon="13.4681397"><ele>86.0</ele><time>2026-05-03T07:39:32.064Z</time></trkpt><trkpt lat="46.0194956" lon="13.4680792"><ele>86.0</ele><time>2026-05-03T07:39:33.066Z</time></trkpt><trkpt lat="46.0193834" lon="13.4680107"><ele>86.25</ele><time>2026-05-03T07:39:34.067Z</time></trkpt><trkpt lat="46.0192626" lon="13.4679209"><ele>86.5</ele><time>2026-05-03T07:39:35.072Z</time></trkpt><trkpt lat="46.019151" lon="13.4678327"><ele>86.75</ele><time>2026-05-03T07:39:36.061Z</time></trkpt><trkpt lat="46.0190465" lon="13.4677473"><ele>87.0</ele><time>2026-05-03T07:39:37.058Z</time></trkpt><trkpt lat="46.0189433" lon="13.4676708"><ele>86.5</ele><time>2026-05-03T07:39:38.07Z</time></trkpt><trkpt lat="46.018832" lon="13.4675971"><ele>86.0</ele><time>2026-05-03T07:39:39.067Z</time></trkpt><trkpt lat="46.0187138" lon="13.4675273"><ele>85.5</ele><time>2026-05-03T07:39:40.063Z</time></trkpt><trkpt lat="46.0185918" lon="13.4674679"><ele>85.0</ele><time>2026-05-03T07:39:41.073Z</time></trkpt><trkpt lat="46.0184728" lon="13.4674222"><ele>85.0</ele><time>2026-05-03T07:39:42.073Z</time></trkpt><trkpt lat="46.0183507" lon="13.4673813"><ele>85.0</ele><time>2026-05-03T07:39:43.068Z</time></trkpt><trkpt lat="46.018237" lon="13.4673523"><ele>85.0</ele><time>2026-05-03T07:39:44.071Z</time></trkpt><trkpt lat="46.0181266" lon="13.4673348"><ele>85.0</ele><time>2026-05-03T07:39:45.067Z</time></trkpt><trkpt lat="46.0180086" lon="13.4673333"><ele>84.25</ele><time>2026-05-03T07:39:46.07Z</time></trkpt><trkpt lat="46.0178824" lon="13.4673412"><ele>83.5</ele><time>2026-05-03T07:39:47.066Z</time></trkpt><trkpt lat="46.0177528" lon="13.467353"><ele>82.75</ele><time>2026-05-03T07:39:48.067Z</time></trkpt><trkpt lat="46.017636" lon="13.4673667"><ele>82.0</ele><time>2026-05-03T07:39:49.063Z</time></trkpt><trkpt lat="46.0175398" lon="13.4673798"><ele>81.66666666666666</ele><time>2026-05-03T07:39:50.076Z</time></trkpt><trkpt lat="46.0174747" lon="13.4673943"><ele>81.33333333333333</ele><time>2026-05-03T07:39:51.065Z</time></trkpt><trkpt lat="46.0174157" lon="13.4674469"><ele>81.0</ele><time>2026-05-03T07:39:53.065Z</time></trkpt><trkpt lat="46.0173895" lon="13.4676068"><ele>80.66666666666667</ele><time>2026-05-03T07:39:55.062Z</time></trkpt><trkpt lat="46.0173773" lon="13.4677112"><ele>80.33333333333334</ele><time>2026-05-03T07:39:56.067Z</time></trkpt><trkpt lat="46.0173641" lon="13.4678225"><ele>80.0</ele><time>2026-05-03T07:39:57.077Z</time></trkpt><trkpt lat="46.017353" lon="13.4679373"><ele>80.2</ele><time>2026-05-03T07:39:58.063Z</time></trkpt><trkpt lat="46.0173402" lon="13.468044"><ele>80.4</ele><time>2026-05-03T07:39:59.063Z</time></trkpt><trkpt lat="46.0173351" lon="13.4681468"><ele>80.6</ele><time>2026-05-03T07:40:00.064Z</time></trkpt><trkpt lat="46.017366" lon="13.4683049"><ele>80.8</ele><time>2026-05-03T07:40:02.064Z</time></trkpt><trkpt lat="46.0174741" lon="13.4683733"><ele>81.0</ele><time>2026-05-03T07:40:04.068Z</time></trkpt><trkpt lat="46.0175515" lon="13.4683858"><ele>81.0</ele><time>2026-05-03T07:40:05.069Z</time></trkpt><trkpt lat="46.0176339" lon="13.4683929"><ele>81.0</ele><time>2026-05-03T07:40:06.063Z</time></trkpt><trkpt lat="46.0177173" lon="13.4684083"><ele>81.0</ele><time>2026-05-03T07:40:07.064Z</time></trkpt><trkpt lat="46.0177859" lon="13.4684466"><ele>81.0</ele><time>2026-05-03T07:40:08.068Z</time></trkpt><trkpt lat="46.0178443" lon="13.4685207"><ele>81.0</ele><time>2026-05-03T07:40:09.07Z</time></trkpt><trkpt lat="46.017903" lon="13.4686283"><ele>81.0</ele><time>2026-05-03T07:40:10.07Z</time></trkpt><trkpt lat="46.0179777" lon="13.4687393"><ele>80.0</ele><time>2026-05-03T07:40:11.063Z</time></trkpt><trkpt lat="46.0180354" lon="13.4688747"><ele>79.0</ele><time>2026-05-03T07:40:12.066Z</time></trkpt><trkpt lat="46.0180684" lon="13.4690137"><ele>78.0</ele><time>2026-05-03T07:40:13.063Z</time></trkpt><trkpt lat="46.0180657" lon="13.4691531"><ele>77.0</ele><time>2026-05-03T07:40:14.072Z</time></trkpt><trkpt lat="46.0180333" lon="13.4692769"><ele>76.0</ele><time>2026-05-03T07:40:15.077Z</time></trkpt><trkpt lat="46.017983" lon="13.4693742"><ele>76.0</ele><time>2026-05-03T07:40:16.063Z</time></trkpt><trkpt lat="46.0179296" lon="13.4694408"><ele>76.0</ele><time>2026-05-03T07:40:17.068Z</time></trkpt><trkpt lat="46.0178738" lon="13.4694851"><ele>76.0</ele><time>2026-05-03T07:40:18.064Z</time></trkpt><trkpt lat="46.0177548" lon="13.4695039"><ele>76.0</ele><time>2026-05-03T07:40:20.066Z</time></trkpt><trkpt lat="46.0176874" lon="13.4694782"><ele>76.0</ele><time>2026-05-03T07:40:21.068Z</time></trkpt><trkpt lat="46.0176128" lon="13.4694371"><ele>76.0</ele><time>2026-05-03T07:40:22.061Z</time></trkpt><trkpt lat="46.0175214" lon="13.4693901"><ele>75.75</ele><time>2026-05-03T07:40:23.07Z</time></trkpt><trkpt lat="46.0174208" lon="13.4693385"><ele>75.5</ele><time>2026-05-03T07:40:24.067Z</time></trkpt><trkpt lat="46.0173131" lon="13.4692811"><ele>75.25</ele><time>2026-05-03T07:40:25.07Z</time></trkpt><trkpt lat="46.0171991" lon="13.4692229"><ele>75.0</ele><time>2026-05-03T07:40:26.063Z</time></trkpt><trkpt lat="46.0170801" lon="13.469163"><ele>75.0</ele><time>2026-05-03T07:40:27.067Z</time></trkpt><trkpt lat="46.0169576" lon="13.469099"><ele>75.0</ele><time>2026-05-03T07:40:28.063Z</time></trkpt><trkpt lat="46.0168366" lon="13.4690328"><ele>75.0</ele><time>2026-05-03T07:40:29.064Z</time></trkpt><trkpt lat="46.0167116" lon="13.4689727"><ele>75.0</ele><time>2026-05-03T07:40:30.062Z</time></trkpt><trkpt lat="46.0165877" lon="13.4689188"><ele>74.75</ele><time>2026-05-03T07:40:31.067Z</time></trkpt><trkpt lat="46.0164617" lon="13.4688608"><ele>74.5</ele><time>2026-05-03T07:40:32.064Z</time></trkpt><trkpt lat="46.0163328" lon="13.468803"><ele>74.25</ele><time>2026-05-03T07:40:33.065Z</time></trkpt><trkpt lat="46.0161991" lon="13.4687372"><ele>74.0</ele><time>2026-05-03T07:40:34.066Z</time></trkpt><trkpt lat="46.016064" lon="13.4686569"><ele>73.75</ele><time>2026-05-03T07:40:35.067Z</time></trkpt><trkpt lat="46.0159293" lon="13.4685681"><ele>73.5</ele><time>2026-05-03T07:40:36.061Z</time></trkpt><trkpt lat="46.0158007" lon="13.4684718"><ele>73.25</ele><time>2026-05-03T07:40:37.064Z</time></trkpt><trkpt lat="46.0156747" lon="13.4683622"><ele>73.0</ele><time>2026-05-03T07:40:38.072Z</time></trkpt><trkpt lat="46.0155603" lon="13.468247"><ele>73.0</ele><time>2026-05-03T07:40:39.063Z</time></trkpt><trkpt lat="46.0154465" lon="13.4681257"><ele>73.0</ele><time>2026-05-03T07:40:40.065Z</time></trkpt><trkpt lat="46.0153354" lon="13.4680076"><ele>73.0</ele><time>2026-05-03T07:40:41.064Z</time></trkpt><trkpt lat="46.0152152" lon="13.4678859"><ele>73.0</ele><time>2026-05-03T07:40:42.067Z</time></trkpt><trkpt lat="46.0150893" lon="13.4677697"><ele>73.25</ele><time>2026-05-03T07:40:43.064Z</time></trkpt><trkpt lat="46.0149751" lon="13.4676472"><ele>73.5</ele><time>2026-05-03T07:40:44.07Z</time></trkpt><trkpt lat="46.0148542" lon="13.4675372"><ele>73.75</ele><time>2026-05-03T07:40:45.074Z</time></trkpt><trkpt lat="46.014719" lon="13.4674305"><ele>74.0</ele><time>2026-05-03T07:40:46.07Z</time></trkpt><trkpt lat="46.0145878" lon="13.4673341"><ele>74.0</ele><time>2026-05-03T07:40:47.075Z</time></trkpt><trkpt lat="46.0144594" lon="13.4672598"><ele>74.0</ele><time>2026-05-03T07:40:48.065Z</time></trkpt><trkpt lat="46.0143255" lon="13.4671884"><ele>74.0</ele><time>2026-05-03T07:40:49.081Z</time></trkpt><trkpt lat="46.0141883" lon="13.467129"><ele>74.0</ele><time>2026-05-03T07:40:50.07Z</time></trkpt><trkpt lat="46.0140537" lon="13.4670891"><ele>74.5</ele><time>2026-05-03T07:40:51.069Z</time></trkpt><trkpt lat="46.0139116" lon="13.4670455"><ele>75.0</ele><time>2026-05-03T07:40:52.07Z</time></trkpt><trkpt lat="46.013767" lon="13.46701"><ele>75.5</ele><time>2026-05-03T07:40:53.064Z</time></trkpt><trkpt lat="46.0136271" lon="13.4669815"><ele>76.0</ele><time>2026-05-03T07:40:54.079Z</time></trkpt><trkpt lat="46.013484" lon="13.4669477"><ele>76.0</ele><time>2026-05-03T07:40:55.067Z</time></trkpt><trkpt lat="46.0133323" lon="13.4669141"><ele>76.0</ele><time>2026-05-03T07:40:56.076Z</time></trkpt><trkpt lat="46.0131837" lon="13.4668826"><ele>76.0</ele><time>2026-05-03T07:40:57.064Z</time></trkpt><trkpt lat="46.0130415" lon="13.4668414"><ele>76.0</ele><time>2026-05-03T07:40:58.063Z</time></trkpt><trkpt lat="46.012906" lon="13.4668001"><ele>75.25</ele><time>2026-05-03T07:40:59.064Z</time></trkpt><trkpt lat="46.0127664" lon="13.4667492"><ele>74.5</ele><time>2026-05-03T07:41:00.064Z</time></trkpt><trkpt lat="46.0126323" lon="13.466673"><ele>73.75</ele><time>2026-05-03T07:41:01.065Z</time></trkpt><trkpt lat="46.0124954" lon="13.4665849"><ele>73.0</ele><time>2026-05-03T07:41:02.06Z</time></trkpt><trkpt lat="46.0123502" lon="13.4664906"><ele>72.66666666666666</ele><time>2026-05-03T07:41:03.062Z</time></trkpt><trkpt lat="46.0122077" lon="13.4663905"><ele>72.33333333333333</ele><time>2026-05-03T07:41:04.065Z</time></trkpt><trkpt lat="46.0120549" lon="13.4662935"><ele>72.0</ele><time>2026-05-03T07:41:05.065Z</time></trkpt><trkpt lat="46.0119044" lon="13.4661866"><ele>72.0</ele><time>2026-05-03T07:41:06.068Z</time></trkpt><trkpt lat="46.0117512" lon="13.4660895"><ele>72.0</ele><time>2026-05-03T07:41:07.079Z</time></trkpt><trkpt lat="46.0115917" lon="13.4659877"><ele>72.0</ele><time>2026-05-03T07:41:08.062Z</time></trkpt><trkpt lat="46.0114373" lon="13.4658879"><ele>71.66666666666667</ele><time>2026-05-03T07:41:09.067Z</time></trkpt><trkpt lat="46.0112777" lon="13.4657842"><ele>71.33333333333334</ele><time>2026-05-03T07:41:10.069Z</time></trkpt><trkpt lat="46.0111142" lon="13.4656779"><ele>71.0</ele><time>2026-05-03T07:41:11.064Z</time></trkpt><trkpt lat="46.0109447" lon="13.4655694"><ele>71.0</ele><time>2026-05-03T07:41:12.067Z</time></trkpt><trkpt lat="46.0107749" lon="13.4654532"><ele>71.0</ele><time>2026-05-03T07:41:13.07Z</time></trkpt><trkpt lat="46.0106019" lon="13.4653452"><ele>71.0</ele><time>2026-05-03T07:41:14.065Z</time></trkpt><trkpt lat="46.0104235" lon="13.4652237"><ele>70.66666666666667</ele><time>2026-05-03T07:41:15.068Z</time></trkpt><trkpt lat="46.0102456" lon="13.4651142"><ele>70.33333333333333</ele><time>2026-05-03T07:41:16.062Z</time></trkpt><trkpt lat="46.0100637" lon="13.4650022"><ele>70.0</ele><time>2026-05-03T07:41:17.069Z</time></trkpt><trkpt lat="46.0098828" lon="13.4648832"><ele>70.0</ele><time>2026-05-03T07:41:18.065Z</time></trkpt><trkpt lat="46.0097018" lon="13.4647707"><ele>70.0</ele><time>2026-05-03T07:41:19.063Z</time></trkpt><trkpt lat="46.0095249" lon="13.4646495"><ele>70.0</ele><time>2026-05-03T07:41:20.067Z</time></trkpt><trkpt lat="46.0093492" lon="13.4645252"><ele>69.66666666666666</ele><time>2026-05-03T07:41:21.065Z</time></trkpt><trkpt lat="46.0091689" lon="13.464403"><ele>69.33333333333333</ele><time>2026-05-03T07:41:22.064Z</time></trkpt><trkpt lat="46.0090015" lon="13.4642971"><ele>69.0</ele><time>2026-05-03T07:41:23.065Z</time></trkpt><trkpt lat="46.0088361" lon="13.4642091"><ele>69.0</ele><time>2026-05-03T07:41:24.076Z</time></trkpt><trkpt lat="46.0086673" lon="13.4641493"><ele>69.0</ele><time>2026-05-03T07:41:25.062Z</time></trkpt><trkpt lat="46.0084903" lon="13.4641284"><ele>69.0</ele><time>2026-05-03T07:41:26.066Z</time></trkpt><trkpt lat="46.0083223" lon="13.4641557"><ele>68.66666666666667</ele><time>2026-05-03T07:41:27.061Z</time></trkpt><trkpt lat="46.0081371" lon="13.4642205"><ele>68.33333333333334</ele><time>2026-05-03T07:41:28.069Z</time></trkpt><trkpt lat="46.007961" lon="13.4643086"><ele>68.0</ele><time>2026-05-03T07:41:29.068Z</time></trkpt><trkpt lat="46.0077985" lon="13.4644222"><ele>68.0</ele><time>2026-05-03T07:41:30.067Z</time></trkpt><trkpt lat="46.0076439" lon="13.4645628"><ele>68.0</ele><time>2026-05-03T07:41:31.067Z</time></trkpt><trkpt lat="46.0074779" lon="13.4647066"><ele>68.0</ele><time>2026-05-03T07:41:32.062Z</time></trkpt><trkpt lat="46.0073214" lon="13.4648369"><ele>69.33333333333334</ele><time>2026-05-03T07:41:33.064Z</time></trkpt><trkpt lat="46.0071665" lon="13.4649729"><ele>70.66666666666667</ele><time>2026-05-03T07:41:34.063Z</time></trkpt><trkpt lat="46.0070182" lon="13.4651063"><ele>72.0</ele><time>2026-05-03T07:41:35.059Z</time></trkpt><trkpt lat="46.0068651" lon="13.4652403"><ele>72.0</ele><time>2026-05-03T07:41:36.067Z</time></trkpt><trkpt lat="46.0067298" lon="13.4653757"><ele>72.0</ele><time>2026-05-03T07:41:37.069Z</time></trkpt><trkpt lat="46.0065963" lon="13.4654872"><ele>72.0</ele><time>2026-05-03T07:41:38.063Z</time></trkpt><trkpt lat="46.0064652" lon="13.4656098"><ele>71.5</ele><time>2026-05-03T07:41:39.062Z</time></trkpt><trkpt lat="46.0063348" lon="13.465734"><ele>71.0</ele><time>2026-05-03T07:41:40.067Z</time></trkpt><trkpt lat="46.0062245" lon="13.4658718"><ele>70.5</ele><time>2026-05-03T07:41:41.07Z</time></trkpt><trkpt lat="46.0061175" lon="13.4660012"><ele>70.0</ele><time>2026-05-03T07:41:42.067Z</time></trkpt><trkpt lat="46.0060194" lon="13.466141"><ele>71.5</ele><time>2026-05-03T07:41:43.068Z</time></trkpt><trkpt lat="46.0059181" lon="13.4662874"><ele>73.0</ele><time>2026-05-03T07:41:44.064Z</time></trkpt><trkpt lat="46.0058218" lon="13.466425"><ele>74.5</ele><time>2026-05-03T07:41:45.062Z</time></trkpt><trkpt lat="46.0057244" lon="13.4665492"><ele>76.0</ele><time>2026-05-03T07:41:46.063Z</time></trkpt><trkpt lat="46.0056272" lon="13.4666393"><ele>76.75</ele><time>2026-05-03T07:41:47.066Z</time></trkpt><trkpt lat="46.005515" lon="13.4666951"><ele>77.5</ele><time>2026-05-03T07:41:48.059Z</time></trkpt><trkpt lat="46.0053946" lon="13.4666983"><ele>78.25</ele><time>2026-05-03T07:41:49.065Z</time></trkpt><trkpt lat="46.005264" lon="13.4666854"><ele>79.0</ele><time>2026-05-03T07:41:50.064Z</time></trkpt><trkpt lat="46.0051222" lon="13.4666754"><ele>79.66666666666666</ele><time>2026-05-03T07:41:51.072Z</time></trkpt><trkpt lat="46.0049772" lon="13.4666702"><ele>80.33333333333333</ele><time>2026-05-03T07:41:52.066Z</time></trkpt><trkpt lat="46.0048191" lon="13.4666674"><ele>81.0</ele><time>2026-05-03T07:41:53.063Z</time></trkpt><trkpt lat="46.0046556" lon="13.4666577"><ele>81.0</ele><time>2026-05-03T07:41:54.07Z</time></trkpt><trkpt lat="46.004496" lon="13.46666"><ele>81.0</ele><time>2026-05-03T07:41:55.066Z</time></trkpt><trkpt lat="46.0043398" lon="13.4666605"><ele>81.0</ele><time>2026-05-03T07:41:56.067Z</time></trkpt><trkpt lat="46.0041795" lon="13.4666639"><ele>81.0</ele><time>2026-05-03T07:41:57.067Z</time></trkpt><trkpt lat="46.0040342" lon="13.4666927"><ele>81.0</ele><time>2026-05-03T07:41:58.066Z</time></trkpt><trkpt lat="46.0039107" lon="13.466771"><ele>81.0</ele><time>2026-05-03T07:41:59.064Z</time></trkpt><trkpt lat="46.0038053" lon="13.466885"><ele>81.0</ele><time>2026-05-03T07:42:00.07Z</time></trkpt><trkpt lat="46.003711" lon="13.4670459"><ele>80.0</ele><time>2026-05-03T07:42:01.079Z</time></trkpt><trkpt lat="46.0036339" lon="13.467231"><ele>79.0</ele><time>2026-05-03T07:42:02.064Z</time></trkpt><trkpt lat="46.0035744" lon="13.4674277"><ele>78.0</ele><time>2026-05-03T07:42:03.063Z</time></trkpt><trkpt lat="46.003522" lon="13.4676225"><ele>77.0</ele><time>2026-05-03T07:42:04.073Z</time></trkpt><trkpt lat="46.0034601" lon="13.4678114"><ele>75.33333333333334</ele><time>2026-05-03T07:42:05.069Z</time></trkpt><trkpt lat="46.0033626" lon="13.4679846"><ele>73.66666666666667</ele><time>2026-05-03T07:42:06.072Z</time></trkpt><trkpt lat="46.0032568" lon="13.4681482"><ele>72.0</ele><time>2026-05-03T07:42:07.067Z</time></trkpt><trkpt lat="46.003139" lon="13.4683114"><ele>72.0</ele><time>2026-05-03T07:42:08.061Z</time></trkpt><trkpt lat="46.0030254" lon="13.4684622"><ele>72.0</ele><time>2026-05-03T07:42:09.061Z</time></trkpt><trkpt lat="46.0029081" lon="13.4686032"><ele>72.0</ele><time>2026-05-03T07:42:10.065Z</time></trkpt><trkpt lat="46.0027882" lon="13.468731"><ele>71.33333333333333</ele><time>2026-05-03T07:42:11.064Z</time></trkpt><trkpt lat="46.002646" lon="13.4688303"><ele>70.66666666666666</ele><time>2026-05-03T07:42:12.07Z</time></trkpt><trkpt lat="46.0024884" lon="13.4689036"><ele>70.0</ele><time>2026-05-03T07:42:13.067Z</time></trkpt><trkpt lat="46.0023251" lon="13.4689818"><ele>70.0</ele><time>2026-05-03T07:42:14.066Z</time></trkpt><trkpt lat="46.0021687" lon="13.4690747"><ele>70.0</ele><time>2026-05-03T07:42:15.069Z</time></trkpt><trkpt lat="46.0020148" lon="13.4691563"><ele>70.0</ele><time>2026-05-03T07:42:16.07Z</time></trkpt><trkpt lat="46.0018498" lon="13.4692348"><ele>70.0</ele><time>2026-05-03T07:42:17.064Z</time></trkpt><trkpt lat="46.0016813" lon="13.4693163"><ele>70.0</ele><time>2026-05-03T07:42:18.064Z</time></trkpt><trkpt lat="46.0015139" lon="13.4693588"><ele>70.0</ele><time>2026-05-03T07:42:19.07Z</time></trkpt><trkpt lat="46.0013434" lon="13.4693733"><ele>70.0</ele><time>2026-05-03T07:42:20.068Z</time></trkpt><trkpt lat="46.0011716" lon="13.4693674"><ele>70.0</ele><time>2026-05-03T07:42:21.06Z</time></trkpt><trkpt lat="46.0010011" lon="13.4693407"><ele>70.0</ele><time>2026-05-03T07:42:22.063Z</time></trkpt><trkpt lat="46.0008285" lon="13.4693004"><ele>70.0</ele><time>2026-05-03T07:42:23.066Z</time></trkpt><trkpt lat="46.0006485" lon="13.4692306"><ele>70.0</ele><time>2026-05-03T07:42:24.063Z</time></trkpt><trkpt lat="46.0004704" lon="13.4691638"><ele>70.0</ele><time>2026-05-03T07:42:25.069Z</time></trkpt><trkpt lat="46.0002868" lon="13.4690974"><ele>70.0</ele><time>2026-05-03T07:42:26.068Z</time></trkpt><trkpt lat="46.0000982" lon="13.4690341"><ele>70.0</ele><time>2026-05-03T07:42:27.062Z</time></trkpt><trkpt lat="45.9999124" lon="13.4689595"><ele>70.0</ele><time>2026-05-03T07:42:28.062Z</time></trkpt><trkpt lat="45.9997242" lon="13.4688875"><ele>70.0</ele><time>2026-05-03T07:42:29.062Z</time></trkpt><trkpt lat="45.9995282" lon="13.4688237"><ele>70.0</ele><time>2026-05-03T07:42:30.07Z</time></trkpt><trkpt lat="45.999335" lon="13.4687583"><ele>70.0</ele><time>2026-05-03T07:42:31.069Z</time></trkpt><trkpt lat="45.9991394" lon="13.4686973"><ele>68.66666666666666</ele><time>2026-05-03T07:42:32.067Z</time></trkpt><trkpt lat="45.9989523" lon="13.4686292"><ele>67.33333333333333</ele><time>2026-05-03T07:42:33.063Z</time></trkpt><trkpt lat="45.998768" lon="13.4685737"><ele>66.0</ele><time>2026-05-03T07:42:34.069Z</time></trkpt><trkpt lat="45.9985793" lon="13.4685345"><ele>66.0</ele><time>2026-05-03T07:42:35.06Z</time></trkpt><trkpt lat="45.998391" lon="13.468534"><ele>66.0</ele><time>2026-05-03T07:42:36.063Z</time></trkpt><trkpt lat="45.9982039" lon="13.4685534"><ele>66.0</ele><time>2026-05-03T07:42:37.062Z</time></trkpt><trkpt lat="45.9980189" lon="13.4685999"><ele>66.0</ele><time>2026-05-03T07:42:38.07Z</time></trkpt><trkpt lat="45.9978333" lon="13.468653"><ele>66.0</ele><time>2026-05-03T07:42:39.062Z</time></trkpt><trkpt lat="45.9976513" lon="13.4687122"><ele>66.0</ele><time>2026-05-03T07:42:40.061Z</time></trkpt><trkpt lat="45.9974705" lon="13.4687551"><ele>66.0</ele><time>2026-05-03T07:42:41.063Z</time></trkpt><trkpt lat="45.9972885" lon="13.4687726"><ele>66.0</ele><time>2026-05-03T07:42:42.077Z</time></trkpt><trkpt lat="45.997111" lon="13.468749"><ele>66.0</ele><time>2026-05-03T07:42:43.063Z</time></trkpt><trkpt lat="45.9969307" lon="13.4687014"><ele>66.0</ele><time>2026-05-03T07:42:44.062Z</time></trkpt><trkpt lat="45.9967525" lon="13.4686606"><ele>66.0</ele><time>2026-05-03T07:42:45.069Z</time></trkpt><trkpt lat="45.9965777" lon="13.4686232"><ele>66.0</ele><time>2026-05-03T07:42:46.062Z</time></trkpt><trkpt lat="45.9964025" lon="13.4685838"><ele>66.33333333333333</ele><time>2026-05-03T07:42:47.068Z</time></trkpt><trkpt lat="45.9962224" lon="13.4685409"><ele>66.66666666666666</ele><time>2026-05-03T07:42:48.065Z</time></trkpt><trkpt lat="45.9960438" lon="13.4684938"><ele>67.0</ele><time>2026-05-03T07:42:49.068Z</time></trkpt><trkpt lat="45.9958624" lon="13.4684645"><ele>68.33333333333333</ele><time>2026-05-03T07:42:50.068Z</time></trkpt><trkpt lat="45.9956759" lon="13.4684403"><ele>69.66666666666667</ele><time>2026-05-03T07:42:51.065Z</time></trkpt><trkpt lat="45.9954908" lon="13.468413"><ele>71.0</ele><time>2026-05-03T07:42:52.072Z</time></trkpt><trkpt lat="45.9953083" lon="13.4683826"><ele>71.0</ele><time>2026-05-03T07:42:53.071Z</time></trkpt><trkpt lat="45.9951323" lon="13.4683393"><ele>71.0</ele><time>2026-05-03T07:42:54.062Z</time></trkpt><trkpt lat="45.9949523" lon="13.4683042"><ele>71.0</ele><time>2026-05-03T07:42:55.069Z</time></trkpt><trkpt lat="45.9947638" lon="13.4682635"><ele>71.66666666666667</ele><time>2026-05-03T07:42:56.073Z</time></trkpt><trkpt lat="45.9945745" lon="13.4682225"><ele>72.33333333333333</ele><time>2026-05-03T07:42:57.063Z</time></trkpt><trkpt lat="45.9943832" lon="13.4681711"><ele>73.0</ele><time>2026-05-03T07:42:58.066Z</time></trkpt><trkpt lat="45.9941947" lon="13.468114"><ele>72.33333333333333</ele><time>2026-05-03T07:42:59.064Z</time></trkpt><trkpt lat="45.9939977" lon="13.4680647"><ele>71.66666666666667</ele><time>2026-05-03T07:43:00.065Z</time></trkpt><trkpt lat="45.9938032" lon="13.4680075"><ele>71.0</ele><time>2026-05-03T07:43:01.069Z</time></trkpt><trkpt lat="45.9936065" lon="13.4679629"><ele>69.33333333333334</ele><time>2026-05-03T07:43:02.069Z</time></trkpt><trkpt lat="45.9934129" lon="13.4679119"><ele>67.66666666666667</ele><time>2026-05-03T07:43:03.067Z</time></trkpt><trkpt lat="45.9932133" lon="13.4678561"><ele>66.0</ele><time>2026-05-03T07:43:04.065Z</time></trkpt><trkpt lat="45.9930256" lon="13.4678012"><ele>66.0</ele><time>2026-05-03T07:43:05.076Z</time></trkpt><trkpt lat="45.9928533" lon="13.4677502"><ele>66.0</ele><time>2026-05-03T07:43:06.07Z</time></trkpt><trkpt lat="45.9926943" lon="13.4676932"><ele>66.0</ele><time>2026-05-03T07:43:07.061Z</time></trkpt><trkpt lat="45.9925504" lon="13.4676435"><ele>65.75</ele><time>2026-05-03T07:43:08.063Z</time></trkpt><trkpt lat="45.9924215" lon="13.4675929"><ele>65.5</ele><time>2026-05-03T07:43:09.069Z</time></trkpt><trkpt lat="45.9922972" lon="13.4675505"><ele>65.25</ele><time>2026-05-03T07:43:10.066Z</time></trkpt><trkpt lat="45.9921865" lon="13.4675058"><ele>65.0</ele><time>2026-05-03T07:43:11.067Z</time></trkpt><trkpt lat="45.9920936" lon="13.4674637"><ele>65.0</ele><time>2026-05-03T07:43:12.069Z</time></trkpt><trkpt lat="45.9920141" lon="13.467402"><ele>65.0</ele><time>2026-05-03T07:43:13.061Z</time></trkpt><trkpt lat="45.9919477" lon="13.4672995"><ele>65.0</ele><time>2026-05-03T07:43:14.068Z</time></trkpt><trkpt lat="45.9919256" lon="13.4671758"><ele>65.0</ele><time>2026-05-03T07:43:15.06Z</time></trkpt><trkpt lat="45.9919342" lon="13.4670335"><ele>65.0</ele><time>2026-05-03T07:43:16.076Z</time></trkpt><trkpt lat="45.9919429" lon="13.4668906"><ele>64.5</ele><time>2026-05-03T07:43:17.062Z</time></trkpt><trkpt lat="45.9919546" lon="13.466732"><ele>64.0</ele><time>2026-05-03T07:43:18.064Z</time></trkpt><trkpt lat="45.9919623" lon="13.4665703"><ele>63.5</ele><time>2026-05-03T07:43:19.061Z</time></trkpt><trkpt lat="45.9919725" lon="13.4663917"><ele>63.0</ele><time>2026-05-03T07:43:20.064Z</time></trkpt><trkpt lat="45.9919907" lon="13.4661978"><ele>62.66666666666667</ele><time>2026-05-03T07:43:21.069Z</time></trkpt><trkpt lat="45.9920065" lon="13.4659859"><ele>62.333333333333336</ele><time>2026-05-03T07:43:22.068Z</time></trkpt><trkpt lat="45.9920334" lon="13.4657647"><ele>62.0</ele><time>2026-05-03T07:43:23.067Z</time></trkpt><trkpt lat="45.9920502" lon="13.4655535"><ele>62.0</ele><time>2026-05-03T07:43:24.061Z</time></trkpt><trkpt lat="45.9920509" lon="13.4653378"><ele>62.0</ele><time>2026-05-03T07:43:25.071Z</time></trkpt><trkpt lat="45.9920385" lon="13.4651355"><ele>62.0</ele><time>2026-05-03T07:43:26.067Z</time></trkpt><trkpt lat="45.9920104" lon="13.4649546"><ele>62.0</ele><time>2026-05-03T07:43:27.07Z</time></trkpt><trkpt lat="45.9919792" lon="13.4647684"><ele>62.75</ele><time>2026-05-03T07:43:28.067Z</time></trkpt><trkpt lat="45.9919457" lon="13.4645979"><ele>63.5</ele><time>2026-05-03T07:43:29.061Z</time></trkpt><trkpt lat="45.9919121" lon="13.4644256"><ele>64.25</ele><time>2026-05-03T07:43:30.063Z</time></trkpt><trkpt lat="45.9918798" lon="13.4642613"><ele>65.0</ele><time>2026-05-03T07:43:31.07Z</time></trkpt><trkpt lat="45.9918557" lon="13.4640984"><ele>65.0</ele><time>2026-05-03T07:43:32.064Z</time></trkpt><trkpt lat="45.9918277" lon="13.463943"><ele>65.0</ele><time>2026-05-03T07:43:33.062Z</time></trkpt><trkpt lat="45.991805" lon="13.4637924"><ele>65.0</ele><time>2026-05-03T07:43:34.067Z</time></trkpt><trkpt lat="45.991778" lon="13.4636401"><ele>65.0</ele><time>2026-05-03T07:43:35.067Z</time></trkpt><trkpt lat="45.9917498" lon="13.4634898"><ele>65.0</ele><time>2026-05-03T07:43:36.062Z</time></trkpt><trkpt lat="45.9917205" lon="13.4633389"><ele>65.2</ele><time>2026-05-03T07:43:37.072Z</time></trkpt><trkpt lat="45.9916953" lon="13.4631917"><ele>65.4</ele><time>2026-05-03T07:43:38.062Z</time></trkpt><trkpt lat="45.9916686" lon="13.4630537"><ele>65.6</ele><time>2026-05-03T07:43:39.065Z</time></trkpt><trkpt lat="45.9916467" lon="13.4629209"><ele>65.8</ele><time>2026-05-03T07:43:40.067Z</time></trkpt><trkpt lat="45.9916292" lon="13.4627984"><ele>66.0</ele><time>2026-05-03T07:43:41.061Z</time></trkpt><trkpt lat="45.9916133" lon="13.4626916"><ele>66.33333333333333</ele><time>2026-05-03T07:43:42.067Z</time></trkpt><trkpt lat="45.9916116" lon="13.4625942"><ele>66.66666666666667</ele><time>2026-05-03T07:43:43.063Z</time></trkpt><trkpt lat="45.9916403" lon="13.4625128"><ele>67.0</ele><time>2026-05-03T07:43:44.059Z</time></trkpt><trkpt lat="45.9917125" lon="13.4624584"><ele>67.33333333333334</ele><time>2026-05-03T07:43:45.066Z</time></trkpt><trkpt lat="45.9918162" lon="13.4624356"><ele>67.66666666666667</ele><time>2026-05-03T07:43:46.065Z</time></trkpt><trkpt lat="45.9919393" lon="13.4624039"><ele>68.0</ele><time>2026-05-03T07:43:47.067Z</time></trkpt><trkpt lat="45.9920678" lon="13.462357"><ele>68.0</ele><time>2026-05-03T07:43:48.06Z</time></trkpt><trkpt lat="45.992202" lon="13.4622973"><ele>68.0</ele><time>2026-05-03T07:43:49.061Z</time></trkpt><trkpt lat="45.9923378" lon="13.4622225"><ele>68.0</ele><time>2026-05-03T07:43:50.071Z</time></trkpt><trkpt lat="45.9924837" lon="13.4621315"><ele>68.0</ele><time>2026-05-03T07:43:51.065Z</time></trkpt><trkpt lat="45.9926432" lon="13.4620158"><ele>68.33333333333334</ele><time>2026-05-03T07:43:52.063Z</time></trkpt><trkpt lat="45.9928043" lon="13.4618998"><ele>68.66666666666667</ele><time>2026-05-03T07:43:53.067Z</time></trkpt><trkpt lat="45.9929696" lon="13.4617879"><ele>69.0</ele><time>2026-05-03T07:43:54.067Z</time></trkpt><trkpt lat="45.9931329" lon="13.461675"><ele>69.0</ele><time>2026-05-03T07:43:55.064Z</time></trkpt><trkpt lat="45.9932934" lon="13.4615771"><ele>69.0</ele><time>2026-05-03T07:43:56.067Z</time></trkpt><trkpt lat="45.9934484" lon="13.4614758"><ele>69.0</ele><time>2026-05-03T07:43:57.067Z</time></trkpt><trkpt lat="45.9936048" lon="13.4613675"><ele>70.0</ele><time>2026-05-03T07:43:58.065Z</time></trkpt><trkpt lat="45.993759" lon="13.4612682"><ele>71.0</ele><time>2026-05-03T07:43:59.069Z</time></trkpt><trkpt lat="45.9939086" lon="13.4611691"><ele>72.0</ele><time>2026-05-03T07:44:00.061Z</time></trkpt><trkpt lat="45.9940521" lon="13.4610662"><ele>71.75</ele><time>2026-05-03T07:44:01.061Z</time></trkpt><trkpt lat="45.9941924" lon="13.4609727"><ele>71.5</ele><time>2026-05-03T07:44:02.061Z</time></trkpt><trkpt lat="45.9943199" lon="13.4608853"><ele>71.25</ele><time>2026-05-03T07:44:03.064Z</time></trkpt><trkpt lat="45.9944365" lon="13.4608006"><ele>71.0</ele><time>2026-05-03T07:44:04.063Z</time></trkpt><trkpt lat="45.9945355" lon="13.4607243"><ele>71.0</ele><time>2026-05-03T07:44:05.063Z</time></trkpt><trkpt lat="45.9946298" lon="13.4606559"><ele>71.0</ele><time>2026-05-03T07:44:06.066Z</time></trkpt><trkpt lat="45.9947333" lon="13.4605995"><ele>71.0</ele><time>2026-05-03T07:44:07.064Z</time></trkpt><trkpt lat="45.9948421" lon="13.4605409"><ele>71.0</ele><time>2026-05-03T07:44:08.063Z</time></trkpt><trkpt lat="45.9949569" lon="13.4604795"><ele>72.5</ele><time>2026-05-03T07:44:09.06Z</time></trkpt><trkpt lat="45.9950599" lon="13.4604103"><ele>74.0</ele><time>2026-05-03T07:44:10.071Z</time></trkpt><trkpt lat="45.995172" lon="13.460322"><ele>75.5</ele><time>2026-05-03T07:44:11.066Z</time></trkpt><trkpt lat="45.9952755" lon="13.4602303"><ele>77.0</ele><time>2026-05-03T07:44:12.062Z</time></trkpt><trkpt lat="45.9953689" lon="13.4601486"><ele>77.0</ele><time>2026-05-03T07:44:13.064Z</time></trkpt><trkpt lat="45.9954552" lon="13.4600674"><ele>77.0</ele><time>2026-05-03T07:44:14.068Z</time></trkpt><trkpt lat="45.9955351" lon="13.4599811"><ele>77.0</ele><time>2026-05-03T07:44:15.063Z</time></trkpt><trkpt lat="45.9956116" lon="13.4598891"><ele>77.0</ele><time>2026-05-03T07:44:16.07Z</time></trkpt><trkpt lat="45.9956794" lon="13.4597859"><ele>77.0</ele><time>2026-05-03T07:44:17.071Z</time></trkpt><trkpt lat="45.9957434" lon="13.4596678"><ele>77.6</ele><time>2026-05-03T07:44:18.062Z</time></trkpt><trkpt lat="45.995796" lon="13.4595379"><ele>78.2</ele><time>2026-05-03T07:44:19.069Z</time></trkpt><trkpt lat="45.9958281" lon="13.4593991"><ele>78.8</ele><time>2026-05-03T07:44:20.064Z</time></trkpt><trkpt lat="45.9958338" lon="13.4592634"><ele>79.4</ele><time>2026-05-03T07:44:21.063Z</time></trkpt><trkpt lat="45.9958118" lon="13.4591281"><ele>80.0</ele><time>2026-05-03T07:44:22.064Z</time></trkpt><trkpt lat="45.9957714" lon="13.4589927"><ele>80.0</ele><time>2026-05-03T07:44:23.064Z</time></trkpt><trkpt lat="45.9957225" lon="13.4588514"><ele>80.0</ele><time>2026-05-03T07:44:24.067Z</time></trkpt><trkpt lat="45.9956669" lon="13.4587012"><ele>80.0</ele><time>2026-05-03T07:44:25.07Z</time></trkpt><trkpt lat="45.9956126" lon="13.4585397"><ele>80.0</ele><time>2026-05-03T07:44:26.067Z</time></trkpt><trkpt lat="45.9955575" lon="13.4583723"><ele>80.0</ele><time>2026-05-03T07:44:27.065Z</time></trkpt><trkpt lat="45.9954996" lon="13.4582026"><ele>80.0</ele><time>2026-05-03T07:44:28.064Z</time></trkpt><trkpt lat="45.9954497" lon="13.4580376"><ele>80.0</ele><time>2026-05-03T07:44:29.063Z</time></trkpt><trkpt lat="45.9954044" lon="13.4578813"><ele>80.0</ele><time>2026-05-03T07:44:30.064Z</time></trkpt><trkpt lat="45.9953715" lon="13.4577207"><ele>80.0</ele><time>2026-05-03T07:44:31.063Z</time></trkpt><trkpt lat="45.9953434" lon="13.4575497"><ele>80.0</ele><time>2026-05-03T07:44:32.06Z</time></trkpt><trkpt lat="45.9953039" lon="13.457367"><ele>80.0</ele><time>2026-05-03T07:44:33.066Z</time></trkpt><trkpt lat="45.995254" lon="13.457189"><ele>80.0</ele><time>2026-05-03T07:44:34.063Z</time></trkpt><trkpt lat="45.9952039" lon="13.4570102"><ele>79.25</ele><time>2026-05-03T07:44:35.062Z</time></trkpt><trkpt lat="45.9951601" lon="13.4568343"><ele>78.5</ele><time>2026-05-03T07:44:36.071Z</time></trkpt><trkpt lat="45.9951189" lon="13.4566652"><ele>77.75</ele><time>2026-05-03T07:44:37.062Z</time></trkpt><trkpt lat="45.995089" lon="13.4564883"><ele>77.0</ele><time>2026-05-03T07:44:38.061Z</time></trkpt><trkpt lat="45.9950686" lon="13.4563116"><ele>77.25</ele><time>2026-05-03T07:44:39.068Z</time></trkpt><trkpt lat="45.9950653" lon="13.4561362"><ele>77.5</ele><time>2026-05-03T07:44:40.062Z</time></trkpt><trkpt lat="45.995075" lon="13.4559716"><ele>77.75</ele><time>2026-05-03T07:44:41.063Z</time></trkpt><trkpt lat="45.9950849" lon="13.4558128"><ele>78.0</ele><time>2026-05-03T07:44:42.069Z</time></trkpt><trkpt lat="45.9950944" lon="13.4556499"><ele>78.0</ele><time>2026-05-03T07:44:43.068Z</time></trkpt><trkpt lat="45.9951063" lon="13.4554852"><ele>78.0</ele><time>2026-05-03T07:44:44.072Z</time></trkpt><trkpt lat="45.9951156" lon="13.4553155"><ele>78.0</ele><time>2026-05-03T07:44:45.062Z</time></trkpt><trkpt lat="45.995125" lon="13.4551433"><ele>78.0</ele><time>2026-05-03T07:44:46.068Z</time></trkpt><trkpt lat="45.9951364" lon="13.4549655"><ele>78.25</ele><time>2026-05-03T07:44:47.067Z</time></trkpt><trkpt lat="45.9951509" lon="13.4547923"><ele>78.5</ele><time>2026-05-03T07:44:48.067Z</time></trkpt><trkpt lat="45.9951702" lon="13.4546199"><ele>78.75</ele><time>2026-05-03T07:44:49.061Z</time></trkpt><trkpt lat="45.9951981" lon="13.4544457"><ele>79.0</ele><time>2026-05-03T07:44:50.06Z</time></trkpt><trkpt lat="45.9952284" lon="13.4542767"><ele>79.0</ele><time>2026-05-03T07:44:51.061Z</time></trkpt><trkpt lat="45.9952528" lon="13.4541075"><ele>79.0</ele><time>2026-05-03T07:44:52.063Z</time></trkpt><trkpt lat="45.9952764" lon="13.4539338"><ele>79.0</ele><time>2026-05-03T07:44:53.069Z</time></trkpt><trkpt lat="45.9953012" lon="13.4537571"><ele>79.0</ele><time>2026-05-03T07:44:54.068Z</time></trkpt><trkpt lat="45.9953227" lon="13.4535757"><ele>79.0</ele><time>2026-05-03T07:44:55.064Z</time></trkpt><trkpt lat="45.9953385" lon="13.4533857"><ele>79.0</ele><time>2026-05-03T07:44:56.069Z</time></trkpt><trkpt lat="45.9953588" lon="13.4531888"><ele>79.0</ele><time>2026-05-03T07:44:57.058Z</time></trkpt><trkpt lat="45.9953817" lon="13.4529999"><ele>79.0</ele><time>2026-05-03T07:44:58.065Z</time></trkpt><trkpt lat="45.995404" lon="13.4528293"><ele>79.5</ele><time>2026-05-03T07:44:59.062Z</time></trkpt><trkpt lat="45.9954211" lon="13.4526622"><ele>80.0</ele><time>2026-05-03T07:45:00.063Z</time></trkpt><trkpt lat="45.995426" lon="13.4524882"><ele>80.5</ele><time>2026-05-03T07:45:01.07Z</time></trkpt><trkpt lat="45.9954173" lon="13.4523152"><ele>81.0</ele><time>2026-05-03T07:45:02.06Z</time></trkpt><trkpt lat="45.9953981" lon="13.4521575"><ele>80.83333333333333</ele><time>2026-05-03T07:45:03.062Z</time></trkpt><trkpt lat="45.9953827" lon="13.4520177"><ele>80.66666666666667</ele><time>2026-05-03T07:45:04.063Z</time></trkpt><trkpt lat="45.9953704" lon="13.4519009"><ele>80.5</ele><time>2026-05-03T07:45:05.069Z</time></trkpt><trkpt lat="45.9953796" lon="13.451762"><ele>80.33333333333334</ele><time>2026-05-03T07:45:07.062Z</time></trkpt><trkpt lat="45.9954655" lon="13.4517503"><ele>80.16666666666667</ele><time>2026-05-03T07:45:09.062Z</time></trkpt><trkpt lat="45.9955396" lon="13.4517645"><ele>80.0</ele><time>2026-05-03T07:45:10.068Z</time></trkpt><trkpt lat="45.9956362" lon="13.4517803"><ele>80.0</ele><time>2026-05-03T07:45:11.072Z</time></trkpt><trkpt lat="45.9957373" lon="13.4517986"><ele>80.0</ele><time>2026-05-03T07:45:12.062Z</time></trkpt><trkpt lat="45.9958306" lon="13.4518321"><ele>80.0</ele><time>2026-05-03T07:45:13.06Z</time></trkpt><trkpt lat="45.9959212" lon="13.45189"><ele>80.0</ele><time>2026-05-03T07:45:14.068Z</time></trkpt><trkpt lat="45.9960125" lon="13.4519816"><ele>80.0</ele><time>2026-05-03T07:45:15.067Z</time></trkpt><trkpt lat="45.9961102" lon="13.4520875"><ele>80.5</ele><time>2026-05-03T07:45:16.068Z</time></trkpt><trkpt lat="45.9962159" lon="13.4521899"><ele>81.0</ele><time>2026-05-03T07:45:17.064Z</time></trkpt><trkpt lat="45.9963353" lon="13.4522949"><ele>81.5</ele><time>2026-05-03T07:45:18.068Z</time></trkpt><trkpt lat="45.9964651" lon="13.4523945"><ele>82.0</ele><time>2026-05-03T07:45:19.062Z</time></trkpt><trkpt lat="45.9965925" lon="13.4524825"><ele>81.75</ele><time>2026-05-03T07:45:20.06Z</time></trkpt><trkpt lat="45.9967084" lon="13.4525619"><ele>81.5</ele><time>2026-05-03T07:45:21.062Z</time></trkpt><trkpt lat="45.9968231" lon="13.4526341"><ele>81.25</ele><time>2026-05-03T07:45:22.066Z</time></trkpt><trkpt lat="45.996928" lon="13.4526989"><ele>81.0</ele><time>2026-05-03T07:45:23.062Z</time></trkpt><trkpt lat="45.9970297" lon="13.452757"><ele>81.0</ele><time>2026-05-03T07:45:24.062Z</time></trkpt><trkpt lat="45.9971316" lon="13.452796"><ele>81.0</ele><time>2026-05-03T07:45:25.061Z</time></trkpt><trkpt lat="45.9972318" lon="13.4528149"><ele>81.0</ele><time>2026-05-03T07:45:26.065Z</time></trkpt><trkpt lat="45.9973302" lon="13.4528296"><ele>81.0</ele><time>2026-05-03T07:45:27.071Z</time></trkpt><trkpt lat="45.997416" lon="13.4528456"><ele>81.0</ele><time>2026-05-03T07:45:28.064Z</time></trkpt><trkpt lat="45.997486" lon="13.4528669"><ele>81.16666666666667</ele><time>2026-05-03T07:45:29.063Z</time></trkpt><trkpt lat="45.9975928" lon="13.4529278"><ele>81.33333333333333</ele><time>2026-05-03T07:45:31.061Z</time></trkpt><trkpt lat="45.9976624" lon="13.4529511"><ele>81.5</ele><time>2026-05-03T07:45:33.06Z</time></trkpt><trkpt lat="45.9977233" lon="13.4528481"><ele>81.66666666666666</ele><time>2026-05-03T07:45:35.07Z</time></trkpt><trkpt lat="45.9977556" lon="13.4527469"><ele>81.83333333333333</ele><time>2026-05-03T07:45:36.062Z</time></trkpt><trkpt lat="45.9977835" lon="13.4526328"><ele>82.0</ele><time>2026-05-03T07:45:37.064Z</time></trkpt><trkpt lat="45.9978136" lon="13.4525171"><ele>82.0</ele><time>2026-05-03T07:45:38.069Z</time></trkpt><trkpt lat="45.9978426" lon="13.4523889"><ele>82.0</ele><time>2026-05-03T07:45:39.062Z</time></trkpt><trkpt lat="45.9978673" lon="13.4522468"><ele>82.0</ele><time>2026-05-03T07:45:40.065Z</time></trkpt><trkpt lat="45.9978851" lon="13.4520982"><ele>82.0</ele><time>2026-05-03T07:45:41.066Z</time></trkpt><trkpt lat="45.9978935" lon="13.451956"><ele>82.0</ele><time>2026-05-03T07:45:42.062Z</time></trkpt><trkpt lat="45.9978934" lon="13.4518092"><ele>82.6</ele><time>2026-05-03T07:45:43.067Z</time></trkpt><trkpt lat="45.9978949" lon="13.4516555"><ele>83.19999999999999</ele><time>2026-05-03T07:45:44.063Z</time></trkpt><trkpt lat="45.9978963" lon="13.4515014"><ele>83.8</ele><time>2026-05-03T07:45:45.055Z</time></trkpt><trkpt lat="45.9978917" lon="13.4513445"><ele>84.4</ele><time>2026-05-03T07:45:46.062Z</time></trkpt><trkpt lat="45.9978832" lon="13.4511832"><ele>85.0</ele><time>2026-05-03T07:45:47.061Z</time></trkpt><trkpt lat="45.9978682" lon="13.4510188"><ele>86.0</ele><time>2026-05-03T07:45:48.061Z</time></trkpt><trkpt lat="45.9978499" lon="13.4508601"><ele>87.0</ele><time>2026-05-03T07:45:49.064Z</time></trkpt><trkpt lat="45.9978271" lon="13.4507085"><ele>88.0</ele><time>2026-05-03T07:45:50.062Z</time></trkpt><trkpt lat="45.9978056" lon="13.4505696"><ele>89.0</ele><time>2026-05-03T07:45:51.06Z</time></trkpt><trkpt lat="45.9977922" lon="13.450432"><ele>90.0</ele><time>2026-05-03T07:45:52.066Z</time></trkpt><trkpt lat="45.9977862" lon="13.4502834"><ele>90.83333333333333</ele><time>2026-05-03T07:45:53.069Z</time></trkpt><trkpt lat="45.9977898" lon="13.4501339"><ele>91.66666666666667</ele><time>2026-05-03T07:45:54.063Z</time></trkpt><trkpt lat="45.9977942" lon="13.4500014"><ele>92.5</ele><time>2026-05-03T07:45:55.062Z</time></trkpt><trkpt lat="45.997806" lon="13.4499001"><ele>93.33333333333334</ele><time>2026-05-03T07:45:56.064Z</time></trkpt><trkpt lat="45.997865" lon="13.4498083"><ele>94.16666666666667</ele><time>2026-05-03T07:45:58.065Z</time></trkpt><trkpt lat="45.997949" lon="13.4497809"><ele>95.0</ele><time>2026-05-03T07:46:00.067Z</time></trkpt><trkpt lat="45.9980185" lon="13.4497366"><ele>95.0</ele><time>2026-05-03T07:46:02.061Z</time></trkpt><trkpt lat="45.9981009" lon="13.4496493"><ele>95.0</ele><time>2026-05-03T07:46:04.065Z</time></trkpt><trkpt lat="45.9981794" lon="13.4495454"><ele>95.0</ele><time>2026-05-03T07:46:06.061Z</time></trkpt><trkpt lat="45.9982802" lon="13.4494189"><ele>95.0</ele><time>2026-05-03T07:46:08.06Z</time></trkpt><trkpt lat="45.9983363" lon="13.4493475"><ele>95.0</ele><time>2026-05-03T07:46:09.062Z</time></trkpt><trkpt lat="45.9983961" lon="13.4492825"><ele>95.8</ele><time>2026-05-03T07:46:10.074Z</time></trkpt><trkpt lat="45.9984629" lon="13.4492099"><ele>96.6</ele><time>2026-05-03T07:46:11.065Z</time></trkpt><trkpt lat="45.9985351" lon="13.4491398"><ele>97.4</ele><time>2026-05-03T07:46:12.067Z</time></trkpt><trkpt lat="45.998617" lon="13.449082"><ele>98.2</ele><time>2026-05-03T07:46:13.062Z</time></trkpt><trkpt lat="45.9987122" lon="13.4490386"><ele>99.0</ele><time>2026-05-03T07:46:14.059Z</time></trkpt><trkpt lat="45.9988058" lon="13.4490019"><ele>99.0</ele><time>2026-05-03T07:46:15.06Z</time></trkpt><trkpt lat="45.9988954" lon="13.4489829"><ele>99.0</ele><time>2026-05-03T07:46:16.071Z</time></trkpt><trkpt lat="45.9989699" lon="13.4489927"><ele>99.0</ele><time>2026-05-03T07:46:17.06Z</time></trkpt><trkpt lat="45.9990757" lon="13.449109"><ele>99.0</ele><time>2026-05-03T07:46:19.065Z</time></trkpt><trkpt lat="45.9991354" lon="13.4491613"><ele>99.0</ele><time>2026-05-03T07:46:20.066Z</time></trkpt><trkpt lat="45.9992058" lon="13.4491998"><ele>99.0</ele><time>2026-05-03T07:46:21.064Z</time></trkpt><trkpt lat="45.9992914" lon="13.4492264"><ele>98.2</ele><time>2026-05-03T07:46:22.063Z</time></trkpt><trkpt lat="45.9993867" lon="13.4492418"><ele>97.4</ele><time>2026-05-03T07:46:23.068Z</time></trkpt><trkpt lat="45.9994821" lon="13.4492561"><ele>96.6</ele><time>2026-05-03T07:46:24.062Z</time></trkpt><trkpt lat="45.9995657" lon="13.4492862"><ele>95.8</ele><time>2026-05-03T07:46:25.064Z</time></trkpt><trkpt lat="45.9996475" lon="13.4493354"><ele>95.0</ele><time>2026-05-03T07:46:26.064Z</time></trkpt><trkpt lat="45.9997242" lon="13.4494163"><ele>95.0</ele><time>2026-05-03T07:46:27.06Z</time></trkpt><trkpt lat="45.9998041" lon="13.4495362"><ele>95.0</ele><time>2026-05-03T07:46:28.07Z</time></trkpt><trkpt lat="45.9998859" lon="13.4496654"><ele>95.0</ele><time>2026-05-03T07:46:29.059Z</time></trkpt><trkpt lat="45.9999716" lon="13.4497847"><ele>95.0</ele><time>2026-05-03T07:46:30.064Z</time></trkpt><trkpt lat="46.0000694" lon="13.4498795"><ele>95.25</ele><time>2026-05-03T07:46:31.063Z</time></trkpt><trkpt lat="46.0001763" lon="13.4499579"><ele>95.5</ele><time>2026-05-03T07:46:32.067Z</time></trkpt><trkpt lat="46.0002851" lon="13.4500131"><ele>95.75</ele><time>2026-05-03T07:46:33.061Z</time></trkpt><trkpt lat="46.0003972" lon="13.450045"><ele>96.0</ele><time>2026-05-03T07:46:34.065Z</time></trkpt><trkpt lat="46.0005101" lon="13.4500587"><ele>96.0</ele><time>2026-05-03T07:46:35.063Z</time></trkpt><trkpt lat="46.0006209" lon="13.4500606"><ele>96.0</ele><time>2026-05-03T07:46:36.061Z</time></trkpt><trkpt lat="46.0007271" lon="13.4500567"><ele>96.0</ele><time>2026-05-03T07:46:37.067Z</time></trkpt><trkpt lat="46.0008212" lon="13.4500467"><ele>96.0</ele><time>2026-05-03T07:46:38.077Z</time></trkpt><trkpt lat="46.0009067" lon="13.4500239"><ele>96.0</ele><time>2026-05-03T07:46:39.06Z</time></trkpt><trkpt lat="46.0009825" lon="13.4499941"><ele>96.33333333333333</ele><time>2026-05-03T07:46:40.07Z</time></trkpt><trkpt lat="46.0010521" lon="13.449946"><ele>96.66666666666666</ele><time>2026-05-03T07:46:41.065Z</time></trkpt><trkpt lat="46.0011152" lon="13.4498831"><ele>97.0</ele><time>2026-05-03T07:46:42.063Z</time></trkpt><trkpt lat="46.0011742" lon="13.4498125"><ele>97.33333333333333</ele><time>2026-05-03T07:46:43.061Z</time></trkpt><trkpt lat="46.0012306" lon="13.4497487"><ele>97.66666666666666</ele><time>2026-05-03T07:46:44.058Z</time></trkpt><trkpt lat="46.0013131" lon="13.4496459"><ele>98.0</ele><time>2026-05-03T07:46:46.068Z</time></trkpt><trkpt lat="46.0013363" lon="13.4495172"><ele>97.99999999999999</ele><time>2026-05-03T07:46:48.057Z</time></trkpt><trkpt lat="46.0013214" lon="13.4494258"><ele>98.0</ele><time>2026-05-03T07:46:49.066Z</time></trkpt><trkpt lat="46.0013001" lon="13.4493123"><ele>98.0</ele><time>2026-05-03T07:46:50.063Z</time></trkpt><trkpt lat="46.0012942" lon="13.4491849"><ele>98.0</ele><time>2026-05-03T07:46:51.066Z</time></trkpt><trkpt lat="46.001297" lon="13.4490499"><ele>97.99999999999999</ele><time>2026-05-03T07:46:52.063Z</time></trkpt><trkpt lat="46.0013123" lon="13.4489063"><ele>98.0</ele><time>2026-05-03T07:46:53.061Z</time></trkpt><trkpt lat="46.0013471" lon="13.4487518"><ele>98.25</ele><time>2026-05-03T07:46:54.064Z</time></trkpt><trkpt lat="46.0014048" lon="13.4485993"><ele>98.5</ele><time>2026-05-03T07:46:55.067Z</time></trkpt><trkpt lat="46.0014821" lon="13.4484514"><ele>98.75</ele><time>2026-05-03T07:46:56.067Z</time></trkpt><trkpt lat="46.0015656" lon="13.448323"><ele>99.0</ele><time>2026-05-03T07:46:57.059Z</time></trkpt><trkpt lat="46.001659" lon="13.4481995"><ele>98.75</ele><time>2026-05-03T07:46:58.068Z</time></trkpt><trkpt lat="46.0017563" lon="13.4480794"><ele>98.5</ele><time>2026-05-03T07:46:59.058Z</time></trkpt><trkpt lat="46.0018476" lon="13.4479509"><ele>98.25</ele><time>2026-05-03T07:47:00.063Z</time></trkpt><trkpt lat="46.001922" lon="13.4478168"><ele>98.0</ele><time>2026-05-03T07:47:01.061Z</time></trkpt><trkpt lat="46.0019728" lon="13.447667"><ele>98.0</ele><time>2026-05-03T07:47:02.054Z</time></trkpt><trkpt lat="46.0019844" lon="13.4474997"><ele>98.0</ele><time>2026-05-03T07:47:03.062Z</time></trkpt><trkpt lat="46.0019471" lon="13.4473213"><ele>98.0</ele><time>2026-05-03T07:47:04.063Z</time></trkpt><trkpt lat="46.0018753" lon="13.4471378"><ele>98.0</ele><time>2026-05-03T07:47:05.06Z</time></trkpt><trkpt lat="46.001793" lon="13.4469636"><ele>97.0</ele><time>2026-05-03T07:47:06.061Z</time></trkpt><trkpt lat="46.0017045" lon="13.4467906"><ele>96.0</ele><time>2026-05-03T07:47:07.064Z</time></trkpt><trkpt lat="46.0016132" lon="13.4466153"><ele>95.0</ele><time>2026-05-03T07:47:08.062Z</time></trkpt><trkpt lat="46.0015238" lon="13.4464456"><ele>94.0</ele><time>2026-05-03T07:47:09.063Z</time></trkpt><trkpt lat="46.0014471" lon="13.4462696"><ele>93.66666666666666</ele><time>2026-05-03T07:47:10.065Z</time></trkpt><trkpt lat="46.0013943" lon="13.4460571"><ele>93.33333333333333</ele><time>2026-05-03T07:47:11.059Z</time></trkpt><trkpt lat="46.0013444" lon="13.4458368"><ele>93.0</ele><time>2026-05-03T07:47:12.064Z</time></trkpt><trkpt lat="46.001297" lon="13.4456095"><ele>92.33333333333333</ele><time>2026-05-03T07:47:13.06Z</time></trkpt><trkpt lat="46.0012537" lon="13.4453752"><ele>91.66666666666666</ele><time>2026-05-03T07:47:14.06Z</time></trkpt><trkpt lat="46.0012061" lon="13.4451464"><ele>91.0</ele><time>2026-05-03T07:47:15.066Z</time></trkpt><trkpt lat="46.0011462" lon="13.4449335"><ele>91.0</ele><time>2026-05-03T07:47:16.065Z</time></trkpt><trkpt lat="46.0010994" lon="13.4447323"><ele>91.0</ele><time>2026-05-03T07:47:17.065Z</time></trkpt><trkpt lat="46.0010543" lon="13.444538"><ele>91.0</ele><time>2026-05-03T07:47:18.062Z</time></trkpt><trkpt lat="46.0010208" lon="13.4443506"><ele>91.0</ele><time>2026-05-03T07:47:19.067Z</time></trkpt><trkpt lat="46.0009908" lon="13.4441811"><ele>90.25</ele><time>2026-05-03T07:47:20.059Z</time></trkpt><trkpt lat="46.0009688" lon="13.4440195"><ele>89.5</ele><time>2026-05-03T07:47:21.064Z</time></trkpt><trkpt lat="46.0009453" lon="13.4438482"><ele>88.75</ele><time>2026-05-03T07:47:22.073Z</time></trkpt><trkpt lat="46.0009227" lon="13.4436565"><ele>88.0</ele><time>2026-05-03T07:47:23.065Z</time></trkpt><trkpt lat="46.0008934" lon="13.4434621"><ele>87.75</ele><time>2026-05-03T07:47:24.062Z</time></trkpt><trkpt lat="46.000865" lon="13.443268"><ele>87.5</ele><time>2026-05-03T07:47:25.076Z</time></trkpt><trkpt lat="46.0008414" lon="13.4430595"><ele>87.25</ele><time>2026-05-03T07:47:26.062Z</time></trkpt><trkpt lat="46.0008248" lon="13.4428484"><ele>87.0</ele><time>2026-05-03T07:47:27.057Z</time></trkpt><trkpt lat="46.000793" lon="13.4426426"><ele>87.0</ele><time>2026-05-03T07:47:28.059Z</time></trkpt><trkpt lat="46.0007585" lon="13.4424382"><ele>87.0</ele><time>2026-05-03T07:47:29.064Z</time></trkpt><trkpt lat="46.0007407" lon="13.4422236"><ele>87.0</ele><time>2026-05-03T07:47:30.064Z</time></trkpt><trkpt lat="46.0007122" lon="13.4420223"><ele>87.0</ele><time>2026-05-03T07:47:31.061Z</time></trkpt><trkpt lat="46.000686" lon="13.441822"><ele>86.75</ele><time>2026-05-03T07:47:32.075Z</time></trkpt><trkpt lat="46.0006663" lon="13.4416178"><ele>86.5</ele><time>2026-05-03T07:47:33.078Z</time></trkpt><trkpt lat="46.0006413" lon="13.4414225"><ele>86.25</ele><time>2026-05-03T07:47:34.061Z</time></trkpt><trkpt lat="46.0006198" lon="13.4412474"><ele>86.0</ele><time>2026-05-03T07:47:35.062Z</time></trkpt><trkpt lat="46.0006002" lon="13.4410781"><ele>86.0</ele><time>2026-05-03T07:47:36.067Z</time></trkpt><trkpt lat="46.0005773" lon="13.4409139"><ele>86.0</ele><time>2026-05-03T07:47:37.062Z</time></trkpt><trkpt lat="46.0005544" lon="13.4407517"><ele>86.0</ele><time>2026-05-03T07:47:38.057Z</time></trkpt><trkpt lat="46.0005303" lon="13.4405959"><ele>86.0</ele><time>2026-05-03T07:47:39.063Z</time></trkpt><trkpt lat="46.0005029" lon="13.4404581"><ele>86.0</ele><time>2026-05-03T07:47:40.065Z</time></trkpt><trkpt lat="46.0004762" lon="13.4403279"><ele>86.0</ele><time>2026-05-03T07:47:41.062Z</time></trkpt><trkpt lat="46.0004561" lon="13.4402185"><ele>86.0</ele><time>2026-05-03T07:47:42.06Z</time></trkpt><trkpt lat="46.000434" lon="13.4401294"><ele>86.0</ele><time>2026-05-03T07:47:43.06Z</time></trkpt><trkpt lat="46.000404" lon="13.4400408"><ele>86.0</ele><time>2026-05-03T07:47:45.065Z</time></trkpt><trkpt lat="46.0003774" lon="13.4399049"><ele>86.0</ele><time>2026-05-03T07:47:49.06Z</time></trkpt><trkpt lat="46.0003556" lon="13.4398052"><ele>86.0</ele><time>2026-05-03T07:47:50.069Z</time></trkpt><trkpt lat="46.0003317" lon="13.439694"><ele>85.83333333333334</ele><time>2026-05-03T07:47:51.062Z</time></trkpt><trkpt lat="46.0003064" lon="13.4395767"><ele>85.66666666666667</ele><time>2026-05-03T07:47:52.061Z</time></trkpt><trkpt lat="46.0002831" lon="13.4394659"><ele>85.5</ele><time>2026-05-03T07:47:53.06Z</time></trkpt><trkpt lat="46.0002607" lon="13.4393579"><ele>85.33333333333333</ele><time>2026-05-03T07:47:54.075Z</time></trkpt><trkpt lat="46.0002432" lon="13.4392558"><ele>85.16666666666666</ele><time>2026-05-03T07:47:55.068Z</time></trkpt><trkpt lat="46.0002293" lon="13.4391602"><ele>85.0</ele><time>2026-05-03T07:47:56.062Z</time></trkpt><trkpt lat="46.0002102" lon="13.439066"><ele>85.0</ele><time>2026-05-03T07:47:57.062Z</time></trkpt><trkpt lat="46.0001828" lon="13.4389618"><ele>85.0</ele><time>2026-05-03T07:47:58.067Z</time></trkpt><trkpt lat="46.0001543" lon="13.4388457"><ele>85.0</ele><time>2026-05-03T07:47:59.065Z</time></trkpt><trkpt lat="46.0001212" lon="13.4387289"><ele>85.0</ele><time>2026-05-03T07:48:00.068Z</time></trkpt><trkpt lat="46.0000849" lon="13.4386147"><ele>85.0</ele><time>2026-05-03T07:48:01.061Z</time></trkpt><trkpt lat="46.0000406" lon="13.4385094"><ele>85.0</ele><time>2026-05-03T07:48:02.069Z</time></trkpt><trkpt lat="45.9999885" lon="13.438408"><ele>85.2</ele><time>2026-05-03T07:48:03.066Z</time></trkpt><trkpt lat="45.9999252" lon="13.4383123"><ele>85.4</ele><time>2026-05-03T07:48:04.066Z</time></trkpt><trkpt lat="45.9998649" lon="13.4382141"><ele>85.6</ele><time>2026-05-03T07:48:05.068Z</time></trkpt><trkpt lat="45.9998117" lon="13.4381267"><ele>85.8</ele><time>2026-05-03T07:48:06.066Z</time></trkpt><trkpt lat="45.9997375" lon="13.4380095"><ele>86.0</ele><time>2026-05-03T07:48:08.066Z</time></trkpt><trkpt lat="45.9996565" lon="13.437869"><ele>85.5</ele><time>2026-05-03T07:48:10.069Z</time></trkpt><trkpt lat="45.999588" lon="13.4377774"><ele>85.0</ele><time>2026-05-03T07:48:11.062Z</time></trkpt><trkpt lat="45.9994957" lon="13.4376833"><ele>84.5</ele><time>2026-05-03T07:48:12.07Z</time></trkpt><trkpt lat="45.9993914" lon="13.4375919"><ele>84.0</ele><time>2026-05-03T07:48:13.059Z</time></trkpt><trkpt lat="45.9992742" lon="13.4374949"><ele>84.0</ele><time>2026-05-03T07:48:14.062Z</time></trkpt><trkpt lat="45.9991546" lon="13.4374041"><ele>84.0</ele><time>2026-05-03T07:48:15.066Z</time></trkpt><trkpt lat="45.999032" lon="13.4373168"><ele>84.0</ele><time>2026-05-03T07:48:16.066Z</time></trkpt><trkpt lat="45.9989103" lon="13.4372376"><ele>84.0</ele><time>2026-05-03T07:48:17.064Z</time></trkpt><trkpt lat="45.9987812" lon="13.4371646"><ele>83.33333333333333</ele><time>2026-05-03T07:48:18.073Z</time></trkpt><trkpt lat="45.9986451" lon="13.4370964"><ele>82.66666666666666</ele><time>2026-05-03T07:48:19.059Z</time></trkpt><trkpt lat="45.9984989" lon="13.437031"><ele>82.0</ele><time>2026-05-03T07:48:20.065Z</time></trkpt><trkpt lat="45.998343" lon="13.4369708"><ele>82.33333333333333</ele><time>2026-05-03T07:48:21.065Z</time></trkpt><trkpt lat="45.9981867" lon="13.4369281"><ele>82.66666666666667</ele><time>2026-05-03T07:48:22.063Z</time></trkpt><trkpt lat="45.9980365" lon="13.4368827"><ele>83.0</ele><time>2026-05-03T07:48:23.064Z</time></trkpt><trkpt lat="45.9978996" lon="13.4368296"><ele>83.0</ele><time>2026-05-03T07:48:24.063Z</time></trkpt><trkpt lat="45.9977686" lon="13.436772"><ele>83.0</ele><time>2026-05-03T07:48:25.058Z</time></trkpt><trkpt lat="45.9976375" lon="13.4367172"><ele>83.0</ele><time>2026-05-03T07:48:26.061Z</time></trkpt><trkpt lat="45.9975027" lon="13.4366836"><ele>83.0</ele><time>2026-05-03T07:48:27.067Z</time></trkpt><trkpt lat="45.9973693" lon="13.4366656"><ele>83.75</ele><time>2026-05-03T07:48:28.067Z</time></trkpt><trkpt lat="45.997242" lon="13.4366587"><ele>84.5</ele><time>2026-05-03T07:48:29.07Z</time></trkpt><trkpt lat="45.99713" lon="13.4366548"><ele>85.25</ele><time>2026-05-03T07:48:30.061Z</time></trkpt><trkpt lat="45.9970133" lon="13.4366487"><ele>86.0</ele><time>2026-05-03T07:48:31.058Z</time></trkpt><trkpt lat="45.9968948" lon="13.4366242"><ele>86.0</ele><time>2026-05-03T07:48:32.065Z</time></trkpt><trkpt lat="45.9967934" lon="13.4365941"><ele>86.0</ele><time>2026-05-03T07:48:33.06Z</time></trkpt><trkpt lat="45.9967299" lon="13.4365478"><ele>86.0</ele><time>2026-05-03T07:48:34.064Z</time></trkpt><trkpt lat="45.9967039" lon="13.4363742"><ele>86.0</ele><time>2026-05-03T07:48:36.066Z</time></trkpt><trkpt lat="45.996727" lon="13.4362511"><ele>86.0</ele><time>2026-05-03T07:48:37.067Z</time></trkpt><trkpt lat="45.9967618" lon="13.4361231"><ele>85.4</ele><time>2026-05-03T07:48:38.061Z</time></trkpt><trkpt lat="45.996807" lon="13.4359839"><ele>84.8</ele><time>2026-05-03T07:48:39.065Z</time></trkpt><trkpt lat="45.9968576" lon="13.4358494"><ele>84.2</ele><time>2026-05-03T07:48:40.068Z</time></trkpt><trkpt lat="45.9969079" lon="13.4357295"><ele>83.60000000000001</ele><time>2026-05-03T07:48:41.064Z</time></trkpt><trkpt lat="45.9969556" lon="13.4356125"><ele>83.0</ele><time>2026-05-03T07:48:42.059Z</time></trkpt><trkpt lat="45.9969778" lon="13.4354961"><ele>82.60000000000001</ele><time>2026-05-03T07:48:43.07Z</time></trkpt><trkpt lat="45.9969743" lon="13.4353721"><ele>82.2</ele><time>2026-05-03T07:48:44.062Z</time></trkpt><trkpt lat="45.9969345" lon="13.4352433"><ele>81.8</ele><time>2026-05-03T07:48:45.063Z</time></trkpt><trkpt lat="45.996888" lon="13.4351168"><ele>81.4</ele><time>2026-05-03T07:48:46.062Z</time></trkpt><trkpt lat="45.9968402" lon="13.43499"><ele>81.0</ele><time>2026-05-03T07:48:47.058Z</time></trkpt><trkpt lat="45.9967887" lon="13.4348631"><ele>81.0</ele><time>2026-05-03T07:48:48.063Z</time></trkpt><trkpt lat="45.9967324" lon="13.4347354"><ele>81.0</ele><time>2026-05-03T07:48:49.06Z</time></trkpt><trkpt lat="45.9966837" lon="13.4345993"><ele>81.0</ele><time>2026-05-03T07:48:50.062Z</time></trkpt><trkpt lat="45.9966393" lon="13.4344531"><ele>81.0</ele><time>2026-05-03T07:48:51.061Z</time></trkpt><trkpt lat="45.996601" lon="13.4342907"><ele>81.0</ele><time>2026-05-03T07:48:52.07Z</time></trkpt><trkpt lat="45.9965641" lon="13.4341172"><ele>81.0</ele><time>2026-05-03T07:48:53.064Z</time></trkpt><trkpt lat="45.9965319" lon="13.4339374"><ele>81.0</ele><time>2026-05-03T07:48:54.063Z</time></trkpt><trkpt lat="45.9965086" lon="13.433745"><ele>81.0</ele><time>2026-05-03T07:48:55.067Z</time></trkpt><trkpt lat="45.9965054" lon="13.4335438"><ele>81.0</ele><time>2026-05-03T07:48:56.06Z</time></trkpt><trkpt lat="45.9965274" lon="13.4333418"><ele>81.0</ele><time>2026-05-03T07:48:57.065Z</time></trkpt><trkpt lat="45.996534" lon="13.433143"><ele>81.0</ele><time>2026-05-03T07:48:58.066Z</time></trkpt><trkpt lat="45.9965152" lon="13.4329461"><ele>81.0</ele><time>2026-05-03T07:48:59.063Z</time></trkpt><trkpt lat="45.9964763" lon="13.4327677"><ele>81.0</ele><time>2026-05-03T07:49:00.057Z</time></trkpt><trkpt lat="45.9964224" lon="13.4326156"><ele>81.0</ele><time>2026-05-03T07:49:01.056Z</time></trkpt><trkpt lat="45.9963586" lon="13.4325119"><ele>81.0</ele><time>2026-05-03T07:49:02.063Z</time></trkpt><trkpt lat="45.996284" lon="13.4324534"><ele>81.0</ele><time>2026-05-03T07:49:03.066Z</time></trkpt><trkpt lat="45.9961864" lon="13.4324408"><ele>81.0</ele><time>2026-05-03T07:49:04.066Z</time></trkpt><trkpt lat="45.9960698" lon="13.4324552"><ele>81.0</ele><time>2026-05-03T07:49:05.062Z</time></trkpt><trkpt lat="45.9959364" lon="13.4324655"><ele>81.5</ele><time>2026-05-03T07:49:06.062Z</time></trkpt><trkpt lat="45.995797" lon="13.4324679"><ele>82.0</ele><time>2026-05-03T07:49:07.061Z</time></trkpt><trkpt lat="45.9956467" lon="13.4324602"><ele>82.5</ele><time>2026-05-03T07:49:08.061Z</time></trkpt><trkpt lat="45.9954991" lon="13.4324496"><ele>83.0</ele><time>2026-05-03T07:49:09.065Z</time></trkpt><trkpt lat="45.9953524" lon="13.4324374"><ele>83.0</ele><time>2026-05-03T07:49:10.06Z</time></trkpt><trkpt lat="45.9952147" lon="13.4324153"><ele>83.0</ele><time>2026-05-03T07:49:11.055Z</time></trkpt><trkpt lat="45.9950923" lon="13.4323926"><ele>83.0</ele><time>2026-05-03T07:49:12.061Z</time></trkpt><trkpt lat="45.9949977" lon="13.4323482"><ele>83.0</ele><time>2026-05-03T07:49:13.06Z</time></trkpt><trkpt lat="45.9949155" lon="13.4323103"><ele>83.0</ele><time>2026-05-03T07:49:14.059Z</time></trkpt><trkpt lat="45.9948362" lon="13.4322767"><ele>83.0</ele><time>2026-05-03T07:49:15.059Z</time></trkpt><trkpt lat="45.9947586" lon="13.4322612"><ele>83.0</ele><time>2026-05-03T07:49:16.065Z</time></trkpt><trkpt lat="45.9946668" lon="13.4322638"><ele>83.0</ele><time>2026-05-03T07:49:17.061Z</time></trkpt><trkpt lat="45.994573" lon="13.4322755"><ele>83.0</ele><time>2026-05-03T07:49:18.069Z</time></trkpt><trkpt lat="45.9944607" lon="13.4323046"><ele>83.0</ele><time>2026-05-03T07:49:19.069Z</time></trkpt><trkpt lat="45.9943295" lon="13.4323427"><ele>83.0</ele><time>2026-05-03T07:49:20.065Z</time></trkpt><trkpt lat="45.9941832" lon="13.4323863"><ele>83.0</ele><time>2026-05-03T07:49:21.058Z</time></trkpt><trkpt lat="45.9940355" lon="13.4324368"><ele>83.0</ele><time>2026-05-03T07:49:22.054Z</time></trkpt><trkpt lat="45.9938802" lon="13.4324971"><ele>82.66666666666667</ele><time>2026-05-03T07:49:23.063Z</time></trkpt><trkpt lat="45.9937207" lon="13.4325444"><ele>82.33333333333333</ele><time>2026-05-03T07:49:24.062Z</time></trkpt><trkpt lat="45.9935664" lon="13.4325977"><ele>82.0</ele><time>2026-05-03T07:49:25.059Z</time></trkpt><trkpt lat="45.9934241" lon="13.4326531"><ele>81.25</ele><time>2026-05-03T07:49:26.062Z</time></trkpt><trkpt lat="45.9932857" lon="13.4326904"><ele>80.5</ele><time>2026-05-03T07:49:27.064Z</time></trkpt><trkpt lat="45.9931527" lon="13.4327282"><ele>79.75</ele><time>2026-05-03T07:49:28.063Z</time></trkpt><trkpt lat="45.9930224" lon="13.4327566"><ele>79.0</ele><time>2026-05-03T07:49:29.057Z</time></trkpt><trkpt lat="45.992894" lon="13.4327944"><ele>79.0</ele><time>2026-05-03T07:49:30.069Z</time></trkpt><trkpt lat="45.9927717" lon="13.4328366"><ele>79.0</ele><time>2026-05-03T07:49:31.06Z</time></trkpt><trkpt lat="45.9926465" lon="13.4328748"><ele>79.0</ele><time>2026-05-03T07:49:32.064Z</time></trkpt><trkpt lat="45.9925302" lon="13.4328786"><ele>79.0</ele><time>2026-05-03T07:49:33.063Z</time></trkpt><trkpt lat="45.992425" lon="13.4328761"><ele>79.0</ele><time>2026-05-03T07:49:34.06Z</time></trkpt><trkpt lat="45.9923228" lon="13.4328521"><ele>79.0</ele><time>2026-05-03T07:49:35.059Z</time></trkpt><trkpt lat="45.9922513" lon="13.4328362"><ele>79.0</ele><time>2026-05-03T07:49:36.066Z</time></trkpt><trkpt lat="45.9921916" lon="13.4327982"><ele>79.0</ele><time>2026-05-03T07:49:37.059Z</time></trkpt><trkpt lat="45.9921172" lon="13.4326734"><ele>79.0</ele><time>2026-05-03T07:49:39.063Z</time></trkpt><trkpt lat="45.9920753" lon="13.4325647"><ele>79.0</ele><time>2026-05-03T07:49:40.062Z</time></trkpt><trkpt lat="45.9920253" lon="13.4324323"><ele>79.0</ele><time>2026-05-03T07:49:41.058Z</time></trkpt><trkpt lat="45.9919663" lon="13.4322972"><ele>79.0</ele><time>2026-05-03T07:49:42.063Z</time></trkpt><trkpt lat="45.9919057" lon="13.4321468"><ele>79.0</ele><time>2026-05-03T07:49:43.06Z</time></trkpt><trkpt lat="45.9918426" lon="13.4319782"><ele>79.0</ele><time>2026-05-03T07:49:44.067Z</time></trkpt><trkpt lat="45.9917777" lon="13.4318028"><ele>79.0</ele><time>2026-05-03T07:49:45.067Z</time></trkpt><trkpt lat="45.9917071" lon="13.4316183"><ele>79.0</ele><time>2026-05-03T07:49:46.059Z</time></trkpt><trkpt lat="45.991635" lon="13.4314295"><ele>79.0</ele><time>2026-05-03T07:49:47.058Z</time></trkpt><trkpt lat="45.9915576" lon="13.4312243"><ele>79.0</ele><time>2026-05-03T07:49:48.067Z</time></trkpt><trkpt lat="45.9914799" lon="13.4310228"><ele>79.0</ele><time>2026-05-03T07:49:49.068Z</time></trkpt><trkpt lat="45.9914093" lon="13.4308297"><ele>79.0</ele><time>2026-05-03T07:49:50.062Z</time></trkpt><trkpt lat="45.9913489" lon="13.4306577"><ele>79.0</ele><time>2026-05-03T07:49:51.062Z</time></trkpt><trkpt lat="45.991297" lon="13.4305255"><ele>79.0</ele><time>2026-05-03T07:49:52.067Z</time></trkpt><trkpt lat="45.9912631" lon="13.4304431"><ele>79.0</ele><time>2026-05-03T07:49:54.061Z</time></trkpt><trkpt lat="45.9911889" lon="13.4304474"><ele>79.0</ele><time>2026-05-03T07:49:57.067Z</time></trkpt><trkpt lat="45.9911018" lon="13.4305488"><ele>79.0</ele><time>2026-05-03T07:49:59.061Z</time></trkpt><trkpt lat="45.9909852" lon="13.4306195"><ele>79.0</ele><time>2026-05-03T07:50:01.067Z</time></trkpt><trkpt lat="45.9909025" lon="13.4306504"><ele>78.75</ele><time>2026-05-03T07:50:02.062Z</time></trkpt><trkpt lat="45.9908062" lon="13.4306846"><ele>78.5</ele><time>2026-05-03T07:50:03.062Z</time></trkpt><trkpt lat="45.9906822" lon="13.4307274"><ele>78.25</ele><time>2026-05-03T07:50:04.06Z</time></trkpt><trkpt lat="45.9905404" lon="13.4307762"><ele>78.0</ele><time>2026-05-03T07:50:05.06Z</time></trkpt><trkpt lat="45.9903895" lon="13.430829"><ele>78.0</ele><time>2026-05-03T07:50:06.066Z</time></trkpt><trkpt lat="45.9902428" lon="13.4308831"><ele>78.0</ele><time>2026-05-03T07:50:07.061Z</time></trkpt><trkpt lat="45.9901087" lon="13.4309337"><ele>78.0</ele><time>2026-05-03T07:50:08.072Z</time></trkpt><trkpt lat="45.9899806" lon="13.4309818"><ele>78.0</ele><time>2026-05-03T07:50:09.064Z</time></trkpt><trkpt lat="45.9898595" lon="13.4310336"><ele>77.75</ele><time>2026-05-03T07:50:10.06Z</time></trkpt><trkpt lat="45.9897474" lon="13.4310725"><ele>77.5</ele><time>2026-05-03T07:50:11.06Z</time></trkpt><trkpt lat="45.9896392" lon="13.4311152"><ele>77.25</ele><time>2026-05-03T07:50:12.068Z</time></trkpt><trkpt lat="45.9895244" lon="13.4311464"><ele>77.0</ele><time>2026-05-03T07:50:13.062Z</time></trkpt><trkpt lat="45.9894137" lon="13.4311844"><ele>77.0</ele><time>2026-05-03T07:50:14.064Z</time></trkpt><trkpt lat="45.989307" lon="13.431221"><ele>77.0</ele><time>2026-05-03T07:50:15.072Z</time></trkpt><trkpt lat="45.9892028" lon="13.4312685"><ele>77.0</ele><time>2026-05-03T07:50:16.066Z</time></trkpt><trkpt lat="45.9890987" lon="13.4313113"><ele>77.0</ele><time>2026-05-03T07:50:17.057Z</time></trkpt><trkpt lat="45.988998" lon="13.431357"><ele>77.0</ele><time>2026-05-03T07:50:18.064Z</time></trkpt><trkpt lat="45.9888945" lon="13.431392"><ele>76.6</ele><time>2026-05-03T07:50:19.066Z</time></trkpt><trkpt lat="45.9887947" lon="13.4314212"><ele>76.2</ele><time>2026-05-03T07:50:20.059Z</time></trkpt><trkpt lat="45.9886958" lon="13.4314552"><ele>75.8</ele><time>2026-05-03T07:50:21.06Z</time></trkpt><trkpt lat="45.9885966" lon="13.4314881"><ele>75.4</ele><time>2026-05-03T07:50:22.063Z</time></trkpt><trkpt lat="45.9884938" lon="13.4315126"><ele>75.0</ele><time>2026-05-03T07:50:23.062Z</time></trkpt><trkpt lat="45.988385" lon="13.4315272"><ele>74.5</ele><time>2026-05-03T07:50:24.06Z</time></trkpt><trkpt lat="45.9882746" lon="13.4315198"><ele>74.0</ele><time>2026-05-03T07:50:25.061Z</time></trkpt><trkpt lat="45.9881593" lon="13.4315033"><ele>73.5</ele><time>2026-05-03T07:50:26.067Z</time></trkpt><trkpt lat="45.9880466" lon="13.4314815"><ele>73.0</ele><time>2026-05-03T07:50:27.061Z</time></trkpt><trkpt lat="45.9879364" lon="13.4314488"><ele>73.0</ele><time>2026-05-03T07:50:28.068Z</time></trkpt><trkpt lat="45.9878332" lon="13.4314169"><ele>73.0</ele><time>2026-05-03T07:50:29.064Z</time></trkpt><trkpt lat="45.9877375" lon="13.4313892"><ele>73.0</ele><time>2026-05-03T07:50:30.064Z</time></trkpt><trkpt lat="45.987652" lon="13.4313714"><ele>73.0</ele><time>2026-05-03T07:50:31.064Z</time></trkpt><trkpt lat="45.9875819" lon="13.4313737"><ele>73.0</ele><time>2026-05-03T07:50:32.061Z</time></trkpt><trkpt lat="45.9874937" lon="13.4314309"><ele>72.66666666666666</ele><time>2026-05-03T07:50:34.058Z</time></trkpt><trkpt lat="45.9874355" lon="13.4315872"><ele>72.33333333333333</ele><time>2026-05-03T07:50:36.066Z</time></trkpt><trkpt lat="45.9874148" lon="13.4316899"><ele>72.0</ele><time>2026-05-03T07:50:37.06Z</time></trkpt><trkpt lat="45.9873954" lon="13.4318022"><ele>71.66666666666667</ele><time>2026-05-03T07:50:38.058Z</time></trkpt><trkpt lat="45.9873712" lon="13.4319045"><ele>71.33333333333334</ele><time>2026-05-03T07:50:39.067Z</time></trkpt><trkpt lat="45.9873396" lon="13.4319894"><ele>71.0</ele><time>2026-05-03T07:50:40.068Z</time></trkpt><trkpt lat="45.9872792" lon="13.4321035"><ele>71.0</ele><time>2026-05-03T07:50:42.061Z</time></trkpt><trkpt lat="45.9872123" lon="13.4321717"><ele>71.0</ele><time>2026-05-03T07:50:45.069Z</time></trkpt><trkpt lat="45.9871574" lon="13.4322355"><ele>71.0</ele><time>2026-05-03T07:51:05.07Z</time></trkpt><trkpt lat="45.987106" lon="13.4321716"><ele>71.0</ele><time>2026-05-03T07:51:09.059Z</time></trkpt><trkpt lat="45.987038" lon="13.4320849"><ele>71.0</ele><time>2026-05-03T07:51:12.07Z</time></trkpt><trkpt lat="45.9869845" lon="13.4320206"><ele>71.0</ele><time>2026-05-03T07:51:30.066Z</time></trkpt><trkpt lat="45.9869033" lon="13.4320135"><ele>71.0</ele><time>2026-05-03T07:51:32.063Z</time></trkpt><trkpt lat="45.9867912" lon="13.4320353"><ele>71.0</ele><time>2026-05-03T07:51:34.058Z</time></trkpt><trkpt lat="45.9866962" lon="13.4320784"><ele>71.0</ele><time>2026-05-03T07:51:36.068Z</time></trkpt><trkpt lat="45.9866908" lon="13.4321709"><ele>71.0</ele><time>2026-05-03T07:52:10.063Z</time></trkpt><trkpt lat="45.9866324" lon="13.4322451"><ele>71.0</ele><time>2026-05-03T07:52:13.073Z</time></trkpt><trkpt lat="45.9865622" lon="13.4322417"><ele>71.0</ele><time>2026-05-03T07:52:15.056Z</time></trkpt><trkpt lat="45.9865089" lon="13.4321835"><ele>71.6</ele><time>2026-05-03T07:52:16.06Z</time></trkpt><trkpt lat="45.9864366" lon="13.4320842"><ele>72.19999999999999</ele><time>2026-05-03T07:52:17.064Z</time></trkpt><trkpt lat="45.9863641" lon="13.4319933"><ele>72.80000000000001</ele><time>2026-05-03T07:52:18.063Z</time></trkpt><trkpt lat="45.9862865" lon="13.4318956"><ele>73.4</ele><time>2026-05-03T07:52:19.058Z</time></trkpt><trkpt lat="45.9862108" lon="13.4317928"><ele>74.0</ele><time>2026-05-03T07:52:20.057Z</time></trkpt><trkpt lat="45.9861289" lon="13.4316941"><ele>74.0</ele><time>2026-05-03T07:52:21.057Z</time></trkpt><trkpt lat="45.9860621" lon="13.4316086"><ele>74.0</ele><time>2026-05-03T07:52:22.061Z</time></trkpt><trkpt lat="45.9859915" lon="13.4315219"><ele>74.0</ele><time>2026-05-03T07:52:23.06Z</time></trkpt><trkpt lat="45.9859181" lon="13.4314307"><ele>74.0</ele><time>2026-05-03T07:52:24.065Z</time></trkpt><trkpt lat="45.9858386" lon="13.4313377"><ele>74.0</ele><time>2026-05-03T07:52:25.064Z</time></trkpt><trkpt lat="45.9857689" lon="13.4312591"><ele>73.83333333333334</ele><time>2026-05-03T07:52:26.055Z</time></trkpt><trkpt lat="45.9857064" lon="13.4311882"><ele>73.66666666666667</ele><time>2026-05-03T07:52:27.068Z</time></trkpt><trkpt lat="45.9856525" lon="13.4311278"><ele>73.5</ele><time>2026-05-03T07:52:28.062Z</time></trkpt><trkpt lat="45.9855814" lon="13.431055"><ele>73.33333333333333</ele><time>2026-05-03T07:52:30.065Z</time></trkpt><trkpt lat="45.9854819" lon="13.4310304"><ele>73.16666666666666</ele><time>2026-05-03T07:52:32.059Z</time></trkpt><trkpt lat="45.9854126" lon="13.4310573"><ele>73.0</ele><time>2026-05-03T07:52:33.064Z</time></trkpt><trkpt lat="45.985322" lon="13.431125"><ele>73.0</ele><time>2026-05-03T07:52:34.06Z</time></trkpt><trkpt lat="45.985219" lon="13.4312013"><ele>73.0</ele><time>2026-05-03T07:52:35.059Z</time></trkpt><trkpt lat="45.9851069" lon="13.4312824"><ele>73.0</ele><time>2026-05-03T07:52:36.059Z</time></trkpt><trkpt lat="45.9850011" lon="13.4313589"><ele>73.0</ele><time>2026-05-03T07:52:37.063Z</time></trkpt><trkpt lat="45.9848964" lon="13.431418"><ele>73.25</ele><time>2026-05-03T07:52:38.058Z</time></trkpt><trkpt lat="45.984786" lon="13.4314478"><ele>73.5</ele><time>2026-05-03T07:52:39.059Z</time></trkpt><trkpt lat="45.9846746" lon="13.4314284"><ele>73.75</ele><time>2026-05-03T07:52:40.066Z</time></trkpt><trkpt lat="45.9845523" lon="13.4313776"><ele>74.0</ele><time>2026-05-03T07:52:41.061Z</time></trkpt><trkpt lat="45.9844324" lon="13.4313244"><ele>73.5</ele><time>2026-05-03T07:52:42.058Z</time></trkpt><trkpt lat="45.9843175" lon="13.431276"><ele>73.0</ele><time>2026-05-03T07:52:43.066Z</time></trkpt><trkpt lat="45.9841968" lon="13.431238"><ele>72.5</ele><time>2026-05-03T07:52:44.059Z</time></trkpt><trkpt lat="45.9840614" lon="13.4312173"><ele>72.0</ele><time>2026-05-03T07:52:45.066Z</time></trkpt><trkpt lat="45.9839172" lon="13.4312145"><ele>71.66666666666667</ele><time>2026-05-03T07:52:46.056Z</time></trkpt><trkpt lat="45.9837501" lon="13.4312392"><ele>71.33333333333334</ele><time>2026-05-03T07:52:47.057Z</time></trkpt><trkpt lat="45.9835617" lon="13.4312787"><ele>71.0</ele><time>2026-05-03T07:52:48.067Z</time></trkpt><trkpt lat="45.9833654" lon="13.4313222"><ele>70.33333333333334</ele><time>2026-05-03T07:52:49.062Z</time></trkpt><trkpt lat="45.9831773" lon="13.4313539"><ele>69.66666666666667</ele><time>2026-05-03T07:52:50.06Z</time></trkpt><trkpt lat="45.9829882" lon="13.4313877"><ele>69.0</ele><time>2026-05-03T07:52:51.059Z</time></trkpt><trkpt lat="45.9827995" lon="13.4314172"><ele>69.0</ele><time>2026-05-03T07:52:52.07Z</time></trkpt><trkpt lat="45.9826141" lon="13.4314529"><ele>69.0</ele><time>2026-05-03T07:52:53.06Z</time></trkpt><trkpt lat="45.9824214" lon="13.4314629"><ele>69.0</ele><time>2026-05-03T07:52:54.068Z</time></trkpt><trkpt lat="45.9822222" lon="13.4314548"><ele>68.66666666666667</ele><time>2026-05-03T07:52:55.061Z</time></trkpt><trkpt lat="45.9820266" lon="13.4314115"><ele>68.33333333333334</ele><time>2026-05-03T07:52:56.07Z</time></trkpt><trkpt lat="45.9818301" lon="13.4313396"><ele>68.0</ele><time>2026-05-03T07:52:57.059Z</time></trkpt><trkpt lat="45.9816413" lon="13.4312441"><ele>68.0</ele><time>2026-05-03T07:52:58.058Z</time></trkpt><trkpt lat="45.9814611" lon="13.4311332"><ele>68.0</ele><time>2026-05-03T07:52:59.06Z</time></trkpt><trkpt lat="45.9813014" lon="13.4310375"><ele>68.0</ele><time>2026-05-03T07:53:00.059Z</time></trkpt><trkpt lat="45.9811566" lon="13.4309583"><ele>68.0</ele><time>2026-05-03T07:53:01.058Z</time></trkpt><trkpt lat="45.9810218" lon="13.4308859"><ele>68.0</ele><time>2026-05-03T07:53:02.06Z</time></trkpt><trkpt lat="45.980898" lon="13.4308178"><ele>68.0</ele><time>2026-05-03T07:53:03.06Z</time></trkpt><trkpt lat="45.9807942" lon="13.4307617"><ele>68.0</ele><time>2026-05-03T07:53:04.065Z</time></trkpt><trkpt lat="45.9807074" lon="13.4307207"><ele>68.0</ele><time>2026-05-03T07:53:05.059Z</time></trkpt><trkpt lat="45.980637" lon="13.430718"><ele>68.0</ele><time>2026-05-03T07:53:06.062Z</time></trkpt><trkpt lat="45.9805856" lon="13.4307741"><ele>68.0</ele><time>2026-05-03T07:53:07.064Z</time></trkpt><trkpt lat="45.9805522" lon="13.4308671"><ele>68.0</ele><time>2026-05-03T07:53:08.063Z</time></trkpt><trkpt lat="45.9805427" lon="13.4309908"><ele>68.0</ele><time>2026-05-03T07:53:09.061Z</time></trkpt><trkpt lat="45.9805249" lon="13.4311681"><ele>68.0</ele><time>2026-05-03T07:53:10.064Z</time></trkpt><trkpt lat="45.9804915" lon="13.431368"><ele>68.0</ele><time>2026-05-03T07:53:11.06Z</time></trkpt><trkpt lat="45.9804529" lon="13.4315813"><ele>68.0</ele><time>2026-05-03T07:53:12.06Z</time></trkpt><trkpt lat="45.9804158" lon="13.431844"><ele>68.0</ele><time>2026-05-03T07:53:13.056Z</time></trkpt><trkpt lat="45.9803799" lon="13.4321715"><ele>68.0</ele><time>2026-05-03T07:53:14.061Z</time></trkpt><trkpt lat="45.9803444" lon="13.4325331"><ele>68.0</ele><time>2026-05-03T07:53:15.062Z</time></trkpt><trkpt lat="45.9803192" lon="13.432916"><ele>67.5</ele><time>2026-05-03T07:53:16.06Z</time></trkpt><trkpt lat="45.9802903" lon="13.4332868"><ele>67.0</ele><time>2026-05-03T07:53:17.055Z</time></trkpt><trkpt lat="45.9802575" lon="13.4336046"><ele>67.66666666666666</ele><time>2026-05-03T07:53:18.066Z</time></trkpt><trkpt lat="45.9802347" lon="13.4339072"><ele>68.33333333333333</ele><time>2026-05-03T07:53:19.056Z</time></trkpt><trkpt lat="45.9802129" lon="13.4341682"><ele>69.0</ele><time>2026-05-03T07:53:20.062Z</time></trkpt><trkpt lat="45.9801891" lon="13.4344226"><ele>68.66666666666667</ele><time>2026-05-03T07:53:21.054Z</time></trkpt><trkpt lat="45.980142" lon="13.4346935"><ele>68.33333333333334</ele><time>2026-05-03T07:53:22.068Z</time></trkpt><trkpt lat="45.9800801" lon="13.4349635"><ele>68.0</ele><time>2026-05-03T07:53:23.061Z</time></trkpt><trkpt lat="45.9799913" lon="13.4352337"><ele>68.33333333333334</ele><time>2026-05-03T07:53:24.064Z</time></trkpt><trkpt lat="45.9798947" lon="13.4355095"><ele>68.66666666666667</ele><time>2026-05-03T07:53:25.061Z</time></trkpt><trkpt lat="45.9797979" lon="13.4357915"><ele>69.0</ele><time>2026-05-03T07:53:26.06Z</time></trkpt><trkpt lat="45.9796961" lon="13.4360711"><ele>68.0</ele><time>2026-05-03T07:53:27.06Z</time></trkpt><trkpt lat="45.9795976" lon="13.4363505"><ele>67.0</ele><time>2026-05-03T07:53:28.058Z</time></trkpt><trkpt lat="45.9794994" lon="13.4366107"><ele>66.0</ele><time>2026-05-03T07:53:29.058Z</time></trkpt><trkpt lat="45.9793904" lon="13.4368557"><ele>66.0</ele><time>2026-05-03T07:53:30.062Z</time></trkpt><trkpt lat="45.9792741" lon="13.4370859"><ele>66.0</ele><time>2026-05-03T07:53:31.059Z</time></trkpt><trkpt lat="45.9791471" lon="13.4373092"><ele>66.0</ele><time>2026-05-03T07:53:32.062Z</time></trkpt><trkpt lat="45.9790251" lon="13.4375314"><ele>67.0</ele><time>2026-05-03T07:53:33.06Z</time></trkpt><trkpt lat="45.9789099" lon="13.437756"><ele>68.0</ele><time>2026-05-03T07:53:34.062Z</time></trkpt><trkpt lat="45.9788006" lon="13.4379868"><ele>69.0</ele><time>2026-05-03T07:53:35.061Z</time></trkpt><trkpt lat="45.9786984" lon="13.4382267"><ele>69.0</ele><time>2026-05-03T07:53:36.064Z</time></trkpt><trkpt lat="45.978619" lon="13.4384613"><ele>69.0</ele><time>2026-05-03T07:53:37.058Z</time></trkpt><trkpt lat="45.9785524" lon="13.4386874"><ele>69.0</ele><time>2026-05-03T07:53:38.059Z</time></trkpt><trkpt lat="45.9785058" lon="13.4388948"><ele>69.4</ele><time>2026-05-03T07:53:39.063Z</time></trkpt><trkpt lat="45.9784716" lon="13.4390969"><ele>69.80000000000001</ele><time>2026-05-03T07:53:40.06Z</time></trkpt><trkpt lat="45.9784631" lon="13.4392533"><ele>70.19999999999999</ele><time>2026-05-03T07:53:41.058Z</time></trkpt><trkpt lat="45.9784706" lon="13.4393662"><ele>70.6</ele><time>2026-05-03T07:53:42.059Z</time></trkpt><trkpt lat="45.9784192" lon="13.4394544"><ele>71.0</ele><time>2026-05-03T07:53:44.066Z</time></trkpt><trkpt lat="45.9783555" lon="13.4394514"><ele>70.39999999999999</ele><time>2026-05-03T07:53:45.06Z</time></trkpt><trkpt lat="45.9783007" lon="13.4393964"><ele>69.8</ele><time>2026-05-03T07:53:46.057Z</time></trkpt><trkpt lat="45.9782348" lon="13.4392539"><ele>69.19999999999999</ele><time>2026-05-03T07:53:48.074Z</time></trkpt><trkpt lat="45.978194" lon="13.4390884"><ele>68.6</ele><time>2026-05-03T07:53:50.062Z</time></trkpt><trkpt lat="45.9781701" lon="13.438977"><ele>68.0</ele><time>2026-05-03T07:53:51.058Z</time></trkpt><trkpt lat="45.9781409" lon="13.4388521"><ele>68.2</ele><time>2026-05-03T07:53:52.063Z</time></trkpt><trkpt lat="45.9781052" lon="13.4387117"><ele>68.4</ele><time>2026-05-03T07:53:53.067Z</time></trkpt><trkpt lat="45.9780659" lon="13.4385616"><ele>68.60000000000001</ele><time>2026-05-03T07:53:54.06Z</time></trkpt><trkpt lat="45.9780191" lon="13.4384141"><ele>68.8</ele><time>2026-05-03T07:53:55.062Z</time></trkpt><trkpt lat="45.9779772" lon="13.4382676"><ele>69.0</ele><time>2026-05-03T07:53:56.056Z</time></trkpt><trkpt lat="45.9779336" lon="13.4381302"><ele>69.0</ele><time>2026-05-03T07:53:57.057Z</time></trkpt><trkpt lat="45.9778939" lon="13.4379878"><ele>69.0</ele><time>2026-05-03T07:53:58.056Z</time></trkpt><trkpt lat="45.9778551" lon="13.4378438"><ele>69.0</ele><time>2026-05-03T07:53:59.058Z</time></trkpt><trkpt lat="45.9778245" lon="13.4376899"><ele>69.0</ele><time>2026-05-03T07:54:00.064Z</time></trkpt><trkpt lat="45.977808" lon="13.4375339"><ele>69.0</ele><time>2026-05-03T07:54:01.066Z</time></trkpt><trkpt lat="45.9778002" lon="13.4373689"><ele>69.2</ele><time>2026-05-03T07:54:02.058Z</time></trkpt><trkpt lat="45.9777993" lon="13.437214"><ele>69.4</ele><time>2026-05-03T07:54:03.061Z</time></trkpt><trkpt lat="45.9778007" lon="13.4370634"><ele>69.6</ele><time>2026-05-03T07:54:04.059Z</time></trkpt><trkpt lat="45.9778015" lon="13.4369165"><ele>69.8</ele><time>2026-05-03T07:54:05.06Z</time></trkpt><trkpt lat="45.9777967" lon="13.4367647"><ele>70.0</ele><time>2026-05-03T07:54:06.08Z</time></trkpt><trkpt lat="45.9777878" lon="13.4366063"><ele>69.5</ele><time>2026-05-03T07:54:07.059Z</time></trkpt><trkpt lat="45.9777733" lon="13.4364376"><ele>69.0</ele><time>2026-05-03T07:54:08.054Z</time></trkpt><trkpt lat="45.9777501" lon="13.4362627"><ele>68.5</ele><time>2026-05-03T07:54:09.06Z</time></trkpt><trkpt lat="45.9777173" lon="13.4360832"><ele>68.0</ele><time>2026-05-03T07:54:10.066Z</time></trkpt><trkpt lat="45.9776717" lon="13.4358995"><ele>67.66666666666667</ele><time>2026-05-03T07:54:11.065Z</time></trkpt><trkpt lat="45.9776145" lon="13.4357037"><ele>67.33333333333333</ele><time>2026-05-03T07:54:12.062Z</time></trkpt><trkpt lat="45.9775508" lon="13.4354854"><ele>67.0</ele><time>2026-05-03T07:54:13.058Z</time></trkpt><trkpt lat="45.9774905" lon="13.4352664"><ele>66.33333333333333</ele><time>2026-05-03T07:54:14.064Z</time></trkpt><trkpt lat="45.9774391" lon="13.4350492"><ele>65.66666666666667</ele><time>2026-05-03T07:54:15.065Z</time></trkpt><trkpt lat="45.9773837" lon="13.4348205"><ele>65.0</ele><time>2026-05-03T07:54:16.063Z</time></trkpt><trkpt lat="45.9773224" lon="13.4345778"><ele>64.66666666666667</ele><time>2026-05-03T07:54:17.054Z</time></trkpt><trkpt lat="45.9772546" lon="13.434337"><ele>64.33333333333333</ele><time>2026-05-03T07:54:18.059Z</time></trkpt><trkpt lat="45.9771855" lon="13.4341187"><ele>64.0</ele><time>2026-05-03T07:54:19.062Z</time></trkpt><trkpt lat="45.9771137" lon="13.4339313"><ele>64.2</ele><time>2026-05-03T07:54:20.061Z</time></trkpt><trkpt lat="45.9770448" lon="13.4337585"><ele>64.4</ele><time>2026-05-03T07:54:21.067Z</time></trkpt><trkpt lat="45.9769843" lon="13.4336051"><ele>64.6</ele><time>2026-05-03T07:54:22.058Z</time></trkpt><trkpt lat="45.9769315" lon="13.4334802"><ele>64.8</ele><time>2026-05-03T07:54:23.055Z</time></trkpt><trkpt lat="45.9768849" lon="13.4333936"><ele>65.0</ele><time>2026-05-03T07:54:24.053Z</time></trkpt><trkpt lat="45.9767847" lon="13.4333551"><ele>64.25</ele><time>2026-05-03T07:54:26.058Z</time></trkpt><trkpt lat="45.9766684" lon="13.4334261"><ele>63.5</ele><time>2026-05-03T07:54:28.059Z</time></trkpt><trkpt lat="45.976584" lon="13.4334788"><ele>62.75</ele><time>2026-05-03T07:54:29.058Z</time></trkpt><trkpt lat="45.9764777" lon="13.4335469"><ele>62.0</ele><time>2026-05-03T07:54:30.067Z</time></trkpt><trkpt lat="45.976344" lon="13.4336267"><ele>62.0</ele><time>2026-05-03T07:54:31.064Z</time></trkpt><trkpt lat="45.9762015" lon="13.4337147"><ele>62.0</ele><time>2026-05-03T07:54:32.054Z</time></trkpt><trkpt lat="45.9760502" lon="13.4338096"><ele>62.0</ele><time>2026-05-03T07:54:33.063Z</time></trkpt><trkpt lat="45.9759071" lon="13.4338927"><ele>62.333333333333336</ele><time>2026-05-03T07:54:34.059Z</time></trkpt><trkpt lat="45.9757667" lon="13.4339865"><ele>62.66666666666667</ele><time>2026-05-03T07:54:35.064Z</time></trkpt><trkpt lat="45.9756228" lon="13.4340774"><ele>63.0</ele><time>2026-05-03T07:54:36.06Z</time></trkpt><trkpt lat="45.9754821" lon="13.4341557"><ele>63.0</ele><time>2026-05-03T07:54:37.058Z</time></trkpt><trkpt lat="45.9753395" lon="13.4342221"><ele>63.0</ele><time>2026-05-03T07:54:38.064Z</time></trkpt><trkpt lat="45.9752018" lon="13.4342918"><ele>63.0</ele><time>2026-05-03T07:54:39.062Z</time></trkpt><trkpt lat="45.975057" lon="13.4343645"><ele>63.0</ele><time>2026-05-03T07:54:40.056Z</time></trkpt><trkpt lat="45.9749122" lon="13.4344486"><ele>63.25</ele><time>2026-05-03T07:54:41.059Z</time></trkpt><trkpt lat="45.9747672" lon="13.4345307"><ele>63.5</ele><time>2026-05-03T07:54:42.056Z</time></trkpt><trkpt lat="45.9746368" lon="13.4345983"><ele>63.75</ele><time>2026-05-03T07:54:43.062Z</time></trkpt><trkpt lat="45.9745104" lon="13.4346737"><ele>64.0</ele><time>2026-05-03T07:54:44.065Z</time></trkpt><trkpt lat="45.9743994" lon="13.4347436"><ele>62.75</ele><time>2026-05-03T07:54:45.071Z</time></trkpt><trkpt lat="45.9742919" lon="13.4348052"><ele>61.5</ele><time>2026-05-03T07:54:46.058Z</time></trkpt><trkpt lat="45.9741848" lon="13.4348496"><ele>60.25</ele><time>2026-05-03T07:54:47.057Z</time></trkpt><trkpt lat="45.9740654" lon="13.4348798"><ele>59.0</ele><time>2026-05-03T07:54:48.061Z</time></trkpt><trkpt lat="45.9739338" lon="13.4349099"><ele>59.0</ele><time>2026-05-03T07:54:49.062Z</time></trkpt><trkpt lat="45.9737961" lon="13.43495"><ele>59.0</ele><time>2026-05-03T07:54:50.061Z</time></trkpt><trkpt lat="45.9736634" lon="13.434995"><ele>59.0</ele><time>2026-05-03T07:54:51.06Z</time></trkpt><trkpt lat="45.9735461" lon="13.4350328"><ele>59.0</ele><time>2026-05-03T07:54:52.059Z</time></trkpt><trkpt lat="45.9734386" lon="13.4350847"><ele>59.75</ele><time>2026-05-03T07:54:53.062Z</time></trkpt><trkpt lat="45.9733333" lon="13.4351563"><ele>60.5</ele><time>2026-05-03T07:54:54.059Z</time></trkpt><trkpt lat="45.9732304" lon="13.4352471"><ele>61.25</ele><time>2026-05-03T07:54:55.066Z</time></trkpt><trkpt lat="45.9731357" lon="13.4353367"><ele>62.0</ele><time>2026-05-03T07:54:56.056Z</time></trkpt><trkpt lat="45.9730547" lon="13.4354189"><ele>61.50000000000001</ele><time>2026-05-03T07:54:57.063Z</time></trkpt><trkpt lat="45.9729884" lon="13.4354843"><ele>61.0</ele><time>2026-05-03T07:54:58.056Z</time></trkpt><trkpt lat="45.9729252" lon="13.4355438"><ele>60.5</ele><time>2026-05-03T07:55:00.055Z</time></trkpt><trkpt lat="45.9729572" lon="13.4356416"><ele>60.0</ele><time>2026-05-03T07:55:11.052Z</time></trkpt><trkpt lat="45.9729761" lon="13.4357319"><ele>59.50000000000001</ele><time>2026-05-03T07:55:13.067Z</time></trkpt><trkpt lat="45.972908" lon="13.4357677"><ele>59.0</ele><time>2026-05-03T07:55:15.065Z</time></trkpt><trkpt lat="45.9727933" lon="13.4357506"><ele>59.00000000000001</ele><time>2026-05-03T07:55:17.059Z</time></trkpt><trkpt lat="45.9727169" lon="13.4357516"><ele>59.0</ele><time>2026-05-03T07:55:18.061Z</time></trkpt><trkpt lat="45.9726275" lon="13.4357485"><ele>59.0</ele><time>2026-05-03T07:55:19.062Z</time></trkpt><trkpt lat="45.9725404" lon="13.4357425"><ele>59.0</ele><time>2026-05-03T07:55:20.057Z</time></trkpt><trkpt lat="45.9724511" lon="13.4357349"><ele>59.00000000000001</ele><time>2026-05-03T07:55:21.066Z</time></trkpt><trkpt lat="45.972355" lon="13.435719"><ele>59.0</ele><time>2026-05-03T07:55:22.058Z</time></trkpt><trkpt lat="45.9722505" lon="13.4356934"><ele>58.800000000000004</ele><time>2026-05-03T07:55:23.058Z</time></trkpt><trkpt lat="45.972144" lon="13.4356739"><ele>58.60000000000001</ele><time>2026-05-03T07:55:24.056Z</time></trkpt><trkpt lat="45.9720388" lon="13.4356592"><ele>58.4</ele><time>2026-05-03T07:55:25.06Z</time></trkpt><trkpt lat="45.971935" lon="13.4356511"><ele>58.2</ele><time>2026-05-03T07:55:26.061Z</time></trkpt><trkpt lat="45.9718298" lon="13.4356596"><ele>58.0</ele><time>2026-05-03T07:55:27.056Z</time></trkpt><trkpt lat="45.971726" lon="13.4356902"><ele>57.75</ele><time>2026-05-03T07:55:28.057Z</time></trkpt><trkpt lat="45.9716168" lon="13.4357441"><ele>57.5</ele><time>2026-05-03T07:55:29.058Z</time></trkpt><trkpt lat="45.9715015" lon="13.4358112"><ele>57.25</ele><time>2026-05-03T07:55:30.055Z</time></trkpt><trkpt lat="45.971383" lon="13.4358746"><ele>57.0</ele><time>2026-05-03T07:55:31.057Z</time></trkpt><trkpt lat="45.9712705" lon="13.4359326"><ele>57.0</ele><time>2026-05-03T07:55:32.057Z</time></trkpt><trkpt lat="45.9711751" lon="13.4359802"><ele>57.0</ele><time>2026-05-03T07:55:33.063Z</time></trkpt><trkpt lat="45.971097" lon="13.4360146"><ele>57.0</ele><time>2026-05-03T07:55:34.055Z</time></trkpt><trkpt lat="45.971036" lon="13.4360426"><ele>57.0</ele><time>2026-05-03T07:55:35.06Z</time></trkpt><trkpt lat="45.9709572" lon="13.4361345"><ele>57.0</ele><time>2026-05-03T07:55:37.057Z</time></trkpt><trkpt lat="45.9709429" lon="13.4362838"><ele>56.2</ele><time>2026-05-03T07:55:39.059Z</time></trkpt><trkpt lat="45.970938" lon="13.4364633"><ele>55.400000000000006</ele><time>2026-05-03T07:55:41.061Z</time></trkpt><trkpt lat="45.9708916" lon="13.4366035"><ele>54.599999999999994</ele><time>2026-05-03T07:55:43.061Z</time></trkpt><trkpt lat="45.9708046" lon="13.4367223"><ele>53.8</ele><time>2026-05-03T07:55:45.069Z</time></trkpt><trkpt lat="45.9707456" lon="13.4367936"><ele>53.0</ele><time>2026-05-03T07:55:46.058Z</time></trkpt><trkpt lat="45.9706815" lon="13.436873"><ele>53.0</ele><time>2026-05-03T07:55:47.065Z</time></trkpt><trkpt lat="45.9706112" lon="13.4369601"><ele>53.0</ele><time>2026-05-03T07:55:48.057Z</time></trkpt><trkpt lat="45.9705315" lon="13.4370465"><ele>53.0</ele><time>2026-05-03T07:55:49.057Z</time></trkpt><trkpt lat="45.9704538" lon="13.4371308"><ele>53.0</ele><time>2026-05-03T07:55:50.056Z</time></trkpt><trkpt lat="45.9703834" lon="13.4372228"><ele>53.0</ele><time>2026-05-03T07:55:51.062Z</time></trkpt><trkpt lat="45.9703223" lon="13.4373227"><ele>53.0</ele><time>2026-05-03T07:55:52.059Z</time></trkpt><trkpt lat="45.9702677" lon="13.4374336"><ele>53.0</ele><time>2026-05-03T07:55:53.065Z</time></trkpt><trkpt lat="45.9702246" lon="13.437556"><ele>53.0</ele><time>2026-05-03T07:55:54.062Z</time></trkpt><trkpt lat="45.9701884" lon="13.4376837"><ele>53.0</ele><time>2026-05-03T07:55:55.062Z</time></trkpt><trkpt lat="45.970148" lon="13.4378159"><ele>53.0</ele><time>2026-05-03T07:55:56.058Z</time></trkpt><trkpt lat="45.9700957" lon="13.4379451"><ele>52.75</ele><time>2026-05-03T07:55:57.057Z</time></trkpt><trkpt lat="45.9700294" lon="13.438063"><ele>52.5</ele><time>2026-05-03T07:55:58.06Z</time></trkpt><trkpt lat="45.9699445" lon="13.4381628"><ele>52.25</ele><time>2026-05-03T07:55:59.06Z</time></trkpt><trkpt lat="45.9698431" lon="13.4382554"><ele>52.0</ele><time>2026-05-03T07:56:00.061Z</time></trkpt><trkpt lat="45.9697274" lon="13.4383455"><ele>52.0</ele><time>2026-05-03T07:56:01.058Z</time></trkpt><trkpt lat="45.9696104" lon="13.4384275"><ele>52.0</ele><time>2026-05-03T07:56:02.062Z</time></trkpt><trkpt lat="45.9694847" lon="13.4385053"><ele>52.0</ele><time>2026-05-03T07:56:03.054Z</time></trkpt><trkpt lat="45.9693596" lon="13.4385859"><ele>52.0</ele><time>2026-05-03T07:56:04.059Z</time></trkpt><trkpt lat="45.9692412" lon="13.4386678"><ele>51.75</ele><time>2026-05-03T07:56:05.058Z</time></trkpt><trkpt lat="45.9691307" lon="13.4387464"><ele>51.5</ele><time>2026-05-03T07:56:06.059Z</time></trkpt><trkpt lat="45.9690234" lon="13.4388172"><ele>51.25</ele><time>2026-05-03T07:56:07.067Z</time></trkpt><trkpt lat="45.9689256" lon="13.4388867"><ele>51.0</ele><time>2026-05-03T07:56:08.064Z</time></trkpt><trkpt lat="45.9688328" lon="13.4389448"><ele>51.0</ele><time>2026-05-03T07:56:09.056Z</time></trkpt><trkpt lat="45.9687406" lon="13.4389964"><ele>51.0</ele><time>2026-05-03T07:56:10.059Z</time></trkpt><trkpt lat="45.9686469" lon="13.4390357"><ele>51.0</ele><time>2026-05-03T07:56:11.061Z</time></trkpt><trkpt lat="45.96855" lon="13.439068"><ele>51.0</ele><time>2026-05-03T07:56:12.067Z</time></trkpt><trkpt lat="45.9684403" lon="13.4390997"><ele>51.0</ele><time>2026-05-03T07:56:13.063Z</time></trkpt><trkpt lat="45.968309" lon="13.4391355"><ele>50.75</ele><time>2026-05-03T07:56:14.06Z</time></trkpt><trkpt lat="45.9681714" lon="13.4391692"><ele>50.5</ele><time>2026-05-03T07:56:15.061Z</time></trkpt><trkpt lat="45.9680476" lon="13.4391973"><ele>50.25</ele><time>2026-05-03T07:56:16.058Z</time></trkpt><trkpt lat="45.9679283" lon="13.4392189"><ele>50.0</ele><time>2026-05-03T07:56:17.061Z</time></trkpt><trkpt lat="45.9678081" lon="13.4392524"><ele>50.0</ele><time>2026-05-03T07:56:18.065Z</time></trkpt><trkpt lat="45.9676952" lon="13.4392784"><ele>50.0</ele><time>2026-05-03T07:56:19.063Z</time></trkpt><trkpt lat="45.9676073" lon="13.4393097"><ele>50.0</ele><time>2026-05-03T07:56:20.06Z</time></trkpt><trkpt lat="45.9675162" lon="13.4393158"><ele>50.0</ele><time>2026-05-03T07:56:21.056Z</time></trkpt><trkpt lat="45.9674375" lon="13.4393245"><ele>50.0</ele><time>2026-05-03T07:56:22.066Z</time></trkpt><trkpt lat="45.9673446" lon="13.439317"><ele>50.0</ele><time>2026-05-03T07:56:23.057Z</time></trkpt><trkpt lat="45.9672443" lon="13.4392947"><ele>50.0</ele><time>2026-05-03T07:56:24.062Z</time></trkpt><trkpt lat="45.9671433" lon="13.4392677"><ele>50.0</ele><time>2026-05-03T07:56:25.06Z</time></trkpt><trkpt lat="45.9670363" lon="13.4392531"><ele>50.0</ele><time>2026-05-03T07:56:26.058Z</time></trkpt><trkpt lat="45.9669201" lon="13.4392494"><ele>50.0</ele><time>2026-05-03T07:56:27.062Z</time></trkpt><trkpt lat="45.9667985" lon="13.439255"><ele>49.25</ele><time>2026-05-03T07:56:28.056Z</time></trkpt><trkpt lat="45.9666679" lon="13.4392677"><ele>48.5</ele><time>2026-05-03T07:56:29.064Z</time></trkpt><trkpt lat="45.9665348" lon="13.4392918"><ele>47.75</ele><time>2026-05-03T07:56:30.055Z</time></trkpt><trkpt lat="45.9664064" lon="13.4393193"><ele>47.0</ele><time>2026-05-03T07:56:31.059Z</time></trkpt><trkpt lat="45.966293" lon="13.439346"><ele>47.0</ele><time>2026-05-03T07:56:32.059Z</time></trkpt><trkpt lat="45.9661891" lon="13.4393647"><ele>47.0</ele><time>2026-05-03T07:56:33.065Z</time></trkpt><trkpt lat="45.9660878" lon="13.4393827"><ele>47.0</ele><time>2026-05-03T07:56:34.054Z</time></trkpt><trkpt lat="45.9659789" lon="13.4394052"><ele>47.0</ele><time>2026-05-03T07:56:35.059Z</time></trkpt><trkpt lat="45.9658649" lon="13.4394309"><ele>47.0</ele><time>2026-05-03T07:56:36.06Z</time></trkpt><trkpt lat="45.9657477" lon="13.4394541"><ele>46.8</ele><time>2026-05-03T07:56:37.068Z</time></trkpt><trkpt lat="45.9656337" lon="13.4394679"><ele>46.6</ele><time>2026-05-03T07:56:38.056Z</time></trkpt><trkpt lat="45.9655326" lon="13.4394785"><ele>46.4</ele><time>2026-05-03T07:56:39.057Z</time></trkpt><trkpt lat="45.9654469" lon="13.4394895"><ele>46.199999999999996</ele><time>2026-05-03T07:56:40.057Z</time></trkpt><trkpt lat="45.9653777" lon="13.4394999"><ele>46.0</ele><time>2026-05-03T07:56:41.065Z</time></trkpt><trkpt lat="45.9653026" lon="13.4395351"><ele>46.5</ele><time>2026-05-03T07:56:43.06Z</time></trkpt><trkpt lat="45.9653135" lon="13.4396441"><ele>47.0</ele><time>2026-05-03T07:56:46.057Z</time></trkpt><trkpt lat="45.9653335" lon="13.4397898"><ele>47.5</ele><time>2026-05-03T07:56:48.065Z</time></trkpt><trkpt lat="45.9653456" lon="13.4398907"><ele>48.0</ele><time>2026-05-03T07:56:49.061Z</time></trkpt><trkpt lat="45.9653582" lon="13.439995"><ele>48.49999999999999</ele><time>2026-05-03T07:56:50.062Z</time></trkpt><trkpt lat="45.965369" lon="13.4401134"><ele>49.0</ele><time>2026-05-03T07:56:51.055Z</time></trkpt><trkpt lat="45.9653808" lon="13.4402456"><ele>49.0</ele><time>2026-05-03T07:56:52.057Z</time></trkpt><trkpt lat="45.9653885" lon="13.4403703"><ele>49.0</ele><time>2026-05-03T07:56:53.059Z</time></trkpt><trkpt lat="45.9653945" lon="13.4404904"><ele>49.0</ele><time>2026-05-03T07:56:54.061Z</time></trkpt><trkpt lat="45.9654027" lon="13.4406208"><ele>49.0</ele><time>2026-05-03T07:56:55.054Z</time></trkpt><trkpt lat="45.9654118" lon="13.4407642"><ele>49.0</ele><time>2026-05-03T07:56:56.061Z</time></trkpt><trkpt lat="45.9654308" lon="13.4409135"><ele>49.25</ele><time>2026-05-03T07:56:57.065Z</time></trkpt><trkpt lat="45.9654471" lon="13.4410772"><ele>49.5</ele><time>2026-05-03T07:56:58.062Z</time></trkpt><trkpt lat="45.9654676" lon="13.4412513"><ele>49.75</ele><time>2026-05-03T07:56:59.057Z</time></trkpt><trkpt lat="45.96549" lon="13.4414258"><ele>50.0</ele><time>2026-05-03T07:57:00.057Z</time></trkpt><trkpt lat="45.9655115" lon="13.441607"><ele>50.0</ele><time>2026-05-03T07:57:01.061Z</time></trkpt><trkpt lat="45.965531" lon="13.4417918"><ele>50.0</ele><time>2026-05-03T07:57:02.061Z</time></trkpt><trkpt lat="45.9655485" lon="13.4419842"><ele>50.0</ele><time>2026-05-03T07:57:03.06Z</time></trkpt><trkpt lat="45.965569" lon="13.4421815"><ele>50.0</ele><time>2026-05-03T07:57:04.062Z</time></trkpt><trkpt lat="45.9655903" lon="13.4423868"><ele>49.66666666666667</ele><time>2026-05-03T07:57:05.052Z</time></trkpt><trkpt lat="45.965613" lon="13.4426061"><ele>49.33333333333333</ele><time>2026-05-03T07:57:06.057Z</time></trkpt><trkpt lat="45.965646" lon="13.4428194"><ele>49.0</ele><time>2026-05-03T07:57:07.057Z</time></trkpt><trkpt lat="45.9656716" lon="13.4430382"><ele>49.0</ele><time>2026-05-03T07:57:08.061Z</time></trkpt><trkpt lat="45.9656953" lon="13.4432529"><ele>49.0</ele><time>2026-05-03T07:57:09.069Z</time></trkpt><trkpt lat="45.9657209" lon="13.4434701"><ele>49.0</ele><time>2026-05-03T07:57:10.06Z</time></trkpt><trkpt lat="45.9657446" lon="13.443686"><ele>49.33333333333333</ele><time>2026-05-03T07:57:11.06Z</time></trkpt><trkpt lat="45.9657659" lon="13.443905"><ele>49.66666666666667</ele><time>2026-05-03T07:57:12.062Z</time></trkpt><trkpt lat="45.9657889" lon="13.4441285"><ele>50.0</ele><time>2026-05-03T07:57:13.062Z</time></trkpt><trkpt lat="45.9658133" lon="13.444352"><ele>50.0</ele><time>2026-05-03T07:57:14.066Z</time></trkpt><trkpt lat="45.965842" lon="13.444575"><ele>50.0</ele><time>2026-05-03T07:57:15.061Z</time></trkpt><trkpt lat="45.9658667" lon="13.4447967"><ele>50.0</ele><time>2026-05-03T07:57:16.053Z</time></trkpt><trkpt lat="45.965887" lon="13.4450102"><ele>50.66666666666667</ele><time>2026-05-03T07:57:17.065Z</time></trkpt><trkpt lat="45.965905" lon="13.4452337"><ele>51.33333333333333</ele><time>2026-05-03T07:57:18.062Z</time></trkpt><trkpt lat="45.9659325" lon="13.4454527"><ele>52.0</ele><time>2026-05-03T07:57:19.061Z</time></trkpt><trkpt lat="45.9659566" lon="13.4456776"><ele>53.33333333333333</ele><time>2026-05-03T07:57:20.058Z</time></trkpt><trkpt lat="45.9659789" lon="13.4459013"><ele>54.66666666666667</ele><time>2026-05-03T07:57:21.066Z</time></trkpt><trkpt lat="45.9660011" lon="13.44612"><ele>56.0</ele><time>2026-05-03T07:57:22.056Z</time></trkpt><trkpt lat="45.9660252" lon="13.446332"><ele>56.75</ele><time>2026-05-03T07:57:23.058Z</time></trkpt><trkpt lat="45.9660441" lon="13.4465513"><ele>57.5</ele><time>2026-05-03T07:57:24.059Z</time></trkpt><trkpt lat="45.9660642" lon="13.4467643"><ele>58.25</ele><time>2026-05-03T07:57:25.058Z</time></trkpt><trkpt lat="45.9660716" lon="13.4469541"><ele>59.0</ele><time>2026-05-03T07:57:26.064Z</time></trkpt><trkpt lat="45.966068" lon="13.447147"><ele>59.2</ele><time>2026-05-03T07:57:27.061Z</time></trkpt><trkpt lat="45.9660456" lon="13.4473279"><ele>59.400000000000006</ele><time>2026-05-03T07:57:28.054Z</time></trkpt><trkpt lat="45.96602" lon="13.4474991"><ele>59.6</ele><time>2026-05-03T07:57:29.056Z</time></trkpt><trkpt lat="45.9659955" lon="13.4476334"><ele>59.8</ele><time>2026-05-03T07:57:30.057Z</time></trkpt><trkpt lat="45.9659615" lon="13.4477344"><ele>60.0</ele><time>2026-05-03T07:57:31.068Z</time></trkpt><trkpt lat="45.9658729" lon="13.4477982"><ele>58.75</ele><time>2026-05-03T07:57:33.054Z</time></trkpt><trkpt lat="45.9657514" lon="13.4477375"><ele>57.5</ele><time>2026-05-03T07:57:35.063Z</time></trkpt><trkpt lat="45.9656784" lon="13.4476786"><ele>56.25</ele><time>2026-05-03T07:57:36.067Z</time></trkpt><trkpt lat="45.9655828" lon="13.4475994"><ele>55.0</ele><time>2026-05-03T07:57:37.057Z</time></trkpt><trkpt lat="45.9654663" lon="13.4475053"><ele>55.0</ele><time>2026-05-03T07:57:38.059Z</time></trkpt><trkpt lat="45.9653378" lon="13.4474091"><ele>55.0</ele><time>2026-05-03T07:57:39.065Z</time></trkpt><trkpt lat="45.9652041" lon="13.4473116"><ele>55.0</ele><time>2026-05-03T07:57:40.067Z</time></trkpt><trkpt lat="45.9650474" lon="13.4472195"><ele>54.75</ele><time>2026-05-03T07:57:41.063Z</time></trkpt><trkpt lat="45.9648924" lon="13.4471536"><ele>54.5</ele><time>2026-05-03T07:57:42.052Z</time></trkpt><trkpt lat="45.9647495" lon="13.4471166"><ele>54.25</ele><time>2026-05-03T07:57:43.064Z</time></trkpt><trkpt lat="45.9646117" lon="13.4470863"><ele>54.0</ele><time>2026-05-03T07:57:44.06Z</time></trkpt><trkpt lat="45.964481" lon="13.4470591"><ele>53.6</ele><time>2026-05-03T07:57:45.056Z</time></trkpt><trkpt lat="45.9643625" lon="13.4470272"><ele>53.2</ele><time>2026-05-03T07:57:46.058Z</time></trkpt><trkpt lat="45.9642532" lon="13.4469894"><ele>52.800000000000004</ele><time>2026-05-03T07:57:47.063Z</time></trkpt><trkpt lat="45.9641811" lon="13.4469484"><ele>52.400000000000006</ele><time>2026-05-03T07:57:48.057Z</time></trkpt><trkpt lat="45.9641066" lon="13.446895"><ele>52.0</ele><time>2026-05-03T07:57:49.058Z</time></trkpt><trkpt lat="45.9640331" lon="13.4468243"><ele>52.0</ele><time>2026-05-03T07:57:50.063Z</time></trkpt><trkpt lat="45.9639598" lon="13.4467255"><ele>52.0</ele><time>2026-05-03T07:57:51.061Z</time></trkpt><trkpt lat="45.9638525" lon="13.4466391"><ele>52.0</ele><time>2026-05-03T07:57:52.061Z</time></trkpt><trkpt lat="45.9637453" lon="13.4465534"><ele>52.0</ele><time>2026-05-03T07:57:53.06Z</time></trkpt><trkpt lat="45.9636441" lon="13.4464648"><ele>52.0</ele><time>2026-05-03T07:57:54.054Z</time></trkpt><trkpt lat="45.9635494" lon="13.4463779"><ele>52.0</ele><time>2026-05-03T07:57:55.059Z</time></trkpt><trkpt lat="45.9634586" lon="13.4462847"><ele>52.0</ele><time>2026-05-03T07:57:56.058Z</time></trkpt><trkpt lat="45.9633758" lon="13.4461753"><ele>52.0</ele><time>2026-05-03T07:57:57.052Z</time></trkpt><trkpt lat="45.9633006" lon="13.446046"><ele>52.0</ele><time>2026-05-03T07:57:58.059Z</time></trkpt><trkpt lat="45.9632382" lon="13.445901"><ele>52.0</ele><time>2026-05-03T07:57:59.058Z</time></trkpt><trkpt lat="45.9631701" lon="13.4457522"><ele>52.0</ele><time>2026-05-03T07:58:00.059Z</time></trkpt><trkpt lat="45.9630962" lon="13.4456205"><ele>52.0</ele><time>2026-05-03T07:58:01.064Z</time></trkpt><trkpt lat="45.9630175" lon="13.4455208"><ele>51.400000000000006</ele><time>2026-05-03T07:58:02.061Z</time></trkpt><trkpt lat="45.9629356" lon="13.4454487"><ele>50.800000000000004</ele><time>2026-05-03T07:58:03.067Z</time></trkpt><trkpt lat="45.9628461" lon="13.4453954"><ele>50.2</ele><time>2026-05-03T07:58:04.066Z</time></trkpt><trkpt lat="45.962748" lon="13.4453475"><ele>49.6</ele><time>2026-05-03T07:58:05.058Z</time></trkpt><trkpt lat="45.9626523" lon="13.4453114"><ele>49.0</ele><time>2026-05-03T07:58:06.056Z</time></trkpt><trkpt lat="45.9625948" lon="13.4452657"><ele>49.0</ele><time>2026-05-03T07:58:07.058Z</time></trkpt><trkpt lat="45.962538" lon="13.445189"><ele>49.0</ele><time>2026-05-03T07:58:08.055Z</time></trkpt><trkpt lat="45.9624879" lon="13.4450854"><ele>49.0</ele><time>2026-05-03T07:58:09.057Z</time></trkpt><trkpt lat="45.962444" lon="13.4449528"><ele>49.0</ele><time>2026-05-03T07:58:10.063Z</time></trkpt><trkpt lat="45.9624048" lon="13.44479"><ele>49.0</ele><time>2026-05-03T07:58:11.059Z</time></trkpt><trkpt lat="45.9623657" lon="13.4446274"><ele>48.99999999999999</ele><time>2026-05-03T07:58:12.065Z</time></trkpt><trkpt lat="45.962336" lon="13.4444911"><ele>49.0</ele><time>2026-05-03T07:58:13.066Z</time></trkpt><trkpt lat="45.9622953" lon="13.4443962"><ele>49.0</ele><time>2026-05-03T07:58:14.061Z</time></trkpt><trkpt lat="45.9622414" lon="13.4443469"><ele>49.0</ele><time>2026-05-03T07:58:15.059Z</time></trkpt><trkpt lat="45.9621284" lon="13.4443474"><ele>48.99999999999999</ele><time>2026-05-03T07:58:17.059Z</time></trkpt><trkpt lat="45.9620495" lon="13.4443831"><ele>49.0</ele><time>2026-05-03T07:58:19.055Z</time></trkpt><trkpt lat="45.9620249" lon="13.4444768"><ele>48.99999999999999</ele><time>2026-05-03T07:58:21.06Z</time></trkpt><trkpt lat="45.9620533" lon="13.4446"><ele>49.0</ele><time>2026-05-03T07:58:28.055Z</time></trkpt><trkpt lat="45.9620633" lon="13.4446968"><ele>49.0</ele><time>2026-05-03T07:58:29.061Z</time></trkpt><trkpt lat="45.9620714" lon="13.4448044"><ele>49.0</ele><time>2026-05-03T07:58:30.063Z</time></trkpt><trkpt lat="45.9620719" lon="13.4449082"><ele>48.99999999999999</ele><time>2026-05-03T07:58:31.07Z</time></trkpt><trkpt lat="45.962069" lon="13.4450809"><ele>49.0</ele><time>2026-05-03T07:58:33.056Z</time></trkpt><trkpt lat="45.962055" lon="13.4451991"><ele>49.0</ele><time>2026-05-03T07:58:35.059Z</time></trkpt><trkpt lat="45.9620857" lon="13.445082"><ele>49.0</ele><time>2026-05-03T07:58:41.063Z</time></trkpt><trkpt lat="45.9620672" lon="13.4449401"><ele>49.0</ele><time>2026-05-03T07:58:43.058Z</time></trkpt><trkpt lat="45.962072" lon="13.4447676"><ele>49.0</ele><time>2026-05-03T07:58:45.063Z</time></trkpt><trkpt lat="45.9620708" lon="13.4446034"><ele>49.0</ele><time>2026-05-03T07:58:47.062Z</time></trkpt><trkpt lat="45.9620607" lon="13.444462"><ele>49.0</ele><time>2026-05-03T07:58:49.058Z</time></trkpt><trkpt lat="45.9620395" lon="13.4443207"><ele>49.0</ele><time>2026-05-03T07:58:51.058Z</time></trkpt><trkpt lat="45.9619985" lon="13.4441922"><ele>49.0</ele><time>2026-05-03T07:58:53.059Z</time></trkpt><trkpt lat="45.9619279" lon="13.4440845"><ele>49.0</ele><time>2026-05-03T07:58:55.055Z</time></trkpt><trkpt lat="45.9618682" lon="13.4440347"><ele>49.0</ele><time>2026-05-03T07:59:01.059Z</time></trkpt><trkpt lat="45.961771" lon="13.4439966"><ele>49.800000000000004</ele><time>2026-05-03T07:59:05.059Z</time></trkpt><trkpt lat="45.9616442" lon="13.4440405"><ele>50.6</ele><time>2026-05-03T07:59:07.063Z</time></trkpt><trkpt lat="45.9615648" lon="13.4440736"><ele>51.4</ele><time>2026-05-03T07:59:08.059Z</time></trkpt><trkpt lat="45.9614775" lon="13.4440832"><ele>52.2</ele><time>2026-05-03T07:59:09.058Z</time></trkpt><trkpt lat="45.9613841" lon="13.4440529"><ele>53.0</ele><time>2026-05-03T07:59:10.067Z</time></trkpt><trkpt lat="45.9612866" lon="13.4440186"><ele>53.0</ele><time>2026-05-03T07:59:11.063Z</time></trkpt><trkpt lat="45.9611802" lon="13.4439877"><ele>53.0</ele><time>2026-05-03T07:59:12.063Z</time></trkpt><trkpt lat="45.9610763" lon="13.4439685"><ele>53.0</ele><time>2026-05-03T07:59:13.055Z</time></trkpt><trkpt lat="45.9609564" lon="13.4439545"><ele>53.0</ele><time>2026-05-03T07:59:14.061Z</time></trkpt><trkpt lat="45.9608357" lon="13.4439438"><ele>53.0</ele><time>2026-05-03T07:59:15.058Z</time></trkpt><trkpt lat="45.9607176" lon="13.4439279"><ele>53.0</ele><time>2026-05-03T07:59:16.055Z</time></trkpt><trkpt lat="45.9606081" lon="13.4439071"><ele>53.0</ele><time>2026-05-03T07:59:17.058Z</time></trkpt><trkpt lat="45.9605075" lon="13.4438908"><ele>53.0</ele><time>2026-05-03T07:59:18.065Z</time></trkpt><trkpt lat="45.9604116" lon="13.4438865"><ele>53.0</ele><time>2026-05-03T07:59:19.065Z</time></trkpt><trkpt lat="45.9603174" lon="13.443892"><ele>53.0</ele><time>2026-05-03T07:59:20.063Z</time></trkpt><trkpt lat="45.9602309" lon="13.4438866"><ele>53.0</ele><time>2026-05-03T07:59:21.071Z</time></trkpt><trkpt lat="45.9601372" lon="13.4438659"><ele>53.0</ele><time>2026-05-03T07:59:22.066Z</time></trkpt><trkpt lat="45.9600289" lon="13.4438383"><ele>53.0</ele><time>2026-05-03T07:59:23.055Z</time></trkpt><trkpt lat="45.9598939" lon="13.443799"><ele>53.0</ele><time>2026-05-03T07:59:24.063Z</time></trkpt><trkpt lat="45.9597499" lon="13.4437478"><ele>52.333333333333336</ele><time>2026-05-03T07:59:25.063Z</time></trkpt><trkpt lat="45.9595997" lon="13.4436925"><ele>51.66666666666667</ele><time>2026-05-03T07:59:26.057Z</time></trkpt><trkpt lat="45.9594506" lon="13.4436249"><ele>51.0</ele><time>2026-05-03T07:59:27.054Z</time></trkpt><trkpt lat="45.9593063" lon="13.4435747"><ele>50.5</ele><time>2026-05-03T07:59:28.055Z</time></trkpt><trkpt lat="45.9591549" lon="13.4435326"><ele>50.0</ele><time>2026-05-03T07:59:29.066Z</time></trkpt><trkpt lat="45.9590158" lon="13.4434792"><ele>49.5</ele><time>2026-05-03T07:59:30.059Z</time></trkpt><trkpt lat="45.9588763" lon="13.443431"><ele>49.0</ele><time>2026-05-03T07:59:31.057Z</time></trkpt><trkpt lat="45.9587436" lon="13.4433933"><ele>49.0</ele><time>2026-05-03T07:59:32.054Z</time></trkpt><trkpt lat="45.9586178" lon="13.4433638"><ele>49.0</ele><time>2026-05-03T07:59:33.059Z</time></trkpt><trkpt lat="45.9584958" lon="13.4433449"><ele>49.0</ele><time>2026-05-03T07:59:34.066Z</time></trkpt><trkpt lat="45.9583701" lon="13.4433417"><ele>49.0</ele><time>2026-05-03T07:59:35.057Z</time></trkpt><trkpt lat="45.9582328" lon="13.4433544"><ele>49.33333333333333</ele><time>2026-05-03T07:59:36.059Z</time></trkpt><trkpt lat="45.9580963" lon="13.4433543"><ele>49.66666666666667</ele><time>2026-05-03T07:59:37.058Z</time></trkpt><trkpt lat="45.95794" lon="13.4433433"><ele>50.0</ele><time>2026-05-03T07:59:38.059Z</time></trkpt><trkpt lat="45.9577761" lon="13.4433196"><ele>50.0</ele><time>2026-05-03T07:59:39.06Z</time></trkpt><trkpt lat="45.9576164" lon="13.4432953"><ele>50.0</ele><time>2026-05-03T07:59:40.059Z</time></trkpt><trkpt lat="45.9574542" lon="13.4432756"><ele>50.0</ele><time>2026-05-03T07:59:41.067Z</time></trkpt><trkpt lat="45.9572866" lon="13.4432524"><ele>50.0</ele><time>2026-05-03T07:59:42.062Z</time></trkpt><trkpt lat="45.9571258" lon="13.4432329"><ele>50.0</ele><time>2026-05-03T07:59:43.06Z</time></trkpt><trkpt lat="45.9569568" lon="13.4432138"><ele>50.0</ele><time>2026-05-03T07:59:44.061Z</time></trkpt><trkpt lat="45.9567756" lon="13.4431962"><ele>50.333333333333336</ele><time>2026-05-03T07:59:45.056Z</time></trkpt><trkpt lat="45.9566054" lon="13.443172"><ele>50.66666666666667</ele><time>2026-05-03T07:59:46.059Z</time></trkpt><trkpt lat="45.9564331" lon="13.4431589"><ele>51.0</ele><time>2026-05-03T07:59:47.063Z</time></trkpt><trkpt lat="45.956264" lon="13.4431581"><ele>51.0</ele><time>2026-05-03T07:59:48.064Z</time></trkpt><trkpt lat="45.9560914" lon="13.4431529"><ele>51.0</ele><time>2026-05-03T07:59:49.058Z</time></trkpt><trkpt lat="45.9559198" lon="13.4431489"><ele>51.0</ele><time>2026-05-03T07:59:50.062Z</time></trkpt><trkpt lat="45.9557698" lon="13.4431529"><ele>51.199999999999996</ele><time>2026-05-03T07:59:51.054Z</time></trkpt><trkpt lat="45.9556421" lon="13.4431546"><ele>51.4</ele><time>2026-05-03T07:59:52.063Z</time></trkpt><trkpt lat="45.9555255" lon="13.4431596"><ele>51.6</ele><time>2026-05-03T07:59:53.057Z</time></trkpt><trkpt lat="45.9554265" lon="13.4431809"><ele>51.8</ele><time>2026-05-03T07:59:54.059Z</time></trkpt><trkpt lat="45.9553432" lon="13.443183"><ele>52.0</ele><time>2026-05-03T07:59:55.066Z</time></trkpt><trkpt lat="45.9552682" lon="13.4431704"><ele>51.99999999999999</ele><time>2026-05-03T07:59:56.054Z</time></trkpt><trkpt lat="45.9551973" lon="13.4431529"><ele>52.0</ele><time>2026-05-03T07:59:57.057Z</time></trkpt><trkpt lat="45.9551184" lon="13.4431327"><ele>52.0</ele><time>2026-05-03T07:59:58.052Z</time></trkpt><trkpt lat="45.9550389" lon="13.4431088"><ele>52.0</ele><time>2026-05-03T07:59:59.056Z</time></trkpt><trkpt lat="45.9549528" lon="13.4430899"><ele>51.99999999999999</ele><time>2026-05-03T08:00:00.056Z</time></trkpt><trkpt lat="45.9548715" lon="13.443077"><ele>52.0</ele><time>2026-05-03T08:00:01.067Z</time></trkpt><trkpt lat="45.9547982" lon="13.4430599"><ele>51.8</ele><time>2026-05-03T08:00:02.063Z</time></trkpt><trkpt lat="45.9547278" lon="13.4430506"><ele>51.6</ele><time>2026-05-03T08:00:03.055Z</time></trkpt><trkpt lat="45.9546611" lon="13.4430427"><ele>51.4</ele><time>2026-05-03T08:00:04.053Z</time></trkpt><trkpt lat="45.9545973" lon="13.4430435"><ele>51.199999999999996</ele><time>2026-05-03T08:00:05.062Z</time></trkpt><trkpt lat="45.9544768" lon="13.443044"><ele>51.0</ele><time>2026-05-03T08:00:07.058Z</time></trkpt><trkpt lat="45.954347" lon="13.4430493"><ele>51.0</ele><time>2026-05-03T08:00:09.065Z</time></trkpt><trkpt lat="45.9542666" lon="13.4430486"><ele>51.0</ele><time>2026-05-03T08:00:10.066Z</time></trkpt><trkpt lat="45.954175" lon="13.443045"><ele>51.0</ele><time>2026-05-03T08:00:11.057Z</time></trkpt><trkpt lat="45.9540688" lon="13.4430436"><ele>51.0</ele><time>2026-05-03T08:00:12.06Z</time></trkpt><trkpt lat="45.9539486" lon="13.4430373"><ele>51.0</ele><time>2026-05-03T08:00:13.054Z</time></trkpt><trkpt lat="45.9538216" lon="13.4430229"><ele>51.0</ele><time>2026-05-03T08:00:14.065Z</time></trkpt><trkpt lat="45.9536876" lon="13.4430001"><ele>51.0</ele><time>2026-05-03T08:00:15.056Z</time></trkpt><trkpt lat="45.9535575" lon="13.4429755"><ele>51.0</ele><time>2026-05-03T08:00:16.061Z</time></trkpt><trkpt lat="45.9534333" lon="13.4429538"><ele>51.0</ele><time>2026-05-03T08:00:17.053Z</time></trkpt><trkpt lat="45.9533191" lon="13.442932"><ele>50.599999999999994</ele><time>2026-05-03T08:00:18.056Z</time></trkpt><trkpt lat="45.9532191" lon="13.4429064"><ele>50.2</ele><time>2026-05-03T08:00:19.055Z</time></trkpt><trkpt lat="45.9531276" lon="13.4428883"><ele>49.8</ele><time>2026-05-03T08:00:20.056Z</time></trkpt><trkpt lat="45.9530475" lon="13.4428769"><ele>49.400000000000006</ele><time>2026-05-03T08:00:21.065Z</time></trkpt><trkpt lat="45.9529747" lon="13.4428672"><ele>49.0</ele><time>2026-05-03T08:00:22.055Z</time></trkpt><trkpt lat="45.9528612" lon="13.442851"><ele>49.0</ele><time>2026-05-03T08:00:24.062Z</time></trkpt><trkpt lat="45.9527781" lon="13.442846"><ele>49.0</ele><time>2026-05-03T08:00:26.057Z</time></trkpt><trkpt lat="45.952684" lon="13.442831"><ele>49.0</ele><time>2026-05-03T08:00:29.059Z</time></trkpt><trkpt lat="45.9525615" lon="13.4428057"><ele>49.0</ele><time>2026-05-03T08:00:31.056Z</time></trkpt><trkpt lat="45.9524804" lon="13.442796"><ele>49.0</ele><time>2026-05-03T08:00:32.059Z</time></trkpt><trkpt lat="45.9523921" lon="13.4427809"><ele>48.5</ele><time>2026-05-03T08:00:33.056Z</time></trkpt><trkpt lat="45.9522891" lon="13.4427681"><ele>48.0</ele><time>2026-05-03T08:00:34.058Z</time></trkpt><trkpt lat="45.9521774" lon="13.442748"><ele>47.5</ele><time>2026-05-03T08:00:35.057Z</time></trkpt><trkpt lat="45.9520502" lon="13.4427239"><ele>47.0</ele><time>2026-05-03T08:00:36.059Z</time></trkpt><trkpt lat="45.9519146" lon="13.4426913"><ele>47.0</ele><time>2026-05-03T08:00:37.059Z</time></trkpt><trkpt lat="45.9517691" lon="13.4426555"><ele>47.0</ele><time>2026-05-03T08:00:38.056Z</time></trkpt><trkpt lat="45.9516153" lon="13.4426199"><ele>47.0</ele><time>2026-05-03T08:00:39.063Z</time></trkpt><trkpt lat="45.9514388" lon="13.442575"><ele>47.33333333333333</ele><time>2026-05-03T08:00:40.057Z</time></trkpt><trkpt lat="45.9512641" lon="13.4425291"><ele>47.666666666666664</ele><time>2026-05-03T08:00:41.061Z</time></trkpt><trkpt lat="45.9510927" lon="13.4424825"><ele>48.0</ele><time>2026-05-03T08:00:42.055Z</time></trkpt><trkpt lat="45.9509182" lon="13.4424451"><ele>48.0</ele><time>2026-05-03T08:00:43.065Z</time></trkpt><trkpt lat="45.9507498" lon="13.4424182"><ele>48.0</ele><time>2026-05-03T08:00:44.071Z</time></trkpt><trkpt lat="45.9505808" lon="13.442388"><ele>48.0</ele><time>2026-05-03T08:00:45.055Z</time></trkpt><trkpt lat="45.9504137" lon="13.4423507"><ele>48.0</ele><time>2026-05-03T08:00:46.058Z</time></trkpt><trkpt lat="45.9502529" lon="13.4423114"><ele>48.0</ele><time>2026-05-03T08:00:47.062Z</time></trkpt><trkpt lat="45.9500929" lon="13.442274"><ele>48.0</ele><time>2026-05-03T08:00:48.063Z</time></trkpt><trkpt lat="45.9499333" lon="13.4422308"><ele>47.75</ele><time>2026-05-03T08:00:49.06Z</time></trkpt><trkpt lat="45.9497755" lon="13.4421986"><ele>47.5</ele><time>2026-05-03T08:00:50.06Z</time></trkpt><trkpt lat="45.9496307" lon="13.4421692"><ele>47.25</ele><time>2026-05-03T08:00:51.06Z</time></trkpt><trkpt lat="45.9494949" lon="13.4421397"><ele>47.0</ele><time>2026-05-03T08:00:52.06Z</time></trkpt><trkpt lat="45.94937" lon="13.4421263"><ele>47.0</ele><time>2026-05-03T08:00:53.06Z</time></trkpt><trkpt lat="45.949258" lon="13.4421105"><ele>47.0</ele><time>2026-05-03T08:00:54.063Z</time></trkpt><trkpt lat="45.9491637" lon="13.4420825"><ele>47.0</ele><time>2026-05-03T08:00:55.063Z</time></trkpt><trkpt lat="45.9490732" lon="13.4420387"><ele>47.0</ele><time>2026-05-03T08:00:56.07Z</time></trkpt><trkpt lat="45.9489905" lon="13.442005"><ele>47.0</ele><time>2026-05-03T08:00:57.068Z</time></trkpt><trkpt lat="45.948925" lon="13.4419674"><ele>46.857142857142854</ele><time>2026-05-03T08:00:58.061Z</time></trkpt><trkpt lat="45.9488717" lon="13.4419148"><ele>46.71428571428571</ele><time>2026-05-03T08:00:59.062Z</time></trkpt><trkpt lat="45.9488285" lon="13.4418408"><ele>46.57142857142857</ele><time>2026-05-03T08:01:00.052Z</time></trkpt><trkpt lat="45.9487955" lon="13.4417548"><ele>46.42857142857143</ele><time>2026-05-03T08:01:01.052Z</time></trkpt><trkpt lat="45.9487729" lon="13.4416619"><ele>46.285714285714285</ele><time>2026-05-03T08:01:02.058Z</time></trkpt><trkpt lat="45.9487601" lon="13.4415666"><ele>46.142857142857146</ele><time>2026-05-03T08:01:03.069Z</time></trkpt><trkpt lat="45.9487502" lon="13.4414689"><ele>46.0</ele><time>2026-05-03T08:01:04.052Z</time></trkpt><trkpt lat="45.9487405" lon="13.4413669"><ele>46.0</ele><time>2026-05-03T08:01:05.056Z</time></trkpt><trkpt lat="45.9487309" lon="13.4412646"><ele>46.0</ele><time>2026-05-03T08:01:06.056Z</time></trkpt><trkpt lat="45.9487237" lon="13.441168"><ele>46.0</ele><time>2026-05-03T08:01:07.061Z</time></trkpt><trkpt lat="45.9487075" lon="13.4410029"><ele>46.0</ele><time>2026-05-03T08:01:09.057Z</time></trkpt><trkpt lat="45.9487038" lon="13.440883"><ele>46.0</ele><time>2026-05-03T08:01:11.057Z</time></trkpt><trkpt lat="45.9486952" lon="13.4407505"><ele>46.0</ele><time>2026-05-03T08:01:13.058Z</time></trkpt><trkpt lat="45.9486898" lon="13.4405516"><ele>46.199999999999996</ele><time>2026-05-03T08:01:15.051Z</time></trkpt><trkpt lat="45.9486866" lon="13.4404292"><ele>46.4</ele><time>2026-05-03T08:01:16.057Z</time></trkpt><trkpt lat="45.9486827" lon="13.4402943"><ele>46.6</ele><time>2026-05-03T08:01:17.058Z</time></trkpt><trkpt lat="45.9486834" lon="13.4401492"><ele>46.8</ele><time>2026-05-03T08:01:18.057Z</time></trkpt><trkpt lat="45.9486824" lon="13.4399943"><ele>47.0</ele><time>2026-05-03T08:01:19.062Z</time></trkpt><trkpt lat="45.9486784" lon="13.4398342"><ele>47.0</ele><time>2026-05-03T08:01:20.055Z</time></trkpt><trkpt lat="45.9486747" lon="13.4396707"><ele>47.0</ele><time>2026-05-03T08:01:21.066Z</time></trkpt><trkpt lat="45.9486704" lon="13.4394876"><ele>47.0</ele><time>2026-05-03T08:01:22.053Z</time></trkpt><trkpt lat="45.9486618" lon="13.4393045"><ele>47.0</ele><time>2026-05-03T08:01:23.051Z</time></trkpt><trkpt lat="45.9486524" lon="13.439117"><ele>46.5</ele><time>2026-05-03T08:01:24.053Z</time></trkpt><trkpt lat="45.9486421" lon="13.4389425"><ele>46.0</ele><time>2026-05-03T08:01:25.058Z</time></trkpt><trkpt lat="45.9486315" lon="13.4387639"><ele>45.5</ele><time>2026-05-03T08:01:26.057Z</time></trkpt><trkpt lat="45.9486197" lon="13.4385845"><ele>45.0</ele><time>2026-05-03T08:01:27.057Z</time></trkpt><trkpt lat="45.9486061" lon="13.4384007"><ele>44.75</ele><time>2026-05-03T08:01:28.062Z</time></trkpt><trkpt lat="45.948591" lon="13.4382042"><ele>44.5</ele><time>2026-05-03T08:01:29.059Z</time></trkpt><trkpt lat="45.9485791" lon="13.4380032"><ele>44.25</ele><time>2026-05-03T08:01:30.057Z</time></trkpt><trkpt lat="45.9485656" lon="13.4377845"><ele>44.0</ele><time>2026-05-03T08:01:31.063Z</time></trkpt><trkpt lat="45.9485503" lon="13.4375558"><ele>44.666666666666664</ele><time>2026-05-03T08:01:32.064Z</time></trkpt><trkpt lat="45.9485264" lon="13.4373234"><ele>45.333333333333336</ele><time>2026-05-03T08:01:33.057Z</time></trkpt><trkpt lat="45.9485061" lon="13.4370967"><ele>46.0</ele><time>2026-05-03T08:01:34.06Z</time></trkpt><trkpt lat="45.948486" lon="13.4368674"><ele>46.0</ele><time>2026-05-03T08:01:35.059Z</time></trkpt><trkpt lat="45.9484657" lon="13.4366499"><ele>46.0</ele><time>2026-05-03T08:01:36.057Z</time></trkpt><trkpt lat="45.9484455" lon="13.436445"><ele>46.0</ele><time>2026-05-03T08:01:37.062Z</time></trkpt><trkpt lat="45.9484257" lon="13.4362493"><ele>46.0</ele><time>2026-05-03T08:01:38.055Z</time></trkpt><trkpt lat="45.9484105" lon="13.43606"><ele>46.0</ele><time>2026-05-03T08:01:39.056Z</time></trkpt><trkpt lat="45.9483914" lon="13.4358896"><ele>46.0</ele><time>2026-05-03T08:01:40.056Z</time></trkpt><trkpt lat="45.9483697" lon="13.4357418"><ele>46.0</ele><time>2026-05-03T08:01:41.064Z</time></trkpt><trkpt lat="45.9483506" lon="13.4355957"><ele>46.0</ele><time>2026-05-03T08:01:42.053Z</time></trkpt><trkpt lat="45.9483324" lon="13.4354144"><ele>45.0</ele><time>2026-05-03T08:01:43.055Z</time></trkpt><trkpt lat="45.9483297" lon="13.4352049"><ele>44.0</ele><time>2026-05-03T08:01:44.055Z</time></trkpt><trkpt lat="45.9483404" lon="13.4349768"><ele>43.0</ele><time>2026-05-03T08:01:45.062Z</time></trkpt><trkpt lat="45.9483572" lon="13.4347508"><ele>42.75</ele><time>2026-05-03T08:01:46.068Z</time></trkpt><trkpt lat="45.9483546" lon="13.4345471"><ele>42.5</ele><time>2026-05-03T08:01:47.06Z</time></trkpt><trkpt lat="45.9483449" lon="13.4343611"><ele>42.25</ele><time>2026-05-03T08:01:48.056Z</time></trkpt><trkpt lat="45.9483343" lon="13.4342002"><ele>42.0</ele><time>2026-05-03T08:01:49.059Z</time></trkpt><trkpt lat="45.9483248" lon="13.4340478"><ele>42.0</ele><time>2026-05-03T08:01:50.057Z</time></trkpt><trkpt lat="45.9483054" lon="13.4339176"><ele>42.0</ele><time>2026-05-03T08:01:51.057Z</time></trkpt><trkpt lat="45.9482919" lon="13.433774"><ele>42.0</ele><time>2026-05-03T08:01:52.051Z</time></trkpt><trkpt lat="45.9482718" lon="13.4336135"><ele>42.0</ele><time>2026-05-03T08:01:53.058Z</time></trkpt><trkpt lat="45.948254" lon="13.4334565"><ele>42.0</ele><time>2026-05-03T08:01:54.057Z</time></trkpt><trkpt lat="45.9482336" lon="13.4333148"><ele>41.833333333333336</ele><time>2026-05-03T08:01:55.06Z</time></trkpt><trkpt lat="45.9482076" lon="13.4331905"><ele>41.666666666666664</ele><time>2026-05-03T08:01:56.055Z</time></trkpt><trkpt lat="45.948173" lon="13.433077"><ele>41.5</ele><time>2026-05-03T08:01:57.059Z</time></trkpt><trkpt lat="45.9481288" lon="13.43298"><ele>41.33333333333333</ele><time>2026-05-03T08:01:58.063Z</time></trkpt><trkpt lat="45.9480695" lon="13.4329037"><ele>41.166666666666664</ele><time>2026-05-03T08:01:59.055Z</time></trkpt><trkpt lat="45.9479914" lon="13.4328338"><ele>41.0</ele><time>2026-05-03T08:02:00.055Z</time></trkpt><trkpt lat="45.947884" lon="13.432764"><ele>40.666666666666664</ele><time>2026-05-03T08:02:01.059Z</time></trkpt><trkpt lat="45.9477481" lon="13.4326853"><ele>40.333333333333336</ele><time>2026-05-03T08:02:02.06Z</time></trkpt><trkpt lat="45.9476035" lon="13.4326046"><ele>40.0</ele><time>2026-05-03T08:02:03.064Z</time></trkpt><trkpt lat="45.9474483" lon="13.4325142"><ele>40.0</ele><time>2026-05-03T08:02:04.056Z</time></trkpt><trkpt lat="45.9472916" lon="13.4324183"><ele>40.0</ele><time>2026-05-03T08:02:05.055Z</time></trkpt><trkpt lat="45.947142" lon="13.4323176"><ele>40.0</ele><time>2026-05-03T08:02:06.056Z</time></trkpt><trkpt lat="45.9469977" lon="13.4322366"><ele>40.0</ele><time>2026-05-03T08:02:07.058Z</time></trkpt><trkpt lat="45.9468625" lon="13.4321565"><ele>40.0</ele><time>2026-05-03T08:02:08.055Z</time></trkpt><trkpt lat="45.9467217" lon="13.4320933"><ele>40.0</ele><time>2026-05-03T08:02:09.056Z</time></trkpt><trkpt lat="45.946585" lon="13.4320423"><ele>40.0</ele><time>2026-05-03T08:02:10.056Z</time></trkpt><trkpt lat="45.9464508" lon="13.4319868"><ele>40.25</ele><time>2026-05-03T08:02:11.066Z</time></trkpt><trkpt lat="45.9463168" lon="13.4318929"><ele>40.5</ele><time>2026-05-03T08:02:12.059Z</time></trkpt><trkpt lat="45.9461891" lon="13.4317889"><ele>40.75</ele><time>2026-05-03T08:02:13.054Z</time></trkpt><trkpt lat="45.9460681" lon="13.4316746"><ele>41.0</ele><time>2026-05-03T08:02:14.06Z</time></trkpt><trkpt lat="45.9459475" lon="13.431544"><ele>41.0</ele><time>2026-05-03T08:02:15.059Z</time></trkpt><trkpt lat="45.9458349" lon="13.4313823"><ele>41.0</ele><time>2026-05-03T08:02:16.061Z</time></trkpt><trkpt lat="45.9457099" lon="13.4311904"><ele>41.0</ele><time>2026-05-03T08:02:17.057Z</time></trkpt><trkpt lat="45.9455872" lon="13.4310007"><ele>41.0</ele><time>2026-05-03T08:02:18.054Z</time></trkpt><trkpt lat="45.9454617" lon="13.4308232"><ele>41.0</ele><time>2026-05-03T08:02:19.058Z</time></trkpt><trkpt lat="45.9453488" lon="13.4306641"><ele>41.0</ele><time>2026-05-03T08:02:20.055Z</time></trkpt><trkpt lat="45.9452461" lon="13.4305222"><ele>40.75</ele><time>2026-05-03T08:02:21.058Z</time></trkpt><trkpt lat="45.9451538" lon="13.4304036"><ele>40.5</ele><time>2026-05-03T08:02:22.052Z</time></trkpt><trkpt lat="45.9450502" lon="13.4303059"><ele>40.25</ele><time>2026-05-03T08:02:23.058Z</time></trkpt><trkpt lat="45.944942" lon="13.4302264"><ele>40.0</ele><time>2026-05-03T08:02:24.053Z</time></trkpt><trkpt lat="45.9448411" lon="13.4301734"><ele>40.0</ele><time>2026-05-03T08:02:25.058Z</time></trkpt><trkpt lat="45.9447458" lon="13.4301255"><ele>40.0</ele><time>2026-05-03T08:02:26.059Z</time></trkpt><trkpt lat="45.944652" lon="13.4301015"><ele>40.0</ele><time>2026-05-03T08:02:27.065Z</time></trkpt><trkpt lat="45.9445536" lon="13.4300939"><ele>40.0</ele><time>2026-05-03T08:02:28.064Z</time></trkpt><trkpt lat="45.9444451" lon="13.430095"><ele>40.0</ele><time>2026-05-03T08:02:29.063Z</time></trkpt><trkpt lat="45.9443249" lon="13.4301008"><ele>39.5</ele><time>2026-05-03T08:02:30.055Z</time></trkpt><trkpt lat="45.944197" lon="13.4301138"><ele>39.0</ele><time>2026-05-03T08:02:31.062Z</time></trkpt><trkpt lat="45.9440604" lon="13.4301367"><ele>38.5</ele><time>2026-05-03T08:02:32.058Z</time></trkpt><trkpt lat="45.9439152" lon="13.4301745"><ele>38.0</ele><time>2026-05-03T08:02:33.059Z</time></trkpt><trkpt lat="45.943754" lon="13.4302365"><ele>38.0</ele><time>2026-05-03T08:02:34.057Z</time></trkpt><trkpt lat="45.9435889" lon="13.4302926"><ele>38.0</ele><time>2026-05-03T08:02:35.06Z</time></trkpt><trkpt lat="45.9434301" lon="13.4303259"><ele>38.0</ele><time>2026-05-03T08:02:36.06Z</time></trkpt><trkpt lat="45.9432963" lon="13.4303571"><ele>37.75</ele><time>2026-05-03T08:02:37.068Z</time></trkpt><trkpt lat="45.9431652" lon="13.4304129"><ele>37.5</ele><time>2026-05-03T08:02:38.061Z</time></trkpt><trkpt lat="45.9430371" lon="13.4304867"><ele>37.25</ele><time>2026-05-03T08:02:39.053Z</time></trkpt><trkpt lat="45.9429217" lon="13.4305736"><ele>37.0</ele><time>2026-05-03T08:02:40.052Z</time></trkpt><trkpt lat="45.94282" lon="13.4306471"><ele>37.5</ele><time>2026-05-03T08:02:41.059Z</time></trkpt><trkpt lat="45.9427095" lon="13.4306896"><ele>38.0</ele><time>2026-05-03T08:02:42.061Z</time></trkpt><trkpt lat="45.9425845" lon="13.4307176"><ele>38.5</ele><time>2026-05-03T08:02:43.056Z</time></trkpt><trkpt lat="45.9424656" lon="13.4307393"><ele>39.0</ele><time>2026-05-03T08:02:44.061Z</time></trkpt><trkpt lat="45.9423572" lon="13.4307315"><ele>39.0</ele><time>2026-05-03T08:02:45.064Z</time></trkpt><trkpt lat="45.9422627" lon="13.4306913"><ele>39.0</ele><time>2026-05-03T08:02:46.062Z</time></trkpt><trkpt lat="45.9421643" lon="13.4306068"><ele>39.0</ele><time>2026-05-03T08:02:47.059Z</time></trkpt><trkpt lat="45.9420649" lon="13.4304917"><ele>39.0</ele><time>2026-05-03T08:02:48.057Z</time></trkpt><trkpt lat="45.9419773" lon="13.4303804"><ele>39.4</ele><time>2026-05-03T08:02:49.057Z</time></trkpt><trkpt lat="45.941915" lon="13.4302757"><ele>39.8</ele><time>2026-05-03T08:02:50.058Z</time></trkpt><trkpt lat="45.9418817" lon="13.4301632"><ele>40.199999999999996</ele><time>2026-05-03T08:02:51.058Z</time></trkpt><trkpt lat="45.9418682" lon="13.4300344"><ele>40.599999999999994</ele><time>2026-05-03T08:02:52.055Z</time></trkpt><trkpt lat="45.9418748" lon="13.4298715"><ele>41.0</ele><time>2026-05-03T08:02:53.06Z</time></trkpt><trkpt lat="45.9418971" lon="13.4296985"><ele>40.8</ele><time>2026-05-03T08:02:54.055Z</time></trkpt><trkpt lat="45.9419179" lon="13.4295285"><ele>40.599999999999994</ele><time>2026-05-03T08:02:55.053Z</time></trkpt><trkpt lat="45.941926" lon="13.4293955"><ele>40.4</ele><time>2026-05-03T08:02:56.058Z</time></trkpt><trkpt lat="45.9418875" lon="13.4292566"><ele>40.2</ele><time>2026-05-03T08:02:58.056Z</time></trkpt><trkpt lat="45.9417957" lon="13.4292791"><ele>40.0</ele><time>2026-05-03T08:03:00.056Z</time></trkpt><trkpt lat="45.9416734" lon="13.4293653"><ele>40.0</ele><time>2026-05-03T08:03:02.064Z</time></trkpt><trkpt lat="45.9415978" lon="13.4294194"><ele>40.0</ele><time>2026-05-03T08:03:03.065Z</time></trkpt><trkpt lat="45.9415181" lon="13.4294794"><ele>40.0</ele><time>2026-05-03T08:03:04.056Z</time></trkpt><trkpt lat="45.9414411" lon="13.4295421"><ele>40.0</ele><time>2026-05-03T08:03:05.06Z</time></trkpt><trkpt lat="45.9413612" lon="13.4296039"><ele>40.0</ele><time>2026-05-03T08:03:06.06Z</time></trkpt><trkpt lat="45.941273" lon="13.4296659"><ele>40.0</ele><time>2026-05-03T08:03:07.059Z</time></trkpt><trkpt lat="45.9411809" lon="13.4297354"><ele>40.0</ele><time>2026-05-03T08:03:08.058Z</time></trkpt><trkpt lat="45.9410818" lon="13.4298107"><ele>40.0</ele><time>2026-05-03T08:03:09.06Z</time></trkpt><trkpt lat="45.9409759" lon="13.4298833"><ele>40.0</ele><time>2026-05-03T08:03:10.066Z</time></trkpt><trkpt lat="45.9408699" lon="13.4299537"><ele>40.0</ele><time>2026-05-03T08:03:11.059Z</time></trkpt><trkpt lat="45.9407663" lon="13.4300291"><ele>40.0</ele><time>2026-05-03T08:03:12.053Z</time></trkpt><trkpt lat="45.9406604" lon="13.4301025"><ele>40.0</ele><time>2026-05-03T08:03:13.06Z</time></trkpt><trkpt lat="45.9405539" lon="13.4301701"><ele>40.0</ele><time>2026-05-03T08:03:14.062Z</time></trkpt><trkpt lat="45.9404496" lon="13.43024"><ele>40.0</ele><time>2026-05-03T08:03:15.056Z</time></trkpt><trkpt lat="45.9403435" lon="13.4303108"><ele>40.0</ele><time>2026-05-03T08:03:16.062Z</time></trkpt><trkpt lat="45.9402356" lon="13.4303814"><ele>40.0</ele><time>2026-05-03T08:03:17.069Z</time></trkpt><trkpt lat="45.9401259" lon="13.4304562"><ele>40.0</ele><time>2026-05-03T08:03:18.066Z</time></trkpt><trkpt lat="45.9400067" lon="13.4305301"><ele>40.0</ele><time>2026-05-03T08:03:19.057Z</time></trkpt><trkpt lat="45.9398852" lon="13.4306054"><ele>40.0</ele><time>2026-05-03T08:03:20.054Z</time></trkpt><trkpt lat="45.9397664" lon="13.4306834"><ele>40.0</ele><time>2026-05-03T08:03:21.071Z</time></trkpt><trkpt lat="45.9396474" lon="13.4307591"><ele>40.0</ele><time>2026-05-03T08:03:22.055Z</time></trkpt><trkpt lat="45.9395338" lon="13.4308375"><ele>40.0</ele><time>2026-05-03T08:03:23.06Z</time></trkpt><trkpt lat="45.9394178" lon="13.4309176"><ele>40.0</ele><time>2026-05-03T08:03:24.063Z</time></trkpt><trkpt lat="45.9393029" lon="13.4309936"><ele>40.0</ele><time>2026-05-03T08:03:25.064Z</time></trkpt><trkpt lat="45.939191" lon="13.4310641"><ele>40.0</ele><time>2026-05-03T08:03:26.055Z</time></trkpt><trkpt lat="45.9390784" lon="13.4311295"><ele>40.0</ele><time>2026-05-03T08:03:27.056Z</time></trkpt><trkpt lat="45.9389709" lon="13.4311959"><ele>40.0</ele><time>2026-05-03T08:03:28.06Z</time></trkpt><trkpt lat="45.9388645" lon="13.4312681"><ele>40.0</ele><time>2026-05-03T08:03:29.061Z</time></trkpt><trkpt lat="45.9387614" lon="13.4313378"><ele>40.0</ele><time>2026-05-03T08:03:30.054Z</time></trkpt><trkpt lat="45.9386609" lon="13.4314033"><ele>40.0</ele><time>2026-05-03T08:03:31.055Z</time></trkpt><trkpt lat="45.9385586" lon="13.4314717"><ele>40.0</ele><time>2026-05-03T08:03:32.055Z</time></trkpt><trkpt lat="45.9384596" lon="13.4315353"><ele>40.0</ele><time>2026-05-03T08:03:33.057Z</time></trkpt><trkpt lat="45.9383616" lon="13.431599"><ele>40.0</ele><time>2026-05-03T08:03:34.056Z</time></trkpt><trkpt lat="45.938269" lon="13.4316613"><ele>40.0</ele><time>2026-05-03T08:03:35.054Z</time></trkpt><trkpt lat="45.9381843" lon="13.4317223"><ele>39.4</ele><time>2026-05-03T08:03:36.063Z</time></trkpt><trkpt lat="45.9381015" lon="13.4317785"><ele>38.8</ele><time>2026-05-03T08:03:37.061Z</time></trkpt><trkpt lat="45.9380212" lon="13.4318302"><ele>38.2</ele><time>2026-05-03T08:03:38.067Z</time></trkpt><trkpt lat="45.9379361" lon="13.4318829"><ele>37.6</ele><time>2026-05-03T08:03:39.07Z</time></trkpt><trkpt lat="45.9378466" lon="13.4319388"><ele>37.0</ele><time>2026-05-03T08:03:40.054Z</time></trkpt><trkpt lat="45.9377543" lon="13.4320004"><ele>37.0</ele><time>2026-05-03T08:03:41.054Z</time></trkpt><trkpt lat="45.9376625" lon="13.4320611"><ele>37.0</ele><time>2026-05-03T08:03:42.064Z</time></trkpt><trkpt lat="45.9375623" lon="13.432124"><ele>37.0</ele><time>2026-05-03T08:03:43.068Z</time></trkpt><trkpt lat="45.9374555" lon="13.4321915"><ele>37.0</ele><time>2026-05-03T08:03:44.055Z</time></trkpt><trkpt lat="45.9373459" lon="13.432262"><ele>37.0</ele><time>2026-05-03T08:03:45.057Z</time></trkpt><trkpt lat="45.9372295" lon="13.4323346"><ele>37.5</ele><time>2026-05-03T08:03:46.06Z</time></trkpt><trkpt lat="45.9371098" lon="13.4324157"><ele>38.0</ele><time>2026-05-03T08:03:47.051Z</time></trkpt><trkpt lat="45.9369877" lon="13.4324996"><ele>38.5</ele><time>2026-05-03T08:03:48.062Z</time></trkpt><trkpt lat="45.9368586" lon="13.4325776"><ele>39.0</ele><time>2026-05-03T08:03:49.058Z</time></trkpt><trkpt lat="45.9367213" lon="13.4326626"><ele>39.0</ele><time>2026-05-03T08:03:50.055Z</time></trkpt><trkpt lat="45.9365809" lon="13.4327626"><ele>39.0</ele><time>2026-05-03T08:03:51.063Z</time></trkpt><trkpt lat="45.9364392" lon="13.4328536"><ele>39.0</ele><time>2026-05-03T08:03:52.059Z</time></trkpt><trkpt lat="45.9363042" lon="13.4329447"><ele>39.25</ele><time>2026-05-03T08:03:53.058Z</time></trkpt><trkpt lat="45.9361711" lon="13.4330371"><ele>39.5</ele><time>2026-05-03T08:03:54.055Z</time></trkpt><trkpt lat="45.9360445" lon="13.4331267"><ele>39.75</ele><time>2026-05-03T08:03:55.066Z</time></trkpt><trkpt lat="45.9359118" lon="13.433217"><ele>40.0</ele><time>2026-05-03T08:03:56.059Z</time></trkpt><trkpt lat="45.9357856" lon="13.4333054"><ele>40.0</ele><time>2026-05-03T08:03:57.059Z</time></trkpt><trkpt lat="45.9356599" lon="13.433395"><ele>40.0</ele><time>2026-05-03T08:03:58.054Z</time></trkpt><trkpt lat="45.9355344" lon="13.4334716"><ele>40.0</ele><time>2026-05-03T08:03:59.052Z</time></trkpt><trkpt lat="45.9354149" lon="13.4335479"><ele>40.0</ele><time>2026-05-03T08:04:00.063Z</time></trkpt><trkpt lat="45.9352914" lon="13.4336119"><ele>40.0</ele><time>2026-05-03T08:04:01.054Z</time></trkpt><trkpt lat="45.9351732" lon="13.4336877"><ele>40.0</ele><time>2026-05-03T08:04:02.055Z</time></trkpt><trkpt lat="45.9350493" lon="13.433773"><ele>40.0</ele><time>2026-05-03T08:04:03.054Z</time></trkpt><trkpt lat="45.9349103" lon="13.4338601"><ele>40.0</ele><time>2026-05-03T08:04:04.06Z</time></trkpt><trkpt lat="45.9347774" lon="13.433949"><ele>39.0</ele><time>2026-05-03T08:04:05.054Z</time></trkpt><trkpt lat="45.9346402" lon="13.4340371"><ele>38.0</ele><time>2026-05-03T08:04:06.059Z</time></trkpt><trkpt lat="45.9344998" lon="13.4341334"><ele>37.0</ele><time>2026-05-03T08:04:07.052Z</time></trkpt><trkpt lat="45.9343643" lon="13.4342246"><ele>37.0</ele><time>2026-05-03T08:04:08.061Z</time></trkpt><trkpt lat="45.9342263" lon="13.4343251"><ele>37.0</ele><time>2026-05-03T08:04:09.061Z</time></trkpt><trkpt lat="45.9340838" lon="13.4344068"><ele>37.0</ele><time>2026-05-03T08:04:10.055Z</time></trkpt><trkpt lat="45.9339505" lon="13.4344851"><ele>37.0</ele><time>2026-05-03T08:04:11.064Z</time></trkpt><trkpt lat="45.9337958" lon="13.4345815"><ele>37.0</ele><time>2026-05-03T08:04:12.057Z</time></trkpt><trkpt lat="45.933648" lon="13.4346795"><ele>37.0</ele><time>2026-05-03T08:04:13.052Z</time></trkpt><trkpt lat="45.9335216" lon="13.4347708"><ele>37.333333333333336</ele><time>2026-05-03T08:04:14.057Z</time></trkpt><trkpt lat="45.9333749" lon="13.4348636"><ele>37.666666666666664</ele><time>2026-05-03T08:04:15.059Z</time></trkpt><trkpt lat="45.9332376" lon="13.4349647"><ele>38.0</ele><time>2026-05-03T08:04:16.07Z</time></trkpt><trkpt lat="45.9331025" lon="13.4350512"><ele>38.0</ele><time>2026-05-03T08:04:17.061Z</time></trkpt><trkpt lat="45.9329657" lon="13.4351377"><ele>38.0</ele><time>2026-05-03T08:04:18.061Z</time></trkpt><trkpt lat="45.9328249" lon="13.4352269"><ele>38.0</ele><time>2026-05-03T08:04:19.065Z</time></trkpt><trkpt lat="45.9327038" lon="13.4353088"><ele>38.0</ele><time>2026-05-03T08:04:20.055Z</time></trkpt><trkpt lat="45.9325897" lon="13.4353933"><ele>37.75</ele><time>2026-05-03T08:04:21.054Z</time></trkpt><trkpt lat="45.9324741" lon="13.4354618"><ele>37.5</ele><time>2026-05-03T08:04:22.057Z</time></trkpt><trkpt lat="45.932349" lon="13.4355338"><ele>37.25</ele><time>2026-05-03T08:04:23.054Z</time></trkpt><trkpt lat="45.9322233" lon="13.4355998"><ele>37.0</ele><time>2026-05-03T08:04:24.055Z</time></trkpt><trkpt lat="45.9321106" lon="13.4356617"><ele>37.0</ele><time>2026-05-03T08:04:25.059Z</time></trkpt><trkpt lat="45.9320138" lon="13.4357402"><ele>37.0</ele><time>2026-05-03T08:04:26.056Z</time></trkpt><trkpt lat="45.9319213" lon="13.4358063"><ele>37.0</ele><time>2026-05-03T08:04:27.059Z</time></trkpt><trkpt lat="45.9318312" lon="13.4358819"><ele>37.0</ele><time>2026-05-03T08:04:28.059Z</time></trkpt><trkpt lat="45.9317631" lon="13.4359283"><ele>37.0</ele><time>2026-05-03T08:04:29.061Z</time></trkpt><trkpt lat="45.9317041" lon="13.4359703"><ele>37.4</ele><time>2026-05-03T08:04:30.065Z</time></trkpt><trkpt lat="45.9316057" lon="13.4360603"><ele>37.800000000000004</ele><time>2026-05-03T08:04:32.063Z</time></trkpt><trkpt lat="45.9315309" lon="13.4361188"><ele>38.2</ele><time>2026-05-03T08:04:34.05Z</time></trkpt><trkpt lat="45.9314545" lon="13.4360882"><ele>38.6</ele><time>2026-05-03T08:04:37.054Z</time></trkpt><trkpt lat="45.9314168" lon="13.4359894"><ele>39.0</ele><time>2026-05-03T08:04:39.061Z</time></trkpt><trkpt lat="45.9313647" lon="13.4358393"><ele>39.0</ele><time>2026-05-03T08:04:41.058Z</time></trkpt><trkpt lat="45.9313318" lon="13.4357498"><ele>39.0</ele><time>2026-05-03T08:04:42.057Z</time></trkpt><trkpt lat="45.9312951" lon="13.4356447"><ele>39.0</ele><time>2026-05-03T08:04:43.063Z</time></trkpt><trkpt lat="45.9312515" lon="13.4355348"><ele>39.0</ele><time>2026-05-03T08:04:44.052Z</time></trkpt><trkpt lat="45.9312073" lon="13.4354159"><ele>39.0</ele><time>2026-05-03T08:04:45.056Z</time></trkpt><trkpt lat="45.9311662" lon="13.4352967"><ele>39.0</ele><time>2026-05-03T08:04:46.058Z</time></trkpt><trkpt lat="45.9311238" lon="13.4351772"><ele>38.8</ele><time>2026-05-03T08:04:47.061Z</time></trkpt><trkpt lat="45.931085" lon="13.4350474"><ele>38.599999999999994</ele><time>2026-05-03T08:04:48.058Z</time></trkpt><trkpt lat="45.9310413" lon="13.4349166"><ele>38.4</ele><time>2026-05-03T08:04:49.063Z</time></trkpt><trkpt lat="45.9309963" lon="13.434779"><ele>38.199999999999996</ele><time>2026-05-03T08:04:50.046Z</time></trkpt><trkpt lat="45.9309472" lon="13.4346334"><ele>38.0</ele><time>2026-05-03T08:04:51.052Z</time></trkpt><trkpt lat="45.9308959" lon="13.4344823"><ele>39.0</ele><time>2026-05-03T08:04:52.053Z</time></trkpt><trkpt lat="45.930847" lon="13.4343237"><ele>40.0</ele><time>2026-05-03T08:04:53.059Z</time></trkpt><trkpt lat="45.9307959" lon="13.4341613"><ele>41.0</ele><time>2026-05-03T08:04:54.062Z</time></trkpt><trkpt lat="45.9307495" lon="13.4339945"><ele>42.0</ele><time>2026-05-03T08:04:55.058Z</time></trkpt><trkpt lat="45.9307004" lon="13.4338376"><ele>40.75</ele><time>2026-05-03T08:04:56.05Z</time></trkpt><trkpt lat="45.9306527" lon="13.4336805"><ele>39.5</ele><time>2026-05-03T08:04:57.052Z</time></trkpt><trkpt lat="45.9306052" lon="13.4335236"><ele>38.25</ele><time>2026-05-03T08:04:58.059Z</time></trkpt><trkpt lat="45.9305568" lon="13.4333613"><ele>37.0</ele><time>2026-05-03T08:04:59.059Z</time></trkpt><trkpt lat="45.930508" lon="13.4331956"><ele>37.0</ele><time>2026-05-03T08:05:00.053Z</time></trkpt><trkpt lat="45.930458" lon="13.4330318"><ele>37.0</ele><time>2026-05-03T08:05:01.061Z</time></trkpt><trkpt lat="45.9304039" lon="13.432867"><ele>37.0</ele><time>2026-05-03T08:05:02.059Z</time></trkpt><trkpt lat="45.9303484" lon="13.4326972"><ele>37.0</ele><time>2026-05-03T08:05:03.065Z</time></trkpt><trkpt lat="45.9302894" lon="13.4325311"><ele>36.5</ele><time>2026-05-03T08:05:04.066Z</time></trkpt><trkpt lat="45.9302329" lon="13.4323663"><ele>36.0</ele><time>2026-05-03T08:05:05.052Z</time></trkpt><trkpt lat="45.9301742" lon="13.4322006"><ele>35.5</ele><time>2026-05-03T08:05:06.061Z</time></trkpt><trkpt lat="45.9301184" lon="13.4320295"><ele>35.0</ele><time>2026-05-03T08:05:07.053Z</time></trkpt><trkpt lat="45.9300646" lon="13.4318643"><ele>36.0</ele><time>2026-05-03T08:05:08.053Z</time></trkpt><trkpt lat="45.9300126" lon="13.4316963"><ele>37.0</ele><time>2026-05-03T08:05:09.05Z</time></trkpt><trkpt lat="45.9299671" lon="13.4315203"><ele>38.0</ele><time>2026-05-03T08:05:10.05Z</time></trkpt><trkpt lat="45.9299163" lon="13.4313442"><ele>39.0</ele><time>2026-05-03T08:05:11.056Z</time></trkpt><trkpt lat="45.9298596" lon="13.4311692"><ele>39.0</ele><time>2026-05-03T08:05:12.058Z</time></trkpt><trkpt lat="45.929795" lon="13.4309892"><ele>39.0</ele><time>2026-05-03T08:05:13.06Z</time></trkpt><trkpt lat="45.929718" lon="13.4308078"><ele>39.0</ele><time>2026-05-03T08:05:14.053Z</time></trkpt><trkpt lat="45.9296225" lon="13.4306251"><ele>39.0</ele><time>2026-05-03T08:05:15.052Z</time></trkpt><trkpt lat="45.9295192" lon="13.4304386"><ele>39.0</ele><time>2026-05-03T08:05:16.059Z</time></trkpt><trkpt lat="45.9294112" lon="13.4302484"><ele>39.0</ele><time>2026-05-03T08:05:17.058Z</time></trkpt><trkpt lat="45.9292982" lon="13.4300478"><ele>39.0</ele><time>2026-05-03T08:05:18.062Z</time></trkpt><trkpt lat="45.9291872" lon="13.4298523"><ele>39.0</ele><time>2026-05-03T08:05:19.053Z</time></trkpt><trkpt lat="45.9290835" lon="13.4296558"><ele>39.0</ele><time>2026-05-03T08:05:20.053Z</time></trkpt><trkpt lat="45.9289776" lon="13.4294666"><ele>39.0</ele><time>2026-05-03T08:05:21.059Z</time></trkpt><trkpt lat="45.9288726" lon="13.4292697"><ele>38.333333333333336</ele><time>2026-05-03T08:05:22.057Z</time></trkpt><trkpt lat="45.9287725" lon="13.4290808"><ele>37.66666666666667</ele><time>2026-05-03T08:05:23.056Z</time></trkpt><trkpt lat="45.9286701" lon="13.4288817"><ele>37.0</ele><time>2026-05-03T08:05:24.054Z</time></trkpt><trkpt lat="45.9285694" lon="13.4286842"><ele>37.0</ele><time>2026-05-03T08:05:25.058Z</time></trkpt><trkpt lat="45.9284625" lon="13.4284883"><ele>37.0</ele><time>2026-05-03T08:05:26.052Z</time></trkpt><trkpt lat="45.9283681" lon="13.4283059"><ele>37.0</ele><time>2026-05-03T08:05:27.06Z</time></trkpt><trkpt lat="45.9282692" lon="13.4281261"><ele>37.25</ele><time>2026-05-03T08:05:28.055Z</time></trkpt><trkpt lat="45.9281852" lon="13.4279564"><ele>37.5</ele><time>2026-05-03T08:05:29.047Z</time></trkpt><trkpt lat="45.9281068" lon="13.4277745"><ele>37.75</ele><time>2026-05-03T08:05:30.052Z</time></trkpt><trkpt lat="45.9280299" lon="13.427599"><ele>38.0</ele><time>2026-05-03T08:05:31.058Z</time></trkpt><trkpt lat="45.9279585" lon="13.4274255"><ele>38.0</ele><time>2026-05-03T08:05:32.056Z</time></trkpt><trkpt lat="45.9278922" lon="13.4272581"><ele>38.0</ele><time>2026-05-03T08:05:33.056Z</time></trkpt><trkpt lat="45.9278205" lon="13.4270899"><ele>38.0</ele><time>2026-05-03T08:05:34.061Z</time></trkpt><trkpt lat="45.9277389" lon="13.4269288"><ele>38.0</ele><time>2026-05-03T08:05:35.059Z</time></trkpt><trkpt lat="45.9276573" lon="13.4267433"><ele>38.0</ele><time>2026-05-03T08:05:36.055Z</time></trkpt><trkpt lat="45.9275949" lon="13.4265316"><ele>38.0</ele><time>2026-05-03T08:05:37.055Z</time></trkpt><trkpt lat="45.9275328" lon="13.4263339"><ele>38.0</ele><time>2026-05-03T08:05:38.055Z</time></trkpt><trkpt lat="45.9274752" lon="13.4261271"><ele>38.0</ele><time>2026-05-03T08:05:39.05Z</time></trkpt><trkpt lat="45.927406" lon="13.4259322"><ele>38.0</ele><time>2026-05-03T08:05:40.055Z</time></trkpt><trkpt lat="45.9273442" lon="13.4257307"><ele>38.0</ele><time>2026-05-03T08:05:41.057Z</time></trkpt><trkpt lat="45.9272732" lon="13.4255458"><ele>37.75</ele><time>2026-05-03T08:05:42.056Z</time></trkpt><trkpt lat="45.9272005" lon="13.4253762"><ele>37.5</ele><time>2026-05-03T08:05:43.069Z</time></trkpt><trkpt lat="45.9271388" lon="13.4251986"><ele>37.25</ele><time>2026-05-03T08:05:44.06Z</time></trkpt><trkpt lat="45.9270697" lon="13.4250291"><ele>37.0</ele><time>2026-05-03T08:05:45.054Z</time></trkpt><trkpt lat="45.9270042" lon="13.4248725"><ele>37.0</ele><time>2026-05-03T08:05:46.058Z</time></trkpt><trkpt lat="45.9269343" lon="13.4247387"><ele>37.0</ele><time>2026-05-03T08:05:47.059Z</time></trkpt><trkpt lat="45.9268503" lon="13.4246139"><ele>37.0</ele><time>2026-05-03T08:05:48.053Z</time></trkpt><trkpt lat="45.9267424" lon="13.4245429"><ele>37.0</ele><time>2026-05-03T08:05:49.064Z</time></trkpt><trkpt lat="45.9266149" lon="13.4244737"><ele>36.66666666666667</ele><time>2026-05-03T08:05:50.053Z</time></trkpt><trkpt lat="45.9264498" lon="13.4244187"><ele>36.333333333333336</ele><time>2026-05-03T08:05:51.058Z</time></trkpt><trkpt lat="45.9263009" lon="13.424329"><ele>36.0</ele><time>2026-05-03T08:05:52.055Z</time></trkpt><trkpt lat="45.9261652" lon="13.4241978"><ele>36.0</ele><time>2026-05-03T08:05:53.055Z</time></trkpt><trkpt lat="45.9260298" lon="13.4240389"><ele>36.0</ele><time>2026-05-03T08:05:54.052Z</time></trkpt><trkpt lat="45.9259066" lon="13.4238852"><ele>36.0</ele><time>2026-05-03T08:05:55.055Z</time></trkpt><trkpt lat="45.9257996" lon="13.4237457"><ele>36.75</ele><time>2026-05-03T08:05:56.053Z</time></trkpt><trkpt lat="45.9257097" lon="13.4236108"><ele>37.5</ele><time>2026-05-03T08:05:57.053Z</time></trkpt><trkpt lat="45.9256274" lon="13.4234536"><ele>38.25</ele><time>2026-05-03T08:05:58.053Z</time></trkpt><trkpt lat="45.9255488" lon="13.4232661"><ele>39.0</ele><time>2026-05-03T08:05:59.048Z</time></trkpt><trkpt lat="45.925456" lon="13.4230409"><ele>37.666666666666664</ele><time>2026-05-03T08:06:00.051Z</time></trkpt><trkpt lat="45.9253665" lon="13.4228095"><ele>36.33333333333333</ele><time>2026-05-03T08:06:01.056Z</time></trkpt><trkpt lat="45.9252796" lon="13.4225685"><ele>35.0</ele><time>2026-05-03T08:06:02.051Z</time></trkpt><trkpt lat="45.9251863" lon="13.4223395"><ele>34.0</ele><time>2026-05-03T08:06:03.067Z</time></trkpt><trkpt lat="45.9250974" lon="13.4221001"><ele>33.0</ele><time>2026-05-03T08:06:04.062Z</time></trkpt><trkpt lat="45.9250078" lon="13.4218837"><ele>32.0</ele><time>2026-05-03T08:06:05.057Z</time></trkpt><trkpt lat="45.9249171" lon="13.421662"><ele>32.666666666666664</ele><time>2026-05-03T08:06:06.063Z</time></trkpt><trkpt lat="45.9248274" lon="13.4214366"><ele>33.333333333333336</ele><time>2026-05-03T08:06:07.051Z</time></trkpt><trkpt lat="45.9247409" lon="13.4212052"><ele>34.0</ele><time>2026-05-03T08:06:08.053Z</time></trkpt><trkpt lat="45.924657" lon="13.4209768"><ele>34.0</ele><time>2026-05-03T08:06:09.053Z</time></trkpt><trkpt lat="45.9245714" lon="13.4207636"><ele>34.0</ele><time>2026-05-03T08:06:10.058Z</time></trkpt><trkpt lat="45.9244874" lon="13.4205528"><ele>34.0</ele><time>2026-05-03T08:06:11.056Z</time></trkpt><trkpt lat="45.9244016" lon="13.4203366"><ele>33.66666666666667</ele><time>2026-05-03T08:06:12.059Z</time></trkpt><trkpt lat="45.924311" lon="13.4201257"><ele>33.333333333333336</ele><time>2026-05-03T08:06:13.052Z</time></trkpt><trkpt lat="45.9242355" lon="13.4199094"><ele>33.0</ele><time>2026-05-03T08:06:14.055Z</time></trkpt><trkpt lat="45.9241553" lon="13.4196941"><ele>33.666666666666664</ele><time>2026-05-03T08:06:15.061Z</time></trkpt><trkpt lat="45.9240879" lon="13.4194791"><ele>34.33333333333333</ele><time>2026-05-03T08:06:16.052Z</time></trkpt><trkpt lat="45.9240054" lon="13.4192695"><ele>35.0</ele><time>2026-05-03T08:06:17.059Z</time></trkpt><trkpt lat="45.9239267" lon="13.419068"><ele>35.0</ele><time>2026-05-03T08:06:18.062Z</time></trkpt><trkpt lat="45.9238487" lon="13.4188782"><ele>35.0</ele><time>2026-05-03T08:06:19.059Z</time></trkpt><trkpt lat="45.9237617" lon="13.4186751"><ele>35.0</ele><time>2026-05-03T08:06:20.056Z</time></trkpt><trkpt lat="45.9236517" lon="13.4184821"><ele>34.0</ele><time>2026-05-03T08:06:21.063Z</time></trkpt><trkpt lat="45.9235197" lon="13.418282"><ele>33.0</ele><time>2026-05-03T08:06:22.054Z</time></trkpt><trkpt lat="45.9233794" lon="13.4180912"><ele>32.0</ele><time>2026-05-03T08:06:23.05Z</time></trkpt><trkpt lat="45.9232667" lon="13.4178815"><ele>32.0</ele><time>2026-05-03T08:06:24.049Z</time></trkpt><trkpt lat="45.9231688" lon="13.4176932"><ele>32.0</ele><time>2026-05-03T08:06:25.062Z</time></trkpt><trkpt lat="45.9230872" lon="13.4175385"><ele>32.0</ele><time>2026-05-03T08:06:26.058Z</time></trkpt><trkpt lat="45.9230216" lon="13.4173986"><ele>32.0</ele><time>2026-05-03T08:06:27.052Z</time></trkpt><trkpt lat="45.9229728" lon="13.417263"><ele>31.8</ele><time>2026-05-03T08:06:28.059Z</time></trkpt><trkpt lat="45.9229156" lon="13.4171371"><ele>31.6</ele><time>2026-05-03T08:06:29.054Z</time></trkpt><trkpt lat="45.9228488" lon="13.4170194"><ele>31.400000000000002</ele><time>2026-05-03T08:06:30.053Z</time></trkpt><trkpt lat="45.9227753" lon="13.4168845"><ele>31.200000000000003</ele><time>2026-05-03T08:06:31.05Z</time></trkpt><trkpt lat="45.9227076" lon="13.4167454"><ele>31.0</ele><time>2026-05-03T08:06:32.061Z</time></trkpt><trkpt lat="45.9226396" lon="13.4166096"><ele>31.0</ele><time>2026-05-03T08:06:33.051Z</time></trkpt><trkpt lat="45.9225747" lon="13.4164806"><ele>31.0</ele><time>2026-05-03T08:06:34.054Z</time></trkpt><trkpt lat="45.9225176" lon="13.4163525"><ele>31.0</ele><time>2026-05-03T08:06:35.059Z</time></trkpt><trkpt lat="45.9224606" lon="13.4162251"><ele>31.0</ele><time>2026-05-03T08:06:36.053Z</time></trkpt><trkpt lat="45.9224044" lon="13.4160982"><ele>31.0</ele><time>2026-05-03T08:06:37.052Z</time></trkpt><trkpt lat="45.9223503" lon="13.4159761"><ele>31.0</ele><time>2026-05-03T08:06:38.052Z</time></trkpt><trkpt lat="45.9223008" lon="13.4158515"><ele>31.0</ele><time>2026-05-03T08:06:39.055Z</time></trkpt><trkpt lat="45.9222484" lon="13.4157327"><ele>31.0</ele><time>2026-05-03T08:06:40.052Z</time></trkpt><trkpt lat="45.9221938" lon="13.4156274"><ele>31.0</ele><time>2026-05-03T08:06:41.059Z</time></trkpt><trkpt lat="45.9221392" lon="13.4155298"><ele>31.0</ele><time>2026-05-03T08:06:42.051Z</time></trkpt><trkpt lat="45.9220936" lon="13.4154348"><ele>31.0</ele><time>2026-05-03T08:06:43.065Z</time></trkpt><trkpt lat="45.9220524" lon="13.4153465"><ele>31.000000000000004</ele><time>2026-05-03T08:06:44.057Z</time></trkpt><trkpt lat="45.9220109" lon="13.415263"><ele>31.0</ele><time>2026-05-03T08:06:45.054Z</time></trkpt><trkpt lat="45.9219704" lon="13.4151786"><ele>31.0</ele><time>2026-05-03T08:06:46.052Z</time></trkpt><trkpt lat="45.9219339" lon="13.4150961"><ele>31.000000000000004</ele><time>2026-05-03T08:06:47.055Z</time></trkpt><trkpt lat="45.9218949" lon="13.4150183"><ele>31.0</ele><time>2026-05-03T08:06:48.052Z</time></trkpt><trkpt lat="45.9218597" lon="13.4149421"><ele>31.0</ele><time>2026-05-03T08:06:49.061Z</time></trkpt><trkpt lat="45.9218227" lon="13.4148643"><ele>31.0</ele><time>2026-05-03T08:06:50.052Z</time></trkpt><trkpt lat="45.9217819" lon="13.4147835"><ele>31.000000000000004</ele><time>2026-05-03T08:06:51.061Z</time></trkpt><trkpt lat="45.9217406" lon="13.4147016"><ele>31.0</ele><time>2026-05-03T08:06:52.053Z</time></trkpt><trkpt lat="45.9216978" lon="13.4146253"><ele>31.0</ele><time>2026-05-03T08:06:53.053Z</time></trkpt><trkpt lat="45.9216507" lon="13.4145551"><ele>31.000000000000004</ele><time>2026-05-03T08:06:54.056Z</time></trkpt><trkpt lat="45.9215976" lon="13.4144931"><ele>31.0</ele><time>2026-05-03T08:06:55.061Z</time></trkpt><trkpt lat="45.9215422" lon="13.4144308"><ele>31.0</ele><time>2026-05-03T08:06:56.06Z</time></trkpt><trkpt lat="45.9214856" lon="13.4143683"><ele>31.000000000000004</ele><time>2026-05-03T08:06:57.055Z</time></trkpt><trkpt lat="45.9214254" lon="13.4142954"><ele>31.0</ele><time>2026-05-03T08:06:58.057Z</time></trkpt><trkpt lat="45.9213604" lon="13.41422"><ele>31.0</ele><time>2026-05-03T08:06:59.059Z</time></trkpt><trkpt lat="45.9212893" lon="13.4141395"><ele>31.0</ele><time>2026-05-03T08:07:00.054Z</time></trkpt><trkpt lat="45.9212165" lon="13.4140533"><ele>31.000000000000004</ele><time>2026-05-03T08:07:01.057Z</time></trkpt><trkpt lat="45.9211466" lon="13.4139667"><ele>31.0</ele><time>2026-05-03T08:07:02.051Z</time></trkpt><trkpt lat="45.9210734" lon="13.4138744"><ele>31.000000000000004</ele><time>2026-05-03T08:07:03.059Z</time></trkpt><trkpt lat="45.9209997" lon="13.4137912"><ele>31.0</ele><time>2026-05-03T08:07:04.057Z</time></trkpt><trkpt lat="45.9209175" lon="13.4137217"><ele>31.0</ele><time>2026-05-03T08:07:05.062Z</time></trkpt><trkpt lat="45.9208346" lon="13.4136611"><ele>31.0</ele><time>2026-05-03T08:07:06.055Z</time></trkpt><trkpt lat="45.9207571" lon="13.4136246"><ele>31.000000000000004</ele><time>2026-05-03T08:07:07.066Z</time></trkpt><trkpt lat="45.9206921" lon="13.4136046"><ele>31.0</ele><time>2026-05-03T08:07:08.055Z</time></trkpt><trkpt lat="45.9205816" lon="13.4136052"><ele>31.166666666666668</ele><time>2026-05-03T08:07:10.054Z</time></trkpt><trkpt lat="45.9204822" lon="13.4136028"><ele>31.333333333333336</ele><time>2026-05-03T08:07:12.06Z</time></trkpt><trkpt lat="45.9204193" lon="13.4135927"><ele>31.5</ele><time>2026-05-03T08:07:13.06Z</time></trkpt><trkpt lat="45.920355" lon="13.4135743"><ele>31.666666666666664</ele><time>2026-05-03T08:07:14.056Z</time></trkpt><trkpt lat="45.9202818" lon="13.4135556"><ele>31.833333333333332</ele><time>2026-05-03T08:07:15.053Z</time></trkpt><trkpt lat="45.9201993" lon="13.4135507"><ele>32.0</ele><time>2026-05-03T08:07:16.059Z</time></trkpt><trkpt lat="45.9201196" lon="13.413558"><ele>32.0</ele><time>2026-05-03T08:07:17.053Z</time></trkpt><trkpt lat="45.9200324" lon="13.4135802"><ele>32.0</ele><time>2026-05-03T08:07:18.058Z</time></trkpt><trkpt lat="45.9199433" lon="13.4136124"><ele>32.0</ele><time>2026-05-03T08:07:19.057Z</time></trkpt><trkpt lat="45.9198405" lon="13.4136643"><ele>32.0</ele><time>2026-05-03T08:07:20.056Z</time></trkpt><trkpt lat="45.9197312" lon="13.4137255"><ele>32.0</ele><time>2026-05-03T08:07:21.059Z</time></trkpt><trkpt lat="45.9196199" lon="13.4137896"><ele>32.25</ele><time>2026-05-03T08:07:22.055Z</time></trkpt><trkpt lat="45.9195082" lon="13.4138555"><ele>32.5</ele><time>2026-05-03T08:07:23.053Z</time></trkpt><trkpt lat="45.9193984" lon="13.4139234"><ele>32.75</ele><time>2026-05-03T08:07:24.056Z</time></trkpt><trkpt lat="45.9192831" lon="13.4139907"><ele>33.0</ele><time>2026-05-03T08:07:25.052Z</time></trkpt><trkpt lat="45.9191691" lon="13.4140583"><ele>33.0</ele><time>2026-05-03T08:07:26.06Z</time></trkpt><trkpt lat="45.9190518" lon="13.4141241"><ele>33.0</ele><time>2026-05-03T08:07:27.054Z</time></trkpt><trkpt lat="45.9189412" lon="13.4141891"><ele>33.0</ele><time>2026-05-03T08:07:28.051Z</time></trkpt><trkpt lat="45.9188329" lon="13.4142673"><ele>33.0</ele><time>2026-05-03T08:07:29.058Z</time></trkpt><trkpt lat="45.918732" lon="13.4143653"><ele>33.0</ele><time>2026-05-03T08:07:30.056Z</time></trkpt><trkpt lat="45.918639" lon="13.4144819"><ele>33.0</ele><time>2026-05-03T08:07:31.062Z</time></trkpt><trkpt lat="45.9185561" lon="13.414613"><ele>33.0</ele><time>2026-05-03T08:07:32.061Z</time></trkpt><trkpt lat="45.9184888" lon="13.4147514"><ele>33.0</ele><time>2026-05-03T08:07:33.055Z</time></trkpt><trkpt lat="45.9184238" lon="13.4148875"><ele>32.8</ele><time>2026-05-03T08:07:34.053Z</time></trkpt><trkpt lat="45.9183598" lon="13.4150155"><ele>32.599999999999994</ele><time>2026-05-03T08:07:35.06Z</time></trkpt><trkpt lat="45.918302" lon="13.4151309"><ele>32.400000000000006</ele><time>2026-05-03T08:07:36.054Z</time></trkpt><trkpt lat="45.9182489" lon="13.4152374"><ele>32.2</ele><time>2026-05-03T08:07:37.051Z</time></trkpt><trkpt lat="45.9181989" lon="13.415329"><ele>32.0</ele><time>2026-05-03T08:07:38.057Z</time></trkpt><trkpt lat="45.9181399" lon="13.4154424"><ele>32.2</ele><time>2026-05-03T08:07:40.052Z</time></trkpt><trkpt lat="45.9181102" lon="13.415604"><ele>32.400000000000006</ele><time>2026-05-03T08:07:43.053Z</time></trkpt><trkpt lat="45.9181129" lon="13.4157159"><ele>32.599999999999994</ele><time>2026-05-03T08:07:44.053Z</time></trkpt><trkpt lat="45.9181215" lon="13.4158596"><ele>32.8</ele><time>2026-05-03T08:07:45.053Z</time></trkpt><trkpt lat="45.9181263" lon="13.4160292"><ele>33.0</ele><time>2026-05-03T08:07:46.052Z</time></trkpt><trkpt lat="45.9181323" lon="13.4162108"><ele>33.5</ele><time>2026-05-03T08:07:47.064Z</time></trkpt><trkpt lat="45.9181386" lon="13.4163917"><ele>34.0</ele><time>2026-05-03T08:07:48.061Z</time></trkpt><trkpt lat="45.9181457" lon="13.4165721"><ele>34.5</ele><time>2026-05-03T08:07:49.057Z</time></trkpt><trkpt lat="45.9181596" lon="13.4167513"><ele>35.0</ele><time>2026-05-03T08:07:50.062Z</time></trkpt><trkpt lat="45.9181866" lon="13.4169301"><ele>35.0</ele><time>2026-05-03T08:07:51.052Z</time></trkpt><trkpt lat="45.9182287" lon="13.417103"><ele>35.0</ele><time>2026-05-03T08:07:52.052Z</time></trkpt><trkpt lat="45.9182761" lon="13.4172746"><ele>35.0</ele><time>2026-05-03T08:07:53.053Z</time></trkpt><trkpt lat="45.9183279" lon="13.417445"><ele>35.0</ele><time>2026-05-03T08:07:54.055Z</time></trkpt><trkpt lat="45.9183799" lon="13.417616"><ele>38.75</ele><time>2026-05-03T08:07:55.05Z</time></trkpt><trkpt lat="45.9184268" lon="13.4177847"><ele>42.5</ele><time>2026-05-03T08:07:56.056Z</time></trkpt><trkpt lat="45.9184548" lon="13.4179597"><ele>46.25</ele><time>2026-05-03T08:07:57.058Z</time></trkpt><trkpt lat="45.9184691" lon="13.4181269"><ele>50.0</ele><time>2026-05-03T08:07:58.052Z</time></trkpt><trkpt lat="45.9184762" lon="13.4182879"><ele>50.0</ele><time>2026-05-03T08:07:59.051Z</time></trkpt><trkpt lat="45.9184648" lon="13.4184486"><ele>50.0</ele><time>2026-05-03T08:08:00.048Z</time></trkpt><trkpt lat="45.9184453" lon="13.4186093"><ele>50.0</ele><time>2026-05-03T08:08:01.053Z</time></trkpt><trkpt lat="45.9184263" lon="13.4187799"><ele>50.0</ele><time>2026-05-03T08:08:02.058Z</time></trkpt><trkpt lat="45.9184111" lon="13.4189525"><ele>46.0</ele><time>2026-05-03T08:08:03.061Z</time></trkpt><trkpt lat="45.9183958" lon="13.4191345"><ele>42.0</ele><time>2026-05-03T08:08:04.064Z</time></trkpt><trkpt lat="45.9183816" lon="13.4193227"><ele>38.0</ele><time>2026-05-03T08:08:05.061Z</time></trkpt><trkpt lat="45.9183638" lon="13.4195139"><ele>34.0</ele><time>2026-05-03T08:08:06.049Z</time></trkpt><trkpt lat="45.9183428" lon="13.4197056"><ele>33.25</ele><time>2026-05-03T08:08:07.06Z</time></trkpt><trkpt lat="45.9183233" lon="13.4198993"><ele>32.5</ele><time>2026-05-03T08:08:08.05Z</time></trkpt><trkpt lat="45.9183021" lon="13.4200852"><ele>31.75</ele><time>2026-05-03T08:08:09.051Z</time></trkpt><trkpt lat="45.9182829" lon="13.420263"><ele>31.0</ele><time>2026-05-03T08:08:10.052Z</time></trkpt><trkpt lat="45.9182667" lon="13.4204295"><ele>31.200000000000003</ele><time>2026-05-03T08:08:11.053Z</time></trkpt><trkpt lat="45.9182485" lon="13.4205905"><ele>31.400000000000002</ele><time>2026-05-03T08:08:12.052Z</time></trkpt><trkpt lat="45.9182291" lon="13.4207411"><ele>31.6</ele><time>2026-05-03T08:08:13.053Z</time></trkpt><trkpt lat="45.918196" lon="13.4208801"><ele>31.8</ele><time>2026-05-03T08:08:14.053Z</time></trkpt><trkpt lat="45.9181341" lon="13.4210007"><ele>32.0</ele><time>2026-05-03T08:08:15.048Z</time></trkpt><trkpt lat="45.9180339" lon="13.4210892"><ele>32.0</ele><time>2026-05-03T08:08:16.051Z</time></trkpt><trkpt lat="45.9179192" lon="13.4211426"><ele>32.0</ele><time>2026-05-03T08:08:17.061Z</time></trkpt><trkpt lat="45.9178012" lon="13.4212106"><ele>32.0</ele><time>2026-05-03T08:08:18.056Z</time></trkpt><trkpt lat="45.9176796" lon="13.4212906"><ele>32.0</ele><time>2026-05-03T08:08:19.052Z</time></trkpt><trkpt lat="45.9175635" lon="13.4213739"><ele>31.5</ele><time>2026-05-03T08:08:20.058Z</time></trkpt><trkpt lat="45.9174517" lon="13.4214627"><ele>31.0</ele><time>2026-05-03T08:08:21.06Z</time></trkpt><trkpt lat="45.9173394" lon="13.4215573"><ele>30.5</ele><time>2026-05-03T08:08:22.052Z</time></trkpt><trkpt lat="45.9172218" lon="13.4216546"><ele>30.0</ele><time>2026-05-03T08:08:23.055Z</time></trkpt><trkpt lat="45.9171068" lon="13.4217396"><ele>30.0</ele><time>2026-05-03T08:08:24.057Z</time></trkpt><trkpt lat="45.9169849" lon="13.4218182"><ele>30.0</ele><time>2026-05-03T08:08:25.056Z</time></trkpt><trkpt lat="45.9168681" lon="13.4218963"><ele>30.0</ele><time>2026-05-03T08:08:26.052Z</time></trkpt><trkpt lat="45.9167514" lon="13.4219758"><ele>30.0</ele><time>2026-05-03T08:08:27.051Z</time></trkpt><trkpt lat="45.9166414" lon="13.4220577"><ele>30.0</ele><time>2026-05-03T08:08:28.049Z</time></trkpt><trkpt lat="45.9165325" lon="13.4221425"><ele>30.0</ele><time>2026-05-03T08:08:29.063Z</time></trkpt><trkpt lat="45.9164278" lon="13.4222239"><ele>30.0</ele><time>2026-05-03T08:08:30.05Z</time></trkpt><trkpt lat="45.9163336" lon="13.4223062"><ele>30.0</ele><time>2026-05-03T08:08:31.048Z</time></trkpt><trkpt lat="45.916255" lon="13.4223942"><ele>30.0</ele><time>2026-05-03T08:08:32.048Z</time></trkpt><trkpt lat="45.9162147" lon="13.4224837"><ele>30.0</ele><time>2026-05-03T08:08:33.049Z</time></trkpt><trkpt lat="45.9162294" lon="13.4225906"><ele>30.0</ele><time>2026-05-03T08:08:34.06Z</time></trkpt><trkpt lat="45.9162765" lon="13.4227002"><ele>30.0</ele><time>2026-05-03T08:08:35.056Z</time></trkpt><trkpt lat="45.9163274" lon="13.4228221"><ele>30.0</ele><time>2026-05-03T08:08:36.052Z</time></trkpt><trkpt lat="45.9163744" lon="13.4229547"><ele>30.0</ele><time>2026-05-03T08:08:37.063Z</time></trkpt><trkpt lat="45.9164185" lon="13.4230948"><ele>30.0</ele><time>2026-05-03T08:08:38.05Z</time></trkpt><trkpt lat="45.9164617" lon="13.4232399"><ele>30.0</ele><time>2026-05-03T08:08:39.052Z</time></trkpt><trkpt lat="45.9165088" lon="13.4233914"><ele>30.0</ele><time>2026-05-03T08:08:40.052Z</time></trkpt><trkpt lat="45.9165489" lon="13.4235508"><ele>30.0</ele><time>2026-05-03T08:08:41.061Z</time></trkpt><trkpt lat="45.9165931" lon="13.4237112"><ele>29.75</ele><time>2026-05-03T08:08:42.053Z</time></trkpt><trkpt lat="45.9166376" lon="13.4238709"><ele>29.5</ele><time>2026-05-03T08:08:43.06Z</time></trkpt><trkpt lat="45.9166803" lon="13.4240356"><ele>29.25</ele><time>2026-05-03T08:08:44.048Z</time></trkpt><trkpt lat="45.9167233" lon="13.4241862"><ele>29.0</ele><time>2026-05-03T08:08:45.047Z</time></trkpt><trkpt lat="45.9167611" lon="13.4243331"><ele>28.833333333333332</ele><time>2026-05-03T08:08:46.057Z</time></trkpt><trkpt lat="45.916793" lon="13.4244716"><ele>28.666666666666664</ele><time>2026-05-03T08:08:47.053Z</time></trkpt><trkpt lat="45.9168263" lon="13.4245969"><ele>28.5</ele><time>2026-05-03T08:08:48.049Z</time></trkpt><trkpt lat="45.9168513" lon="13.4247149"><ele>28.333333333333336</ele><time>2026-05-03T08:08:49.054Z</time></trkpt><trkpt lat="45.9168583" lon="13.4248239"><ele>28.166666666666668</ele><time>2026-05-03T08:08:50.053Z</time></trkpt><trkpt lat="45.9168346" lon="13.4249235"><ele>28.0</ele><time>2026-05-03T08:08:51.063Z</time></trkpt><trkpt lat="45.9167933" lon="13.4250085"><ele>28.0</ele><time>2026-05-03T08:08:52.058Z</time></trkpt><trkpt lat="45.9167215" lon="13.4250636"><ele>27.999999999999996</ele><time>2026-05-03T08:08:53.054Z</time></trkpt><trkpt lat="45.9166239" lon="13.4250705"><ele>27.999999999999996</ele><time>2026-05-03T08:08:54.051Z</time></trkpt><trkpt lat="45.9165192" lon="13.4250493"><ele>28.0</ele><time>2026-05-03T08:08:55.056Z</time></trkpt><trkpt lat="45.9164202" lon="13.4250394"><ele>28.0</ele><time>2026-05-03T08:08:56.05Z</time></trkpt><trkpt lat="45.9163315" lon="13.4250506"><ele>28.0</ele><time>2026-05-03T08:08:57.051Z</time></trkpt><trkpt lat="45.9162487" lon="13.4250975"><ele>27.999999999999996</ele><time>2026-05-03T08:08:58.051Z</time></trkpt><trkpt lat="45.9161744" lon="13.4251894"><ele>27.999999999999996</ele><time>2026-05-03T08:08:59.057Z</time></trkpt><trkpt lat="45.9161024" lon="13.4252948"><ele>28.0</ele><time>2026-05-03T08:09:00.051Z</time></trkpt><trkpt lat="45.9160233" lon="13.4254038"><ele>28.0</ele><time>2026-05-03T08:09:01.061Z</time></trkpt><trkpt lat="45.9159455" lon="13.4255143"><ele>27.5</ele><time>2026-05-03T08:09:02.056Z</time></trkpt><trkpt lat="45.9158656" lon="13.4256307"><ele>27.0</ele><time>2026-05-03T08:09:03.05Z</time></trkpt><trkpt lat="45.9157776" lon="13.4257513"><ele>26.5</ele><time>2026-05-03T08:09:04.05Z</time></trkpt><trkpt lat="45.9156851" lon="13.4258879"><ele>26.0</ele><time>2026-05-03T08:09:05.05Z</time></trkpt><trkpt lat="45.9155932" lon="13.4260425"><ele>26.0</ele><time>2026-05-03T08:09:06.06Z</time></trkpt><trkpt lat="45.9154989" lon="13.4262108"><ele>26.0</ele><time>2026-05-03T08:09:07.058Z</time></trkpt><trkpt lat="45.915407" lon="13.4264095"><ele>26.0</ele><time>2026-05-03T08:09:08.054Z</time></trkpt><trkpt lat="45.9153168" lon="13.4266121"><ele>26.0</ele><time>2026-05-03T08:09:09.055Z</time></trkpt><trkpt lat="45.9152332" lon="13.4268079"><ele>26.0</ele><time>2026-05-03T08:09:10.058Z</time></trkpt><trkpt lat="45.9151585" lon="13.4269916"><ele>26.0</ele><time>2026-05-03T08:09:11.063Z</time></trkpt><trkpt lat="45.9150808" lon="13.4271859"><ele>26.0</ele><time>2026-05-03T08:09:12.052Z</time></trkpt><trkpt lat="45.9150047" lon="13.4273959"><ele>26.0</ele><time>2026-05-03T08:09:13.054Z</time></trkpt><trkpt lat="45.914931" lon="13.427594"><ele>26.0</ele><time>2026-05-03T08:09:14.058Z</time></trkpt><trkpt lat="45.9148525" lon="13.4277997"><ele>26.0</ele><time>2026-05-03T08:09:15.056Z</time></trkpt><trkpt lat="45.9147671" lon="13.427991"><ele>26.0</ele><time>2026-05-03T08:09:16.05Z</time></trkpt><trkpt lat="45.9146568" lon="13.4281803"><ele>26.0</ele><time>2026-05-03T08:09:17.055Z</time></trkpt><trkpt lat="45.9145369" lon="13.4283514"><ele>26.0</ele><time>2026-05-03T08:09:18.05Z</time></trkpt><trkpt lat="45.9144113" lon="13.4285141"><ele>26.0</ele><time>2026-05-03T08:09:19.052Z</time></trkpt><trkpt lat="45.9142747" lon="13.4286658"><ele>26.0</ele><time>2026-05-03T08:09:20.057Z</time></trkpt><trkpt lat="45.9141381" lon="13.4288187"><ele>26.0</ele><time>2026-05-03T08:09:21.051Z</time></trkpt><trkpt lat="45.9139979" lon="13.4289684"><ele>26.0</ele><time>2026-05-03T08:09:22.061Z</time></trkpt><trkpt lat="45.9138606" lon="13.429134"><ele>26.0</ele><time>2026-05-03T08:09:23.053Z</time></trkpt><trkpt lat="45.9137254" lon="13.429311"><ele>26.0</ele><time>2026-05-03T08:09:24.055Z</time></trkpt><trkpt lat="45.9135958" lon="13.42951"><ele>26.0</ele><time>2026-05-03T08:09:25.052Z</time></trkpt><trkpt lat="45.9134831" lon="13.4297226"><ele>26.0</ele><time>2026-05-03T08:09:26.052Z</time></trkpt><trkpt lat="45.9133782" lon="13.4299446"><ele>25.666666666666664</ele><time>2026-05-03T08:09:27.054Z</time></trkpt><trkpt lat="45.9132794" lon="13.4301896"><ele>25.333333333333336</ele><time>2026-05-03T08:09:28.066Z</time></trkpt><trkpt lat="45.9131857" lon="13.4304285"><ele>25.0</ele><time>2026-05-03T08:09:29.05Z</time></trkpt><trkpt lat="45.9130927" lon="13.4306539"><ele>24.666666666666668</ele><time>2026-05-03T08:09:30.057Z</time></trkpt><trkpt lat="45.9129875" lon="13.4308635"><ele>24.333333333333336</ele><time>2026-05-03T08:09:31.058Z</time></trkpt><trkpt lat="45.9128631" lon="13.4310619"><ele>24.0</ele><time>2026-05-03T08:09:32.056Z</time></trkpt><trkpt lat="45.9127259" lon="13.4312574"><ele>23.666666666666668</ele><time>2026-05-03T08:09:33.054Z</time></trkpt><trkpt lat="45.9125818" lon="13.4314267"><ele>23.333333333333336</ele><time>2026-05-03T08:09:34.057Z</time></trkpt><trkpt lat="45.9124338" lon="13.4315797"><ele>23.0</ele><time>2026-05-03T08:09:35.052Z</time></trkpt><trkpt lat="45.9122804" lon="13.431729"><ele>22.666666666666668</ele><time>2026-05-03T08:09:36.055Z</time></trkpt><trkpt lat="45.9121293" lon="13.4318895"><ele>22.333333333333332</ele><time>2026-05-03T08:09:37.051Z</time></trkpt><trkpt lat="45.9119875" lon="13.4320515"><ele>22.0</ele><time>2026-05-03T08:09:38.052Z</time></trkpt><trkpt lat="45.9118467" lon="13.4322235"><ele>22.666666666666664</ele><time>2026-05-03T08:09:39.052Z</time></trkpt><trkpt lat="45.9117018" lon="13.4323961"><ele>23.333333333333332</ele><time>2026-05-03T08:09:40.057Z</time></trkpt><trkpt lat="45.9115647" lon="13.4325752"><ele>24.0</ele><time>2026-05-03T08:09:41.055Z</time></trkpt><trkpt lat="45.9114296" lon="13.4327633"><ele>24.0</ele><time>2026-05-03T08:09:42.051Z</time></trkpt><trkpt lat="45.9112933" lon="13.4329606"><ele>24.0</ele><time>2026-05-03T08:09:43.058Z</time></trkpt><trkpt lat="45.9111584" lon="13.4331542"><ele>24.0</ele><time>2026-05-03T08:09:44.051Z</time></trkpt><trkpt lat="45.9110248" lon="13.4333598"><ele>24.0</ele><time>2026-05-03T08:09:45.052Z</time></trkpt><trkpt lat="45.910894" lon="13.4335601"><ele>24.0</ele><time>2026-05-03T08:09:46.063Z</time></trkpt><trkpt lat="45.9107746" lon="13.4337654"><ele>24.0</ele><time>2026-05-03T08:09:47.063Z</time></trkpt><trkpt lat="45.9106572" lon="13.4339747"><ele>23.666666666666668</ele><time>2026-05-03T08:09:48.053Z</time></trkpt><trkpt lat="45.9105565" lon="13.4341851"><ele>23.333333333333336</ele><time>2026-05-03T08:09:49.055Z</time></trkpt><trkpt lat="45.910455" lon="13.4343942"><ele>23.0</ele><time>2026-05-03T08:09:50.055Z</time></trkpt><trkpt lat="45.9103483" lon="13.4345944"><ele>23.0</ele><time>2026-05-03T08:09:51.053Z</time></trkpt><trkpt lat="45.9102491" lon="13.4347989"><ele>23.0</ele><time>2026-05-03T08:09:52.052Z</time></trkpt><trkpt lat="45.9101485" lon="13.4350003"><ele>23.0</ele><time>2026-05-03T08:09:53.06Z</time></trkpt><trkpt lat="45.9100489" lon="13.4351981"><ele>23.25</ele><time>2026-05-03T08:09:54.07Z</time></trkpt><trkpt lat="45.9099565" lon="13.4353803"><ele>23.5</ele><time>2026-05-03T08:09:55.054Z</time></trkpt><trkpt lat="45.9098765" lon="13.4355401"><ele>23.75</ele><time>2026-05-03T08:09:56.052Z</time></trkpt><trkpt lat="45.9098087" lon="13.4356796"><ele>24.0</ele><time>2026-05-03T08:09:57.05Z</time></trkpt><trkpt lat="45.9097467" lon="13.43582"><ele>24.0</ele><time>2026-05-03T08:09:58.053Z</time></trkpt><trkpt lat="45.9096817" lon="13.4359577"><ele>24.0</ele><time>2026-05-03T08:09:59.055Z</time></trkpt><trkpt lat="45.9096212" lon="13.4360755"><ele>24.0</ele><time>2026-05-03T08:10:00.054Z</time></trkpt><trkpt lat="45.9095718" lon="13.4361675"><ele>24.0</ele><time>2026-05-03T08:10:01.048Z</time></trkpt><trkpt lat="45.9095561" lon="13.43628"><ele>24.0</ele><time>2026-05-03T08:10:03.049Z</time></trkpt><trkpt lat="45.9096133" lon="13.4363299"><ele>24.0</ele><time>2026-05-03T08:10:06.048Z</time></trkpt><trkpt lat="45.9096797" lon="13.4363561"><ele>24.0</ele><time>2026-05-03T08:10:10.052Z</time></trkpt><trkpt lat="45.9096122" lon="13.43625"><ele>24.0</ele><time>2026-05-03T08:10:43.049Z</time></trkpt><trkpt lat="45.9095923" lon="13.436128"><ele>24.0</ele><time>2026-05-03T08:10:46.057Z</time></trkpt><trkpt lat="45.9096564" lon="13.4359946"><ele>24.0</ele><time>2026-05-03T08:10:48.055Z</time></trkpt><trkpt lat="45.9096973" lon="13.435916"><ele>24.0</ele><time>2026-05-03T08:10:49.059Z</time></trkpt><trkpt lat="45.9097387" lon="13.4358357"><ele>24.0</ele><time>2026-05-03T08:10:50.05Z</time></trkpt><trkpt lat="45.9097816" lon="13.4357607"><ele>24.0</ele><time>2026-05-03T08:10:51.053Z</time></trkpt><trkpt lat="45.9098511" lon="13.4356273"><ele>24.0</ele><time>2026-05-03T08:10:53.049Z</time></trkpt><trkpt lat="45.9099216" lon="13.435499"><ele>24.0</ele><time>2026-05-03T08:10:55.05Z</time></trkpt><trkpt lat="45.9099833" lon="13.4353928"><ele>24.0</ele><time>2026-05-03T08:10:57.05Z</time></trkpt><trkpt lat="45.9100333" lon="13.4352907"><ele>24.0</ele><time>2026-05-03T08:10:59.051Z</time></trkpt><trkpt lat="45.9100557" lon="13.4354255"><ele>24.0</ele><time>2026-05-03T08:11:03.055Z</time></trkpt><trkpt lat="45.9100251" lon="13.4355111"><ele>24.0</ele><time>2026-05-03T08:11:04.054Z</time></trkpt><trkpt lat="45.9099787" lon="13.4356036"><ele>24.0</ele><time>2026-05-03T08:11:05.055Z</time></trkpt><trkpt lat="45.9099194" lon="13.4357165"><ele>24.0</ele><time>2026-05-03T08:11:06.054Z</time></trkpt><trkpt lat="45.9098505" lon="13.4358433"><ele>24.0</ele><time>2026-05-03T08:11:07.052Z</time></trkpt><trkpt lat="45.9098016" lon="13.4359622"><ele>24.0</ele><time>2026-05-03T08:11:08.05Z</time></trkpt><trkpt lat="45.9097675" lon="13.4360803"><ele>24.0</ele><time>2026-05-03T08:11:09.051Z</time></trkpt><trkpt lat="45.9097544" lon="13.4361932"><ele>24.0</ele><time>2026-05-03T08:11:10.054Z</time></trkpt><trkpt lat="45.9097691" lon="13.436288"><ele>24.0</ele><time>2026-05-03T08:11:11.054Z</time></trkpt><trkpt lat="45.9098025" lon="13.4363872"><ele>24.0</ele><time>2026-05-03T08:11:12.058Z</time></trkpt><trkpt lat="45.9098535" lon="13.4365074"><ele>24.0</ele><time>2026-05-03T08:11:13.052Z</time></trkpt><trkpt lat="45.9099179" lon="13.4366397"><ele>23.75</ele><time>2026-05-03T08:11:14.051Z</time></trkpt><trkpt lat="45.9099935" lon="13.4367859"><ele>23.5</ele><time>2026-05-03T08:11:15.052Z</time></trkpt><trkpt lat="45.910066" lon="13.4369432"><ele>23.25</ele><time>2026-05-03T08:11:16.053Z</time></trkpt><trkpt lat="45.9101273" lon="13.4370998"><ele>23.0</ele><time>2026-05-03T08:11:17.052Z</time></trkpt><trkpt lat="45.9101818" lon="13.4372577"><ele>23.4</ele><time>2026-05-03T08:11:18.063Z</time></trkpt><trkpt lat="45.9102346" lon="13.4374061"><ele>23.799999999999997</ele><time>2026-05-03T08:11:19.049Z</time></trkpt><trkpt lat="45.9102838" lon="13.4375451"><ele>24.2</ele><time>2026-05-03T08:11:20.052Z</time></trkpt><trkpt lat="45.9103434" lon="13.4376634"><ele>24.6</ele><time>2026-05-03T08:11:21.046Z</time></trkpt><trkpt lat="45.9104162" lon="13.437771"><ele>25.0</ele><time>2026-05-03T08:11:22.051Z</time></trkpt><trkpt lat="45.9105078" lon="13.437868"><ele>25.0</ele><time>2026-05-03T08:11:23.049Z</time></trkpt><trkpt lat="45.9106167" lon="13.437965"><ele>25.0</ele><time>2026-05-03T08:11:24.057Z</time></trkpt><trkpt lat="45.910738" lon="13.438065"><ele>25.0</ele><time>2026-05-03T08:11:25.058Z</time></trkpt><trkpt lat="45.9108712" lon="13.4381711"><ele>25.0</ele><time>2026-05-03T08:11:26.058Z</time></trkpt><trkpt lat="45.9110152" lon="13.4382651"><ele>25.75</ele><time>2026-05-03T08:11:27.058Z</time></trkpt><trkpt lat="45.9111491" lon="13.438349"><ele>26.5</ele><time>2026-05-03T08:11:28.048Z</time></trkpt><trkpt lat="45.9112769" lon="13.4384086"><ele>27.25</ele><time>2026-05-03T08:11:29.048Z</time></trkpt><trkpt lat="45.9113974" lon="13.4384808"><ele>28.0</ele><time>2026-05-03T08:11:30.053Z</time></trkpt><trkpt lat="45.9115033" lon="13.4385603"><ele>28.0</ele><time>2026-05-03T08:11:31.058Z</time></trkpt><trkpt lat="45.911595" lon="13.4386535"><ele>28.0</ele><time>2026-05-03T08:11:32.053Z</time></trkpt><trkpt lat="45.9116756" lon="13.4387599"><ele>28.0</ele><time>2026-05-03T08:11:33.051Z</time></trkpt><trkpt lat="45.9117566" lon="13.4388814"><ele>28.0</ele><time>2026-05-03T08:11:34.06Z</time></trkpt><trkpt lat="45.9118375" lon="13.4390066"><ele>28.0</ele><time>2026-05-03T08:11:35.055Z</time></trkpt><trkpt lat="45.9119195" lon="13.4391341"><ele>28.0</ele><time>2026-05-03T08:11:36.051Z</time></trkpt><trkpt lat="45.912015" lon="13.4392691"><ele>28.0</ele><time>2026-05-03T08:11:37.055Z</time></trkpt><trkpt lat="45.912129" lon="13.4394149"><ele>28.0</ele><time>2026-05-03T08:11:38.055Z</time></trkpt><trkpt lat="45.9122349" lon="13.4395813"><ele>28.666666666666668</ele><time>2026-05-03T08:11:39.052Z</time></trkpt><trkpt lat="45.912338" lon="13.4397583"><ele>29.333333333333336</ele><time>2026-05-03T08:11:40.048Z</time></trkpt><trkpt lat="45.9124265" lon="13.4399449"><ele>30.0</ele><time>2026-05-03T08:11:41.051Z</time></trkpt><trkpt lat="45.9125056" lon="13.4401434"><ele>29.333333333333336</ele><time>2026-05-03T08:11:42.051Z</time></trkpt><trkpt lat="45.9125879" lon="13.4403497"><ele>28.666666666666668</ele><time>2026-05-03T08:11:43.051Z</time></trkpt><trkpt lat="45.9126717" lon="13.440559"><ele>28.0</ele><time>2026-05-03T08:11:44.055Z</time></trkpt><trkpt lat="45.9127505" lon="13.4407714"><ele>28.0</ele><time>2026-05-03T08:11:45.061Z</time></trkpt><trkpt lat="45.9128247" lon="13.4409778"><ele>28.0</ele><time>2026-05-03T08:11:46.055Z</time></trkpt><trkpt lat="45.9128914" lon="13.4411784"><ele>28.0</ele><time>2026-05-03T08:11:47.052Z</time></trkpt><trkpt lat="45.9129512" lon="13.4413629"><ele>28.5</ele><time>2026-05-03T08:11:48.06Z</time></trkpt><trkpt lat="45.9130095" lon="13.4415233"><ele>29.0</ele><time>2026-05-03T08:11:49.053Z</time></trkpt><trkpt lat="45.9130783" lon="13.4416667"><ele>29.5</ele><time>2026-05-03T08:11:50.051Z</time></trkpt><trkpt lat="45.9131653" lon="13.4417906"><ele>30.0</ele><time>2026-05-03T08:11:51.057Z</time></trkpt><trkpt lat="45.9132619" lon="13.4418846"><ele>30.0</ele><time>2026-05-03T08:11:52.054Z</time></trkpt><trkpt lat="45.9133598" lon="13.4419649"><ele>30.0</ele><time>2026-05-03T08:11:53.058Z</time></trkpt><trkpt lat="45.9134627" lon="13.4420505"><ele>30.0</ele><time>2026-05-03T08:11:54.054Z</time></trkpt><trkpt lat="45.9135591" lon="13.4421431"><ele>30.0</ele><time>2026-05-03T08:11:55.049Z</time></trkpt><trkpt lat="45.913648" lon="13.4422195"><ele>30.0</ele><time>2026-05-03T08:11:56.056Z</time></trkpt><trkpt lat="45.9137452" lon="13.442279"><ele>30.0</ele><time>2026-05-03T08:11:57.051Z</time></trkpt><trkpt lat="45.9138576" lon="13.4423346"><ele>30.0</ele><time>2026-05-03T08:11:58.051Z</time></trkpt><trkpt lat="45.9139963" lon="13.4423877"><ele>30.0</ele><time>2026-05-03T08:11:59.049Z</time></trkpt><trkpt lat="45.914147" lon="13.4424266"><ele>29.75</ele><time>2026-05-03T08:12:00.052Z</time></trkpt><trkpt lat="45.9143084" lon="13.4424456"><ele>29.5</ele><time>2026-05-03T08:12:01.05Z</time></trkpt><trkpt lat="45.9144561" lon="13.4424642"><ele>29.25</ele><time>2026-05-03T08:12:02.053Z</time></trkpt><trkpt lat="45.9145932" lon="13.4424847"><ele>29.0</ele><time>2026-05-03T08:12:03.048Z</time></trkpt><trkpt lat="45.9147204" lon="13.4425335"><ele>29.0</ele><time>2026-05-03T08:12:04.057Z</time></trkpt><trkpt lat="45.9148463" lon="13.4426178"><ele>29.0</ele><time>2026-05-03T08:12:05.049Z</time></trkpt><trkpt lat="45.9149977" lon="13.4427169"><ele>29.0</ele><time>2026-05-03T08:12:06.048Z</time></trkpt><trkpt lat="45.9151632" lon="13.4428253"><ele>28.666666666666664</ele><time>2026-05-03T08:12:07.055Z</time></trkpt><trkpt lat="45.9153308" lon="13.4429412"><ele>28.333333333333336</ele><time>2026-05-03T08:12:08.056Z</time></trkpt><trkpt lat="45.9154881" lon="13.4430461"><ele>28.0</ele><time>2026-05-03T08:12:09.051Z</time></trkpt><trkpt lat="45.9156331" lon="13.4431427"><ele>27.75</ele><time>2026-05-03T08:12:10.05Z</time></trkpt><trkpt lat="45.9157724" lon="13.4432273"><ele>27.5</ele><time>2026-05-03T08:12:11.054Z</time></trkpt><trkpt lat="45.9159106" lon="13.4432895"><ele>27.25</ele><time>2026-05-03T08:12:12.057Z</time></trkpt><trkpt lat="45.9160457" lon="13.4433245"><ele>27.0</ele><time>2026-05-03T08:12:13.056Z</time></trkpt><trkpt lat="45.9161954" lon="13.4433369"><ele>27.5</ele><time>2026-05-03T08:12:14.053Z</time></trkpt><trkpt lat="45.9163503" lon="13.4433454"><ele>28.0</ele><time>2026-05-03T08:12:15.049Z</time></trkpt><trkpt lat="45.916489" lon="13.4433754"><ele>28.5</ele><time>2026-05-03T08:12:16.049Z</time></trkpt><trkpt lat="45.91663" lon="13.4434209"><ele>29.0</ele><time>2026-05-03T08:12:17.047Z</time></trkpt><trkpt lat="45.9167686" lon="13.44347"><ele>29.666666666666664</ele><time>2026-05-03T08:12:18.05Z</time></trkpt><trkpt lat="45.9169228" lon="13.4435178"><ele>30.333333333333336</ele><time>2026-05-03T08:12:19.054Z</time></trkpt><trkpt lat="45.9170794" lon="13.4435571"><ele>31.0</ele><time>2026-05-03T08:12:20.053Z</time></trkpt><trkpt lat="45.9172239" lon="13.4435975"><ele>31.0</ele><time>2026-05-03T08:12:21.058Z</time></trkpt><trkpt lat="45.9173649" lon="13.4436217"><ele>31.0</ele><time>2026-05-03T08:12:22.052Z</time></trkpt><trkpt lat="45.9175068" lon="13.4436201"><ele>31.0</ele><time>2026-05-03T08:12:23.052Z</time></trkpt><trkpt lat="45.9176497" lon="13.4435811"><ele>31.0</ele><time>2026-05-03T08:12:24.061Z</time></trkpt><trkpt lat="45.9177889" lon="13.4435517"><ele>30.5</ele><time>2026-05-03T08:12:25.054Z</time></trkpt><trkpt lat="45.9179213" lon="13.4435379"><ele>30.0</ele><time>2026-05-03T08:12:26.047Z</time></trkpt><trkpt lat="45.9180526" lon="13.4435353"><ele>29.5</ele><time>2026-05-03T08:12:27.044Z</time></trkpt><trkpt lat="45.9181682" lon="13.4435421"><ele>29.0</ele><time>2026-05-03T08:12:28.062Z</time></trkpt><trkpt lat="45.9182746" lon="13.443573"><ele>29.0</ele><time>2026-05-03T08:12:29.053Z</time></trkpt><trkpt lat="45.9183699" lon="13.443625"><ele>29.0</ele><time>2026-05-03T08:12:30.057Z</time></trkpt><trkpt lat="45.9184673" lon="13.4437078"><ele>29.0</ele><time>2026-05-03T08:12:31.056Z</time></trkpt><trkpt lat="45.9185556" lon="13.443794"><ele>29.0</ele><time>2026-05-03T08:12:32.059Z</time></trkpt><trkpt lat="45.91862" lon="13.4439104"><ele>29.0</ele><time>2026-05-03T08:12:33.056Z</time></trkpt><trkpt lat="45.9186781" lon="13.4440367"><ele>28.799999999999997</ele><time>2026-05-03T08:12:34.047Z</time></trkpt><trkpt lat="45.9187303" lon="13.4441474"><ele>28.599999999999998</ele><time>2026-05-03T08:12:35.051Z</time></trkpt><trkpt lat="45.9187864" lon="13.444253"><ele>28.4</ele><time>2026-05-03T08:12:36.05Z</time></trkpt><trkpt lat="45.9188437" lon="13.4443719"><ele>28.2</ele><time>2026-05-03T08:12:37.049Z</time></trkpt><trkpt lat="45.9188975" lon="13.4445058"><ele>28.0</ele><time>2026-05-03T08:12:38.052Z</time></trkpt><trkpt lat="45.9189454" lon="13.4446554"><ele>28.0</ele><time>2026-05-03T08:12:39.055Z</time></trkpt><trkpt lat="45.9189953" lon="13.4448277"><ele>28.0</ele><time>2026-05-03T08:12:40.05Z</time></trkpt><trkpt lat="45.9190466" lon="13.4450179"><ele>28.0</ele><time>2026-05-03T08:12:41.063Z</time></trkpt><trkpt lat="45.9190921" lon="13.4452241"><ele>28.0</ele><time>2026-05-03T08:12:42.051Z</time></trkpt><trkpt lat="45.9191416" lon="13.4454664"><ele>27.666666666666668</ele><time>2026-05-03T08:12:43.045Z</time></trkpt><trkpt lat="45.9191968" lon="13.4457056"><ele>27.333333333333336</ele><time>2026-05-03T08:12:44.056Z</time></trkpt><trkpt lat="45.919238" lon="13.4459433"><ele>27.0</ele><time>2026-05-03T08:12:45.053Z</time></trkpt><trkpt lat="45.9192777" lon="13.4461848"><ele>27.0</ele><time>2026-05-03T08:12:46.048Z</time></trkpt><trkpt lat="45.9193242" lon="13.446436"><ele>27.0</ele><time>2026-05-03T08:12:47.062Z</time></trkpt><trkpt lat="45.9193663" lon="13.4466828"><ele>27.0</ele><time>2026-05-03T08:12:48.051Z</time></trkpt><trkpt lat="45.919411" lon="13.4469131"><ele>26.666666666666664</ele><time>2026-05-03T08:12:49.056Z</time></trkpt><trkpt lat="45.9194518" lon="13.447131"><ele>26.333333333333332</ele><time>2026-05-03T08:12:50.054Z</time></trkpt><trkpt lat="45.91949" lon="13.4473519"><ele>26.0</ele><time>2026-05-03T08:12:51.05Z</time></trkpt><trkpt lat="45.9195197" lon="13.4475784"><ele>26.0</ele><time>2026-05-03T08:12:52.05Z</time></trkpt><trkpt lat="45.9195524" lon="13.4477995"><ele>26.0</ele><time>2026-05-03T08:12:53.056Z</time></trkpt><trkpt lat="45.9195778" lon="13.4480261"><ele>26.0</ele><time>2026-05-03T08:12:54.06Z</time></trkpt><trkpt lat="45.9196005" lon="13.4482419"><ele>26.333333333333332</ele><time>2026-05-03T08:12:55.055Z</time></trkpt><trkpt lat="45.919616" lon="13.4484761"><ele>26.666666666666664</ele><time>2026-05-03T08:12:56.051Z</time></trkpt><trkpt lat="45.9196293" lon="13.4487315"><ele>27.0</ele><time>2026-05-03T08:12:57.044Z</time></trkpt><trkpt lat="45.9196378" lon="13.4489976"><ele>27.0</ele><time>2026-05-03T08:12:58.049Z</time></trkpt><trkpt lat="45.9196416" lon="13.4492489"><ele>27.0</ele><time>2026-05-03T08:12:59.047Z</time></trkpt><trkpt lat="45.9196467" lon="13.4495097"><ele>27.0</ele><time>2026-05-03T08:13:00.053Z</time></trkpt><trkpt lat="45.9196586" lon="13.4497655"><ele>27.0</ele><time>2026-05-03T08:13:01.047Z</time></trkpt><trkpt lat="45.9196767" lon="13.4500273"><ele>27.0</ele><time>2026-05-03T08:13:02.051Z</time></trkpt><trkpt lat="45.9196933" lon="13.4502872"><ele>27.0</ele><time>2026-05-03T08:13:03.044Z</time></trkpt><trkpt lat="45.919703" lon="13.4505467"><ele>27.333333333333336</ele><time>2026-05-03T08:13:04.044Z</time></trkpt><trkpt lat="45.919713" lon="13.450804"><ele>27.666666666666668</ele><time>2026-05-03T08:13:05.045Z</time></trkpt><trkpt lat="45.9197286" lon="13.4510525"><ele>28.0</ele><time>2026-05-03T08:13:06.044Z</time></trkpt><trkpt lat="45.919755" lon="13.4512937"><ele>28.0</ele><time>2026-05-03T08:13:07.047Z</time></trkpt><trkpt lat="45.9197929" lon="13.4515203"><ele>28.0</ele><time>2026-05-03T08:13:08.048Z</time></trkpt><trkpt lat="45.9198163" lon="13.4517354"><ele>28.0</ele><time>2026-05-03T08:13:09.045Z</time></trkpt><trkpt lat="45.9198297" lon="13.4519524"><ele>28.0</ele><time>2026-05-03T08:13:10.045Z</time></trkpt><trkpt lat="45.9198469" lon="13.4521849"><ele>28.0</ele><time>2026-05-03T08:13:11.059Z</time></trkpt><trkpt lat="45.919886" lon="13.4524253"><ele>28.0</ele><time>2026-05-03T08:13:12.05Z</time></trkpt><trkpt lat="45.9199499" lon="13.4526663"><ele>28.0</ele><time>2026-05-03T08:13:13.049Z</time></trkpt><trkpt lat="45.9200136" lon="13.4528907"><ele>28.0</ele><time>2026-05-03T08:13:14.055Z</time></trkpt><trkpt lat="45.9200731" lon="13.4530867"><ele>28.0</ele><time>2026-05-03T08:13:15.056Z</time></trkpt><trkpt lat="45.9201056" lon="13.4532298"><ele>28.0</ele><time>2026-05-03T08:13:16.051Z</time></trkpt><trkpt lat="45.9201371" lon="13.4533234"><ele>28.666666666666668</ele><time>2026-05-03T08:13:17.057Z</time></trkpt><trkpt lat="45.9201888" lon="13.4534177"><ele>29.333333333333336</ele><time>2026-05-03T08:13:19.049Z</time></trkpt><trkpt lat="45.9202528" lon="13.4534035"><ele>30.0</ele><time>2026-05-03T08:13:21.048Z</time></trkpt><trkpt lat="45.9203187" lon="13.4533696"><ele>30.666666666666664</ele><time>2026-05-03T08:13:23.048Z</time></trkpt><trkpt lat="45.9203991" lon="13.4533386"><ele>31.333333333333332</ele><time>2026-05-03T08:13:25.059Z</time></trkpt><trkpt lat="45.9204785" lon="13.4533051"><ele>32.0</ele><time>2026-05-03T08:13:27.046Z</time></trkpt><trkpt lat="45.9205497" lon="13.4533038"><ele>31.999999999999996</ele><time>2026-05-03T08:13:29.055Z</time></trkpt><trkpt lat="45.9205905" lon="13.4534116"><ele>32.0</ele><time>2026-05-03T08:13:32.048Z</time></trkpt><trkpt lat="45.9205868" lon="13.4535384"><ele>32.0</ele><time>2026-05-03T08:13:34.064Z</time></trkpt><trkpt lat="45.9205911" lon="13.4537236"><ele>32.0</ele><time>2026-05-03T08:13:36.05Z</time></trkpt><trkpt lat="45.9205936" lon="13.4538249"><ele>31.999999999999996</ele><time>2026-05-03T08:13:37.045Z</time></trkpt><trkpt lat="45.9206028" lon="13.4539251"><ele>32.0</ele><time>2026-05-03T08:13:38.053Z</time></trkpt><trkpt lat="45.9206138" lon="13.4540353"><ele>31.999999999999996</ele><time>2026-05-03T08:13:39.064Z</time></trkpt><trkpt lat="45.9206323" lon="13.45414"><ele>32.0</ele><time>2026-05-03T08:13:40.047Z</time></trkpt><trkpt lat="45.9206559" lon="13.4542456"><ele>32.0</ele><time>2026-05-03T08:13:41.063Z</time></trkpt><trkpt lat="45.9206881" lon="13.454347"><ele>32.0</ele><time>2026-05-03T08:13:42.047Z</time></trkpt><trkpt lat="45.9207224" lon="13.4544473"><ele>31.999999999999996</ele><time>2026-05-03T08:13:43.052Z</time></trkpt><trkpt lat="45.9207511" lon="13.4545462"><ele>32.0</ele><time>2026-05-03T08:13:44.052Z</time></trkpt><trkpt lat="45.9207695" lon="13.4546397"><ele>32.0</ele><time>2026-05-03T08:13:45.052Z</time></trkpt><trkpt lat="45.9207881" lon="13.4547959"><ele>32.0</ele><time>2026-05-03T08:13:47.046Z</time></trkpt><trkpt lat="45.9207938" lon="13.4549405"><ele>32.0</ele><time>2026-05-03T08:13:49.053Z</time></trkpt><trkpt lat="45.9208077" lon="13.4550592"><ele>32.0</ele><time>2026-05-03T08:13:51.051Z</time></trkpt><trkpt lat="45.9208429" lon="13.4551806"><ele>32.0</ele><time>2026-05-03T08:13:55.05Z</time></trkpt><trkpt lat="45.9208994" lon="13.4553026"><ele>31.999999999999996</ele><time>2026-05-03T08:13:58.046Z</time></trkpt><trkpt lat="45.9209821" lon="13.4554542"><ele>32.0</ele><time>2026-05-03T08:14:00.052Z</time></trkpt><trkpt lat="45.921027" lon="13.4555405"><ele>32.0</ele><time>2026-05-03T08:14:01.059Z</time></trkpt><trkpt lat="45.9210778" lon="13.4556352"><ele>32.0</ele><time>2026-05-03T08:14:02.051Z</time></trkpt><trkpt lat="45.921125" lon="13.455727"><ele>31.999999999999996</ele><time>2026-05-03T08:14:03.054Z</time></trkpt><trkpt lat="45.9211704" lon="13.4558085"><ele>32.0</ele><time>2026-05-03T08:14:04.049Z</time></trkpt><trkpt lat="45.9212126" lon="13.4558785"><ele>32.0</ele><time>2026-05-03T08:14:05.052Z</time></trkpt><trkpt lat="45.9212846" lon="13.4559846"><ele>32.0</ele><time>2026-05-03T08:14:07.048Z</time></trkpt><trkpt lat="45.9213418" lon="13.4560675"><ele>32.0</ele><time>2026-05-03T08:14:10.051Z</time></trkpt><trkpt lat="45.9214239" lon="13.456163"><ele>32.0</ele><time>2026-05-03T08:14:12.054Z</time></trkpt><trkpt lat="45.921476" lon="13.4562436"><ele>32.0</ele><time>2026-05-03T08:14:13.055Z</time></trkpt><trkpt lat="45.9215345" lon="13.4563429"><ele>32.0</ele><time>2026-05-03T08:14:14.053Z</time></trkpt><trkpt lat="45.9215977" lon="13.4564592"><ele>32.0</ele><time>2026-05-03T08:14:15.053Z</time></trkpt><trkpt lat="45.9216676" lon="13.4565766"><ele>32.0</ele><time>2026-05-03T08:14:16.057Z</time></trkpt><trkpt lat="45.9217438" lon="13.456697"><ele>32.0</ele><time>2026-05-03T08:14:17.056Z</time></trkpt><trkpt lat="45.9218244" lon="13.4568207"><ele>32.0</ele><time>2026-05-03T08:14:18.048Z</time></trkpt><trkpt lat="45.9219129" lon="13.456947"><ele>32.25</ele><time>2026-05-03T08:14:19.049Z</time></trkpt><trkpt lat="45.9220065" lon="13.457084"><ele>32.5</ele><time>2026-05-03T08:14:20.055Z</time></trkpt><trkpt lat="45.922115" lon="13.457223"><ele>32.75</ele><time>2026-05-03T08:14:21.056Z</time></trkpt><trkpt lat="45.9222278" lon="13.4573605"><ele>33.0</ele><time>2026-05-03T08:14:22.051Z</time></trkpt><trkpt lat="45.9223411" lon="13.4574957"><ele>33.0</ele><time>2026-05-03T08:14:23.057Z</time></trkpt><trkpt lat="45.9224757" lon="13.4576214"><ele>33.0</ele><time>2026-05-03T08:14:24.049Z</time></trkpt><trkpt lat="45.9226136" lon="13.4577438"><ele>33.0</ele><time>2026-05-03T08:14:25.048Z</time></trkpt><trkpt lat="45.9227625" lon="13.4578609"><ele>32.666666666666664</ele><time>2026-05-03T08:14:26.054Z</time></trkpt><trkpt lat="45.9229149" lon="13.4579656"><ele>32.33333333333333</ele><time>2026-05-03T08:14:27.055Z</time></trkpt><trkpt lat="45.9230435" lon="13.4580786"><ele>32.0</ele><time>2026-05-03T08:14:28.056Z</time></trkpt><trkpt lat="45.9231656" lon="13.4581993"><ele>32.0</ele><time>2026-05-03T08:14:29.051Z</time></trkpt><trkpt lat="45.9232715" lon="13.4583202"><ele>32.0</ele><time>2026-05-03T08:14:30.063Z</time></trkpt><trkpt lat="45.9233815" lon="13.4584509"><ele>32.0</ele><time>2026-05-03T08:14:31.057Z</time></trkpt><trkpt lat="45.923476" lon="13.4585876"><ele>32.0</ele><time>2026-05-03T08:14:32.052Z</time></trkpt><trkpt lat="45.9235615" lon="13.4587239"><ele>32.0</ele><time>2026-05-03T08:14:33.06Z</time></trkpt><trkpt lat="45.9236394" lon="13.4588543"><ele>32.0</ele><time>2026-05-03T08:14:34.054Z</time></trkpt><trkpt lat="45.9236984" lon="13.4589635"><ele>32.0</ele><time>2026-05-03T08:14:35.05Z</time></trkpt><trkpt lat="45.9237327" lon="13.4590573"><ele>32.0</ele><time>2026-05-03T08:14:36.057Z</time></trkpt><trkpt lat="45.9237704" lon="13.459169"><ele>32.0</ele><time>2026-05-03T08:14:37.054Z</time></trkpt><trkpt lat="45.9238121" lon="13.4592759"><ele>32.0</ele><time>2026-05-03T08:14:38.054Z</time></trkpt><trkpt lat="45.9238636" lon="13.459388"><ele>32.0</ele><time>2026-05-03T08:14:39.048Z</time></trkpt><trkpt lat="45.9239131" lon="13.459511"><ele>32.0</ele><time>2026-05-03T08:14:40.051Z</time></trkpt><trkpt lat="45.9239591" lon="13.4596491"><ele>32.0</ele><time>2026-05-03T08:14:41.049Z</time></trkpt><trkpt lat="45.9240026" lon="13.4598013"><ele>32.0</ele><time>2026-05-03T08:14:42.058Z</time></trkpt><trkpt lat="45.9240444" lon="13.4599591"><ele>32.0</ele><time>2026-05-03T08:14:43.051Z</time></trkpt><trkpt lat="45.9240819" lon="13.4601284"><ele>32.0</ele><time>2026-05-03T08:14:44.047Z</time></trkpt><trkpt lat="45.9241177" lon="13.4603227"><ele>32.0</ele><time>2026-05-03T08:14:45.053Z</time></trkpt><trkpt lat="45.9241439" lon="13.4605398"><ele>32.0</ele><time>2026-05-03T08:14:46.055Z</time></trkpt><trkpt lat="45.9241564" lon="13.4607991"><ele>32.0</ele><time>2026-05-03T08:14:47.052Z</time></trkpt><trkpt lat="45.9241814" lon="13.4610606"><ele>32.0</ele><time>2026-05-03T08:14:48.051Z</time></trkpt><trkpt lat="45.9242121" lon="13.4613261"><ele>32.0</ele><time>2026-05-03T08:14:49.052Z</time></trkpt><trkpt lat="45.9242412" lon="13.4615835"><ele>32.0</ele><time>2026-05-03T08:14:50.049Z</time></trkpt><trkpt lat="45.9242692" lon="13.4618387"><ele>32.0</ele><time>2026-05-03T08:14:51.053Z</time></trkpt><trkpt lat="45.9242988" lon="13.4620989"><ele>32.0</ele><time>2026-05-03T08:14:52.054Z</time></trkpt><trkpt lat="45.9243302" lon="13.4623491"><ele>32.0</ele><time>2026-05-03T08:14:53.053Z</time></trkpt><trkpt lat="45.9243616" lon="13.4626047"><ele>32.0</ele><time>2026-05-03T08:14:54.054Z</time></trkpt><trkpt lat="45.9244025" lon="13.4628612"><ele>32.0</ele><time>2026-05-03T08:14:55.048Z</time></trkpt><trkpt lat="45.9244582" lon="13.463109"><ele>32.0</ele><time>2026-05-03T08:14:56.052Z</time></trkpt><trkpt lat="45.9245273" lon="13.4633539"><ele>32.0</ele><time>2026-05-03T08:14:57.053Z</time></trkpt><trkpt lat="45.924598" lon="13.4636054"><ele>32.0</ele><time>2026-05-03T08:14:58.052Z</time></trkpt><trkpt lat="45.9246742" lon="13.4638543"><ele>32.0</ele><time>2026-05-03T08:14:59.055Z</time></trkpt><trkpt lat="45.9247439" lon="13.4640981"><ele>32.0</ele><time>2026-05-03T08:15:00.047Z</time></trkpt><trkpt lat="45.9248235" lon="13.4643327"><ele>32.0</ele><time>2026-05-03T08:15:01.055Z</time></trkpt><trkpt lat="45.9249005" lon="13.4645617"><ele>32.0</ele><time>2026-05-03T08:15:02.051Z</time></trkpt><trkpt lat="45.9249777" lon="13.4647744"><ele>32.0</ele><time>2026-05-03T08:15:03.049Z</time></trkpt><trkpt lat="45.9250558" lon="13.4649909"><ele>32.0</ele><time>2026-05-03T08:15:04.049Z</time></trkpt><trkpt lat="45.9251338" lon="13.4652184"><ele>31.666666666666664</ele><time>2026-05-03T08:15:05.051Z</time></trkpt><trkpt lat="45.9252092" lon="13.4654613"><ele>31.333333333333336</ele><time>2026-05-03T08:15:06.049Z</time></trkpt><trkpt lat="45.9252869" lon="13.4656924"><ele>31.0</ele><time>2026-05-03T08:15:07.062Z</time></trkpt><trkpt lat="45.9253527" lon="13.465898"><ele>31.0</ele><time>2026-05-03T08:15:08.049Z</time></trkpt><trkpt lat="45.92541" lon="13.4660907"><ele>31.0</ele><time>2026-05-03T08:15:09.049Z</time></trkpt><trkpt lat="45.9254528" lon="13.4662664"><ele>31.0</ele><time>2026-05-03T08:15:10.047Z</time></trkpt><trkpt lat="45.9254877" lon="13.4664141"><ele>31.0</ele><time>2026-05-03T08:15:11.058Z</time></trkpt><trkpt lat="45.9255196" lon="13.4665241"><ele>31.166666666666668</ele><time>2026-05-03T08:15:12.051Z</time></trkpt><trkpt lat="45.9255419" lon="13.4666243"><ele>31.333333333333336</ele><time>2026-05-03T08:15:13.048Z</time></trkpt><trkpt lat="45.9255933" lon="13.4667543"><ele>31.5</ele><time>2026-05-03T08:15:15.054Z</time></trkpt><trkpt lat="45.9256433" lon="13.4668507"><ele>31.666666666666664</ele><time>2026-05-03T08:15:17.048Z</time></trkpt><trkpt lat="45.9256796" lon="13.4669601"><ele>31.833333333333332</ele><time>2026-05-03T08:15:20.052Z</time></trkpt><trkpt lat="45.925718" lon="13.4670467"><ele>32.0</ele><time>2026-05-03T08:16:55.049Z</time></trkpt><trkpt lat="45.925733" lon="13.467186"><ele>32.166666666666664</ele><time>2026-05-03T08:16:57.042Z</time></trkpt><trkpt lat="45.9257614" lon="13.4672717"><ele>32.33333333333333</ele><time>2026-05-03T08:16:58.064Z</time></trkpt><trkpt lat="45.9258106" lon="13.467436"><ele>32.5</ele><time>2026-05-03T08:17:00.049Z</time></trkpt><trkpt lat="45.9258471" lon="13.467542"><ele>32.666666666666664</ele><time>2026-05-03T08:17:02.058Z</time></trkpt><trkpt lat="45.9259128" lon="13.4675805"><ele>32.833333333333336</ele><time>2026-05-03T08:17:04.061Z</time></trkpt><trkpt lat="45.9259975" lon="13.4675357"><ele>33.0</ele><time>2026-05-03T08:17:06.049Z</time></trkpt><trkpt lat="45.926072" lon="13.4674761"><ele>33.0</ele><time>2026-05-03T08:17:07.05Z</time></trkpt><trkpt lat="45.9261605" lon="13.4674036"><ele>33.0</ele><time>2026-05-03T08:17:08.047Z</time></trkpt><trkpt lat="45.9262543" lon="13.4673318"><ele>33.0</ele><time>2026-05-03T08:17:09.049Z</time></trkpt><trkpt lat="45.9263539" lon="13.4672574"><ele>33.0</ele><time>2026-05-03T08:17:10.053Z</time></trkpt><trkpt lat="45.9264517" lon="13.467178"><ele>33.0</ele><time>2026-05-03T08:17:11.061Z</time></trkpt><trkpt lat="45.9265537" lon="13.4670971"><ele>33.0</ele><time>2026-05-03T08:17:12.05Z</time></trkpt><trkpt lat="45.9266512" lon="13.4670192"><ele>33.0</ele><time>2026-05-03T08:17:13.046Z</time></trkpt><trkpt lat="45.9267523" lon="13.4669382"><ele>33.0</ele><time>2026-05-03T08:17:14.05Z</time></trkpt><trkpt lat="45.9268476" lon="13.4668709"><ele>33.0</ele><time>2026-05-03T08:17:15.055Z</time></trkpt><trkpt lat="45.9269448" lon="13.4667973"><ele>33.0</ele><time>2026-05-03T08:17:16.051Z</time></trkpt><trkpt lat="45.9270389" lon="13.4667231"><ele>33.4</ele><time>2026-05-03T08:17:17.048Z</time></trkpt><trkpt lat="45.9271423" lon="13.4666477"><ele>33.8</ele><time>2026-05-03T08:17:18.051Z</time></trkpt><trkpt lat="45.9272444" lon="13.4665729"><ele>34.2</ele><time>2026-05-03T08:17:19.048Z</time></trkpt><trkpt lat="45.9273388" lon="13.4665028"><ele>34.6</ele><time>2026-05-03T08:17:20.059Z</time></trkpt><trkpt lat="45.927424" lon="13.4664417"><ele>35.0</ele><time>2026-05-03T08:17:21.055Z</time></trkpt><trkpt lat="45.9274988" lon="13.4663883"><ele>35.166666666666664</ele><time>2026-05-03T08:17:22.047Z</time></trkpt><trkpt lat="45.9275641" lon="13.466346"><ele>35.33333333333333</ele><time>2026-05-03T08:17:23.055Z</time></trkpt><trkpt lat="45.9276651" lon="13.4663278"><ele>35.5</ele><time>2026-05-03T08:17:25.05Z</time></trkpt><trkpt lat="45.9277329" lon="13.4663613"><ele>35.666666666666664</ele><time>2026-05-03T08:17:27.046Z</time></trkpt><trkpt lat="45.9278377" lon="13.4663248"><ele>35.833333333333336</ele><time>2026-05-03T08:17:33.048Z</time></trkpt><trkpt lat="45.9279067" lon="13.4663001"><ele>36.0</ele><time>2026-05-03T08:17:34.052Z</time></trkpt><trkpt lat="45.9280306" lon="13.4663051"><ele>36.0</ele><time>2026-05-03T08:17:36.053Z</time></trkpt><trkpt lat="45.9280903" lon="13.4663478"><ele>36.0</ele><time>2026-05-03T08:17:37.054Z</time></trkpt><trkpt lat="45.9281504" lon="13.466418"><ele>36.0</ele><time>2026-05-03T08:17:38.051Z</time></trkpt><trkpt lat="45.9282102" lon="13.4664985"><ele>36.0</ele><time>2026-05-03T08:17:39.053Z</time></trkpt><trkpt lat="45.928269" lon="13.4665727"><ele>36.0</ele><time>2026-05-03T08:17:40.049Z</time></trkpt><trkpt lat="45.9283249" lon="13.4666406"><ele>36.0</ele><time>2026-05-03T08:17:41.05Z</time></trkpt><trkpt lat="45.9284208" lon="13.4667178"><ele>41.0</ele><time>2026-05-03T08:17:43.046Z</time></trkpt><trkpt lat="45.9285091" lon="13.4667377"><ele>41.0</ele><time>2026-05-03T08:17:45.047Z</time></trkpt><trkpt lat="45.9285974" lon="13.466755"><ele>41.0</ele><time>2026-05-03T08:17:48.054Z</time></trkpt><trkpt lat="45.9286599" lon="13.4667706"><ele>41.0</ele><time>2026-05-03T08:17:53.047Z</time></trkpt></trkseg><trkseg><trkpt lat="45.9285761" lon="13.4667655"><ele>41.0</ele><time>2026-05-03T08:49:48.038Z</time></trkpt><trkpt lat="45.928495" lon="13.4667434"><ele>41.0</ele><time>2026-05-03T08:49:51.035Z</time></trkpt><trkpt lat="45.9284256" lon="13.4667075"><ele>41.0</ele><time>2026-05-03T08:50:04.039Z</time></trkpt><trkpt lat="45.9283312" lon="13.4666384"><ele>41.0</ele><time>2026-05-03T08:50:06.034Z</time></trkpt><trkpt lat="45.9282728" lon="13.4665866"><ele>41.0</ele><time>2026-05-03T08:50:07.028Z</time></trkpt><trkpt lat="45.9282161" lon="13.4665254"><ele>41.0</ele><time>2026-05-03T08:50:08.038Z</time></trkpt><trkpt lat="45.9281627" lon="13.466463"><ele>40.166666666666664</ele><time>2026-05-03T08:50:09.036Z</time></trkpt><trkpt lat="45.9280716" lon="13.4663833"><ele>39.33333333333333</ele><time>2026-05-03T08:50:11.033Z</time></trkpt><trkpt lat="45.9280062" lon="13.4663149"><ele>38.5</ele><time>2026-05-03T08:50:13.036Z</time></trkpt><trkpt lat="45.9279188" lon="13.466282"><ele>37.666666666666664</ele><time>2026-05-03T08:50:16.042Z</time></trkpt><trkpt lat="45.9278369" lon="13.4663253"><ele>36.833333333333336</ele><time>2026-05-03T08:50:19.03Z</time></trkpt><trkpt lat="45.9277618" lon="13.4663778"><ele>36.0</ele><time>2026-05-03T08:50:22.035Z</time></trkpt><trkpt lat="45.9277046" lon="13.4664908"><ele>36.0</ele><time>2026-05-03T08:50:25.035Z</time></trkpt><trkpt lat="45.9277106" lon="13.466602"><ele>36.0</ele><time>2026-05-03T08:50:27.035Z</time></trkpt><trkpt lat="45.9277561" lon="13.4666933"><ele>36.0</ele><time>2026-05-03T08:50:29.033Z</time></trkpt><trkpt lat="45.9278199" lon="13.4667756"><ele>36.0</ele><time>2026-05-03T08:50:31.034Z</time></trkpt><trkpt lat="45.9278858" lon="13.4668565"><ele>36.0</ele><time>2026-05-03T08:50:33.035Z</time></trkpt><trkpt lat="45.9279606" lon="13.4669547"><ele>36.0</ele><time>2026-05-03T08:50:35.033Z</time></trkpt><trkpt lat="45.9280479" lon="13.4670784"><ele>35.833333333333336</ele><time>2026-05-03T08:50:37.036Z</time></trkpt><trkpt lat="45.9281334" lon="13.4672054"><ele>35.666666666666664</ele><time>2026-05-03T08:50:39.037Z</time></trkpt><trkpt lat="45.9281825" lon="13.4672788"><ele>35.5</ele><time>2026-05-03T08:50:40.03Z</time></trkpt><trkpt lat="45.9282349" lon="13.4673554"><ele>35.33333333333333</ele><time>2026-05-03T08:50:41.04Z</time></trkpt><trkpt lat="45.9282915" lon="13.4674404"><ele>35.166666666666664</ele><time>2026-05-03T08:50:42.03Z</time></trkpt><trkpt lat="45.9283527" lon="13.4675272"><ele>35.0</ele><time>2026-05-03T08:50:43.035Z</time></trkpt><trkpt lat="45.9284162" lon="13.4676179"><ele>35.4</ele><time>2026-05-03T08:50:44.034Z</time></trkpt><trkpt lat="45.9284824" lon="13.4677112"><ele>35.8</ele><time>2026-05-03T08:50:45.031Z</time></trkpt><trkpt lat="45.9285481" lon="13.467804"><ele>36.2</ele><time>2026-05-03T08:50:46.03Z</time></trkpt><trkpt lat="45.928615" lon="13.4678952"><ele>36.6</ele><time>2026-05-03T08:50:47.03Z</time></trkpt><trkpt lat="45.9286802" lon="13.4679795"><ele>37.0</ele><time>2026-05-03T08:50:48.033Z</time></trkpt><trkpt lat="45.9287425" lon="13.4680663"><ele>37.0</ele><time>2026-05-03T08:50:49.032Z</time></trkpt><trkpt lat="45.9288054" lon="13.4681516"><ele>37.0</ele><time>2026-05-03T08:50:50.042Z</time></trkpt><trkpt lat="45.9288683" lon="13.4682371"><ele>37.0</ele><time>2026-05-03T08:50:51.048Z</time></trkpt><trkpt lat="45.928934" lon="13.4683222"><ele>37.0</ele><time>2026-05-03T08:50:52.039Z</time></trkpt><trkpt lat="45.9289972" lon="13.4684095"><ele>37.0</ele><time>2026-05-03T08:50:53.042Z</time></trkpt><trkpt lat="45.9290575" lon="13.4684929"><ele>37.0</ele><time>2026-05-03T08:50:54.041Z</time></trkpt><trkpt lat="45.9291179" lon="13.468578"><ele>37.0</ele><time>2026-05-03T08:50:55.035Z</time></trkpt><trkpt lat="45.9291763" lon="13.4686541"><ele>37.0</ele><time>2026-05-03T08:50:56.039Z</time></trkpt><trkpt lat="45.9292379" lon="13.4687359"><ele>37.0</ele><time>2026-05-03T08:50:57.031Z</time></trkpt><trkpt lat="45.929302" lon="13.4688192"><ele>37.0</ele><time>2026-05-03T08:50:58.037Z</time></trkpt><trkpt lat="45.9293696" lon="13.4689077"><ele>37.0</ele><time>2026-05-03T08:50:59.036Z</time></trkpt><trkpt lat="45.92944" lon="13.4689984"><ele>37.0</ele><time>2026-05-03T08:51:00.03Z</time></trkpt><trkpt lat="45.9295082" lon="13.4690911"><ele>38.0</ele><time>2026-05-03T08:51:01.039Z</time></trkpt><trkpt lat="45.9295817" lon="13.4691904"><ele>39.0</ele><time>2026-05-03T08:51:02.028Z</time></trkpt><trkpt lat="45.9296535" lon="13.4692846"><ele>40.0</ele><time>2026-05-03T08:51:03.043Z</time></trkpt><trkpt lat="45.9297269" lon="13.4693821"><ele>41.0</ele><time>2026-05-03T08:51:04.04Z</time></trkpt><trkpt lat="45.9298007" lon="13.4694779"><ele>42.0</ele><time>2026-05-03T08:51:05.036Z</time></trkpt><trkpt lat="45.9298755" lon="13.4695715"><ele>41.666666666666664</ele><time>2026-05-03T08:51:06.044Z</time></trkpt><trkpt lat="45.9299391" lon="13.4696606"><ele>41.333333333333336</ele><time>2026-05-03T08:51:07.031Z</time></trkpt><trkpt lat="45.9299947" lon="13.4697382"><ele>41.0</ele><time>2026-05-03T08:51:08.027Z</time></trkpt><trkpt lat="45.9300648" lon="13.4698249"><ele>40.66666666666667</ele><time>2026-05-03T08:51:10.034Z</time></trkpt><trkpt lat="45.930115" lon="13.4698879"><ele>40.333333333333336</ele><time>2026-05-03T08:51:20.037Z</time></trkpt><trkpt lat="45.9301637" lon="13.4699592"><ele>40.0</ele><time>2026-05-03T08:51:23.033Z</time></trkpt><trkpt lat="45.9302225" lon="13.4700563"><ele>39.5</ele><time>2026-05-03T08:53:15.031Z</time></trkpt><trkpt lat="45.9303344" lon="13.4700758"><ele>39.0</ele><time>2026-05-03T08:53:17.028Z</time></trkpt><trkpt lat="45.9304031" lon="13.4700747"><ele>38.5</ele><time>2026-05-03T08:53:18.036Z</time></trkpt><trkpt lat="45.9304802" lon="13.4700809"><ele>38.0</ele><time>2026-05-03T08:53:19.032Z</time></trkpt><trkpt lat="45.9305612" lon="13.470084"><ele>37.5</ele><time>2026-05-03T08:53:20.03Z</time></trkpt><trkpt lat="45.9306499" lon="13.4700842"><ele>37.0</ele><time>2026-05-03T08:53:21.035Z</time></trkpt><trkpt lat="45.9307475" lon="13.4700906"><ele>37.0</ele><time>2026-05-03T08:53:22.029Z</time></trkpt><trkpt lat="45.9308466" lon="13.4700973"><ele>37.0</ele><time>2026-05-03T08:53:23.037Z</time></trkpt><trkpt lat="45.9309479" lon="13.4701079"><ele>37.0</ele><time>2026-05-03T08:53:24.043Z</time></trkpt><trkpt lat="45.9311687" lon="13.4701366"><ele>37.0</ele><time>2026-05-03T08:53:26.031Z</time></trkpt><trkpt lat="45.931286" lon="13.4701483"><ele>36.6</ele><time>2026-05-03T08:53:27.032Z</time></trkpt><trkpt lat="45.9314014" lon="13.4701614"><ele>36.2</ele><time>2026-05-03T08:53:28.039Z</time></trkpt><trkpt lat="45.9315122" lon="13.4701775"><ele>35.8</ele><time>2026-05-03T08:53:29.034Z</time></trkpt><trkpt lat="45.931615" lon="13.4701956"><ele>35.4</ele><time>2026-05-03T08:53:30.045Z</time></trkpt><trkpt lat="45.9317107" lon="13.4702137"><ele>35.0</ele><time>2026-05-03T08:53:31.039Z</time></trkpt><trkpt lat="45.9318036" lon="13.470227"><ele>35.0</ele><time>2026-05-03T08:53:32.036Z</time></trkpt><trkpt lat="45.9319042" lon="13.4702398"><ele>35.0</ele><time>2026-05-03T08:53:33.037Z</time></trkpt><trkpt lat="45.9320085" lon="13.4702534"><ele>35.0</ele><time>2026-05-03T08:53:34.037Z</time></trkpt><trkpt lat="45.9321122" lon="13.4702676"><ele>35.0</ele><time>2026-05-03T08:53:35.034Z</time></trkpt><trkpt lat="45.9322164" lon="13.4702803"><ele>35.0</ele><time>2026-05-03T08:53:36.03Z</time></trkpt><trkpt lat="45.9323161" lon="13.470289"><ele>35.0</ele><time>2026-05-03T08:53:37.03Z</time></trkpt><trkpt lat="45.9324085" lon="13.4702916"><ele>35.0</ele><time>2026-05-03T08:53:38.035Z</time></trkpt><trkpt lat="45.9324935" lon="13.4703006"><ele>35.0</ele><time>2026-05-03T08:53:39.026Z</time></trkpt><trkpt lat="45.9325797" lon="13.4703059"><ele>35.0</ele><time>2026-05-03T08:53:40.026Z</time></trkpt><trkpt lat="45.9326601" lon="13.4703099"><ele>35.0</ele><time>2026-05-03T08:53:41.033Z</time></trkpt><trkpt lat="45.9327891" lon="13.4703306"><ele>35.0</ele><time>2026-05-03T08:53:43.028Z</time></trkpt><trkpt lat="45.9328692" lon="13.4703711"><ele>35.0</ele><time>2026-05-03T08:53:45.03Z</time></trkpt><trkpt lat="45.9328299" lon="13.4704809"><ele>35.0</ele><time>2026-05-03T08:53:48.032Z</time></trkpt><trkpt lat="45.9327551" lon="13.4704981"><ele>35.0</ele><time>2026-05-03T08:53:53.027Z</time></trkpt><trkpt lat="45.9326363" lon="13.4704641"><ele>35.0</ele><time>2026-05-03T08:53:55.04Z</time></trkpt><trkpt lat="45.9325481" lon="13.4704325"><ele>35.0</ele><time>2026-05-03T08:53:56.025Z</time></trkpt><trkpt lat="45.9324436" lon="13.47041"><ele>35.0</ele><time>2026-05-03T08:53:57.029Z</time></trkpt><trkpt lat="45.9323422" lon="13.4704018"><ele>35.0</ele><time>2026-05-03T08:53:58.033Z</time></trkpt><trkpt lat="45.9322427" lon="13.4703859"><ele>35.0</ele><time>2026-05-03T08:53:59.027Z</time></trkpt><trkpt lat="45.9321395" lon="13.4703654"><ele>35.0</ele><time>2026-05-03T08:54:00.033Z</time></trkpt><trkpt lat="45.9320276" lon="13.4703529"><ele>35.0</ele><time>2026-05-03T08:54:01.027Z</time></trkpt><trkpt lat="45.9319292" lon="13.4703384"><ele>35.0</ele><time>2026-05-03T08:54:02.04Z</time></trkpt><trkpt lat="45.9316238" lon="13.470319"><ele>35.0</ele><time>2026-05-03T08:54:05.028Z</time></trkpt><trkpt lat="45.9315191" lon="13.4703145"><ele>34.8</ele><time>2026-05-03T08:54:06.031Z</time></trkpt><trkpt lat="45.9314105" lon="13.4702984"><ele>34.6</ele><time>2026-05-03T08:54:07.028Z</time></trkpt><trkpt lat="45.9312993" lon="13.4702747"><ele>34.4</ele><time>2026-05-03T08:54:08.024Z</time></trkpt><trkpt lat="45.9311889" lon="13.4702504"><ele>34.2</ele><time>2026-05-03T08:54:09.031Z</time></trkpt><trkpt lat="45.9310783" lon="13.4702268"><ele>34.0</ele><time>2026-05-03T08:54:10.032Z</time></trkpt><trkpt lat="45.9309631" lon="13.4702046"><ele>34.75</ele><time>2026-05-03T08:54:11.03Z</time></trkpt><trkpt lat="45.9308456" lon="13.4701846"><ele>35.5</ele><time>2026-05-03T08:54:12.028Z</time></trkpt><trkpt lat="45.9307237" lon="13.470167"><ele>36.25</ele><time>2026-05-03T08:54:13.032Z</time></trkpt><trkpt lat="45.9306063" lon="13.4701529"><ele>37.0</ele><time>2026-05-03T08:54:14.03Z</time></trkpt><trkpt lat="45.9304844" lon="13.4701371"><ele>37.0</ele><time>2026-05-03T08:54:15.038Z</time></trkpt><trkpt lat="45.9303611" lon="13.4701263"><ele>37.0</ele><time>2026-05-03T08:54:16.032Z</time></trkpt><trkpt lat="45.9302278" lon="13.4701118"><ele>37.0</ele><time>2026-05-03T08:54:17.026Z</time></trkpt><trkpt lat="45.9300951" lon="13.4701044"><ele>37.0</ele><time>2026-05-03T08:54:18.034Z</time></trkpt><trkpt lat="45.9299681" lon="13.4700943"><ele>37.75</ele><time>2026-05-03T08:54:19.026Z</time></trkpt><trkpt lat="45.9298436" lon="13.4700707"><ele>38.5</ele><time>2026-05-03T08:54:20.037Z</time></trkpt><trkpt lat="45.9297212" lon="13.4700558"><ele>39.25</ele><time>2026-05-03T08:54:21.031Z</time></trkpt><trkpt lat="45.9296008" lon="13.4700404"><ele>40.0</ele><time>2026-05-03T08:54:22.028Z</time></trkpt><trkpt lat="45.9294788" lon="13.4700245"><ele>40.0</ele><time>2026-05-03T08:54:23.043Z</time></trkpt><trkpt lat="45.9293488" lon="13.4700143"><ele>40.0</ele><time>2026-05-03T08:54:24.028Z</time></trkpt><trkpt lat="45.9292129" lon="13.4700089"><ele>40.0</ele><time>2026-05-03T08:54:25.034Z</time></trkpt><trkpt lat="45.929068" lon="13.4699921"><ele>40.0</ele><time>2026-05-03T08:54:26.04Z</time></trkpt><trkpt lat="45.9289161" lon="13.4699548"><ele>39.333333333333336</ele><time>2026-05-03T08:54:27.029Z</time></trkpt><trkpt lat="45.9287691" lon="13.4699153"><ele>38.666666666666664</ele><time>2026-05-03T08:54:28.03Z</time></trkpt><trkpt lat="45.9286127" lon="13.4698942"><ele>38.0</ele><time>2026-05-03T08:54:29.039Z</time></trkpt><trkpt lat="45.9284631" lon="13.4698893"><ele>37.33333333333333</ele><time>2026-05-03T08:54:30.032Z</time></trkpt><trkpt lat="45.9283068" lon="13.4698678"><ele>36.666666666666664</ele><time>2026-05-03T08:54:31.028Z</time></trkpt><trkpt lat="45.9281528" lon="13.4698491"><ele>36.0</ele><time>2026-05-03T08:54:32.027Z</time></trkpt><trkpt lat="45.9280083" lon="13.4698347"><ele>36.0</ele><time>2026-05-03T08:54:33.028Z</time></trkpt><trkpt lat="45.9278625" lon="13.4698119"><ele>36.0</ele><time>2026-05-03T08:54:34.026Z</time></trkpt><trkpt lat="45.9277221" lon="13.4697877"><ele>36.0</ele><time>2026-05-03T08:54:35.027Z</time></trkpt><trkpt lat="45.927583" lon="13.4697608"><ele>36.0</ele><time>2026-05-03T08:54:36.031Z</time></trkpt><trkpt lat="45.9274444" lon="13.4697368"><ele>35.75</ele><time>2026-05-03T08:54:37.028Z</time></trkpt><trkpt lat="45.9273077" lon="13.4697106"><ele>35.5</ele><time>2026-05-03T08:54:38.036Z</time></trkpt><trkpt lat="45.9271734" lon="13.4697008"><ele>35.25</ele><time>2026-05-03T08:54:39.031Z</time></trkpt><trkpt lat="45.9270389" lon="13.4696946"><ele>35.0</ele><time>2026-05-03T08:54:40.038Z</time></trkpt><trkpt lat="45.926913" lon="13.469693"><ele>35.0</ele><time>2026-05-03T08:54:41.027Z</time></trkpt><trkpt lat="45.9267833" lon="13.469682"><ele>35.0</ele><time>2026-05-03T08:54:42.038Z</time></trkpt><trkpt lat="45.9266476" lon="13.4696567"><ele>35.0</ele><time>2026-05-03T08:54:43.032Z</time></trkpt><trkpt lat="45.9265235" lon="13.4696364"><ele>35.0</ele><time>2026-05-03T08:54:44.03Z</time></trkpt><trkpt lat="45.9264109" lon="13.4696275"><ele>35.0</ele><time>2026-05-03T08:54:45.032Z</time></trkpt><trkpt lat="45.9262831" lon="13.4696247"><ele>35.0</ele><time>2026-05-03T08:54:46.029Z</time></trkpt><trkpt lat="45.9261543" lon="13.4696131"><ele>35.0</ele><time>2026-05-03T08:54:47.028Z</time></trkpt><trkpt lat="45.9260243" lon="13.4696037"><ele>35.0</ele><time>2026-05-03T08:54:48.031Z</time></trkpt><trkpt lat="45.9258945" lon="13.4695868"><ele>35.2</ele><time>2026-05-03T08:54:49.027Z</time></trkpt><trkpt lat="45.9257658" lon="13.4695732"><ele>35.4</ele><time>2026-05-03T08:54:50.029Z</time></trkpt><trkpt lat="45.9256526" lon="13.4695524"><ele>35.6</ele><time>2026-05-03T08:54:51.029Z</time></trkpt><trkpt lat="45.9255668" lon="13.4695383"><ele>35.8</ele><time>2026-05-03T08:54:52.039Z</time></trkpt><trkpt lat="45.9254549" lon="13.4695255"><ele>36.0</ele><time>2026-05-03T08:54:54.036Z</time></trkpt><trkpt lat="45.925378" lon="13.4695179"><ele>36.0</ele><time>2026-05-03T08:54:55.03Z</time></trkpt><trkpt lat="45.9252882" lon="13.4695092"><ele>36.0</ele><time>2026-05-03T08:54:56.034Z</time></trkpt><trkpt lat="45.9251986" lon="13.4694949"><ele>36.0</ele><time>2026-05-03T08:54:57.029Z</time></trkpt><trkpt lat="45.9251162" lon="13.4694809"><ele>36.0</ele><time>2026-05-03T08:54:58.028Z</time></trkpt><trkpt lat="45.9250474" lon="13.4694999"><ele>36.0</ele><time>2026-05-03T08:55:00.04Z</time></trkpt><trkpt lat="45.9250549" lon="13.4696562"><ele>36.0</ele><time>2026-05-03T08:55:03.027Z</time></trkpt><trkpt lat="45.9250575" lon="13.4697508"><ele>35.8</ele><time>2026-05-03T08:55:04.033Z</time></trkpt><trkpt lat="45.9250641" lon="13.4698598"><ele>35.6</ele><time>2026-05-03T08:55:05.025Z</time></trkpt><trkpt lat="45.9250704" lon="13.4699851"><ele>35.4</ele><time>2026-05-03T08:55:06.033Z</time></trkpt><trkpt lat="45.9250829" lon="13.4701241"><ele>35.2</ele><time>2026-05-03T08:55:07.029Z</time></trkpt><trkpt lat="45.9250943" lon="13.4702727"><ele>35.0</ele><time>2026-05-03T08:55:08.033Z</time></trkpt><trkpt lat="45.9251145" lon="13.470431"><ele>34.75</ele><time>2026-05-03T08:55:09.035Z</time></trkpt><trkpt lat="45.9251399" lon="13.470601"><ele>34.5</ele><time>2026-05-03T08:55:10.028Z</time></trkpt><trkpt lat="45.9251732" lon="13.4707883"><ele>34.25</ele><time>2026-05-03T08:55:11.033Z</time></trkpt><trkpt lat="45.925211" lon="13.4709796"><ele>34.0</ele><time>2026-05-03T08:55:12.028Z</time></trkpt><trkpt lat="45.9252534" lon="13.4711788"><ele>33.66666666666667</ele><time>2026-05-03T08:55:13.031Z</time></trkpt><trkpt lat="45.9253006" lon="13.4713886"><ele>33.333333333333336</ele><time>2026-05-03T08:55:14.026Z</time></trkpt><trkpt lat="45.9253587" lon="13.4716335"><ele>33.0</ele><time>2026-05-03T08:55:15.04Z</time></trkpt><trkpt lat="45.9254166" lon="13.4718846"><ele>33.333333333333336</ele><time>2026-05-03T08:55:16.025Z</time></trkpt><trkpt lat="45.9254812" lon="13.4721126"><ele>33.66666666666667</ele><time>2026-05-03T08:55:17.024Z</time></trkpt><trkpt lat="45.9255452" lon="13.4723405"><ele>34.0</ele><time>2026-05-03T08:55:18.026Z</time></trkpt><trkpt lat="45.9256134" lon="13.4725605"><ele>34.0</ele><time>2026-05-03T08:55:19.025Z</time></trkpt><trkpt lat="45.9256783" lon="13.4727627"><ele>34.0</ele><time>2026-05-03T08:55:20.03Z</time></trkpt><trkpt lat="45.9257397" lon="13.4729636"><ele>34.0</ele><time>2026-05-03T08:55:21.024Z</time></trkpt><trkpt lat="45.9258196" lon="13.4731602"><ele>34.0</ele><time>2026-05-03T08:55:22.028Z</time></trkpt><trkpt lat="45.9259103" lon="13.4733512"><ele>34.0</ele><time>2026-05-03T08:55:23.027Z</time></trkpt><trkpt lat="45.9259995" lon="13.4735479"><ele>34.0</ele><time>2026-05-03T08:55:24.022Z</time></trkpt><trkpt lat="45.9260855" lon="13.4737243"><ele>34.5</ele><time>2026-05-03T08:55:25.03Z</time></trkpt><trkpt lat="45.9261581" lon="13.4739067"><ele>35.0</ele><time>2026-05-03T08:55:26.023Z</time></trkpt><trkpt lat="45.9262301" lon="13.474092"><ele>35.5</ele><time>2026-05-03T08:55:27.023Z</time></trkpt><trkpt lat="45.9262972" lon="13.4742562"><ele>36.0</ele><time>2026-05-03T08:55:28.029Z</time></trkpt><trkpt lat="45.9263667" lon="13.4744299"><ele>36.0</ele><time>2026-05-03T08:55:29.034Z</time></trkpt><trkpt lat="45.926428" lon="13.4745836"><ele>36.0</ele><time>2026-05-03T08:55:30.024Z</time></trkpt><trkpt lat="45.9264761" lon="13.4747172"><ele>36.0</ele><time>2026-05-03T08:55:31.026Z</time></trkpt><trkpt lat="45.9265142" lon="13.4748182"><ele>36.0</ele><time>2026-05-03T08:55:32.041Z</time></trkpt><trkpt lat="45.9265459" lon="13.4749013"><ele>36.0</ele><time>2026-05-03T08:55:33.027Z</time></trkpt><trkpt lat="45.9266056" lon="13.4750039"><ele>36.0</ele><time>2026-05-03T08:55:35.027Z</time></trkpt><trkpt lat="45.9266779" lon="13.4749779"><ele>36.0</ele><time>2026-05-03T08:55:37.045Z</time></trkpt><trkpt lat="45.9268003" lon="13.4748651"><ele>36.0</ele><time>2026-05-03T08:55:39.029Z</time></trkpt><trkpt lat="45.9268964" lon="13.4747926"><ele>36.0</ele><time>2026-05-03T08:55:40.024Z</time></trkpt><trkpt lat="45.9270053" lon="13.4747129"><ele>35.75</ele><time>2026-05-03T08:55:41.025Z</time></trkpt><trkpt lat="45.9271206" lon="13.4746208"><ele>35.5</ele><time>2026-05-03T08:55:42.022Z</time></trkpt><trkpt lat="45.9272471" lon="13.4745218"><ele>35.25</ele><time>2026-05-03T08:55:43.029Z</time></trkpt><trkpt lat="45.9273776" lon="13.4744229"><ele>35.0</ele><time>2026-05-03T08:55:44.027Z</time></trkpt><trkpt lat="45.9275148" lon="13.4743202"><ele>35.0</ele><time>2026-05-03T08:55:45.037Z</time></trkpt><trkpt lat="45.9276598" lon="13.4742114"><ele>35.0</ele><time>2026-05-03T08:55:46.028Z</time></trkpt><trkpt lat="45.9277993" lon="13.4741116"><ele>35.0</ele><time>2026-05-03T08:55:47.03Z</time></trkpt><trkpt lat="45.9279323" lon="13.4740149"><ele>35.0</ele><time>2026-05-03T08:55:48.035Z</time></trkpt><trkpt lat="45.9280419" lon="13.4739279"><ele>35.0</ele><time>2026-05-03T08:55:49.031Z</time></trkpt><trkpt lat="45.9281392" lon="13.4738539"><ele>35.0</ele><time>2026-05-03T08:55:50.041Z</time></trkpt><trkpt lat="45.9282426" lon="13.4737789"><ele>35.0</ele><time>2026-05-03T08:55:51.028Z</time></trkpt><trkpt lat="45.9283669" lon="13.4736928"><ele>34.666666666666664</ele><time>2026-05-03T08:55:52.036Z</time></trkpt><trkpt lat="45.9285018" lon="13.4736028"><ele>34.333333333333336</ele><time>2026-05-03T08:55:53.027Z</time></trkpt><trkpt lat="45.9286364" lon="13.4735079"><ele>34.0</ele><time>2026-05-03T08:55:54.031Z</time></trkpt><trkpt lat="45.9287808" lon="13.4734085"><ele>34.0</ele><time>2026-05-03T08:55:55.024Z</time></trkpt><trkpt lat="45.9289242" lon="13.4733108"><ele>34.0</ele><time>2026-05-03T08:55:56.027Z</time></trkpt><trkpt lat="45.9290719" lon="13.4732015"><ele>34.0</ele><time>2026-05-03T08:55:57.039Z</time></trkpt><trkpt lat="45.92921" lon="13.4731048"><ele>34.0</ele><time>2026-05-03T08:55:58.029Z</time></trkpt><trkpt lat="45.9293407" lon="13.4730152"><ele>34.0</ele><time>2026-05-03T08:55:59.032Z</time></trkpt><trkpt lat="45.9294646" lon="13.4729155"><ele>34.0</ele><time>2026-05-03T08:56:00.029Z</time></trkpt><trkpt lat="45.9295947" lon="13.4728264"><ele>34.0</ele><time>2026-05-03T08:56:01.03Z</time></trkpt><trkpt lat="45.9297264" lon="13.4727378"><ele>34.333333333333336</ele><time>2026-05-03T08:56:02.032Z</time></trkpt><trkpt lat="45.9298631" lon="13.4726378"><ele>34.666666666666664</ele><time>2026-05-03T08:56:03.029Z</time></trkpt><trkpt lat="45.9300011" lon="13.4725443"><ele>35.0</ele><time>2026-05-03T08:56:04.037Z</time></trkpt><trkpt lat="45.930129" lon="13.472444"><ele>35.0</ele><time>2026-05-03T08:56:05.03Z</time></trkpt><trkpt lat="45.9302519" lon="13.472355"><ele>35.0</ele><time>2026-05-03T08:56:06.025Z</time></trkpt><trkpt lat="45.9303709" lon="13.4722715"><ele>35.0</ele><time>2026-05-03T08:56:07.037Z</time></trkpt><trkpt lat="45.9304879" lon="13.4721813"><ele>35.0</ele><time>2026-05-03T08:56:08.028Z</time></trkpt><trkpt lat="45.930597" lon="13.4721084"><ele>35.0</ele><time>2026-05-03T08:56:09.03Z</time></trkpt><trkpt lat="45.930688" lon="13.4720276"><ele>35.0</ele><time>2026-05-03T08:56:10.023Z</time></trkpt><trkpt lat="45.9307724" lon="13.4719776"><ele>35.0</ele><time>2026-05-03T08:56:11.031Z</time></trkpt><trkpt lat="45.9308327" lon="13.4719395"><ele>35.0</ele><time>2026-05-03T08:56:12.03Z</time></trkpt><trkpt lat="45.9308842" lon="13.4718833"><ele>35.0</ele><time>2026-05-03T08:56:14.026Z</time></trkpt><trkpt lat="45.9309654" lon="13.471828"><ele>35.0</ele><time>2026-05-03T08:56:17.036Z</time></trkpt><trkpt lat="45.9310876" lon="13.4717435"><ele>35.2</ele><time>2026-05-03T08:56:19.035Z</time></trkpt><trkpt lat="45.9311583" lon="13.4716934"><ele>35.4</ele><time>2026-05-03T08:56:20.027Z</time></trkpt><trkpt lat="45.9312361" lon="13.4716336"><ele>35.6</ele><time>2026-05-03T08:56:21.031Z</time></trkpt><trkpt lat="45.931322" lon="13.4715707"><ele>35.8</ele><time>2026-05-03T08:56:22.034Z</time></trkpt><trkpt lat="45.9314153" lon="13.4715023"><ele>36.0</ele><time>2026-05-03T08:56:23.031Z</time></trkpt><trkpt lat="45.9315108" lon="13.4714322"><ele>36.0</ele><time>2026-05-03T08:56:24.029Z</time></trkpt><trkpt lat="45.9316074" lon="13.4713623"><ele>36.0</ele><time>2026-05-03T08:56:25.031Z</time></trkpt><trkpt lat="45.9317097" lon="13.4712885"><ele>36.0</ele><time>2026-05-03T08:56:26.028Z</time></trkpt><trkpt lat="45.9318172" lon="13.4712091"><ele>36.0</ele><time>2026-05-03T08:56:27.026Z</time></trkpt><trkpt lat="45.9319315" lon="13.4711311"><ele>36.25</ele><time>2026-05-03T08:56:28.027Z</time></trkpt><trkpt lat="45.9320453" lon="13.4710554"><ele>36.5</ele><time>2026-05-03T08:56:29.038Z</time></trkpt><trkpt lat="45.932163" lon="13.4709704"><ele>36.75</ele><time>2026-05-03T08:56:30.029Z</time></trkpt><trkpt lat="45.9322762" lon="13.4708909"><ele>37.0</ele><time>2026-05-03T08:56:31.032Z</time></trkpt><trkpt lat="45.9323847" lon="13.4708091"><ele>37.0</ele><time>2026-05-03T08:56:32.038Z</time></trkpt><trkpt lat="45.9324885" lon="13.4707306"><ele>37.0</ele><time>2026-05-03T08:56:33.029Z</time></trkpt><trkpt lat="45.9325888" lon="13.4706589"><ele>37.0</ele><time>2026-05-03T08:56:34.035Z</time></trkpt><trkpt lat="45.9326813" lon="13.4705888"><ele>37.0</ele><time>2026-05-03T08:56:35.025Z</time></trkpt><trkpt lat="45.9327642" lon="13.4705224"><ele>37.0</ele><time>2026-05-03T08:56:36.025Z</time></trkpt><trkpt lat="45.9328353" lon="13.4704696"><ele>37.0</ele><time>2026-05-03T08:56:37.031Z</time></trkpt><trkpt lat="45.9328983" lon="13.4704379"><ele>37.0</ele><time>2026-05-03T08:56:38.031Z</time></trkpt><trkpt lat="45.9329631" lon="13.4704299"><ele>37.0</ele><time>2026-05-03T08:56:39.024Z</time></trkpt><trkpt lat="45.9330451" lon="13.4704365"><ele>37.0</ele><time>2026-05-03T08:56:40.035Z</time></trkpt><trkpt lat="45.9331489" lon="13.4704647"><ele>37.0</ele><time>2026-05-03T08:56:41.028Z</time></trkpt><trkpt lat="45.9332765" lon="13.4704948"><ele>37.0</ele><time>2026-05-03T08:56:42.028Z</time></trkpt><trkpt lat="45.9334217" lon="13.4705216"><ele>37.0</ele><time>2026-05-03T08:56:43.025Z</time></trkpt><trkpt lat="45.9335794" lon="13.470549"><ele>37.0</ele><time>2026-05-03T08:56:44.022Z</time></trkpt><trkpt lat="45.9337338" lon="13.4705613"><ele>37.0</ele><time>2026-05-03T08:56:45.025Z</time></trkpt><trkpt lat="45.9338736" lon="13.4705847"><ele>37.0</ele><time>2026-05-03T08:56:46.026Z</time></trkpt><trkpt lat="45.9340172" lon="13.4706246"><ele>37.0</ele><time>2026-05-03T08:56:47.025Z</time></trkpt><trkpt lat="45.9341635" lon="13.4706601"><ele>37.0</ele><time>2026-05-03T08:56:48.034Z</time></trkpt><trkpt lat="45.9343101" lon="13.4706823"><ele>37.0</ele><time>2026-05-03T08:56:49.025Z</time></trkpt><trkpt lat="45.9344591" lon="13.4706979"><ele>36.75</ele><time>2026-05-03T08:56:50.024Z</time></trkpt><trkpt lat="45.9346023" lon="13.470704"><ele>36.5</ele><time>2026-05-03T08:56:51.034Z</time></trkpt><trkpt lat="45.9347196" lon="13.4707018"><ele>36.25</ele><time>2026-05-03T08:56:52.025Z</time></trkpt><trkpt lat="45.934841" lon="13.4707167"><ele>36.0</ele><time>2026-05-03T08:56:53.032Z</time></trkpt><trkpt lat="45.934972" lon="13.4707363"><ele>36.5</ele><time>2026-05-03T08:56:54.029Z</time></trkpt><trkpt lat="45.9351021" lon="13.470751"><ele>37.0</ele><time>2026-05-03T08:56:55.028Z</time></trkpt><trkpt lat="45.9352252" lon="13.470772"><ele>37.5</ele><time>2026-05-03T08:56:56.027Z</time></trkpt><trkpt lat="45.935362" lon="13.4707955"><ele>38.0</ele><time>2026-05-03T08:56:57.031Z</time></trkpt><trkpt lat="45.9355044" lon="13.4708143"><ele>38.0</ele><time>2026-05-03T08:56:58.026Z</time></trkpt><trkpt lat="45.9356302" lon="13.4708352"><ele>38.0</ele><time>2026-05-03T08:56:59.029Z</time></trkpt><trkpt lat="45.9357551" lon="13.4708445"><ele>38.0</ele><time>2026-05-03T08:57:00.03Z</time></trkpt><trkpt lat="45.9358807" lon="13.4708575"><ele>38.0</ele><time>2026-05-03T08:57:01.023Z</time></trkpt><trkpt lat="45.9360027" lon="13.4708732"><ele>37.25</ele><time>2026-05-03T08:57:02.038Z</time></trkpt><trkpt lat="45.9361276" lon="13.4708858"><ele>36.5</ele><time>2026-05-03T08:57:03.025Z</time></trkpt><trkpt lat="45.9362455" lon="13.4709045"><ele>35.75</ele><time>2026-05-03T08:57:04.027Z</time></trkpt><trkpt lat="45.9363645" lon="13.4709227"><ele>35.0</ele><time>2026-05-03T08:57:05.028Z</time></trkpt><trkpt lat="45.9364845" lon="13.4709406"><ele>35.0</ele><time>2026-05-03T08:57:06.031Z</time></trkpt><trkpt lat="45.9366051" lon="13.4709542"><ele>35.0</ele><time>2026-05-03T08:57:07.031Z</time></trkpt><trkpt lat="45.9367155" lon="13.4709667"><ele>35.0</ele><time>2026-05-03T08:57:08.033Z</time></trkpt><trkpt lat="45.9368115" lon="13.4709776"><ele>35.0</ele><time>2026-05-03T08:57:09.03Z</time></trkpt><trkpt lat="45.9368875" lon="13.4709754"><ele>35.0</ele><time>2026-05-03T08:57:10.037Z</time></trkpt><trkpt lat="45.9369546" lon="13.4709525"><ele>35.2</ele><time>2026-05-03T08:57:11.032Z</time></trkpt><trkpt lat="45.9370173" lon="13.4708953"><ele>35.4</ele><time>2026-05-03T08:57:12.028Z</time></trkpt><trkpt lat="45.9370854" lon="13.4708004"><ele>35.6</ele><time>2026-05-03T08:57:13.028Z</time></trkpt><trkpt lat="45.9371651" lon="13.4707075"><ele>35.8</ele><time>2026-05-03T08:57:14.035Z</time></trkpt><trkpt lat="45.9372438" lon="13.4706235"><ele>36.0</ele><time>2026-05-03T08:57:15.032Z</time></trkpt><trkpt lat="45.9373284" lon="13.4705457"><ele>36.0</ele><time>2026-05-03T08:57:16.028Z</time></trkpt><trkpt lat="45.9374207" lon="13.4704764"><ele>36.0</ele><time>2026-05-03T08:57:17.029Z</time></trkpt><trkpt lat="45.9375148" lon="13.4704088"><ele>36.0</ele><time>2026-05-03T08:57:18.03Z</time></trkpt><trkpt lat="45.9376026" lon="13.4703544"><ele>36.0</ele><time>2026-05-03T08:57:19.033Z</time></trkpt><trkpt lat="45.9376832" lon="13.4702964"><ele>36.0</ele><time>2026-05-03T08:57:20.024Z</time></trkpt><trkpt lat="45.9377767" lon="13.4702284"><ele>36.5</ele><time>2026-05-03T08:57:21.031Z</time></trkpt><trkpt lat="45.9378839" lon="13.4701539"><ele>37.0</ele><time>2026-05-03T08:57:22.031Z</time></trkpt><trkpt lat="45.938006" lon="13.4700714"><ele>37.5</ele><time>2026-05-03T08:57:23.025Z</time></trkpt><trkpt lat="45.9381407" lon="13.4699976"><ele>38.0</ele><time>2026-05-03T08:57:24.036Z</time></trkpt><trkpt lat="45.9382787" lon="13.4699208"><ele>37.666666666666664</ele><time>2026-05-03T08:57:25.031Z</time></trkpt><trkpt lat="45.9384364" lon="13.4698181"><ele>37.333333333333336</ele><time>2026-05-03T08:57:26.028Z</time></trkpt><trkpt lat="45.9385841" lon="13.4697155"><ele>37.0</ele><time>2026-05-03T08:57:27.034Z</time></trkpt><trkpt lat="45.93873" lon="13.4696081"><ele>37.0</ele><time>2026-05-03T08:57:28.034Z</time></trkpt><trkpt lat="45.9388655" lon="13.4694978"><ele>37.0</ele><time>2026-05-03T08:57:29.032Z</time></trkpt><trkpt lat="45.9389978" lon="13.469386"><ele>37.0</ele><time>2026-05-03T08:57:30.024Z</time></trkpt><trkpt lat="45.9391367" lon="13.469285"><ele>36.0</ele><time>2026-05-03T08:57:31.032Z</time></trkpt><trkpt lat="45.9392766" lon="13.4691949"><ele>35.0</ele><time>2026-05-03T08:57:32.029Z</time></trkpt><trkpt lat="45.9394259" lon="13.4691093"><ele>34.0</ele><time>2026-05-03T08:57:33.033Z</time></trkpt><trkpt lat="45.9395657" lon="13.4690345"><ele>34.0</ele><time>2026-05-03T08:57:34.033Z</time></trkpt><trkpt lat="45.9396992" lon="13.4689943"><ele>34.0</ele><time>2026-05-03T08:57:35.032Z</time></trkpt><trkpt lat="45.9398213" lon="13.4689896"><ele>34.0</ele><time>2026-05-03T08:57:36.033Z</time></trkpt><trkpt lat="45.9399452" lon="13.4690108"><ele>34.0</ele><time>2026-05-03T08:57:37.027Z</time></trkpt><trkpt lat="45.9400763" lon="13.4690422"><ele>35.0</ele><time>2026-05-03T08:57:38.023Z</time></trkpt><trkpt lat="45.9402156" lon="13.4690769"><ele>36.0</ele><time>2026-05-03T08:57:39.032Z</time></trkpt><trkpt lat="45.940343" lon="13.469101"><ele>37.0</ele><time>2026-05-03T08:57:40.031Z</time></trkpt><trkpt lat="45.9404623" lon="13.4690972"><ele>38.0</ele><time>2026-05-03T08:57:41.026Z</time></trkpt><trkpt lat="45.9405751" lon="13.4690584"><ele>38.0</ele><time>2026-05-03T08:57:42.036Z</time></trkpt><trkpt lat="45.9406892" lon="13.4689908"><ele>38.0</ele><time>2026-05-03T08:57:43.029Z</time></trkpt><trkpt lat="45.9408183" lon="13.4688982"><ele>38.0</ele><time>2026-05-03T08:57:44.04Z</time></trkpt><trkpt lat="45.9409458" lon="13.4688113"><ele>38.0</ele><time>2026-05-03T08:57:45.033Z</time></trkpt><trkpt lat="45.9410729" lon="13.4687534"><ele>38.25</ele><time>2026-05-03T08:57:46.035Z</time></trkpt><trkpt lat="45.9411917" lon="13.468755"><ele>38.5</ele><time>2026-05-03T08:57:47.029Z</time></trkpt><trkpt lat="45.9413129" lon="13.4687668"><ele>38.75</ele><time>2026-05-03T08:57:48.027Z</time></trkpt><trkpt lat="45.9414354" lon="13.4687928"><ele>39.0</ele><time>2026-05-03T08:57:49.031Z</time></trkpt><trkpt lat="45.9415812" lon="13.4688563"><ele>39.0</ele><time>2026-05-03T08:57:50.037Z</time></trkpt><trkpt lat="45.9417419" lon="13.4689472"><ele>39.0</ele><time>2026-05-03T08:57:51.033Z</time></trkpt><trkpt lat="45.9419046" lon="13.4690081"><ele>39.0</ele><time>2026-05-03T08:57:52.029Z</time></trkpt><trkpt lat="45.9420694" lon="13.4690748"><ele>39.0</ele><time>2026-05-03T08:57:53.022Z</time></trkpt><trkpt lat="45.942231" lon="13.4691312"><ele>39.0</ele><time>2026-05-03T08:57:54.036Z</time></trkpt><trkpt lat="45.9423839" lon="13.4691805"><ele>39.0</ele><time>2026-05-03T08:57:55.027Z</time></trkpt><trkpt lat="45.9425176" lon="13.469225"><ele>39.0</ele><time>2026-05-03T08:57:56.034Z</time></trkpt><trkpt lat="45.9426226" lon="13.4692537"><ele>39.0</ele><time>2026-05-03T08:57:57.027Z</time></trkpt><trkpt lat="45.9426995" lon="13.4692814"><ele>39.0</ele><time>2026-05-03T08:57:58.026Z</time></trkpt><trkpt lat="45.9427914" lon="13.4693107"><ele>39.0</ele><time>2026-05-03T08:58:00.029Z</time></trkpt><trkpt lat="45.9428536" lon="13.4693268"><ele>39.0</ele><time>2026-05-03T08:58:02.035Z</time></trkpt><trkpt lat="45.9429284" lon="13.4693442"><ele>39.0</ele><time>2026-05-03T08:58:05.035Z</time></trkpt><trkpt lat="45.9430129" lon="13.4693169"><ele>39.0</ele><time>2026-05-03T08:58:08.04Z</time></trkpt><trkpt lat="45.9431413" lon="13.4692351"><ele>39.0</ele><time>2026-05-03T08:58:10.028Z</time></trkpt><trkpt lat="45.9432484" lon="13.469153"><ele>39.0</ele><time>2026-05-03T08:58:11.026Z</time></trkpt><trkpt lat="45.9433833" lon="13.469053"><ele>39.0</ele><time>2026-05-03T08:58:12.029Z</time></trkpt><trkpt lat="45.9435415" lon="13.4689314"><ele>39.4</ele><time>2026-05-03T08:58:13.029Z</time></trkpt><trkpt lat="45.94366" lon="13.4688294"><ele>39.8</ele><time>2026-05-03T08:58:14.026Z</time></trkpt><trkpt lat="45.943701" lon="13.4687197"><ele>40.199999999999996</ele><time>2026-05-03T08:58:15.023Z</time></trkpt><trkpt lat="45.9437215" lon="13.4686149"><ele>40.599999999999994</ele><time>2026-05-03T08:58:16.024Z</time></trkpt><trkpt lat="45.9437618" lon="13.4685061"><ele>41.0</ele><time>2026-05-03T08:58:17.03Z</time></trkpt><trkpt lat="45.9438538" lon="13.4684222"><ele>41.0</ele><time>2026-05-03T08:58:18.034Z</time></trkpt><trkpt lat="45.9440033" lon="13.4683379"><ele>41.0</ele><time>2026-05-03T08:58:19.026Z</time></trkpt><trkpt lat="45.944158" lon="13.4682205"><ele>41.0</ele><time>2026-05-03T08:58:20.033Z</time></trkpt><trkpt lat="45.9443546" lon="13.4680758"><ele>41.0</ele><time>2026-05-03T08:58:21.025Z</time></trkpt><trkpt lat="45.9445809" lon="13.4679313"><ele>41.0</ele><time>2026-05-03T08:58:22.036Z</time></trkpt><trkpt lat="45.9447883" lon="13.4678684"><ele>41.0</ele><time>2026-05-03T08:58:23.026Z</time></trkpt><trkpt lat="45.9449754" lon="13.467834"><ele>41.0</ele><time>2026-05-03T08:58:24.031Z</time></trkpt><trkpt lat="45.9451626" lon="13.4677524"><ele>41.0</ele><time>2026-05-03T08:58:25.031Z</time></trkpt><trkpt lat="45.9453617" lon="13.467612"><ele>42.0</ele><time>2026-05-03T08:58:26.023Z</time></trkpt><trkpt lat="45.9455301" lon="13.4674977"><ele>43.0</ele><time>2026-05-03T08:58:27.025Z</time></trkpt><trkpt lat="45.9456707" lon="13.467415"><ele>44.0</ele><time>2026-05-03T08:58:28.03Z</time></trkpt><trkpt lat="45.9457718" lon="13.4673458"><ele>44.0</ele><time>2026-05-03T08:58:29.027Z</time></trkpt><trkpt lat="45.9458604" lon="13.4672983"><ele>44.0</ele><time>2026-05-03T08:58:30.021Z</time></trkpt><trkpt lat="45.9459303" lon="13.4672695"><ele>44.0</ele><time>2026-05-03T08:58:31.026Z</time></trkpt><trkpt lat="45.9459929" lon="13.4672552"><ele>44.0</ele><time>2026-05-03T08:58:32.03Z</time></trkpt><trkpt lat="45.9460579" lon="13.4673411"><ele>44.0</ele><time>2026-05-03T08:58:35.026Z</time></trkpt><trkpt lat="45.9461278" lon="13.4674921"><ele>44.0</ele><time>2026-05-03T08:58:37.03Z</time></trkpt><trkpt lat="45.9461795" lon="13.4675843"><ele>44.0</ele><time>2026-05-03T08:58:38.03Z</time></trkpt><trkpt lat="45.9462362" lon="13.4676854"><ele>44.0</ele><time>2026-05-03T08:58:39.03Z</time></trkpt><trkpt lat="45.9462981" lon="13.4677932"><ele>44.0</ele><time>2026-05-03T08:58:40.028Z</time></trkpt><trkpt lat="45.9463664" lon="13.4679112"><ele>44.0</ele><time>2026-05-03T08:58:41.033Z</time></trkpt><trkpt lat="45.9464389" lon="13.4680533"><ele>44.0</ele><time>2026-05-03T08:58:42.038Z</time></trkpt><trkpt lat="45.9465211" lon="13.4681968"><ele>43.75</ele><time>2026-05-03T08:58:43.032Z</time></trkpt><trkpt lat="45.9466058" lon="13.4683444"><ele>43.5</ele><time>2026-05-03T08:58:44.028Z</time></trkpt><trkpt lat="45.9466901" lon="13.4684914"><ele>43.25</ele><time>2026-05-03T08:58:45.026Z</time></trkpt><trkpt lat="45.9467763" lon="13.4686408"><ele>43.0</ele><time>2026-05-03T08:58:46.036Z</time></trkpt><trkpt lat="45.9468595" lon="13.4687949"><ele>43.5</ele><time>2026-05-03T08:58:47.03Z</time></trkpt><trkpt lat="45.9469435" lon="13.4689582"><ele>44.0</ele><time>2026-05-03T08:58:48.023Z</time></trkpt><trkpt lat="45.94703" lon="13.4691207"><ele>44.5</ele><time>2026-05-03T08:58:49.028Z</time></trkpt><trkpt lat="45.9471284" lon="13.4692887"><ele>45.0</ele><time>2026-05-03T08:58:50.029Z</time></trkpt><trkpt lat="45.9472196" lon="13.4694532"><ele>45.0</ele><time>2026-05-03T08:58:51.031Z</time></trkpt><trkpt lat="45.947301" lon="13.4696199"><ele>45.0</ele><time>2026-05-03T08:58:52.023Z</time></trkpt><trkpt lat="45.9473744" lon="13.4697615"><ele>45.0</ele><time>2026-05-03T08:58:53.027Z</time></trkpt><trkpt lat="45.9474444" lon="13.4699025"><ele>45.0</ele><time>2026-05-03T08:58:54.041Z</time></trkpt><trkpt lat="45.947513" lon="13.4700384"><ele>44.75</ele><time>2026-05-03T08:58:55.026Z</time></trkpt><trkpt lat="45.947587" lon="13.4701717"><ele>44.5</ele><time>2026-05-03T08:58:56.032Z</time></trkpt><trkpt lat="45.9476616" lon="13.4703086"><ele>44.25</ele><time>2026-05-03T08:58:57.032Z</time></trkpt><trkpt lat="45.9477371" lon="13.4704359"><ele>44.0</ele><time>2026-05-03T08:58:58.026Z</time></trkpt><trkpt lat="45.9478095" lon="13.4705473"><ele>43.800000000000004</ele><time>2026-05-03T08:58:59.026Z</time></trkpt><trkpt lat="45.9478684" lon="13.4706195"><ele>43.6</ele><time>2026-05-03T08:59:00.023Z</time></trkpt><trkpt lat="45.9479502" lon="13.4706169"><ele>43.4</ele><time>2026-05-03T08:59:03.024Z</time></trkpt><trkpt lat="45.9480661" lon="13.4705602"><ele>43.2</ele><time>2026-05-03T08:59:05.029Z</time></trkpt><trkpt lat="45.9481406" lon="13.4705113"><ele>43.0</ele><time>2026-05-03T08:59:06.036Z</time></trkpt><trkpt lat="45.9482256" lon="13.4704444"><ele>43.0</ele><time>2026-05-03T08:59:07.027Z</time></trkpt><trkpt lat="45.9483206" lon="13.47036"><ele>43.0</ele><time>2026-05-03T08:59:08.029Z</time></trkpt><trkpt lat="45.9484219" lon="13.4702683"><ele>43.0</ele><time>2026-05-03T08:59:09.027Z</time></trkpt><trkpt lat="45.9485247" lon="13.4701703"><ele>43.0</ele><time>2026-05-03T08:59:10.029Z</time></trkpt><trkpt lat="45.9486316" lon="13.4700696"><ele>43.0</ele><time>2026-05-03T08:59:11.032Z</time></trkpt><trkpt lat="45.9487417" lon="13.4699695"><ele>43.0</ele><time>2026-05-03T08:59:12.029Z</time></trkpt><trkpt lat="45.9488594" lon="13.4698684"><ele>43.0</ele><time>2026-05-03T08:59:13.026Z</time></trkpt><trkpt lat="45.9489818" lon="13.4697643"><ele>43.0</ele><time>2026-05-03T08:59:14.029Z</time></trkpt><trkpt lat="45.9491078" lon="13.4696571"><ele>43.66666666666667</ele><time>2026-05-03T08:59:15.029Z</time></trkpt><trkpt lat="45.9492492" lon="13.4695433"><ele>44.333333333333336</ele><time>2026-05-03T08:59:16.038Z</time></trkpt><trkpt lat="45.9493888" lon="13.4694467"><ele>45.0</ele><time>2026-05-03T08:59:17.026Z</time></trkpt><trkpt lat="45.9495181" lon="13.4693397"><ele>45.0</ele><time>2026-05-03T08:59:18.027Z</time></trkpt><trkpt lat="45.9496459" lon="13.4692433"><ele>45.0</ele><time>2026-05-03T08:59:19.028Z</time></trkpt><trkpt lat="45.9497733" lon="13.4691501"><ele>45.0</ele><time>2026-05-03T08:59:20.03Z</time></trkpt><trkpt lat="45.9499003" lon="13.4690738"><ele>45.0</ele><time>2026-05-03T08:59:21.021Z</time></trkpt><trkpt lat="45.9500273" lon="13.4690089"><ele>45.25</ele><time>2026-05-03T08:59:22.029Z</time></trkpt><trkpt lat="45.9501446" lon="13.4689547"><ele>45.5</ele><time>2026-05-03T08:59:23.031Z</time></trkpt><trkpt lat="45.9502598" lon="13.4689109"><ele>45.75</ele><time>2026-05-03T08:59:24.024Z</time></trkpt><trkpt lat="45.9503788" lon="13.4688591"><ele>46.0</ele><time>2026-05-03T08:59:25.033Z</time></trkpt><trkpt lat="45.9504876" lon="13.4688192"><ele>46.0</ele><time>2026-05-03T08:59:26.026Z</time></trkpt><trkpt lat="45.9505978" lon="13.4687936"><ele>46.0</ele><time>2026-05-03T08:59:27.029Z</time></trkpt><trkpt lat="45.9507053" lon="13.4687834"><ele>46.0</ele><time>2026-05-03T08:59:28.025Z</time></trkpt><trkpt lat="45.9508099" lon="13.468793"><ele>46.0</ele><time>2026-05-03T08:59:29.031Z</time></trkpt><trkpt lat="45.9509076" lon="13.4688305"><ele>46.0</ele><time>2026-05-03T08:59:30.027Z</time></trkpt><trkpt lat="45.9509974" lon="13.4688899"><ele>46.8</ele><time>2026-05-03T08:59:31.029Z</time></trkpt><trkpt lat="45.9510807" lon="13.4689771"><ele>47.599999999999994</ele><time>2026-05-03T08:59:32.035Z</time></trkpt><trkpt lat="45.9511548" lon="13.469079"><ele>48.4</ele><time>2026-05-03T08:59:33.038Z</time></trkpt><trkpt lat="45.9512344" lon="13.4692009"><ele>49.2</ele><time>2026-05-03T08:59:34.027Z</time></trkpt><trkpt lat="45.9513178" lon="13.46933"><ele>50.0</ele><time>2026-05-03T08:59:35.023Z</time></trkpt><trkpt lat="45.9514056" lon="13.4694648"><ele>50.0</ele><time>2026-05-03T08:59:36.028Z</time></trkpt><trkpt lat="45.9514915" lon="13.469596"><ele>50.0</ele><time>2026-05-03T08:59:37.034Z</time></trkpt><trkpt lat="45.9515712" lon="13.4697177"><ele>50.0</ele><time>2026-05-03T08:59:38.028Z</time></trkpt><trkpt lat="45.951649" lon="13.469831"><ele>50.0</ele><time>2026-05-03T08:59:39.032Z</time></trkpt><trkpt lat="45.9517252" lon="13.4699416"><ele>49.6</ele><time>2026-05-03T08:59:40.029Z</time></trkpt><trkpt lat="45.9517998" lon="13.4700501"><ele>49.2</ele><time>2026-05-03T08:59:41.032Z</time></trkpt><trkpt lat="45.9518722" lon="13.4701494"><ele>48.8</ele><time>2026-05-03T08:59:42.026Z</time></trkpt><trkpt lat="45.9519385" lon="13.4702423"><ele>48.4</ele><time>2026-05-03T08:59:43.027Z</time></trkpt><trkpt lat="45.9519977" lon="13.470327"><ele>48.0</ele><time>2026-05-03T08:59:44.043Z</time></trkpt><trkpt lat="45.9520465" lon="13.470394"><ele>48.0</ele><time>2026-05-03T08:59:45.029Z</time></trkpt><trkpt lat="45.9521066" lon="13.4704587"><ele>48.0</ele><time>2026-05-03T08:59:47.027Z</time></trkpt><trkpt lat="45.9521771" lon="13.4705328"><ele>48.0</ele><time>2026-05-03T08:59:49.032Z</time></trkpt><trkpt lat="45.9522255" lon="13.4705909"><ele>48.0</ele><time>2026-05-03T08:59:50.029Z</time></trkpt><trkpt lat="45.9522763" lon="13.4706531"><ele>48.0</ele><time>2026-05-03T08:59:51.034Z</time></trkpt><trkpt lat="45.952344" lon="13.470727"><ele>48.0</ele><time>2026-05-03T08:59:52.028Z</time></trkpt><trkpt lat="45.9524169" lon="13.4708"><ele>48.0</ele><time>2026-05-03T08:59:53.025Z</time></trkpt><trkpt lat="45.9524904" lon="13.4708753"><ele>48.0</ele><time>2026-05-03T08:59:54.031Z</time></trkpt><trkpt lat="45.9525604" lon="13.4709495"><ele>48.0</ele><time>2026-05-03T08:59:55.033Z</time></trkpt><trkpt lat="45.9526282" lon="13.4710204"><ele>48.0</ele><time>2026-05-03T08:59:56.027Z</time></trkpt><trkpt lat="45.9526984" lon="13.4710919"><ele>48.0</ele><time>2026-05-03T08:59:57.031Z</time></trkpt><trkpt lat="45.9527701" lon="13.4711617"><ele>48.0</ele><time>2026-05-03T08:59:58.033Z</time></trkpt><trkpt lat="45.9528461" lon="13.4712237"><ele>48.0</ele><time>2026-05-03T08:59:59.03Z</time></trkpt><trkpt lat="45.9529296" lon="13.4712917"><ele>48.0</ele><time>2026-05-03T09:00:00.03Z</time></trkpt><trkpt lat="45.9530306" lon="13.4713653"><ele>48.0</ele><time>2026-05-03T09:00:01.02Z</time></trkpt><trkpt lat="45.9531266" lon="13.4714542"><ele>48.0</ele><time>2026-05-03T09:00:02.02Z</time></trkpt><trkpt lat="45.9532292" lon="13.4715481"><ele>48.0</ele><time>2026-05-03T09:00:03.023Z</time></trkpt><trkpt lat="45.9533368" lon="13.471644"><ele>47.75</ele><time>2026-05-03T09:00:04.029Z</time></trkpt><trkpt lat="45.9534434" lon="13.4717398"><ele>47.5</ele><time>2026-05-03T09:00:05.03Z</time></trkpt><trkpt lat="45.9535519" lon="13.4718395"><ele>47.25</ele><time>2026-05-03T09:00:06.038Z</time></trkpt><trkpt lat="45.9536587" lon="13.471941"><ele>47.0</ele><time>2026-05-03T09:00:07.029Z</time></trkpt><trkpt lat="45.9537664" lon="13.4720476"><ele>47.75</ele><time>2026-05-03T09:00:08.037Z</time></trkpt><trkpt lat="45.9538711" lon="13.4721547"><ele>48.5</ele><time>2026-05-03T09:00:09.035Z</time></trkpt><trkpt lat="45.9539761" lon="13.4722576"><ele>49.25</ele><time>2026-05-03T09:00:10.028Z</time></trkpt><trkpt lat="45.9540756" lon="13.472345"><ele>50.0</ele><time>2026-05-03T09:00:11.034Z</time></trkpt><trkpt lat="45.9541755" lon="13.472424"><ele>49.75</ele><time>2026-05-03T09:00:12.03Z</time></trkpt><trkpt lat="45.9542812" lon="13.4724627"><ele>49.5</ele><time>2026-05-03T09:00:13.038Z</time></trkpt><trkpt lat="45.9543932" lon="13.4724655"><ele>49.25</ele><time>2026-05-03T09:00:14.028Z</time></trkpt><trkpt lat="45.9545128" lon="13.4724339"><ele>49.0</ele><time>2026-05-03T09:00:15.024Z</time></trkpt><trkpt lat="45.9546314" lon="13.4723855"><ele>49.0</ele><time>2026-05-03T09:00:16.025Z</time></trkpt><trkpt lat="45.9547546" lon="13.4723384"><ele>49.0</ele><time>2026-05-03T09:00:17.032Z</time></trkpt><trkpt lat="45.9548791" lon="13.4722872"><ele>49.0</ele><time>2026-05-03T09:00:18.021Z</time></trkpt><trkpt lat="45.9550066" lon="13.4722392"><ele>49.0</ele><time>2026-05-03T09:00:19.028Z</time></trkpt><trkpt lat="45.9551363" lon="13.4721989"><ele>49.25</ele><time>2026-05-03T09:00:20.026Z</time></trkpt><trkpt lat="45.9552605" lon="13.4721574"><ele>49.5</ele><time>2026-05-03T09:00:21.027Z</time></trkpt><trkpt lat="45.9553866" lon="13.4721206"><ele>49.75</ele><time>2026-05-03T09:00:22.028Z</time></trkpt><trkpt lat="45.9555096" lon="13.4720866"><ele>50.0</ele><time>2026-05-03T09:00:23.033Z</time></trkpt><trkpt lat="45.9556223" lon="13.4720643"><ele>50.00000000000001</ele><time>2026-05-03T09:00:24.028Z</time></trkpt><trkpt lat="45.9557254" lon="13.4720431"><ele>50.0</ele><time>2026-05-03T09:00:25.029Z</time></trkpt><trkpt lat="45.9558152" lon="13.4720211"><ele>50.0</ele><time>2026-05-03T09:00:26.023Z</time></trkpt><trkpt lat="45.9558974" lon="13.4720068"><ele>50.0</ele><time>2026-05-03T09:00:27.029Z</time></trkpt><trkpt lat="45.9559746" lon="13.4720096"><ele>50.00000000000001</ele><time>2026-05-03T09:00:28.028Z</time></trkpt><trkpt lat="45.9560391" lon="13.4720506"><ele>50.0</ele><time>2026-05-03T09:00:29.028Z</time></trkpt><trkpt lat="45.956082" lon="13.4721382"><ele>50.25</ele><time>2026-05-03T09:00:30.029Z</time></trkpt><trkpt lat="45.956105" lon="13.4722691"><ele>50.5</ele><time>2026-05-03T09:00:31.024Z</time></trkpt><trkpt lat="45.9561116" lon="13.4724306"><ele>50.75</ele><time>2026-05-03T09:00:32.034Z</time></trkpt><trkpt lat="45.9561136" lon="13.4726046"><ele>51.0</ele><time>2026-05-03T09:00:33.028Z</time></trkpt><trkpt lat="45.9561214" lon="13.4727841"><ele>50.75</ele><time>2026-05-03T09:00:34.035Z</time></trkpt><trkpt lat="45.9561281" lon="13.4729658"><ele>50.5</ele><time>2026-05-03T09:00:35.028Z</time></trkpt><trkpt lat="45.9561376" lon="13.4731508"><ele>50.25</ele><time>2026-05-03T09:00:36.023Z</time></trkpt><trkpt lat="45.9561561" lon="13.4733453"><ele>50.0</ele><time>2026-05-03T09:00:37.028Z</time></trkpt><trkpt lat="45.956182" lon="13.4735435"><ele>50.0</ele><time>2026-05-03T09:00:38.035Z</time></trkpt><trkpt lat="45.9562054" lon="13.4737417"><ele>50.0</ele><time>2026-05-03T09:00:39.03Z</time></trkpt><trkpt lat="45.9562297" lon="13.4739443"><ele>50.0</ele><time>2026-05-03T09:00:40.027Z</time></trkpt><trkpt lat="45.9562511" lon="13.4741441"><ele>50.0</ele><time>2026-05-03T09:00:41.022Z</time></trkpt><trkpt lat="45.9562719" lon="13.4743478"><ele>50.25</ele><time>2026-05-03T09:00:42.02Z</time></trkpt><trkpt lat="45.9562985" lon="13.4745585"><ele>50.5</ele><time>2026-05-03T09:00:43.036Z</time></trkpt><trkpt lat="45.9563221" lon="13.4747592"><ele>50.75</ele><time>2026-05-03T09:00:44.029Z</time></trkpt><trkpt lat="45.9563406" lon="13.474957"><ele>51.0</ele><time>2026-05-03T09:00:45.029Z</time></trkpt><trkpt lat="45.9563532" lon="13.4751536"><ele>51.0</ele><time>2026-05-03T09:00:46.034Z</time></trkpt><trkpt lat="45.95638" lon="13.4753439"><ele>51.0</ele><time>2026-05-03T09:00:47.026Z</time></trkpt><trkpt lat="45.9564019" lon="13.4755429"><ele>51.0</ele><time>2026-05-03T09:00:48.036Z</time></trkpt><trkpt lat="45.9564325" lon="13.4757437"><ele>51.0</ele><time>2026-05-03T09:00:49.034Z</time></trkpt><trkpt lat="45.956453" lon="13.4759375"><ele>51.0</ele><time>2026-05-03T09:00:50.028Z</time></trkpt><trkpt lat="45.9564714" lon="13.4761409"><ele>51.0</ele><time>2026-05-03T09:00:51.027Z</time></trkpt><trkpt lat="45.9564961" lon="13.4763451"><ele>51.0</ele><time>2026-05-03T09:00:52.025Z</time></trkpt><trkpt lat="45.9565241" lon="13.4765591"><ele>51.0</ele><time>2026-05-03T09:00:53.02Z</time></trkpt><trkpt lat="45.9565424" lon="13.4767754"><ele>51.0</ele><time>2026-05-03T09:00:54.025Z</time></trkpt><trkpt lat="45.9565621" lon="13.4769897"><ele>51.0</ele><time>2026-05-03T09:00:55.029Z</time></trkpt><trkpt lat="45.9565824" lon="13.4772024"><ele>51.0</ele><time>2026-05-03T09:00:56.026Z</time></trkpt><trkpt lat="45.9566075" lon="13.4774067"><ele>51.0</ele><time>2026-05-03T09:00:57.026Z</time></trkpt><trkpt lat="45.9566274" lon="13.4776056"><ele>51.0</ele><time>2026-05-03T09:00:58.036Z</time></trkpt><trkpt lat="45.9566517" lon="13.4778139"><ele>51.0</ele><time>2026-05-03T09:00:59.024Z</time></trkpt><trkpt lat="45.9566781" lon="13.4780243"><ele>51.0</ele><time>2026-05-03T09:01:00.023Z</time></trkpt><trkpt lat="45.9567028" lon="13.4782269"><ele>51.0</ele><time>2026-05-03T09:01:01.02Z</time></trkpt><trkpt lat="45.9567283" lon="13.4784196"><ele>51.5</ele><time>2026-05-03T09:01:02.038Z</time></trkpt><trkpt lat="45.956752" lon="13.4786297"><ele>52.0</ele><time>2026-05-03T09:01:03.027Z</time></trkpt><trkpt lat="45.956782" lon="13.4788289"><ele>52.5</ele><time>2026-05-03T09:01:04.026Z</time></trkpt><trkpt lat="45.9568041" lon="13.4790256"><ele>53.0</ele><time>2026-05-03T09:01:05.029Z</time></trkpt><trkpt lat="45.9568248" lon="13.4792353"><ele>53.5</ele><time>2026-05-03T09:01:06.034Z</time></trkpt><trkpt lat="45.9568385" lon="13.4794298"><ele>54.0</ele><time>2026-05-03T09:01:07.031Z</time></trkpt><trkpt lat="45.9568573" lon="13.479623"><ele>54.5</ele><time>2026-05-03T09:01:08.019Z</time></trkpt><trkpt lat="45.9568759" lon="13.4798327"><ele>55.0</ele><time>2026-05-03T09:01:09.038Z</time></trkpt><trkpt lat="45.9569047" lon="13.4800335"><ele>55.0</ele><time>2026-05-03T09:01:10.036Z</time></trkpt><trkpt lat="45.95693" lon="13.4802347"><ele>55.0</ele><time>2026-05-03T09:01:11.022Z</time></trkpt><trkpt lat="45.9569575" lon="13.4804365"><ele>55.0</ele><time>2026-05-03T09:01:12.024Z</time></trkpt><trkpt lat="45.9569796" lon="13.4806345"><ele>55.0</ele><time>2026-05-03T09:01:13.028Z</time></trkpt><trkpt lat="45.9569941" lon="13.4808271"><ele>55.75</ele><time>2026-05-03T09:01:14.025Z</time></trkpt><trkpt lat="45.9570097" lon="13.4810102"><ele>56.5</ele><time>2026-05-03T09:01:15.034Z</time></trkpt><trkpt lat="45.9570348" lon="13.4811976"><ele>57.25</ele><time>2026-05-03T09:01:16.026Z</time></trkpt><trkpt lat="45.9570465" lon="13.4813799"><ele>58.0</ele><time>2026-05-03T09:01:17.029Z</time></trkpt><trkpt lat="45.957056" lon="13.481561"><ele>58.5</ele><time>2026-05-03T09:01:18.037Z</time></trkpt><trkpt lat="45.957046" lon="13.481726"><ele>59.0</ele><time>2026-05-03T09:01:19.037Z</time></trkpt><trkpt lat="45.9570186" lon="13.4818788"><ele>59.5</ele><time>2026-05-03T09:01:20.027Z</time></trkpt><trkpt lat="45.9569803" lon="13.4820298"><ele>60.0</ele><time>2026-05-03T09:01:21.028Z</time></trkpt><trkpt lat="45.9569427" lon="13.4821869"><ele>61.0</ele><time>2026-05-03T09:01:22.028Z</time></trkpt><trkpt lat="45.9569157" lon="13.4823572"><ele>62.0</ele><time>2026-05-03T09:01:23.027Z</time></trkpt><trkpt lat="45.9568934" lon="13.4825369"><ele>63.0</ele><time>2026-05-03T09:01:24.026Z</time></trkpt><trkpt lat="45.9568805" lon="13.4827171"><ele>64.0</ele><time>2026-05-03T09:01:25.03Z</time></trkpt><trkpt lat="45.9568663" lon="13.4828998"><ele>65.0</ele><time>2026-05-03T09:01:26.04Z</time></trkpt><trkpt lat="45.9568589" lon="13.4830879"><ele>66.0</ele><time>2026-05-03T09:01:27.03Z</time></trkpt><trkpt lat="45.9568521" lon="13.4832782"><ele>67.0</ele><time>2026-05-03T09:01:28.035Z</time></trkpt><trkpt lat="45.9568513" lon="13.4834585"><ele>68.0</ele><time>2026-05-03T09:01:29.022Z</time></trkpt><trkpt lat="45.9568726" lon="13.4836281"><ele>66.25</ele><time>2026-05-03T09:01:30.035Z</time></trkpt><trkpt lat="45.9569328" lon="13.4837845"><ele>64.5</ele><time>2026-05-03T09:01:31.03Z</time></trkpt><trkpt lat="45.9570227" lon="13.4839224"><ele>62.75</ele><time>2026-05-03T09:01:32.03Z</time></trkpt><trkpt lat="45.9571252" lon="13.4840591"><ele>61.0</ele><time>2026-05-03T09:01:33.029Z</time></trkpt><trkpt lat="45.9572245" lon="13.484197"><ele>61.0</ele><time>2026-05-03T09:01:34.035Z</time></trkpt><trkpt lat="45.9573192" lon="13.4843395"><ele>61.0</ele><time>2026-05-03T09:01:35.031Z</time></trkpt><trkpt lat="45.9574162" lon="13.484492"><ele>61.0</ele><time>2026-05-03T09:01:36.023Z</time></trkpt><trkpt lat="45.9575205" lon="13.4846459"><ele>61.0</ele><time>2026-05-03T09:01:37.024Z</time></trkpt><trkpt lat="45.9576317" lon="13.4848205"><ele>62.0</ele><time>2026-05-03T09:01:38.023Z</time></trkpt><trkpt lat="45.9577397" lon="13.4849897"><ele>63.0</ele><time>2026-05-03T09:01:39.028Z</time></trkpt><trkpt lat="45.9578582" lon="13.4851516"><ele>64.0</ele><time>2026-05-03T09:01:40.026Z</time></trkpt><trkpt lat="45.9579919" lon="13.4853046"><ele>65.0</ele><time>2026-05-03T09:01:41.031Z</time></trkpt><trkpt lat="45.9581398" lon="13.4854438"><ele>66.0</ele><time>2026-05-03T09:01:42.033Z</time></trkpt><trkpt lat="45.9582864" lon="13.4856107"><ele>67.0</ele><time>2026-05-03T09:01:43.034Z</time></trkpt><trkpt lat="45.9584314" lon="13.4857745"><ele>67.0</ele><time>2026-05-03T09:01:44.023Z</time></trkpt><trkpt lat="45.9585734" lon="13.485932"><ele>67.0</ele><time>2026-05-03T09:01:45.026Z</time></trkpt><trkpt lat="45.958705" lon="13.4860892"><ele>67.0</ele><time>2026-05-03T09:01:46.024Z</time></trkpt><trkpt lat="45.9588011" lon="13.4862606"><ele>65.75</ele><time>2026-05-03T09:01:47.021Z</time></trkpt><trkpt lat="45.9588905" lon="13.4864367"><ele>64.5</ele><time>2026-05-03T09:01:48.037Z</time></trkpt><trkpt lat="45.9589772" lon="13.4866235"><ele>63.25</ele><time>2026-05-03T09:01:49.035Z</time></trkpt><trkpt lat="45.9590595" lon="13.4867854"><ele>62.0</ele><time>2026-05-03T09:01:50.027Z</time></trkpt><trkpt lat="45.9591438" lon="13.4869346"><ele>65.0</ele><time>2026-05-03T09:01:51.028Z</time></trkpt><trkpt lat="45.9592198" lon="13.4870885"><ele>68.0</ele><time>2026-05-03T09:01:52.034Z</time></trkpt><trkpt lat="45.9592912" lon="13.4872338"><ele>71.0</ele><time>2026-05-03T09:01:53.035Z</time></trkpt><trkpt lat="45.959353" lon="13.4873676"><ele>74.0</ele><time>2026-05-03T09:01:54.027Z</time></trkpt><trkpt lat="45.9594158" lon="13.4874894"><ele>74.0</ele><time>2026-05-03T09:01:55.03Z</time></trkpt><trkpt lat="45.9594634" lon="13.4876107"><ele>74.0</ele><time>2026-05-03T09:01:56.025Z</time></trkpt><trkpt lat="45.9595092" lon="13.4877209"><ele>74.0</ele><time>2026-05-03T09:01:57.027Z</time></trkpt><trkpt lat="45.9595497" lon="13.4878167"><ele>74.0</ele><time>2026-05-03T09:01:58.03Z</time></trkpt><trkpt lat="45.9595831" lon="13.4878987"><ele>74.0</ele><time>2026-05-03T09:01:59.024Z</time></trkpt><trkpt lat="45.9596173" lon="13.4879989"><ele>74.0</ele><time>2026-05-03T09:02:01.026Z</time></trkpt><trkpt lat="45.9596522" lon="13.4881003"><ele>75.4</ele><time>2026-05-03T09:02:11.026Z</time></trkpt><trkpt lat="45.9596866" lon="13.488209"><ele>76.80000000000001</ele><time>2026-05-03T09:02:13.025Z</time></trkpt><trkpt lat="45.9597373" lon="13.4883388"><ele>78.19999999999999</ele><time>2026-05-03T09:02:15.026Z</time></trkpt><trkpt lat="45.9597883" lon="13.4884857"><ele>79.6</ele><time>2026-05-03T09:02:17.033Z</time></trkpt><trkpt lat="45.9598395" lon="13.4886145"><ele>81.0</ele><time>2026-05-03T09:02:19.026Z</time></trkpt><trkpt lat="45.9598869" lon="13.4887504"><ele>83.0</ele><time>2026-05-03T09:02:21.03Z</time></trkpt><trkpt lat="45.9599509" lon="13.4888982"><ele>85.0</ele><time>2026-05-03T09:02:23.025Z</time></trkpt><trkpt lat="45.9600356" lon="13.4890371"><ele>87.0</ele><time>2026-05-03T09:02:25.027Z</time></trkpt><trkpt lat="45.9600928" lon="13.4891066"><ele>89.0</ele><time>2026-05-03T09:02:26.031Z</time></trkpt><trkpt lat="45.960153" lon="13.4891608"><ele>91.0</ele><time>2026-05-03T09:02:27.03Z</time></trkpt><trkpt lat="45.9602212" lon="13.4892105"><ele>92.57142857142857</ele><time>2026-05-03T09:02:28.032Z</time></trkpt><trkpt lat="45.9602872" lon="13.4892518"><ele>94.14285714285714</ele><time>2026-05-03T09:02:29.022Z</time></trkpt><trkpt lat="45.9603568" lon="13.4892826"><ele>95.71428571428572</ele><time>2026-05-03T09:02:30.037Z</time></trkpt><trkpt lat="45.9604326" lon="13.4893076"><ele>97.28571428571428</ele><time>2026-05-03T09:02:31.022Z</time></trkpt><trkpt lat="45.9605126" lon="13.4893374"><ele>98.85714285714286</ele><time>2026-05-03T09:02:32.022Z</time></trkpt><trkpt lat="45.9605844" lon="13.4893772"><ele>100.42857142857143</ele><time>2026-05-03T09:02:33.03Z</time></trkpt><trkpt lat="45.9606432" lon="13.4894186"><ele>102.0</ele><time>2026-05-03T09:02:34.027Z</time></trkpt><trkpt lat="45.9606915" lon="13.4894767"><ele>102.0</ele><time>2026-05-03T09:02:35.031Z</time></trkpt><trkpt lat="45.9607374" lon="13.4895489"><ele>102.0</ele><time>2026-05-03T09:02:36.021Z</time></trkpt><trkpt lat="45.9607859" lon="13.489644"><ele>102.0</ele><time>2026-05-03T09:02:37.036Z</time></trkpt><trkpt lat="45.9608443" lon="13.4897449"><ele>102.0</ele><time>2026-05-03T09:02:38.023Z</time></trkpt><trkpt lat="45.9609131" lon="13.4898523"><ele>102.0</ele><time>2026-05-03T09:02:39.024Z</time></trkpt><trkpt lat="45.9609817" lon="13.4899555"><ele>102.0</ele><time>2026-05-03T09:02:40.032Z</time></trkpt><trkpt lat="45.9610521" lon="13.4900597"><ele>98.8</ele><time>2026-05-03T09:02:41.031Z</time></trkpt><trkpt lat="45.9611271" lon="13.4901685"><ele>95.6</ele><time>2026-05-03T09:02:42.025Z</time></trkpt><trkpt lat="45.9612009" lon="13.4902756"><ele>92.39999999999999</ele><time>2026-05-03T09:02:43.041Z</time></trkpt><trkpt lat="45.9612791" lon="13.490389"><ele>89.19999999999999</ele><time>2026-05-03T09:02:44.032Z</time></trkpt><trkpt lat="45.9613536" lon="13.4905117"><ele>86.0</ele><time>2026-05-03T09:02:45.048Z</time></trkpt><trkpt lat="45.9614268" lon="13.4906523"><ele>84.75</ele><time>2026-05-03T09:02:46.02Z</time></trkpt><trkpt lat="45.9614851" lon="13.4908128"><ele>83.5</ele><time>2026-05-03T09:02:47.02Z</time></trkpt><trkpt lat="45.9615308" lon="13.4909897"><ele>82.25</ele><time>2026-05-03T09:02:48.023Z</time></trkpt><trkpt lat="45.9615719" lon="13.491159"><ele>81.0</ele><time>2026-05-03T09:02:49.026Z</time></trkpt><trkpt lat="45.9616078" lon="13.4913278"><ele>79.75</ele><time>2026-05-03T09:02:50.02Z</time></trkpt><trkpt lat="45.9616448" lon="13.4914899"><ele>78.5</ele><time>2026-05-03T09:02:51.02Z</time></trkpt><trkpt lat="45.9616814" lon="13.4916521"><ele>77.25</ele><time>2026-05-03T09:02:52.018Z</time></trkpt><trkpt lat="45.9617227" lon="13.4918127"><ele>76.0</ele><time>2026-05-03T09:02:53.017Z</time></trkpt><trkpt lat="45.9617743" lon="13.4919677"><ele>75.25</ele><time>2026-05-03T09:02:54.029Z</time></trkpt><trkpt lat="45.9618398" lon="13.4921086"><ele>74.5</ele><time>2026-05-03T09:02:55.025Z</time></trkpt><trkpt lat="45.9619163" lon="13.4922493"><ele>73.75</ele><time>2026-05-03T09:02:56.028Z</time></trkpt><trkpt lat="45.9620112" lon="13.4923803"><ele>73.0</ele><time>2026-05-03T09:02:57.024Z</time></trkpt><trkpt lat="45.9621117" lon="13.4925077"><ele>73.0</ele><time>2026-05-03T09:02:58.027Z</time></trkpt><trkpt lat="45.9622082" lon="13.4926262"><ele>73.0</ele><time>2026-05-03T09:02:59.029Z</time></trkpt><trkpt lat="45.9623003" lon="13.4927291"><ele>73.0</ele><time>2026-05-03T09:03:00.033Z</time></trkpt><trkpt lat="45.962382" lon="13.4928162"><ele>73.0</ele><time>2026-05-03T09:03:01.036Z</time></trkpt><trkpt lat="45.9624576" lon="13.492895"><ele>73.0</ele><time>2026-05-03T09:03:02.022Z</time></trkpt><trkpt lat="45.9625303" lon="13.4929701"><ele>73.83333333333333</ele><time>2026-05-03T09:03:03.021Z</time></trkpt><trkpt lat="45.9625942" lon="13.4930381"><ele>74.66666666666666</ele><time>2026-05-03T09:03:04.03Z</time></trkpt><trkpt lat="45.9626543" lon="13.4931067"><ele>75.5</ele><time>2026-05-03T09:03:05.036Z</time></trkpt><trkpt lat="45.9627198" lon="13.4931849"><ele>76.33333333333333</ele><time>2026-05-03T09:03:06.035Z</time></trkpt><trkpt lat="45.962785" lon="13.4932607"><ele>77.16666666666667</ele><time>2026-05-03T09:03:07.026Z</time></trkpt><trkpt lat="45.9628522" lon="13.4933399"><ele>78.0</ele><time>2026-05-03T09:03:08.021Z</time></trkpt><trkpt lat="45.9629188" lon="13.4934159"><ele>78.0</ele><time>2026-05-03T09:03:09.019Z</time></trkpt><trkpt lat="45.9629816" lon="13.493487"><ele>78.0</ele><time>2026-05-03T09:03:10.024Z</time></trkpt><trkpt lat="45.9630384" lon="13.4935493"><ele>78.0</ele><time>2026-05-03T09:03:11.03Z</time></trkpt><trkpt lat="45.9630959" lon="13.4936172"><ele>78.0</ele><time>2026-05-03T09:03:12.027Z</time></trkpt><trkpt lat="45.9631601" lon="13.4936895"><ele>78.0</ele><time>2026-05-03T09:03:13.025Z</time></trkpt><trkpt lat="45.9632296" lon="13.4937767"><ele>78.0</ele><time>2026-05-03T09:03:14.023Z</time></trkpt><trkpt lat="45.9633004" lon="13.4938844"><ele>81.6</ele><time>2026-05-03T09:03:15.024Z</time></trkpt><trkpt lat="45.9633694" lon="13.4940045"><ele>85.19999999999999</ele><time>2026-05-03T09:03:16.023Z</time></trkpt><trkpt lat="45.9634266" lon="13.4941248"><ele>88.8</ele><time>2026-05-03T09:03:17.032Z</time></trkpt><trkpt lat="45.963478" lon="13.4942459"><ele>92.39999999999999</ele><time>2026-05-03T09:03:18.031Z</time></trkpt><trkpt lat="45.9635335" lon="13.4943759"><ele>96.0</ele><time>2026-05-03T09:03:19.028Z</time></trkpt><trkpt lat="45.9635946" lon="13.4945109"><ele>92.5</ele><time>2026-05-03T09:03:20.025Z</time></trkpt><trkpt lat="45.9636669" lon="13.494647"><ele>89.0</ele><time>2026-05-03T09:03:21.024Z</time></trkpt><trkpt lat="45.963741" lon="13.494783"><ele>85.5</ele><time>2026-05-03T09:03:22.029Z</time></trkpt><trkpt lat="45.9638241" lon="13.4949218"><ele>82.0</ele><time>2026-05-03T09:03:23.025Z</time></trkpt><trkpt lat="45.9639123" lon="13.4950637"><ele>82.0</ele><time>2026-05-03T09:03:24.036Z</time></trkpt><trkpt lat="45.9640056" lon="13.4952072"><ele>82.0</ele><time>2026-05-03T09:03:25.02Z</time></trkpt><trkpt lat="45.9640986" lon="13.4953488"><ele>82.0</ele><time>2026-05-03T09:03:26.024Z</time></trkpt><trkpt lat="45.964185" lon="13.4954822"><ele>82.0</ele><time>2026-05-03T09:03:27.027Z</time></trkpt><trkpt lat="45.9642631" lon="13.4956022"><ele>79.75</ele><time>2026-05-03T09:03:28.036Z</time></trkpt><trkpt lat="45.9643405" lon="13.4957115"><ele>77.5</ele><time>2026-05-03T09:03:29.025Z</time></trkpt><trkpt lat="45.9644178" lon="13.4958235"><ele>75.25</ele><time>2026-05-03T09:03:30.027Z</time></trkpt><trkpt lat="45.9645009" lon="13.4959372"><ele>73.0</ele><time>2026-05-03T09:03:31.024Z</time></trkpt><trkpt lat="45.9645991" lon="13.4960452"><ele>73.0</ele><time>2026-05-03T09:03:32.024Z</time></trkpt><trkpt lat="45.9647119" lon="13.4961477"><ele>73.0</ele><time>2026-05-03T09:03:33.027Z</time></trkpt><trkpt lat="45.9648373" lon="13.4962472"><ele>73.0</ele><time>2026-05-03T09:03:34.034Z</time></trkpt><trkpt lat="45.9649902" lon="13.4963314"><ele>73.0</ele><time>2026-05-03T09:03:35.031Z</time></trkpt><trkpt lat="45.9651484" lon="13.4963856"><ele>68.66666666666666</ele><time>2026-05-03T09:03:36.023Z</time></trkpt><trkpt lat="45.9653041" lon="13.4964489"><ele>64.33333333333333</ele><time>2026-05-03T09:03:37.028Z</time></trkpt><trkpt lat="45.9654667" lon="13.4965023"><ele>60.0</ele><time>2026-05-03T09:03:38.034Z</time></trkpt><trkpt lat="45.9656213" lon="13.4965447"><ele>60.0</ele><time>2026-05-03T09:03:39.028Z</time></trkpt><trkpt lat="45.9657766" lon="13.4965655"><ele>60.0</ele><time>2026-05-03T09:03:40.026Z</time></trkpt><trkpt lat="45.965931" lon="13.4965413"><ele>60.0</ele><time>2026-05-03T09:03:41.028Z</time></trkpt><trkpt lat="45.9660895" lon="13.4964571"><ele>59.66666666666667</ele><time>2026-05-03T09:03:42.025Z</time></trkpt><trkpt lat="45.9662535" lon="13.4963526"><ele>59.333333333333336</ele><time>2026-05-03T09:03:43.033Z</time></trkpt><trkpt lat="45.9664023" lon="13.4962557"><ele>59.0</ele><time>2026-05-03T09:03:44.028Z</time></trkpt><trkpt lat="45.9665426" lon="13.4961588"><ele>59.333333333333336</ele><time>2026-05-03T09:03:45.028Z</time></trkpt><trkpt lat="45.9666961" lon="13.4960597"><ele>59.66666666666667</ele><time>2026-05-03T09:03:46.026Z</time></trkpt><trkpt lat="45.9668504" lon="13.4959743"><ele>60.0</ele><time>2026-05-03T09:03:47.032Z</time></trkpt><trkpt lat="45.966996" lon="13.4958983"><ele>60.0</ele><time>2026-05-03T09:03:48.026Z</time></trkpt><trkpt lat="45.9671534" lon="13.4958171"><ele>60.0</ele><time>2026-05-03T09:03:49.02Z</time></trkpt><trkpt lat="45.9673128" lon="13.49573"><ele>60.0</ele><time>2026-05-03T09:03:50.033Z</time></trkpt><trkpt lat="45.9674724" lon="13.4956568"><ele>59.0</ele><time>2026-05-03T09:03:51.027Z</time></trkpt><trkpt lat="45.9676366" lon="13.4956081"><ele>58.0</ele><time>2026-05-03T09:03:52.02Z</time></trkpt><trkpt lat="45.9678081" lon="13.4955852"><ele>57.0</ele><time>2026-05-03T09:03:53.021Z</time></trkpt><trkpt lat="45.9679746" lon="13.4955759"><ele>57.0</ele><time>2026-05-03T09:03:54.035Z</time></trkpt><trkpt lat="45.9681464" lon="13.4955715"><ele>57.0</ele><time>2026-05-03T09:03:55.025Z</time></trkpt><trkpt lat="45.9683189" lon="13.4955785"><ele>57.0</ele><time>2026-05-03T09:03:56.024Z</time></trkpt><trkpt lat="45.9684886" lon="13.4955811"><ele>57.0</ele><time>2026-05-03T09:03:57.031Z</time></trkpt><trkpt lat="45.9686546" lon="13.4955783"><ele>57.0</ele><time>2026-05-03T09:03:58.023Z</time></trkpt><trkpt lat="45.9688208" lon="13.4955792"><ele>57.0</ele><time>2026-05-03T09:03:59.029Z</time></trkpt><trkpt lat="45.9689861" lon="13.4955817"><ele>57.0</ele><time>2026-05-03T09:04:00.023Z</time></trkpt><trkpt lat="45.9691503" lon="13.4955758"><ele>57.0</ele><time>2026-05-03T09:04:01.028Z</time></trkpt><trkpt lat="45.9693142" lon="13.495578"><ele>57.0</ele><time>2026-05-03T09:04:02.023Z</time></trkpt><trkpt lat="45.9694757" lon="13.4955815"><ele>58.0</ele><time>2026-05-03T09:04:03.023Z</time></trkpt><trkpt lat="45.9696356" lon="13.4955959"><ele>59.0</ele><time>2026-05-03T09:04:04.032Z</time></trkpt><trkpt lat="45.9697986" lon="13.4956162"><ele>60.0</ele><time>2026-05-03T09:04:05.024Z</time></trkpt><trkpt lat="45.9699584" lon="13.4956655"><ele>60.33333333333333</ele><time>2026-05-03T09:04:06.029Z</time></trkpt><trkpt lat="45.9701137" lon="13.4957549"><ele>60.666666666666664</ele><time>2026-05-03T09:04:07.023Z</time></trkpt><trkpt lat="45.9702704" lon="13.4958717"><ele>61.0</ele><time>2026-05-03T09:04:08.031Z</time></trkpt><trkpt lat="45.9704325" lon="13.4959876"><ele>61.0</ele><time>2026-05-03T09:04:09.03Z</time></trkpt><trkpt lat="45.9706095" lon="13.4960954"><ele>61.0</ele><time>2026-05-03T09:04:10.026Z</time></trkpt><trkpt lat="45.9707806" lon="13.4962088"><ele>61.0</ele><time>2026-05-03T09:04:11.032Z</time></trkpt><trkpt lat="45.9709503" lon="13.4963214"><ele>60.0</ele><time>2026-05-03T09:04:12.031Z</time></trkpt><trkpt lat="45.9711141" lon="13.4964376"><ele>59.0</ele><time>2026-05-03T09:04:13.022Z</time></trkpt><trkpt lat="45.9712784" lon="13.4965807"><ele>58.0</ele><time>2026-05-03T09:04:14.028Z</time></trkpt><trkpt lat="45.9714312" lon="13.4967498"><ele>58.0</ele><time>2026-05-03T09:04:15.035Z</time></trkpt><trkpt lat="45.9715825" lon="13.4969124"><ele>58.0</ele><time>2026-05-03T09:04:16.028Z</time></trkpt><trkpt lat="45.9717259" lon="13.4970717"><ele>58.0</ele><time>2026-05-03T09:04:17.023Z</time></trkpt><trkpt lat="45.971863" lon="13.4972293"><ele>58.666666666666664</ele><time>2026-05-03T09:04:18.028Z</time></trkpt><trkpt lat="45.972004" lon="13.4973897"><ele>59.33333333333333</ele><time>2026-05-03T09:04:19.03Z</time></trkpt><trkpt lat="45.9721459" lon="13.4975395"><ele>60.0</ele><time>2026-05-03T09:04:20.031Z</time></trkpt><trkpt lat="45.9722742" lon="13.4976857"><ele>60.0</ele><time>2026-05-03T09:04:21.019Z</time></trkpt><trkpt lat="45.9723972" lon="13.4978219"><ele>60.0</ele><time>2026-05-03T09:04:22.021Z</time></trkpt><trkpt lat="45.9725202" lon="13.4979568"><ele>60.0</ele><time>2026-05-03T09:04:23.028Z</time></trkpt><trkpt lat="45.9726399" lon="13.4980886"><ele>59.75</ele><time>2026-05-03T09:04:24.022Z</time></trkpt><trkpt lat="45.9727497" lon="13.4982144"><ele>59.5</ele><time>2026-05-03T09:04:25.025Z</time></trkpt><trkpt lat="45.9728682" lon="13.4983357"><ele>59.25</ele><time>2026-05-03T09:04:26.046Z</time></trkpt><trkpt lat="45.972979" lon="13.498468"><ele>59.0</ele><time>2026-05-03T09:04:27.03Z</time></trkpt><trkpt lat="45.9730927" lon="13.4986001"><ele>59.0</ele><time>2026-05-03T09:04:28.024Z</time></trkpt><trkpt lat="45.9732055" lon="13.4987299"><ele>59.0</ele><time>2026-05-03T09:04:29.023Z</time></trkpt><trkpt lat="45.9733134" lon="13.4988554"><ele>59.0</ele><time>2026-05-03T09:04:30.03Z</time></trkpt><trkpt lat="45.9734219" lon="13.4989763"><ele>59.0</ele><time>2026-05-03T09:04:31.029Z</time></trkpt><trkpt lat="45.9735265" lon="13.4990997"><ele>57.75</ele><time>2026-05-03T09:04:32.023Z</time></trkpt><trkpt lat="45.9736308" lon="13.4992278"><ele>56.5</ele><time>2026-05-03T09:04:33.019Z</time></trkpt><trkpt lat="45.9737313" lon="13.4993397"><ele>55.25</ele><time>2026-05-03T09:04:34.027Z</time></trkpt><trkpt lat="45.9738434" lon="13.4994196"><ele>54.0</ele><time>2026-05-03T09:04:35.035Z</time></trkpt><trkpt lat="45.9739605" lon="13.4994033"><ele>54.0</ele><time>2026-05-03T09:04:36.024Z</time></trkpt><trkpt lat="45.9740902" lon="13.4993414"><ele>54.0</ele><time>2026-05-03T09:04:37.03Z</time></trkpt><trkpt lat="45.974225" lon="13.4992349"><ele>54.0</ele><time>2026-05-03T09:04:38.029Z</time></trkpt><trkpt lat="45.97437" lon="13.4991232"><ele>53.66666666666667</ele><time>2026-05-03T09:04:39.029Z</time></trkpt><trkpt lat="45.9745266" lon="13.4990202"><ele>53.333333333333336</ele><time>2026-05-03T09:04:40.023Z</time></trkpt><trkpt lat="45.9746803" lon="13.4989106"><ele>53.0</ele><time>2026-05-03T09:04:41.016Z</time></trkpt><trkpt lat="45.9748381" lon="13.4987959"><ele>53.0</ele><time>2026-05-03T09:04:42.021Z</time></trkpt><trkpt lat="45.975004" lon="13.4986741"><ele>53.0</ele><time>2026-05-03T09:04:43.03Z</time></trkpt><trkpt lat="45.9751689" lon="13.4985521"><ele>53.0</ele><time>2026-05-03T09:04:44.033Z</time></trkpt><trkpt lat="45.9753316" lon="13.4984422"><ele>53.66666666666667</ele><time>2026-05-03T09:04:45.019Z</time></trkpt><trkpt lat="45.9755056" lon="13.4983288"><ele>54.33333333333333</ele><time>2026-05-03T09:04:46.027Z</time></trkpt><trkpt lat="45.9756794" lon="13.4982224"><ele>55.0</ele><time>2026-05-03T09:04:47.023Z</time></trkpt><trkpt lat="45.9758541" lon="13.4981117"><ele>56.33333333333333</ele><time>2026-05-03T09:04:48.022Z</time></trkpt><trkpt lat="45.9760327" lon="13.4980132"><ele>57.66666666666667</ele><time>2026-05-03T09:04:49.024Z</time></trkpt><trkpt lat="45.9762147" lon="13.4979028"><ele>59.0</ele><time>2026-05-03T09:04:50.025Z</time></trkpt><trkpt lat="45.976383" lon="13.4977925"><ele>60.0</ele><time>2026-05-03T09:04:51.026Z</time></trkpt><trkpt lat="45.9765573" lon="13.4976843"><ele>61.0</ele><time>2026-05-03T09:04:52.02Z</time></trkpt><trkpt lat="45.9767263" lon="13.4975876"><ele>62.0</ele><time>2026-05-03T09:04:53.029Z</time></trkpt><trkpt lat="45.9768972" lon="13.497493"><ele>65.0</ele><time>2026-05-03T09:04:54.022Z</time></trkpt><trkpt lat="45.9770657" lon="13.4974009"><ele>68.0</ele><time>2026-05-03T09:04:55.018Z</time></trkpt><trkpt lat="45.9772293" lon="13.4973026"><ele>71.0</ele><time>2026-05-03T09:04:56.016Z</time></trkpt><trkpt lat="45.977393" lon="13.4972108"><ele>73.0</ele><time>2026-05-03T09:04:57.022Z</time></trkpt><trkpt lat="45.9775506" lon="13.497119"><ele>75.0</ele><time>2026-05-03T09:04:58.019Z</time></trkpt><trkpt lat="45.9777064" lon="13.4970216"><ele>77.0</ele><time>2026-05-03T09:04:59.019Z</time></trkpt><trkpt lat="45.9778585" lon="13.4969191"><ele>79.0</ele><time>2026-05-03T09:05:00.025Z</time></trkpt><trkpt lat="45.9780078" lon="13.496831"><ele>81.0</ele><time>2026-05-03T09:05:01.021Z</time></trkpt><trkpt lat="45.9781648" lon="13.4967407"><ele>83.0</ele><time>2026-05-03T09:05:02.023Z</time></trkpt><trkpt lat="45.9783179" lon="13.4966551"><ele>84.0</ele><time>2026-05-03T09:05:03.019Z</time></trkpt><trkpt lat="45.9784711" lon="13.4965981"><ele>85.0</ele><time>2026-05-03T09:05:04.021Z</time></trkpt><trkpt lat="45.9786199" lon="13.4965598"><ele>86.0</ele><time>2026-05-03T09:05:05.019Z</time></trkpt><trkpt lat="45.9787576" lon="13.4965511"><ele>87.0</ele><time>2026-05-03T09:05:06.021Z</time></trkpt><trkpt lat="45.9788894" lon="13.4965752"><ele>87.0</ele><time>2026-05-03T09:05:07.028Z</time></trkpt><trkpt lat="45.9790216" lon="13.4966562"><ele>87.0</ele><time>2026-05-03T09:05:08.026Z</time></trkpt><trkpt lat="45.9791518" lon="13.4967808"><ele>87.0</ele><time>2026-05-03T09:05:09.026Z</time></trkpt><trkpt lat="45.979291" lon="13.4968901"><ele>88.33333333333333</ele><time>2026-05-03T09:05:10.031Z</time></trkpt><trkpt lat="45.9794331" lon="13.4970001"><ele>89.66666666666666</ele><time>2026-05-03T09:05:11.031Z</time></trkpt><trkpt lat="45.9795781" lon="13.4971107"><ele>91.0</ele><time>2026-05-03T09:05:12.026Z</time></trkpt><trkpt lat="45.9797274" lon="13.4972242"><ele>91.0</ele><time>2026-05-03T09:05:13.027Z</time></trkpt><trkpt lat="45.9798763" lon="13.4973388"><ele>91.0</ele><time>2026-05-03T09:05:14.019Z</time></trkpt><trkpt lat="45.9800257" lon="13.4974598"><ele>91.0</ele><time>2026-05-03T09:05:15.027Z</time></trkpt><trkpt lat="45.9801754" lon="13.4975683"><ele>92.0</ele><time>2026-05-03T09:05:16.031Z</time></trkpt><trkpt lat="45.9803105" lon="13.4976764"><ele>93.0</ele><time>2026-05-03T09:05:17.027Z</time></trkpt><trkpt lat="45.9804438" lon="13.4977877"><ele>94.0</ele><time>2026-05-03T09:05:18.026Z</time></trkpt><trkpt lat="45.9805588" lon="13.4979191"><ele>93.0</ele><time>2026-05-03T09:05:19.022Z</time></trkpt><trkpt lat="45.9806433" lon="13.498075"><ele>92.0</ele><time>2026-05-03T09:05:20.023Z</time></trkpt><trkpt lat="45.9807162" lon="13.4982464"><ele>91.0</ele><time>2026-05-03T09:05:21.035Z</time></trkpt><trkpt lat="45.9807852" lon="13.4984185"><ele>90.0</ele><time>2026-05-03T09:05:22.02Z</time></trkpt><trkpt lat="45.9808546" lon="13.4985672"><ele>90.0</ele><time>2026-05-03T09:05:23.021Z</time></trkpt><trkpt lat="45.9809105" lon="13.4987204"><ele>90.0</ele><time>2026-05-03T09:05:24.024Z</time></trkpt><trkpt lat="45.9809647" lon="13.4988768"><ele>90.0</ele><time>2026-05-03T09:05:25.024Z</time></trkpt><trkpt lat="45.9810254" lon="13.499025"><ele>90.0</ele><time>2026-05-03T09:05:26.031Z</time></trkpt><trkpt lat="45.981083" lon="13.4991747"><ele>91.8</ele><time>2026-05-03T09:05:27.029Z</time></trkpt><trkpt lat="45.9811485" lon="13.4993193"><ele>93.6</ele><time>2026-05-03T09:05:28.025Z</time></trkpt><trkpt lat="45.9812212" lon="13.4994511"><ele>95.4</ele><time>2026-05-03T09:05:29.032Z</time></trkpt><trkpt lat="45.9812947" lon="13.499564"><ele>97.2</ele><time>2026-05-03T09:05:30.029Z</time></trkpt><trkpt lat="45.9813652" lon="13.4996616"><ele>99.0</ele><time>2026-05-03T09:05:31.028Z</time></trkpt><trkpt lat="45.9814296" lon="13.4997393"><ele>100.2</ele><time>2026-05-03T09:05:32.019Z</time></trkpt><trkpt lat="45.9814947" lon="13.4998195"><ele>101.4</ele><time>2026-05-03T09:05:34.021Z</time></trkpt><trkpt lat="45.981607" lon="13.4998668"><ele>102.6</ele><time>2026-05-03T09:05:38.028Z</time></trkpt><trkpt lat="45.9816848" lon="13.4999243"><ele>103.8</ele><time>2026-05-03T09:05:39.024Z</time></trkpt><trkpt lat="45.9817658" lon="13.4999971"><ele>105.0</ele><time>2026-05-03T09:05:40.023Z</time></trkpt><trkpt lat="45.9818563" lon="13.5000615"><ele>105.0</ele><time>2026-05-03T09:05:41.029Z</time></trkpt><trkpt lat="45.9819609" lon="13.5001087"><ele>105.0</ele><time>2026-05-03T09:05:42.024Z</time></trkpt><trkpt lat="45.982074" lon="13.5001452"><ele>105.0</ele><time>2026-05-03T09:05:43.024Z</time></trkpt><trkpt lat="45.9822027" lon="13.5001427"><ele>105.0</ele><time>2026-05-03T09:05:44.023Z</time></trkpt><trkpt lat="45.9823449" lon="13.50009"><ele>105.0</ele><time>2026-05-03T09:05:45.024Z</time></trkpt><trkpt lat="45.9824957" lon="13.5000089"><ele>105.0</ele><time>2026-05-03T09:05:46.021Z</time></trkpt><trkpt lat="45.9826475" lon="13.4999266"><ele>105.0</ele><time>2026-05-03T09:05:47.021Z</time></trkpt><trkpt lat="45.9827888" lon="13.4998149"><ele>107.0</ele><time>2026-05-03T09:05:48.024Z</time></trkpt><trkpt lat="45.9828713" lon="13.4995992"><ele>109.0</ele><time>2026-05-03T09:05:49.022Z</time></trkpt><trkpt lat="45.9829032" lon="13.4993735"><ele>111.0</ele><time>2026-05-03T09:05:50.022Z</time></trkpt><trkpt lat="45.9829156" lon="13.4991385"><ele>111.0</ele><time>2026-05-03T09:05:51.03Z</time></trkpt><trkpt lat="45.9828997" lon="13.4988926"><ele>111.0</ele><time>2026-05-03T09:05:52.028Z</time></trkpt><trkpt lat="45.9828784" lon="13.4986399"><ele>111.0</ele><time>2026-05-03T09:05:53.023Z</time></trkpt><trkpt lat="45.9828545" lon="13.4984039"><ele>108.0</ele><time>2026-05-03T09:05:54.028Z</time></trkpt><trkpt lat="45.9828422" lon="13.4981967"><ele>105.0</ele><time>2026-05-03T09:05:55.029Z</time></trkpt><trkpt lat="45.9828588" lon="13.4979942"><ele>102.0</ele><time>2026-05-03T09:05:56.026Z</time></trkpt><trkpt lat="45.9829255" lon="13.497812"><ele>99.0</ele><time>2026-05-03T09:05:57.022Z</time></trkpt><trkpt lat="45.9830347" lon="13.4976471"><ele>96.33333333333333</ele><time>2026-05-03T09:05:58.029Z</time></trkpt><trkpt lat="45.9831646" lon="13.4975651"><ele>93.66666666666666</ele><time>2026-05-03T09:05:59.026Z</time></trkpt><trkpt lat="45.9833142" lon="13.4975366"><ele>91.0</ele><time>2026-05-03T09:06:00.033Z</time></trkpt><trkpt lat="45.9834868" lon="13.4975349"><ele>91.0</ele><time>2026-05-03T09:06:01.026Z</time></trkpt><trkpt lat="45.9836417" lon="13.4975646"><ele>91.0</ele><time>2026-05-03T09:06:02.03Z</time></trkpt><trkpt lat="45.9837873" lon="13.497633"><ele>91.0</ele><time>2026-05-03T09:06:03.022Z</time></trkpt><trkpt lat="45.9839277" lon="13.4976869"><ele>91.0</ele><time>2026-05-03T09:06:04.022Z</time></trkpt><trkpt lat="45.9840375" lon="13.4977124"><ele>91.0</ele><time>2026-05-03T09:06:05.034Z</time></trkpt><trkpt lat="45.9841094" lon="13.4976599"><ele>91.0</ele><time>2026-05-03T09:06:06.02Z</time></trkpt><trkpt lat="45.9841457" lon="13.4975305"><ele>91.0</ele><time>2026-05-03T09:06:07.021Z</time></trkpt><trkpt lat="45.9841355" lon="13.4973933"><ele>91.0</ele><time>2026-05-03T09:06:08.04Z</time></trkpt><trkpt lat="45.9840689" lon="13.4972383"><ele>91.0</ele><time>2026-05-03T09:06:09.025Z</time></trkpt><trkpt lat="45.9839663" lon="13.4970864"><ele>91.0</ele><time>2026-05-03T09:06:10.026Z</time></trkpt><trkpt lat="45.9838674" lon="13.4969484"><ele>91.0</ele><time>2026-05-03T09:06:11.022Z</time></trkpt><trkpt lat="45.9837509" lon="13.4968085"><ele>91.0</ele><time>2026-05-03T09:06:12.023Z</time></trkpt><trkpt lat="45.9836226" lon="13.4966916"><ele>89.5</ele><time>2026-05-03T09:06:13.025Z</time></trkpt><trkpt lat="45.983477" lon="13.4965924"><ele>88.0</ele><time>2026-05-03T09:06:14.029Z</time></trkpt><trkpt lat="45.9833484" lon="13.4965008"><ele>86.5</ele><time>2026-05-03T09:06:15.025Z</time></trkpt><trkpt lat="45.9832238" lon="13.4964004"><ele>85.0</ele><time>2026-05-03T09:06:16.018Z</time></trkpt><trkpt lat="45.9831337" lon="13.4962944"><ele>82.75</ele><time>2026-05-03T09:06:17.031Z</time></trkpt><trkpt lat="45.9831031" lon="13.4961482"><ele>80.5</ele><time>2026-05-03T09:06:18.023Z</time></trkpt><trkpt lat="45.983126" lon="13.4960056"><ele>78.25</ele><time>2026-05-03T09:06:19.032Z</time></trkpt><trkpt lat="45.9831684" lon="13.495852"><ele>76.0</ele><time>2026-05-03T09:06:20.031Z</time></trkpt><trkpt lat="45.9832339" lon="13.4956875"><ele>76.0</ele><time>2026-05-03T09:06:21.028Z</time></trkpt><trkpt lat="45.9833201" lon="13.4955337"><ele>76.0</ele><time>2026-05-03T09:06:22.028Z</time></trkpt><trkpt lat="45.9834476" lon="13.4954092"><ele>76.0</ele><time>2026-05-03T09:06:23.027Z</time></trkpt><trkpt lat="45.9835794" lon="13.4952772"><ele>74.0</ele><time>2026-05-03T09:06:24.025Z</time></trkpt><trkpt lat="45.9836945" lon="13.495115"><ele>72.0</ele><time>2026-05-03T09:06:25.022Z</time></trkpt><trkpt lat="45.9837965" lon="13.4949102"><ele>70.0</ele><time>2026-05-03T09:06:26.021Z</time></trkpt><trkpt lat="45.9838624" lon="13.4946583"><ele>70.33333333333333</ele><time>2026-05-03T09:06:27.027Z</time></trkpt><trkpt lat="45.9839113" lon="13.4943994"><ele>70.66666666666667</ele><time>2026-05-03T09:06:28.02Z</time></trkpt><trkpt lat="45.983953" lon="13.4941612"><ele>71.0</ele><time>2026-05-03T09:06:29.02Z</time></trkpt><trkpt lat="45.9839981" lon="13.4939492"><ele>71.25</ele><time>2026-05-03T09:06:30.03Z</time></trkpt><trkpt lat="45.984036" lon="13.4937447"><ele>71.5</ele><time>2026-05-03T09:06:31.03Z</time></trkpt><trkpt lat="45.9840812" lon="13.4935504"><ele>71.75</ele><time>2026-05-03T09:06:32.033Z</time></trkpt><trkpt lat="45.9841177" lon="13.4933578"><ele>72.0</ele><time>2026-05-03T09:06:33.027Z</time></trkpt><trkpt lat="45.9841574" lon="13.4931743"><ele>72.2</ele><time>2026-05-03T09:06:34.033Z</time></trkpt><trkpt lat="45.9841889" lon="13.4930117"><ele>72.4</ele><time>2026-05-03T09:06:35.022Z</time></trkpt><trkpt lat="45.9842218" lon="13.4928802"><ele>72.6</ele><time>2026-05-03T09:06:36.028Z</time></trkpt><trkpt lat="45.9842583" lon="13.4927637"><ele>72.8</ele><time>2026-05-03T09:06:37.02Z</time></trkpt><trkpt lat="45.9843182" lon="13.4926838"><ele>73.0</ele><time>2026-05-03T09:06:38.036Z</time></trkpt><trkpt lat="45.9844095" lon="13.4926394"><ele>74.6</ele><time>2026-05-03T09:06:39.022Z</time></trkpt><trkpt lat="45.9845123" lon="13.49261"><ele>76.19999999999999</ele><time>2026-05-03T09:06:40.025Z</time></trkpt><trkpt lat="45.9846157" lon="13.4925925"><ele>77.8</ele><time>2026-05-03T09:06:41.033Z</time></trkpt><trkpt lat="45.9847182" lon="13.49258"><ele>79.39999999999999</ele><time>2026-05-03T09:06:42.028Z</time></trkpt><trkpt lat="45.984818" lon="13.4925669"><ele>81.0</ele><time>2026-05-03T09:06:43.028Z</time></trkpt><trkpt lat="45.9849082" lon="13.492532"><ele>81.0</ele><time>2026-05-03T09:06:44.018Z</time></trkpt><trkpt lat="45.9849842" lon="13.4924632"><ele>81.0</ele><time>2026-05-03T09:06:45.026Z</time></trkpt><trkpt lat="45.985032" lon="13.4923555"><ele>81.0</ele><time>2026-05-03T09:06:46.023Z</time></trkpt><trkpt lat="45.9850527" lon="13.4922189"><ele>81.0</ele><time>2026-05-03T09:06:47.016Z</time></trkpt><trkpt lat="45.9850527" lon="13.4920773"><ele>81.0</ele><time>2026-05-03T09:06:48.017Z</time></trkpt><trkpt lat="45.9850148" lon="13.4919318"><ele>82.4</ele><time>2026-05-03T09:06:49.021Z</time></trkpt><trkpt lat="45.9849366" lon="13.4917924"><ele>83.8</ele><time>2026-05-03T09:06:50.018Z</time></trkpt><trkpt lat="45.9848434" lon="13.4916765"><ele>85.2</ele><time>2026-05-03T09:06:51.019Z</time></trkpt><trkpt lat="45.9847545" lon="13.4915752"><ele>86.60000000000001</ele><time>2026-05-03T09:06:52.021Z</time></trkpt><trkpt lat="45.9846942" lon="13.4914876"><ele>88.0</ele><time>2026-05-03T09:06:53.016Z</time></trkpt><trkpt lat="45.9846797" lon="13.4913906"><ele>88.0</ele><time>2026-05-03T09:06:54.017Z</time></trkpt><trkpt lat="45.9847114" lon="13.4912926"><ele>88.0</ele><time>2026-05-03T09:06:55.017Z</time></trkpt><trkpt lat="45.9847736" lon="13.491201"><ele>88.0</ele><time>2026-05-03T09:06:56.028Z</time></trkpt><trkpt lat="45.9848508" lon="13.4911039"><ele>88.0</ele><time>2026-05-03T09:06:57.023Z</time></trkpt><trkpt lat="45.9849301" lon="13.491002"><ele>88.0</ele><time>2026-05-03T09:06:58.023Z</time></trkpt><trkpt lat="45.9850195" lon="13.4908894"><ele>88.75</ele><time>2026-05-03T09:06:59.02Z</time></trkpt><trkpt lat="45.9851152" lon="13.4907739"><ele>89.5</ele><time>2026-05-03T09:07:00.037Z</time></trkpt><trkpt lat="45.9852155" lon="13.490646"><ele>90.25</ele><time>2026-05-03T09:07:01.021Z</time></trkpt><trkpt lat="45.9853191" lon="13.490514"><ele>91.0</ele><time>2026-05-03T09:07:02.031Z</time></trkpt><trkpt lat="45.9854215" lon="13.4903729"><ele>92.33333333333333</ele><time>2026-05-03T09:07:03.025Z</time></trkpt><trkpt lat="45.9855224" lon="13.4902224"><ele>93.66666666666667</ele><time>2026-05-03T09:07:04.03Z</time></trkpt><trkpt lat="45.9856207" lon="13.490054"><ele>95.0</ele><time>2026-05-03T09:07:05.03Z</time></trkpt><trkpt lat="45.985708" lon="13.4898708"><ele>95.0</ele><time>2026-05-03T09:07:06.025Z</time></trkpt><trkpt lat="45.9857862" lon="13.4897081"><ele>95.0</ele><time>2026-05-03T09:07:07.026Z</time></trkpt><trkpt lat="45.9858779" lon="13.4895563"><ele>95.0</ele><time>2026-05-03T09:07:08.034Z</time></trkpt><trkpt lat="45.9859748" lon="13.4894244"><ele>95.0</ele><time>2026-05-03T09:07:09.022Z</time></trkpt><trkpt lat="45.9860793" lon="13.4893183"><ele>97.25</ele><time>2026-05-03T09:07:10.026Z</time></trkpt><trkpt lat="45.9861935" lon="13.4892556"><ele>99.5</ele><time>2026-05-03T09:07:11.018Z</time></trkpt><trkpt lat="45.9863228" lon="13.4892355"><ele>101.75</ele><time>2026-05-03T09:07:12.018Z</time></trkpt><trkpt lat="45.9864638" lon="13.4892184"><ele>104.0</ele><time>2026-05-03T09:07:13.024Z</time></trkpt><trkpt lat="45.986605" lon="13.4892179"><ele>108.25</ele><time>2026-05-03T09:07:14.023Z</time></trkpt><trkpt lat="45.9867226" lon="13.4891954"><ele>112.5</ele><time>2026-05-03T09:07:15.027Z</time></trkpt><trkpt lat="45.986839" lon="13.4891681"><ele>116.75</ele><time>2026-05-03T09:07:16.028Z</time></trkpt><trkpt lat="45.9869494" lon="13.4891224"><ele>121.0</ele><time>2026-05-03T09:07:17.023Z</time></trkpt><trkpt lat="45.9870518" lon="13.4890364"><ele>121.0</ele><time>2026-05-03T09:07:18.037Z</time></trkpt><trkpt lat="45.9871263" lon="13.4889108"><ele>121.0</ele><time>2026-05-03T09:07:19.026Z</time></trkpt><trkpt lat="45.9871545" lon="13.4887444"><ele>121.0</ele><time>2026-05-03T09:07:20.024Z</time></trkpt><trkpt lat="45.9871726" lon="13.488583"><ele>121.0</ele><time>2026-05-03T09:07:21.028Z</time></trkpt><trkpt lat="45.9872054" lon="13.4884733"><ele>121.0</ele><time>2026-05-03T09:07:22.03Z</time></trkpt><trkpt lat="45.9872681" lon="13.4884469"><ele>122.6</ele><time>2026-05-03T09:07:23.033Z</time></trkpt><trkpt lat="45.9873535" lon="13.488455"><ele>124.19999999999999</ele><time>2026-05-03T09:07:24.037Z</time></trkpt><trkpt lat="45.9874724" lon="13.4884688"><ele>125.80000000000001</ele><time>2026-05-03T09:07:25.039Z</time></trkpt><trkpt lat="45.9875931" lon="13.4884714"><ele>127.4</ele><time>2026-05-03T09:07:26.017Z</time></trkpt><trkpt lat="45.9876952" lon="13.4884836"><ele>129.0</ele><time>2026-05-03T09:07:27.02Z</time></trkpt><trkpt lat="45.9877666" lon="13.4885156"><ele>129.0</ele><time>2026-05-03T09:07:28.014Z</time></trkpt><trkpt lat="45.9877731" lon="13.4886743"><ele>129.0</ele><time>2026-05-03T09:07:30.021Z</time></trkpt><trkpt lat="45.9877093" lon="13.4887474"><ele>129.0</ele><time>2026-05-03T09:07:31.018Z</time></trkpt><trkpt lat="45.9876109" lon="13.4887938"><ele>129.0</ele><time>2026-05-03T09:07:32.024Z</time></trkpt><trkpt lat="45.9875114" lon="13.4888212"><ele>129.0</ele><time>2026-05-03T09:07:33.025Z</time></trkpt><trkpt lat="45.9874342" lon="13.4888568"><ele>130.5</ele><time>2026-05-03T09:07:34.017Z</time></trkpt><trkpt lat="45.9874172" lon="13.4890147"><ele>132.0</ele><time>2026-05-03T09:07:36.016Z</time></trkpt><trkpt lat="45.9875489" lon="13.48902"><ele>133.5</ele><time>2026-05-03T09:07:38.02Z</time></trkpt><trkpt lat="45.9876629" lon="13.4889674"><ele>135.0</ele><time>2026-05-03T09:07:39.029Z</time></trkpt><trkpt lat="45.9877958" lon="13.4889194"><ele>135.0</ele><time>2026-05-03T09:07:40.02Z</time></trkpt><trkpt lat="45.9879363" lon="13.488863"><ele>135.0</ele><time>2026-05-03T09:07:41.018Z</time></trkpt><trkpt lat="45.9880751" lon="13.4887808"><ele>135.0</ele><time>2026-05-03T09:07:42.033Z</time></trkpt><trkpt lat="45.9881912" lon="13.4886599"><ele>135.0</ele><time>2026-05-03T09:07:43.022Z</time></trkpt><trkpt lat="45.988284" lon="13.4885312"><ele>134.5</ele><time>2026-05-03T09:07:44.019Z</time></trkpt><trkpt lat="45.9883773" lon="13.4884079"><ele>134.0</ele><time>2026-05-03T09:07:45.027Z</time></trkpt><trkpt lat="45.9884696" lon="13.4883098"><ele>133.5</ele><time>2026-05-03T09:07:46.033Z</time></trkpt><trkpt lat="45.9885664" lon="13.4882287"><ele>133.0</ele><time>2026-05-03T09:07:47.022Z</time></trkpt><trkpt lat="45.9886731" lon="13.4881728"><ele>133.0</ele><time>2026-05-03T09:07:48.017Z</time></trkpt><trkpt lat="45.9887846" lon="13.4881457"><ele>133.0</ele><time>2026-05-03T09:07:49.019Z</time></trkpt><trkpt lat="45.9889039" lon="13.4881437"><ele>133.0</ele><time>2026-05-03T09:07:50.029Z</time></trkpt><trkpt lat="45.9890265" lon="13.4881284"><ele>133.0</ele><time>2026-05-03T09:07:51.047Z</time></trkpt><trkpt lat="45.9891426" lon="13.4880829"><ele>133.75</ele><time>2026-05-03T09:07:52.022Z</time></trkpt><trkpt lat="45.9892528" lon="13.487993"><ele>134.5</ele><time>2026-05-03T09:07:53.021Z</time></trkpt><trkpt lat="45.9893483" lon="13.4878565"><ele>135.25</ele><time>2026-05-03T09:07:54.018Z</time></trkpt><trkpt lat="45.9894343" lon="13.4877122"><ele>136.0</ele><time>2026-05-03T09:07:55.019Z</time></trkpt><trkpt lat="45.9895136" lon="13.4875613"><ele>139.0</ele><time>2026-05-03T09:07:56.019Z</time></trkpt><trkpt lat="45.9895826" lon="13.4874019"><ele>142.0</ele><time>2026-05-03T09:07:57.026Z</time></trkpt><trkpt lat="45.989641" lon="13.4872274"><ele>145.0</ele><time>2026-05-03T09:07:58.017Z</time></trkpt><trkpt lat="45.9896872" lon="13.4870351"><ele>148.0</ele><time>2026-05-03T09:07:59.019Z</time></trkpt><trkpt lat="45.989725" lon="13.4868405"><ele>148.0</ele><time>2026-05-03T09:08:00.015Z</time></trkpt><trkpt lat="45.9897654" lon="13.4866798"><ele>148.0</ele><time>2026-05-03T09:08:01.018Z</time></trkpt><trkpt lat="45.9898176" lon="13.4865462"><ele>148.0</ele><time>2026-05-03T09:08:02.029Z</time></trkpt><trkpt lat="45.9898791" lon="13.4864051"><ele>148.0</ele><time>2026-05-03T09:08:03.018Z</time></trkpt><trkpt lat="45.9899449" lon="13.4862467"><ele>148.25</ele><time>2026-05-03T09:08:04.019Z</time></trkpt><trkpt lat="45.9900212" lon="13.4860835"><ele>148.5</ele><time>2026-05-03T09:08:05.024Z</time></trkpt><trkpt lat="45.9901015" lon="13.4859222"><ele>148.75</ele><time>2026-05-03T09:08:06.026Z</time></trkpt><trkpt lat="45.9901776" lon="13.4857622"><ele>149.0</ele><time>2026-05-03T09:08:07.022Z</time></trkpt><trkpt lat="45.9902469" lon="13.4856163"><ele>149.0</ele><time>2026-05-03T09:08:08.032Z</time></trkpt><trkpt lat="45.9903206" lon="13.4854726"><ele>149.0</ele><time>2026-05-03T09:08:09.027Z</time></trkpt><trkpt lat="45.990403" lon="13.4853337"><ele>149.0</ele><time>2026-05-03T09:08:10.021Z</time></trkpt><trkpt lat="45.9905012" lon="13.4851959"><ele>149.0</ele><time>2026-05-03T09:08:11.03Z</time></trkpt><trkpt lat="45.9906019" lon="13.4850502"><ele>148.33333333333331</ele><time>2026-05-03T09:08:12.025Z</time></trkpt><trkpt lat="45.9907059" lon="13.4848949"><ele>147.66666666666666</ele><time>2026-05-03T09:08:13.03Z</time></trkpt><trkpt lat="45.9907954" lon="13.4847182"><ele>147.0</ele><time>2026-05-03T09:08:14.03Z</time></trkpt><trkpt lat="45.9908805" lon="13.4845304"><ele>146.25</ele><time>2026-05-03T09:08:15.016Z</time></trkpt><trkpt lat="45.9909551" lon="13.4843582"><ele>145.5</ele><time>2026-05-03T09:08:16.021Z</time></trkpt><trkpt lat="45.9910319" lon="13.4841661"><ele>144.75</ele><time>2026-05-03T09:08:17.022Z</time></trkpt><trkpt lat="45.9911189" lon="13.4839935"><ele>144.0</ele><time>2026-05-03T09:08:18.03Z</time></trkpt><trkpt lat="45.9912086" lon="13.483846"><ele>143.5</ele><time>2026-05-03T09:08:19.025Z</time></trkpt><trkpt lat="45.9912989" lon="13.483688"><ele>143.0</ele><time>2026-05-03T09:08:20.025Z</time></trkpt><trkpt lat="45.9913728" lon="13.4835291"><ele>142.5</ele><time>2026-05-03T09:08:21.024Z</time></trkpt><trkpt lat="45.9914402" lon="13.4833464"><ele>142.0</ele><time>2026-05-03T09:08:22.026Z</time></trkpt><trkpt lat="45.9914969" lon="13.483146"><ele>142.0</ele><time>2026-05-03T09:08:23.028Z</time></trkpt><trkpt lat="45.9915519" lon="13.4829362"><ele>142.0</ele><time>2026-05-03T09:08:24.02Z</time></trkpt><trkpt lat="45.9916136" lon="13.4827466"><ele>142.0</ele><time>2026-05-03T09:08:25.022Z</time></trkpt><trkpt lat="45.9916615" lon="13.4825528"><ele>142.0</ele><time>2026-05-03T09:08:26.023Z</time></trkpt><trkpt lat="45.991716" lon="13.4823603"><ele>144.25</ele><time>2026-05-03T09:08:27.023Z</time></trkpt><trkpt lat="45.9917711" lon="13.482166"><ele>146.5</ele><time>2026-05-03T09:08:28.021Z</time></trkpt><trkpt lat="45.9918273" lon="13.4819816"><ele>148.75</ele><time>2026-05-03T09:08:29.03Z</time></trkpt><trkpt lat="45.9918622" lon="13.4817893"><ele>151.0</ele><time>2026-05-03T09:08:30.026Z</time></trkpt><trkpt lat="45.9918746" lon="13.4815897"><ele>154.5</ele><time>2026-05-03T09:08:31.027Z</time></trkpt><trkpt lat="45.9918441" lon="13.4813868"><ele>158.0</ele><time>2026-05-03T09:08:32.017Z</time></trkpt><trkpt lat="45.9918151" lon="13.481179"><ele>161.5</ele><time>2026-05-03T09:08:33.016Z</time></trkpt><trkpt lat="45.9918035" lon="13.4809887"><ele>165.0</ele><time>2026-05-03T09:08:34.034Z</time></trkpt><trkpt lat="45.9918288" lon="13.4807973"><ele>167.75</ele><time>2026-05-03T09:08:35.023Z</time></trkpt><trkpt lat="45.9919022" lon="13.4806177"><ele>170.5</ele><time>2026-05-03T09:08:36.018Z</time></trkpt><trkpt lat="45.991972" lon="13.48046"><ele>173.25</ele><time>2026-05-03T09:08:37.019Z</time></trkpt><trkpt lat="45.992053" lon="13.4803366"><ele>176.0</ele><time>2026-05-03T09:08:38.021Z</time></trkpt><trkpt lat="45.9921533" lon="13.4802383"><ele>176.0</ele><time>2026-05-03T09:08:39.024Z</time></trkpt><trkpt lat="45.9922461" lon="13.480135"><ele>176.0</ele><time>2026-05-03T09:08:40.017Z</time></trkpt><trkpt lat="45.9923305" lon="13.4800015"><ele>176.0</ele><time>2026-05-03T09:08:41.014Z</time></trkpt><trkpt lat="45.992402" lon="13.4798314"><ele>176.0</ele><time>2026-05-03T09:08:42.021Z</time></trkpt><trkpt lat="45.9924807" lon="13.4796618"><ele>172.75</ele><time>2026-05-03T09:08:43.028Z</time></trkpt><trkpt lat="45.9925574" lon="13.4795074"><ele>169.5</ele><time>2026-05-03T09:08:44.017Z</time></trkpt><trkpt lat="45.9926419" lon="13.4793623"><ele>166.25</ele><time>2026-05-03T09:08:45.019Z</time></trkpt><trkpt lat="45.9927448" lon="13.4792358"><ele>163.0</ele><time>2026-05-03T09:08:46.025Z</time></trkpt><trkpt lat="45.9928789" lon="13.4791317"><ele>163.0</ele><time>2026-05-03T09:08:47.016Z</time></trkpt><trkpt lat="45.9930301" lon="13.4790225"><ele>163.0</ele><time>2026-05-03T09:08:48.03Z</time></trkpt><trkpt lat="45.9931856" lon="13.4789051"><ele>163.0</ele><time>2026-05-03T09:08:49.024Z</time></trkpt><trkpt lat="45.9933317" lon="13.4787789"><ele>164.0</ele><time>2026-05-03T09:08:50.025Z</time></trkpt><trkpt lat="45.9934654" lon="13.4786473"><ele>165.0</ele><time>2026-05-03T09:08:51.017Z</time></trkpt><trkpt lat="45.9936205" lon="13.478539"><ele>166.0</ele><time>2026-05-03T09:08:52.027Z</time></trkpt><trkpt lat="45.9937807" lon="13.4784759"><ele>166.0</ele><time>2026-05-03T09:08:53.021Z</time></trkpt><trkpt lat="45.9939212" lon="13.4784346"><ele>166.0</ele><time>2026-05-03T09:08:54.019Z</time></trkpt><trkpt lat="45.9940695" lon="13.4783519"><ele>166.0</ele><time>2026-05-03T09:08:55.016Z</time></trkpt><trkpt lat="45.9942077" lon="13.4782351"><ele>167.0</ele><time>2026-05-03T09:08:56.015Z</time></trkpt><trkpt lat="45.9943388" lon="13.478078"><ele>168.0</ele><time>2026-05-03T09:08:57.017Z</time></trkpt><trkpt lat="45.9944699" lon="13.4779134"><ele>169.0</ele><time>2026-05-03T09:08:58.016Z</time></trkpt><trkpt lat="45.9946107" lon="13.4777601"><ele>169.0</ele><time>2026-05-03T09:08:59.017Z</time></trkpt><trkpt lat="45.9947622" lon="13.4776256"><ele>169.0</ele><time>2026-05-03T09:09:00.019Z</time></trkpt><trkpt lat="45.9949353" lon="13.4775302"><ele>169.0</ele><time>2026-05-03T09:09:01.019Z</time></trkpt><trkpt lat="45.9951155" lon="13.477466"><ele>170.33333333333334</ele><time>2026-05-03T09:09:02.023Z</time></trkpt><trkpt lat="45.9952961" lon="13.4774174"><ele>171.66666666666666</ele><time>2026-05-03T09:09:03.023Z</time></trkpt><trkpt lat="45.9954695" lon="13.4773702"><ele>173.0</ele><time>2026-05-03T09:09:04.026Z</time></trkpt><trkpt lat="45.995636" lon="13.4773353"><ele>173.0</ele><time>2026-05-03T09:09:05.017Z</time></trkpt><trkpt lat="45.9957868" lon="13.477299"><ele>173.0</ele><time>2026-05-03T09:09:06.015Z</time></trkpt><trkpt lat="45.9959335" lon="13.4772591"><ele>173.0</ele><time>2026-05-03T09:09:07.022Z</time></trkpt><trkpt lat="45.9960761" lon="13.4772117"><ele>173.0</ele><time>2026-05-03T09:09:08.025Z</time></trkpt><trkpt lat="45.9962162" lon="13.4771543"><ele>172.5</ele><time>2026-05-03T09:09:09.021Z</time></trkpt><trkpt lat="45.9963491" lon="13.4770969"><ele>172.0</ele><time>2026-05-03T09:09:10.025Z</time></trkpt><trkpt lat="45.9964749" lon="13.4770252"><ele>171.5</ele><time>2026-05-03T09:09:11.034Z</time></trkpt><trkpt lat="45.9965855" lon="13.4769532"><ele>171.0</ele><time>2026-05-03T09:09:12.022Z</time></trkpt><trkpt lat="45.996678" lon="13.4769081"><ele>166.5</ele><time>2026-05-03T09:09:13.017Z</time></trkpt><trkpt lat="45.9967778" lon="13.4768229"><ele>162.0</ele><time>2026-05-03T09:09:14.026Z</time></trkpt><trkpt lat="45.9968596" lon="13.4766887"><ele>157.5</ele><time>2026-05-03T09:09:15.019Z</time></trkpt><trkpt lat="45.9969503" lon="13.4765285"><ele>153.0</ele><time>2026-05-03T09:09:16.027Z</time></trkpt><trkpt lat="45.9970208" lon="13.4763676"><ele>153.0</ele><time>2026-05-03T09:09:17.018Z</time></trkpt><trkpt lat="45.9970742" lon="13.4762194"><ele>153.0</ele><time>2026-05-03T09:09:18.03Z</time></trkpt><trkpt lat="45.9971083" lon="13.4760797"><ele>153.0</ele><time>2026-05-03T09:09:19.015Z</time></trkpt><trkpt lat="45.9971068" lon="13.4759554"><ele>153.0</ele><time>2026-05-03T09:09:20.028Z</time></trkpt><trkpt lat="45.9971077" lon="13.4758636"><ele>153.0</ele><time>2026-05-03T09:09:21.026Z</time></trkpt><trkpt lat="45.9971722" lon="13.4758267"><ele>153.0</ele><time>2026-05-03T09:09:23.023Z</time></trkpt><trkpt lat="45.9972345" lon="13.4759942"><ele>153.0</ele><time>2026-05-03T09:09:25.029Z</time></trkpt><trkpt lat="45.9972549" lon="13.4761327"><ele>153.0</ele><time>2026-05-03T09:09:26.031Z</time></trkpt><trkpt lat="45.9972806" lon="13.4762957"><ele>153.0</ele><time>2026-05-03T09:09:27.02Z</time></trkpt><trkpt lat="45.9973301" lon="13.4764649"><ele>153.0</ele><time>2026-05-03T09:09:28.024Z</time></trkpt><trkpt lat="45.9974073" lon="13.4766538"><ele>153.0</ele><time>2026-05-03T09:09:29.026Z</time></trkpt><trkpt lat="45.9974985" lon="13.4768534"><ele>153.0</ele><time>2026-05-03T09:09:30.02Z</time></trkpt><trkpt lat="45.9975961" lon="13.4770578"><ele>153.0</ele><time>2026-05-03T09:09:31.034Z</time></trkpt><trkpt lat="45.9976728" lon="13.4772613"><ele>152.25</ele><time>2026-05-03T09:09:32.027Z</time></trkpt><trkpt lat="45.9977191" lon="13.477471"><ele>151.5</ele><time>2026-05-03T09:09:33.023Z</time></trkpt><trkpt lat="45.9977319" lon="13.4776554"><ele>150.75</ele><time>2026-05-03T09:09:34.022Z</time></trkpt><trkpt lat="45.9977841" lon="13.4778203"><ele>150.0</ele><time>2026-05-03T09:09:35.016Z</time></trkpt><trkpt lat="45.9978728" lon="13.4779554"><ele>150.0</ele><time>2026-05-03T09:09:36.015Z</time></trkpt><trkpt lat="45.9979809" lon="13.4780821"><ele>150.0</ele><time>2026-05-03T09:09:37.02Z</time></trkpt><trkpt lat="45.9980832" lon="13.4781998"><ele>150.0</ele><time>2026-05-03T09:09:38.019Z</time></trkpt><trkpt lat="45.9981782" lon="13.4783053"><ele>150.0</ele><time>2026-05-03T09:09:39.021Z</time></trkpt><trkpt lat="45.9982503" lon="13.4784292"><ele>150.0</ele><time>2026-05-03T09:09:40.03Z</time></trkpt><trkpt lat="45.9982787" lon="13.4785819"><ele>150.0</ele><time>2026-05-03T09:09:41.021Z</time></trkpt><trkpt lat="45.9982696" lon="13.4787416"><ele>150.0</ele><time>2026-05-03T09:09:42.02Z</time></trkpt><trkpt lat="45.9982387" lon="13.4789365"><ele>150.0</ele><time>2026-05-03T09:09:43.023Z</time></trkpt><trkpt lat="45.9981862" lon="13.4791212"><ele>150.5</ele><time>2026-05-03T09:09:44.023Z</time></trkpt><trkpt lat="45.9981299" lon="13.4793122"><ele>151.0</ele><time>2026-05-03T09:09:45.022Z</time></trkpt><trkpt lat="45.9980697" lon="13.4794925"><ele>151.5</ele><time>2026-05-03T09:09:46.028Z</time></trkpt><trkpt lat="45.9980173" lon="13.4796529"><ele>152.0</ele><time>2026-05-03T09:09:47.031Z</time></trkpt><trkpt lat="45.9979696" lon="13.4798051"><ele>151.4</ele><time>2026-05-03T09:09:48.025Z</time></trkpt><trkpt lat="45.9979363" lon="13.4799475"><ele>150.79999999999998</ele><time>2026-05-03T09:09:49.024Z</time></trkpt><trkpt lat="45.9979097" lon="13.4800712"><ele>150.2</ele><time>2026-05-03T09:09:50.02Z</time></trkpt><trkpt lat="45.9979034" lon="13.4802061"><ele>149.6</ele><time>2026-05-03T09:09:51.02Z</time></trkpt><trkpt lat="45.9979059" lon="13.4803529"><ele>149.0</ele><time>2026-05-03T09:09:52.025Z</time></trkpt><trkpt lat="45.9979193" lon="13.480509"><ele>149.0</ele><time>2026-05-03T09:09:53.023Z</time></trkpt><trkpt lat="45.9979301" lon="13.4806763"><ele>149.0</ele><time>2026-05-03T09:09:54.021Z</time></trkpt><trkpt lat="45.9979204" lon="13.4808412"><ele>149.0</ele><time>2026-05-03T09:09:55.028Z</time></trkpt><trkpt lat="45.9978993" lon="13.4810119"><ele>149.0</ele><time>2026-05-03T09:09:56.033Z</time></trkpt><trkpt lat="45.9978682" lon="13.4811745"><ele>147.75</ele><time>2026-05-03T09:09:57.022Z</time></trkpt><trkpt lat="45.9978373" lon="13.4813468"><ele>146.5</ele><time>2026-05-03T09:09:58.018Z</time></trkpt><trkpt lat="45.9978132" lon="13.4815291"><ele>145.25</ele><time>2026-05-03T09:09:59.02Z</time></trkpt><trkpt lat="45.9978003" lon="13.481719"><ele>144.0</ele><time>2026-05-03T09:10:00.019Z</time></trkpt><trkpt lat="45.9977859" lon="13.4819123"><ele>142.25</ele><time>2026-05-03T09:10:01.023Z</time></trkpt><trkpt lat="45.9977827" lon="13.4821117"><ele>140.5</ele><time>2026-05-03T09:10:02.028Z</time></trkpt><trkpt lat="45.9977788" lon="13.4823122"><ele>138.75</ele><time>2026-05-03T09:10:03.031Z</time></trkpt><trkpt lat="45.9977687" lon="13.4825066"><ele>137.0</ele><time>2026-05-03T09:10:04.022Z</time></trkpt><trkpt lat="45.997745" lon="13.4827085"><ele>137.0</ele><time>2026-05-03T09:10:05.027Z</time></trkpt><trkpt lat="45.9977178" lon="13.4828728"><ele>137.0</ele><time>2026-05-03T09:10:06.031Z</time></trkpt><trkpt lat="45.9977106" lon="13.4830352"><ele>137.0</ele><time>2026-05-03T09:10:07.027Z</time></trkpt><trkpt lat="45.9977344" lon="13.4832055"><ele>137.0</ele><time>2026-05-03T09:10:08.024Z</time></trkpt><trkpt lat="45.9977806" lon="13.4833801"><ele>135.0</ele><time>2026-05-03T09:10:09.022Z</time></trkpt><trkpt lat="45.9978262" lon="13.4835486"><ele>133.0</ele><time>2026-05-03T09:10:10.026Z</time></trkpt><trkpt lat="45.9978773" lon="13.4837301"><ele>131.0</ele><time>2026-05-03T09:10:11.03Z</time></trkpt><trkpt lat="45.997922" lon="13.4838998"><ele>129.0</ele><time>2026-05-03T09:10:12.017Z</time></trkpt><trkpt lat="45.9979664" lon="13.4840577"><ele>127.2</ele><time>2026-05-03T09:10:13.024Z</time></trkpt><trkpt lat="45.9980071" lon="13.4842028"><ele>125.4</ele><time>2026-05-03T09:10:14.025Z</time></trkpt><trkpt lat="45.9980482" lon="13.4843376"><ele>123.6</ele><time>2026-05-03T09:10:15.019Z</time></trkpt><trkpt lat="45.998093" lon="13.4844527"><ele>121.8</ele><time>2026-05-03T09:10:16.032Z</time></trkpt><trkpt lat="45.9981399" lon="13.4845509"><ele>120.0</ele><time>2026-05-03T09:10:17.02Z</time></trkpt><trkpt lat="45.9981801" lon="13.4846255"><ele>118.8</ele><time>2026-05-03T09:10:18.024Z</time></trkpt><trkpt lat="45.9982065" lon="13.484753"><ele>117.6</ele><time>2026-05-03T09:10:20.023Z</time></trkpt><trkpt lat="45.998152" lon="13.484912"><ele>116.4</ele><time>2026-05-03T09:10:22.029Z</time></trkpt><trkpt lat="45.9981171" lon="13.4850293"><ele>115.2</ele><time>2026-05-03T09:10:23.022Z</time></trkpt><trkpt lat="45.9980751" lon="13.4851692"><ele>114.0</ele><time>2026-05-03T09:10:24.019Z</time></trkpt><trkpt lat="45.9980361" lon="13.4853164"><ele>113.75</ele><time>2026-05-03T09:10:25.029Z</time></trkpt><trkpt lat="45.9979956" lon="13.4854652"><ele>113.5</ele><time>2026-05-03T09:10:26.024Z</time></trkpt><trkpt lat="45.9979486" lon="13.4856161"><ele>113.25</ele><time>2026-05-03T09:10:27.019Z</time></trkpt><trkpt lat="45.997898" lon="13.4857719"><ele>113.0</ele><time>2026-05-03T09:10:28.016Z</time></trkpt><trkpt lat="45.9978462" lon="13.4859362"><ele>113.0</ele><time>2026-05-03T09:10:29.021Z</time></trkpt><trkpt lat="45.997802" lon="13.4861003"><ele>113.0</ele><time>2026-05-03T09:10:30.018Z</time></trkpt><trkpt lat="45.9977529" lon="13.4862622"><ele>113.0</ele><time>2026-05-03T09:10:31.015Z</time></trkpt><trkpt lat="45.9977077" lon="13.486437"><ele>113.0</ele><time>2026-05-03T09:10:32.018Z</time></trkpt><trkpt lat="45.997659" lon="13.4866156"><ele>113.75</ele><time>2026-05-03T09:10:33.034Z</time></trkpt><trkpt lat="45.9976028" lon="13.4867982"><ele>114.5</ele><time>2026-05-03T09:10:34.016Z</time></trkpt><trkpt lat="45.9975443" lon="13.4869777"><ele>115.25</ele><time>2026-05-03T09:10:35.019Z</time></trkpt><trkpt lat="45.9974684" lon="13.4871604"><ele>116.0</ele><time>2026-05-03T09:10:36.015Z</time></trkpt><trkpt lat="45.997415" lon="13.4873654"><ele>116.0</ele><time>2026-05-03T09:10:37.015Z</time></trkpt><trkpt lat="45.9973485" lon="13.4875638"><ele>116.0</ele><time>2026-05-03T09:10:38.014Z</time></trkpt><trkpt lat="45.997269" lon="13.4877759"><ele>116.0</ele><time>2026-05-03T09:10:39.014Z</time></trkpt><trkpt lat="45.9971989" lon="13.4879725"><ele>114.5</ele><time>2026-05-03T09:10:40.026Z</time></trkpt><trkpt lat="45.9971234" lon="13.4881578"><ele>113.0</ele><time>2026-05-03T09:10:41.02Z</time></trkpt><trkpt lat="45.997061" lon="13.4883224"><ele>111.5</ele><time>2026-05-03T09:10:42.015Z</time></trkpt><trkpt lat="45.9970208" lon="13.4884904"><ele>110.0</ele><time>2026-05-03T09:10:43.016Z</time></trkpt><trkpt lat="45.9970072" lon="13.4886902"><ele>110.0</ele><time>2026-05-03T09:10:44.014Z</time></trkpt><trkpt lat="45.9970465" lon="13.4888836"><ele>110.0</ele><time>2026-05-03T09:10:45.177Z</time></trkpt><trkpt lat="45.9971959" lon="13.4892175"><ele>110.0</ele><time>2026-05-03T09:10:47.012Z</time></trkpt><trkpt lat="45.9972495" lon="13.4893615"><ele>109.99999999999999</ele><time>2026-05-03T09:10:48.018Z</time></trkpt><trkpt lat="45.997276" lon="13.4894804"><ele>110.0</ele><time>2026-05-03T09:10:49.019Z</time></trkpt><trkpt lat="45.9972867" lon="13.4895897"><ele>110.0</ele><time>2026-05-03T09:10:50.022Z</time></trkpt><trkpt lat="45.9972657" lon="13.4896768"><ele>110.0</ele><time>2026-05-03T09:10:51.023Z</time></trkpt><trkpt lat="45.9972193" lon="13.4898059"><ele>109.99999999999999</ele><time>2026-05-03T09:10:53.014Z</time></trkpt><trkpt lat="45.9971497" lon="13.4898865"><ele>110.0</ele><time>2026-05-03T09:10:55.021Z</time></trkpt><trkpt lat="45.9970857" lon="13.4899313"><ele>109.99999999999999</ele><time>2026-05-03T09:10:57.022Z</time></trkpt><trkpt lat="45.9971851" lon="13.4898304"><ele>110.0</ele><time>2026-05-03T09:11:04.017Z</time></trkpt><trkpt lat="45.9972351" lon="13.4897402"><ele>110.0</ele><time>2026-05-03T09:11:05.019Z</time></trkpt><trkpt lat="45.9972733" lon="13.4896381"><ele>110.0</ele><time>2026-05-03T09:11:06.032Z</time></trkpt><trkpt lat="45.9972747" lon="13.4895198"><ele>109.99999999999999</ele><time>2026-05-03T09:11:07.024Z</time></trkpt><trkpt lat="45.9972673" lon="13.4894082"><ele>110.0</ele><time>2026-05-03T09:11:08.018Z</time></trkpt><trkpt lat="45.9972509" lon="13.4893171"><ele>110.0</ele><time>2026-05-03T09:11:09.025Z</time></trkpt><trkpt lat="45.9972249" lon="13.4891266"><ele>110.0</ele><time>2026-05-03T09:11:11.019Z</time></trkpt><trkpt lat="45.9972054" lon="13.4890306"><ele>110.0</ele><time>2026-05-03T09:11:12.02Z</time></trkpt><trkpt lat="45.9971806" lon="13.4889426"><ele>110.0</ele><time>2026-05-03T09:11:13.023Z</time></trkpt><trkpt lat="45.9971553" lon="13.488779"><ele>110.0</ele><time>2026-05-03T09:11:15.022Z</time></trkpt><trkpt lat="45.997129" lon="13.4886314"><ele>110.0</ele><time>2026-05-03T09:11:17.027Z</time></trkpt><trkpt lat="45.9971326" lon="13.4884786"><ele>110.0</ele><time>2026-05-03T09:11:19.018Z</time></trkpt><trkpt lat="45.9971661" lon="13.488356"><ele>110.0</ele><time>2026-05-03T09:11:21.017Z</time></trkpt><trkpt lat="45.9972493" lon="13.4882988"><ele>110.0</ele><time>2026-05-03T09:11:23.017Z</time></trkpt><trkpt lat="45.9973739" lon="13.4883315"><ele>110.0</ele><time>2026-05-03T09:11:25.026Z</time></trkpt><trkpt lat="45.9974457" lon="13.4883807"><ele>107.83333333333333</ele><time>2026-05-03T09:11:26.019Z</time></trkpt><trkpt lat="45.997519" lon="13.4884385"><ele>105.66666666666666</ele><time>2026-05-03T09:11:27.017Z</time></trkpt><trkpt lat="45.9975952" lon="13.4884893"><ele>103.5</ele><time>2026-05-03T09:11:28.036Z</time></trkpt><trkpt lat="45.9976698" lon="13.488521"><ele>101.33333333333334</ele><time>2026-05-03T09:11:29.019Z</time></trkpt><trkpt lat="45.9977496" lon="13.4885416"><ele>99.16666666666667</ele><time>2026-05-03T09:11:30.015Z</time></trkpt><trkpt lat="45.9978338" lon="13.4885525"><ele>97.0</ele><time>2026-05-03T09:11:31.022Z</time></trkpt><trkpt lat="45.9979213" lon="13.4885538"><ele>97.00000000000001</ele><time>2026-05-03T09:11:32.03Z</time></trkpt><trkpt lat="45.9980027" lon="13.4885482"><ele>97.0</ele><time>2026-05-03T09:11:33.027Z</time></trkpt><trkpt lat="45.9980888" lon="13.4885395"><ele>97.0</ele><time>2026-05-03T09:11:34.018Z</time></trkpt><trkpt lat="45.9981643" lon="13.4885282"><ele>97.0</ele><time>2026-05-03T09:11:35.027Z</time></trkpt><trkpt lat="45.9982352" lon="13.4884985"><ele>97.00000000000001</ele><time>2026-05-03T09:11:36.021Z</time></trkpt><trkpt lat="45.998304" lon="13.4884531"><ele>97.0</ele><time>2026-05-03T09:11:37.025Z</time></trkpt><trkpt lat="45.9983666" lon="13.4884013"><ele>94.16666666666667</ele><time>2026-05-03T09:11:38.029Z</time></trkpt><trkpt lat="45.9984237" lon="13.4883537"><ele>91.33333333333334</ele><time>2026-05-03T09:11:39.023Z</time></trkpt><trkpt lat="45.9984805" lon="13.4883014"><ele>88.5</ele><time>2026-05-03T09:11:40.019Z</time></trkpt><trkpt lat="45.998537" lon="13.4882469"><ele>85.66666666666667</ele><time>2026-05-03T09:11:41.022Z</time></trkpt><trkpt lat="45.998636" lon="13.4881793"><ele>82.83333333333334</ele><time>2026-05-03T09:11:43.02Z</time></trkpt><trkpt lat="45.9987411" lon="13.4882062"><ele>80.0</ele><time>2026-05-03T09:11:45.026Z</time></trkpt><trkpt lat="45.9988036" lon="13.4882324"><ele>80.0</ele><time>2026-05-03T09:11:46.026Z</time></trkpt><trkpt lat="45.9989245" lon="13.4882591"><ele>80.0</ele><time>2026-05-03T09:11:48.021Z</time></trkpt><trkpt lat="45.999045" lon="13.4883282"><ele>80.0</ele><time>2026-05-03T09:11:50.027Z</time></trkpt><trkpt lat="45.999108" lon="13.4883912"><ele>80.0</ele><time>2026-05-03T09:11:51.018Z</time></trkpt><trkpt lat="45.9991768" lon="13.4884743"><ele>80.0</ele><time>2026-05-03T09:11:52.019Z</time></trkpt><trkpt lat="45.999246" lon="13.4885727"><ele>78.6</ele><time>2026-05-03T09:11:53.018Z</time></trkpt><trkpt lat="45.9993086" lon="13.48868"><ele>77.2</ele><time>2026-05-03T09:11:54.018Z</time></trkpt><trkpt lat="45.9993709" lon="13.4887982"><ele>75.8</ele><time>2026-05-03T09:11:55.021Z</time></trkpt><trkpt lat="45.999436" lon="13.4889308"><ele>74.4</ele><time>2026-05-03T09:11:56.02Z</time></trkpt><trkpt lat="45.9995029" lon="13.4890621"><ele>73.0</ele><time>2026-05-03T09:11:57.029Z</time></trkpt><trkpt lat="45.9995674" lon="13.4891826"><ele>73.0</ele><time>2026-05-03T09:11:58.02Z</time></trkpt><trkpt lat="45.9996321" lon="13.4892849"><ele>73.0</ele><time>2026-05-03T09:11:59.023Z</time></trkpt><trkpt lat="45.9996994" lon="13.4893655"><ele>73.0</ele><time>2026-05-03T09:12:00.025Z</time></trkpt><trkpt lat="45.9997672" lon="13.4894267"><ele>73.0</ele><time>2026-05-03T09:12:01.023Z</time></trkpt><trkpt lat="45.9998502" lon="13.4894724"><ele>73.0</ele><time>2026-05-03T09:12:02.02Z</time></trkpt><trkpt lat="45.9999452" lon="13.4895117"><ele>73.0</ele><time>2026-05-03T09:12:03.027Z</time></trkpt><trkpt lat="46.0000426" lon="13.4895531"><ele>73.0</ele><time>2026-05-03T09:12:04.025Z</time></trkpt><trkpt lat="46.0001377" lon="13.4895934"><ele>73.0</ele><time>2026-05-03T09:12:05.02Z</time></trkpt><trkpt lat="46.0002409" lon="13.4896306"><ele>73.0</ele><time>2026-05-03T09:12:06.027Z</time></trkpt><trkpt lat="46.000344" lon="13.4896697"><ele>73.0</ele><time>2026-05-03T09:12:07.022Z</time></trkpt><trkpt lat="46.0004435" lon="13.48971"><ele>73.2</ele><time>2026-05-03T09:12:08.025Z</time></trkpt><trkpt lat="46.0005391" lon="13.4897576"><ele>73.4</ele><time>2026-05-03T09:12:09.038Z</time></trkpt><trkpt lat="46.0006326" lon="13.4898071"><ele>73.60000000000001</ele><time>2026-05-03T09:12:10.028Z</time></trkpt><trkpt lat="46.0007223" lon="13.4898546"><ele>73.8</ele><time>2026-05-03T09:12:11.018Z</time></trkpt><trkpt lat="46.0008058" lon="13.4898973"><ele>74.0</ele><time>2026-05-03T09:12:12.02Z</time></trkpt><trkpt lat="46.0008814" lon="13.4899296"><ele>74.28571428571429</ele><time>2026-05-03T09:12:13.025Z</time></trkpt><trkpt lat="46.0009502" lon="13.4899679"><ele>74.57142857142857</ele><time>2026-05-03T09:12:14.021Z</time></trkpt><trkpt lat="46.0010185" lon="13.4900013"><ele>74.85714285714286</ele><time>2026-05-03T09:12:15.019Z</time></trkpt><trkpt lat="46.0010852" lon="13.4900399"><ele>75.14285714285714</ele><time>2026-05-03T09:12:16.027Z</time></trkpt><trkpt lat="46.0011485" lon="13.4900738"><ele>75.42857142857143</ele><time>2026-05-03T09:12:17.028Z</time></trkpt><trkpt lat="46.001211" lon="13.490108"><ele>75.71428571428571</ele><time>2026-05-03T09:12:18.026Z</time></trkpt><trkpt lat="46.0012736" lon="13.490143"><ele>76.0</ele><time>2026-05-03T09:12:19.018Z</time></trkpt><trkpt lat="46.0013396" lon="13.4901817"><ele>76.0</ele><time>2026-05-03T09:12:20.019Z</time></trkpt><trkpt lat="46.0014067" lon="13.4902158"><ele>76.0</ele><time>2026-05-03T09:12:21.023Z</time></trkpt><trkpt lat="46.0014695" lon="13.4902515"><ele>76.0</ele><time>2026-05-03T09:12:22.019Z</time></trkpt><trkpt lat="46.0015324" lon="13.4902892"><ele>76.0</ele><time>2026-05-03T09:12:23.017Z</time></trkpt><trkpt lat="46.0015936" lon="13.4903269"><ele>76.0</ele><time>2026-05-03T09:12:24.017Z</time></trkpt><trkpt lat="46.0016583" lon="13.490366"><ele>76.0</ele><time>2026-05-03T09:12:25.021Z</time></trkpt><trkpt lat="46.0017273" lon="13.4904015"><ele>76.0</ele><time>2026-05-03T09:12:26.022Z</time></trkpt><trkpt lat="46.0017995" lon="13.4904374"><ele>76.0</ele><time>2026-05-03T09:12:27.022Z</time></trkpt><trkpt lat="46.0018691" lon="13.4904755"><ele>76.0</ele><time>2026-05-03T09:12:28.021Z</time></trkpt><trkpt lat="46.0019722" lon="13.4905489"><ele>76.0</ele><time>2026-05-03T09:12:30.019Z</time></trkpt><trkpt lat="46.0020528" lon="13.4906048"><ele>76.0</ele><time>2026-05-03T09:12:32.022Z</time></trkpt><trkpt lat="46.0021338" lon="13.4905194"><ele>76.0</ele><time>2026-05-03T09:12:35.019Z</time></trkpt><trkpt lat="46.0021676" lon="13.4903308"><ele>76.2</ele><time>2026-05-03T09:12:37.018Z</time></trkpt><trkpt lat="46.0021774" lon="13.4902032"><ele>76.39999999999999</ele><time>2026-05-03T09:12:38.021Z</time></trkpt><trkpt lat="46.0021939" lon="13.4900627"><ele>76.6</ele><time>2026-05-03T09:12:39.022Z</time></trkpt><trkpt lat="46.0022223" lon="13.4899141"><ele>76.8</ele><time>2026-05-03T09:12:40.025Z</time></trkpt><trkpt lat="46.0022569" lon="13.4897612"><ele>77.0</ele><time>2026-05-03T09:12:41.02Z</time></trkpt><trkpt lat="46.0022992" lon="13.4896036"><ele>76.75</ele><time>2026-05-03T09:12:42.022Z</time></trkpt><trkpt lat="46.0023539" lon="13.4894404"><ele>76.5</ele><time>2026-05-03T09:12:43.017Z</time></trkpt><trkpt lat="46.0024137" lon="13.4892678"><ele>76.25</ele><time>2026-05-03T09:12:44.024Z</time></trkpt><trkpt lat="46.0024693" lon="13.4890828"><ele>76.0</ele><time>2026-05-03T09:12:45.019Z</time></trkpt><trkpt lat="46.0025186" lon="13.4888859"><ele>76.66666666666666</ele><time>2026-05-03T09:12:46.02Z</time></trkpt><trkpt lat="46.0025629" lon="13.4886801"><ele>77.33333333333333</ele><time>2026-05-03T09:12:47.016Z</time></trkpt><trkpt lat="46.0026032" lon="13.4884527"><ele>78.0</ele><time>2026-05-03T09:12:48.02Z</time></trkpt><trkpt lat="46.0026452" lon="13.4882418"><ele>78.0</ele><time>2026-05-03T09:12:49.018Z</time></trkpt><trkpt lat="46.0026961" lon="13.4880382"><ele>78.0</ele><time>2026-05-03T09:12:50.02Z</time></trkpt><trkpt lat="46.0027627" lon="13.4878356"><ele>78.0</ele><time>2026-05-03T09:12:51.019Z</time></trkpt><trkpt lat="46.0028359" lon="13.4876346"><ele>77.0</ele><time>2026-05-03T09:12:52.029Z</time></trkpt><trkpt lat="46.0029178" lon="13.487439"><ele>76.0</ele><time>2026-05-03T09:12:53.017Z</time></trkpt><trkpt lat="46.0030105" lon="13.4872569"><ele>75.0</ele><time>2026-05-03T09:12:54.017Z</time></trkpt><trkpt lat="46.003117" lon="13.4870819"><ele>74.0</ele><time>2026-05-03T09:12:55.016Z</time></trkpt><trkpt lat="46.0032374" lon="13.4869116"><ele>73.0</ele><time>2026-05-03T09:12:56.023Z</time></trkpt><trkpt lat="46.0033547" lon="13.4867496"><ele>72.0</ele><time>2026-05-03T09:12:57.016Z</time></trkpt><trkpt lat="46.0034722" lon="13.4865869"><ele>73.0</ele><time>2026-05-03T09:12:58.027Z</time></trkpt><trkpt lat="46.0035713" lon="13.4864107"><ele>74.0</ele><time>2026-05-03T09:12:59.019Z</time></trkpt><trkpt lat="46.0036605" lon="13.4862031"><ele>75.0</ele><time>2026-05-03T09:13:00.021Z</time></trkpt><trkpt lat="46.0037354" lon="13.4859796"><ele>75.0</ele><time>2026-05-03T09:13:01.027Z</time></trkpt><trkpt lat="46.0037926" lon="13.4857403"><ele>75.0</ele><time>2026-05-03T09:13:02.029Z</time></trkpt><trkpt lat="46.0038488" lon="13.4854894"><ele>75.0</ele><time>2026-05-03T09:13:03.02Z</time></trkpt><trkpt lat="46.0039099" lon="13.4852377"><ele>74.33333333333333</ele><time>2026-05-03T09:13:04.017Z</time></trkpt><trkpt lat="46.0039776" lon="13.48499"><ele>73.66666666666666</ele><time>2026-05-03T09:13:05.014Z</time></trkpt><trkpt lat="46.0040496" lon="13.4847758"><ele>73.0</ele><time>2026-05-03T09:13:06.015Z</time></trkpt><trkpt lat="46.0041216" lon="13.4845918"><ele>73.0</ele><time>2026-05-03T09:13:07.012Z</time></trkpt><trkpt lat="46.0041857" lon="13.4844378"><ele>73.0</ele><time>2026-05-03T09:13:08.019Z</time></trkpt><trkpt lat="46.004265" lon="13.4842987"><ele>73.0</ele><time>2026-05-03T09:13:09.012Z</time></trkpt><trkpt lat="46.0043572" lon="13.4841522"><ele>73.0</ele><time>2026-05-03T09:13:10.015Z</time></trkpt><trkpt lat="46.0044412" lon="13.4839818"><ele>73.0</ele><time>2026-05-03T09:13:11.014Z</time></trkpt><trkpt lat="46.0045062" lon="13.483792"><ele>73.0</ele><time>2026-05-03T09:13:12.017Z</time></trkpt><trkpt lat="46.0045517" lon="13.4835799"><ele>73.0</ele><time>2026-05-03T09:13:13.023Z</time></trkpt><trkpt lat="46.0045859" lon="13.4833605"><ele>73.0</ele><time>2026-05-03T09:13:14.024Z</time></trkpt><trkpt lat="46.0045944" lon="13.4831045"><ele>73.0</ele><time>2026-05-03T09:13:15.027Z</time></trkpt><trkpt lat="46.0045792" lon="13.4828374"><ele>73.0</ele><time>2026-05-03T09:13:16.015Z</time></trkpt><trkpt lat="46.0045592" lon="13.4825617"><ele>73.0</ele><time>2026-05-03T09:13:17.018Z</time></trkpt><trkpt lat="46.00454" lon="13.4822739"><ele>73.0</ele><time>2026-05-03T09:13:18.021Z</time></trkpt><trkpt lat="46.0045297" lon="13.4819853"><ele>73.0</ele><time>2026-05-03T09:13:19.018Z</time></trkpt><trkpt lat="46.0045123" lon="13.4816814"><ele>73.0</ele><time>2026-05-03T09:13:20.02Z</time></trkpt><trkpt lat="46.0045048" lon="13.4813799"><ele>73.0</ele><time>2026-05-03T09:13:21.029Z</time></trkpt><trkpt lat="46.0045026" lon="13.4810757"><ele>73.0</ele><time>2026-05-03T09:13:22.018Z</time></trkpt><trkpt lat="46.0045187" lon="13.4807777"><ele>73.0</ele><time>2026-05-03T09:13:23.02Z</time></trkpt><trkpt lat="46.0045438" lon="13.4804921"><ele>73.0</ele><time>2026-05-03T09:13:24.013Z</time></trkpt><trkpt lat="46.0045384" lon="13.4802112"><ele>73.0</ele><time>2026-05-03T09:13:25.018Z</time></trkpt><trkpt lat="46.0044992" lon="13.4799423"><ele>73.0</ele><time>2026-05-03T09:13:26.018Z</time></trkpt><trkpt lat="46.0044566" lon="13.4796994"><ele>73.0</ele><time>2026-05-03T09:13:27.031Z</time></trkpt><trkpt lat="46.0044121" lon="13.4794951"><ele>73.0</ele><time>2026-05-03T09:13:28.033Z</time></trkpt><trkpt lat="46.0043707" lon="13.4793113"><ele>73.0</ele><time>2026-05-03T09:13:29.019Z</time></trkpt><trkpt lat="46.0043206" lon="13.47912"><ele>73.0</ele><time>2026-05-03T09:13:30.027Z</time></trkpt><trkpt lat="46.0042876" lon="13.4789188"><ele>73.0</ele><time>2026-05-03T09:13:31.011Z</time></trkpt><trkpt lat="46.0042722" lon="13.4787183"><ele>73.0</ele><time>2026-05-03T09:13:32.019Z</time></trkpt><trkpt lat="46.004266" lon="13.478518"><ele>73.25</ele><time>2026-05-03T09:13:33.021Z</time></trkpt><trkpt lat="46.0042631" lon="13.4783275"><ele>73.5</ele><time>2026-05-03T09:13:34.017Z</time></trkpt><trkpt lat="46.0042502" lon="13.4781528"><ele>73.75</ele><time>2026-05-03T09:13:35.023Z</time></trkpt><trkpt lat="46.0042194" lon="13.4779835"><ele>74.0</ele><time>2026-05-03T09:13:36.025Z</time></trkpt><trkpt lat="46.0041694" lon="13.4778218"><ele>73.2</ele><time>2026-05-03T09:13:37.021Z</time></trkpt><trkpt lat="46.00411" lon="13.4776777"><ele>72.4</ele><time>2026-05-03T09:13:38.018Z</time></trkpt><trkpt lat="46.0040466" lon="13.4775337"><ele>71.6</ele><time>2026-05-03T09:13:39.021Z</time></trkpt><trkpt lat="46.0039907" lon="13.477405"><ele>70.8</ele><time>2026-05-03T09:13:40.017Z</time></trkpt><trkpt lat="46.0039442" lon="13.4772869"><ele>70.0</ele><time>2026-05-03T09:13:41.016Z</time></trkpt><trkpt lat="46.003905" lon="13.4771873"><ele>70.2</ele><time>2026-05-03T09:13:42.017Z</time></trkpt><trkpt lat="46.0038598" lon="13.4770569"><ele>70.4</ele><time>2026-05-03T09:13:44.028Z</time></trkpt><trkpt lat="46.0038102" lon="13.4769297"><ele>70.6</ele><time>2026-05-03T09:13:46.018Z</time></trkpt><trkpt lat="46.003773" lon="13.47684"><ele>70.8</ele><time>2026-05-03T09:13:47.016Z</time></trkpt><trkpt lat="46.0037391" lon="13.4767301"><ele>71.0</ele><time>2026-05-03T09:13:48.018Z</time></trkpt><trkpt lat="46.003712" lon="13.4765999"><ele>71.0</ele><time>2026-05-03T09:13:49.016Z</time></trkpt><trkpt lat="46.0036962" lon="13.4764519"><ele>71.0</ele><time>2026-05-03T09:13:50.014Z</time></trkpt><trkpt lat="46.003695" lon="13.4763039"><ele>71.0</ele><time>2026-05-03T09:13:51.027Z</time></trkpt><trkpt lat="46.0037075" lon="13.4761558"><ele>71.0</ele><time>2026-05-03T09:13:52.019Z</time></trkpt><trkpt lat="46.0037209" lon="13.4760044"><ele>71.0</ele><time>2026-05-03T09:13:53.019Z</time></trkpt><trkpt lat="46.003735" lon="13.4758488"><ele>71.0</ele><time>2026-05-03T09:13:54.019Z</time></trkpt><trkpt lat="46.0037448" lon="13.4756866"><ele>71.0</ele><time>2026-05-03T09:13:55.024Z</time></trkpt><trkpt lat="46.0037553" lon="13.4755144"><ele>71.0</ele><time>2026-05-03T09:13:56.028Z</time></trkpt><trkpt lat="46.0037614" lon="13.4753443"><ele>71.0</ele><time>2026-05-03T09:13:57.017Z</time></trkpt><trkpt lat="46.0037634" lon="13.4751762"><ele>71.0</ele><time>2026-05-03T09:13:58.02Z</time></trkpt><trkpt lat="46.0037663" lon="13.4750039"><ele>71.0</ele><time>2026-05-03T09:13:59.023Z</time></trkpt><trkpt lat="46.0037674" lon="13.4748259"><ele>71.0</ele><time>2026-05-03T09:14:00.02Z</time></trkpt><trkpt lat="46.0037746" lon="13.4746444"><ele>71.0</ele><time>2026-05-03T09:14:01.02Z</time></trkpt><trkpt lat="46.0037826" lon="13.4744643"><ele>71.0</ele><time>2026-05-03T09:14:02.015Z</time></trkpt><trkpt lat="46.0037919" lon="13.4742888"><ele>71.0</ele><time>2026-05-03T09:14:03.018Z</time></trkpt><trkpt lat="46.0037942" lon="13.4741069"><ele>71.0</ele><time>2026-05-03T09:14:04.025Z</time></trkpt><trkpt lat="46.0037978" lon="13.4739181"><ele>71.0</ele><time>2026-05-03T09:14:05.019Z</time></trkpt><trkpt lat="46.0038021" lon="13.4737332"><ele>71.0</ele><time>2026-05-03T09:14:06.024Z</time></trkpt><trkpt lat="46.0038083" lon="13.4735549"><ele>71.0</ele><time>2026-05-03T09:14:07.017Z</time></trkpt><trkpt lat="46.0038201" lon="13.4733872"><ele>71.0</ele><time>2026-05-03T09:14:08.019Z</time></trkpt><trkpt lat="46.0038302" lon="13.4732317"><ele>71.0</ele><time>2026-05-03T09:14:09.023Z</time></trkpt><trkpt lat="46.0038427" lon="13.4730873"><ele>71.0</ele><time>2026-05-03T09:14:10.019Z</time></trkpt><trkpt lat="46.0038541" lon="13.472964"><ele>71.0</ele><time>2026-05-03T09:14:11.017Z</time></trkpt><trkpt lat="46.0038605" lon="13.4728514"><ele>71.0</ele><time>2026-05-03T09:14:12.024Z</time></trkpt><trkpt lat="46.0038725" lon="13.4727544"><ele>71.0</ele><time>2026-05-03T09:14:13.021Z</time></trkpt><trkpt lat="46.0039539" lon="13.4726664"><ele>71.0</ele><time>2026-05-03T09:14:15.018Z</time></trkpt><trkpt lat="46.0040252" lon="13.4726887"><ele>71.0</ele><time>2026-05-03T09:14:16.022Z</time></trkpt><trkpt lat="46.0041124" lon="13.4727482"><ele>71.5</ele><time>2026-05-03T09:14:17.021Z</time></trkpt><trkpt lat="46.0042151" lon="13.472818"><ele>72.0</ele><time>2026-05-03T09:14:18.014Z</time></trkpt><trkpt lat="46.0043234" lon="13.47289"><ele>72.5</ele><time>2026-05-03T09:14:19.027Z</time></trkpt><trkpt lat="46.004429" lon="13.4729662"><ele>73.0</ele><time>2026-05-03T09:14:20.021Z</time></trkpt><trkpt lat="46.0045341" lon="13.4730341"><ele>73.4</ele><time>2026-05-03T09:14:21.016Z</time></trkpt><trkpt lat="46.0046355" lon="13.4730946"><ele>73.8</ele><time>2026-05-03T09:14:22.026Z</time></trkpt><trkpt lat="46.0047342" lon="13.4731532"><ele>74.2</ele><time>2026-05-03T09:14:23.018Z</time></trkpt><trkpt lat="46.0048346" lon="13.4732089"><ele>74.6</ele><time>2026-05-03T09:14:24.021Z</time></trkpt><trkpt lat="46.0049296" lon="13.4732419"><ele>75.0</ele><time>2026-05-03T09:14:25.018Z</time></trkpt><trkpt lat="46.005017" lon="13.4732642"><ele>75.5</ele><time>2026-05-03T09:14:26.016Z</time></trkpt><trkpt lat="46.0051041" lon="13.4732914"><ele>76.0</ele><time>2026-05-03T09:14:27.02Z</time></trkpt><trkpt lat="46.0051872" lon="13.4733188"><ele>76.5</ele><time>2026-05-03T09:14:28.031Z</time></trkpt><trkpt lat="46.0052685" lon="13.4733346"><ele>77.0</ele><time>2026-05-03T09:14:29.018Z</time></trkpt><trkpt lat="46.0053386" lon="13.4733194"><ele>77.5</ele><time>2026-05-03T09:14:30.026Z</time></trkpt><trkpt lat="46.005395" lon="13.4732628"><ele>78.0</ele><time>2026-05-03T09:14:31.019Z</time></trkpt><trkpt lat="46.0054346" lon="13.4731689"><ele>78.0</ele><time>2026-05-03T09:14:32.02Z</time></trkpt><trkpt lat="46.0054594" lon="13.4730545"><ele>78.0</ele><time>2026-05-03T09:14:33.02Z</time></trkpt><trkpt lat="46.0054751" lon="13.4729246"><ele>78.0</ele><time>2026-05-03T09:14:34.021Z</time></trkpt><trkpt lat="46.0054966" lon="13.4727815"><ele>78.0</ele><time>2026-05-03T09:14:35.022Z</time></trkpt><trkpt lat="46.0055382" lon="13.4726373"><ele>78.0</ele><time>2026-05-03T09:14:36.035Z</time></trkpt><trkpt lat="46.0056065" lon="13.4724943"><ele>77.75</ele><time>2026-05-03T09:14:37.021Z</time></trkpt><trkpt lat="46.0056927" lon="13.4723531"><ele>77.5</ele><time>2026-05-03T09:14:38.015Z</time></trkpt><trkpt lat="46.0057806" lon="13.472214"><ele>77.25</ele><time>2026-05-03T09:14:39.018Z</time></trkpt><trkpt lat="46.0058668" lon="13.4720814"><ele>77.0</ele><time>2026-05-03T09:14:40.018Z</time></trkpt><trkpt lat="46.0059505" lon="13.471965"><ele>79.8</ele><time>2026-05-03T09:14:41.024Z</time></trkpt><trkpt lat="46.006032" lon="13.4718708"><ele>82.6</ele><time>2026-05-03T09:14:42.022Z</time></trkpt><trkpt lat="46.0061161" lon="13.4718028"><ele>85.39999999999999</ele><time>2026-05-03T09:14:43.021Z</time></trkpt><trkpt lat="46.0062122" lon="13.471755"><ele>88.2</ele><time>2026-05-03T09:14:44.029Z</time></trkpt><trkpt lat="46.0063207" lon="13.4717288"><ele>91.0</ele><time>2026-05-03T09:14:45.018Z</time></trkpt><trkpt lat="46.0064366" lon="13.4717337"><ele>91.0</ele><time>2026-05-03T09:14:46.018Z</time></trkpt><trkpt lat="46.0065552" lon="13.4717359"><ele>91.0</ele><time>2026-05-03T09:14:47.016Z</time></trkpt><trkpt lat="46.006673" lon="13.4717175"><ele>91.0</ele><time>2026-05-03T09:14:48.016Z</time></trkpt><trkpt lat="46.0067768" lon="13.4716908"><ele>91.0</ele><time>2026-05-03T09:14:49.024Z</time></trkpt><trkpt lat="46.0068612" lon="13.4716577"><ele>91.0</ele><time>2026-05-03T09:14:50.019Z</time></trkpt><trkpt lat="46.0069316" lon="13.4716092"><ele>92.4</ele><time>2026-05-03T09:14:51.02Z</time></trkpt><trkpt lat="46.0069956" lon="13.4715343"><ele>93.8</ele><time>2026-05-03T09:14:52.024Z</time></trkpt><trkpt lat="46.007056" lon="13.4714494"><ele>95.2</ele><time>2026-05-03T09:14:53.025Z</time></trkpt><trkpt lat="46.0071171" lon="13.4713439"><ele>96.60000000000001</ele><time>2026-05-03T09:14:54.018Z</time></trkpt><trkpt lat="46.0071722" lon="13.4712251"><ele>98.0</ele><time>2026-05-03T09:14:55.015Z</time></trkpt><trkpt lat="46.0072272" lon="13.4710965"><ele>100.60000000000001</ele><time>2026-05-03T09:14:56.017Z</time></trkpt><trkpt lat="46.007277" lon="13.4709695"><ele>103.2</ele><time>2026-05-03T09:14:57.025Z</time></trkpt><trkpt lat="46.0073264" lon="13.4708433"><ele>105.8</ele><time>2026-05-03T09:14:58.023Z</time></trkpt><trkpt lat="46.007382" lon="13.470724"><ele>108.4</ele><time>2026-05-03T09:14:59.015Z</time></trkpt><trkpt lat="46.0074329" lon="13.4706184"><ele>111.0</ele><time>2026-05-03T09:15:00.018Z</time></trkpt><trkpt lat="46.0074918" lon="13.4705345"><ele>111.0</ele><time>2026-05-03T09:15:01.02Z</time></trkpt><trkpt lat="46.0075601" lon="13.4704869"><ele>111.0</ele><time>2026-05-03T09:15:02.018Z</time></trkpt><trkpt lat="46.0076299" lon="13.4704604"><ele>111.0</ele><time>2026-05-03T09:15:03.025Z</time></trkpt><trkpt lat="46.0077081" lon="13.4704501"><ele>111.0</ele><time>2026-05-03T09:15:04.019Z</time></trkpt><trkpt lat="46.0077932" lon="13.4704462"><ele>111.0</ele><time>2026-05-03T09:15:05.015Z</time></trkpt><trkpt lat="46.0078785" lon="13.4704458"><ele>111.0</ele><time>2026-05-03T09:15:06.018Z</time></trkpt><trkpt lat="46.0079646" lon="13.4704527"><ele>111.0</ele><time>2026-05-03T09:15:07.02Z</time></trkpt><trkpt lat="46.0080501" lon="13.4704675"><ele>111.0</ele><time>2026-05-03T09:15:08.02Z</time></trkpt><trkpt lat="46.0081324" lon="13.4704953"><ele>111.0</ele><time>2026-05-03T09:15:09.022Z</time></trkpt><trkpt lat="46.0082162" lon="13.4705363"><ele>111.0</ele><time>2026-05-03T09:15:10.022Z</time></trkpt><trkpt lat="46.0082939" lon="13.4705907"><ele>111.0</ele><time>2026-05-03T09:15:11.029Z</time></trkpt><trkpt lat="46.0083702" lon="13.4706527"><ele>111.0</ele><time>2026-05-03T09:15:12.023Z</time></trkpt><trkpt lat="46.0084487" lon="13.4707154"><ele>111.6</ele><time>2026-05-03T09:15:13.019Z</time></trkpt><trkpt lat="46.0085293" lon="13.4707828"><ele>112.19999999999999</ele><time>2026-05-03T09:15:14.02Z</time></trkpt><trkpt lat="46.0086171" lon="13.4708573"><ele>112.80000000000001</ele><time>2026-05-03T09:15:15.024Z</time></trkpt><trkpt lat="46.0087089" lon="13.4709353"><ele>113.4</ele><time>2026-05-03T09:15:16.022Z</time></trkpt><trkpt lat="46.0088041" lon="13.4710129"><ele>114.0</ele><time>2026-05-03T09:15:17.018Z</time></trkpt><trkpt lat="46.0088951" lon="13.471092"><ele>114.0</ele><time>2026-05-03T09:15:18.017Z</time></trkpt><trkpt lat="46.008987" lon="13.4711687"><ele>114.0</ele><time>2026-05-03T09:15:19.024Z</time></trkpt><trkpt lat="46.0090789" lon="13.471247"><ele>114.0</ele><time>2026-05-03T09:15:20.03Z</time></trkpt><trkpt lat="46.0091743" lon="13.4713216"><ele>114.0</ele><time>2026-05-03T09:15:21.025Z</time></trkpt><trkpt lat="46.0092689" lon="13.4713896"><ele>114.0</ele><time>2026-05-03T09:15:22.021Z</time></trkpt><trkpt lat="46.0093657" lon="13.4714446"><ele>114.2</ele><time>2026-05-03T09:15:23.02Z</time></trkpt><trkpt lat="46.0094585" lon="13.4715014"><ele>114.4</ele><time>2026-05-03T09:15:24.01Z</time></trkpt><trkpt lat="46.0095577" lon="13.4715634"><ele>114.6</ele><time>2026-05-03T09:15:25.017Z</time></trkpt><trkpt lat="46.0096592" lon="13.4716419"><ele>114.8</ele><time>2026-05-03T09:15:26.024Z</time></trkpt><trkpt lat="46.0097565" lon="13.4717421"><ele>115.0</ele><time>2026-05-03T09:15:27.018Z</time></trkpt><trkpt lat="46.0098556" lon="13.4718555"><ele>115.0</ele><time>2026-05-03T09:15:28.025Z</time></trkpt><trkpt lat="46.0099547" lon="13.4719767"><ele>115.0</ele><time>2026-05-03T09:15:29.02Z</time></trkpt><trkpt lat="46.0100558" lon="13.4720996"><ele>115.0</ele><time>2026-05-03T09:15:30.018Z</time></trkpt><trkpt lat="46.0101504" lon="13.4722226"><ele>115.0</ele><time>2026-05-03T09:15:31.02Z</time></trkpt><trkpt lat="46.0102411" lon="13.4723466"><ele>115.2</ele><time>2026-05-03T09:15:32.019Z</time></trkpt><trkpt lat="46.0103252" lon="13.4724603"><ele>115.4</ele><time>2026-05-03T09:15:33.013Z</time></trkpt><trkpt lat="46.0103952" lon="13.4725723"><ele>115.6</ele><time>2026-05-03T09:15:34.019Z</time></trkpt><trkpt lat="46.0104453" lon="13.4726725"><ele>115.8</ele><time>2026-05-03T09:15:35.018Z</time></trkpt><trkpt lat="46.0104804" lon="13.4727811"><ele>116.0</ele><time>2026-05-03T09:15:36.02Z</time></trkpt><trkpt lat="46.0105122" lon="13.4728966"><ele>115.8</ele><time>2026-05-03T09:15:37.017Z</time></trkpt><trkpt lat="46.0105472" lon="13.4730039"><ele>115.6</ele><time>2026-05-03T09:15:38.016Z</time></trkpt><trkpt lat="46.0105852" lon="13.4730899"><ele>115.4</ele><time>2026-05-03T09:15:39.019Z</time></trkpt><trkpt lat="46.0106767" lon="13.4731668"><ele>115.2</ele><time>2026-05-03T09:15:41.024Z</time></trkpt><trkpt lat="46.0108016" lon="13.4731609"><ele>115.0</ele><time>2026-05-03T09:15:43.02Z</time></trkpt><trkpt lat="46.0108805" lon="13.4731539"><ele>115.0</ele><time>2026-05-03T09:15:44.022Z</time></trkpt><trkpt lat="46.0109626" lon="13.4731592"><ele>115.0</ele><time>2026-05-03T09:15:45.018Z</time></trkpt><trkpt lat="46.0110556" lon="13.4731903"><ele>115.0</ele><time>2026-05-03T09:15:46.016Z</time></trkpt><trkpt lat="46.0111498" lon="13.4732379"><ele>115.0</ele><time>2026-05-03T09:15:47.026Z</time></trkpt><trkpt lat="46.0112458" lon="13.4733364"><ele>115.0</ele><time>2026-05-03T09:15:48.021Z</time></trkpt><trkpt lat="46.0113487" lon="13.4734631"><ele>115.0</ele><time>2026-05-03T09:15:49.014Z</time></trkpt><trkpt lat="46.0114576" lon="13.4736102"><ele>115.0</ele><time>2026-05-03T09:15:50.023Z</time></trkpt><trkpt lat="46.0115764" lon="13.4737681"><ele>115.0</ele><time>2026-05-03T09:15:51.018Z</time></trkpt><trkpt lat="46.0116994" lon="13.4739427"><ele>115.0</ele><time>2026-05-03T09:15:52.019Z</time></trkpt><trkpt lat="46.0118147" lon="13.4740973"><ele>115.0</ele><time>2026-05-03T09:15:53.02Z</time></trkpt><trkpt lat="46.0119216" lon="13.474238"><ele>115.0</ele><time>2026-05-03T09:15:54.015Z</time></trkpt><trkpt lat="46.0120169" lon="13.4743583"><ele>115.0</ele><time>2026-05-03T09:15:55.025Z</time></trkpt><trkpt lat="46.0120956" lon="13.4744672"><ele>115.0</ele><time>2026-05-03T09:15:56.032Z</time></trkpt><trkpt lat="46.012175" lon="13.4745715"><ele>115.0</ele><time>2026-05-03T09:15:57.021Z</time></trkpt><trkpt lat="46.0122294" lon="13.4746922"><ele>115.0</ele><time>2026-05-03T09:15:58.026Z</time></trkpt><trkpt lat="46.0122641" lon="13.4748111"><ele>115.0</ele><time>2026-05-03T09:15:59.021Z</time></trkpt><trkpt lat="46.0122849" lon="13.4749284"><ele>115.0</ele><time>2026-05-03T09:16:00.023Z</time></trkpt><trkpt lat="46.0123062" lon="13.4750366"><ele>115.00000000000001</ele><time>2026-05-03T09:16:01.02Z</time></trkpt><trkpt lat="46.0123412" lon="13.4751335"><ele>115.0</ele><time>2026-05-03T09:16:02.022Z</time></trkpt><trkpt lat="46.0123851" lon="13.4752221"><ele>115.0</ele><time>2026-05-03T09:16:03.017Z</time></trkpt><trkpt lat="46.0124398" lon="13.4753003"><ele>115.0</ele><time>2026-05-03T09:16:04.027Z</time></trkpt><trkpt lat="46.0125013" lon="13.4753641"><ele>115.00000000000001</ele><time>2026-05-03T09:16:05.024Z</time></trkpt><trkpt lat="46.0125681" lon="13.4754114"><ele>115.0</ele><time>2026-05-03T09:16:06.025Z</time></trkpt><trkpt lat="46.0126444" lon="13.4754478"><ele>113.66666666666667</ele><time>2026-05-03T09:16:07.021Z</time></trkpt><trkpt lat="46.0127306" lon="13.4754745"><ele>112.33333333333334</ele><time>2026-05-03T09:16:08.026Z</time></trkpt><trkpt lat="46.012824" lon="13.4755021"><ele>111.0</ele><time>2026-05-03T09:16:09.021Z</time></trkpt><trkpt lat="46.0129134" lon="13.4755346"><ele>109.66666666666666</ele><time>2026-05-03T09:16:10.014Z</time></trkpt><trkpt lat="46.0129928" lon="13.4755676"><ele>108.33333333333333</ele><time>2026-05-03T09:16:11.018Z</time></trkpt><trkpt lat="46.0130717" lon="13.4756102"><ele>107.0</ele><time>2026-05-03T09:16:12.027Z</time></trkpt><trkpt lat="46.0131527" lon="13.4756496"><ele>106.99999999999999</ele><time>2026-05-03T09:16:13.017Z</time></trkpt><trkpt lat="46.0132309" lon="13.4756927"><ele>107.0</ele><time>2026-05-03T09:16:14.015Z</time></trkpt><trkpt lat="46.0133123" lon="13.4757343"><ele>107.0</ele><time>2026-05-03T09:16:15.017Z</time></trkpt><trkpt lat="46.0133972" lon="13.4757731"><ele>107.0</ele><time>2026-05-03T09:16:16.016Z</time></trkpt><trkpt lat="46.0134764" lon="13.475807"><ele>106.99999999999999</ele><time>2026-05-03T09:16:17.018Z</time></trkpt><trkpt lat="46.0135528" lon="13.4758277"><ele>107.0</ele><time>2026-05-03T09:16:18.017Z</time></trkpt><trkpt lat="46.0136211" lon="13.4758424"><ele>106.83333333333333</ele><time>2026-05-03T09:16:19.014Z</time></trkpt><trkpt lat="46.0137147" lon="13.475882"><ele>106.66666666666666</ele><time>2026-05-03T09:16:21.022Z</time></trkpt><trkpt lat="46.0137745" lon="13.4759411"><ele>106.5</ele><time>2026-05-03T09:16:27.026Z</time></trkpt><trkpt lat="46.0138127" lon="13.4760236"><ele>106.33333333333334</ele><time>2026-05-03T09:16:31.021Z</time></trkpt><trkpt lat="46.0138499" lon="13.4761439"><ele>106.16666666666667</ele><time>2026-05-03T09:16:34.024Z</time></trkpt><trkpt lat="46.0138607" lon="13.4762464"><ele>106.0</ele><time>2026-05-03T09:16:36.018Z</time></trkpt><trkpt lat="46.0138565" lon="13.4763615"><ele>105.4</ele><time>2026-05-03T09:16:38.019Z</time></trkpt><trkpt lat="46.013839" lon="13.4764857"><ele>104.8</ele><time>2026-05-03T09:16:40.031Z</time></trkpt><trkpt lat="46.0138342" lon="13.4766166"><ele>104.2</ele><time>2026-05-03T09:16:42.023Z</time></trkpt><trkpt lat="46.0138407" lon="13.4767568"><ele>103.60000000000001</ele><time>2026-05-03T09:16:44.016Z</time></trkpt><trkpt lat="46.013859" lon="13.4768957"><ele>103.0</ele><time>2026-05-03T09:16:46.022Z</time></trkpt><trkpt lat="46.0138836" lon="13.4770192"><ele>103.60000000000001</ele><time>2026-05-03T09:16:48.017Z</time></trkpt><trkpt lat="46.0139065" lon="13.4771239"><ele>104.2</ele><time>2026-05-03T09:16:50.017Z</time></trkpt><trkpt lat="46.0139444" lon="13.4772165"><ele>104.8</ele><time>2026-05-03T09:16:52.027Z</time></trkpt><trkpt lat="46.0140172" lon="13.4772984"><ele>105.4</ele><time>2026-05-03T09:16:54.018Z</time></trkpt><trkpt lat="46.0141287" lon="13.477384"><ele>106.0</ele><time>2026-05-03T09:16:56.024Z</time></trkpt><trkpt lat="46.0142071" lon="13.4774444"><ele>107.4</ele><time>2026-05-03T09:16:57.018Z</time></trkpt><trkpt lat="46.0142828" lon="13.4775132"><ele>108.8</ele><time>2026-05-03T09:16:58.027Z</time></trkpt><trkpt lat="46.0143702" lon="13.4775884"><ele>110.20000000000002</ele><time>2026-05-03T09:16:59.018Z</time></trkpt><trkpt lat="46.0144616" lon="13.4776652"><ele>111.60000000000001</ele><time>2026-05-03T09:17:00.016Z</time></trkpt><trkpt lat="46.014567" lon="13.4777373"><ele>113.0</ele><time>2026-05-03T09:17:01.019Z</time></trkpt><trkpt lat="46.01468" lon="13.4778022"><ele>113.0</ele><time>2026-05-03T09:17:02.019Z</time></trkpt><trkpt lat="46.0148037" lon="13.4778628"><ele>113.0</ele><time>2026-05-03T09:17:03.025Z</time></trkpt><trkpt lat="46.014932" lon="13.477916"><ele>113.0</ele><time>2026-05-03T09:17:04.025Z</time></trkpt><trkpt lat="46.0150563" lon="13.4779638"><ele>113.0</ele><time>2026-05-03T09:17:05.019Z</time></trkpt><trkpt lat="46.0151839" lon="13.4780208"><ele>112.5</ele><time>2026-05-03T09:17:06.027Z</time></trkpt><trkpt lat="46.0153136" lon="13.4780872"><ele>112.0</ele><time>2026-05-03T09:17:07.019Z</time></trkpt><trkpt lat="46.0154418" lon="13.4781731"><ele>111.5</ele><time>2026-05-03T09:17:08.026Z</time></trkpt><trkpt lat="46.0155553" lon="13.4782854"><ele>111.0</ele><time>2026-05-03T09:17:09.015Z</time></trkpt><trkpt lat="46.0156549" lon="13.4784118"><ele>111.0</ele><time>2026-05-03T09:17:10.017Z</time></trkpt><trkpt lat="46.0157615" lon="13.4785397"><ele>111.0</ele><time>2026-05-03T09:17:11.016Z</time></trkpt><trkpt lat="46.0158566" lon="13.478664"><ele>111.0</ele><time>2026-05-03T09:17:12.019Z</time></trkpt><trkpt lat="46.0159516" lon="13.4787915"><ele>111.0</ele><time>2026-05-03T09:17:13.015Z</time></trkpt><trkpt lat="46.0160293" lon="13.4789033"><ele>112.25</ele><time>2026-05-03T09:17:14.025Z</time></trkpt><trkpt lat="46.0161057" lon="13.479033"><ele>113.5</ele><time>2026-05-03T09:17:15.021Z</time></trkpt><trkpt lat="46.0161709" lon="13.4791781"><ele>114.75</ele><time>2026-05-03T09:17:16.021Z</time></trkpt><trkpt lat="46.0162324" lon="13.4793329"><ele>116.0</ele><time>2026-05-03T09:17:17.015Z</time></trkpt><trkpt lat="46.0162953" lon="13.4795036"><ele>115.25</ele><time>2026-05-03T09:17:18.023Z</time></trkpt><trkpt lat="46.0163556" lon="13.4796764"><ele>114.5</ele><time>2026-05-03T09:17:19.019Z</time></trkpt><trkpt lat="46.0164195" lon="13.4798446"><ele>113.75</ele><time>2026-05-03T09:17:20.015Z</time></trkpt><trkpt lat="46.0164807" lon="13.4800054"><ele>113.0</ele><time>2026-05-03T09:17:21.015Z</time></trkpt><trkpt lat="46.0165436" lon="13.4801591"><ele>113.0</ele><time>2026-05-03T09:17:22.016Z</time></trkpt><trkpt lat="46.0166057" lon="13.4803058"><ele>113.0</ele><time>2026-05-03T09:17:23.01Z</time></trkpt><trkpt lat="46.0166714" lon="13.4804502"><ele>113.0</ele><time>2026-05-03T09:17:24.02Z</time></trkpt><trkpt lat="46.0167281" lon="13.4805982"><ele>113.0</ele><time>2026-05-03T09:17:25.02Z</time></trkpt><trkpt lat="46.0167698" lon="13.480747"><ele>115.60000000000001</ele><time>2026-05-03T09:17:26.025Z</time></trkpt><trkpt lat="46.0167977" lon="13.48088"><ele>118.20000000000002</ele><time>2026-05-03T09:17:27.021Z</time></trkpt><trkpt lat="46.0168168" lon="13.480992"><ele>120.8</ele><time>2026-05-03T09:17:28.016Z</time></trkpt><trkpt lat="46.0168311" lon="13.4810859"><ele>123.4</ele><time>2026-05-03T09:17:29.023Z</time></trkpt><trkpt lat="46.016821" lon="13.4812013"><ele>126.0</ele><time>2026-05-03T09:17:31.013Z</time></trkpt><trkpt lat="46.0167437" lon="13.4813598"><ele>127.19999999999999</ele><time>2026-05-03T09:17:33.015Z</time></trkpt><trkpt lat="46.0166896" lon="13.4814692"><ele>128.39999999999998</ele><time>2026-05-03T09:17:34.021Z</time></trkpt><trkpt lat="46.0166205" lon="13.4815859"><ele>129.6</ele><time>2026-05-03T09:17:35.02Z</time></trkpt><trkpt lat="46.0165522" lon="13.4816946"><ele>130.79999999999998</ele><time>2026-05-03T09:17:36.022Z</time></trkpt><trkpt lat="46.0164868" lon="13.4817881"><ele>132.0</ele><time>2026-05-03T09:17:37.027Z</time></trkpt><trkpt lat="46.016443" lon="13.4818551"><ele>132.0</ele><time>2026-05-03T09:17:38.027Z</time></trkpt><trkpt lat="46.016456" lon="13.481963"><ele>132.0</ele><time>2026-05-03T09:17:41.017Z</time></trkpt><trkpt lat="46.0165415" lon="13.4819759"><ele>132.0</ele><time>2026-05-03T09:17:43.017Z</time></trkpt><trkpt lat="46.0166705" lon="13.4820135"><ele>132.0</ele><time>2026-05-03T09:17:45.016Z</time></trkpt><trkpt lat="46.0167467" lon="13.4820483"><ele>132.0</ele><time>2026-05-03T09:17:46.018Z</time></trkpt><trkpt lat="46.0168257" lon="13.4820941"><ele>131.83333333333334</ele><time>2026-05-03T09:17:47.017Z</time></trkpt><trkpt lat="46.0168976" lon="13.4821399"><ele>131.66666666666666</ele><time>2026-05-03T09:17:48.024Z</time></trkpt><trkpt lat="46.0169692" lon="13.4821881"><ele>131.5</ele><time>2026-05-03T09:17:49.017Z</time></trkpt><trkpt lat="46.0170358" lon="13.4822528"><ele>131.33333333333331</ele><time>2026-05-03T09:17:50.021Z</time></trkpt><trkpt lat="46.0170993" lon="13.4823255"><ele>131.16666666666666</ele><time>2026-05-03T09:17:51.024Z</time></trkpt><trkpt lat="46.0171563" lon="13.482416"><ele>131.0</ele><time>2026-05-03T09:17:52.018Z</time></trkpt><trkpt lat="46.0172083" lon="13.4825239"><ele>131.0</ele><time>2026-05-03T09:17:53.012Z</time></trkpt><trkpt lat="46.0172567" lon="13.4826494"><ele>131.0</ele><time>2026-05-03T09:17:54.024Z</time></trkpt><trkpt lat="46.0172968" lon="13.482787"><ele>131.0</ele><time>2026-05-03T09:17:55.012Z</time></trkpt><trkpt lat="46.0173295" lon="13.4829401"><ele>131.0</ele><time>2026-05-03T09:17:56.016Z</time></trkpt><trkpt lat="46.0173555" lon="13.4831074"><ele>131.0</ele><time>2026-05-03T09:17:57.02Z</time></trkpt><trkpt lat="46.0173819" lon="13.4832838"><ele>128.25</ele><time>2026-05-03T09:17:58.019Z</time></trkpt><trkpt lat="46.0174021" lon="13.4834447"><ele>125.5</ele><time>2026-05-03T09:17:59.021Z</time></trkpt><trkpt lat="46.0174208" lon="13.4836"><ele>122.75</ele><time>2026-05-03T09:18:00.022Z</time></trkpt><trkpt lat="46.0174376" lon="13.483762"><ele>120.0</ele><time>2026-05-03T09:18:01.014Z</time></trkpt><trkpt lat="46.0174429" lon="13.4839318"><ele>119.2</ele><time>2026-05-03T09:18:02.011Z</time></trkpt><trkpt lat="46.0174512" lon="13.4840872"><ele>118.4</ele><time>2026-05-03T09:18:03.02Z</time></trkpt><trkpt lat="46.0174571" lon="13.4842306"><ele>117.6</ele><time>2026-05-03T09:18:04.02Z</time></trkpt><trkpt lat="46.0174654" lon="13.4843696"><ele>116.8</ele><time>2026-05-03T09:18:05.011Z</time></trkpt><trkpt lat="46.0174864" lon="13.4845113"><ele>116.0</ele><time>2026-05-03T09:18:06.011Z</time></trkpt><trkpt lat="46.0175187" lon="13.4846629"><ele>120.25</ele><time>2026-05-03T09:18:07.012Z</time></trkpt><trkpt lat="46.0175632" lon="13.4848286"><ele>124.5</ele><time>2026-05-03T09:18:08.021Z</time></trkpt><trkpt lat="46.0176096" lon="13.4850151"><ele>128.75</ele><time>2026-05-03T09:18:09.018Z</time></trkpt><trkpt lat="46.0176578" lon="13.4852091"><ele>133.0</ele><time>2026-05-03T09:18:10.014Z</time></trkpt><trkpt lat="46.0176993" lon="13.4854084"><ele>132.5</ele><time>2026-05-03T09:18:11.017Z</time></trkpt><trkpt lat="46.0177324" lon="13.4856127"><ele>132.0</ele><time>2026-05-03T09:18:12.014Z</time></trkpt><trkpt lat="46.0177443" lon="13.4858186"><ele>131.5</ele><time>2026-05-03T09:18:13.015Z</time></trkpt><trkpt lat="46.0177498" lon="13.4860136"><ele>131.0</ele><time>2026-05-03T09:18:14.012Z</time></trkpt><trkpt lat="46.0177567" lon="13.4861835"><ele>130.83333333333331</ele><time>2026-05-03T09:18:15.015Z</time></trkpt><trkpt lat="46.0177616" lon="13.4863267"><ele>130.66666666666666</ele><time>2026-05-03T09:18:16.02Z</time></trkpt><trkpt lat="46.0177843" lon="13.4864384"><ele>130.5</ele><time>2026-05-03T09:18:17.018Z</time></trkpt><trkpt lat="46.0178215" lon="13.4865312"><ele>130.33333333333334</ele><time>2026-05-03T09:18:18.018Z</time></trkpt><trkpt lat="46.0178799" lon="13.4866187"><ele>130.16666666666669</ele><time>2026-05-03T09:18:19.02Z</time></trkpt><trkpt lat="46.0179498" lon="13.4867151"><ele>130.0</ele><time>2026-05-03T09:18:20.013Z</time></trkpt><trkpt lat="46.0180329" lon="13.4868171"><ele>130.0</ele><time>2026-05-03T09:18:21.027Z</time></trkpt><trkpt lat="46.0181211" lon="13.4869212"><ele>130.0</ele><time>2026-05-03T09:18:22.015Z</time></trkpt><trkpt lat="46.0182186" lon="13.487036"><ele>130.0</ele><time>2026-05-03T09:18:23.016Z</time></trkpt><trkpt lat="46.0183273" lon="13.4871626"><ele>130.0</ele><time>2026-05-03T09:18:24.016Z</time></trkpt><trkpt lat="46.0184415" lon="13.487297"><ele>130.5</ele><time>2026-05-03T09:18:25.015Z</time></trkpt><trkpt lat="46.0185641" lon="13.4874372"><ele>131.0</ele><time>2026-05-03T09:18:26.026Z</time></trkpt><trkpt lat="46.0186746" lon="13.4875615"><ele>131.5</ele><time>2026-05-03T09:18:27.012Z</time></trkpt><trkpt lat="46.0187805" lon="13.4876843"><ele>132.0</ele><time>2026-05-03T09:18:28.021Z</time></trkpt><trkpt lat="46.0188725" lon="13.4877824"><ele>132.0</ele><time>2026-05-03T09:18:29.019Z</time></trkpt><trkpt lat="46.0189522" lon="13.487876"><ele>132.0</ele><time>2026-05-03T09:18:30.022Z</time></trkpt><trkpt lat="46.0190245" lon="13.4879533"><ele>132.0</ele><time>2026-05-03T09:18:31.017Z</time></trkpt><trkpt lat="46.0190983" lon="13.4880233"><ele>132.0</ele><time>2026-05-03T09:18:32.027Z</time></trkpt><trkpt lat="46.0191939" lon="13.4880862"><ele>132.0</ele><time>2026-05-03T09:18:33.022Z</time></trkpt><trkpt lat="46.0193065" lon="13.4881411"><ele>131.5</ele><time>2026-05-03T09:18:34.019Z</time></trkpt><trkpt lat="46.0194257" lon="13.4881997"><ele>131.0</ele><time>2026-05-03T09:18:35.018Z</time></trkpt><trkpt lat="46.0195413" lon="13.4882615"><ele>130.5</ele><time>2026-05-03T09:18:36.018Z</time></trkpt><trkpt lat="46.0196485" lon="13.4883384"><ele>130.0</ele><time>2026-05-03T09:18:37.017Z</time></trkpt><trkpt lat="46.0197525" lon="13.4884263"><ele>130.0</ele><time>2026-05-03T09:18:38.016Z</time></trkpt><trkpt lat="46.0198652" lon="13.4885104"><ele>130.0</ele><time>2026-05-03T09:18:39.013Z</time></trkpt><trkpt lat="46.0199751" lon="13.4885982"><ele>130.0</ele><time>2026-05-03T09:18:40.019Z</time></trkpt><trkpt lat="46.0200801" lon="13.4886807"><ele>130.0</ele><time>2026-05-03T09:18:41.019Z</time></trkpt><trkpt lat="46.0201779" lon="13.4887607"><ele>127.6</ele><time>2026-05-03T09:18:42.013Z</time></trkpt><trkpt lat="46.0202741" lon="13.4888236"><ele>125.2</ele><time>2026-05-03T09:18:43.016Z</time></trkpt><trkpt lat="46.0203783" lon="13.4888722"><ele>122.80000000000001</ele><time>2026-05-03T09:18:44.025Z</time></trkpt><trkpt lat="46.0204905" lon="13.488913"><ele>120.4</ele><time>2026-05-03T09:18:45.022Z</time></trkpt><trkpt lat="46.0206017" lon="13.4889527"><ele>118.0</ele><time>2026-05-03T09:18:46.026Z</time></trkpt><trkpt lat="46.0207028" lon="13.4889964"><ele>118.00000000000001</ele><time>2026-05-03T09:18:47.019Z</time></trkpt><trkpt lat="46.0207973" lon="13.4890442"><ele>118.0</ele><time>2026-05-03T09:18:48.025Z</time></trkpt><trkpt lat="46.0208755" lon="13.4890857"><ele>118.0</ele><time>2026-05-03T09:18:49.018Z</time></trkpt><trkpt lat="46.0209336" lon="13.4891227"><ele>118.0</ele><time>2026-05-03T09:18:50.024Z</time></trkpt><trkpt lat="46.0209984" lon="13.4891267"><ele>118.00000000000001</ele><time>2026-05-03T09:18:52.015Z</time></trkpt><trkpt lat="46.0209646" lon="13.4890356"><ele>118.0</ele><time>2026-05-03T09:18:55.014Z</time></trkpt><trkpt lat="46.0209118" lon="13.4889587"><ele>118.00000000000001</ele><time>2026-05-03T09:18:57.023Z</time></trkpt><trkpt lat="46.0208605" lon="13.4888646"><ele>118.0</ele><time>2026-05-03T09:18:59.015Z</time></trkpt><trkpt lat="46.0208261" lon="13.4887298"><ele>118.0</ele><time>2026-05-03T09:19:01.017Z</time></trkpt><trkpt lat="46.0207785" lon="13.4885711"><ele>118.0</ele><time>2026-05-03T09:19:03.028Z</time></trkpt><trkpt lat="46.0207508" lon="13.4884889"><ele>118.00000000000001</ele><time>2026-05-03T09:19:04.017Z</time></trkpt><trkpt lat="46.0207353" lon="13.4883983"><ele>118.0</ele><time>2026-05-03T09:19:05.021Z</time></trkpt><trkpt lat="46.0207414" lon="13.4883058"><ele>118.50000000000001</ele><time>2026-05-03T09:19:06.02Z</time></trkpt><trkpt lat="46.020759" lon="13.4882043"><ele>119.0</ele><time>2026-05-03T09:19:07.024Z</time></trkpt><trkpt lat="46.0207796" lon="13.4880824"><ele>119.5</ele><time>2026-05-03T09:19:08.028Z</time></trkpt><trkpt lat="46.0207934" lon="13.4879611"><ele>120.0</ele><time>2026-05-03T09:19:09.025Z</time></trkpt><trkpt lat="46.0207941" lon="13.4878417"><ele>120.50000000000001</ele><time>2026-05-03T09:19:10.03Z</time></trkpt><trkpt lat="46.0207713" lon="13.4877272"><ele>121.0</ele><time>2026-05-03T09:19:11.013Z</time></trkpt><trkpt lat="46.0207165" lon="13.4876184"><ele>121.0</ele><time>2026-05-03T09:19:12.012Z</time></trkpt><trkpt lat="46.0206511" lon="13.4875016"><ele>121.0</ele><time>2026-05-03T09:19:13.016Z</time></trkpt><trkpt lat="46.0205913" lon="13.4873794"><ele>121.0</ele><time>2026-05-03T09:19:14.018Z</time></trkpt><trkpt lat="46.020562" lon="13.4872506"><ele>121.0</ele><time>2026-05-03T09:19:15.017Z</time></trkpt><trkpt lat="46.0205594" lon="13.4871115"><ele>121.0</ele><time>2026-05-03T09:19:16.01Z</time></trkpt><trkpt lat="46.0205397" lon="13.4869767"><ele>119.4</ele><time>2026-05-03T09:19:17.016Z</time></trkpt><trkpt lat="46.0205181" lon="13.4868391"><ele>117.8</ele><time>2026-05-03T09:19:18.023Z</time></trkpt><trkpt lat="46.0205054" lon="13.4866959"><ele>116.20000000000002</ele><time>2026-05-03T09:19:19.016Z</time></trkpt><trkpt lat="46.0205114" lon="13.4865472"><ele>114.60000000000001</ele><time>2026-05-03T09:19:20.026Z</time></trkpt><trkpt lat="46.0205405" lon="13.486397"><ele>113.0</ele><time>2026-05-03T09:19:21.022Z</time></trkpt><trkpt lat="46.0205783" lon="13.4862511"><ele>110.2</ele><time>2026-05-03T09:19:22.016Z</time></trkpt><trkpt lat="46.0206091" lon="13.4861088"><ele>107.4</ele><time>2026-05-03T09:19:23.015Z</time></trkpt><trkpt lat="46.0206143" lon="13.4859727"><ele>104.60000000000001</ele><time>2026-05-03T09:19:24.031Z</time></trkpt><trkpt lat="46.0206112" lon="13.4858034"><ele>101.80000000000001</ele><time>2026-05-03T09:19:25.009Z</time></trkpt><trkpt lat="46.0205899" lon="13.4856198"><ele>99.0</ele><time>2026-05-03T09:19:26.014Z</time></trkpt><trkpt lat="46.0205622" lon="13.4854336"><ele>97.75</ele><time>2026-05-03T09:19:27.024Z</time></trkpt><trkpt lat="46.0205267" lon="13.4852415"><ele>96.5</ele><time>2026-05-03T09:19:28.026Z</time></trkpt><trkpt lat="46.0204933" lon="13.4850484"><ele>95.25</ele><time>2026-05-03T09:19:29.015Z</time></trkpt><trkpt lat="46.0204641" lon="13.484869"><ele>94.0</ele><time>2026-05-03T09:19:30.011Z</time></trkpt><trkpt lat="46.020434" lon="13.4847016"><ele>93.6</ele><time>2026-05-03T09:19:31.016Z</time></trkpt><trkpt lat="46.0203945" lon="13.48456"><ele>93.2</ele><time>2026-05-03T09:19:32.017Z</time></trkpt><trkpt lat="46.020357" lon="13.4844418"><ele>92.8</ele><time>2026-05-03T09:19:33.016Z</time></trkpt><trkpt lat="46.0203188" lon="13.4843514"><ele>92.39999999999999</ele><time>2026-05-03T09:19:34.013Z</time></trkpt><trkpt lat="46.0203521" lon="13.4842683"><ele>92.0</ele><time>2026-05-03T09:19:37.016Z</time></trkpt><trkpt lat="46.0204247" lon="13.4844055"><ele>92.0</ele><time>2026-05-03T09:19:39.023Z</time></trkpt><trkpt lat="46.0204779" lon="13.4844952"><ele>92.0</ele><time>2026-05-03T09:19:40.014Z</time></trkpt><trkpt lat="46.0205398" lon="13.4845855"><ele>92.0</ele><time>2026-05-03T09:19:41.009Z</time></trkpt><trkpt lat="46.0206118" lon="13.4846287"><ele>92.0</ele><time>2026-05-03T09:19:42.009Z</time></trkpt><trkpt lat="46.0206845" lon="13.4846064"><ele>92.0</ele><time>2026-05-03T09:19:43.014Z</time></trkpt><trkpt lat="46.0207521" lon="13.4845348"><ele>92.0</ele><time>2026-05-03T09:19:44.019Z</time></trkpt><trkpt lat="46.0208217" lon="13.4844424"><ele>92.8</ele><time>2026-05-03T09:19:45.024Z</time></trkpt><trkpt lat="46.0208926" lon="13.4843533"><ele>93.6</ele><time>2026-05-03T09:19:46.011Z</time></trkpt><trkpt lat="46.0209653" lon="13.4842824"><ele>94.39999999999999</ele><time>2026-05-03T09:19:47.018Z</time></trkpt><trkpt lat="46.0210472" lon="13.4842335"><ele>95.19999999999999</ele><time>2026-05-03T09:19:48.016Z</time></trkpt><trkpt lat="46.0211399" lon="13.484222"><ele>96.0</ele><time>2026-05-03T09:19:49.019Z</time></trkpt><trkpt lat="46.0212294" lon="13.4842615"><ele>96.0</ele><time>2026-05-03T09:19:50.024Z</time></trkpt><trkpt lat="46.0213121" lon="13.4843405"><ele>96.0</ele><time>2026-05-03T09:19:51.014Z</time></trkpt><trkpt lat="46.0213834" lon="13.4844365"><ele>96.0</ele><time>2026-05-03T09:19:52.025Z</time></trkpt><trkpt lat="46.0214452" lon="13.4845455"><ele>96.0</ele><time>2026-05-03T09:19:53.015Z</time></trkpt><trkpt lat="46.0214947" lon="13.484681"><ele>96.0</ele><time>2026-05-03T09:19:54.018Z</time></trkpt><trkpt lat="46.0215404" lon="13.4848243"><ele>96.75</ele><time>2026-05-03T09:19:55.012Z</time></trkpt><trkpt lat="46.0215921" lon="13.4849619"><ele>97.5</ele><time>2026-05-03T09:19:56.015Z</time></trkpt><trkpt lat="46.0216731" lon="13.4850911"><ele>98.25</ele><time>2026-05-03T09:19:57.018Z</time></trkpt><trkpt lat="46.0217784" lon="13.4852126"><ele>99.0</ele><time>2026-05-03T09:19:58.026Z</time></trkpt><trkpt lat="46.0218973" lon="13.4853272"><ele>101.0</ele><time>2026-05-03T09:19:59.026Z</time></trkpt><trkpt lat="46.0220141" lon="13.4854439"><ele>103.0</ele><time>2026-05-03T09:20:00.014Z</time></trkpt><trkpt lat="46.0221289" lon="13.4855705"><ele>105.0</ele><time>2026-05-03T09:20:01.017Z</time></trkpt><trkpt lat="46.0222398" lon="13.4856848"><ele>107.0</ele><time>2026-05-03T09:20:02.024Z</time></trkpt><trkpt lat="46.0223487" lon="13.4857811"><ele>107.0</ele><time>2026-05-03T09:20:03.022Z</time></trkpt><trkpt lat="46.0224648" lon="13.4858424"><ele>107.0</ele><time>2026-05-03T09:20:04.01Z</time></trkpt><trkpt lat="46.0225919" lon="13.4858697"><ele>107.0</ele><time>2026-05-03T09:20:05.017Z</time></trkpt><trkpt lat="46.0227178" lon="13.4858923"><ele>107.0</ele><time>2026-05-03T09:20:06.018Z</time></trkpt><trkpt lat="46.0228359" lon="13.485926"><ele>109.5</ele><time>2026-05-03T09:20:07.017Z</time></trkpt><trkpt lat="46.0229441" lon="13.4859856"><ele>112.0</ele><time>2026-05-03T09:20:08.022Z</time></trkpt><trkpt lat="46.0230509" lon="13.4860704"><ele>114.5</ele><time>2026-05-03T09:20:09.013Z</time></trkpt><trkpt lat="46.0231359" lon="13.4861739"><ele>117.0</ele><time>2026-05-03T09:20:10.017Z</time></trkpt><trkpt lat="46.0232037" lon="13.4862948"><ele>117.0</ele><time>2026-05-03T09:20:11.013Z</time></trkpt><trkpt lat="46.0232693" lon="13.4864037"><ele>116.99999999999999</ele><time>2026-05-03T09:20:12.022Z</time></trkpt><trkpt lat="46.0233448" lon="13.4864933"><ele>116.99999999999999</ele><time>2026-05-03T09:20:13.016Z</time></trkpt><trkpt lat="46.0234332" lon="13.4865546"><ele>117.0</ele><time>2026-05-03T09:20:14.028Z</time></trkpt><trkpt lat="46.023521" lon="13.4865874"><ele>117.0</ele><time>2026-05-03T09:20:15.018Z</time></trkpt><trkpt lat="46.0236051" lon="13.4866166"><ele>119.8</ele><time>2026-05-03T09:20:16.023Z</time></trkpt><trkpt lat="46.0236854" lon="13.4866601"><ele>122.6</ele><time>2026-05-03T09:20:17.017Z</time></trkpt><trkpt lat="46.0237744" lon="13.4867157"><ele>125.39999999999999</ele><time>2026-05-03T09:20:18.011Z</time></trkpt><trkpt lat="46.0238682" lon="13.4867757"><ele>128.2</ele><time>2026-05-03T09:20:19.025Z</time></trkpt><trkpt lat="46.0239619" lon="13.4868416"><ele>131.0</ele><time>2026-05-03T09:20:20.013Z</time></trkpt><trkpt lat="46.0240473" lon="13.4869065"><ele>131.0</ele><time>2026-05-03T09:20:21.01Z</time></trkpt><trkpt lat="46.0241355" lon="13.4869739"><ele>131.0</ele><time>2026-05-03T09:20:22.01Z</time></trkpt><trkpt lat="46.0242235" lon="13.4870398"><ele>131.0</ele><time>2026-05-03T09:20:23.034Z</time></trkpt><trkpt lat="46.024314" lon="13.487105"><ele>131.0</ele><time>2026-05-03T09:20:24.015Z</time></trkpt><trkpt lat="46.024402" lon="13.4871775"><ele>131.0</ele><time>2026-05-03T09:20:25.013Z</time></trkpt><trkpt lat="46.024485" lon="13.4872707"><ele>129.75</ele><time>2026-05-03T09:20:26.016Z</time></trkpt><trkpt lat="46.0245601" lon="13.4873978"><ele>128.5</ele><time>2026-05-03T09:20:27.012Z</time></trkpt><trkpt lat="46.0246431" lon="13.4875356"><ele>127.25</ele><time>2026-05-03T09:20:28.014Z</time></trkpt><trkpt lat="46.0247392" lon="13.4876493"><ele>126.0</ele><time>2026-05-03T09:20:29.011Z</time></trkpt><trkpt lat="46.0248518" lon="13.4877501"><ele>126.0</ele><time>2026-05-03T09:20:30.009Z</time></trkpt><trkpt lat="46.024979" lon="13.4878322"><ele>126.0</ele><time>2026-05-03T09:20:31.014Z</time></trkpt><trkpt lat="46.0251016" lon="13.4879177"><ele>126.0</ele><time>2026-05-03T09:20:32.017Z</time></trkpt><trkpt lat="46.0252057" lon="13.4880222"><ele>126.0</ele><time>2026-05-03T09:20:33.014Z</time></trkpt><trkpt lat="46.0252779" lon="13.4881518"><ele>130.0</ele><time>2026-05-03T09:20:34.011Z</time></trkpt><trkpt lat="46.0253383" lon="13.4882731"><ele>134.0</ele><time>2026-05-03T09:20:35.01Z</time></trkpt><trkpt lat="46.0254108" lon="13.4883728"><ele>138.0</ele><time>2026-05-03T09:20:36.008Z</time></trkpt><trkpt lat="46.025489" lon="13.4884381"><ele>142.0</ele><time>2026-05-03T09:20:37.011Z</time></trkpt><trkpt lat="46.0255844" lon="13.4884729"><ele>146.0</ele><time>2026-05-03T09:20:38.018Z</time></trkpt><trkpt lat="46.025689" lon="13.4884793"><ele>146.0</ele><time>2026-05-03T09:20:39.007Z</time></trkpt><trkpt lat="46.0258026" lon="13.4884749"><ele>146.0</ele><time>2026-05-03T09:20:40.015Z</time></trkpt><trkpt lat="46.0259184" lon="13.4884609"><ele>146.0</ele><time>2026-05-03T09:20:41.01Z</time></trkpt><trkpt lat="46.0260176" lon="13.4884498"><ele>146.0</ele><time>2026-05-03T09:20:42.014Z</time></trkpt><trkpt lat="46.0261009" lon="13.4884512"><ele>146.0</ele><time>2026-05-03T09:20:43.012Z</time></trkpt><trkpt lat="46.0261633" lon="13.4884818"><ele>149.0</ele><time>2026-05-03T09:20:44.023Z</time></trkpt><trkpt lat="46.0262303" lon="13.4886316"><ele>152.0</ele><time>2026-05-03T09:20:46.007Z</time></trkpt><trkpt lat="46.0262713" lon="13.4887315"><ele>155.0</ele><time>2026-05-03T09:20:47.019Z</time></trkpt><trkpt lat="46.0263244" lon="13.4888496"><ele>158.0</ele><time>2026-05-03T09:20:48.021Z</time></trkpt><trkpt lat="46.0263757" lon="13.4889852"><ele>161.0</ele><time>2026-05-03T09:20:49.021Z</time></trkpt><trkpt lat="46.0264171" lon="13.4891359"><ele>161.4</ele><time>2026-05-03T09:20:50.018Z</time></trkpt><trkpt lat="46.0264331" lon="13.4892809"><ele>161.8</ele><time>2026-05-03T09:20:51.023Z</time></trkpt><trkpt lat="46.0264457" lon="13.4894179"><ele>162.20000000000002</ele><time>2026-05-03T09:20:52.01Z</time></trkpt><trkpt lat="46.0264856" lon="13.4895376"><ele>162.60000000000002</ele><time>2026-05-03T09:20:53.017Z</time></trkpt><trkpt lat="46.0265554" lon="13.4896333"><ele>163.0</ele><time>2026-05-03T09:20:54.013Z</time></trkpt><trkpt lat="46.0266527" lon="13.4897318"><ele>170.33333333333334</ele><time>2026-05-03T09:20:55.015Z</time></trkpt><trkpt lat="46.0267519" lon="13.4898526"><ele>177.66666666666666</ele><time>2026-05-03T09:20:56.02Z</time></trkpt><trkpt lat="46.026858" lon="13.4900067"><ele>185.0</ele><time>2026-05-03T09:20:57.027Z</time></trkpt><trkpt lat="46.0269842" lon="13.4901931"><ele>185.0</ele><time>2026-05-03T09:20:58.015Z</time></trkpt><trkpt lat="46.0271059" lon="13.4903445"><ele>185.0</ele><time>2026-05-03T09:20:59.025Z</time></trkpt><trkpt lat="46.0272209" lon="13.4904822"><ele>185.0</ele><time>2026-05-03T09:21:00.008Z</time></trkpt><trkpt lat="46.0273132" lon="13.4906051"><ele>185.0</ele><time>2026-05-03T09:21:01.018Z</time></trkpt><trkpt lat="46.0274019" lon="13.4907283"><ele>188.25</ele><time>2026-05-03T09:21:02.016Z</time></trkpt><trkpt lat="46.0274825" lon="13.4908745"><ele>191.5</ele><time>2026-05-03T09:21:03.016Z</time></trkpt><trkpt lat="46.0275868" lon="13.4910063"><ele>194.75</ele><time>2026-05-03T09:21:04.009Z</time></trkpt><trkpt lat="46.0276994" lon="13.4911356"><ele>198.0</ele><time>2026-05-03T09:21:05.022Z</time></trkpt><trkpt lat="46.0277897" lon="13.4912715"><ele>198.0</ele><time>2026-05-03T09:21:06.014Z</time></trkpt><trkpt lat="46.0278617" lon="13.4914283"><ele>198.0</ele><time>2026-05-03T09:21:07.017Z</time></trkpt><trkpt lat="46.0279388" lon="13.4915619"><ele>198.0</ele><time>2026-05-03T09:21:08.024Z</time></trkpt><trkpt lat="46.0280323" lon="13.4916714"><ele>198.0</ele><time>2026-05-03T09:21:09.014Z</time></trkpt><trkpt lat="46.0281308" lon="13.4917588"><ele>198.0</ele><time>2026-05-03T09:21:10.016Z</time></trkpt><trkpt lat="46.0282268" lon="13.4918344"><ele>198.0</ele><time>2026-05-03T09:21:11.011Z</time></trkpt><trkpt lat="46.0283063" lon="13.4918984"><ele>198.0</ele><time>2026-05-03T09:21:12.016Z</time></trkpt><trkpt lat="46.0283757" lon="13.4919564"><ele>198.0</ele><time>2026-05-03T09:21:13.022Z</time></trkpt><trkpt lat="46.0284436" lon="13.4920278"><ele>198.0</ele><time>2026-05-03T09:21:14.021Z</time></trkpt><trkpt lat="46.0285262" lon="13.4921145"><ele>204.25</ele><time>2026-05-03T09:21:15.008Z</time></trkpt><trkpt lat="46.0286183" lon="13.4922115"><ele>210.5</ele><time>2026-05-03T09:21:16.014Z</time></trkpt><trkpt lat="46.0287265" lon="13.4923155"><ele>216.75</ele><time>2026-05-03T09:21:17.018Z</time></trkpt><trkpt lat="46.0288449" lon="13.4924073"><ele>223.0</ele><time>2026-05-03T09:21:18.025Z</time></trkpt><trkpt lat="46.028957" lon="13.4924838"><ele>223.0</ele><time>2026-05-03T09:21:19.018Z</time></trkpt><trkpt lat="46.0290672" lon="13.4925499"><ele>223.0</ele><time>2026-05-03T09:21:20.016Z</time></trkpt><trkpt lat="46.0291679" lon="13.4926006"><ele>223.0</ele><time>2026-05-03T09:21:21.013Z</time></trkpt><trkpt lat="46.0292605" lon="13.4926533"><ele>223.0</ele><time>2026-05-03T09:21:22.016Z</time></trkpt><trkpt lat="46.02934" lon="13.4927223"><ele>223.0</ele><time>2026-05-03T09:21:23.013Z</time></trkpt><trkpt lat="46.0294094" lon="13.492811"><ele>225.8</ele><time>2026-05-03T09:21:24.019Z</time></trkpt><trkpt lat="46.0294489" lon="13.4929248"><ele>228.60000000000002</ele><time>2026-05-03T09:21:25.019Z</time></trkpt><trkpt lat="46.0294549" lon="13.4930352"><ele>231.39999999999998</ele><time>2026-05-03T09:21:26.019Z</time></trkpt><trkpt lat="46.0294132" lon="13.4931328"><ele>234.2</ele><time>2026-05-03T09:21:27.02Z</time></trkpt><trkpt lat="46.0293269" lon="13.4932326"><ele>237.0</ele><time>2026-05-03T09:21:28.008Z</time></trkpt><trkpt lat="46.0292039" lon="13.4933415"><ele>236.0</ele><time>2026-05-03T09:21:29.017Z</time></trkpt><trkpt lat="46.0290782" lon="13.4934673"><ele>235.0</ele><time>2026-05-03T09:21:30.014Z</time></trkpt><trkpt lat="46.0289625" lon="13.4935986"><ele>234.0</ele><time>2026-05-03T09:21:31.014Z</time></trkpt><trkpt lat="46.0288675" lon="13.4937352"><ele>233.0</ele><time>2026-05-03T09:21:32.021Z</time></trkpt><trkpt lat="46.0288168" lon="13.4938944"><ele>233.0</ele><time>2026-05-03T09:21:33.023Z</time></trkpt><trkpt lat="46.0288003" lon="13.4940696"><ele>233.0</ele><time>2026-05-03T09:21:34.027Z</time></trkpt><trkpt lat="46.0287956" lon="13.4942423"><ele>233.0</ele><time>2026-05-03T09:21:35.012Z</time></trkpt><trkpt lat="46.0287789" lon="13.4944058"><ele>233.0</ele><time>2026-05-03T09:21:36.015Z</time></trkpt><trkpt lat="46.0287403" lon="13.4945614"><ele>234.2</ele><time>2026-05-03T09:21:37.019Z</time></trkpt><trkpt lat="46.028692" lon="13.4946985"><ele>235.4</ele><time>2026-05-03T09:21:38.014Z</time></trkpt><trkpt lat="46.0286374" lon="13.4948306"><ele>236.59999999999997</ele><time>2026-05-03T09:21:39.02Z</time></trkpt><trkpt lat="46.0285907" lon="13.4949586"><ele>237.79999999999998</ele><time>2026-05-03T09:21:40.021Z</time></trkpt><trkpt lat="46.0285566" lon="13.4950885"><ele>239.0</ele><time>2026-05-03T09:21:41.014Z</time></trkpt><trkpt lat="46.0285454" lon="13.4952336"><ele>239.0</ele><time>2026-05-03T09:21:42.012Z</time></trkpt><trkpt lat="46.0285634" lon="13.4954005"><ele>239.0</ele><time>2026-05-03T09:21:43.023Z</time></trkpt><trkpt lat="46.0285804" lon="13.4955775"><ele>239.0</ele><time>2026-05-03T09:21:44.022Z</time></trkpt><trkpt lat="46.0285999" lon="13.4957471"><ele>239.0</ele><time>2026-05-03T09:21:45.019Z</time></trkpt><trkpt lat="46.0286177" lon="13.4959096"><ele>239.0</ele><time>2026-05-03T09:21:46.011Z</time></trkpt><trkpt lat="46.0286318" lon="13.4960617"><ele>238.99999999999997</ele><time>2026-05-03T09:21:47.015Z</time></trkpt><trkpt lat="46.0286447" lon="13.4962044"><ele>238.99999999999997</ele><time>2026-05-03T09:21:48.023Z</time></trkpt><trkpt lat="46.0286467" lon="13.4963386"><ele>239.0</ele><time>2026-05-03T09:21:49.017Z</time></trkpt><trkpt lat="46.028639" lon="13.4964629"><ele>239.0</ele><time>2026-05-03T09:21:50.009Z</time></trkpt><trkpt lat="46.0286161" lon="13.4965762"><ele>240.79999999999998</ele><time>2026-05-03T09:21:51.011Z</time></trkpt><trkpt lat="46.0285651" lon="13.4966628"><ele>242.59999999999997</ele><time>2026-05-03T09:21:52.017Z</time></trkpt><trkpt lat="46.0284826" lon="13.4967168"><ele>244.4</ele><time>2026-05-03T09:21:53.014Z</time></trkpt><trkpt lat="46.0283852" lon="13.4967524"><ele>246.2</ele><time>2026-05-03T09:21:54.014Z</time></trkpt><trkpt lat="46.0282878" lon="13.4967861"><ele>248.0</ele><time>2026-05-03T09:21:55.016Z</time></trkpt><trkpt lat="46.0281992" lon="13.4968338"><ele>244.4</ele><time>2026-05-03T09:21:56.015Z</time></trkpt><trkpt lat="46.0281342" lon="13.4969075"><ele>240.8</ele><time>2026-05-03T09:21:57.012Z</time></trkpt><trkpt lat="46.0280889" lon="13.4970099"><ele>237.2</ele><time>2026-05-03T09:21:58.024Z</time></trkpt><trkpt lat="46.0280787" lon="13.4971334"><ele>233.6</ele><time>2026-05-03T09:21:59.015Z</time></trkpt><trkpt lat="46.028103" lon="13.4972891"><ele>230.0</ele><time>2026-05-03T09:22:00.013Z</time></trkpt><trkpt lat="46.0281469" lon="13.4974723"><ele>228.75</ele><time>2026-05-03T09:22:01.012Z</time></trkpt><trkpt lat="46.0281873" lon="13.497665"><ele>227.5</ele><time>2026-05-03T09:22:02.01Z</time></trkpt><trkpt lat="46.028215" lon="13.4978615"><ele>226.25</ele><time>2026-05-03T09:22:03.015Z</time></trkpt><trkpt lat="46.0282342" lon="13.4980592"><ele>225.0</ele><time>2026-05-03T09:22:04.027Z</time></trkpt><trkpt lat="46.0282646" lon="13.4982566"><ele>229.5</ele><time>2026-05-03T09:22:05.02Z</time></trkpt><trkpt lat="46.0283112" lon="13.4984511"><ele>234.0</ele><time>2026-05-03T09:22:06.015Z</time></trkpt><trkpt lat="46.0283801" lon="13.4986504"><ele>238.5</ele><time>2026-05-03T09:22:07.022Z</time></trkpt><trkpt lat="46.0284479" lon="13.498829"><ele>243.0</ele><time>2026-05-03T09:22:08.02Z</time></trkpt><trkpt lat="46.0285006" lon="13.4989946"><ele>243.0</ele><time>2026-05-03T09:22:09.018Z</time></trkpt><trkpt lat="46.0285545" lon="13.4991556"><ele>243.0</ele><time>2026-05-03T09:22:10.015Z</time></trkpt><trkpt lat="46.0286167" lon="13.499272"><ele>243.0</ele><time>2026-05-03T09:22:11.014Z</time></trkpt><trkpt lat="46.0286923" lon="13.4993452"><ele>243.0</ele><time>2026-05-03T09:22:12.027Z</time></trkpt><trkpt lat="46.028779" lon="13.4993772"><ele>243.0</ele><time>2026-05-03T09:22:13.01Z</time></trkpt><trkpt lat="46.0288545" lon="13.4994276"><ele>243.0</ele><time>2026-05-03T09:22:14.014Z</time></trkpt><trkpt lat="46.0289155" lon="13.499503"><ele>243.0</ele><time>2026-05-03T09:22:15.018Z</time></trkpt><trkpt lat="46.0289447" lon="13.499616"><ele>243.0</ele><time>2026-05-03T09:22:16.02Z</time></trkpt><trkpt lat="46.0289595" lon="13.49974"><ele>243.0</ele><time>2026-05-03T09:22:17.018Z</time></trkpt><trkpt lat="46.0289589" lon="13.4998645"><ele>243.0</ele><time>2026-05-03T09:22:18.014Z</time></trkpt><trkpt lat="46.0289614" lon="13.4999893"><ele>243.0</ele><time>2026-05-03T09:22:19.017Z</time></trkpt><trkpt lat="46.0289735" lon="13.5001138"><ele>241.0</ele><time>2026-05-03T09:22:20.027Z</time></trkpt><trkpt lat="46.0290053" lon="13.5002554"><ele>239.0</ele><time>2026-05-03T09:22:21.015Z</time></trkpt><trkpt lat="46.0290686" lon="13.5003932"><ele>237.0</ele><time>2026-05-03T09:22:22.017Z</time></trkpt><trkpt lat="46.0291395" lon="13.500525"><ele>235.0</ele><time>2026-05-03T09:22:23.024Z</time></trkpt><trkpt lat="46.0291997" lon="13.5006701"><ele>233.6</ele><time>2026-05-03T09:22:24.026Z</time></trkpt><trkpt lat="46.0292435" lon="13.5008203"><ele>232.2</ele><time>2026-05-03T09:22:25.015Z</time></trkpt><trkpt lat="46.0292748" lon="13.5009636"><ele>230.8</ele><time>2026-05-03T09:22:26.015Z</time></trkpt><trkpt lat="46.029305" lon="13.5010846"><ele>229.4</ele><time>2026-05-03T09:22:27.014Z</time></trkpt><trkpt lat="46.0293541" lon="13.5011858"><ele>228.0</ele><time>2026-05-03T09:22:28.011Z</time></trkpt><trkpt lat="46.0294254" lon="13.5012565"><ele>228.0</ele><time>2026-05-03T09:22:29.019Z</time></trkpt><trkpt lat="46.0295174" lon="13.5012714"><ele>228.0</ele><time>2026-05-03T09:22:30.011Z</time></trkpt><trkpt lat="46.0296392" lon="13.5012459"><ele>228.0</ele><time>2026-05-03T09:22:31.021Z</time></trkpt><trkpt lat="46.0297592" lon="13.5012244"><ele>228.0</ele><time>2026-05-03T09:22:32.016Z</time></trkpt><trkpt lat="46.0298715" lon="13.5011952"><ele>225.60000000000002</ele><time>2026-05-03T09:22:33.011Z</time></trkpt><trkpt lat="46.0299824" lon="13.501151"><ele>223.20000000000002</ele><time>2026-05-03T09:22:34.013Z</time></trkpt><trkpt lat="46.0300894" lon="13.5011192"><ele>220.8</ele><time>2026-05-03T09:22:35.019Z</time></trkpt><trkpt lat="46.0301917" lon="13.5011228"><ele>218.4</ele><time>2026-05-03T09:22:36.019Z</time></trkpt><trkpt lat="46.0302812" lon="13.5011641"><ele>216.0</ele><time>2026-05-03T09:22:37.013Z</time></trkpt><trkpt lat="46.0303774" lon="13.5012397"><ele>214.4</ele><time>2026-05-03T09:22:38.014Z</time></trkpt><trkpt lat="46.0304751" lon="13.5012944"><ele>212.8</ele><time>2026-05-03T09:22:39.021Z</time></trkpt><trkpt lat="46.0305804" lon="13.5013457"><ele>211.20000000000002</ele><time>2026-05-03T09:22:40.015Z</time></trkpt><trkpt lat="46.0306832" lon="13.5014009"><ele>209.60000000000002</ele><time>2026-05-03T09:22:41.014Z</time></trkpt><trkpt lat="46.0307694" lon="13.5014749"><ele>208.0</ele><time>2026-05-03T09:22:42.027Z</time></trkpt><trkpt lat="46.030824" lon="13.5015592"><ele>206.8</ele><time>2026-05-03T09:22:43.013Z</time></trkpt><trkpt lat="46.0308755" lon="13.5016973"><ele>205.60000000000002</ele><time>2026-05-03T09:22:45.024Z</time></trkpt><trkpt lat="46.0309276" lon="13.5017522"><ele>204.39999999999998</ele><time>2026-05-03T09:22:46.017Z</time></trkpt><trkpt lat="46.0310149" lon="13.5018054"><ele>203.2</ele><time>2026-05-03T09:22:47.021Z</time></trkpt><trkpt lat="46.0311187" lon="13.5018697"><ele>202.0</ele><time>2026-05-03T09:22:48.014Z</time></trkpt><trkpt lat="46.0312263" lon="13.5019424"><ele>202.0</ele><time>2026-05-03T09:22:49.01Z</time></trkpt><trkpt lat="46.0313296" lon="13.5020191"><ele>202.0</ele><time>2026-05-03T09:22:50.018Z</time></trkpt><trkpt lat="46.0314256" lon="13.5021164"><ele>202.0</ele><time>2026-05-03T09:22:51.015Z</time></trkpt><trkpt lat="46.0315036" lon="13.5022319"><ele>202.0</ele><time>2026-05-03T09:22:52.011Z</time></trkpt><trkpt lat="46.031567" lon="13.5023714"><ele>201.8</ele><time>2026-05-03T09:22:53.013Z</time></trkpt><trkpt lat="46.0316035" lon="13.5025276"><ele>201.6</ele><time>2026-05-03T09:22:54.022Z</time></trkpt><trkpt lat="46.031643" lon="13.5026683"><ele>201.4</ele><time>2026-05-03T09:22:55.02Z</time></trkpt><trkpt lat="46.0316972" lon="13.502795"><ele>201.20000000000002</ele><time>2026-05-03T09:22:56.015Z</time></trkpt><trkpt lat="46.0317728" lon="13.5029099"><ele>201.0</ele><time>2026-05-03T09:22:57.009Z</time></trkpt><trkpt lat="46.0318646" lon="13.5030098"><ele>198.5</ele><time>2026-05-03T09:22:58.009Z</time></trkpt><trkpt lat="46.0319755" lon="13.5030904"><ele>196.0</ele><time>2026-05-03T09:22:59.013Z</time></trkpt><trkpt lat="46.0320921" lon="13.5031654"><ele>193.5</ele><time>2026-05-03T09:23:00.009Z</time></trkpt><trkpt lat="46.032203" lon="13.5032375"><ele>191.0</ele><time>2026-05-03T09:23:01.014Z</time></trkpt><trkpt lat="46.032306" lon="13.503323"><ele>191.0</ele><time>2026-05-03T09:23:02.039Z</time></trkpt><trkpt lat="46.0323974" lon="13.5034378"><ele>191.0</ele><time>2026-05-03T09:23:03.012Z</time></trkpt><trkpt lat="46.0324768" lon="13.5035773"><ele>191.0</ele><time>2026-05-03T09:23:04.007Z</time></trkpt><trkpt lat="46.0325443" lon="13.5037311"><ele>191.0</ele><time>2026-05-03T09:23:05.008Z</time></trkpt><trkpt lat="46.0326005" lon="13.5038899"><ele>192.60000000000002</ele><time>2026-05-03T09:23:06.013Z</time></trkpt><trkpt lat="46.0326518" lon="13.5040323"><ele>194.2</ele><time>2026-05-03T09:23:07.011Z</time></trkpt><trkpt lat="46.0327055" lon="13.5041672"><ele>195.8</ele><time>2026-05-03T09:23:08.01Z</time></trkpt><trkpt lat="46.0327776" lon="13.5042912"><ele>197.39999999999998</ele><time>2026-05-03T09:23:09.008Z</time></trkpt><trkpt lat="46.0328562" lon="13.5044102"><ele>199.0</ele><time>2026-05-03T09:23:10.012Z</time></trkpt><trkpt lat="46.0329448" lon="13.5045148"><ele>200.25</ele><time>2026-05-03T09:23:11.01Z</time></trkpt><trkpt lat="46.03304" lon="13.5046112"><ele>201.5</ele><time>2026-05-03T09:23:12.01Z</time></trkpt><trkpt lat="46.0331402" lon="13.5047005"><ele>202.75</ele><time>2026-05-03T09:23:13.015Z</time></trkpt><trkpt lat="46.0332408" lon="13.5047807"><ele>204.0</ele><time>2026-05-03T09:23:14.017Z</time></trkpt><trkpt lat="46.0333401" lon="13.5048592"><ele>204.0</ele><time>2026-05-03T09:23:15.017Z</time></trkpt><trkpt lat="46.0334427" lon="13.5049315"><ele>204.0</ele><time>2026-05-03T09:23:16.017Z</time></trkpt><trkpt lat="46.0335433" lon="13.5049946"><ele>204.0</ele><time>2026-05-03T09:23:17.011Z</time></trkpt><trkpt lat="46.0336414" lon="13.5050514"><ele>204.0</ele><time>2026-05-03T09:23:18.017Z</time></trkpt><trkpt lat="46.0337267" lon="13.505104"><ele>204.0</ele><time>2026-05-03T09:23:19.009Z</time></trkpt><trkpt lat="46.0337971" lon="13.5051488"><ele>204.0</ele><time>2026-05-03T09:23:20.026Z</time></trkpt><trkpt lat="46.0339084" lon="13.5052005"><ele>204.0</ele><time>2026-05-03T09:23:22.011Z</time></trkpt><trkpt lat="46.0339678" lon="13.5051232"><ele>204.0</ele><time>2026-05-03T09:23:24.013Z</time></trkpt><trkpt lat="46.0340473" lon="13.5050087"><ele>204.0</ele><time>2026-05-03T09:23:26.01Z</time></trkpt><trkpt lat="46.0341052" lon="13.5049578"><ele>204.0</ele><time>2026-05-03T09:23:27.01Z</time></trkpt><trkpt lat="46.0341681" lon="13.5048776"><ele>203.2</ele><time>2026-05-03T09:23:28.009Z</time></trkpt><trkpt lat="46.0342186" lon="13.5047633"><ele>202.39999999999998</ele><time>2026-05-03T09:23:29.017Z</time></trkpt><trkpt lat="46.0342644" lon="13.5046379"><ele>201.6</ele><time>2026-05-03T09:23:30.011Z</time></trkpt><trkpt lat="46.0343081" lon="13.5045212"><ele>200.8</ele><time>2026-05-03T09:23:31.007Z</time></trkpt><trkpt lat="46.0343558" lon="13.5044401"><ele>200.0</ele><time>2026-05-03T09:23:32.008Z</time></trkpt><trkpt lat="46.0344734" lon="13.5044129"><ele>200.0</ele><time>2026-05-03T09:23:34.013Z</time></trkpt><trkpt lat="46.0345568" lon="13.5044495"><ele>200.0</ele><time>2026-05-03T09:23:35.008Z</time></trkpt><trkpt lat="46.0346649" lon="13.5044879"><ele>200.0</ele><time>2026-05-03T09:23:36.009Z</time></trkpt><trkpt lat="46.0347865" lon="13.5045318"><ele>200.0</ele><time>2026-05-03T09:23:37.016Z</time></trkpt><trkpt lat="46.0349165" lon="13.5045774"><ele>198.75</ele><time>2026-05-03T09:23:38.017Z</time></trkpt><trkpt lat="46.035041" lon="13.5046145"><ele>197.5</ele><time>2026-05-03T09:23:39.02Z</time></trkpt><trkpt lat="46.0351599" lon="13.5046266"><ele>196.25</ele><time>2026-05-03T09:23:40.018Z</time></trkpt><trkpt lat="46.0352837" lon="13.5046088"><ele>195.0</ele><time>2026-05-03T09:23:41.012Z</time></trkpt><trkpt lat="46.035408" lon="13.5045689"><ele>195.0</ele><time>2026-05-03T09:23:42.016Z</time></trkpt><trkpt lat="46.0355258" lon="13.5045463"><ele>195.0</ele><time>2026-05-03T09:23:43.014Z</time></trkpt><trkpt lat="46.0356289" lon="13.5045298"><ele>195.0</ele><time>2026-05-03T09:23:44.019Z</time></trkpt><trkpt lat="46.0357196" lon="13.5044885"><ele>195.0</ele><time>2026-05-03T09:23:45.014Z</time></trkpt><trkpt lat="46.0357935" lon="13.5044068"><ele>195.0</ele><time>2026-05-03T09:23:46.015Z</time></trkpt><trkpt lat="46.0358475" lon="13.5042743"><ele>196.75</ele><time>2026-05-03T09:23:47.011Z</time></trkpt><trkpt lat="46.0358958" lon="13.504114"><ele>198.5</ele><time>2026-05-03T09:23:48.018Z</time></trkpt><trkpt lat="46.0359533" lon="13.5039356"><ele>200.25</ele><time>2026-05-03T09:23:49.011Z</time></trkpt><trkpt lat="46.0360079" lon="13.5037642"><ele>202.0</ele><time>2026-05-03T09:23:50.006Z</time></trkpt><trkpt lat="46.0360552" lon="13.5036007"><ele>199.49999999999997</ele><time>2026-05-03T09:23:51.011Z</time></trkpt><trkpt lat="46.0360943" lon="13.5034733"><ele>197.0</ele><time>2026-05-03T09:23:52.023Z</time></trkpt><trkpt lat="46.0361135" lon="13.5033837"><ele>194.5</ele><time>2026-05-03T09:23:53.013Z</time></trkpt><trkpt lat="46.0361915" lon="13.5033895"><ele>192.0</ele><time>2026-05-03T09:23:58.022Z</time></trkpt><trkpt lat="46.0362604" lon="13.5034703"><ele>189.5</ele><time>2026-05-03T09:24:00.022Z</time></trkpt><trkpt lat="46.0363524" lon="13.5035761"><ele>187.0</ele><time>2026-05-03T09:24:02.01Z</time></trkpt><trkpt lat="46.0364309" lon="13.5036716"><ele>190.0</ele><time>2026-05-03T09:24:04.016Z</time></trkpt><trkpt lat="46.0365273" lon="13.5037568"><ele>193.0</ele><time>2026-05-03T09:24:06.012Z</time></trkpt><trkpt lat="46.0366335" lon="13.5038714"><ele>196.0</ele><time>2026-05-03T09:24:08.022Z</time></trkpt><trkpt lat="46.0366858" lon="13.503945"><ele>199.0</ele><time>2026-05-03T09:24:09.014Z</time></trkpt><trkpt lat="46.0367335" lon="13.5040257"><ele>202.0</ele><time>2026-05-03T09:24:10.022Z</time></trkpt><trkpt lat="46.0367788" lon="13.5041152"><ele>204.2</ele><time>2026-05-03T09:24:11.021Z</time></trkpt><trkpt lat="46.0368223" lon="13.5042199"><ele>206.39999999999998</ele><time>2026-05-03T09:24:12.012Z</time></trkpt><trkpt lat="46.0368744" lon="13.5043301"><ele>208.60000000000002</ele><time>2026-05-03T09:24:13.017Z</time></trkpt><trkpt lat="46.036918" lon="13.5044469"><ele>210.8</ele><time>2026-05-03T09:24:14.011Z</time></trkpt><trkpt lat="46.0369576" lon="13.5045687"><ele>213.0</ele><time>2026-05-03T09:24:15.013Z</time></trkpt><trkpt lat="46.0369848" lon="13.5046968"><ele>216.16666666666666</ele><time>2026-05-03T09:24:16.014Z</time></trkpt><trkpt lat="46.0370177" lon="13.5048015"><ele>219.33333333333331</ele><time>2026-05-03T09:24:17.009Z</time></trkpt><trkpt lat="46.0370478" lon="13.5049053"><ele>222.5</ele><time>2026-05-03T09:24:18.012Z</time></trkpt><trkpt lat="46.0371248" lon="13.5050394"><ele>225.66666666666666</ele><time>2026-05-03T09:24:20.013Z</time></trkpt><trkpt lat="46.0371837" lon="13.5050799"><ele>228.83333333333331</ele><time>2026-05-03T09:24:21.011Z</time></trkpt><trkpt lat="46.0372503" lon="13.505108"><ele>232.0</ele><time>2026-05-03T09:24:22.014Z</time></trkpt><trkpt lat="46.0373218" lon="13.5051094"><ele>231.99999999999997</ele><time>2026-05-03T09:24:23.013Z</time></trkpt><trkpt lat="46.0373935" lon="13.5050975"><ele>232.0</ele><time>2026-05-03T09:24:24.014Z</time></trkpt><trkpt lat="46.0374703" lon="13.5050965"><ele>232.0</ele><time>2026-05-03T09:24:25.012Z</time></trkpt><trkpt lat="46.0375547" lon="13.5051165"><ele>232.0</ele><time>2026-05-03T09:24:26.011Z</time></trkpt><trkpt lat="46.0376451" lon="13.5051245"><ele>231.99999999999997</ele><time>2026-05-03T09:24:27.016Z</time></trkpt><trkpt lat="46.0377388" lon="13.5051179"><ele>232.0</ele><time>2026-05-03T09:24:28.018Z</time></trkpt><trkpt lat="46.0378261" lon="13.5050951"><ele>233.83333333333331</ele><time>2026-05-03T09:24:29.02Z</time></trkpt><trkpt lat="46.0378965" lon="13.5050945"><ele>235.66666666666666</ele><time>2026-05-03T09:24:30.015Z</time></trkpt><trkpt lat="46.0380013" lon="13.5051379"><ele>237.5</ele><time>2026-05-03T09:24:32.008Z</time></trkpt><trkpt lat="46.0380534" lon="13.5052075"><ele>239.33333333333331</ele><time>2026-05-03T09:24:33.017Z</time></trkpt><trkpt lat="46.0381072" lon="13.5053005"><ele>241.16666666666666</ele><time>2026-05-03T09:24:34.013Z</time></trkpt><trkpt lat="46.0381614" lon="13.5054072"><ele>243.0</ele><time>2026-05-03T09:24:35.011Z</time></trkpt><trkpt lat="46.0382198" lon="13.5055156"><ele>243.0</ele><time>2026-05-03T09:24:36.013Z</time></trkpt><trkpt lat="46.0382869" lon="13.5056026"><ele>243.0</ele><time>2026-05-03T09:24:37.02Z</time></trkpt><trkpt lat="46.0383616" lon="13.5056896"><ele>243.0</ele><time>2026-05-03T09:24:38.021Z</time></trkpt><trkpt lat="46.0384379" lon="13.5057549"><ele>243.0</ele><time>2026-05-03T09:24:39.011Z</time></trkpt><trkpt lat="46.0385035" lon="13.5058245"><ele>243.0</ele><time>2026-05-03T09:24:40.016Z</time></trkpt><trkpt lat="46.0385588" lon="13.5058872"><ele>243.0</ele><time>2026-05-03T09:24:41.021Z</time></trkpt><trkpt lat="46.0386157" lon="13.5059559"><ele>241.0</ele><time>2026-05-03T09:24:42.014Z</time></trkpt><trkpt lat="46.0386772" lon="13.5060261"><ele>239.0</ele><time>2026-05-03T09:24:43.011Z</time></trkpt><trkpt lat="46.038736" lon="13.5060891"><ele>237.0</ele><time>2026-05-03T09:24:44.014Z</time></trkpt><trkpt lat="46.0387983" lon="13.5061425"><ele>235.0</ele><time>2026-05-03T09:24:45.015Z</time></trkpt><trkpt lat="46.0388728" lon="13.506182"><ele>233.0</ele><time>2026-05-03T09:24:46.015Z</time></trkpt><trkpt lat="46.0389507" lon="13.5062151"><ele>231.0</ele><time>2026-05-03T09:24:47.011Z</time></trkpt><trkpt lat="46.0390221" lon="13.5062143"><ele>231.0</ele><time>2026-05-03T09:24:48.011Z</time></trkpt><trkpt lat="46.0390917" lon="13.5061712"><ele>231.0</ele><time>2026-05-03T09:24:49.014Z</time></trkpt><trkpt lat="46.0391625" lon="13.5061105"><ele>231.0</ele><time>2026-05-03T09:24:50.014Z</time></trkpt><trkpt lat="46.0392281" lon="13.5060307"><ele>231.0</ele><time>2026-05-03T09:24:51.016Z</time></trkpt><trkpt lat="46.0392865" lon="13.5059416"><ele>231.0</ele><time>2026-05-03T09:24:52.014Z</time></trkpt><trkpt lat="46.0393406" lon="13.5058416"><ele>231.0</ele><time>2026-05-03T09:24:53.015Z</time></trkpt><trkpt lat="46.0393966" lon="13.5057265"><ele>231.0</ele><time>2026-05-03T09:24:54.01Z</time></trkpt><trkpt lat="46.039443" lon="13.5055886"><ele>231.00000000000003</ele><time>2026-05-03T09:24:55.021Z</time></trkpt><trkpt lat="46.0394944" lon="13.5054522"><ele>231.00000000000003</ele><time>2026-05-03T09:24:56.01Z</time></trkpt><trkpt lat="46.0395436" lon="13.5053202"><ele>231.0</ele><time>2026-05-03T09:24:57.003Z</time></trkpt><trkpt lat="46.0395994" lon="13.5051918"><ele>231.0</ele><time>2026-05-03T09:24:58.009Z</time></trkpt><trkpt lat="46.039652" lon="13.5050664"><ele>228.14285714285714</ele><time>2026-05-03T09:24:59.012Z</time></trkpt><trkpt lat="46.0396929" lon="13.5049407"><ele>225.28571428571428</ele><time>2026-05-03T09:25:00.018Z</time></trkpt><trkpt lat="46.0397329" lon="13.5048398"><ele>222.42857142857144</ele><time>2026-05-03T09:25:01.01Z</time></trkpt><trkpt lat="46.0397683" lon="13.5047608"><ele>219.57142857142856</ele><time>2026-05-03T09:25:02.022Z</time></trkpt><trkpt lat="46.0397883" lon="13.5048475"><ele>216.71428571428572</ele><time>2026-05-03T09:25:07.022Z</time></trkpt><trkpt lat="46.0397628" lon="13.5049337"><ele>213.85714285714286</ele><time>2026-05-03T09:25:08.012Z</time></trkpt><trkpt lat="46.0397301" lon="13.5050172"><ele>211.0</ele><time>2026-05-03T09:25:09.017Z</time></trkpt><trkpt lat="46.0396932" lon="13.5051015"><ele>210.99999999999997</ele><time>2026-05-03T09:25:10.017Z</time></trkpt><trkpt lat="46.0396543" lon="13.5052051"><ele>211.0</ele><time>2026-05-03T09:25:11.015Z</time></trkpt><trkpt lat="46.0396155" lon="13.5053151"><ele>211.0</ele><time>2026-05-03T09:25:12.013Z</time></trkpt><trkpt lat="46.0395839" lon="13.505431"><ele>211.0</ele><time>2026-05-03T09:25:13.014Z</time></trkpt><trkpt lat="46.0395483" lon="13.5055467"><ele>210.99999999999997</ele><time>2026-05-03T09:25:14.019Z</time></trkpt><trkpt lat="46.0395265" lon="13.505643"><ele>211.0</ele><time>2026-05-03T09:25:15.011Z</time></trkpt><trkpt lat="46.0395059" lon="13.5057378"><ele>214.33333333333331</ele><time>2026-05-03T09:25:16.01Z</time></trkpt><trkpt lat="46.0394807" lon="13.5058341"><ele>217.66666666666666</ele><time>2026-05-03T09:25:17.017Z</time></trkpt><trkpt lat="46.0394546" lon="13.5059393"><ele>221.0</ele><time>2026-05-03T09:25:18.017Z</time></trkpt><trkpt lat="46.0394297" lon="13.5060447"><ele>224.33333333333331</ele><time>2026-05-03T09:25:19.011Z</time></trkpt><trkpt lat="46.0394018" lon="13.5061385"><ele>227.66666666666666</ele><time>2026-05-03T09:25:20.012Z</time></trkpt><trkpt lat="46.0393756" lon="13.5062392"><ele>231.0</ele><time>2026-05-03T09:25:21.01Z</time></trkpt><trkpt lat="46.0393378" lon="13.5063376"><ele>233.8</ele><time>2026-05-03T09:25:22.011Z</time></trkpt><trkpt lat="46.0392907" lon="13.5064395"><ele>236.60000000000002</ele><time>2026-05-03T09:25:23.011Z</time></trkpt><trkpt lat="46.0392313" lon="13.5065405"><ele>239.4</ele><time>2026-05-03T09:25:24.011Z</time></trkpt><trkpt lat="46.0391667" lon="13.5066401"><ele>242.2</ele><time>2026-05-03T09:25:25.02Z</time></trkpt><trkpt lat="46.0391001" lon="13.506739"><ele>245.0</ele><time>2026-05-03T09:25:26.01Z</time></trkpt><trkpt lat="46.0390269" lon="13.5068305"><ele>245.00000000000003</ele><time>2026-05-03T09:25:27.011Z</time></trkpt><trkpt lat="46.0389576" lon="13.5069152"><ele>245.0</ele><time>2026-05-03T09:25:28.012Z</time></trkpt><trkpt lat="46.0388963" lon="13.5069917"><ele>245.0</ele><time>2026-05-03T09:25:29.014Z</time></trkpt><trkpt lat="46.0388496" lon="13.5071159"><ele>245.0</ele><time>2026-05-03T09:25:31.019Z</time></trkpt><trkpt lat="46.0389135" lon="13.5071867"><ele>245.00000000000003</ele><time>2026-05-03T09:25:34.013Z</time></trkpt><trkpt lat="46.0389643" lon="13.5071243"><ele>245.0</ele><time>2026-05-03T09:25:37.009Z</time></trkpt><trkpt lat="46.039033" lon="13.5070093"><ele>245.00000000000003</ele><time>2026-05-03T09:25:39.013Z</time></trkpt><trkpt lat="46.0390786" lon="13.5069404"><ele>245.0</ele><time>2026-05-03T09:25:40.02Z</time></trkpt><trkpt lat="46.039127" lon="13.506869"><ele>245.0</ele><time>2026-05-03T09:25:41.023Z</time></trkpt><trkpt lat="46.0391838" lon="13.5067926"><ele>245.0</ele><time>2026-05-03T09:25:42.014Z</time></trkpt><trkpt lat="46.0392385" lon="13.5067016"><ele>245.00000000000003</ele><time>2026-05-03T09:25:43.015Z</time></trkpt><trkpt lat="46.0392874" lon="13.5066226"><ele>245.0</ele><time>2026-05-03T09:25:44.01Z</time></trkpt><trkpt lat="46.0393291" lon="13.5065237"><ele>246.16666666666669</ele><time>2026-05-03T09:25:45.011Z</time></trkpt><trkpt lat="46.0393785" lon="13.5064489"><ele>247.33333333333334</ele><time>2026-05-03T09:25:46.012Z</time></trkpt><trkpt lat="46.0394174" lon="13.5063742"><ele>248.5</ele><time>2026-05-03T09:25:47.018Z</time></trkpt><trkpt lat="46.0394904" lon="13.5062325"><ele>249.66666666666669</ele><time>2026-05-03T09:25:49.011Z</time></trkpt><trkpt lat="46.039532" lon="13.5061619"><ele>250.83333333333334</ele><time>2026-05-03T09:25:50.016Z</time></trkpt><trkpt lat="46.0395716" lon="13.5060872"><ele>252.0</ele><time>2026-05-03T09:25:51.014Z</time></trkpt><trkpt lat="46.0396636" lon="13.5059429"><ele>253.0</ele><time>2026-05-03T09:25:53.01Z</time></trkpt><trkpt lat="46.0397191" lon="13.5058616"><ele>254.0</ele><time>2026-05-03T09:25:54.023Z</time></trkpt><trkpt lat="46.039781" lon="13.5057873"><ele>255.0</ele><time>2026-05-03T09:25:55.013Z</time></trkpt><trkpt lat="46.0398339" lon="13.5057109"><ele>256.0</ele><time>2026-05-03T09:25:56.015Z</time></trkpt><trkpt lat="46.0398849" lon="13.5056296"><ele>257.0</ele><time>2026-05-03T09:25:57.016Z</time></trkpt><trkpt lat="46.0399378" lon="13.5055546"><ele>258.0</ele><time>2026-05-03T09:25:58.009Z</time></trkpt><trkpt lat="46.0400335" lon="13.5054788"><ele>258.0</ele><time>2026-05-03T09:26:00.014Z</time></trkpt><trkpt lat="46.0401284" lon="13.5054483"><ele>258.0</ele><time>2026-05-03T09:26:02.008Z</time></trkpt><trkpt lat="46.0402599" lon="13.5054496"><ele>258.0</ele><time>2026-05-03T09:26:04.023Z</time></trkpt><trkpt lat="46.0403263" lon="13.5054529"><ele>258.0</ele><time>2026-05-03T09:26:05.01Z</time></trkpt><trkpt lat="46.0403921" lon="13.5054645"><ele>258.0</ele><time>2026-05-03T09:26:06.013Z</time></trkpt><trkpt lat="46.0404562" lon="13.5054699"><ele>258.0</ele><time>2026-05-03T09:26:07.023Z</time></trkpt><trkpt lat="46.040523" lon="13.505489"><ele>257.99999999999994</ele><time>2026-05-03T09:26:08.015Z</time></trkpt><trkpt lat="46.040588" lon="13.5055205"><ele>258.0</ele><time>2026-05-03T09:26:09.017Z</time></trkpt><trkpt lat="46.0406487" lon="13.5055585"><ele>258.0</ele><time>2026-05-03T09:26:10.011Z</time></trkpt><trkpt lat="46.0407048" lon="13.5056082"><ele>258.0</ele><time>2026-05-03T09:26:11.013Z</time></trkpt><trkpt lat="46.0407641" lon="13.5056473"><ele>258.0</ele><time>2026-05-03T09:26:12.02Z</time></trkpt><trkpt lat="46.0408263" lon="13.5056831"><ele>257.99999999999994</ele><time>2026-05-03T09:26:13.011Z</time></trkpt><trkpt lat="46.0408969" lon="13.5057186"><ele>258.0</ele><time>2026-05-03T09:26:14.01Z</time></trkpt><trkpt lat="46.0409624" lon="13.5057472"><ele>260.2</ele><time>2026-05-03T09:26:15.01Z</time></trkpt><trkpt lat="46.0410754" lon="13.5057852"><ele>262.4</ele><time>2026-05-03T09:26:17.012Z</time></trkpt><trkpt lat="46.0411945" lon="13.5058214"><ele>264.59999999999997</ele><time>2026-05-03T09:26:19.013Z</time></trkpt><trkpt lat="46.0412581" lon="13.5058395"><ele>266.8</ele><time>2026-05-03T09:26:20.007Z</time></trkpt><trkpt lat="46.0413219" lon="13.5058625"><ele>269.0</ele><time>2026-05-03T09:26:21.012Z</time></trkpt><trkpt lat="46.0414325" lon="13.5059101"><ele>269.0</ele><time>2026-05-03T09:26:23.01Z</time></trkpt><trkpt lat="46.0414928" lon="13.5059484"><ele>269.0</ele><time>2026-05-03T09:26:32.009Z</time></trkpt><trkpt lat="46.0415596" lon="13.505959"><ele>269.0</ele><time>2026-05-03T09:26:34.011Z</time></trkpt><trkpt lat="46.0416245" lon="13.5059562"><ele>269.0</ele><time>2026-05-03T09:26:35.01Z</time></trkpt><trkpt lat="46.0417529" lon="13.5059651"><ele>269.0</ele><time>2026-05-03T09:26:37.008Z</time></trkpt><trkpt lat="46.0418213" lon="13.5059861"><ele>269.0</ele><time>2026-05-03T09:26:38.01Z</time></trkpt><trkpt lat="46.0418868" lon="13.5060245"><ele>268.83333333333337</ele><time>2026-05-03T09:26:39.015Z</time></trkpt><trkpt lat="46.0419557" lon="13.5060669"><ele>268.6666666666667</ele><time>2026-05-03T09:26:40.018Z</time></trkpt><trkpt lat="46.0420322" lon="13.5061154"><ele>268.5</ele><time>2026-05-03T09:26:41.008Z</time></trkpt><trkpt lat="46.0421147" lon="13.5061534"><ele>268.3333333333333</ele><time>2026-05-03T09:26:42.011Z</time></trkpt><trkpt lat="46.0422016" lon="13.5061887"><ele>268.16666666666663</ele><time>2026-05-03T09:26:43.018Z</time></trkpt><trkpt lat="46.042288" lon="13.5062146"><ele>268.0</ele><time>2026-05-03T09:26:44.019Z</time></trkpt><trkpt lat="46.0423743" lon="13.5062413"><ele>271.8333333333333</ele><time>2026-05-03T09:26:45.01Z</time></trkpt><trkpt lat="46.042464" lon="13.5062796"><ele>275.66666666666663</ele><time>2026-05-03T09:26:46.012Z</time></trkpt><trkpt lat="46.0425428" lon="13.5063296"><ele>279.5</ele><time>2026-05-03T09:26:47.012Z</time></trkpt><trkpt lat="46.0426173" lon="13.5063747"><ele>283.3333333333333</ele><time>2026-05-03T09:26:48.007Z</time></trkpt><trkpt lat="46.0426877" lon="13.5064094"><ele>287.1666666666667</ele><time>2026-05-03T09:26:49.012Z</time></trkpt><trkpt lat="46.0427581" lon="13.5064225"><ele>291.0</ele><time>2026-05-03T09:26:50.015Z</time></trkpt><trkpt lat="46.042835" lon="13.506414"><ele>291.0</ele><time>2026-05-03T09:26:51.015Z</time></trkpt><trkpt lat="46.0429122" lon="13.5063893"><ele>291.0</ele><time>2026-05-03T09:26:52.017Z</time></trkpt><trkpt lat="46.0429914" lon="13.506357"><ele>291.0</ele><time>2026-05-03T09:26:53.013Z</time></trkpt><trkpt lat="46.0430671" lon="13.506342"><ele>291.0</ele><time>2026-05-03T09:26:54.015Z</time></trkpt><trkpt lat="46.0431314" lon="13.5063498"><ele>291.0</ele><time>2026-05-03T09:26:55.017Z</time></trkpt><trkpt lat="46.0432307" lon="13.5064418"><ele>291.0</ele><time>2026-05-03T09:26:57.017Z</time></trkpt><trkpt lat="46.0432928" lon="13.5066032"><ele>289.57142857142856</ele><time>2026-05-03T09:26:59.009Z</time></trkpt><trkpt lat="46.0433285" lon="13.5067019"><ele>288.1428571428571</ele><time>2026-05-03T09:27:00.013Z</time></trkpt><trkpt lat="46.0433487" lon="13.5067961"><ele>286.7142857142857</ele><time>2026-05-03T09:27:01.004Z</time></trkpt><trkpt lat="46.0433782" lon="13.5068951"><ele>285.2857142857143</ele><time>2026-05-03T09:27:02.011Z</time></trkpt><trkpt lat="46.0434158" lon="13.5069806"><ele>283.8571428571429</ele><time>2026-05-03T09:27:03.006Z</time></trkpt><trkpt lat="46.043465" lon="13.5070486"><ele>282.42857142857144</ele><time>2026-05-03T09:27:04.024Z</time></trkpt><trkpt lat="46.0435254" lon="13.5071035"><ele>281.0</ele><time>2026-05-03T09:27:05.012Z</time></trkpt><trkpt lat="46.0435978" lon="13.5071612"><ele>284.5</ele><time>2026-05-03T09:27:06.009Z</time></trkpt><trkpt lat="46.0436696" lon="13.5072165"><ele>288.0</ele><time>2026-05-03T09:27:07.016Z</time></trkpt><trkpt lat="46.0437276" lon="13.5072784"><ele>291.5</ele><time>2026-05-03T09:27:08.004Z</time></trkpt><trkpt lat="46.0437744" lon="13.5073452"><ele>295.0</ele><time>2026-05-03T09:27:09.01Z</time></trkpt><trkpt lat="46.0438461" lon="13.507506"><ele>298.5</ele><time>2026-05-03T09:27:11.007Z</time></trkpt><trkpt lat="46.0438762" lon="13.5076156"><ele>302.0</ele><time>2026-05-03T09:27:12.005Z</time></trkpt><trkpt lat="46.0438987" lon="13.507749"><ele>302.0</ele><time>2026-05-03T09:27:13.006Z</time></trkpt><trkpt lat="46.0439174" lon="13.507893"><ele>302.0</ele><time>2026-05-03T09:27:14.007Z</time></trkpt><trkpt lat="46.0439316" lon="13.5080502"><ele>302.0</ele><time>2026-05-03T09:27:15.014Z</time></trkpt><trkpt lat="46.0439528" lon="13.5082037"><ele>302.0</ele><time>2026-05-03T09:27:16.011Z</time></trkpt><trkpt lat="46.0439681" lon="13.5083594"><ele>302.0</ele><time>2026-05-03T09:27:17.009Z</time></trkpt><trkpt lat="46.0439899" lon="13.508507"><ele>305.2</ele><time>2026-05-03T09:27:18.003Z</time></trkpt><trkpt lat="46.044013" lon="13.5086458"><ele>308.4</ele><time>2026-05-03T09:27:19.008Z</time></trkpt><trkpt lat="46.0440384" lon="13.5087829"><ele>311.6</ele><time>2026-05-03T09:27:20.011Z</time></trkpt><trkpt lat="46.0440562" lon="13.5089276"><ele>314.8</ele><time>2026-05-03T09:27:21.006Z</time></trkpt><trkpt lat="46.0440852" lon="13.5090671"><ele>318.0</ele><time>2026-05-03T09:27:22.006Z</time></trkpt><trkpt lat="46.0441197" lon="13.5092059"><ele>317.0</ele><time>2026-05-03T09:27:23.007Z</time></trkpt><trkpt lat="46.0441527" lon="13.5093502"><ele>316.0</ele><time>2026-05-03T09:27:24.011Z</time></trkpt><trkpt lat="46.0441858" lon="13.5094962"><ele>315.0</ele><time>2026-05-03T09:27:25.011Z</time></trkpt><trkpt lat="46.0442203" lon="13.5096294"><ele>314.0</ele><time>2026-05-03T09:27:26.016Z</time></trkpt><trkpt lat="46.0442506" lon="13.5097498"><ele>313.0</ele><time>2026-05-03T09:27:27.005Z</time></trkpt><trkpt lat="46.044281" lon="13.5098715"><ele>313.0</ele><time>2026-05-03T09:27:28.016Z</time></trkpt><trkpt lat="46.0443127" lon="13.5099926"><ele>313.0</ele><time>2026-05-03T09:27:29.007Z</time></trkpt><trkpt lat="46.0443433" lon="13.5101202"><ele>313.0</ele><time>2026-05-03T09:27:30.013Z</time></trkpt><trkpt lat="46.0443767" lon="13.5102477"><ele>313.0</ele><time>2026-05-03T09:27:31.01Z</time></trkpt><trkpt lat="46.0444005" lon="13.5103656"><ele>313.0</ele><time>2026-05-03T09:27:32.016Z</time></trkpt><trkpt lat="46.0444156" lon="13.5104674"><ele>313.0</ele><time>2026-05-03T09:27:33.009Z</time></trkpt><trkpt lat="46.0444375" lon="13.5105704"><ele>314.5</ele><time>2026-05-03T09:27:34.006Z</time></trkpt><trkpt lat="46.0444626" lon="13.5106819"><ele>316.0</ele><time>2026-05-03T09:27:35.011Z</time></trkpt><trkpt lat="46.0444845" lon="13.510792"><ele>317.5</ele><time>2026-05-03T09:27:36.015Z</time></trkpt><trkpt lat="46.0445117" lon="13.5109079"><ele>319.0</ele><time>2026-05-03T09:27:37.012Z</time></trkpt><trkpt lat="46.0445306" lon="13.5110255"><ele>320.5</ele><time>2026-05-03T09:27:38.009Z</time></trkpt><trkpt lat="46.0445339" lon="13.5111512"><ele>322.0</ele><time>2026-05-03T09:27:39.021Z</time></trkpt><trkpt lat="46.0445411" lon="13.5112806"><ele>322.5</ele><time>2026-05-03T09:27:40.006Z</time></trkpt><trkpt lat="46.0445501" lon="13.5114129"><ele>323.0</ele><time>2026-05-03T09:27:41.017Z</time></trkpt><trkpt lat="46.0445596" lon="13.5115332"><ele>323.5</ele><time>2026-05-03T09:27:42.013Z</time></trkpt><trkpt lat="46.0445632" lon="13.5116316"><ele>324.0</ele><time>2026-05-03T09:27:43.012Z</time></trkpt><trkpt lat="46.0445312" lon="13.5117459"><ele>324.5</ele><time>2026-05-03T09:27:45.011Z</time></trkpt><trkpt lat="46.0444544" lon="13.5117028"><ele>325.0</ele><time>2026-05-03T09:27:48.019Z</time></trkpt><trkpt lat="46.0444239" lon="13.5115353"><ele>325.0</ele><time>2026-05-03T09:27:50.026Z</time></trkpt><trkpt lat="46.0444124" lon="13.5114095"><ele>325.0</ele><time>2026-05-03T09:27:51.015Z</time></trkpt><trkpt lat="46.0443938" lon="13.5112662"><ele>325.0</ele><time>2026-05-03T09:27:52.008Z</time></trkpt><trkpt lat="46.0443785" lon="13.5111092"><ele>325.0</ele><time>2026-05-03T09:27:53.018Z</time></trkpt><trkpt lat="46.044361" lon="13.5109595"><ele>325.0</ele><time>2026-05-03T09:27:54.017Z</time></trkpt><trkpt lat="46.044339" lon="13.510814"><ele>324.6</ele><time>2026-05-03T09:27:55.017Z</time></trkpt><trkpt lat="46.0443071" lon="13.5106761"><ele>324.2</ele><time>2026-05-03T09:27:56.011Z</time></trkpt><trkpt lat="46.0442672" lon="13.5105372"><ele>323.79999999999995</ele><time>2026-05-03T09:27:57.008Z</time></trkpt><trkpt lat="46.0442205" lon="13.5103996"><ele>323.4</ele><time>2026-05-03T09:27:58.011Z</time></trkpt><trkpt lat="46.0441785" lon="13.5102719"><ele>323.0</ele><time>2026-05-03T09:27:59.009Z</time></trkpt><trkpt lat="46.0441292" lon="13.5101474"><ele>323.0</ele><time>2026-05-03T09:28:00.021Z</time></trkpt><trkpt lat="46.044072" lon="13.510025"><ele>323.0</ele><time>2026-05-03T09:28:01.01Z</time></trkpt><trkpt lat="46.0440119" lon="13.5099046"><ele>323.0</ele><time>2026-05-03T09:28:02.014Z</time></trkpt><trkpt lat="46.0439578" lon="13.509789"><ele>323.0</ele><time>2026-05-03T09:28:03.008Z</time></trkpt><trkpt lat="46.043903" lon="13.5096792"><ele>323.0</ele><time>2026-05-03T09:28:04.013Z</time></trkpt><trkpt lat="46.04385" lon="13.5095684"><ele>322.33333333333337</ele><time>2026-05-03T09:28:05.012Z</time></trkpt><trkpt lat="46.0438065" lon="13.5094556"><ele>321.6666666666667</ele><time>2026-05-03T09:28:06.012Z</time></trkpt><trkpt lat="46.0437652" lon="13.5093395"><ele>321.0</ele><time>2026-05-03T09:28:07.019Z</time></trkpt><trkpt lat="46.0437251" lon="13.5092265"><ele>320.3333333333333</ele><time>2026-05-03T09:28:08.008Z</time></trkpt><trkpt lat="46.0436821" lon="13.5091154"><ele>319.66666666666663</ele><time>2026-05-03T09:28:09.016Z</time></trkpt><trkpt lat="46.0436375" lon="13.5090094"><ele>319.0</ele><time>2026-05-03T09:28:10.012Z</time></trkpt><trkpt lat="46.0436015" lon="13.5088938"><ele>319.0</ele><time>2026-05-03T09:28:11.01Z</time></trkpt><trkpt lat="46.0435703" lon="13.5087765"><ele>319.0</ele><time>2026-05-03T09:28:12.007Z</time></trkpt><trkpt lat="46.0435423" lon="13.5086429"><ele>319.0</ele><time>2026-05-03T09:28:13.018Z</time></trkpt><trkpt lat="46.0435089" lon="13.508501"><ele>319.0</ele><time>2026-05-03T09:28:14.018Z</time></trkpt><trkpt lat="46.043472" lon="13.5083685"><ele>319.0</ele><time>2026-05-03T09:28:15.006Z</time></trkpt><trkpt lat="46.0434413" lon="13.5082438"><ele>318.8</ele><time>2026-05-03T09:28:16.013Z</time></trkpt><trkpt lat="46.0434172" lon="13.5081434"><ele>318.59999999999997</ele><time>2026-05-03T09:28:17.022Z</time></trkpt><trkpt lat="46.0433754" lon="13.5080443"><ele>318.4</ele><time>2026-05-03T09:28:19.01Z</time></trkpt><trkpt lat="46.0433107" lon="13.5080969"><ele>318.2</ele><time>2026-05-03T09:28:22.027Z</time></trkpt><trkpt lat="46.0432802" lon="13.508243"><ele>318.0</ele><time>2026-05-03T09:28:24.01Z</time></trkpt><trkpt lat="46.0433212" lon="13.5084029"><ele>318.0</ele><time>2026-05-03T09:28:26.012Z</time></trkpt><trkpt lat="46.0433673" lon="13.5084894"><ele>318.0</ele><time>2026-05-03T09:28:27.007Z</time></trkpt><trkpt lat="46.0434184" lon="13.50858"><ele>318.0</ele><time>2026-05-03T09:28:28.006Z</time></trkpt><trkpt lat="46.0434645" lon="13.508687"><ele>318.0</ele><time>2026-05-03T09:28:29.012Z</time></trkpt><trkpt lat="46.0435046" lon="13.508812"><ele>318.0</ele><time>2026-05-03T09:28:30.008Z</time></trkpt><trkpt lat="46.0435295" lon="13.5089431"><ele>318.0</ele><time>2026-05-03T09:28:31.013Z</time></trkpt><trkpt lat="46.0435453" lon="13.5090884"><ele>318.25</ele><time>2026-05-03T09:28:32.018Z</time></trkpt><trkpt lat="46.0435578" lon="13.5092554"><ele>318.5</ele><time>2026-05-03T09:28:33.01Z</time></trkpt><trkpt lat="46.0435629" lon="13.5094219"><ele>318.75</ele><time>2026-05-03T09:28:34.014Z</time></trkpt><trkpt lat="46.0435823" lon="13.5095836"><ele>319.0</ele><time>2026-05-03T09:28:35.019Z</time></trkpt><trkpt lat="46.0436042" lon="13.5097331"><ele>319.79999999999995</ele><time>2026-05-03T09:28:36.015Z</time></trkpt><trkpt lat="46.0436319" lon="13.5098798"><ele>320.59999999999997</ele><time>2026-05-03T09:28:37.013Z</time></trkpt><trkpt lat="46.0436612" lon="13.510019"><ele>321.4</ele><time>2026-05-03T09:28:38.008Z</time></trkpt><trkpt lat="46.043696" lon="13.5101513"><ele>322.2</ele><time>2026-05-03T09:28:39.019Z</time></trkpt><trkpt lat="46.0437276" lon="13.5102819"><ele>323.0</ele><time>2026-05-03T09:28:40.014Z</time></trkpt><trkpt lat="46.0437553" lon="13.5104012"><ele>323.0</ele><time>2026-05-03T09:28:41.011Z</time></trkpt><trkpt lat="46.0437815" lon="13.5105038"><ele>323.0</ele><time>2026-05-03T09:28:42.006Z</time></trkpt><trkpt lat="46.0438168" lon="13.5106574"><ele>323.0</ele><time>2026-05-03T09:28:44.013Z</time></trkpt><trkpt lat="46.0438048" lon="13.5107482"><ele>323.0</ele><time>2026-05-03T09:28:58.008Z</time></trkpt><trkpt lat="46.0437345" lon="13.510783"><ele>323.0</ele><time>2026-05-03T09:29:00.014Z</time></trkpt><trkpt lat="46.0436621" lon="13.5109445"><ele>323.0</ele><time>2026-05-03T09:29:02.02Z</time></trkpt><trkpt lat="46.0436554" lon="13.5110882"><ele>323.0</ele><time>2026-05-03T09:29:03.012Z</time></trkpt><trkpt lat="46.0436519" lon="13.5112435"><ele>323.0</ele><time>2026-05-03T09:29:04.015Z</time></trkpt><trkpt lat="46.0436444" lon="13.5113754"><ele>323.0</ele><time>2026-05-03T09:29:05.015Z</time></trkpt><trkpt lat="46.0436403" lon="13.5114955"><ele>323.0</ele><time>2026-05-03T09:29:06.018Z</time></trkpt><trkpt lat="46.0436145" lon="13.5116352"><ele>323.79999999999995</ele><time>2026-05-03T09:29:07.014Z</time></trkpt><trkpt lat="46.0435708" lon="13.5117628"><ele>324.6</ele><time>2026-05-03T09:29:08.016Z</time></trkpt><trkpt lat="46.0435118" lon="13.5118621"><ele>325.4</ele><time>2026-05-03T09:29:09.011Z</time></trkpt><trkpt lat="46.0434256" lon="13.5119049"><ele>326.20000000000005</ele><time>2026-05-03T09:29:10.016Z</time></trkpt><trkpt lat="46.0433172" lon="13.5119022"><ele>327.0</ele><time>2026-05-03T09:29:11.017Z</time></trkpt><trkpt lat="46.0431913" lon="13.5118755"><ele>327.0</ele><time>2026-05-03T09:29:12.016Z</time></trkpt><trkpt lat="46.0430474" lon="13.5118375"><ele>327.0</ele><time>2026-05-03T09:29:13.02Z</time></trkpt><trkpt lat="46.0428925" lon="13.5117929"><ele>327.0</ele><time>2026-05-03T09:29:14.009Z</time></trkpt><trkpt lat="46.0427282" lon="13.5117308"><ele>327.0</ele><time>2026-05-03T09:29:15.011Z</time></trkpt><trkpt lat="46.0425682" lon="13.5116765"><ele>327.0</ele><time>2026-05-03T09:29:16.017Z</time></trkpt><trkpt lat="46.0424294" lon="13.5116349"><ele>327.0</ele><time>2026-05-03T09:29:17.01Z</time></trkpt><trkpt lat="46.0423027" lon="13.5115967"><ele>327.0</ele><time>2026-05-03T09:29:18.007Z</time></trkpt><trkpt lat="46.0421785" lon="13.5115816"><ele>323.75</ele><time>2026-05-03T09:29:19.016Z</time></trkpt><trkpt lat="46.0420475" lon="13.5115954"><ele>320.5</ele><time>2026-05-03T09:29:20.012Z</time></trkpt><trkpt lat="46.0419106" lon="13.5116658"><ele>317.25</ele><time>2026-05-03T09:29:21.009Z</time></trkpt><trkpt lat="46.0417884" lon="13.5117689"><ele>314.0</ele><time>2026-05-03T09:29:22.009Z</time></trkpt><trkpt lat="46.0416673" lon="13.5118853"><ele>315.0</ele><time>2026-05-03T09:29:23.011Z</time></trkpt><trkpt lat="46.0415508" lon="13.5119954"><ele>316.0</ele><time>2026-05-03T09:29:24.017Z</time></trkpt><trkpt lat="46.0414365" lon="13.5120915"><ele>317.0</ele><time>2026-05-03T09:29:25.008Z</time></trkpt><trkpt lat="46.0413225" lon="13.512176"><ele>318.0</ele><time>2026-05-03T09:29:26.015Z</time></trkpt><trkpt lat="46.0412414" lon="13.5122604"><ele>318.0</ele><time>2026-05-03T09:29:27.022Z</time></trkpt><trkpt lat="46.0411708" lon="13.5122929"><ele>318.0</ele><time>2026-05-03T09:29:28.009Z</time></trkpt><trkpt lat="46.0410881" lon="13.5122091"><ele>318.0</ele><time>2026-05-03T09:29:30.02Z</time></trkpt><trkpt lat="46.0411257" lon="13.5120352"><ele>318.0</ele><time>2026-05-03T09:29:32.016Z</time></trkpt><trkpt lat="46.0412006" lon="13.5119716"><ele>318.0</ele><time>2026-05-03T09:29:33.008Z</time></trkpt><trkpt lat="46.0412996" lon="13.5119199"><ele>317.0</ele><time>2026-05-03T09:29:34.022Z</time></trkpt><trkpt lat="46.0414126" lon="13.5118558"><ele>316.0</ele><time>2026-05-03T09:29:35.015Z</time></trkpt><trkpt lat="46.0415177" lon="13.5117507"><ele>315.0</ele><time>2026-05-03T09:29:36.009Z</time></trkpt><trkpt lat="46.041624" lon="13.5116175"><ele>314.0</ele><time>2026-05-03T09:29:37.016Z</time></trkpt><trkpt lat="46.0417242" lon="13.5114799"><ele>314.0</ele><time>2026-05-03T09:29:38.008Z</time></trkpt><trkpt lat="46.041824" lon="13.5113555"><ele>314.0</ele><time>2026-05-03T09:29:39.01Z</time></trkpt><trkpt lat="46.0419279" lon="13.5112527"><ele>314.0</ele><time>2026-05-03T09:29:40.02Z</time></trkpt><trkpt lat="46.0420428" lon="13.511187"><ele>314.0</ele><time>2026-05-03T09:29:41.003Z</time></trkpt><trkpt lat="46.0421502" lon="13.5111515"><ele>311.1666666666667</ele><time>2026-05-03T09:29:42.014Z</time></trkpt><trkpt lat="46.0422473" lon="13.5111179"><ele>308.33333333333337</ele><time>2026-05-03T09:29:43.011Z</time></trkpt><trkpt lat="46.0423114" lon="13.5110783"><ele>305.5</ele><time>2026-05-03T09:29:44.019Z</time></trkpt><trkpt lat="46.0423166" lon="13.5109553"><ele>302.6666666666667</ele><time>2026-05-03T09:29:46.008Z</time></trkpt><trkpt lat="46.0422479" lon="13.5109016"><ele>299.8333333333333</ele><time>2026-05-03T09:29:47.004Z</time></trkpt><trkpt lat="46.0421487" lon="13.5109009"><ele>297.0</ele><time>2026-05-03T09:29:48.013Z</time></trkpt><trkpt lat="46.0420201" lon="13.5109491"><ele>297.0</ele><time>2026-05-03T09:29:49.006Z</time></trkpt><trkpt lat="46.0418792" lon="13.5110065"><ele>297.0</ele><time>2026-05-03T09:29:50.096Z</time></trkpt><trkpt lat="46.041735" lon="13.5110649"><ele>297.0</ele><time>2026-05-03T09:29:51.008Z</time></trkpt><trkpt lat="46.0415947" lon="13.5111345"><ele>297.0</ele><time>2026-05-03T09:29:52.021Z</time></trkpt><trkpt lat="46.0414801" lon="13.5112539"><ele>299.75</ele><time>2026-05-03T09:29:53.01Z</time></trkpt><trkpt lat="46.0413892" lon="13.5114031"><ele>302.5</ele><time>2026-05-03T09:29:54.008Z</time></trkpt><trkpt lat="46.0412933" lon="13.5115264"><ele>305.25</ele><time>2026-05-03T09:29:55.007Z</time></trkpt><trkpt lat="46.0411855" lon="13.5116323"><ele>308.0</ele><time>2026-05-03T09:29:56.004Z</time></trkpt><trkpt lat="46.0410717" lon="13.5116928"><ele>308.0</ele><time>2026-05-03T09:29:57.007Z</time></trkpt><trkpt lat="46.0409526" lon="13.5116991"><ele>308.0</ele><time>2026-05-03T09:29:58.008Z</time></trkpt><trkpt lat="46.0408485" lon="13.5116401"><ele>308.0</ele><time>2026-05-03T09:29:59.008Z</time></trkpt><trkpt lat="46.0407493" lon="13.5115201"><ele>308.0</ele><time>2026-05-03T09:30:00.016Z</time></trkpt><trkpt lat="46.0406637" lon="13.5113288"><ele>302.5</ele><time>2026-05-03T09:30:01.004Z</time></trkpt><trkpt lat="46.040585" lon="13.5111227"><ele>297.0</ele><time>2026-05-03T09:30:02.014Z</time></trkpt><trkpt lat="46.0405002" lon="13.5109424"><ele>291.5</ele><time>2026-05-03T09:30:03.012Z</time></trkpt><trkpt lat="46.0404087" lon="13.5108106"><ele>286.0</ele><time>2026-05-03T09:30:04.02Z</time></trkpt><trkpt lat="46.0402989" lon="13.5107692"><ele>286.0</ele><time>2026-05-03T09:30:05.004Z</time></trkpt><trkpt lat="46.0401738" lon="13.5108541"><ele>286.0</ele><time>2026-05-03T09:30:06.007Z</time></trkpt><trkpt lat="46.0400602" lon="13.5109872"><ele>286.0</ele><time>2026-05-03T09:30:07.008Z</time></trkpt><trkpt lat="46.0399494" lon="13.5110932"><ele>286.0</ele><time>2026-05-03T09:30:08.016Z</time></trkpt><trkpt lat="46.0398265" lon="13.5111608"><ele>285.0</ele><time>2026-05-03T09:30:09.008Z</time></trkpt><trkpt lat="46.0397011" lon="13.5111757"><ele>284.0</ele><time>2026-05-03T09:30:10.01Z</time></trkpt><trkpt lat="46.0395648" lon="13.5111267"><ele>283.0</ele><time>2026-05-03T09:30:11.019Z</time></trkpt><trkpt lat="46.0394185" lon="13.5110365"><ele>282.0</ele><time>2026-05-03T09:30:12.012Z</time></trkpt><trkpt lat="46.0392622" lon="13.5109176"><ele>281.25</ele><time>2026-05-03T09:30:13.01Z</time></trkpt><trkpt lat="46.0391177" lon="13.5108066"><ele>280.5</ele><time>2026-05-03T09:30:14.008Z</time></trkpt><trkpt lat="46.0389962" lon="13.5107335"><ele>279.75</ele><time>2026-05-03T09:30:15.014Z</time></trkpt><trkpt lat="46.0388448" lon="13.5106976"><ele>279.0</ele><time>2026-05-03T09:30:16.008Z</time></trkpt><trkpt lat="46.0386765" lon="13.5107354"><ele>279.0</ele><time>2026-05-03T09:30:17.006Z</time></trkpt><trkpt lat="46.0385238" lon="13.5107736"><ele>279.0</ele><time>2026-05-03T09:30:18.016Z</time></trkpt><trkpt lat="46.0383738" lon="13.5108032"><ele>279.0</ele><time>2026-05-03T09:30:19.015Z</time></trkpt><trkpt lat="46.0382363" lon="13.5107946"><ele>279.0</ele><time>2026-05-03T09:30:20.011Z</time></trkpt><trkpt lat="46.0381027" lon="13.5107498"><ele>276.25</ele><time>2026-05-03T09:30:21.011Z</time></trkpt><trkpt lat="46.0379679" lon="13.5106644"><ele>273.5</ele><time>2026-05-03T09:30:22.008Z</time></trkpt><trkpt lat="46.03785" lon="13.5106195"><ele>270.75</ele><time>2026-05-03T09:30:23.008Z</time></trkpt><trkpt lat="46.0377377" lon="13.5106274"><ele>268.0</ele><time>2026-05-03T09:30:24.016Z</time></trkpt><trkpt lat="46.0376103" lon="13.510721"><ele>268.0</ele><time>2026-05-03T09:30:25.009Z</time></trkpt><trkpt lat="46.037488" lon="13.5108638"><ele>268.0</ele><time>2026-05-03T09:30:26.009Z</time></trkpt><trkpt lat="46.0373598" lon="13.5109611"><ele>268.0</ele><time>2026-05-03T09:30:27.006Z</time></trkpt><trkpt lat="46.0372307" lon="13.5109922"><ele>268.0</ele><time>2026-05-03T09:30:28.012Z</time></trkpt><trkpt lat="46.0370955" lon="13.5109251"><ele>265.0</ele><time>2026-05-03T09:30:29.007Z</time></trkpt><trkpt lat="46.0369717" lon="13.5108421"><ele>262.0</ele><time>2026-05-03T09:30:30.003Z</time></trkpt><trkpt lat="46.0368597" lon="13.5107593"><ele>259.0</ele><time>2026-05-03T09:30:31.01Z</time></trkpt><trkpt lat="46.0367467" lon="13.5107105"><ele>256.0</ele><time>2026-05-03T09:30:32.015Z</time></trkpt><trkpt lat="46.036632" lon="13.5107598"><ele>258.0</ele><time>2026-05-03T09:30:33.01Z</time></trkpt><trkpt lat="46.0365243" lon="13.5108916"><ele>260.0</ele><time>2026-05-03T09:30:34.005Z</time></trkpt><trkpt lat="46.0364203" lon="13.5110313"><ele>262.0</ele><time>2026-05-03T09:30:35.01Z</time></trkpt><trkpt lat="46.0363185" lon="13.5111953"><ele>264.0</ele><time>2026-05-03T09:30:36.007Z</time></trkpt><trkpt lat="46.0362072" lon="13.5113443"><ele>264.0</ele><time>2026-05-03T09:30:37.009Z</time></trkpt><trkpt lat="46.036096" lon="13.511423"><ele>264.0</ele><time>2026-05-03T09:30:38.01Z</time></trkpt><trkpt lat="46.035981" lon="13.5113971"><ele>264.0</ele><time>2026-05-03T09:30:39.012Z</time></trkpt><trkpt lat="46.0358667" lon="13.5112919"><ele>264.0</ele><time>2026-05-03T09:30:40.006Z</time></trkpt><trkpt lat="46.0357518" lon="13.5112036"><ele>263.5</ele><time>2026-05-03T09:30:41.009Z</time></trkpt><trkpt lat="46.035626" lon="13.5111571"><ele>263.0</ele><time>2026-05-03T09:30:42.01Z</time></trkpt><trkpt lat="46.035483" lon="13.5111515"><ele>262.5</ele><time>2026-05-03T09:30:43.01Z</time></trkpt><trkpt lat="46.0353198" lon="13.5111916"><ele>262.0</ele><time>2026-05-03T09:30:44.012Z</time></trkpt><trkpt lat="46.0351694" lon="13.5112913"><ele>262.0</ele><time>2026-05-03T09:30:45.015Z</time></trkpt><trkpt lat="46.0350276" lon="13.5113483"><ele>262.0</ele><time>2026-05-03T09:30:46.014Z</time></trkpt><trkpt lat="46.0348839" lon="13.5113755"><ele>262.0</ele><time>2026-05-03T09:30:47.014Z</time></trkpt><trkpt lat="46.0347603" lon="13.5113856"><ele>262.0</ele><time>2026-05-03T09:30:48.013Z</time></trkpt><trkpt lat="46.0346335" lon="13.5113858"><ele>261.0</ele><time>2026-05-03T09:30:49.008Z</time></trkpt><trkpt lat="46.0345157" lon="13.5113404"><ele>260.0</ele><time>2026-05-03T09:30:50.015Z</time></trkpt><trkpt lat="46.0344144" lon="13.5112311"><ele>259.0</ele><time>2026-05-03T09:30:51.007Z</time></trkpt><trkpt lat="46.0343494" lon="13.5110694"><ele>258.0</ele><time>2026-05-03T09:30:52.004Z</time></trkpt><trkpt lat="46.0342856" lon="13.5108838"><ele>255.75</ele><time>2026-05-03T09:30:53.009Z</time></trkpt><trkpt lat="46.0341989" lon="13.5107295"><ele>253.5</ele><time>2026-05-03T09:30:54.011Z</time></trkpt><trkpt lat="46.0341036" lon="13.5106287"><ele>251.25</ele><time>2026-05-03T09:30:55.019Z</time></trkpt><trkpt lat="46.0339969" lon="13.5105792"><ele>249.0</ele><time>2026-05-03T09:30:56.011Z</time></trkpt><trkpt lat="46.0338738" lon="13.5105875"><ele>249.0</ele><time>2026-05-03T09:30:57.012Z</time></trkpt><trkpt lat="46.0337402" lon="13.5106252"><ele>249.0</ele><time>2026-05-03T09:30:58.008Z</time></trkpt><trkpt lat="46.0335981" lon="13.510654"><ele>249.0</ele><time>2026-05-03T09:30:59.016Z</time></trkpt><trkpt lat="46.0334645" lon="13.5106244"><ele>249.0</ele><time>2026-05-03T09:31:00.021Z</time></trkpt><trkpt lat="46.0333365" lon="13.5105312"><ele>248.33333333333331</ele><time>2026-05-03T09:31:01.02Z</time></trkpt><trkpt lat="46.0332065" lon="13.5104343"><ele>247.66666666666666</ele><time>2026-05-03T09:31:02.008Z</time></trkpt><trkpt lat="46.0330616" lon="13.5103638"><ele>247.0</ele><time>2026-05-03T09:31:03.006Z</time></trkpt><trkpt lat="46.0329098" lon="13.5103024"><ele>244.0</ele><time>2026-05-03T09:31:04.01Z</time></trkpt><trkpt lat="46.032751" lon="13.5102631"><ele>241.0</ele><time>2026-05-03T09:31:05.022Z</time></trkpt><trkpt lat="46.0325936" lon="13.5102394"><ele>238.0</ele><time>2026-05-03T09:31:06.007Z</time></trkpt><trkpt lat="46.0324346" lon="13.5102244"><ele>238.0</ele><time>2026-05-03T09:31:07.007Z</time></trkpt><trkpt lat="46.032293" lon="13.5102211"><ele>238.0</ele><time>2026-05-03T09:31:08.014Z</time></trkpt><trkpt lat="46.0321672" lon="13.5101861"><ele>238.0</ele><time>2026-05-03T09:31:09.016Z</time></trkpt><trkpt lat="46.0320512" lon="13.510094"><ele>238.0</ele><time>2026-05-03T09:31:10.009Z</time></trkpt><trkpt lat="46.0319786" lon="13.5099524"><ele>238.0</ele><time>2026-05-03T09:31:11.021Z</time></trkpt><trkpt lat="46.0319105" lon="13.5098168"><ele>238.0</ele><time>2026-05-03T09:31:12.009Z</time></trkpt><trkpt lat="46.0318116" lon="13.50972"><ele>238.0</ele><time>2026-05-03T09:31:13.01Z</time></trkpt><trkpt lat="46.031681" lon="13.5096932"><ele>238.0</ele><time>2026-05-03T09:31:14.02Z</time></trkpt><trkpt lat="46.031547" lon="13.5096943"><ele>239.75</ele><time>2026-05-03T09:31:15.007Z</time></trkpt><trkpt lat="46.0314219" lon="13.5096899"><ele>241.5</ele><time>2026-05-03T09:31:16.024Z</time></trkpt><trkpt lat="46.0313131" lon="13.5096394"><ele>243.25</ele><time>2026-05-03T09:31:17.003Z</time></trkpt><trkpt lat="46.0312138" lon="13.5095603"><ele>245.0</ele><time>2026-05-03T09:31:18.006Z</time></trkpt><trkpt lat="46.0311404" lon="13.5094568"><ele>240.8</ele><time>2026-05-03T09:31:19.006Z</time></trkpt><trkpt lat="46.0310741" lon="13.509332"><ele>236.6</ele><time>2026-05-03T09:31:20.006Z</time></trkpt><trkpt lat="46.0310038" lon="13.5092435"><ele>232.39999999999998</ele><time>2026-05-03T09:31:21.008Z</time></trkpt><trkpt lat="46.0309078" lon="13.5091977"><ele>228.2</ele><time>2026-05-03T09:31:22.012Z</time></trkpt><trkpt lat="46.030802" lon="13.5091924"><ele>224.0</ele><time>2026-05-03T09:31:23.011Z</time></trkpt><trkpt lat="46.0306833" lon="13.5092322"><ele>224.0</ele><time>2026-05-03T09:31:24.007Z</time></trkpt><trkpt lat="46.0305669" lon="13.509241"><ele>224.0</ele><time>2026-05-03T09:31:25.015Z</time></trkpt><trkpt lat="46.0304621" lon="13.5091975"><ele>224.0</ele><time>2026-05-03T09:31:26.012Z</time></trkpt><trkpt lat="46.0303649" lon="13.5091201"><ele>224.0</ele><time>2026-05-03T09:31:27.007Z</time></trkpt><trkpt lat="46.0302645" lon="13.5090162"><ele>224.0</ele><time>2026-05-03T09:31:28.012Z</time></trkpt><trkpt lat="46.0301633" lon="13.50891"><ele>224.0</ele><time>2026-05-03T09:31:29.018Z</time></trkpt><trkpt lat="46.0300532" lon="13.5088125"><ele>224.0</ele><time>2026-05-03T09:31:30.013Z</time></trkpt><trkpt lat="46.0299436" lon="13.5087202"><ele>224.0</ele><time>2026-05-03T09:31:31.009Z</time></trkpt><trkpt lat="46.0298418" lon="13.5086292"><ele>221.6</ele><time>2026-05-03T09:31:32.009Z</time></trkpt><trkpt lat="46.0297404" lon="13.5085394"><ele>219.2</ele><time>2026-05-03T09:31:33.014Z</time></trkpt><trkpt lat="46.0296504" lon="13.5084312"><ele>216.79999999999998</ele><time>2026-05-03T09:31:34.008Z</time></trkpt><trkpt lat="46.0295909" lon="13.5083055"><ele>214.39999999999998</ele><time>2026-05-03T09:31:35.016Z</time></trkpt><trkpt lat="46.02957" lon="13.5081582"><ele>212.0</ele><time>2026-05-03T09:31:36.016Z</time></trkpt><trkpt lat="46.0295686" lon="13.5080053"><ele>210.00000000000003</ele><time>2026-05-03T09:31:37.015Z</time></trkpt><trkpt lat="46.0295647" lon="13.5078557"><ele>208.0</ele><time>2026-05-03T09:31:38.007Z</time></trkpt><trkpt lat="46.0295611" lon="13.5077236"><ele>206.0</ele><time>2026-05-03T09:31:39.016Z</time></trkpt><trkpt lat="46.0295539" lon="13.507618"><ele>204.0</ele><time>2026-05-03T09:31:40Z</time></trkpt><trkpt lat="46.029532" lon="13.5075072"><ele>202.00000000000003</ele><time>2026-05-03T09:31:42.007Z</time></trkpt><trkpt lat="46.0294605" lon="13.5074176"><ele>200.0</ele><time>2026-05-03T09:31:44.013Z</time></trkpt><trkpt lat="46.0293899" lon="13.5073686"><ele>200.0</ele><time>2026-05-03T09:31:45.012Z</time></trkpt><trkpt lat="46.0292882" lon="13.5073422"><ele>200.0</ele><time>2026-05-03T09:31:46.005Z</time></trkpt><trkpt lat="46.02917" lon="13.5073526"><ele>200.0</ele><time>2026-05-03T09:31:47.005Z</time></trkpt><trkpt lat="46.0290442" lon="13.5073915"><ele>200.0</ele><time>2026-05-03T09:31:48.008Z</time></trkpt><trkpt lat="46.0289175" lon="13.5074304"><ele>198.25</ele><time>2026-05-03T09:31:49.006Z</time></trkpt><trkpt lat="46.0287861" lon="13.5074715"><ele>196.5</ele><time>2026-05-03T09:31:50.014Z</time></trkpt><trkpt lat="46.0286587" lon="13.5075055"><ele>194.75</ele><time>2026-05-03T09:31:51.013Z</time></trkpt><trkpt lat="46.0285386" lon="13.5075039"><ele>193.0</ele><time>2026-05-03T09:31:52.009Z</time></trkpt><trkpt lat="46.0284183" lon="13.5074757"><ele>193.0</ele><time>2026-05-03T09:31:53.008Z</time></trkpt><trkpt lat="46.0283134" lon="13.5074447"><ele>193.0</ele><time>2026-05-03T09:31:54.011Z</time></trkpt><trkpt lat="46.0282126" lon="13.5074437"><ele>193.0</ele><time>2026-05-03T09:31:55.012Z</time></trkpt><trkpt lat="46.0281297" lon="13.5074701"><ele>193.0</ele><time>2026-05-03T09:31:56.008Z</time></trkpt><trkpt lat="46.0280753" lon="13.5075802"><ele>193.0</ele><time>2026-05-03T09:31:58.012Z</time></trkpt><trkpt lat="46.0280837" lon="13.5076848"><ele>193.5</ele><time>2026-05-03T09:31:59.008Z</time></trkpt><trkpt lat="46.0281191" lon="13.5077958"><ele>194.0</ele><time>2026-05-03T09:32:00.01Z</time></trkpt><trkpt lat="46.028189" lon="13.5079218"><ele>194.5</ele><time>2026-05-03T09:32:01.018Z</time></trkpt><trkpt lat="46.02825" lon="13.5080827"><ele>195.0</ele><time>2026-05-03T09:32:02.003Z</time></trkpt><trkpt lat="46.028302" lon="13.5082526"><ele>194.5</ele><time>2026-05-03T09:32:03.014Z</time></trkpt><trkpt lat="46.0283304" lon="13.5084458"><ele>194.0</ele><time>2026-05-03T09:32:04.004Z</time></trkpt><trkpt lat="46.0283362" lon="13.5086485"><ele>193.5</ele><time>2026-05-03T09:32:05.01Z</time></trkpt><trkpt lat="46.028331" lon="13.5088382"><ele>193.0</ele><time>2026-05-03T09:32:06.003Z</time></trkpt><trkpt lat="46.028328" lon="13.509011"><ele>191.4</ele><time>2026-05-03T09:32:07.002Z</time></trkpt><trkpt lat="46.0283276" lon="13.509175"><ele>189.8</ele><time>2026-05-03T09:32:08.004Z</time></trkpt><trkpt lat="46.0283412" lon="13.509327"><ele>188.2</ele><time>2026-05-03T09:32:09.013Z</time></trkpt><trkpt lat="46.028382" lon="13.5094593"><ele>186.6</ele><time>2026-05-03T09:32:10.01Z</time></trkpt><trkpt lat="46.0284386" lon="13.5095676"><ele>185.0</ele><time>2026-05-03T09:32:11.003Z</time></trkpt><trkpt lat="46.028525" lon="13.5096396"><ele>183.6</ele><time>2026-05-03T09:32:12.004Z</time></trkpt><trkpt lat="46.0286146" lon="13.5096998"><ele>182.2</ele><time>2026-05-03T09:32:13.002Z</time></trkpt><trkpt lat="46.028688" lon="13.5097895"><ele>180.8</ele><time>2026-05-03T09:32:14.009Z</time></trkpt><trkpt lat="46.0287275" lon="13.509914"><ele>179.4</ele><time>2026-05-03T09:32:15.021Z</time></trkpt><trkpt lat="46.0287209" lon="13.5100589"><ele>178.0</ele><time>2026-05-03T09:32:16.002Z</time></trkpt><trkpt lat="46.0287023" lon="13.5101974"><ele>178.0</ele><time>2026-05-03T09:32:17.012Z</time></trkpt><trkpt lat="46.0286805" lon="13.5103361"><ele>178.0</ele><time>2026-05-03T09:32:18.013Z</time></trkpt><trkpt lat="46.028645" lon="13.5104694"><ele>178.0</ele><time>2026-05-03T09:32:19.006Z</time></trkpt><trkpt lat="46.0286042" lon="13.510591"><ele>178.0</ele><time>2026-05-03T09:32:20.009Z</time></trkpt><trkpt lat="46.0285394" lon="13.5106683"><ele>178.0</ele><time>2026-05-03T09:32:21.011Z</time></trkpt><trkpt lat="46.0284684" lon="13.5107377"><ele>179.0</ele><time>2026-05-03T09:32:22.01Z</time></trkpt><trkpt lat="46.0283909" lon="13.5107744"><ele>180.0</ele><time>2026-05-03T09:32:23.019Z</time></trkpt><trkpt lat="46.0283038" lon="13.5107871"><ele>181.0</ele><time>2026-05-03T09:32:24.011Z</time></trkpt><trkpt lat="46.0281966" lon="13.5107796"><ele>182.0</ele><time>2026-05-03T09:32:25.012Z</time></trkpt><trkpt lat="46.0280948" lon="13.510826"><ele>183.0</ele><time>2026-05-03T09:32:26.006Z</time></trkpt><trkpt lat="46.0280024" lon="13.5109065"><ele>180.2</ele><time>2026-05-03T09:32:27.011Z</time></trkpt><trkpt lat="46.0279245" lon="13.5109887"><ele>177.4</ele><time>2026-05-03T09:32:28.018Z</time></trkpt><trkpt lat="46.0278531" lon="13.5110597"><ele>174.6</ele><time>2026-05-03T09:32:29.022Z</time></trkpt><trkpt lat="46.0277717" lon="13.511127"><ele>171.79999999999998</ele><time>2026-05-03T09:32:30.017Z</time></trkpt><trkpt lat="46.02768" lon="13.5111364"><ele>169.0</ele><time>2026-05-03T09:32:31.013Z</time></trkpt><trkpt lat="46.0275842" lon="13.5110776"><ele>169.0</ele><time>2026-05-03T09:32:32.015Z</time></trkpt><trkpt lat="46.0275004" lon="13.5109492"><ele>169.0</ele><time>2026-05-03T09:32:33.004Z</time></trkpt><trkpt lat="46.0274147" lon="13.510789"><ele>169.0</ele><time>2026-05-03T09:32:34.021Z</time></trkpt><trkpt lat="46.0273299" lon="13.5106162"><ele>169.0</ele><time>2026-05-03T09:32:35.019Z</time></trkpt><trkpt lat="46.0272398" lon="13.5104802"><ele>166.25</ele><time>2026-05-03T09:32:36.007Z</time></trkpt><trkpt lat="46.0271433" lon="13.5103694"><ele>163.5</ele><time>2026-05-03T09:32:37.006Z</time></trkpt><trkpt lat="46.027041" lon="13.5102919"><ele>160.75</ele><time>2026-05-03T09:32:38.017Z</time></trkpt><trkpt lat="46.0269357" lon="13.5102761"><ele>158.0</ele><time>2026-05-03T09:32:39.01Z</time></trkpt><trkpt lat="46.0268237" lon="13.5103172"><ele>158.0</ele><time>2026-05-03T09:32:40.005Z</time></trkpt><trkpt lat="46.0267019" lon="13.5103979"><ele>158.0</ele><time>2026-05-03T09:32:41.004Z</time></trkpt><trkpt lat="46.0265764" lon="13.5104663"><ele>158.0</ele><time>2026-05-03T09:32:42.008Z</time></trkpt><trkpt lat="46.0264499" lon="13.510511"><ele>158.0</ele><time>2026-05-03T09:32:43.005Z</time></trkpt><trkpt lat="46.0263282" lon="13.5105433"><ele>155.5</ele><time>2026-05-03T09:32:44.009Z</time></trkpt><trkpt lat="46.0262091" lon="13.5105897"><ele>153.0</ele><time>2026-05-03T09:32:45.007Z</time></trkpt><trkpt lat="46.0260951" lon="13.5106619"><ele>150.5</ele><time>2026-05-03T09:32:46.018Z</time></trkpt><trkpt lat="46.0259818" lon="13.5107538"><ele>148.0</ele><time>2026-05-03T09:32:47.009Z</time></trkpt><trkpt lat="46.0258707" lon="13.5108499"><ele>147.0</ele><time>2026-05-03T09:32:48.008Z</time></trkpt><trkpt lat="46.0257715" lon="13.5109631"><ele>146.0</ele><time>2026-05-03T09:32:49.005Z</time></trkpt><trkpt lat="46.025693" lon="13.5111008"><ele>145.0</ele><time>2026-05-03T09:32:50.009Z</time></trkpt><trkpt lat="46.0256296" lon="13.5112388"><ele>144.0</ele><time>2026-05-03T09:32:51.006Z</time></trkpt><trkpt lat="46.0255576" lon="13.5113338"><ele>144.0</ele><time>2026-05-03T09:32:52.006Z</time></trkpt><trkpt lat="46.0254731" lon="13.5113768"><ele>144.0</ele><time>2026-05-03T09:32:53.009Z</time></trkpt><trkpt lat="46.0253701" lon="13.5113791"><ele>144.0</ele><time>2026-05-03T09:32:54.01Z</time></trkpt><trkpt lat="46.0252617" lon="13.5113702"><ele>144.0</ele><time>2026-05-03T09:32:55.014Z</time></trkpt><trkpt lat="46.0251469" lon="13.5113682"><ele>144.0</ele><time>2026-05-03T09:32:56.013Z</time></trkpt><trkpt lat="46.0250306" lon="13.5113753"><ele>142.25</ele><time>2026-05-03T09:32:57.01Z</time></trkpt><trkpt lat="46.0249125" lon="13.5114132"><ele>140.5</ele><time>2026-05-03T09:32:58.011Z</time></trkpt><trkpt lat="46.0247953" lon="13.511482"><ele>138.75</ele><time>2026-05-03T09:32:59.005Z</time></trkpt><trkpt lat="46.0246822" lon="13.5115621"><ele>137.0</ele><time>2026-05-03T09:33:00.012Z</time></trkpt><trkpt lat="46.0245783" lon="13.5116351"><ele>137.0</ele><time>2026-05-03T09:33:01.006Z</time></trkpt><trkpt lat="46.02448" lon="13.5117338"><ele>137.0</ele><time>2026-05-03T09:33:02.018Z</time></trkpt><trkpt lat="46.0243727" lon="13.5117991"><ele>137.0</ele><time>2026-05-03T09:33:03.018Z</time></trkpt><trkpt lat="46.0242678" lon="13.5118459"><ele>137.0</ele><time>2026-05-03T09:33:04.009Z</time></trkpt><trkpt lat="46.0241527" lon="13.5118828"><ele>135.25</ele><time>2026-05-03T09:33:05.006Z</time></trkpt><trkpt lat="46.0240314" lon="13.5119329"><ele>133.5</ele><time>2026-05-03T09:33:06.004Z</time></trkpt><trkpt lat="46.0239062" lon="13.5119952"><ele>131.75</ele><time>2026-05-03T09:33:07.016Z</time></trkpt><trkpt lat="46.0237816" lon="13.5120901"><ele>130.0</ele><time>2026-05-03T09:33:08.007Z</time></trkpt><trkpt lat="46.0236686" lon="13.5122071"><ele>130.0</ele><time>2026-05-03T09:33:09.003Z</time></trkpt><trkpt lat="46.0235606" lon="13.5123328"><ele>130.0</ele><time>2026-05-03T09:33:10.009Z</time></trkpt><trkpt lat="46.0234649" lon="13.5124611"><ele>130.0</ele><time>2026-05-03T09:33:11.002Z</time></trkpt><trkpt lat="46.0233745" lon="13.5125874"><ele>130.0</ele><time>2026-05-03T09:33:12.002Z</time></trkpt><trkpt lat="46.0232822" lon="13.512717"><ele>132.0</ele><time>2026-05-03T09:33:13.006Z</time></trkpt><trkpt lat="46.0231913" lon="13.5128522"><ele>134.0</ele><time>2026-05-03T09:33:14.009Z</time></trkpt><trkpt lat="46.0231111" lon="13.5129949"><ele>136.0</ele><time>2026-05-03T09:33:15.005Z</time></trkpt><trkpt lat="46.0230381" lon="13.5131385"><ele>138.0</ele><time>2026-05-03T09:33:16.01Z</time></trkpt><trkpt lat="46.0229651" lon="13.5132761"><ele>134.66666666666666</ele><time>2026-05-03T09:33:17.006Z</time></trkpt><trkpt lat="46.0229031" lon="13.513403"><ele>131.33333333333334</ele><time>2026-05-03T09:33:18.008Z</time></trkpt><trkpt lat="46.0228499" lon="13.5135268"><ele>128.0</ele><time>2026-05-03T09:33:19.011Z</time></trkpt><trkpt lat="46.0228115" lon="13.5136301"><ele>124.66666666666667</ele><time>2026-05-03T09:33:20.01Z</time></trkpt><trkpt lat="46.0228058" lon="13.5137295"><ele>121.33333333333334</ele><time>2026-05-03T09:33:21.006Z</time></trkpt><trkpt lat="46.0228193" lon="13.5138328"><ele>118.0</ele><time>2026-05-03T09:33:22.013Z</time></trkpt><trkpt lat="46.0228486" lon="13.5139413"><ele>115.80000000000001</ele><time>2026-05-03T09:33:23.015Z</time></trkpt><trkpt lat="46.0228826" lon="13.5140643"><ele>113.60000000000001</ele><time>2026-05-03T09:33:24.001Z</time></trkpt><trkpt lat="46.0229162" lon="13.5142031"><ele>111.39999999999999</ele><time>2026-05-03T09:33:25.015Z</time></trkpt><trkpt lat="46.0229499" lon="13.5143558"><ele>109.19999999999999</ele><time>2026-05-03T09:33:26.012Z</time></trkpt><trkpt lat="46.022986" lon="13.5145183"><ele>107.0</ele><time>2026-05-03T09:33:27.014Z</time></trkpt><trkpt lat="46.0230264" lon="13.514694"><ele>107.0</ele><time>2026-05-03T09:33:28.011Z</time></trkpt><trkpt lat="46.0230753" lon="13.5148768"><ele>107.0</ele><time>2026-05-03T09:33:29.005Z</time></trkpt><trkpt lat="46.0231236" lon="13.5150642"><ele>107.0</ele><time>2026-05-03T09:33:30.013Z</time></trkpt><trkpt lat="46.0231647" lon="13.5152548"><ele>107.0</ele><time>2026-05-03T09:33:31.009Z</time></trkpt><trkpt lat="46.0231977" lon="13.5154475"><ele>108.75</ele><time>2026-05-03T09:33:32.016Z</time></trkpt><trkpt lat="46.0232237" lon="13.5156358"><ele>110.5</ele><time>2026-05-03T09:33:33.006Z</time></trkpt><trkpt lat="46.0232513" lon="13.515815"><ele>112.25</ele><time>2026-05-03T09:33:34.001Z</time></trkpt><trkpt lat="46.0232822" lon="13.5159901"><ele>114.0</ele><time>2026-05-03T09:33:35.011Z</time></trkpt><trkpt lat="46.0233137" lon="13.5161588"><ele>114.75</ele><time>2026-05-03T09:33:36.009Z</time></trkpt><trkpt lat="46.023356" lon="13.51632"><ele>115.5</ele><time>2026-05-03T09:33:37.009Z</time></trkpt><trkpt lat="46.0234259" lon="13.5164636"><ele>116.25</ele><time>2026-05-03T09:33:38.022Z</time></trkpt><trkpt lat="46.0235252" lon="13.5165757"><ele>117.0</ele><time>2026-05-03T09:33:39.007Z</time></trkpt><trkpt lat="46.0236402" lon="13.5166724"><ele>117.0</ele><time>2026-05-03T09:33:40.024Z</time></trkpt><trkpt lat="46.0237627" lon="13.5167651"><ele>117.0</ele><time>2026-05-03T09:33:41.004Z</time></trkpt><trkpt lat="46.0239005" lon="13.5168318"><ele>117.0</ele><time>2026-05-03T09:33:42.006Z</time></trkpt><trkpt lat="46.0240474" lon="13.5168958"><ele>117.0</ele><time>2026-05-03T09:33:43.006Z</time></trkpt><trkpt lat="46.0241885" lon="13.5169598"><ele>116.75</ele><time>2026-05-03T09:33:44.005Z</time></trkpt><trkpt lat="46.0243264" lon="13.5170346"><ele>116.5</ele><time>2026-05-03T09:33:45.015Z</time></trkpt><trkpt lat="46.0244635" lon="13.5171156"><ele>116.25</ele><time>2026-05-03T09:33:46.01Z</time></trkpt><trkpt lat="46.0245998" lon="13.5172089"><ele>116.0</ele><time>2026-05-03T09:33:47.014Z</time></trkpt><trkpt lat="46.0247329" lon="13.5173128"><ele>118.66666666666666</ele><time>2026-05-03T09:33:48.016Z</time></trkpt><trkpt lat="46.0248555" lon="13.5174486"><ele>121.33333333333334</ele><time>2026-05-03T09:33:49.002Z</time></trkpt><trkpt lat="46.0249804" lon="13.5175896"><ele>124.0</ele><time>2026-05-03T09:33:50.006Z</time></trkpt><trkpt lat="46.0251133" lon="13.5177192"><ele>124.0</ele><time>2026-05-03T09:33:51.008Z</time></trkpt><trkpt lat="46.0252496" lon="13.5178382"><ele>124.0</ele><time>2026-05-03T09:33:52.016Z</time></trkpt><trkpt lat="46.0253863" lon="13.5179564"><ele>124.0</ele><time>2026-05-03T09:33:53.013Z</time></trkpt><trkpt lat="46.025513" lon="13.518067"><ele>125.25</ele><time>2026-05-03T09:33:54.007Z</time></trkpt><trkpt lat="46.0256371" lon="13.518172"><ele>126.5</ele><time>2026-05-03T09:33:55.008Z</time></trkpt><trkpt lat="46.0257591" lon="13.5182674"><ele>127.75</ele><time>2026-05-03T09:33:56.011Z</time></trkpt><trkpt lat="46.0258631" lon="13.5183449"><ele>129.0</ele><time>2026-05-03T09:33:57.009Z</time></trkpt><trkpt lat="46.0259367" lon="13.5184455"><ele>129.0</ele><time>2026-05-03T09:33:58.024Z</time></trkpt><trkpt lat="46.025977" lon="13.5185863"><ele>129.0</ele><time>2026-05-03T09:33:59.013Z</time></trkpt><trkpt lat="46.0260431" lon="13.5187256"><ele>129.0</ele><time>2026-05-03T09:34:00.009Z</time></trkpt><trkpt lat="46.0261164" lon="13.5188754"><ele>129.0</ele><time>2026-05-03T09:34:01.012Z</time></trkpt><trkpt lat="46.0261922" lon="13.5190266"><ele>135.25</ele><time>2026-05-03T09:34:02.013Z</time></trkpt><trkpt lat="46.0262842" lon="13.5191815"><ele>141.5</ele><time>2026-05-03T09:34:03.003Z</time></trkpt><trkpt lat="46.0263763" lon="13.5193304"><ele>147.75</ele><time>2026-05-03T09:34:04.007Z</time></trkpt><trkpt lat="46.0264641" lon="13.519486"><ele>154.0</ele><time>2026-05-03T09:34:05.007Z</time></trkpt><trkpt lat="46.0265492" lon="13.5196485"><ele>149.75</ele><time>2026-05-03T09:34:06.006Z</time></trkpt><trkpt lat="46.0266187" lon="13.5198186"><ele>145.5</ele><time>2026-05-03T09:34:07.009Z</time></trkpt><trkpt lat="46.026692" lon="13.5199993"><ele>141.25</ele><time>2026-05-03T09:34:08.012Z</time></trkpt><trkpt lat="46.0267534" lon="13.5201812"><ele>137.0</ele><time>2026-05-03T09:34:09.014Z</time></trkpt><trkpt lat="46.026822" lon="13.5203597"><ele>143.75</ele><time>2026-05-03T09:34:10.007Z</time></trkpt><trkpt lat="46.0269082" lon="13.5204978"><ele>150.5</ele><time>2026-05-03T09:34:11.017Z</time></trkpt><trkpt lat="46.0269993" lon="13.5206015"><ele>157.25</ele><time>2026-05-03T09:34:12.008Z</time></trkpt><trkpt lat="46.027074" lon="13.5207029"><ele>164.0</ele><time>2026-05-03T09:34:13.006Z</time></trkpt><trkpt lat="46.0271526" lon="13.5207968"><ele>164.0</ele><time>2026-05-03T09:34:14.004Z</time></trkpt><trkpt lat="46.0272131" lon="13.5208964"><ele>164.0</ele><time>2026-05-03T09:34:15.017Z</time></trkpt><trkpt lat="46.0272711" lon="13.5209988"><ele>164.0</ele><time>2026-05-03T09:34:16.022Z</time></trkpt><trkpt lat="46.0273376" lon="13.5210955"><ele>164.0</ele><time>2026-05-03T09:34:17.015Z</time></trkpt><trkpt lat="46.0274116" lon="13.5212009"><ele>164.0</ele><time>2026-05-03T09:34:18.017Z</time></trkpt><trkpt lat="46.0274808" lon="13.521323"><ele>159.25</ele><time>2026-05-03T09:34:19.003Z</time></trkpt><trkpt lat="46.0275551" lon="13.5214603"><ele>154.5</ele><time>2026-05-03T09:34:20.012Z</time></trkpt><trkpt lat="46.027608" lon="13.5216195"><ele>149.75</ele><time>2026-05-03T09:34:21.002Z</time></trkpt><trkpt lat="46.0276535" lon="13.5217903"><ele>145.0</ele><time>2026-05-03T09:34:22.009Z</time></trkpt><trkpt lat="46.0276875" lon="13.5219732"><ele>147.75</ele><time>2026-05-03T09:34:23.007Z</time></trkpt><trkpt lat="46.027707" lon="13.5221688"><ele>150.5</ele><time>2026-05-03T09:34:24.015Z</time></trkpt><trkpt lat="46.0277061" lon="13.522375"><ele>153.25</ele><time>2026-05-03T09:34:25.013Z</time></trkpt><trkpt lat="46.0277103" lon="13.5225853"><ele>156.0</ele><time>2026-05-03T09:34:26.005Z</time></trkpt><trkpt lat="46.0277362" lon="13.5227806"><ele>161.0</ele><time>2026-05-03T09:34:27.005Z</time></trkpt><trkpt lat="46.0277866" lon="13.5229584"><ele>166.0</ele><time>2026-05-03T09:34:28.016Z</time></trkpt><trkpt lat="46.0278531" lon="13.5231341"><ele>171.0</ele><time>2026-05-03T09:34:29.004Z</time></trkpt><trkpt lat="46.0279305" lon="13.5233099"><ele>176.0</ele><time>2026-05-03T09:34:30.007Z</time></trkpt><trkpt lat="46.0280233" lon="13.5234898"><ele>176.0</ele><time>2026-05-03T09:34:31.013Z</time></trkpt><trkpt lat="46.0281212" lon="13.5236703"><ele>176.0</ele><time>2026-05-03T09:34:32.014Z</time></trkpt><trkpt lat="46.0282225" lon="13.5238161"><ele>176.0</ele><time>2026-05-03T09:34:33.007Z</time></trkpt><trkpt lat="46.0283365" lon="13.5239287"><ele>176.0</ele><time>2026-05-03T09:34:34.005Z</time></trkpt><trkpt lat="46.028436" lon="13.5240308"><ele>173.5</ele><time>2026-05-03T09:34:35.008Z</time></trkpt><trkpt lat="46.0285043" lon="13.5241546"><ele>171.0</ele><time>2026-05-03T09:34:36.017Z</time></trkpt><trkpt lat="46.0285216" lon="13.5242994"><ele>168.5</ele><time>2026-05-03T09:34:37.013Z</time></trkpt><trkpt lat="46.0285296" lon="13.5244679"><ele>166.0</ele><time>2026-05-03T09:34:38.007Z</time></trkpt><trkpt lat="46.0285492" lon="13.5246501"><ele>166.0</ele><time>2026-05-03T09:34:39.016Z</time></trkpt><trkpt lat="46.0285824" lon="13.5248582"><ele>166.0</ele><time>2026-05-03T09:34:40.006Z</time></trkpt><trkpt lat="46.0286186" lon="13.5250495"><ele>166.0</ele><time>2026-05-03T09:34:41.003Z</time></trkpt><trkpt lat="46.0286563" lon="13.5252251"><ele>166.0</ele><time>2026-05-03T09:34:42.008Z</time></trkpt><trkpt lat="46.0286956" lon="13.5254055"><ele>169.20000000000002</ele><time>2026-05-03T09:34:43.011Z</time></trkpt><trkpt lat="46.0287302" lon="13.5255627"><ele>172.4</ele><time>2026-05-03T09:34:44.007Z</time></trkpt><trkpt lat="46.0287691" lon="13.525686"><ele>175.6</ele><time>2026-05-03T09:34:45.014Z</time></trkpt><trkpt lat="46.0288324" lon="13.5257675"><ele>178.8</ele><time>2026-05-03T09:34:46.007Z</time></trkpt><trkpt lat="46.028914" lon="13.5258016"><ele>182.0</ele><time>2026-05-03T09:34:47.009Z</time></trkpt><trkpt lat="46.0289986" lon="13.5258045"><ele>182.0</ele><time>2026-05-03T09:34:48.004Z</time></trkpt><trkpt lat="46.0290708" lon="13.525812"><ele>182.0</ele><time>2026-05-03T09:34:49.012Z</time></trkpt><trkpt lat="46.0291268" lon="13.5258648"><ele>182.0</ele><time>2026-05-03T09:34:50.003Z</time></trkpt><trkpt lat="46.0291714" lon="13.5259713"><ele>182.0</ele><time>2026-05-03T09:34:51.009Z</time></trkpt><trkpt lat="46.0292021" lon="13.5261106"><ele>182.0</ele><time>2026-05-03T09:34:52.009Z</time></trkpt><trkpt lat="46.0292379" lon="13.5262744"><ele>182.0</ele><time>2026-05-03T09:34:53.015Z</time></trkpt><trkpt lat="46.0292926" lon="13.526443"><ele>175.75</ele><time>2026-05-03T09:34:54.01Z</time></trkpt><trkpt lat="46.0293644" lon="13.5265939"><ele>169.5</ele><time>2026-05-03T09:34:55.016Z</time></trkpt><trkpt lat="46.0294474" lon="13.5267417"><ele>163.25</ele><time>2026-05-03T09:34:56.012Z</time></trkpt><trkpt lat="46.0295379" lon="13.5268872"><ele>157.0</ele><time>2026-05-03T09:34:57.012Z</time></trkpt><trkpt lat="46.0296325" lon="13.5270219"><ele>159.75</ele><time>2026-05-03T09:34:58.013Z</time></trkpt><trkpt lat="46.029729" lon="13.5271489"><ele>162.5</ele><time>2026-05-03T09:34:59.006Z</time></trkpt><trkpt lat="46.0298321" lon="13.5272764"><ele>165.25</ele><time>2026-05-03T09:35:00.009Z</time></trkpt><trkpt lat="46.0299341" lon="13.5274144"><ele>168.0</ele><time>2026-05-03T09:35:01.005Z</time></trkpt><trkpt lat="46.0300268" lon="13.5275756"><ele>162.75</ele><time>2026-05-03T09:35:02.007Z</time></trkpt><trkpt lat="46.030106" lon="13.5277406"><ele>157.5</ele><time>2026-05-03T09:35:03.01Z</time></trkpt><trkpt lat="46.030169" lon="13.5279053"><ele>152.25</ele><time>2026-05-03T09:35:04.008Z</time></trkpt><trkpt lat="46.030221" lon="13.5280604"><ele>147.0</ele><time>2026-05-03T09:35:05.015Z</time></trkpt><trkpt lat="46.030237" lon="13.528216"><ele>147.0</ele><time>2026-05-03T09:35:06.015Z</time></trkpt><trkpt lat="46.0302308" lon="13.5283603"><ele>147.0</ele><time>2026-05-03T09:35:07.005Z</time></trkpt><trkpt lat="46.0302563" lon="13.5284902"><ele>147.0</ele><time>2026-05-03T09:35:08.005Z</time></trkpt><trkpt lat="46.0303034" lon="13.5285976"><ele>147.0</ele><time>2026-05-03T09:35:09.008Z</time></trkpt><trkpt lat="46.030371" lon="13.528667"><ele>147.0</ele><time>2026-05-03T09:35:10.009Z</time></trkpt><trkpt lat="46.0304492" lon="13.5286843"><ele>147.0</ele><time>2026-05-03T09:35:11.01Z</time></trkpt><trkpt lat="46.0305313" lon="13.528655"><ele>147.0</ele><time>2026-05-03T09:35:12.011Z</time></trkpt><trkpt lat="46.0306114" lon="13.5286146"><ele>147.0</ele><time>2026-05-03T09:35:13.005Z</time></trkpt><trkpt lat="46.0306572" lon="13.5285474"><ele>147.0</ele><time>2026-05-03T09:35:14.017Z</time></trkpt><trkpt lat="46.0306563" lon="13.5284187"><ele>147.0</ele><time>2026-05-03T09:35:15.008Z</time></trkpt><trkpt lat="46.0306292" lon="13.5282597"><ele>147.0</ele><time>2026-05-03T09:35:16.013Z</time></trkpt><trkpt lat="46.0305871" lon="13.528068"><ele>146.0</ele><time>2026-05-03T09:35:17.008Z</time></trkpt><trkpt lat="46.0305505" lon="13.5278692"><ele>145.0</ele><time>2026-05-03T09:35:18.008Z</time></trkpt><trkpt lat="46.0305146" lon="13.5276686"><ele>144.0</ele><time>2026-05-03T09:35:19.007Z</time></trkpt><trkpt lat="46.0304662" lon="13.5274596"><ele>143.0</ele><time>2026-05-03T09:35:20.012Z</time></trkpt><trkpt lat="46.0303995" lon="13.5272874"><ele>143.0</ele><time>2026-05-03T09:35:21.003Z</time></trkpt><trkpt lat="46.0303572" lon="13.5271665"><ele>143.0</ele><time>2026-05-03T09:35:22.011Z</time></trkpt><trkpt lat="46.030402" lon="13.5270551"><ele>143.0</ele><time>2026-05-03T09:35:24.012Z</time></trkpt><trkpt lat="46.0305025" lon="13.5271573"><ele>143.0</ele><time>2026-05-03T09:35:26.005Z</time></trkpt><trkpt lat="46.0305701" lon="13.5272387"><ele>143.0</ele><time>2026-05-03T09:35:27.016Z</time></trkpt><trkpt lat="46.0306502" lon="13.5273318"><ele>143.0</ele><time>2026-05-03T09:35:28.013Z</time></trkpt><trkpt lat="46.0307281" lon="13.5274577"><ele>143.0</ele><time>2026-05-03T09:35:29.008Z</time></trkpt><trkpt lat="46.0307921" lon="13.5276175"><ele>143.0</ele><time>2026-05-03T09:35:30.006Z</time></trkpt><trkpt lat="46.030848" lon="13.5277821"><ele>143.0</ele><time>2026-05-03T09:35:31.006Z</time></trkpt><trkpt lat="46.030912" lon="13.5279262"><ele>146.60000000000002</ele><time>2026-05-03T09:35:32.014Z</time></trkpt><trkpt lat="46.0309858" lon="13.5280288"><ele>150.20000000000002</ele><time>2026-05-03T09:35:33.009Z</time></trkpt><trkpt lat="46.0310629" lon="13.5280771"><ele>153.8</ele><time>2026-05-03T09:35:34.007Z</time></trkpt><trkpt lat="46.0311706" lon="13.528074"><ele>157.4</ele><time>2026-05-03T09:35:35.003Z</time></trkpt><trkpt lat="46.0312876" lon="13.5280646"><ele>161.0</ele><time>2026-05-03T09:35:36.011Z</time></trkpt><trkpt lat="46.0314149" lon="13.5280502"><ele>161.0</ele><time>2026-05-03T09:35:37.013Z</time></trkpt><trkpt lat="46.0315439" lon="13.5280375"><ele>161.0</ele><time>2026-05-03T09:35:38.016Z</time></trkpt><trkpt lat="46.0316749" lon="13.5280302"><ele>161.0</ele><time>2026-05-03T09:35:39.003Z</time></trkpt><trkpt lat="46.0317985" lon="13.5280453"><ele>161.0</ele><time>2026-05-03T09:35:40.009Z</time></trkpt><trkpt lat="46.0319142" lon="13.5280866"><ele>163.75</ele><time>2026-05-03T09:35:41.009Z</time></trkpt><trkpt lat="46.0320222" lon="13.5281473"><ele>166.5</ele><time>2026-05-03T09:35:42.004Z</time></trkpt><trkpt lat="46.0321276" lon="13.5282096"><ele>169.25</ele><time>2026-05-03T09:35:43.011Z</time></trkpt><trkpt lat="46.0322344" lon="13.5282724"><ele>172.0</ele><time>2026-05-03T09:35:44.006Z</time></trkpt><trkpt lat="46.0323428" lon="13.5283174"><ele>172.0</ele><time>2026-05-03T09:35:45.011Z</time></trkpt><trkpt lat="46.0324447" lon="13.5283582"><ele>172.0</ele><time>2026-05-03T09:35:46.008Z</time></trkpt><trkpt lat="46.0325298" lon="13.5283892"><ele>172.0</ele><time>2026-05-03T09:35:47.007Z</time></trkpt><trkpt lat="46.0325948" lon="13.5284289"><ele>172.0</ele><time>2026-05-03T09:35:48.014Z</time></trkpt><trkpt lat="46.0326178" lon="13.5285793"><ele>172.0</ele><time>2026-05-03T09:35:50.006Z</time></trkpt><trkpt lat="46.0325479" lon="13.5286514"><ele>172.0</ele><time>2026-05-03T09:35:51.015Z</time></trkpt><trkpt lat="46.0324522" lon="13.5287127"><ele>172.0</ele><time>2026-05-03T09:35:52.006Z</time></trkpt><trkpt lat="46.0323488" lon="13.5287623"><ele>172.0</ele><time>2026-05-03T09:35:53.006Z</time></trkpt><trkpt lat="46.0322441" lon="13.5287961"><ele>172.0</ele><time>2026-05-03T09:35:54.009Z</time></trkpt><trkpt lat="46.0321453" lon="13.5288231"><ele>172.0</ele><time>2026-05-03T09:35:55.013Z</time></trkpt><trkpt lat="46.0320403" lon="13.5288493"><ele>170.33333333333334</ele><time>2026-05-03T09:35:56.005Z</time></trkpt><trkpt lat="46.0318991" lon="13.5288833"><ele>168.66666666666666</ele><time>2026-05-03T09:35:57.017Z</time></trkpt><trkpt lat="46.031732" lon="13.5289238"><ele>167.0</ele><time>2026-05-03T09:35:58.015Z</time></trkpt><trkpt lat="46.0315645" lon="13.5289694"><ele>167.0</ele><time>2026-05-03T09:35:59.019Z</time></trkpt><trkpt lat="46.0314269" lon="13.5290065"><ele>167.0</ele><time>2026-05-03T09:36:00.005Z</time></trkpt><trkpt lat="46.0313193" lon="13.5290368"><ele>167.0</ele><time>2026-05-03T09:36:01.004Z</time></trkpt><trkpt lat="46.0312358" lon="13.5290869"><ele>167.0</ele><time>2026-05-03T09:36:02.002Z</time></trkpt><trkpt lat="46.0311704" lon="13.5291611"><ele>167.0</ele><time>2026-05-03T09:36:03.008Z</time></trkpt><trkpt lat="46.031143" lon="13.5292696"><ele>167.0</ele><time>2026-05-03T09:36:04.015Z</time></trkpt><trkpt lat="46.0311571" lon="13.5293737"><ele>167.0</ele><time>2026-05-03T09:36:05.004Z</time></trkpt><trkpt lat="46.0311974" lon="13.5294808"><ele>167.0</ele><time>2026-05-03T09:36:06.006Z</time></trkpt><trkpt lat="46.0312573" lon="13.5295603"><ele>167.0</ele><time>2026-05-03T09:36:07.004Z</time></trkpt><trkpt lat="46.0313447" lon="13.5295922"><ele>167.0</ele><time>2026-05-03T09:36:08.008Z</time></trkpt><trkpt lat="46.0314516" lon="13.5295928"><ele>167.0</ele><time>2026-05-03T09:36:09.009Z</time></trkpt><trkpt lat="46.0315622" lon="13.5295829"><ele>170.0</ele><time>2026-05-03T09:36:10.02Z</time></trkpt><trkpt lat="46.0316766" lon="13.5295662"><ele>173.0</ele><time>2026-05-03T09:36:11.015Z</time></trkpt><trkpt lat="46.0317872" lon="13.5295573"><ele>176.0</ele><time>2026-05-03T09:36:12.011Z</time></trkpt><trkpt lat="46.0318898" lon="13.5295531"><ele>179.0</ele><time>2026-05-03T09:36:13.01Z</time></trkpt><trkpt lat="46.0319914" lon="13.5295626"><ele>182.0</ele><time>2026-05-03T09:36:14.009Z</time></trkpt><trkpt lat="46.0320868" lon="13.529578"><ele>182.0</ele><time>2026-05-03T09:36:15.013Z</time></trkpt><trkpt lat="46.0321704" lon="13.5295969"><ele>182.0</ele><time>2026-05-03T09:36:16.007Z</time></trkpt><trkpt lat="46.0322465" lon="13.5296244"><ele>182.0</ele><time>2026-05-03T09:36:17.003Z</time></trkpt><trkpt lat="46.0323231" lon="13.5296558"><ele>182.0</ele><time>2026-05-03T09:36:18.006Z</time></trkpt><trkpt lat="46.0324052" lon="13.529694"><ele>182.0</ele><time>2026-05-03T09:36:19.009Z</time></trkpt><trkpt lat="46.0324884" lon="13.52974"><ele>182.0</ele><time>2026-05-03T09:36:20.014Z</time></trkpt><trkpt lat="46.0325746" lon="13.5297867"><ele>184.33333333333331</ele><time>2026-05-03T09:36:21.012Z</time></trkpt><trkpt lat="46.032664" lon="13.5298217"><ele>186.66666666666666</ele><time>2026-05-03T09:36:22.006Z</time></trkpt><trkpt lat="46.0327466" lon="13.5298692"><ele>189.0</ele><time>2026-05-03T09:36:23.005Z</time></trkpt><trkpt lat="46.0328214" lon="13.5299294"><ele>191.33333333333331</ele><time>2026-05-03T09:36:24.014Z</time></trkpt><trkpt lat="46.0328907" lon="13.5300128"><ele>193.66666666666666</ele><time>2026-05-03T09:36:25.013Z</time></trkpt><trkpt lat="46.0329379" lon="13.5301203"><ele>196.0</ele><time>2026-05-03T09:36:26.005Z</time></trkpt><trkpt lat="46.0329638" lon="13.5302479"><ele>195.0</ele><time>2026-05-03T09:36:27.009Z</time></trkpt><trkpt lat="46.032987" lon="13.5303961"><ele>194.0</ele><time>2026-05-03T09:36:28.007Z</time></trkpt><trkpt lat="46.0330153" lon="13.5305436"><ele>193.0</ele><time>2026-05-03T09:36:29.013Z</time></trkpt><trkpt lat="46.0330556" lon="13.530674"><ele>192.0</ele><time>2026-05-03T09:36:30.001Z</time></trkpt><trkpt lat="46.0331159" lon="13.5307952"><ele>191.0</ele><time>2026-05-03T09:36:31.012Z</time></trkpt><trkpt lat="46.0331952" lon="13.5309098"><ele>194.75</ele><time>2026-05-03T09:36:32.01Z</time></trkpt><trkpt lat="46.0333081" lon="13.5310245"><ele>198.5</ele><time>2026-05-03T09:36:33.015Z</time></trkpt><trkpt lat="46.0334151" lon="13.5311413"><ele>202.25</ele><time>2026-05-03T09:36:34.005Z</time></trkpt><trkpt lat="46.0335162" lon="13.5312419"><ele>206.0</ele><time>2026-05-03T09:36:35.014Z</time></trkpt><trkpt lat="46.0336158" lon="13.531332"><ele>206.0</ele><time>2026-05-03T09:36:36.005Z</time></trkpt><trkpt lat="46.0337116" lon="13.5314211"><ele>206.0</ele><time>2026-05-03T09:36:37.008Z</time></trkpt><trkpt lat="46.0337998" lon="13.5315257"><ele>206.0</ele><time>2026-05-03T09:36:38.012Z</time></trkpt><trkpt lat="46.0338587" lon="13.5316643"><ele>206.0</ele><time>2026-05-03T09:36:39.006Z</time></trkpt><trkpt lat="46.0338926" lon="13.5318259"><ele>206.0</ele><time>2026-05-03T09:36:40.003Z</time></trkpt><trkpt lat="46.0339293" lon="13.5319892"><ele>206.0</ele><time>2026-05-03T09:36:41.007Z</time></trkpt><trkpt lat="46.0339793" lon="13.5321367"><ele>206.0</ele><time>2026-05-03T09:36:42.009Z</time></trkpt><trkpt lat="46.0340318" lon="13.5322683"><ele>206.0</ele><time>2026-05-03T09:36:43.008Z</time></trkpt><trkpt lat="46.0340738" lon="13.5323918"><ele>206.0</ele><time>2026-05-03T09:36:44.015Z</time></trkpt><trkpt lat="46.034099" lon="13.5325104"><ele>210.20000000000002</ele><time>2026-05-03T09:36:45.003Z</time></trkpt><trkpt lat="46.0340938" lon="13.532606"><ele>214.4</ele><time>2026-05-03T09:36:46.015Z</time></trkpt><trkpt lat="46.0339634" lon="13.5326372"><ele>218.6</ele><time>2026-05-03T09:36:48.002Z</time></trkpt><trkpt lat="46.0338809" lon="13.5325671"><ele>222.8</ele><time>2026-05-03T09:36:49.011Z</time></trkpt><trkpt lat="46.0337944" lon="13.5324709"><ele>227.0</ele><time>2026-05-03T09:36:50.005Z</time></trkpt><trkpt lat="46.033696" lon="13.5323675"><ele>227.0</ele><time>2026-05-03T09:36:51.014Z</time></trkpt><trkpt lat="46.0335642" lon="13.5322631"><ele>227.0</ele><time>2026-05-03T09:36:52.016Z</time></trkpt><trkpt lat="46.0334113" lon="13.5321663"><ele>227.0</ele><time>2026-05-03T09:36:53.004Z</time></trkpt><trkpt lat="46.033252" lon="13.5320824"><ele>221.33333333333334</ele><time>2026-05-03T09:36:54.013Z</time></trkpt><trkpt lat="46.0330998" lon="13.5319899"><ele>215.66666666666669</ele><time>2026-05-03T09:36:55.003Z</time></trkpt><trkpt lat="46.0329441" lon="13.5318888"><ele>210.0</ele><time>2026-05-03T09:36:56.006Z</time></trkpt><trkpt lat="46.0328137" lon="13.5318036"><ele>210.0</ele><time>2026-05-03T09:36:57.009Z</time></trkpt><trkpt lat="46.0327113" lon="13.5317373"><ele>210.0</ele><time>2026-05-03T09:36:58.008Z</time></trkpt><trkpt lat="46.0326317" lon="13.5316878"><ele>210.0</ele><time>2026-05-03T09:36:59.004Z</time></trkpt><trkpt lat="46.0325294" lon="13.5316755"><ele>210.0</ele><time>2026-05-03T09:37:01.008Z</time></trkpt><trkpt lat="46.0324908" lon="13.5317597"><ele>210.0</ele><time>2026-05-03T09:37:03.016Z</time></trkpt><trkpt lat="46.0325781" lon="13.5318486"><ele>210.0</ele><time>2026-05-03T09:37:05.009Z</time></trkpt><trkpt lat="46.0326545" lon="13.5318976"><ele>210.0</ele><time>2026-05-03T09:37:06.002Z</time></trkpt><trkpt lat="46.0327412" lon="13.5319676"><ele>210.0</ele><time>2026-05-03T09:37:07.004Z</time></trkpt><trkpt lat="46.0328245" lon="13.5320595"><ele>210.0</ele><time>2026-05-03T09:37:08.019Z</time></trkpt><trkpt lat="46.0329058" lon="13.5321441"><ele>210.0</ele><time>2026-05-03T09:37:09.013Z</time></trkpt><trkpt lat="46.0329985" lon="13.532252"><ele>214.25</ele><time>2026-05-03T09:37:10Z</time></trkpt><trkpt lat="46.0330969" lon="13.5323724"><ele>218.5</ele><time>2026-05-03T09:37:11.005Z</time></trkpt><trkpt lat="46.0331944" lon="13.5324987"><ele>222.75</ele><time>2026-05-03T09:37:12.006Z</time></trkpt><trkpt lat="46.0332873" lon="13.5326161"><ele>227.0</ele><time>2026-05-03T09:37:13.014Z</time></trkpt><trkpt lat="46.0333795" lon="13.5327476"><ele>227.0</ele><time>2026-05-03T09:37:14.011Z</time></trkpt><trkpt lat="46.033468" lon="13.5328864"><ele>227.0</ele><time>2026-05-03T09:37:15Z</time></trkpt><trkpt lat="46.0335622" lon="13.5330526"><ele>227.0</ele><time>2026-05-03T09:37:16.009Z</time></trkpt><trkpt lat="46.033656" lon="13.5332333"><ele>227.0</ele><time>2026-05-03T09:37:17.012Z</time></trkpt><trkpt lat="46.0337466" lon="13.5334294"><ele>234.33333333333334</ele><time>2026-05-03T09:37:18Z</time></trkpt><trkpt lat="46.0338302" lon="13.5336316"><ele>241.66666666666669</ele><time>2026-05-03T09:37:19.022Z</time></trkpt><trkpt lat="46.0339104" lon="13.5338553"><ele>249.0</ele><time>2026-05-03T09:37:20.008Z</time></trkpt><trkpt lat="46.033985" lon="13.5340548"><ele>254.5</ele><time>2026-05-03T09:37:21.008Z</time></trkpt><trkpt lat="46.0340577" lon="13.5342358"><ele>260.0</ele><time>2026-05-03T09:37:22.01Z</time></trkpt><trkpt lat="46.0341341" lon="13.5343887"><ele>265.5</ele><time>2026-05-03T09:37:23.007Z</time></trkpt><trkpt lat="46.0342142" lon="13.534557"><ele>271.0</ele><time>2026-05-03T09:37:24.006Z</time></trkpt><trkpt lat="46.0343011" lon="13.5347111"><ele>272.25</ele><time>2026-05-03T09:37:25.013Z</time></trkpt><trkpt lat="46.0343939" lon="13.5348381"><ele>273.5</ele><time>2026-05-03T09:37:26.018Z</time></trkpt><trkpt lat="46.0344988" lon="13.5349497"><ele>274.75</ele><time>2026-05-03T09:37:27.009Z</time></trkpt><trkpt lat="46.034599" lon="13.5350536"><ele>276.0</ele><time>2026-05-03T09:37:28.006Z</time></trkpt><trkpt lat="46.0346993" lon="13.5351557"><ele>276.0</ele><time>2026-05-03T09:37:29.014Z</time></trkpt><trkpt lat="46.0347955" lon="13.5352805"><ele>276.0</ele><time>2026-05-03T09:37:30.008Z</time></trkpt><trkpt lat="46.0348913" lon="13.5353928"><ele>276.0</ele><time>2026-05-03T09:37:31.008Z</time></trkpt><trkpt lat="46.0349928" lon="13.535495"><ele>276.0</ele><time>2026-05-03T09:37:32.019Z</time></trkpt><trkpt lat="46.0350912" lon="13.5355868"><ele>277.2</ele><time>2026-05-03T09:37:33.005Z</time></trkpt><trkpt lat="46.0351739" lon="13.5356814"><ele>278.40000000000003</ele><time>2026-05-03T09:37:34Z</time></trkpt><trkpt lat="46.0352481" lon="13.5357938"><ele>279.6</ele><time>2026-05-03T09:37:35.008Z</time></trkpt><trkpt lat="46.0353106" lon="13.5359264"><ele>280.8</ele><time>2026-05-03T09:37:36.018Z</time></trkpt><trkpt lat="46.035377" lon="13.5360763"><ele>282.0</ele><time>2026-05-03T09:37:37.01Z</time></trkpt><trkpt lat="46.0354396" lon="13.5362348"><ele>288.5</ele><time>2026-05-03T09:37:38.01Z</time></trkpt><trkpt lat="46.0355035" lon="13.5363853"><ele>295.0</ele><time>2026-05-03T09:37:39.001Z</time></trkpt><trkpt lat="46.0355651" lon="13.5365219"><ele>301.5</ele><time>2026-05-03T09:37:40.009Z</time></trkpt><trkpt lat="46.0356173" lon="13.5366515"><ele>308.0</ele><time>2026-05-03T09:37:41.009Z</time></trkpt><trkpt lat="46.0356525" lon="13.5368017"><ele>308.0</ele><time>2026-05-03T09:37:42.005Z</time></trkpt><trkpt lat="46.0356733" lon="13.5369619"><ele>308.0</ele><time>2026-05-03T09:37:43.011Z</time></trkpt><trkpt lat="46.0356879" lon="13.5371402"><ele>308.0</ele><time>2026-05-03T09:37:44.011Z</time></trkpt><trkpt lat="46.0357075" lon="13.5373287"><ele>308.0</ele><time>2026-05-03T09:37:45.004Z</time></trkpt><trkpt lat="46.0357352" lon="13.5375194"><ele>309.4</ele><time>2026-05-03T09:37:46.013Z</time></trkpt><trkpt lat="46.0357499" lon="13.5376894"><ele>310.8</ele><time>2026-05-03T09:37:47.006Z</time></trkpt><trkpt lat="46.0357516" lon="13.5378399"><ele>312.2</ele><time>2026-05-03T09:37:48.014Z</time></trkpt><trkpt lat="46.0357278" lon="13.5379828"><ele>313.6</ele><time>2026-05-03T09:37:49.004Z</time></trkpt><trkpt lat="46.0356935" lon="13.5381228"><ele>315.0</ele><time>2026-05-03T09:37:50.021Z</time></trkpt><trkpt lat="46.0356616" lon="13.5382772"><ele>315.0</ele><time>2026-05-03T09:37:51.011Z</time></trkpt><trkpt lat="46.0356502" lon="13.5384433"><ele>315.0</ele><time>2026-05-03T09:37:52.024Z</time></trkpt><trkpt lat="46.0356447" lon="13.5386199"><ele>315.0</ele><time>2026-05-03T09:37:53.01Z</time></trkpt><trkpt lat="46.0356273" lon="13.5388066"><ele>315.0</ele><time>2026-05-03T09:37:54.006Z</time></trkpt><trkpt lat="46.0355964" lon="13.5390035"><ele>311.6666666666667</ele><time>2026-05-03T09:37:55.005Z</time></trkpt><trkpt lat="46.0355622" lon="13.5392098"><ele>308.33333333333337</ele><time>2026-05-03T09:37:56.016Z</time></trkpt><trkpt lat="46.0355273" lon="13.5394216"><ele>305.0</ele><time>2026-05-03T09:37:57.006Z</time></trkpt><trkpt lat="46.0354834" lon="13.539649"><ele>304.6666666666667</ele><time>2026-05-03T09:37:58.004Z</time></trkpt><trkpt lat="46.0354428" lon="13.5398852"><ele>304.3333333333333</ele><time>2026-05-03T09:37:59.002Z</time></trkpt><trkpt lat="46.035408" lon="13.5401052"><ele>304.0</ele><time>2026-05-03T09:38:00.007Z</time></trkpt><trkpt lat="46.035357" lon="13.5403067"><ele>304.25</ele><time>2026-05-03T09:38:01.012Z</time></trkpt><trkpt lat="46.035315" lon="13.5404915"><ele>304.5</ele><time>2026-05-03T09:38:02.014Z</time></trkpt><trkpt lat="46.0352586" lon="13.5406665"><ele>304.75</ele><time>2026-05-03T09:38:03.005Z</time></trkpt><trkpt lat="46.0352201" lon="13.5408723"><ele>305.0</ele><time>2026-05-03T09:38:04.003Z</time></trkpt><trkpt lat="46.0352217" lon="13.5411016"><ele>305.6666666666667</ele><time>2026-05-03T09:38:05.007Z</time></trkpt><trkpt lat="46.0352455" lon="13.5413493"><ele>306.3333333333333</ele><time>2026-05-03T09:38:06.012Z</time></trkpt><trkpt lat="46.0352677" lon="13.5415936"><ele>307.0</ele><time>2026-05-03T09:38:07.009Z</time></trkpt><trkpt lat="46.0353128" lon="13.5418191"><ele>307.0</ele><time>2026-05-03T09:38:08.015Z</time></trkpt><trkpt lat="46.035379" lon="13.5420319"><ele>307.0</ele><time>2026-05-03T09:38:09.001Z</time></trkpt><trkpt lat="46.035449" lon="13.5422345"><ele>307.0</ele><time>2026-05-03T09:38:10.007Z</time></trkpt><trkpt lat="46.0355363" lon="13.5424189"><ele>307.25</ele><time>2026-05-03T09:38:11.006Z</time></trkpt><trkpt lat="46.0356043" lon="13.5426058"><ele>307.5</ele><time>2026-05-03T09:38:12.003Z</time></trkpt><trkpt lat="46.0356548" lon="13.5428103"><ele>307.75</ele><time>2026-05-03T09:38:13.003Z</time></trkpt><trkpt lat="46.0356788" lon="13.542994"><ele>308.0</ele><time>2026-05-03T09:38:14.014Z</time></trkpt><trkpt lat="46.0357117" lon="13.5431623"><ele>306.0</ele><time>2026-05-03T09:38:15.01Z</time></trkpt><trkpt lat="46.0357747" lon="13.5433266"><ele>304.0</ele><time>2026-05-03T09:38:16.013Z</time></trkpt><trkpt lat="46.0358779" lon="13.5434394"><ele>302.0</ele><time>2026-05-03T09:38:17.006Z</time></trkpt><trkpt lat="46.0359708" lon="13.5434941"><ele>300.0</ele><time>2026-05-03T09:38:18.012Z</time></trkpt><trkpt lat="46.0360685" lon="13.5435308"><ele>305.0</ele><time>2026-05-03T09:38:19.018Z</time></trkpt><trkpt lat="46.0361679" lon="13.5435452"><ele>310.0</ele><time>2026-05-03T09:38:20.003Z</time></trkpt><trkpt lat="46.0362812" lon="13.5435371"><ele>315.0</ele><time>2026-05-03T09:38:21.004Z</time></trkpt><trkpt lat="46.0363952" lon="13.54351"><ele>320.0</ele><time>2026-05-03T09:38:22.012Z</time></trkpt><trkpt lat="46.0365101" lon="13.5434803"><ele>325.0</ele><time>2026-05-03T09:38:23.012Z</time></trkpt><trkpt lat="46.0366316" lon="13.5434475"><ele>328.0</ele><time>2026-05-03T09:38:24.011Z</time></trkpt><trkpt lat="46.0367457" lon="13.5434025"><ele>331.0</ele><time>2026-05-03T09:38:25.003Z</time></trkpt><trkpt lat="46.036861" lon="13.5433518"><ele>334.0</ele><time>2026-05-03T09:38:26.003Z</time></trkpt><trkpt lat="46.0369659" lon="13.5432911"><ele>337.0</ele><time>2026-05-03T09:38:27.003Z</time></trkpt><trkpt lat="46.0370403" lon="13.5432282"><ele>340.0</ele><time>2026-05-03T09:38:28.015Z</time></trkpt><trkpt lat="46.0370574" lon="13.5431372"><ele>340.0</ele><time>2026-05-03T09:38:29.01Z</time></trkpt><trkpt lat="46.0370176" lon="13.5430364"><ele>340.0</ele><time>2026-05-03T09:38:30.006Z</time></trkpt><trkpt lat="46.0369573" lon="13.5429326"><ele>340.0</ele><time>2026-05-03T09:38:31.014Z</time></trkpt><trkpt lat="46.0369215" lon="13.5428252"><ele>340.0</ele><time>2026-05-03T09:38:32.007Z</time></trkpt><trkpt lat="46.0369031" lon="13.542725"><ele>340.0</ele><time>2026-05-03T09:38:33.003Z</time></trkpt><trkpt lat="46.0369786" lon="13.5428461"><ele>340.0</ele><time>2026-05-03T09:38:36.012Z</time></trkpt><trkpt lat="46.037011" lon="13.5429487"><ele>340.0</ele><time>2026-05-03T09:38:37.005Z</time></trkpt><trkpt lat="46.0370491" lon="13.5430679"><ele>340.0</ele><time>2026-05-03T09:38:38.01Z</time></trkpt><trkpt lat="46.0370916" lon="13.5431683"><ele>340.0</ele><time>2026-05-03T09:38:39.002Z</time></trkpt><trkpt lat="46.0371665" lon="13.5432121"><ele>340.0</ele><time>2026-05-03T09:38:41.006Z</time></trkpt><trkpt lat="46.0372403" lon="13.5432042"><ele>340.0</ele><time>2026-05-03T09:38:43.014Z</time></trkpt><trkpt lat="46.0372846" lon="13.543097"><ele>340.0</ele><time>2026-05-03T09:38:46.011Z</time></trkpt><trkpt lat="46.0373801" lon="13.5430036"><ele>340.0</ele><time>2026-05-03T09:38:48.01Z</time></trkpt><trkpt lat="46.0374462" lon="13.5430765"><ele>340.0</ele><time>2026-05-03T09:38:50.003Z</time></trkpt><trkpt lat="46.0374668" lon="13.5432135"><ele>340.0</ele><time>2026-05-03T09:38:51.002Z</time></trkpt><trkpt lat="46.0375051" lon="13.5433635"><ele>340.0</ele><time>2026-05-03T09:38:52.006Z</time></trkpt><trkpt lat="46.0375435" lon="13.5435202"><ele>340.0</ele><time>2026-05-03T09:38:53.011Z</time></trkpt><trkpt lat="46.0375854" lon="13.5436658"><ele>344.4</ele><time>2026-05-03T09:38:54.005Z</time></trkpt><trkpt lat="46.0376357" lon="13.543797"><ele>348.8</ele><time>2026-05-03T09:38:55.007Z</time></trkpt><trkpt lat="46.0377145" lon="13.5439046"><ele>353.20000000000005</ele><time>2026-05-03T09:38:56.023Z</time></trkpt><trkpt lat="46.0378005" lon="13.5440111"><ele>357.6</ele><time>2026-05-03T09:38:57.013Z</time></trkpt><trkpt lat="46.0378566" lon="13.5441474"><ele>362.0</ele><time>2026-05-03T09:38:58.007Z</time></trkpt><trkpt lat="46.0378874" lon="13.5443107"><ele>362.0</ele><time>2026-05-03T09:38:59.003Z</time></trkpt><trkpt lat="46.0378888" lon="13.5444962"><ele>362.0</ele><time>2026-05-03T09:39:00.014Z</time></trkpt><trkpt lat="46.0378778" lon="13.5446906"><ele>362.0</ele><time>2026-05-03T09:39:01.01Z</time></trkpt><trkpt lat="46.0378617" lon="13.5448829"><ele>362.0</ele><time>2026-05-03T09:39:02.007Z</time></trkpt><trkpt lat="46.0378387" lon="13.5450699"><ele>363.0</ele><time>2026-05-03T09:39:03.011Z</time></trkpt><trkpt lat="46.0378049" lon="13.5452454"><ele>364.0</ele><time>2026-05-03T09:39:04.013Z</time></trkpt><trkpt lat="46.0377542" lon="13.5454055"><ele>365.0</ele><time>2026-05-03T09:39:05.011Z</time></trkpt><trkpt lat="46.0376774" lon="13.5455537"><ele>366.0</ele><time>2026-05-03T09:39:06.01Z</time></trkpt><trkpt lat="46.0375953" lon="13.5457106"><ele>367.0</ele><time>2026-05-03T09:39:06.999Z</time></trkpt><trkpt lat="46.037527" lon="13.5458909"><ele>368.0</ele><time>2026-05-03T09:39:08.014Z</time></trkpt><trkpt lat="46.0374682" lon="13.5460774"><ele>369.0</ele><time>2026-05-03T09:39:09.007Z</time></trkpt><trkpt lat="46.0374243" lon="13.5462591"><ele>370.0</ele><time>2026-05-03T09:39:10.014Z</time></trkpt><trkpt lat="46.0373852" lon="13.5464359"><ele>370.25</ele><time>2026-05-03T09:39:11.016Z</time></trkpt><trkpt lat="46.0373708" lon="13.546625"><ele>370.5</ele><time>2026-05-03T09:39:12.01Z</time></trkpt><trkpt lat="46.0373526" lon="13.5468195"><ele>370.75</ele><time>2026-05-03T09:39:13.006Z</time></trkpt><trkpt lat="46.0373373" lon="13.5469942"><ele>371.0</ele><time>2026-05-03T09:39:14.005Z</time></trkpt><trkpt lat="46.0373114" lon="13.547156"><ele>371.0</ele><time>2026-05-03T09:39:15.009Z</time></trkpt><trkpt lat="46.0373113" lon="13.5472888"><ele>371.0</ele><time>2026-05-03T09:39:16.006Z</time></trkpt><trkpt lat="46.0373395" lon="13.5474212"><ele>371.0</ele><time>2026-05-03T09:39:17.002Z</time></trkpt><trkpt lat="46.037394" lon="13.5475479"><ele>371.0</ele><time>2026-05-03T09:39:18.015Z</time></trkpt><trkpt lat="46.0374676" lon="13.5476623"><ele>371.0</ele><time>2026-05-03T09:39:19.01Z</time></trkpt><trkpt lat="46.037549" lon="13.5477904"><ele>376.0</ele><time>2026-05-03T09:39:20.007Z</time></trkpt><trkpt lat="46.0376261" lon="13.547934"><ele>381.0</ele><time>2026-05-03T09:39:21.004Z</time></trkpt><trkpt lat="46.0376833" lon="13.5480898"><ele>386.0</ele><time>2026-05-03T09:39:22.016Z</time></trkpt><trkpt lat="46.0377381" lon="13.548265"><ele>391.0</ele><time>2026-05-03T09:39:23.018Z</time></trkpt><trkpt lat="46.0377893" lon="13.5484523"><ele>391.0</ele><time>2026-05-03T09:39:24.01Z</time></trkpt><trkpt lat="46.0378208" lon="13.5486435"><ele>391.0</ele><time>2026-05-03T09:39:25.004Z</time></trkpt><trkpt lat="46.0378428" lon="13.5488277"><ele>391.0</ele><time>2026-05-03T09:39:26.011Z</time></trkpt><trkpt lat="46.0378731" lon="13.5489971"><ele>391.0</ele><time>2026-05-03T09:39:27.003Z</time></trkpt><trkpt lat="46.0379129" lon="13.5491297"><ele>391.4</ele><time>2026-05-03T09:39:28.008Z</time></trkpt><trkpt lat="46.037974" lon="13.549243"><ele>391.8</ele><time>2026-05-03T09:39:29.013Z</time></trkpt><trkpt lat="46.0380523" lon="13.5493323"><ele>392.2</ele><time>2026-05-03T09:39:30.012Z</time></trkpt><trkpt lat="46.0381471" lon="13.5494019"><ele>392.59999999999997</ele><time>2026-05-03T09:39:31.012Z</time></trkpt><trkpt lat="46.0382536" lon="13.549459"><ele>393.0</ele><time>2026-05-03T09:39:32.007Z</time></trkpt><trkpt lat="46.0383615" lon="13.5495122"><ele>396.5</ele><time>2026-05-03T09:39:33.002Z</time></trkpt><trkpt lat="46.038475" lon="13.5495628"><ele>400.0</ele><time>2026-05-03T09:39:34.009Z</time></trkpt><trkpt lat="46.0385967" lon="13.5495989"><ele>403.5</ele><time>2026-05-03T09:39:35.009Z</time></trkpt><trkpt lat="46.0387179" lon="13.5496428"><ele>407.0</ele><time>2026-05-03T09:39:36.009Z</time></trkpt><trkpt lat="46.0388141" lon="13.5496866"><ele>407.0</ele><time>2026-05-03T09:39:37.008Z</time></trkpt><trkpt lat="46.0388911" lon="13.5497626"><ele>407.0</ele><time>2026-05-03T09:39:38.004Z</time></trkpt><trkpt lat="46.0389707" lon="13.5498834"><ele>407.0</ele><time>2026-05-03T09:39:39.009Z</time></trkpt><trkpt lat="46.0390385" lon="13.550028"><ele>407.0</ele><time>2026-05-03T09:39:40.013Z</time></trkpt><trkpt lat="46.0391104" lon="13.5501847"><ele>406.0</ele><time>2026-05-03T09:39:41.014Z</time></trkpt><trkpt lat="46.0391877" lon="13.5503487"><ele>405.0</ele><time>2026-05-03T09:39:42.013Z</time></trkpt><trkpt lat="46.0392637" lon="13.5505044"><ele>404.0</ele><time>2026-05-03T09:39:43.009Z</time></trkpt><trkpt lat="46.0393251" lon="13.5506458"><ele>403.0</ele><time>2026-05-03T09:39:44.009Z</time></trkpt><trkpt lat="46.039376" lon="13.5507907"><ele>405.75</ele><time>2026-05-03T09:39:45.013Z</time></trkpt><trkpt lat="46.0394118" lon="13.5509465"><ele>408.5</ele><time>2026-05-03T09:39:46.006Z</time></trkpt><trkpt lat="46.03944" lon="13.5511145"><ele>411.25</ele><time>2026-05-03T09:39:47.008Z</time></trkpt><trkpt lat="46.0394683" lon="13.5512867"><ele>414.0</ele><time>2026-05-03T09:39:48.004Z</time></trkpt><trkpt lat="46.0394901" lon="13.5514558"><ele>414.2</ele><time>2026-05-03T09:39:49.013Z</time></trkpt><trkpt lat="46.0395023" lon="13.5516153"><ele>414.4</ele><time>2026-05-03T09:39:50.007Z</time></trkpt><trkpt lat="46.0394941" lon="13.5517687"><ele>414.6</ele><time>2026-05-03T09:39:51Z</time></trkpt><trkpt lat="46.0394607" lon="13.551921"><ele>414.8</ele><time>2026-05-03T09:39:52.009Z</time></trkpt><trkpt lat="46.03941" lon="13.5520636"><ele>415.0</ele><time>2026-05-03T09:39:53.009Z</time></trkpt><trkpt lat="46.0393797" lon="13.5521855"><ele>415.1666666666667</ele><time>2026-05-03T09:39:54.002Z</time></trkpt><trkpt lat="46.0393862" lon="13.5523029"><ele>415.33333333333337</ele><time>2026-05-03T09:39:55.014Z</time></trkpt><trkpt lat="46.0394187" lon="13.5524106"><ele>415.5</ele><time>2026-05-03T09:39:56.013Z</time></trkpt><trkpt lat="46.0394742" lon="13.5525072"><ele>415.66666666666663</ele><time>2026-05-03T09:39:57.004Z</time></trkpt><trkpt lat="46.0395451" lon="13.5526085"><ele>415.8333333333333</ele><time>2026-05-03T09:39:58.01Z</time></trkpt><trkpt lat="46.0396189" lon="13.5527001"><ele>416.0</ele><time>2026-05-03T09:39:59.013Z</time></trkpt><trkpt lat="46.039684" lon="13.5527922"><ele>416.0</ele><time>2026-05-03T09:40:00.011Z</time></trkpt><trkpt lat="46.0397429" lon="13.5529079"><ele>416.0</ele><time>2026-05-03T09:40:01.003Z</time></trkpt><trkpt lat="46.0397899" lon="13.5530335"><ele>416.0</ele><time>2026-05-03T09:40:02.004Z</time></trkpt><trkpt lat="46.0398318" lon="13.553165"><ele>416.0</ele><time>2026-05-03T09:40:03.007Z</time></trkpt><trkpt lat="46.0398948" lon="13.553284"><ele>416.0</ele><time>2026-05-03T09:40:04.003Z</time></trkpt><trkpt lat="46.0399686" lon="13.5533962"><ele>416.0</ele><time>2026-05-03T09:40:05.005Z</time></trkpt><trkpt lat="46.0400471" lon="13.5535025"><ele>416.0</ele><time>2026-05-03T09:40:06.01Z</time></trkpt><trkpt lat="46.0401098" lon="13.5536161"><ele>416.0</ele><time>2026-05-03T09:40:07.011Z</time></trkpt><trkpt lat="46.040171" lon="13.5537493"><ele>416.0</ele><time>2026-05-03T09:40:08.002Z</time></trkpt><trkpt lat="46.0402264" lon="13.5539052"><ele>416.0</ele><time>2026-05-03T09:40:09.009Z</time></trkpt><trkpt lat="46.0402789" lon="13.5540759"><ele>416.0</ele><time>2026-05-03T09:40:10.012Z</time></trkpt><trkpt lat="46.0403179" lon="13.5542493"><ele>416.0</ele><time>2026-05-03T09:40:11.006Z</time></trkpt><trkpt lat="46.0403513" lon="13.5544328"><ele>416.0</ele><time>2026-05-03T09:40:12.007Z</time></trkpt><trkpt lat="46.0403798" lon="13.5546321"><ele>416.0</ele><time>2026-05-03T09:40:13.012Z</time></trkpt><trkpt lat="46.0404081" lon="13.5548525"><ele>412.25</ele><time>2026-05-03T09:40:14.015Z</time></trkpt><trkpt lat="46.0404397" lon="13.5550809"><ele>408.5</ele><time>2026-05-03T09:40:15.004Z</time></trkpt><trkpt lat="46.0404773" lon="13.5552867"><ele>404.75</ele><time>2026-05-03T09:40:16.005Z</time></trkpt><trkpt lat="46.0405447" lon="13.555461"><ele>401.0</ele><time>2026-05-03T09:40:17.01Z</time></trkpt><trkpt lat="46.0406479" lon="13.5555855"><ele>399.5</ele><time>2026-05-03T09:40:18.014Z</time></trkpt><trkpt lat="46.0407597" lon="13.5556368"><ele>398.0</ele><time>2026-05-03T09:40:19.006Z</time></trkpt><trkpt lat="46.0408848" lon="13.5556771"><ele>396.5</ele><time>2026-05-03T09:40:20.009Z</time></trkpt><trkpt lat="46.0410042" lon="13.5557434"><ele>395.0</ele><time>2026-05-03T09:40:21.003Z</time></trkpt><trkpt lat="46.0411137" lon="13.5558504"><ele>400.2</ele><time>2026-05-03T09:40:22.004Z</time></trkpt><trkpt lat="46.0412165" lon="13.5559684"><ele>405.4</ele><time>2026-05-03T09:40:23.01Z</time></trkpt><trkpt lat="46.0413087" lon="13.5560838"><ele>410.6</ele><time>2026-05-03T09:40:24.011Z</time></trkpt><trkpt lat="46.0413833" lon="13.5561852"><ele>415.8</ele><time>2026-05-03T09:40:25.006Z</time></trkpt><trkpt lat="46.0414303" lon="13.5562853"><ele>421.0</ele><time>2026-05-03T09:40:26.014Z</time></trkpt><trkpt lat="46.0414432" lon="13.5563825"><ele>422.20000000000005</ele><time>2026-05-03T09:40:27.005Z</time></trkpt><trkpt lat="46.0413503" lon="13.5565007"><ele>423.40000000000003</ele><time>2026-05-03T09:40:29.004Z</time></trkpt><trkpt lat="46.0412807" lon="13.5565156"><ele>424.6</ele><time>2026-05-03T09:40:30.008Z</time></trkpt><trkpt lat="46.0411851" lon="13.556468"><ele>425.8</ele><time>2026-05-03T09:40:31.004Z</time></trkpt><trkpt lat="46.0410893" lon="13.5563944"><ele>427.0</ele><time>2026-05-03T09:40:32.016Z</time></trkpt><trkpt lat="46.0409991" lon="13.5563084"><ele>427.00000000000006</ele><time>2026-05-03T09:40:33.003Z</time></trkpt><trkpt lat="46.0409004" lon="13.5562358"><ele>427.0</ele><time>2026-05-03T09:40:34.004Z</time></trkpt><trkpt lat="46.0408072" lon="13.5562023"><ele>427.0</ele><time>2026-05-03T09:40:35.01Z</time></trkpt><trkpt lat="46.0407439" lon="13.5562474"><ele>427.0</ele><time>2026-05-03T09:40:36.015Z</time></trkpt><trkpt lat="46.0407107" lon="13.5563263"><ele>427.00000000000006</ele><time>2026-05-03T09:40:37.011Z</time></trkpt><trkpt lat="46.0407215" lon="13.5564214"><ele>427.0</ele><time>2026-05-03T09:40:38.006Z</time></trkpt><trkpt lat="46.0407746" lon="13.5565348"><ele>427.0</ele><time>2026-05-03T09:40:39.012Z</time></trkpt><trkpt lat="46.0408445" lon="13.5566555"><ele>427.0</ele><time>2026-05-03T09:40:40.022Z</time></trkpt><trkpt lat="46.0409226" lon="13.5567891"><ele>427.0</ele><time>2026-05-03T09:40:41.006Z</time></trkpt><trkpt lat="46.0410105" lon="13.556926"><ele>427.0</ele><time>2026-05-03T09:40:42.007Z</time></trkpt><trkpt lat="46.0410954" lon="13.5570442"><ele>427.0</ele><time>2026-05-03T09:40:43.007Z</time></trkpt><trkpt lat="46.0411764" lon="13.5571863"><ele>427.0</ele><time>2026-05-03T09:40:44.002Z</time></trkpt><trkpt lat="46.0412261" lon="13.5573603"><ele>427.0</ele><time>2026-05-03T09:40:45.003Z</time></trkpt><trkpt lat="46.0412488" lon="13.5575564"><ele>427.0</ele><time>2026-05-03T09:40:46.01Z</time></trkpt><trkpt lat="46.0412668" lon="13.5577427"><ele>426.20000000000005</ele><time>2026-05-03T09:40:47.012Z</time></trkpt><trkpt lat="46.0412876" lon="13.5579079"><ele>425.40000000000003</ele><time>2026-05-03T09:40:48.018Z</time></trkpt><trkpt lat="46.0413269" lon="13.5580442"><ele>424.6</ele><time>2026-05-03T09:40:49.008Z</time></trkpt><trkpt lat="46.0413683" lon="13.5581485"><ele>423.79999999999995</ele><time>2026-05-03T09:40:50Z</time></trkpt><trkpt lat="46.0414178" lon="13.5582335"><ele>423.0</ele><time>2026-05-03T09:40:51.002Z</time></trkpt><trkpt lat="46.0414582" lon="13.5583167"><ele>423.0</ele><time>2026-05-03T09:40:52.007Z</time></trkpt><trkpt lat="46.0414844" lon="13.5584796"><ele>423.0</ele><time>2026-05-03T09:40:54.012Z</time></trkpt><trkpt lat="46.0414843" lon="13.5586558"><ele>423.0</ele><time>2026-05-03T09:40:56.009Z</time></trkpt><trkpt lat="46.0414843" lon="13.5587607"><ele>423.0</ele><time>2026-05-03T09:40:57.007Z</time></trkpt><trkpt lat="46.0414836" lon="13.5588832"><ele>423.0</ele><time>2026-05-03T09:40:58.014Z</time></trkpt><trkpt lat="46.0414851" lon="13.5590225"><ele>421.79999999999995</ele><time>2026-05-03T09:40:59.006Z</time></trkpt><trkpt lat="46.0415006" lon="13.5591654"><ele>420.6</ele><time>2026-05-03T09:41:00.004Z</time></trkpt><trkpt lat="46.0415365" lon="13.5593089"><ele>419.4</ele><time>2026-05-03T09:41:01.016Z</time></trkpt><trkpt lat="46.0415966" lon="13.5594589"><ele>418.20000000000005</ele><time>2026-05-03T09:41:02.004Z</time></trkpt><trkpt lat="46.0416697" lon="13.5595934"><ele>417.0</ele><time>2026-05-03T09:41:03.006Z</time></trkpt><trkpt lat="46.0417428" lon="13.5597325"><ele>426.0</ele><time>2026-05-03T09:41:04.01Z</time></trkpt><trkpt lat="46.0417886" lon="13.5598829"><ele>435.0</ele><time>2026-05-03T09:41:05.003Z</time></trkpt><trkpt lat="46.0418054" lon="13.5600515"><ele>444.0</ele><time>2026-05-03T09:41:06.005Z</time></trkpt><trkpt lat="46.0417841" lon="13.5602271"><ele>453.0</ele><time>2026-05-03T09:41:07.003Z</time></trkpt><trkpt lat="46.0417463" lon="13.5603974"><ele>456.0</ele><time>2026-05-03T09:41:08.003Z</time></trkpt><trkpt lat="46.0417027" lon="13.5605641"><ele>459.0</ele><time>2026-05-03T09:41:09.001Z</time></trkpt><trkpt lat="46.0416597" lon="13.5607389"><ele>462.0</ele><time>2026-05-03T09:41:10.007Z</time></trkpt><trkpt lat="46.0416278" lon="13.5609196"><ele>465.0</ele><time>2026-05-03T09:41:11.01Z</time></trkpt><trkpt lat="46.0415886" lon="13.5610907"><ele>458.25</ele><time>2026-05-03T09:41:12.004Z</time></trkpt><trkpt lat="46.041537" lon="13.5612538"><ele>451.5</ele><time>2026-05-03T09:41:13.006Z</time></trkpt><trkpt lat="46.0414792" lon="13.5614315"><ele>444.75</ele><time>2026-05-03T09:41:14.007Z</time></trkpt><trkpt lat="46.0414171" lon="13.5616152"><ele>438.0</ele><time>2026-05-03T09:41:15.002Z</time></trkpt><trkpt lat="46.0413595" lon="13.5618167"><ele>438.0</ele><time>2026-05-03T09:41:16.014Z</time></trkpt><trkpt lat="46.0412956" lon="13.5619989"><ele>438.0</ele><time>2026-05-03T09:41:17.002Z</time></trkpt><trkpt lat="46.0412457" lon="13.5621874"><ele>438.0</ele><time>2026-05-03T09:41:18.004Z</time></trkpt><trkpt lat="46.0411755" lon="13.5623749"><ele>438.0</ele><time>2026-05-03T09:41:19.009Z</time></trkpt><trkpt lat="46.0410979" lon="13.5625567"><ele>442.66666666666663</ele><time>2026-05-03T09:41:20.015Z</time></trkpt><trkpt lat="46.0410265" lon="13.562748"><ele>447.3333333333333</ele><time>2026-05-03T09:41:21.01Z</time></trkpt><trkpt lat="46.0409578" lon="13.5629476"><ele>452.0</ele><time>2026-05-03T09:41:22.006Z</time></trkpt><trkpt lat="46.040892" lon="13.5631586"><ele>452.0</ele><time>2026-05-03T09:41:23.004Z</time></trkpt><trkpt lat="46.0408168" lon="13.5633678"><ele>452.0</ele><time>2026-05-03T09:41:24.007Z</time></trkpt><trkpt lat="46.0407417" lon="13.5635749"><ele>452.0</ele><time>2026-05-03T09:41:25.007Z</time></trkpt><trkpt lat="46.0406633" lon="13.5637832"><ele>452.0</ele><time>2026-05-03T09:41:26.003Z</time></trkpt><trkpt lat="46.0405761" lon="13.56398"><ele>452.0</ele><time>2026-05-03T09:41:26.998Z</time></trkpt><trkpt lat="46.0404863" lon="13.5641824"><ele>452.0</ele><time>2026-05-03T09:41:28.015Z</time></trkpt><trkpt lat="46.0403904" lon="13.5643736"><ele>459.3333333333333</ele><time>2026-05-03T09:41:29.009Z</time></trkpt><trkpt lat="46.0402957" lon="13.5645599"><ele>466.66666666666663</ele><time>2026-05-03T09:41:30.007Z</time></trkpt><trkpt lat="46.0402029" lon="13.5647546"><ele>474.0</ele><time>2026-05-03T09:41:31.007Z</time></trkpt><trkpt lat="46.0401016" lon="13.5649503"><ele>474.0</ele><time>2026-05-03T09:41:32.006Z</time></trkpt><trkpt lat="46.0400043" lon="13.5651234"><ele>474.0</ele><time>2026-05-03T09:41:33.003Z</time></trkpt><trkpt lat="46.0399231" lon="13.5653049"><ele>474.0</ele><time>2026-05-03T09:41:34.003Z</time></trkpt><trkpt lat="46.0398502" lon="13.5654822"><ele>474.0</ele><time>2026-05-03T09:41:35.009Z</time></trkpt><trkpt lat="46.0397871" lon="13.5656566"><ele>475.4</ele><time>2026-05-03T09:41:36.008Z</time></trkpt><trkpt lat="46.0397195" lon="13.5658075"><ele>476.79999999999995</ele><time>2026-05-03T09:41:37.005Z</time></trkpt><trkpt lat="46.0396504" lon="13.5659441"><ele>478.20000000000005</ele><time>2026-05-03T09:41:37.999Z</time></trkpt><trkpt lat="46.0395665" lon="13.5660368"><ele>479.6</ele><time>2026-05-03T09:41:39.01Z</time></trkpt><trkpt lat="46.0394701" lon="13.5660796"><ele>481.0</ele><time>2026-05-03T09:41:40.016Z</time></trkpt><trkpt lat="46.0393537" lon="13.5660863"><ele>481.0</ele><time>2026-05-03T09:41:41.003Z</time></trkpt><trkpt lat="46.0392381" lon="13.5661059"><ele>481.0</ele><time>2026-05-03T09:41:42.008Z</time></trkpt><trkpt lat="46.039136" lon="13.5661544"><ele>481.0</ele><time>2026-05-03T09:41:43.013Z</time></trkpt><trkpt lat="46.0390401" lon="13.566198"><ele>481.0</ele><time>2026-05-03T09:41:44.009Z</time></trkpt><trkpt lat="46.0389352" lon="13.5662296"><ele>481.0</ele><time>2026-05-03T09:41:45.01Z</time></trkpt><trkpt lat="46.0388255" lon="13.5662288"><ele>481.75</ele><time>2026-05-03T09:41:46.006Z</time></trkpt><trkpt lat="46.038707" lon="13.5662112"><ele>482.5</ele><time>2026-05-03T09:41:47.005Z</time></trkpt><trkpt lat="46.0385857" lon="13.5661901"><ele>483.25</ele><time>2026-05-03T09:41:48.012Z</time></trkpt><trkpt lat="46.0384667" lon="13.5661444"><ele>484.0</ele><time>2026-05-03T09:41:49.012Z</time></trkpt><trkpt lat="46.0383672" lon="13.5660654"><ele>481.0</ele><time>2026-05-03T09:41:50.005Z</time></trkpt><trkpt lat="46.0382923" lon="13.5659388"><ele>478.0</ele><time>2026-05-03T09:41:51.01Z</time></trkpt><trkpt lat="46.0382478" lon="13.5657764"><ele>475.0</ele><time>2026-05-03T09:41:52.014Z</time></trkpt><trkpt lat="46.0381984" lon="13.5656277"><ele>472.0</ele><time>2026-05-03T09:41:53.013Z</time></trkpt><trkpt lat="46.0381237" lon="13.5655176"><ele>472.0</ele><time>2026-05-03T09:41:54.002Z</time></trkpt><trkpt lat="46.038042" lon="13.5654621"><ele>472.00000000000006</ele><time>2026-05-03T09:41:55.002Z</time></trkpt><trkpt lat="46.0379642" lon="13.565435"><ele>472.00000000000006</ele><time>2026-05-03T09:41:56.018Z</time></trkpt><trkpt lat="46.0378883" lon="13.5654609"><ele>472.0</ele><time>2026-05-03T09:41:57.001Z</time></trkpt><trkpt lat="46.037809" lon="13.5655633"><ele>472.0</ele><time>2026-05-03T09:41:58.004Z</time></trkpt><trkpt lat="46.0377231" lon="13.5657053"><ele>472.0</ele><time>2026-05-03T09:41:59.003Z</time></trkpt><trkpt lat="46.0376311" lon="13.5658575"><ele>472.0</ele><time>2026-05-03T09:42:00.011Z</time></trkpt><trkpt lat="46.0375263" lon="13.5660023"><ele>472.0</ele><time>2026-05-03T09:42:01.006Z</time></trkpt><trkpt lat="46.0374154" lon="13.5661236"><ele>472.0</ele><time>2026-05-03T09:42:02.005Z</time></trkpt><trkpt lat="46.0373107" lon="13.5662082"><ele>473.8</ele><time>2026-05-03T09:42:03.005Z</time></trkpt><trkpt lat="46.0372063" lon="13.5662721"><ele>475.6</ele><time>2026-05-03T09:42:04.012Z</time></trkpt><trkpt lat="46.0371121" lon="13.5663112"><ele>477.40000000000003</ele><time>2026-05-03T09:42:05.006Z</time></trkpt><trkpt lat="46.0370344" lon="13.5663333"><ele>479.20000000000005</ele><time>2026-05-03T09:42:06.009Z</time></trkpt><trkpt lat="46.0369423" lon="13.5663377"><ele>481.0</ele><time>2026-05-03T09:42:08.006Z</time></trkpt><trkpt lat="46.036843" lon="13.5662665"><ele>481.0</ele><time>2026-05-03T09:42:10.007Z</time></trkpt><trkpt lat="46.0367684" lon="13.566226"><ele>481.0</ele><time>2026-05-03T09:42:11.003Z</time></trkpt><trkpt lat="46.0366876" lon="13.5661996"><ele>481.0</ele><time>2026-05-03T09:42:12.018Z</time></trkpt><trkpt lat="46.0365951" lon="13.5662064"><ele>481.0</ele><time>2026-05-03T09:42:13.005Z</time></trkpt><trkpt lat="46.0364938" lon="13.5662395"><ele>481.0</ele><time>2026-05-03T09:42:14.003Z</time></trkpt><trkpt lat="46.036394" lon="13.5662822"><ele>482.00000000000006</ele><time>2026-05-03T09:42:15.013Z</time></trkpt><trkpt lat="46.0363116" lon="13.5663201"><ele>483.0</ele><time>2026-05-03T09:42:16.004Z</time></trkpt><trkpt lat="46.0362432" lon="13.5663471"><ele>484.0</ele><time>2026-05-03T09:42:17.006Z</time></trkpt><trkpt lat="46.0361604" lon="13.5663978"><ele>485.0</ele><time>2026-05-03T09:42:19.005Z</time></trkpt><trkpt lat="46.0361402" lon="13.5664882"><ele>486.00000000000006</ele><time>2026-05-03T09:42:22.003Z</time></trkpt><trkpt lat="46.0360985" lon="13.5665902"><ele>487.0</ele><time>2026-05-03T09:42:25.002Z</time></trkpt><trkpt lat="46.0360205" lon="13.5666981"><ele>487.0</ele><time>2026-05-03T09:42:27.007Z</time></trkpt><trkpt lat="46.0359841" lon="13.5667744"><ele>487.00000000000006</ele><time>2026-05-03T09:42:28.007Z</time></trkpt><trkpt lat="46.0359203" lon="13.5669132"><ele>487.00000000000006</ele><time>2026-05-03T09:42:30.01Z</time></trkpt><trkpt lat="46.0358461" lon="13.5670245"><ele>487.0</ele><time>2026-05-03T09:42:32.004Z</time></trkpt><trkpt lat="46.0357747" lon="13.5671386"><ele>487.0</ele><time>2026-05-03T09:42:33.999Z</time></trkpt><trkpt lat="46.0356683" lon="13.5672466"><ele>486.8571428571429</ele><time>2026-05-03T09:42:36.008Z</time></trkpt><trkpt lat="46.0356117" lon="13.5672927"><ele>486.71428571428567</ele><time>2026-05-03T09:42:36.999Z</time></trkpt><trkpt lat="46.0355486" lon="13.5673333"><ele>486.57142857142856</ele><time>2026-05-03T09:42:38.008Z</time></trkpt><trkpt lat="46.0354832" lon="13.5673639"><ele>486.42857142857144</ele><time>2026-05-03T09:42:39.002Z</time></trkpt><trkpt lat="46.0354156" lon="13.5673931"><ele>486.28571428571433</ele><time>2026-05-03T09:42:40.001Z</time></trkpt><trkpt lat="46.0353528" lon="13.5674243"><ele>486.1428571428571</ele><time>2026-05-03T09:42:41.003Z</time></trkpt><trkpt lat="46.0352941" lon="13.5674711"><ele>486.0</ele><time>2026-05-03T09:42:42.011Z</time></trkpt><trkpt lat="46.0352387" lon="13.5675251"><ele>486.0</ele><time>2026-05-03T09:42:43.003Z</time></trkpt><trkpt lat="46.0351924" lon="13.5675949"><ele>486.0</ele><time>2026-05-03T09:42:44.008Z</time></trkpt><trkpt lat="46.0351292" lon="13.5677559"><ele>486.0</ele><time>2026-05-03T09:42:46.007Z</time></trkpt><trkpt lat="46.0351024" lon="13.5678436"><ele>486.0</ele><time>2026-05-03T09:42:47.001Z</time></trkpt><trkpt lat="46.0350778" lon="13.5679347"><ele>486.0</ele><time>2026-05-03T09:42:48.002Z</time></trkpt><trkpt lat="46.0350424" lon="13.5680269"><ele>486.0</ele><time>2026-05-03T09:42:49.006Z</time></trkpt><trkpt lat="46.0350004" lon="13.5681178"><ele>484.2857142857143</ele><time>2026-05-03T09:42:50.009Z</time></trkpt><trkpt lat="46.034956" lon="13.5682135"><ele>482.57142857142856</ele><time>2026-05-03T09:42:51.018Z</time></trkpt><trkpt lat="46.0349245" lon="13.5683187"><ele>480.85714285714283</ele><time>2026-05-03T09:42:52.004Z</time></trkpt><trkpt lat="46.0349067" lon="13.5684085"><ele>479.1428571428571</ele><time>2026-05-03T09:42:53.015Z</time></trkpt><trkpt lat="46.0348915" lon="13.5685006"><ele>477.42857142857144</ele><time>2026-05-03T09:42:54.004Z</time></trkpt><trkpt lat="46.0348667" lon="13.5685892"><ele>475.71428571428567</ele><time>2026-05-03T09:42:55.007Z</time></trkpt><trkpt lat="46.034826" lon="13.5686731"><ele>473.99999999999994</ele><time>2026-05-03T09:42:56.017Z</time></trkpt><trkpt lat="46.0347823" lon="13.5687637"><ele>473.6666666666667</ele><time>2026-05-03T09:42:57.004Z</time></trkpt><trkpt lat="46.034733" lon="13.568862"><ele>473.33333333333337</ele><time>2026-05-03T09:42:58.012Z</time></trkpt><trkpt lat="46.0346823" lon="13.568967"><ele>473.0</ele><time>2026-05-03T09:42:59.008Z</time></trkpt><trkpt lat="46.0346443" lon="13.5690697"><ele>472.6666666666667</ele><time>2026-05-03T09:43:00.007Z</time></trkpt><trkpt lat="46.0346192" lon="13.5691641"><ele>472.33333333333337</ele><time>2026-05-03T09:43:01.002Z</time></trkpt><trkpt lat="46.034576" lon="13.5692503"><ele>472.0</ele><time>2026-05-03T09:43:02.013Z</time></trkpt><trkpt lat="46.0345321" lon="13.5693248"><ele>472.00000000000006</ele><time>2026-05-03T09:43:03.004Z</time></trkpt><trkpt lat="46.0344728" lon="13.5693906"><ele>472.0</ele><time>2026-05-03T09:43:04.005Z</time></trkpt><trkpt lat="46.0344" lon="13.5694542"><ele>472.0</ele><time>2026-05-03T09:43:05.002Z</time></trkpt><trkpt lat="46.0343148" lon="13.5695124"><ele>472.0</ele><time>2026-05-03T09:43:06.002Z</time></trkpt><trkpt lat="46.0342227" lon="13.5695599"><ele>472.00000000000006</ele><time>2026-05-03T09:43:07.004Z</time></trkpt><trkpt lat="46.0341334" lon="13.5696031"><ele>472.0</ele><time>2026-05-03T09:43:07.999Z</time></trkpt><trkpt lat="46.0340414" lon="13.569648"><ele>468.50000000000006</ele><time>2026-05-03T09:43:08.997Z</time></trkpt><trkpt lat="46.0339552" lon="13.5696891"><ele>465.0</ele><time>2026-05-03T09:43:10.014Z</time></trkpt><trkpt lat="46.0338827" lon="13.5697379"><ele>461.5</ele><time>2026-05-03T09:43:10.998Z</time></trkpt><trkpt lat="46.0338236" lon="13.5697985"><ele>458.0</ele><time>2026-05-03T09:43:12.003Z</time></trkpt><trkpt lat="46.0337722" lon="13.5698779"><ele>454.50000000000006</ele><time>2026-05-03T09:43:13.012Z</time></trkpt><trkpt lat="46.0337222" lon="13.5699572"><ele>451.0</ele><time>2026-05-03T09:43:14.011Z</time></trkpt><trkpt lat="46.033681" lon="13.570028"><ele>451.00000000000006</ele><time>2026-05-03T09:43:15.001Z</time></trkpt><trkpt lat="46.0335774" lon="13.5701121"><ele>451.0</ele><time>2026-05-03T09:43:17.007Z</time></trkpt><trkpt lat="46.0335191" lon="13.5701483"><ele>451.0</ele><time>2026-05-03T09:43:18.007Z</time></trkpt><trkpt lat="46.0334311" lon="13.5701768"><ele>451.0</ele><time>2026-05-03T09:43:20.001Z</time></trkpt><trkpt lat="46.0333602" lon="13.5702017"><ele>451.00000000000006</ele><time>2026-05-03T09:44:30.005Z</time></trkpt><trkpt lat="46.0332982" lon="13.5702467"><ele>451.0</ele><time>2026-05-03T09:44:34.014Z</time></trkpt><trkpt lat="46.0332423" lon="13.5702933"><ele>446.83333333333337</ele><time>2026-05-03T09:44:51.004Z</time></trkpt><trkpt lat="46.0331754" lon="13.5703758"><ele>442.6666666666667</ele><time>2026-05-03T09:44:54.01Z</time></trkpt><trkpt lat="46.0331246" lon="13.5704741"><ele>438.5</ele><time>2026-05-03T09:44:56.007Z</time></trkpt><trkpt lat="46.033084" lon="13.5705769"><ele>434.33333333333337</ele><time>2026-05-03T09:44:58.004Z</time></trkpt><trkpt lat="46.03305" lon="13.5706961"><ele>430.1666666666667</ele><time>2026-05-03T09:45:00.004Z</time></trkpt><trkpt lat="46.0330208" lon="13.5708007"><ele>426.0</ele><time>2026-05-03T09:45:02.006Z</time></trkpt><trkpt lat="46.0330072" lon="13.5708894"><ele>426.0</ele><time>2026-05-03T09:45:04.005Z</time></trkpt><trkpt lat="46.0329762" lon="13.5709718"><ele>426.0</ele><time>2026-05-03T09:45:06.002Z</time></trkpt><trkpt lat="46.0329241" lon="13.5710951"><ele>426.0</ele><time>2026-05-03T09:45:09.01Z</time></trkpt><trkpt lat="46.0328807" lon="13.5711877"><ele>426.0</ele><time>2026-05-03T09:45:11.008Z</time></trkpt><trkpt lat="46.0328235" lon="13.5712813"><ele>426.0</ele><time>2026-05-03T09:45:13.004Z</time></trkpt><trkpt lat="46.0327717" lon="13.5713613"><ele>426.0</ele><time>2026-05-03T09:45:15.003Z</time></trkpt><trkpt lat="46.0327153" lon="13.5714441"><ele>427.5</ele><time>2026-05-03T09:45:17.006Z</time></trkpt><trkpt lat="46.0326584" lon="13.5715138"><ele>429.0</ele><time>2026-05-03T09:45:19.003Z</time></trkpt><trkpt lat="46.0326001" lon="13.5715788"><ele>430.5</ele><time>2026-05-03T09:45:21.005Z</time></trkpt><trkpt lat="46.0325344" lon="13.5716526"><ele>432.0</ele><time>2026-05-03T09:45:23.004Z</time></trkpt><trkpt lat="46.0324719" lon="13.5717155"><ele>433.5</ele><time>2026-05-03T09:45:25.012Z</time></trkpt><trkpt lat="46.0324074" lon="13.571766"><ele>435.0</ele><time>2026-05-03T09:45:27.005Z</time></trkpt><trkpt lat="46.032349" lon="13.5718313"><ele>433.0</ele><time>2026-05-03T09:45:28.997Z</time></trkpt><trkpt lat="46.0322965" lon="13.5719164"><ele>431.0</ele><time>2026-05-03T09:45:31.002Z</time></trkpt><trkpt lat="46.0322395" lon="13.5720211"><ele>429.0</ele><time>2026-05-03T09:45:33.005Z</time></trkpt><trkpt lat="46.0321779" lon="13.5721291"><ele>427.0</ele><time>2026-05-03T09:45:34.998Z</time></trkpt><trkpt lat="46.0321019" lon="13.5722435"><ele>425.0</ele><time>2026-05-03T09:45:37.018Z</time></trkpt><trkpt lat="46.0320601" lon="13.5723192"><ele>423.0</ele><time>2026-05-03T09:45:38.005Z</time></trkpt><trkpt lat="46.0320076" lon="13.572402"><ele>423.0</ele><time>2026-05-03T09:45:39.003Z</time></trkpt><trkpt lat="46.0319526" lon="13.572474"><ele>423.0</ele><time>2026-05-03T09:45:40.009Z</time></trkpt><trkpt lat="46.0318994" lon="13.572543"><ele>423.0</ele><time>2026-05-03T09:45:41.001Z</time></trkpt><trkpt lat="46.0318485" lon="13.5726063"><ele>423.0</ele><time>2026-05-03T09:45:42Z</time></trkpt><trkpt lat="46.0317565" lon="13.5727123"><ele>423.0</ele><time>2026-05-03T09:45:43.997Z</time></trkpt><trkpt lat="46.0316765" lon="13.5728087"><ele>423.0</ele><time>2026-05-03T09:45:46.004Z</time></trkpt><trkpt lat="46.0316172" lon="13.5728808"><ele>422.2</ele><time>2026-05-03T09:45:48.003Z</time></trkpt><trkpt lat="46.0315469" lon="13.5729424"><ele>421.4</ele><time>2026-05-03T09:48:22.008Z</time></trkpt><trkpt lat="46.0314711" lon="13.5729898"><ele>420.59999999999997</ele><time>2026-05-03T09:48:23.997Z</time></trkpt><trkpt lat="46.0313912" lon="13.5730349"><ele>419.79999999999995</ele><time>2026-05-03T09:48:26.004Z</time></trkpt><trkpt lat="46.0312708" lon="13.5731067"><ele>419.0</ele><time>2026-05-03T09:48:28.006Z</time></trkpt><trkpt lat="46.0311921" lon="13.5731644"><ele>419.0</ele><time>2026-05-03T09:48:28.997Z</time></trkpt><trkpt lat="46.0311164" lon="13.5732369"><ele>419.0</ele><time>2026-05-03T09:48:30.008Z</time></trkpt><trkpt lat="46.0310468" lon="13.5733172"><ele>419.0</ele><time>2026-05-03T09:48:31Z</time></trkpt><trkpt lat="46.0309791" lon="13.5734042"><ele>419.0</ele><time>2026-05-03T09:48:31.999Z</time></trkpt><trkpt lat="46.0309213" lon="13.5735042"><ele>419.0</ele><time>2026-05-03T09:48:33.005Z</time></trkpt><trkpt lat="46.0308579" lon="13.573596"><ele>419.3333333333333</ele><time>2026-05-03T09:48:34.014Z</time></trkpt><trkpt lat="46.0307903" lon="13.5736671"><ele>419.66666666666663</ele><time>2026-05-03T09:48:35.005Z</time></trkpt><trkpt lat="46.0307308" lon="13.5737163"><ele>420.0</ele><time>2026-05-03T09:48:36.004Z</time></trkpt><trkpt lat="46.0306198" lon="13.5736855"><ele>420.33333333333337</ele><time>2026-05-03T09:48:38.004Z</time></trkpt><trkpt lat="46.0305534" lon="13.5736163"><ele>420.6666666666667</ele><time>2026-05-03T09:48:39.002Z</time></trkpt><trkpt lat="46.0304838" lon="13.5735578"><ele>421.0</ele><time>2026-05-03T09:48:39.999Z</time></trkpt><trkpt lat="46.0303969" lon="13.5735642"><ele>421.0</ele><time>2026-05-03T09:48:40.998Z</time></trkpt><trkpt lat="46.0303123" lon="13.5736102"><ele>421.0</ele><time>2026-05-03T09:48:42.007Z</time></trkpt><trkpt lat="46.0302093" lon="13.5737093"><ele>421.0</ele><time>2026-05-03T09:48:43.007Z</time></trkpt><trkpt lat="46.0301103" lon="13.5738164"><ele>421.0</ele><time>2026-05-03T09:48:44.01Z</time></trkpt><trkpt lat="46.0300226" lon="13.5739342"><ele>416.8</ele><time>2026-05-03T09:48:45.002Z</time></trkpt><trkpt lat="46.0299339" lon="13.5740517"><ele>412.6</ele><time>2026-05-03T09:48:45.999Z</time></trkpt><trkpt lat="46.0298497" lon="13.5741558"><ele>408.4</ele><time>2026-05-03T09:48:47.001Z</time></trkpt><trkpt lat="46.0297649" lon="13.5742522"><ele>404.2</ele><time>2026-05-03T09:48:48.012Z</time></trkpt><trkpt lat="46.029686" lon="13.5743351"><ele>400.0</ele><time>2026-05-03T09:48:49.001Z</time></trkpt><trkpt lat="46.0296058" lon="13.5744041"><ele>400.0</ele><time>2026-05-03T09:48:50.011Z</time></trkpt><trkpt lat="46.0295148" lon="13.5744529"><ele>400.0</ele><time>2026-05-03T09:48:50.997Z</time></trkpt><trkpt lat="46.0294076" lon="13.5744926"><ele>400.0</ele><time>2026-05-03T09:48:51.999Z</time></trkpt><trkpt lat="46.0292993" lon="13.5745364"><ele>400.0</ele><time>2026-05-03T09:48:52.997Z</time></trkpt><trkpt lat="46.029183" lon="13.5745843"><ele>400.0</ele><time>2026-05-03T09:48:54.002Z</time></trkpt><trkpt lat="46.0290624" lon="13.5746352"><ele>404.5</ele><time>2026-05-03T09:48:55.007Z</time></trkpt><trkpt lat="46.0289352" lon="13.5746768"><ele>409.0</ele><time>2026-05-03T09:48:56.004Z</time></trkpt><trkpt lat="46.0288109" lon="13.5746936"><ele>413.5</ele><time>2026-05-03T09:48:57.002Z</time></trkpt><trkpt lat="46.0286783" lon="13.574671"><ele>418.0</ele><time>2026-05-03T09:48:58.001Z</time></trkpt><trkpt lat="46.0285524" lon="13.5745968"><ele>412.25</ele><time>2026-05-03T09:48:59.004Z</time></trkpt><trkpt lat="46.028436" lon="13.5745024"><ele>406.5</ele><time>2026-05-03T09:49:00.012Z</time></trkpt><trkpt lat="46.0283113" lon="13.5744259"><ele>400.75</ele><time>2026-05-03T09:49:00.997Z</time></trkpt><trkpt lat="46.0281972" lon="13.5743753"><ele>395.0</ele><time>2026-05-03T09:49:02.003Z</time></trkpt><trkpt lat="46.0280932" lon="13.5743561"><ele>393.0</ele><time>2026-05-03T09:49:03.009Z</time></trkpt><trkpt lat="46.027996" lon="13.5744017"><ele>391.0</ele><time>2026-05-03T09:49:04.002Z</time></trkpt><trkpt lat="46.0279037" lon="13.5744978"><ele>389.0</ele><time>2026-05-03T09:49:05.006Z</time></trkpt><trkpt lat="46.0278164" lon="13.5746449"><ele>387.0</ele><time>2026-05-03T09:49:06.004Z</time></trkpt><trkpt lat="46.027707" lon="13.5747636"><ele>388.75</ele><time>2026-05-03T09:49:07Z</time></trkpt><trkpt lat="46.0275779" lon="13.57482"><ele>390.5</ele><time>2026-05-03T09:49:08Z</time></trkpt><trkpt lat="46.0274429" lon="13.5748326"><ele>392.25</ele><time>2026-05-03T09:49:09.002Z</time></trkpt><trkpt lat="46.0273146" lon="13.5748255"><ele>394.0</ele><time>2026-05-03T09:49:10.008Z</time></trkpt><trkpt lat="46.0272084" lon="13.5748138"><ele>394.0</ele><time>2026-05-03T09:49:11.007Z</time></trkpt><trkpt lat="46.0271344" lon="13.5747991"><ele>394.0</ele><time>2026-05-03T09:49:12Z</time></trkpt><trkpt lat="46.0270025" lon="13.5747769"><ele>394.0</ele><time>2026-05-03T09:49:13.999Z</time></trkpt><trkpt lat="46.0269222" lon="13.5747933"><ele>394.0</ele><time>2026-05-03T09:49:15.009Z</time></trkpt><trkpt lat="46.0268354" lon="13.5748299"><ele>394.0</ele><time>2026-05-03T09:49:15.999Z</time></trkpt><trkpt lat="46.0267399" lon="13.574896"><ele>395.5</ele><time>2026-05-03T09:49:16.998Z</time></trkpt><trkpt lat="46.0266335" lon="13.5749584"><ele>397.0</ele><time>2026-05-03T09:49:17.997Z</time></trkpt><trkpt lat="46.0265099" lon="13.5749938"><ele>398.5</ele><time>2026-05-03T09:49:18.999Z</time></trkpt><trkpt lat="46.0263698" lon="13.5750093"><ele>400.0</ele><time>2026-05-03T09:49:20.001Z</time></trkpt><trkpt lat="46.026224" lon="13.5750237"><ele>400.0</ele><time>2026-05-03T09:49:21.003Z</time></trkpt><trkpt lat="46.0260766" lon="13.5750406"><ele>400.0</ele><time>2026-05-03T09:49:21.998Z</time></trkpt><trkpt lat="46.0259291" lon="13.5750758"><ele>400.0</ele><time>2026-05-03T09:49:23.002Z</time></trkpt><trkpt lat="46.0257769" lon="13.5751381"><ele>401.6666666666667</ele><time>2026-05-03T09:49:24.001Z</time></trkpt><trkpt lat="46.0256268" lon="13.5752112"><ele>403.33333333333337</ele><time>2026-05-03T09:49:24.999Z</time></trkpt><trkpt lat="46.0254786" lon="13.5752992"><ele>405.0</ele><time>2026-05-03T09:49:25.999Z</time></trkpt><trkpt lat="46.0253239" lon="13.5753801"><ele>399.25</ele><time>2026-05-03T09:49:27.002Z</time></trkpt><trkpt lat="46.0251862" lon="13.5754723"><ele>393.5</ele><time>2026-05-03T09:49:28.007Z</time></trkpt><trkpt lat="46.0250579" lon="13.5755266"><ele>387.75</ele><time>2026-05-03T09:49:28.997Z</time></trkpt><trkpt lat="46.0249231" lon="13.5755698"><ele>382.0</ele><time>2026-05-03T09:49:30.003Z</time></trkpt><trkpt lat="46.024787" lon="13.5756119"><ele>382.0</ele><time>2026-05-03T09:49:31.003Z</time></trkpt><trkpt lat="46.0246663" lon="13.5756315"><ele>382.0</ele><time>2026-05-03T09:49:32.002Z</time></trkpt><trkpt lat="46.0245579" lon="13.5756188"><ele>382.0</ele><time>2026-05-03T09:49:33.007Z</time></trkpt><trkpt lat="46.0244602" lon="13.575607"><ele>382.0</ele><time>2026-05-03T09:49:34.001Z</time></trkpt><trkpt lat="46.0243823" lon="13.5756176"><ele>382.0</ele><time>2026-05-03T09:49:35.002Z</time></trkpt><trkpt lat="46.0243112" lon="13.5756415"><ele>382.0</ele><time>2026-05-03T09:49:37.003Z</time></trkpt><trkpt lat="46.0243624" lon="13.5756991"><ele>382.0</ele><time>2026-05-03T09:49:39.01Z</time></trkpt><trkpt lat="46.0244809" lon="13.575722"><ele>382.0</ele><time>2026-05-03T09:49:40.998Z</time></trkpt><trkpt lat="46.0245844" lon="13.5757146"><ele>382.0</ele><time>2026-05-03T09:49:42.001Z</time></trkpt><trkpt lat="46.0247055" lon="13.575715"><ele>382.0</ele><time>2026-05-03T09:49:42.996Z</time></trkpt><trkpt lat="46.0248412" lon="13.5757133"><ele>381.0</ele><time>2026-05-03T09:49:43.995Z</time></trkpt><trkpt lat="46.0249853" lon="13.5757164"><ele>380.0</ele><time>2026-05-03T09:49:44.998Z</time></trkpt><trkpt lat="46.025132" lon="13.5757219"><ele>379.0</ele><time>2026-05-03T09:49:46.005Z</time></trkpt><trkpt lat="46.0252786" lon="13.5757225"><ele>378.0</ele><time>2026-05-03T09:49:47Z</time></trkpt><trkpt lat="46.0254296" lon="13.5756925"><ele>378.0</ele><time>2026-05-03T09:49:48.001Z</time></trkpt><trkpt lat="46.0255931" lon="13.5756423"><ele>378.0</ele><time>2026-05-03T09:49:49.007Z</time></trkpt><trkpt lat="46.0257401" lon="13.5756195"><ele>378.0</ele><time>2026-05-03T09:49:49.995Z</time></trkpt><trkpt lat="46.0258893" lon="13.5756378"><ele>374.25</ele><time>2026-05-03T09:49:51Z</time></trkpt><trkpt lat="46.0260308" lon="13.5756875"><ele>370.5</ele><time>2026-05-03T09:49:52Z</time></trkpt><trkpt lat="46.0261565" lon="13.5757701"><ele>366.75</ele><time>2026-05-03T09:49:52.997Z</time></trkpt><trkpt lat="46.0262528" lon="13.5759092"><ele>363.0</ele><time>2026-05-03T09:49:54.002Z</time></trkpt><trkpt lat="46.0263059" lon="13.5760921"><ele>357.0</ele><time>2026-05-03T09:49:54.998Z</time></trkpt><trkpt lat="46.0263334" lon="13.5762928"><ele>351.0</ele><time>2026-05-03T09:49:56.006Z</time></trkpt><trkpt lat="46.0263762" lon="13.5764791"><ele>345.0</ele><time>2026-05-03T09:49:57Z</time></trkpt><trkpt lat="46.0264526" lon="13.5766357"><ele>339.0</ele><time>2026-05-03T09:49:58.001Z</time></trkpt><trkpt lat="46.0265545" lon="13.5767734"><ele>338.3333333333333</ele><time>2026-05-03T09:49:59.009Z</time></trkpt><trkpt lat="46.0266749" lon="13.5769174"><ele>337.66666666666663</ele><time>2026-05-03T09:49:59.997Z</time></trkpt><trkpt lat="46.026789" lon="13.577064"><ele>337.0</ele><time>2026-05-03T09:50:00.997Z</time></trkpt><trkpt lat="46.0268965" lon="13.5772236"><ele>337.0</ele><time>2026-05-03T09:50:02.002Z</time></trkpt><trkpt lat="46.0270052" lon="13.5773751"><ele>337.0</ele><time>2026-05-03T09:50:02.999Z</time></trkpt><trkpt lat="46.0271249" lon="13.5775319"><ele>337.0</ele><time>2026-05-03T09:50:04Z</time></trkpt><trkpt lat="46.0272682" lon="13.5776587"><ele>337.0</ele><time>2026-05-03T09:50:05.004Z</time></trkpt><trkpt lat="46.027398" lon="13.5777644"><ele>337.0</ele><time>2026-05-03T09:50:06.002Z</time></trkpt><trkpt lat="46.0275067" lon="13.5778227"><ele>337.0</ele><time>2026-05-03T09:50:06.999Z</time></trkpt><trkpt lat="46.0276348" lon="13.5778122"><ele>337.0</ele><time>2026-05-03T09:50:08.005Z</time></trkpt><trkpt lat="46.0277719" lon="13.577772"><ele>331.75</ele><time>2026-05-03T09:50:09.005Z</time></trkpt><trkpt lat="46.0279008" lon="13.5777532"><ele>326.5</ele><time>2026-05-03T09:50:09.996Z</time></trkpt><trkpt lat="46.0280351" lon="13.5777444"><ele>321.25</ele><time>2026-05-03T09:50:11.006Z</time></trkpt><trkpt lat="46.0281567" lon="13.5777984"><ele>316.0</ele><time>2026-05-03T09:50:12.002Z</time></trkpt><trkpt lat="46.0282692" lon="13.5779025"><ele>316.0</ele><time>2026-05-03T09:50:13.006Z</time></trkpt><trkpt lat="46.0283698" lon="13.5780608"><ele>316.0</ele><time>2026-05-03T09:50:13.997Z</time></trkpt><trkpt lat="46.0284543" lon="13.578253"><ele>316.0</ele><time>2026-05-03T09:50:15.002Z</time></trkpt><trkpt lat="46.0285283" lon="13.5784879"><ele>316.0</ele><time>2026-05-03T09:50:16.004Z</time></trkpt><trkpt lat="46.0285708" lon="13.5787309"><ele>316.0</ele><time>2026-05-03T09:50:17.005Z</time></trkpt><trkpt lat="46.0285934" lon="13.578966"><ele>316.0</ele><time>2026-05-03T09:50:18Z</time></trkpt><trkpt lat="46.0286454" lon="13.5791779"><ele>309.0</ele><time>2026-05-03T09:50:18.998Z</time></trkpt><trkpt lat="46.0287123" lon="13.5794126"><ele>302.0</ele><time>2026-05-03T09:50:19.993Z</time></trkpt><trkpt lat="46.0288074" lon="13.5796334"><ele>295.0</ele><time>2026-05-03T09:50:21.003Z</time></trkpt><trkpt lat="46.0289287" lon="13.5798143"><ele>295.0</ele><time>2026-05-03T09:50:21.997Z</time></trkpt><trkpt lat="46.0290461" lon="13.5799798"><ele>295.0</ele><time>2026-05-03T09:50:23.011Z</time></trkpt><trkpt lat="46.0291453" lon="13.5801287"><ele>295.0</ele><time>2026-05-03T09:50:24.008Z</time></trkpt><trkpt lat="46.0292115" lon="13.5803043"><ele>295.0</ele><time>2026-05-03T09:50:25.001Z</time></trkpt><trkpt lat="46.0292401" lon="13.5804915"><ele>300.0</ele><time>2026-05-03T09:50:26.001Z</time></trkpt><trkpt lat="46.0292882" lon="13.5806695"><ele>305.0</ele><time>2026-05-03T09:50:27.001Z</time></trkpt><trkpt lat="46.0293386" lon="13.5808528"><ele>310.0</ele><time>2026-05-03T09:50:27.998Z</time></trkpt><trkpt lat="46.0293742" lon="13.5810243"><ele>315.0</ele><time>2026-05-03T09:50:29.006Z</time></trkpt><trkpt lat="46.0293686" lon="13.5811814"><ele>316.6</ele><time>2026-05-03T09:50:30.003Z</time></trkpt><trkpt lat="46.0293156" lon="13.5813456"><ele>318.2</ele><time>2026-05-03T09:50:31.001Z</time></trkpt><trkpt lat="46.0292866" lon="13.581498"><ele>319.79999999999995</ele><time>2026-05-03T09:50:32Z</time></trkpt><trkpt lat="46.0293141" lon="13.5816275"><ele>321.4</ele><time>2026-05-03T09:50:33.004Z</time></trkpt><trkpt lat="46.0293949" lon="13.581712"><ele>323.0</ele><time>2026-05-03T09:50:34Z</time></trkpt><trkpt lat="46.029492" lon="13.5817809"><ele>323.0</ele><time>2026-05-03T09:50:35.005Z</time></trkpt><trkpt lat="46.0296258" lon="13.5818555"><ele>323.0</ele><time>2026-05-03T09:50:36.002Z</time></trkpt><trkpt lat="46.0297775" lon="13.5819382"><ele>323.0</ele><time>2026-05-03T09:50:37Z</time></trkpt><trkpt lat="46.0299349" lon="13.5820457"><ele>313.6666666666667</ele><time>2026-05-03T09:50:38.006Z</time></trkpt><trkpt lat="46.0300978" lon="13.5821411"><ele>304.3333333333333</ele><time>2026-05-03T09:50:39.007Z</time></trkpt><trkpt lat="46.0302338" lon="13.5822352"><ele>295.0</ele><time>2026-05-03T09:50:40Z</time></trkpt><trkpt lat="46.0303687" lon="13.5823162"><ele>295.0</ele><time>2026-05-03T09:50:40.998Z</time></trkpt><trkpt lat="46.0304898" lon="13.5823767"><ele>295.0</ele><time>2026-05-03T09:50:42Z</time></trkpt><trkpt lat="46.0305821" lon="13.5824556"><ele>295.0</ele><time>2026-05-03T09:50:43.012Z</time></trkpt><trkpt lat="46.0306562" lon="13.5825473"><ele>295.0</ele><time>2026-05-03T09:50:44.004Z</time></trkpt><trkpt lat="46.030698" lon="13.5826918"><ele>295.0</ele><time>2026-05-03T09:50:45.011Z</time></trkpt><trkpt lat="46.0306884" lon="13.5828812"><ele>290.0</ele><time>2026-05-03T09:50:46.006Z</time></trkpt><trkpt lat="46.0306572" lon="13.5830831"><ele>285.0</ele><time>2026-05-03T09:50:46.998Z</time></trkpt><trkpt lat="46.0306389" lon="13.5832874"><ele>280.0</ele><time>2026-05-03T09:50:48Z</time></trkpt><trkpt lat="46.030637" lon="13.5834551"><ele>275.0</ele><time>2026-05-03T09:50:49.002Z</time></trkpt><trkpt lat="46.030644" lon="13.5836295"><ele>275.5</ele><time>2026-05-03T09:50:49.997Z</time></trkpt><trkpt lat="46.030649" lon="13.5837982"><ele>276.0</ele><time>2026-05-03T09:50:50.999Z</time></trkpt><trkpt lat="46.0306165" lon="13.5839759"><ele>276.5</ele><time>2026-05-03T09:50:52.012Z</time></trkpt><trkpt lat="46.0305455" lon="13.5841521"><ele>277.0</ele><time>2026-05-03T09:50:52.996Z</time></trkpt><trkpt lat="46.0304605" lon="13.5843084"><ele>277.0</ele><time>2026-05-03T09:50:54.003Z</time></trkpt><trkpt lat="46.0303671" lon="13.5844471"><ele>277.0</ele><time>2026-05-03T09:50:55Z</time></trkpt><trkpt lat="46.0302985" lon="13.5845935"><ele>277.0</ele><time>2026-05-03T09:50:56.003Z</time></trkpt><trkpt lat="46.0302591" lon="13.584763"><ele>277.0</ele><time>2026-05-03T09:50:56.999Z</time></trkpt><trkpt lat="46.0302463" lon="13.5849506"><ele>278.5</ele><time>2026-05-03T09:50:58.007Z</time></trkpt><trkpt lat="46.0302508" lon="13.5851451"><ele>280.0</ele><time>2026-05-03T09:50:59.006Z</time></trkpt><trkpt lat="46.0302687" lon="13.5853376"><ele>281.5</ele><time>2026-05-03T09:51:00.006Z</time></trkpt><trkpt lat="46.0303079" lon="13.5855294"><ele>283.0</ele><time>2026-05-03T09:51:01.002Z</time></trkpt><trkpt lat="46.0303769" lon="13.585726"><ele>276.66666666666663</ele><time>2026-05-03T09:51:02.003Z</time></trkpt><trkpt lat="46.0304873" lon="13.5859214"><ele>270.3333333333333</ele><time>2026-05-03T09:51:03.001Z</time></trkpt><trkpt lat="46.0305785" lon="13.5861038"><ele>264.0</ele><time>2026-05-03T09:51:04.005Z</time></trkpt><trkpt lat="46.0306428" lon="13.5863111"><ele>261.0</ele><time>2026-05-03T09:51:05Z</time></trkpt><trkpt lat="46.0306726" lon="13.5865158"><ele>258.0</ele><time>2026-05-03T09:51:05.998Z</time></trkpt><trkpt lat="46.0306698" lon="13.5867394"><ele>255.0</ele><time>2026-05-03T09:51:07.001Z</time></trkpt><trkpt lat="46.0306594" lon="13.5869432"><ele>252.0</ele><time>2026-05-03T09:51:08.005Z</time></trkpt><trkpt lat="46.0306661" lon="13.5871421"><ele>249.66666666666669</ele><time>2026-05-03T09:51:09.01Z</time></trkpt><trkpt lat="46.0307129" lon="13.5873627"><ele>247.33333333333334</ele><time>2026-05-03T09:51:10.005Z</time></trkpt><trkpt lat="46.0307821" lon="13.5875967"><ele>245.0</ele><time>2026-05-03T09:51:11.003Z</time></trkpt><trkpt lat="46.0308386" lon="13.5878196"><ele>253.33333333333334</ele><time>2026-05-03T09:51:12.005Z</time></trkpt><trkpt lat="46.030876" lon="13.5880426"><ele>261.6666666666667</ele><time>2026-05-03T09:51:13.008Z</time></trkpt><trkpt lat="46.0309175" lon="13.5882626"><ele>270.0</ele><time>2026-05-03T09:51:14.01Z</time></trkpt><trkpt lat="46.0309234" lon="13.5884743"><ele>268.5</ele><time>2026-05-03T09:51:15.003Z</time></trkpt><trkpt lat="46.0309086" lon="13.5886869"><ele>267.0</ele><time>2026-05-03T09:51:16.004Z</time></trkpt><trkpt lat="46.0308773" lon="13.5888992"><ele>265.5</ele><time>2026-05-03T09:51:17.006Z</time></trkpt><trkpt lat="46.0308672" lon="13.589094"><ele>264.0</ele><time>2026-05-03T09:51:18.009Z</time></trkpt><trkpt lat="46.0308865" lon="13.5892838"><ele>264.0</ele><time>2026-05-03T09:51:19.003Z</time></trkpt><trkpt lat="46.0309374" lon="13.5894773"><ele>264.0</ele><time>2026-05-03T09:51:20Z</time></trkpt><trkpt lat="46.0310029" lon="13.5896663"><ele>264.0</ele><time>2026-05-03T09:51:20.998Z</time></trkpt><trkpt lat="46.0310951" lon="13.5898273"><ele>264.0</ele><time>2026-05-03T09:51:21.997Z</time></trkpt><trkpt lat="46.0312025" lon="13.5899578"><ele>261.4</ele><time>2026-05-03T09:51:23Z</time></trkpt><trkpt lat="46.0313186" lon="13.5900624"><ele>258.79999999999995</ele><time>2026-05-03T09:51:24Z</time></trkpt><trkpt lat="46.0314388" lon="13.590129"><ele>256.20000000000005</ele><time>2026-05-03T09:51:25.007Z</time></trkpt><trkpt lat="46.0315396" lon="13.5901677"><ele>253.60000000000002</ele><time>2026-05-03T09:51:26.009Z</time></trkpt><trkpt lat="46.0316037" lon="13.5902075"><ele>251.0</ele><time>2026-05-03T09:51:27.005Z</time></trkpt><trkpt lat="46.0315823" lon="13.5903429"><ele>251.0</ele><time>2026-05-03T09:51:29.001Z</time></trkpt><trkpt lat="46.0314503" lon="13.5903482"><ele>251.0</ele><time>2026-05-03T09:51:31.006Z</time></trkpt><trkpt lat="46.0313558" lon="13.5902992"><ele>251.0</ele><time>2026-05-03T09:51:31.998Z</time></trkpt><trkpt lat="46.0312393" lon="13.5902459"><ele>251.0</ele><time>2026-05-03T09:51:32.999Z</time></trkpt><trkpt lat="46.031106" lon="13.5902046"><ele>251.0</ele><time>2026-05-03T09:51:34.001Z</time></trkpt><trkpt lat="46.0309566" lon="13.5901675"><ele>251.0</ele><time>2026-05-03T09:51:34.999Z</time></trkpt><trkpt lat="46.0308103" lon="13.5901171"><ele>251.0</ele><time>2026-05-03T09:51:36.01Z</time></trkpt><trkpt lat="46.0306594" lon="13.5900369"><ele>241.0</ele><time>2026-05-03T09:51:37.001Z</time></trkpt><trkpt lat="46.0305249" lon="13.5899222"><ele>231.0</ele><time>2026-05-03T09:51:38.007Z</time></trkpt><trkpt lat="46.0304026" lon="13.5897858"><ele>221.0</ele><time>2026-05-03T09:51:39Z</time></trkpt><trkpt lat="46.0303017" lon="13.5896401"><ele>224.33333333333334</ele><time>2026-05-03T09:51:39.997Z</time></trkpt><trkpt lat="46.0302003" lon="13.5894936"><ele>227.66666666666669</ele><time>2026-05-03T09:51:41.009Z</time></trkpt><trkpt lat="46.0301317" lon="13.5893072"><ele>231.0</ele><time>2026-05-03T09:51:42Z</time></trkpt><trkpt lat="46.0300741" lon="13.5890928"><ele>231.0</ele><time>2026-05-03T09:51:42.997Z</time></trkpt><trkpt lat="46.0300267" lon="13.5888516"><ele>231.0</ele><time>2026-05-03T09:51:43.999Z</time></trkpt><trkpt lat="46.0299924" lon="13.5886106"><ele>231.0</ele><time>2026-05-03T09:51:45.001Z</time></trkpt><trkpt lat="46.0299339" lon="13.5883831"><ele>221.66666666666669</ele><time>2026-05-03T09:51:46.002Z</time></trkpt><trkpt lat="46.0298658" lon="13.5881765"><ele>212.33333333333334</ele><time>2026-05-03T09:51:46.999Z</time></trkpt><trkpt lat="46.0298015" lon="13.5879689"><ele>203.0</ele><time>2026-05-03T09:51:48.008Z</time></trkpt><trkpt lat="46.0297485" lon="13.5877598"><ele>203.0</ele><time>2026-05-03T09:51:49.004Z</time></trkpt><trkpt lat="46.0297195" lon="13.5875507"><ele>203.0</ele><time>2026-05-03T09:51:50Z</time></trkpt><trkpt lat="46.029711" lon="13.5873351"><ele>203.0</ele><time>2026-05-03T09:51:51.002Z</time></trkpt><trkpt lat="46.0296892" lon="13.5871213"><ele>203.0</ele><time>2026-05-03T09:51:51.998Z</time></trkpt><trkpt lat="46.0296447" lon="13.5869283"><ele>204.60000000000002</ele><time>2026-05-03T09:51:53Z</time></trkpt><trkpt lat="46.0296003" lon="13.5867608"><ele>206.20000000000002</ele><time>2026-05-03T09:51:53.995Z</time></trkpt><trkpt lat="46.0295518" lon="13.5866191"><ele>207.8</ele><time>2026-05-03T09:51:55.007Z</time></trkpt><trkpt lat="46.0295063" lon="13.5865108"><ele>209.4</ele><time>2026-05-03T09:51:55.998Z</time></trkpt><trkpt lat="46.0294477" lon="13.5864454"><ele>211.0</ele><time>2026-05-03T09:51:56.997Z</time></trkpt><trkpt lat="46.0294002" lon="13.5866009"><ele>211.0</ele><time>2026-05-03T09:51:58.998Z</time></trkpt><trkpt lat="46.0294126" lon="13.5867448"><ele>211.0</ele><time>2026-05-03T09:52:00.007Z</time></trkpt><trkpt lat="46.0294411" lon="13.5869182"><ele>211.0</ele><time>2026-05-03T09:52:00.998Z</time></trkpt><trkpt lat="46.0294732" lon="13.5871015"><ele>211.0</ele><time>2026-05-03T09:52:02.005Z</time></trkpt><trkpt lat="46.0294977" lon="13.5872985"><ele>208.33333333333331</ele><time>2026-05-03T09:52:02.997Z</time></trkpt><trkpt lat="46.0295014" lon="13.5874946"><ele>205.66666666666669</ele><time>2026-05-03T09:52:03.999Z</time></trkpt><trkpt lat="46.0294726" lon="13.5877448"><ele>203.0</ele><time>2026-05-03T09:52:04.998Z</time></trkpt><trkpt lat="46.0294403" lon="13.5880295"><ele>201.66666666666669</ele><time>2026-05-03T09:52:06.001Z</time></trkpt><trkpt lat="46.02941" lon="13.588319"><ele>200.33333333333331</ele><time>2026-05-03T09:52:07.007Z</time></trkpt><trkpt lat="46.0293668" lon="13.5885974"><ele>199.0</ele><time>2026-05-03T09:52:07.998Z</time></trkpt><trkpt lat="46.0293335" lon="13.5888537"><ele>198.66666666666666</ele><time>2026-05-03T09:52:09.004Z</time></trkpt><trkpt lat="46.0292993" lon="13.5891026"><ele>198.33333333333331</ele><time>2026-05-03T09:52:10.001Z</time></trkpt><trkpt lat="46.0292679" lon="13.5893302"><ele>198.0</ele><time>2026-05-03T09:52:11Z</time></trkpt><trkpt lat="46.0292594" lon="13.589551"><ele>195.66666666666666</ele><time>2026-05-03T09:52:12.006Z</time></trkpt><trkpt lat="46.0292752" lon="13.5897698"><ele>193.33333333333331</ele><time>2026-05-03T09:52:13.005Z</time></trkpt><trkpt lat="46.0293389" lon="13.5900295"><ele>191.0</ele><time>2026-05-03T09:52:13.998Z</time></trkpt><trkpt lat="46.0294009" lon="13.590295"><ele>187.0</ele><time>2026-05-03T09:52:14.999Z</time></trkpt><trkpt lat="46.0294625" lon="13.5905224"><ele>183.0</ele><time>2026-05-03T09:52:16Z</time></trkpt><trkpt lat="46.0295453" lon="13.5907562"><ele>179.0</ele><time>2026-05-03T09:52:17.008Z</time></trkpt><trkpt lat="46.0296425" lon="13.5909632"><ele>173.0</ele><time>2026-05-03T09:52:17.997Z</time></trkpt><trkpt lat="46.029734" lon="13.5911763"><ele>167.0</ele><time>2026-05-03T09:52:19.002Z</time></trkpt><trkpt lat="46.0298189" lon="13.5913765"><ele>161.0</ele><time>2026-05-03T09:52:20.004Z</time></trkpt><trkpt lat="46.0298967" lon="13.5915574"><ele>167.75</ele><time>2026-05-03T09:52:20.996Z</time></trkpt><trkpt lat="46.0299752" lon="13.5917102"><ele>174.5</ele><time>2026-05-03T09:52:22.005Z</time></trkpt><trkpt lat="46.0300769" lon="13.5918126"><ele>181.25</ele><time>2026-05-03T09:52:23Z</time></trkpt><trkpt lat="46.0301993" lon="13.5919047"><ele>188.0</ele><time>2026-05-03T09:52:24.002Z</time></trkpt><trkpt lat="46.0303555" lon="13.5919765"><ele>180.33333333333331</ele><time>2026-05-03T09:52:25Z</time></trkpt><trkpt lat="46.0305264" lon="13.5920315"><ele>172.66666666666666</ele><time>2026-05-03T09:52:26Z</time></trkpt><trkpt lat="46.030703" lon="13.5920925"><ele>165.0</ele><time>2026-05-03T09:52:27.001Z</time></trkpt><trkpt lat="46.0308759" lon="13.5921616"><ele>165.0</ele><time>2026-05-03T09:52:27.998Z</time></trkpt><trkpt lat="46.0310487" lon="13.5922291"><ele>165.0</ele><time>2026-05-03T09:52:28.999Z</time></trkpt><trkpt lat="46.031215" lon="13.5922863"><ele>165.0</ele><time>2026-05-03T09:52:30.005Z</time></trkpt><trkpt lat="46.0313822" lon="13.5923437"><ele>165.0</ele><time>2026-05-03T09:52:31.003Z</time></trkpt><trkpt lat="46.0315522" lon="13.592377"><ele>165.0</ele><time>2026-05-03T09:52:31.998Z</time></trkpt><trkpt lat="46.0317178" lon="13.5923868"><ele>165.0</ele><time>2026-05-03T09:52:32.996Z</time></trkpt><trkpt lat="46.0318815" lon="13.5923658"><ele>166.0</ele><time>2026-05-03T09:52:34Z</time></trkpt><trkpt lat="46.0320497" lon="13.5923218"><ele>167.0</ele><time>2026-05-03T09:52:34.997Z</time></trkpt><trkpt lat="46.0321999" lon="13.5922725"><ele>168.0</ele><time>2026-05-03T09:52:35.998Z</time></trkpt><trkpt lat="46.0323366" lon="13.5921932"><ele>168.0</ele><time>2026-05-03T09:52:37.007Z</time></trkpt><trkpt lat="46.0324622" lon="13.5921345"><ele>168.0</ele><time>2026-05-03T09:52:38Z</time></trkpt><trkpt lat="46.0325733" lon="13.5921412"><ele>168.0</ele><time>2026-05-03T09:52:38.999Z</time></trkpt><trkpt lat="46.0326769" lon="13.5922342"><ele>168.0</ele><time>2026-05-03T09:52:39.998Z</time></trkpt><trkpt lat="46.0327678" lon="13.5924112"><ele>165.66666666666666</ele><time>2026-05-03T09:52:40.998Z</time></trkpt><trkpt lat="46.0328649" lon="13.5925959"><ele>163.33333333333331</ele><time>2026-05-03T09:52:41.997Z</time></trkpt><trkpt lat="46.0329928" lon="13.5927512"><ele>161.0</ele><time>2026-05-03T09:52:42.996Z</time></trkpt><trkpt lat="46.0331481" lon="13.5928929"><ele>156.66666666666666</ele><time>2026-05-03T09:52:43.999Z</time></trkpt><trkpt lat="46.033338" lon="13.5930075"><ele>152.33333333333334</ele><time>2026-05-03T09:52:44.998Z</time></trkpt><trkpt lat="46.0335163" lon="13.5931041"><ele>148.0</ele><time>2026-05-03T09:52:46.005Z</time></trkpt><trkpt lat="46.0336852" lon="13.5932008"><ele>148.0</ele><time>2026-05-03T09:52:46.999Z</time></trkpt><trkpt lat="46.033841" lon="13.5932985"><ele>148.0</ele><time>2026-05-03T09:52:47.998Z</time></trkpt><trkpt lat="46.0339783" lon="13.5933638"><ele>148.0</ele><time>2026-05-03T09:52:48.997Z</time></trkpt><trkpt lat="46.0340835" lon="13.5934085"><ele>148.0</ele><time>2026-05-03T09:52:50.003Z</time></trkpt><trkpt lat="46.0342021" lon="13.5934616"><ele>149.75</ele><time>2026-05-03T09:52:51.006Z</time></trkpt><trkpt lat="46.0343264" lon="13.593521"><ele>151.5</ele><time>2026-05-03T09:52:51.999Z</time></trkpt><trkpt lat="46.0344611" lon="13.5935813"><ele>153.25</ele><time>2026-05-03T09:52:53.001Z</time></trkpt><trkpt lat="46.0346064" lon="13.5936228"><ele>155.0</ele><time>2026-05-03T09:52:54.001Z</time></trkpt><trkpt lat="46.0347558" lon="13.5936297"><ele>155.0</ele><time>2026-05-03T09:52:55.004Z</time></trkpt><trkpt lat="46.0349061" lon="13.593601"><ele>155.0</ele><time>2026-05-03T09:52:56.002Z</time></trkpt><trkpt lat="46.0350293" lon="13.5935538"><ele>155.0</ele><time>2026-05-03T09:52:57.01Z</time></trkpt><trkpt lat="46.0351395" lon="13.5934739"><ele>155.0</ele><time>2026-05-03T09:52:57.997Z</time></trkpt><trkpt lat="46.0352512" lon="13.5932986"><ele>152.66666666666666</ele><time>2026-05-03T09:52:58.996Z</time></trkpt><trkpt lat="46.0353559" lon="13.5931416"><ele>150.33333333333334</ele><time>2026-05-03T09:53:00.005Z</time></trkpt><trkpt lat="46.0354639" lon="13.5929829"><ele>148.0</ele><time>2026-05-03T09:53:01.004Z</time></trkpt><trkpt lat="46.0355652" lon="13.5928183"><ele>156.0</ele><time>2026-05-03T09:53:02Z</time></trkpt><trkpt lat="46.0356614" lon="13.5926598"><ele>164.0</ele><time>2026-05-03T09:53:03.001Z</time></trkpt><trkpt lat="46.0357395" lon="13.5924716"><ele>172.0</ele><time>2026-05-03T09:53:03.997Z</time></trkpt><trkpt lat="46.0358016" lon="13.5922657"><ele>161.0</ele><time>2026-05-03T09:53:05.003Z</time></trkpt><trkpt lat="46.03584" lon="13.5920331"><ele>150.0</ele><time>2026-05-03T09:53:05.999Z</time></trkpt><trkpt lat="46.0358779" lon="13.5917991"><ele>139.0</ele><time>2026-05-03T09:53:06.999Z</time></trkpt><trkpt lat="46.035916" lon="13.5915838"><ele>139.0</ele><time>2026-05-03T09:53:08.003Z</time></trkpt><trkpt lat="46.0359712" lon="13.5913592"><ele>139.0</ele><time>2026-05-03T09:53:08.996Z</time></trkpt><trkpt lat="46.0360479" lon="13.5911519"><ele>139.0</ele><time>2026-05-03T09:53:09.999Z</time></trkpt><trkpt lat="46.0361336" lon="13.5909359"><ele>143.0</ele><time>2026-05-03T09:53:10.998Z</time></trkpt><trkpt lat="46.0362174" lon="13.590742"><ele>147.0</ele><time>2026-05-03T09:53:12.005Z</time></trkpt><trkpt lat="46.0362968" lon="13.5905311"><ele>151.0</ele><time>2026-05-03T09:53:13.002Z</time></trkpt><trkpt lat="46.0363802" lon="13.5903389"><ele>159.33333333333334</ele><time>2026-05-03T09:53:13.999Z</time></trkpt><trkpt lat="46.0364721" lon="13.5901388"><ele>167.66666666666666</ele><time>2026-05-03T09:53:14.997Z</time></trkpt><trkpt lat="46.0365743" lon="13.5899394"><ele>176.0</ele><time>2026-05-03T09:53:15.998Z</time></trkpt><trkpt lat="46.0366797" lon="13.5897301"><ele>163.33333333333331</ele><time>2026-05-03T09:53:17.006Z</time></trkpt><trkpt lat="46.0367916" lon="13.5895251"><ele>150.66666666666666</ele><time>2026-05-03T09:53:17.999Z</time></trkpt><trkpt lat="46.0369041" lon="13.58934"><ele>138.0</ele><time>2026-05-03T09:53:19Z</time></trkpt><trkpt lat="46.0370166" lon="13.5891647"><ele>138.0</ele><time>2026-05-03T09:53:19.998Z</time></trkpt><trkpt lat="46.0371425" lon="13.5890127"><ele>138.0</ele><time>2026-05-03T09:53:20.999Z</time></trkpt><trkpt lat="46.0372796" lon="13.5888968"><ele>138.0</ele><time>2026-05-03T09:53:21.998Z</time></trkpt><trkpt lat="46.0374179" lon="13.5887765"><ele>130.0</ele><time>2026-05-03T09:53:22.999Z</time></trkpt><trkpt lat="46.0375411" lon="13.5886402"><ele>122.0</ele><time>2026-05-03T09:53:24.011Z</time></trkpt><trkpt lat="46.0376376" lon="13.5884737"><ele>114.0</ele><time>2026-05-03T09:53:24.997Z</time></trkpt><trkpt lat="46.0377291" lon="13.5882912"><ele>114.0</ele><time>2026-05-03T09:53:25.997Z</time></trkpt><trkpt lat="46.0378339" lon="13.5881353"><ele>114.0</ele><time>2026-05-03T09:53:26.996Z</time></trkpt><trkpt lat="46.03796" lon="13.5880171"><ele>114.0</ele><time>2026-05-03T09:53:28.003Z</time></trkpt><trkpt lat="46.0381051" lon="13.5879718"><ele>114.0</ele><time>2026-05-03T09:53:28.998Z</time></trkpt><trkpt lat="46.0382445" lon="13.5879981"><ele>114.0</ele><time>2026-05-03T09:53:30Z</time></trkpt><trkpt lat="46.0383725" lon="13.5880578"><ele>114.0</ele><time>2026-05-03T09:53:30.998Z</time></trkpt><trkpt lat="46.0385127" lon="13.5881024"><ele>114.0</ele><time>2026-05-03T09:53:31.994Z</time></trkpt><trkpt lat="46.038658" lon="13.5881288"><ele>108.75</ele><time>2026-05-03T09:53:33.002Z</time></trkpt><trkpt lat="46.0387878" lon="13.5881394"><ele>103.5</ele><time>2026-05-03T09:53:34.004Z</time></trkpt><trkpt lat="46.0389277" lon="13.5881307"><ele>98.25</ele><time>2026-05-03T09:53:35.003Z</time></trkpt><trkpt lat="46.039058" lon="13.5881088"><ele>93.0</ele><time>2026-05-03T09:53:35.997Z</time></trkpt><trkpt lat="46.0391915" lon="13.5880773"><ele>91.5</ele><time>2026-05-03T09:53:36.997Z</time></trkpt><trkpt lat="46.0393243" lon="13.5880459"><ele>90.0</ele><time>2026-05-03T09:53:38.001Z</time></trkpt><trkpt lat="46.0394555" lon="13.5880099"><ele>88.5</ele><time>2026-05-03T09:53:38.998Z</time></trkpt><trkpt lat="46.0395813" lon="13.5879927"><ele>87.0</ele><time>2026-05-03T09:53:39.999Z</time></trkpt><trkpt lat="46.0397043" lon="13.5879726"><ele>87.0</ele><time>2026-05-03T09:53:40.994Z</time></trkpt><trkpt lat="46.0398161" lon="13.5879751"><ele>87.0</ele><time>2026-05-03T09:53:42.005Z</time></trkpt><trkpt lat="46.0399211" lon="13.5879941"><ele>87.0</ele><time>2026-05-03T09:53:43Z</time></trkpt><trkpt lat="46.0400186" lon="13.5880127"><ele>87.0</ele><time>2026-05-03T09:53:43.999Z</time></trkpt><trkpt lat="46.040111" lon="13.5880309"><ele>87.0</ele><time>2026-05-03T09:53:45.009Z</time></trkpt><trkpt lat="46.0402068" lon="13.5880343"><ele>86.39999999999999</ele><time>2026-05-03T09:53:45.996Z</time></trkpt><trkpt lat="46.0403021" lon="13.5880064"><ele>85.8</ele><time>2026-05-03T09:53:47.006Z</time></trkpt><trkpt lat="46.0403999" lon="13.5879574"><ele>85.2</ele><time>2026-05-03T09:53:47.999Z</time></trkpt><trkpt lat="46.0404974" lon="13.5879084"><ele>84.6</ele><time>2026-05-03T09:53:49.003Z</time></trkpt><trkpt lat="46.0406004" lon="13.5878801"><ele>84.0</ele><time>2026-05-03T09:53:49.996Z</time></trkpt><trkpt lat="46.0407067" lon="13.5878641"><ele>84.80000000000001</ele><time>2026-05-03T09:53:50.996Z</time></trkpt><trkpt lat="46.0408137" lon="13.587859"><ele>85.60000000000001</ele><time>2026-05-03T09:53:51.997Z</time></trkpt><trkpt lat="46.0409154" lon="13.5878493"><ele>86.4</ele><time>2026-05-03T09:53:53.001Z</time></trkpt><trkpt lat="46.0410156" lon="13.5878403"><ele>87.2</ele><time>2026-05-03T09:53:54.001Z</time></trkpt><trkpt lat="46.0411112" lon="13.587821"><ele>88.0</ele><time>2026-05-03T09:53:54.997Z</time></trkpt><trkpt lat="46.0412044" lon="13.5877767"><ele>89.4</ele><time>2026-05-03T09:53:55.996Z</time></trkpt><trkpt lat="46.0412904" lon="13.5877123"><ele>90.80000000000001</ele><time>2026-05-03T09:53:57.003Z</time></trkpt><trkpt lat="46.0413867" lon="13.5876686"><ele>92.2</ele><time>2026-05-03T09:53:58Z</time></trkpt><trkpt lat="46.0414763" lon="13.5876739"><ele>93.6</ele><time>2026-05-03T09:53:58.997Z</time></trkpt><trkpt lat="46.0415575" lon="13.5877226"><ele>95.0</ele><time>2026-05-03T09:54:00.001Z</time></trkpt><trkpt lat="46.0416313" lon="13.5878263"><ele>92.75</ele><time>2026-05-03T09:54:01.006Z</time></trkpt><trkpt lat="46.041714" lon="13.5879524"><ele>90.5</ele><time>2026-05-03T09:54:02.001Z</time></trkpt><trkpt lat="46.0418123" lon="13.5880512"><ele>88.25</ele><time>2026-05-03T09:54:03.004Z</time></trkpt><trkpt lat="46.0419232" lon="13.5880955"><ele>86.0</ele><time>2026-05-03T09:54:03.999Z</time></trkpt><trkpt lat="46.0420395" lon="13.5881047"><ele>86.0</ele><time>2026-05-03T09:54:05.007Z</time></trkpt><trkpt lat="46.0421578" lon="13.5880833"><ele>86.0</ele><time>2026-05-03T09:54:05.998Z</time></trkpt><trkpt lat="46.0422729" lon="13.5880666"><ele>86.0</ele><time>2026-05-03T09:54:06.997Z</time></trkpt><trkpt lat="46.0423715" lon="13.5880587"><ele>86.0</ele><time>2026-05-03T09:54:08.004Z</time></trkpt><trkpt lat="46.0424785" lon="13.588095"><ele>86.0</ele><time>2026-05-03T09:54:09.003Z</time></trkpt><trkpt lat="46.0425866" lon="13.5881622"><ele>88.0</ele><time>2026-05-03T09:54:10.001Z</time></trkpt><trkpt lat="46.0426941" lon="13.5882359"><ele>90.0</ele><time>2026-05-03T09:54:11.008Z</time></trkpt><trkpt lat="46.042793" lon="13.5883213"><ele>92.0</ele><time>2026-05-03T09:54:11.993Z</time></trkpt><trkpt lat="46.0428803" lon="13.5884284"><ele>94.0</ele><time>2026-05-03T09:54:12.996Z</time></trkpt><trkpt lat="46.0429654" lon="13.5885395"><ele>94.0</ele><time>2026-05-03T09:54:13.997Z</time></trkpt><trkpt lat="46.0430537" lon="13.5886422"><ele>94.0</ele><time>2026-05-03T09:54:14.995Z</time></trkpt><trkpt lat="46.0431485" lon="13.5887271"><ele>94.0</ele><time>2026-05-03T09:54:16.001Z</time></trkpt><trkpt lat="46.0432525" lon="13.5887849"><ele>94.0</ele><time>2026-05-03T09:54:16.996Z</time></trkpt><trkpt lat="46.0433684" lon="13.5888084"><ele>94.0</ele><time>2026-05-03T09:54:18.006Z</time></trkpt><trkpt lat="46.0434901" lon="13.5888075"><ele>94.0</ele><time>2026-05-03T09:54:19.008Z</time></trkpt><trkpt lat="46.0436133" lon="13.5887965"><ele>94.0</ele><time>2026-05-03T09:54:19.999Z</time></trkpt><trkpt lat="46.0437346" lon="13.5887991"><ele>94.0</ele><time>2026-05-03T09:54:21Z</time></trkpt><trkpt lat="46.0438595" lon="13.5888273"><ele>94.0</ele><time>2026-05-03T09:54:21.997Z</time></trkpt><trkpt lat="46.043988" lon="13.5888779"><ele>94.0</ele><time>2026-05-03T09:54:23.003Z</time></trkpt><trkpt lat="46.044119" lon="13.5889398"><ele>94.0</ele><time>2026-05-03T09:54:24.006Z</time></trkpt><trkpt lat="46.0442476" lon="13.5889998"><ele>94.0</ele><time>2026-05-03T09:54:24.998Z</time></trkpt><trkpt lat="46.0443718" lon="13.589059"><ele>93.5</ele><time>2026-05-03T09:54:25.992Z</time></trkpt><trkpt lat="46.0444984" lon="13.5891213"><ele>93.0</ele><time>2026-05-03T09:54:27.001Z</time></trkpt><trkpt lat="46.0446229" lon="13.5891897"><ele>92.5</ele><time>2026-05-03T09:54:28.002Z</time></trkpt><trkpt lat="46.0447384" lon="13.5892557"><ele>92.0</ele><time>2026-05-03T09:54:29.001Z</time></trkpt><trkpt lat="46.0448508" lon="13.5893112"><ele>92.0</ele><time>2026-05-03T09:54:30.011Z</time></trkpt><trkpt lat="46.0449558" lon="13.5893673"><ele>92.0</ele><time>2026-05-03T09:54:30.992Z</time></trkpt><trkpt lat="46.04505" lon="13.5894316"><ele>92.0</ele><time>2026-05-03T09:54:32.002Z</time></trkpt><trkpt lat="46.045138" lon="13.5895162"><ele>92.0</ele><time>2026-05-03T09:54:32.999Z</time></trkpt><trkpt lat="46.0452172" lon="13.589629"><ele>92.0</ele><time>2026-05-03T09:54:34.007Z</time></trkpt><trkpt lat="46.0452961" lon="13.5897579"><ele>91.5</ele><time>2026-05-03T09:54:34.998Z</time></trkpt><trkpt lat="46.0453766" lon="13.5898882"><ele>91.0</ele><time>2026-05-03T09:54:35.997Z</time></trkpt><trkpt lat="46.0454557" lon="13.5900077"><ele>90.5</ele><time>2026-05-03T09:54:37.005Z</time></trkpt><trkpt lat="46.0455543" lon="13.5901036"><ele>90.0</ele><time>2026-05-03T09:54:38.005Z</time></trkpt><trkpt lat="46.045667" lon="13.5901893"><ele>90.0</ele><time>2026-05-03T09:54:38.998Z</time></trkpt><trkpt lat="46.0457866" lon="13.5902671"><ele>90.0</ele><time>2026-05-03T09:54:39.997Z</time></trkpt><trkpt lat="46.045908" lon="13.5903438"><ele>90.0</ele><time>2026-05-03T09:54:40.995Z</time></trkpt><trkpt lat="46.0460309" lon="13.590422"><ele>90.0</ele><time>2026-05-03T09:54:41.997Z</time></trkpt><trkpt lat="46.0461498" lon="13.5905003"><ele>89.0</ele><time>2026-05-03T09:54:42.998Z</time></trkpt><trkpt lat="46.0462691" lon="13.5905856"><ele>88.0</ele><time>2026-05-03T09:54:44.007Z</time></trkpt><trkpt lat="46.0463828" lon="13.5906665"><ele>87.0</ele><time>2026-05-03T09:54:44.999Z</time></trkpt><trkpt lat="46.0464948" lon="13.5907514"><ele>86.0</ele><time>2026-05-03T09:54:46.003Z</time></trkpt><trkpt lat="46.0466024" lon="13.5908269"><ele>87.4</ele><time>2026-05-03T09:54:46.998Z</time></trkpt><trkpt lat="46.0467117" lon="13.5908995"><ele>88.8</ele><time>2026-05-03T09:54:48.006Z</time></trkpt><trkpt lat="46.0468149" lon="13.5909656"><ele>90.2</ele><time>2026-05-03T09:54:48.998Z</time></trkpt><trkpt lat="46.0469138" lon="13.5910277"><ele>91.60000000000001</ele><time>2026-05-03T09:54:50.02Z</time></trkpt><trkpt lat="46.0470123" lon="13.5910827"><ele>93.0</ele><time>2026-05-03T09:54:50.995Z</time></trkpt><trkpt lat="46.0471169" lon="13.5911218"><ele>93.0</ele><time>2026-05-03T09:54:51.999Z</time></trkpt><trkpt lat="46.0472243" lon="13.5911474"><ele>93.0</ele><time>2026-05-03T09:54:52.995Z</time></trkpt><trkpt lat="46.0473213" lon="13.591189"><ele>93.0</ele><time>2026-05-03T09:54:54Z</time></trkpt><trkpt lat="46.0474042" lon="13.5912574"><ele>93.0</ele><time>2026-05-03T09:54:55.005Z</time></trkpt><trkpt lat="46.0474668" lon="13.5913427"><ele>93.0</ele><time>2026-05-03T09:54:56.001Z</time></trkpt><trkpt lat="46.0475062" lon="13.5914185"><ele>92.0</ele><time>2026-05-03T09:54:56.998Z</time></trkpt><trkpt lat="46.0475421" lon="13.5914953"><ele>91.0</ele><time>2026-05-03T09:54:57.995Z</time></trkpt><trkpt lat="46.0475814" lon="13.5915759"><ele>90.0</ele><time>2026-05-03T09:54:58.998Z</time></trkpt><trkpt lat="46.0476403" lon="13.591681"><ele>89.0</ele><time>2026-05-03T09:55:00.016Z</time></trkpt><trkpt lat="46.0477047" lon="13.5917946"><ele>88.0</ele><time>2026-05-03T09:55:00.997Z</time></trkpt><trkpt lat="46.0477818" lon="13.5919045"><ele>87.0</ele><time>2026-05-03T09:55:02.005Z</time></trkpt><trkpt lat="46.0478627" lon="13.592004"><ele>86.8</ele><time>2026-05-03T09:55:03.005Z</time></trkpt><trkpt lat="46.0479357" lon="13.5920876"><ele>86.6</ele><time>2026-05-03T09:55:03.993Z</time></trkpt><trkpt lat="46.0480094" lon="13.5921581"><ele>86.39999999999999</ele><time>2026-05-03T09:55:05Z</time></trkpt><trkpt lat="46.0480786" lon="13.592219"><ele>86.19999999999999</ele><time>2026-05-03T09:55:05.998Z</time></trkpt><trkpt lat="46.0481759" lon="13.5922971"><ele>86.0</ele><time>2026-05-03T09:55:08.005Z</time></trkpt><trkpt lat="46.0481009" lon="13.5922035"><ele>86.0</ele><time>2026-05-03T09:55:14Z</time></trkpt><trkpt lat="46.0480379" lon="13.5921553"><ele>86.0</ele><time>2026-05-03T09:55:15Z</time></trkpt><trkpt lat="46.0479737" lon="13.5920978"><ele>86.0</ele><time>2026-05-03T09:55:15.999Z</time></trkpt><trkpt lat="46.0479066" lon="13.5920329"><ele>86.0</ele><time>2026-05-03T09:55:16.995Z</time></trkpt><trkpt lat="46.0478304" lon="13.5919574"><ele>86.0</ele><time>2026-05-03T09:55:18.007Z</time></trkpt><trkpt lat="46.0477528" lon="13.5918669"><ele>86.0</ele><time>2026-05-03T09:55:18.998Z</time></trkpt><trkpt lat="46.0476809" lon="13.5917612"><ele>86.16666666666667</ele><time>2026-05-03T09:55:20.004Z</time></trkpt><trkpt lat="46.0476029" lon="13.5916485"><ele>86.33333333333334</ele><time>2026-05-03T09:55:20.999Z</time></trkpt><trkpt lat="46.0475413" lon="13.5915404"><ele>86.5</ele><time>2026-05-03T09:55:22.004Z</time></trkpt><trkpt lat="46.0474876" lon="13.5914595"><ele>86.66666666666667</ele><time>2026-05-03T09:55:22.995Z</time></trkpt><trkpt lat="46.0474479" lon="13.5913889"><ele>86.83333333333333</ele><time>2026-05-03T09:55:23.994Z</time></trkpt><trkpt lat="46.0474726" lon="13.591292"><ele>87.0</ele><time>2026-05-03T09:55:25.996Z</time></trkpt><trkpt lat="46.0475373" lon="13.5912699"><ele>87.0</ele><time>2026-05-03T09:55:27.002Z</time></trkpt><trkpt lat="46.047614" lon="13.5912515"><ele>87.0</ele><time>2026-05-03T09:55:27.993Z</time></trkpt><trkpt lat="46.0476805" lon="13.5912296"><ele>87.0</ele><time>2026-05-03T09:55:28.992Z</time></trkpt><trkpt lat="46.0477529" lon="13.5911986"><ele>87.0</ele><time>2026-05-03T09:55:30.005Z</time></trkpt><trkpt lat="46.0478335" lon="13.5911641"><ele>87.0</ele><time>2026-05-03T09:55:31.007Z</time></trkpt><trkpt lat="46.0479197" lon="13.5911224"><ele>87.0</ele><time>2026-05-03T09:55:32.006Z</time></trkpt><trkpt lat="46.048007" lon="13.5910827"><ele>88.16666666666667</ele><time>2026-05-03T09:55:32.996Z</time></trkpt><trkpt lat="46.0480997" lon="13.5910512"><ele>89.33333333333333</ele><time>2026-05-03T09:55:34.005Z</time></trkpt><trkpt lat="46.0481913" lon="13.591044"><ele>90.5</ele><time>2026-05-03T09:55:34.999Z</time></trkpt><trkpt lat="46.0482807" lon="13.5910772"><ele>91.66666666666666</ele><time>2026-05-03T09:55:36.001Z</time></trkpt><trkpt lat="46.0483533" lon="13.5911237"><ele>92.83333333333333</ele><time>2026-05-03T09:55:37.002Z</time></trkpt><trkpt lat="46.0484183" lon="13.5911536"><ele>94.0</ele><time>2026-05-03T09:55:38.01Z</time></trkpt><trkpt lat="46.0484876" lon="13.5910981"><ele>96.0</ele><time>2026-05-03T09:55:40Z</time></trkpt><trkpt lat="46.0485438" lon="13.5909519"><ele>98.0</ele><time>2026-05-03T09:55:41.998Z</time></trkpt><trkpt lat="46.0485427" lon="13.590852"><ele>100.0</ele><time>2026-05-03T09:55:43.004Z</time></trkpt><trkpt lat="46.0484982" lon="13.5906956"><ele>102.0</ele><time>2026-05-03T09:55:45Z</time></trkpt><trkpt lat="46.0484291" lon="13.5906359"><ele>104.0</ele><time>2026-05-03T09:55:46.005Z</time></trkpt><trkpt lat="46.0483383" lon="13.5905734"><ele>104.4</ele><time>2026-05-03T09:55:47.009Z</time></trkpt><trkpt lat="46.0482366" lon="13.5905223"><ele>104.80000000000001</ele><time>2026-05-03T09:55:48.001Z</time></trkpt><trkpt lat="46.0481319" lon="13.5904754"><ele>105.19999999999999</ele><time>2026-05-03T09:55:49.003Z</time></trkpt><trkpt lat="46.0480289" lon="13.5904257"><ele>105.6</ele><time>2026-05-03T09:55:50.002Z</time></trkpt><trkpt lat="46.0479369" lon="13.590385"><ele>106.0</ele><time>2026-05-03T09:55:51.002Z</time></trkpt><trkpt lat="46.0478525" lon="13.5903384"><ele>106.00000000000001</ele><time>2026-05-03T09:55:51.996Z</time></trkpt><trkpt lat="46.0477697" lon="13.5902735"><ele>106.0</ele><time>2026-05-03T09:55:52.994Z</time></trkpt><trkpt lat="46.0476931" lon="13.5902"><ele>106.0</ele><time>2026-05-03T09:55:53.998Z</time></trkpt><trkpt lat="46.0476318" lon="13.5901069"><ele>106.0</ele><time>2026-05-03T09:55:54.996Z</time></trkpt><trkpt lat="46.0475751" lon="13.5900084"><ele>106.00000000000001</ele><time>2026-05-03T09:55:55.996Z</time></trkpt><trkpt lat="46.0475279" lon="13.5899064"><ele>106.0</ele><time>2026-05-03T09:55:57.002Z</time></trkpt><trkpt lat="46.0474947" lon="13.5898102"><ele>106.0</ele><time>2026-05-03T09:55:58.006Z</time></trkpt><trkpt lat="46.0475006" lon="13.5897142"><ele>106.0</ele><time>2026-05-03T09:55:59.002Z</time></trkpt><trkpt lat="46.0475563" lon="13.5896241"><ele>106.0</ele><time>2026-05-03T09:55:59.995Z</time></trkpt><trkpt lat="46.047623" lon="13.5895229"><ele>106.0</ele><time>2026-05-03T09:56:01.001Z</time></trkpt><trkpt lat="46.0476889" lon="13.5894017"><ele>106.0</ele><time>2026-05-03T09:56:02.003Z</time></trkpt><trkpt lat="46.04775" lon="13.5892733"><ele>108.8</ele><time>2026-05-03T09:56:02.999Z</time></trkpt><trkpt lat="46.047807" lon="13.5891381"><ele>111.6</ele><time>2026-05-03T09:56:03.993Z</time></trkpt><trkpt lat="46.0478656" lon="13.5889999"><ele>114.4</ele><time>2026-05-03T09:56:05Z</time></trkpt><trkpt lat="46.0479263" lon="13.5888644"><ele>117.2</ele><time>2026-05-03T09:56:06.001Z</time></trkpt><trkpt lat="46.0479944" lon="13.5887345"><ele>120.0</ele><time>2026-05-03T09:56:07Z</time></trkpt><trkpt lat="46.0480669" lon="13.5886033"><ele>122.0</ele><time>2026-05-03T09:56:07.995Z</time></trkpt><trkpt lat="46.0481429" lon="13.5884622"><ele>124.0</ele><time>2026-05-03T09:56:08.998Z</time></trkpt><trkpt lat="46.0482247" lon="13.5883268"><ele>126.0</ele><time>2026-05-03T09:56:10Z</time></trkpt><trkpt lat="46.048311" lon="13.5881964"><ele>128.0</ele><time>2026-05-03T09:56:10.996Z</time></trkpt><trkpt lat="46.0483993" lon="13.5880653"><ele>128.0</ele><time>2026-05-03T09:56:11.999Z</time></trkpt><trkpt lat="46.0484852" lon="13.5879373"><ele>128.0</ele><time>2026-05-03T09:56:13.002Z</time></trkpt><trkpt lat="46.0485534" lon="13.5877979"><ele>128.0</ele><time>2026-05-03T09:56:14.002Z</time></trkpt><trkpt lat="46.0485979" lon="13.5876621"><ele>128.0</ele><time>2026-05-03T09:56:14.998Z</time></trkpt><trkpt lat="46.0486367" lon="13.5875379"><ele>128.0</ele><time>2026-05-03T09:56:16.005Z</time></trkpt><trkpt lat="46.0486835" lon="13.5874418"><ele>130.0</ele><time>2026-05-03T09:56:16.994Z</time></trkpt><trkpt lat="46.0487406" lon="13.5873444"><ele>132.0</ele><time>2026-05-03T09:56:18Z</time></trkpt><trkpt lat="46.0488147" lon="13.5872455"><ele>134.0</ele><time>2026-05-03T09:56:18.997Z</time></trkpt><trkpt lat="46.0489019" lon="13.5871452"><ele>136.0</ele><time>2026-05-03T09:56:20.002Z</time></trkpt><trkpt lat="46.0489998" lon="13.5870387"><ele>138.0</ele><time>2026-05-03T09:56:21.001Z</time></trkpt><trkpt lat="46.0491108" lon="13.586927"><ele>139.25</ele><time>2026-05-03T09:56:21.998Z</time></trkpt><trkpt lat="46.0492172" lon="13.5868131"><ele>140.5</ele><time>2026-05-03T09:56:23.001Z</time></trkpt><trkpt lat="46.049315" lon="13.5867022"><ele>141.75</ele><time>2026-05-03T09:56:23.996Z</time></trkpt><trkpt lat="46.0494063" lon="13.5865937"><ele>143.0</ele><time>2026-05-03T09:56:25.002Z</time></trkpt><trkpt lat="46.0494856" lon="13.586483"><ele>143.0</ele><time>2026-05-03T09:56:26.005Z</time></trkpt><trkpt lat="46.0495674" lon="13.586353"><ele>143.0</ele><time>2026-05-03T09:56:26.999Z</time></trkpt><trkpt lat="46.0496429" lon="13.5862149"><ele>143.0</ele><time>2026-05-03T09:56:28.004Z</time></trkpt><trkpt lat="46.0497019" lon="13.5860905"><ele>143.0</ele><time>2026-05-03T09:56:29Z</time></trkpt><trkpt lat="46.049745" lon="13.5859753"><ele>143.0</ele><time>2026-05-03T09:56:29.997Z</time></trkpt><trkpt lat="46.0497725" lon="13.5858689"><ele>143.0</ele><time>2026-05-03T09:56:30.996Z</time></trkpt><trkpt lat="46.0497887" lon="13.5857786"><ele>143.0</ele><time>2026-05-03T09:56:31.997Z</time></trkpt><trkpt lat="46.0497226" lon="13.5859364"><ele>143.0</ele><time>2026-05-03T09:56:36.996Z</time></trkpt><trkpt lat="46.0496762" lon="13.5860905"><ele>143.0</ele><time>2026-05-03T09:56:37.999Z</time></trkpt><trkpt lat="46.0496336" lon="13.5862495"><ele>143.0</ele><time>2026-05-03T09:56:38.997Z</time></trkpt><trkpt lat="46.0495919" lon="13.5864235"><ele>143.0</ele><time>2026-05-03T09:56:39.997Z</time></trkpt><trkpt lat="46.0495492" lon="13.5865951"><ele>143.0</ele><time>2026-05-03T09:56:40.996Z</time></trkpt><trkpt lat="46.0495007" lon="13.5867887"><ele>143.0</ele><time>2026-05-03T09:56:42.006Z</time></trkpt><trkpt lat="46.0494466" lon="13.5869461"><ele>143.0</ele><time>2026-05-03T09:56:42.999Z</time></trkpt><trkpt lat="46.0494" lon="13.5870797"><ele>143.0</ele><time>2026-05-03T09:56:44Z</time></trkpt><trkpt lat="46.0493667" lon="13.5871859"><ele>143.0</ele><time>2026-05-03T09:56:44.993Z</time></trkpt><trkpt lat="46.0493655" lon="13.5872813"><ele>143.0</ele><time>2026-05-03T09:56:45.999Z</time></trkpt><trkpt lat="46.0494498" lon="13.5873589"><ele>143.0</ele><time>2026-05-03T09:56:48.002Z</time></trkpt><trkpt lat="46.049578" lon="13.5872371"><ele>143.0</ele><time>2026-05-03T09:56:50Z</time></trkpt><trkpt lat="46.0496592" lon="13.5871139"><ele>143.0</ele><time>2026-05-03T09:56:50.996Z</time></trkpt><trkpt lat="46.0497401" lon="13.5869533"><ele>143.0</ele><time>2026-05-03T09:56:52Z</time></trkpt><trkpt lat="46.0498142" lon="13.5867729"><ele>143.0</ele><time>2026-05-03T09:56:52.995Z</time></trkpt><trkpt lat="46.0498833" lon="13.5866031"><ele>143.0</ele><time>2026-05-03T09:56:54.005Z</time></trkpt><trkpt lat="46.0499493" lon="13.5864432"><ele>144.5</ele><time>2026-05-03T09:56:54.995Z</time></trkpt><trkpt lat="46.0500248" lon="13.586303"><ele>146.0</ele><time>2026-05-03T09:56:55.996Z</time></trkpt><trkpt lat="46.0500978" lon="13.5861839"><ele>147.5</ele><time>2026-05-03T09:56:56.996Z</time></trkpt><trkpt lat="46.0501916" lon="13.5860906"><ele>149.0</ele><time>2026-05-03T09:56:57.996Z</time></trkpt><trkpt lat="46.0503081" lon="13.5860246"><ele>149.0</ele><time>2026-05-03T09:56:58.999Z</time></trkpt><trkpt lat="46.05042" lon="13.5859726"><ele>149.0</ele><time>2026-05-03T09:57:00.006Z</time></trkpt><trkpt lat="46.0505198" lon="13.5859121"><ele>149.0</ele><time>2026-05-03T09:57:01.001Z</time></trkpt><trkpt lat="46.0506131" lon="13.5858284"><ele>149.0</ele><time>2026-05-03T09:57:01.997Z</time></trkpt><trkpt lat="46.0507111" lon="13.5857134"><ele>151.6</ele><time>2026-05-03T09:57:02.993Z</time></trkpt><trkpt lat="46.0507992" lon="13.5855984"><ele>154.2</ele><time>2026-05-03T09:57:04.004Z</time></trkpt><trkpt lat="46.0508775" lon="13.5854791"><ele>156.79999999999998</ele><time>2026-05-03T09:57:05.004Z</time></trkpt><trkpt lat="46.0509415" lon="13.585365"><ele>159.4</ele><time>2026-05-03T09:57:06.006Z</time></trkpt><trkpt lat="46.0509775" lon="13.5852339"><ele>162.0</ele><time>2026-05-03T09:57:06.997Z</time></trkpt><trkpt lat="46.0509922" lon="13.5851024"><ele>162.0</ele><time>2026-05-03T09:57:07.999Z</time></trkpt><trkpt lat="46.0510206" lon="13.5850028"><ele>162.0</ele><time>2026-05-03T09:57:09.003Z</time></trkpt><trkpt lat="46.0511171" lon="13.5849608"><ele>162.0</ele><time>2026-05-03T09:57:11.001Z</time></trkpt><trkpt lat="46.0511382" lon="13.5850856"><ele>162.0</ele><time>2026-05-03T09:57:11.999Z</time></trkpt><trkpt lat="46.0511014" lon="13.5852297"><ele>162.0</ele><time>2026-05-03T09:57:13.006Z</time></trkpt><trkpt lat="46.0510597" lon="13.5853653"><ele>164.6</ele><time>2026-05-03T09:57:13.993Z</time></trkpt><trkpt lat="46.0510192" lon="13.5854994"><ele>167.2</ele><time>2026-05-03T09:57:14.997Z</time></trkpt><trkpt lat="46.050967" lon="13.5856192"><ele>169.8</ele><time>2026-05-03T09:57:15.996Z</time></trkpt><trkpt lat="46.0509103" lon="13.5857365"><ele>172.4</ele><time>2026-05-03T09:57:16.996Z</time></trkpt><trkpt lat="46.0508558" lon="13.5858554"><ele>175.0</ele><time>2026-05-03T09:57:18Z</time></trkpt><trkpt lat="46.0507979" lon="13.5859874"><ele>171.8</ele><time>2026-05-03T09:57:18.997Z</time></trkpt><trkpt lat="46.0507453" lon="13.5861135"><ele>168.6</ele><time>2026-05-03T09:57:19.997Z</time></trkpt><trkpt lat="46.050702" lon="13.5862436"><ele>165.4</ele><time>2026-05-03T09:57:20.995Z</time></trkpt><trkpt lat="46.0506681" lon="13.5863591"><ele>162.2</ele><time>2026-05-03T09:57:22.003Z</time></trkpt><trkpt lat="46.0506438" lon="13.5864678"><ele>159.0</ele><time>2026-05-03T09:57:23Z</time></trkpt><trkpt lat="46.0506693" lon="13.5866018"><ele>159.0</ele><time>2026-05-03T09:57:24.998Z</time></trkpt><trkpt lat="46.050766" lon="13.5865498"><ele>159.0</ele><time>2026-05-03T09:57:26.995Z</time></trkpt><trkpt lat="46.0508074" lon="13.586457"><ele>159.0</ele><time>2026-05-03T09:57:28.002Z</time></trkpt><trkpt lat="46.0508539" lon="13.5863482"><ele>159.0</ele><time>2026-05-03T09:57:28.997Z</time></trkpt><trkpt lat="46.0509129" lon="13.5862389"><ele>159.0</ele><time>2026-05-03T09:57:30.008Z</time></trkpt><trkpt lat="46.0509825" lon="13.5861322"><ele>162.2</ele><time>2026-05-03T09:57:30.995Z</time></trkpt><trkpt lat="46.0510652" lon="13.5860267"><ele>165.4</ele><time>2026-05-03T09:57:31.997Z</time></trkpt><trkpt lat="46.0511484" lon="13.5859169"><ele>168.6</ele><time>2026-05-03T09:57:32.995Z</time></trkpt><trkpt lat="46.0512303" lon="13.5858001"><ele>171.8</ele><time>2026-05-03T09:57:33.997Z</time></trkpt><trkpt lat="46.0512946" lon="13.5856747"><ele>175.0</ele><time>2026-05-03T09:57:34.996Z</time></trkpt><trkpt lat="46.0513361" lon="13.5855564"><ele>175.0</ele><time>2026-05-03T09:57:36.003Z</time></trkpt><trkpt lat="46.0513617" lon="13.5854433"><ele>175.0</ele><time>2026-05-03T09:57:37.004Z</time></trkpt><trkpt lat="46.0514267" lon="13.5853419"><ele>175.0</ele><time>2026-05-03T09:57:38.998Z</time></trkpt><trkpt lat="46.0514198" lon="13.5854336"><ele>175.0</ele><time>2026-05-03T09:57:41.005Z</time></trkpt><trkpt lat="46.0513908" lon="13.5855364"><ele>175.0</ele><time>2026-05-03T09:57:41.998Z</time></trkpt><trkpt lat="46.0513528" lon="13.5856525"><ele>175.0</ele><time>2026-05-03T09:57:42.999Z</time></trkpt><trkpt lat="46.0513037" lon="13.5857852"><ele>175.0</ele><time>2026-05-03T09:57:44.002Z</time></trkpt><trkpt lat="46.0512465" lon="13.5859557"><ele>175.0</ele><time>2026-05-03T09:57:44.997Z</time></trkpt><trkpt lat="46.0511864" lon="13.5861341"><ele>175.0</ele><time>2026-05-03T09:57:45.997Z</time></trkpt><trkpt lat="46.0511337" lon="13.5862987"><ele>175.0</ele><time>2026-05-03T09:57:46.996Z</time></trkpt><trkpt lat="46.0511015" lon="13.5864347"><ele>176.8</ele><time>2026-05-03T09:57:48.004Z</time></trkpt><trkpt lat="46.0510842" lon="13.5865657"><ele>178.6</ele><time>2026-05-03T09:57:48.993Z</time></trkpt><trkpt lat="46.0510925" lon="13.5867105"><ele>180.39999999999998</ele><time>2026-05-03T09:57:49.998Z</time></trkpt><trkpt lat="46.0511264" lon="13.5868736"><ele>182.2</ele><time>2026-05-03T09:57:50.995Z</time></trkpt><trkpt lat="46.0511592" lon="13.5870108"><ele>184.0</ele><time>2026-05-03T09:57:52Z</time></trkpt><trkpt lat="46.0511771" lon="13.5871298"><ele>185.16666666666669</ele><time>2026-05-03T09:57:53.008Z</time></trkpt><trkpt lat="46.0511686" lon="13.5872468"><ele>186.33333333333334</ele><time>2026-05-03T09:57:54.007Z</time></trkpt><trkpt lat="46.0511348" lon="13.5873592"><ele>187.5</ele><time>2026-05-03T09:57:55.002Z</time></trkpt><trkpt lat="46.0510883" lon="13.587468"><ele>188.66666666666666</ele><time>2026-05-03T09:57:56.003Z</time></trkpt><trkpt lat="46.0510458" lon="13.5875757"><ele>189.83333333333331</ele><time>2026-05-03T09:57:57.003Z</time></trkpt><trkpt lat="46.0510068" lon="13.5876731"><ele>191.0</ele><time>2026-05-03T09:57:57.997Z</time></trkpt><trkpt lat="46.0509748" lon="13.5877593"><ele>193.16666666666666</ele><time>2026-05-03T09:57:58.996Z</time></trkpt><trkpt lat="46.0509536" lon="13.5878544"><ele>195.33333333333331</ele><time>2026-05-03T09:57:59.997Z</time></trkpt><trkpt lat="46.0509462" lon="13.5879452"><ele>197.5</ele><time>2026-05-03T09:58:01.001Z</time></trkpt><trkpt lat="46.0509501" lon="13.5880511"><ele>199.66666666666666</ele><time>2026-05-03T09:58:01.995Z</time></trkpt><trkpt lat="46.0509666" lon="13.5881566"><ele>201.83333333333334</ele><time>2026-05-03T09:58:03.011Z</time></trkpt><trkpt lat="46.0509874" lon="13.5882725"><ele>204.0</ele><time>2026-05-03T09:58:03.997Z</time></trkpt><trkpt lat="46.051001" lon="13.5883971"><ele>204.0</ele><time>2026-05-03T09:58:04.997Z</time></trkpt><trkpt lat="46.0510047" lon="13.5885103"><ele>204.0</ele><time>2026-05-03T09:58:05.992Z</time></trkpt><trkpt lat="46.0509914" lon="13.5886114"><ele>204.0</ele><time>2026-05-03T09:58:06.997Z</time></trkpt><trkpt lat="46.050974" lon="13.588759"><ele>204.0</ele><time>2026-05-03T09:58:09.003Z</time></trkpt><trkpt lat="46.0510242" lon="13.5888424"><ele>204.0</ele><time>2026-05-03T09:58:11.995Z</time></trkpt><trkpt lat="46.0510865" lon="13.588784"><ele>204.0</ele><time>2026-05-03T09:58:13.998Z</time></trkpt><trkpt lat="46.051147" lon="13.5886255"><ele>204.0</ele><time>2026-05-03T09:58:15.998Z</time></trkpt><trkpt lat="46.05118" lon="13.5885186"><ele>204.0</ele><time>2026-05-03T09:58:16.994Z</time></trkpt><trkpt lat="46.0512069" lon="13.588413"><ele>204.0</ele><time>2026-05-03T09:58:18Z</time></trkpt><trkpt lat="46.0512363" lon="13.5882918"><ele>204.0</ele><time>2026-05-03T09:58:18.994Z</time></trkpt><trkpt lat="46.0512803" lon="13.5881799"><ele>204.0</ele><time>2026-05-03T09:58:19.999Z</time></trkpt><trkpt lat="46.0513364" lon="13.5880751"><ele>204.0</ele><time>2026-05-03T09:58:21Z</time></trkpt><trkpt lat="46.0514032" lon="13.587977"><ele>204.0</ele><time>2026-05-03T09:58:21.998Z</time></trkpt><trkpt lat="46.0514841" lon="13.5879028"><ele>204.0</ele><time>2026-05-03T09:58:22.995Z</time></trkpt><trkpt lat="46.0515645" lon="13.5878285"><ele>204.0</ele><time>2026-05-03T09:58:23.998Z</time></trkpt><trkpt lat="46.051638" lon="13.5877404"><ele>204.0</ele><time>2026-05-03T09:58:25.004Z</time></trkpt><trkpt lat="46.0517011" lon="13.5876399"><ele>204.0</ele><time>2026-05-03T09:58:25.995Z</time></trkpt><trkpt lat="46.0517618" lon="13.5875244"><ele>206.2</ele><time>2026-05-03T09:58:26.993Z</time></trkpt><trkpt lat="46.0518208" lon="13.5874025"><ele>208.39999999999998</ele><time>2026-05-03T09:58:27.999Z</time></trkpt><trkpt lat="46.0518906" lon="13.5872761"><ele>210.6</ele><time>2026-05-03T09:58:29.004Z</time></trkpt><trkpt lat="46.0519706" lon="13.5871505"><ele>212.8</ele><time>2026-05-03T09:58:30.003Z</time></trkpt><trkpt lat="46.0520464" lon="13.58704"><ele>215.0</ele><time>2026-05-03T09:58:31.003Z</time></trkpt><trkpt lat="46.0521113" lon="13.5869325"><ele>215.0</ele><time>2026-05-03T09:58:31.99Z</time></trkpt><trkpt lat="46.052162" lon="13.5868361"><ele>215.0</ele><time>2026-05-03T09:58:32.999Z</time></trkpt><trkpt lat="46.0521942" lon="13.5867334"><ele>215.0</ele><time>2026-05-03T09:58:33.993Z</time></trkpt><trkpt lat="46.052207" lon="13.5866341"><ele>215.0</ele><time>2026-05-03T09:58:34.996Z</time></trkpt><trkpt lat="46.0522187" lon="13.5865406"><ele>215.0</ele><time>2026-05-03T09:58:36Z</time></trkpt><trkpt lat="46.0522539" lon="13.5864627"><ele>215.0</ele><time>2026-05-03T09:58:36.998Z</time></trkpt><trkpt lat="46.052306" lon="13.5864046"><ele>215.0</ele><time>2026-05-03T09:58:37.997Z</time></trkpt><trkpt lat="46.0523587" lon="13.5863549"><ele>215.00000000000003</ele><time>2026-05-03T09:58:38.992Z</time></trkpt><trkpt lat="46.0524612" lon="13.5863198"><ele>215.0</ele><time>2026-05-03T09:58:41.001Z</time></trkpt><trkpt lat="46.0525251" lon="13.5864144"><ele>215.0</ele><time>2026-05-03T09:58:42.999Z</time></trkpt><trkpt lat="46.0524988" lon="13.5865459"><ele>215.0</ele><time>2026-05-03T09:58:44.993Z</time></trkpt><trkpt lat="46.0524539" lon="13.5866096"><ele>215.00000000000003</ele><time>2026-05-03T09:58:46.005Z</time></trkpt><trkpt lat="46.0523976" lon="13.5866963"><ele>215.0</ele><time>2026-05-03T09:58:47.005Z</time></trkpt><trkpt lat="46.0523416" lon="13.5868022"><ele>215.0</ele><time>2026-05-03T09:58:47.988Z</time></trkpt><trkpt lat="46.0522915" lon="13.5869227"><ele>215.0</ele><time>2026-05-03T09:58:48.996Z</time></trkpt><trkpt lat="46.0522552" lon="13.5870489"><ele>215.0</ele><time>2026-05-03T09:58:49.994Z</time></trkpt><trkpt lat="46.0522211" lon="13.5871842"><ele>215.0</ele><time>2026-05-03T09:58:50.994Z</time></trkpt><trkpt lat="46.0521867" lon="13.5873364"><ele>215.0</ele><time>2026-05-03T09:58:51.997Z</time></trkpt><trkpt lat="46.0521545" lon="13.5875101"><ele>216.25</ele><time>2026-05-03T09:58:52.999Z</time></trkpt><trkpt lat="46.0521213" lon="13.5876938"><ele>217.5</ele><time>2026-05-03T09:58:54Z</time></trkpt><trkpt lat="46.0520845" lon="13.5878803"><ele>218.75</ele><time>2026-05-03T09:58:55.007Z</time></trkpt><trkpt lat="46.052036" lon="13.5880603"><ele>220.0</ele><time>2026-05-03T09:58:56.007Z</time></trkpt><trkpt lat="46.0519867" lon="13.588236"><ele>222.0</ele><time>2026-05-03T09:58:56.994Z</time></trkpt><trkpt lat="46.0519502" lon="13.5884025"><ele>224.0</ele><time>2026-05-03T09:58:57.995Z</time></trkpt><trkpt lat="46.0519213" lon="13.5885449"><ele>226.0</ele><time>2026-05-03T09:58:59.008Z</time></trkpt><trkpt lat="46.0518953" lon="13.5886625"><ele>228.0</ele><time>2026-05-03T09:58:59.996Z</time></trkpt><trkpt lat="46.0518745" lon="13.5887642"><ele>230.0</ele><time>2026-05-03T09:59:00.996Z</time></trkpt><trkpt lat="46.0518684" lon="13.5888958"><ele>230.0</ele><time>2026-05-03T09:59:03.002Z</time></trkpt><trkpt lat="46.0519323" lon="13.5888795"><ele>230.0</ele><time>2026-05-03T09:59:04.995Z</time></trkpt><trkpt lat="46.0519923" lon="13.5886967"><ele>230.0</ele><time>2026-05-03T09:59:06.994Z</time></trkpt><trkpt lat="46.0520273" lon="13.5885658"><ele>230.0</ele><time>2026-05-03T09:59:07.994Z</time></trkpt><trkpt lat="46.0520813" lon="13.5884536"><ele>230.0</ele><time>2026-05-03T09:59:08.996Z</time></trkpt><trkpt lat="46.0521551" lon="13.5883477"><ele>230.0</ele><time>2026-05-03T09:59:09.999Z</time></trkpt><trkpt lat="46.0522415" lon="13.5882388"><ele>230.0</ele><time>2026-05-03T09:59:10.998Z</time></trkpt><trkpt lat="46.0523369" lon="13.5881269"><ele>230.0</ele><time>2026-05-03T09:59:11.998Z</time></trkpt><trkpt lat="46.0524425" lon="13.5880151"><ele>230.0</ele><time>2026-05-03T09:59:13.009Z</time></trkpt><trkpt lat="46.0525452" lon="13.5878959"><ele>235.0</ele><time>2026-05-03T09:59:13.999Z</time></trkpt><trkpt lat="46.0526343" lon="13.5877758"><ele>240.0</ele><time>2026-05-03T09:59:15.002Z</time></trkpt><trkpt lat="46.0527178" lon="13.5876527"><ele>245.0</ele><time>2026-05-03T09:59:16Z</time></trkpt><trkpt lat="46.052791" lon="13.5875153"><ele>250.0</ele><time>2026-05-03T09:59:16.994Z</time></trkpt><trkpt lat="46.0528626" lon="13.5873854"><ele>250.0</ele><time>2026-05-03T09:59:17.991Z</time></trkpt><trkpt lat="46.0529542" lon="13.5872602"><ele>250.0</ele><time>2026-05-03T09:59:19.005Z</time></trkpt><trkpt lat="46.0530542" lon="13.587131"><ele>250.0</ele><time>2026-05-03T09:59:19.994Z</time></trkpt><trkpt lat="46.0531555" lon="13.5869977"><ele>250.0</ele><time>2026-05-03T09:59:20.996Z</time></trkpt><trkpt lat="46.0532621" lon="13.5868639"><ele>255.0</ele><time>2026-05-03T09:59:21.994Z</time></trkpt><trkpt lat="46.0533736" lon="13.5867339"><ele>260.0</ele><time>2026-05-03T09:59:22.995Z</time></trkpt><trkpt lat="46.0534902" lon="13.5866094"><ele>265.0</ele><time>2026-05-03T09:59:23.996Z</time></trkpt><trkpt lat="46.0535977" lon="13.5864893"><ele>270.0</ele><time>2026-05-03T09:59:24.999Z</time></trkpt><trkpt lat="46.0536918" lon="13.5863837"><ele>270.0</ele><time>2026-05-03T09:59:26.003Z</time></trkpt><trkpt lat="46.0537685" lon="13.5862708"><ele>270.0</ele><time>2026-05-03T09:59:26.988Z</time></trkpt><trkpt lat="46.0538283" lon="13.5861495"><ele>270.0</ele><time>2026-05-03T09:59:27.997Z</time></trkpt><trkpt lat="46.0538718" lon="13.5860183"><ele>270.0</ele><time>2026-05-03T09:59:29Z</time></trkpt><trkpt lat="46.053909" lon="13.5858854"><ele>270.0</ele><time>2026-05-03T09:59:29.996Z</time></trkpt><trkpt lat="46.0539311" lon="13.5857706"><ele>269.0</ele><time>2026-05-03T09:59:30.999Z</time></trkpt><trkpt lat="46.0539457" lon="13.5856524"><ele>268.0</ele><time>2026-05-03T09:59:32.003Z</time></trkpt><trkpt lat="46.053945" lon="13.5855334"><ele>267.0</ele><time>2026-05-03T09:59:32.995Z</time></trkpt><trkpt lat="46.053931" lon="13.58542"><ele>266.0</ele><time>2026-05-03T09:59:34.003Z</time></trkpt><trkpt lat="46.0539237" lon="13.5852996"><ele>265.0</ele><time>2026-05-03T09:59:34.994Z</time></trkpt><trkpt lat="46.0539346" lon="13.5851583"><ele>264.0</ele><time>2026-05-03T09:59:35.995Z</time></trkpt><trkpt lat="46.0539421" lon="13.5850147"><ele>264.0</ele><time>2026-05-03T09:59:36.99Z</time></trkpt><trkpt lat="46.0539428" lon="13.5848677"><ele>264.0</ele><time>2026-05-03T09:59:38.001Z</time></trkpt><trkpt lat="46.0539163" lon="13.5847129"><ele>264.0</ele><time>2026-05-03T09:59:39.004Z</time></trkpt><trkpt lat="46.0538777" lon="13.5845532"><ele>264.0</ele><time>2026-05-03T09:59:39.994Z</time></trkpt><trkpt lat="46.0538572" lon="13.5844286"><ele>264.0</ele><time>2026-05-03T09:59:40.996Z</time></trkpt><trkpt lat="46.05387" lon="13.5842757"><ele>264.0</ele><time>2026-05-03T09:59:42.995Z</time></trkpt><trkpt lat="46.0539178" lon="13.5844592"><ele>264.0</ele><time>2026-05-03T09:59:47.996Z</time></trkpt><trkpt lat="46.0539373" lon="13.5845839"><ele>264.0</ele><time>2026-05-03T09:59:48.996Z</time></trkpt><trkpt lat="46.0539644" lon="13.5847171"><ele>264.0</ele><time>2026-05-03T09:59:49.992Z</time></trkpt><trkpt lat="46.0539966" lon="13.5848542"><ele>264.0</ele><time>2026-05-03T09:59:50.999Z</time></trkpt><trkpt lat="46.0540415" lon="13.5850111"><ele>264.0</ele><time>2026-05-03T09:59:51.995Z</time></trkpt><trkpt lat="46.0541013" lon="13.5851825"><ele>264.0</ele><time>2026-05-03T09:59:52.998Z</time></trkpt><trkpt lat="46.0541662" lon="13.5853623"><ele>264.0</ele><time>2026-05-03T09:59:54.001Z</time></trkpt><trkpt lat="46.0542355" lon="13.5855262"><ele>264.0</ele><time>2026-05-03T09:59:55.003Z</time></trkpt><trkpt lat="46.0543082" lon="13.5856725"><ele>271.4</ele><time>2026-05-03T09:59:56.001Z</time></trkpt><trkpt lat="46.0543642" lon="13.5858019"><ele>278.79999999999995</ele><time>2026-05-03T09:59:56.994Z</time></trkpt><trkpt lat="46.0543871" lon="13.585937"><ele>286.20000000000005</ele><time>2026-05-03T09:59:57.999Z</time></trkpt><trkpt lat="46.0543847" lon="13.5860849"><ele>293.6</ele><time>2026-05-03T09:59:59.005Z</time></trkpt><trkpt lat="46.0543823" lon="13.5862385"><ele>301.0</ele><time>2026-05-03T09:59:59.996Z</time></trkpt><trkpt lat="46.0543882" lon="13.5863929"><ele>302.6</ele><time>2026-05-03T10:00:01.004Z</time></trkpt><trkpt lat="46.0543985" lon="13.5865408"><ele>304.20000000000005</ele><time>2026-05-03T10:00:01.992Z</time></trkpt><trkpt lat="46.0543928" lon="13.5866836"><ele>305.79999999999995</ele><time>2026-05-03T10:00:02.994Z</time></trkpt><trkpt lat="46.0543656" lon="13.5868378"><ele>307.4</ele><time>2026-05-03T10:00:03.991Z</time></trkpt><trkpt lat="46.05431" lon="13.5869931"><ele>309.0</ele><time>2026-05-03T10:00:04.996Z</time></trkpt><trkpt lat="46.0542552" lon="13.5871608"><ele>306.75</ele><time>2026-05-03T10:00:05.997Z</time></trkpt><trkpt lat="46.0542071" lon="13.5873372"><ele>304.5</ele><time>2026-05-03T10:00:06.996Z</time></trkpt><trkpt lat="46.0541546" lon="13.5875095"><ele>302.25</ele><time>2026-05-03T10:00:08Z</time></trkpt><trkpt lat="46.0541009" lon="13.5876816"><ele>300.0</ele><time>2026-05-03T10:00:08.997Z</time></trkpt><trkpt lat="46.0540513" lon="13.5878439"><ele>300.0</ele><time>2026-05-03T10:00:10.003Z</time></trkpt><trkpt lat="46.0540064" lon="13.5879946"><ele>300.0</ele><time>2026-05-03T10:00:10.997Z</time></trkpt><trkpt lat="46.0539667" lon="13.5881326"><ele>300.0</ele><time>2026-05-03T10:00:11.992Z</time></trkpt><trkpt lat="46.0539394" lon="13.5882534"><ele>300.0</ele><time>2026-05-03T10:00:12.999Z</time></trkpt><trkpt lat="46.0539286" lon="13.5883495"><ele>300.0</ele><time>2026-05-03T10:00:13.998Z</time></trkpt><trkpt lat="46.0539338" lon="13.588476"><ele>300.0</ele><time>2026-05-03T10:00:15.994Z</time></trkpt><trkpt lat="46.0540241" lon="13.588462"><ele>300.0</ele><time>2026-05-03T10:00:19.002Z</time></trkpt><trkpt lat="46.0540436" lon="13.5882751"><ele>300.0</ele><time>2026-05-03T10:00:20.992Z</time></trkpt><trkpt lat="46.0541039" lon="13.5880877"><ele>300.0</ele><time>2026-05-03T10:00:21.993Z</time></trkpt><trkpt lat="46.05418" lon="13.5878821"><ele>308.3333333333333</ele><time>2026-05-03T10:00:22.996Z</time></trkpt><trkpt lat="46.0543003" lon="13.5876585"><ele>316.66666666666663</ele><time>2026-05-03T10:00:23.998Z</time></trkpt><trkpt lat="46.0544107" lon="13.5874844"><ele>325.0</ele><time>2026-05-03T10:00:24.997Z</time></trkpt><trkpt lat="46.0545256" lon="13.5873242"><ele>325.0</ele><time>2026-05-03T10:00:25.994Z</time></trkpt><trkpt lat="46.0546218" lon="13.5871829"><ele>325.0</ele><time>2026-05-03T10:00:26.994Z</time></trkpt><trkpt lat="46.0547191" lon="13.5870592"><ele>325.0</ele><time>2026-05-03T10:00:27.993Z</time></trkpt><trkpt lat="46.054815" lon="13.5869345"><ele>325.0</ele><time>2026-05-03T10:00:28.993Z</time></trkpt><trkpt lat="46.0549117" lon="13.5868361"><ele>328.3333333333333</ele><time>2026-05-03T10:00:29.995Z</time></trkpt><trkpt lat="46.0549997" lon="13.5867409"><ele>331.66666666666663</ele><time>2026-05-03T10:00:30.996Z</time></trkpt><trkpt lat="46.0550682" lon="13.5866659"><ele>335.0</ele><time>2026-05-03T10:00:32.003Z</time></trkpt><trkpt lat="46.0551246" lon="13.5865832"><ele>338.3333333333333</ele><time>2026-05-03T10:00:32.996Z</time></trkpt><trkpt lat="46.0551625" lon="13.58648"><ele>341.6666666666667</ele><time>2026-05-03T10:00:34.003Z</time></trkpt><trkpt lat="46.0551743" lon="13.5863577"><ele>345.0</ele><time>2026-05-03T10:00:34.993Z</time></trkpt><trkpt lat="46.0551957" lon="13.5862247"><ele>344.8</ele><time>2026-05-03T10:00:35.991Z</time></trkpt><trkpt lat="46.0552377" lon="13.5860956"><ele>344.6</ele><time>2026-05-03T10:00:37.004Z</time></trkpt><trkpt lat="46.0552926" lon="13.5859659"><ele>344.4</ele><time>2026-05-03T10:00:37.996Z</time></trkpt><trkpt lat="46.055326" lon="13.5858485"><ele>344.2</ele><time>2026-05-03T10:00:38.996Z</time></trkpt><trkpt lat="46.0553375" lon="13.5857312"><ele>344.0</ele><time>2026-05-03T10:00:39.994Z</time></trkpt><trkpt lat="46.0553283" lon="13.5856063"><ele>344.0</ele><time>2026-05-03T10:00:40.992Z</time></trkpt><trkpt lat="46.0552874" lon="13.585487"><ele>344.0</ele><time>2026-05-03T10:00:41.999Z</time></trkpt><trkpt lat="46.0552238" lon="13.5853639"><ele>344.0</ele><time>2026-05-03T10:00:42.996Z</time></trkpt><trkpt lat="46.0551681" lon="13.5852275"><ele>344.0</ele><time>2026-05-03T10:00:44.002Z</time></trkpt><trkpt lat="46.0551146" lon="13.5850918"><ele>344.0</ele><time>2026-05-03T10:00:44.997Z</time></trkpt><trkpt lat="46.0550719" lon="13.5849499"><ele>344.33333333333337</ele><time>2026-05-03T10:00:46Z</time></trkpt><trkpt lat="46.0550504" lon="13.5848083"><ele>344.6666666666667</ele><time>2026-05-03T10:00:46.997Z</time></trkpt><trkpt lat="46.0550472" lon="13.584677"><ele>345.0</ele><time>2026-05-03T10:00:47.992Z</time></trkpt><trkpt lat="46.0550587" lon="13.5845553"><ele>345.3333333333333</ele><time>2026-05-03T10:00:49.003Z</time></trkpt><trkpt lat="46.0550792" lon="13.5844484"><ele>345.66666666666663</ele><time>2026-05-03T10:00:49.993Z</time></trkpt><trkpt lat="46.0551298" lon="13.5843589"><ele>346.0</ele><time>2026-05-03T10:00:50.996Z</time></trkpt><trkpt lat="46.0552119" lon="13.5842704"><ele>346.0</ele><time>2026-05-03T10:00:51.999Z</time></trkpt><trkpt lat="46.0553019" lon="13.5841863"><ele>346.0</ele><time>2026-05-03T10:00:52.996Z</time></trkpt><trkpt lat="46.0553887" lon="13.5841085"><ele>346.0</ele><time>2026-05-03T10:00:53.995Z</time></trkpt><trkpt lat="46.0554504" lon="13.5840167"><ele>346.0</ele><time>2026-05-03T10:00:54.993Z</time></trkpt><trkpt lat="46.0554847" lon="13.5839285"><ele>346.0</ele><time>2026-05-03T10:00:55.99Z</time></trkpt><trkpt lat="46.0554905" lon="13.5838296"><ele>346.0</ele><time>2026-05-03T10:00:56.994Z</time></trkpt><trkpt lat="46.0554711" lon="13.5837167"><ele>345.5</ele><time>2026-05-03T10:00:57.996Z</time></trkpt><trkpt lat="46.0554453" lon="13.5835973"><ele>345.0</ele><time>2026-05-03T10:00:59.003Z</time></trkpt><trkpt lat="46.0554321" lon="13.5834716"><ele>344.5</ele><time>2026-05-03T10:00:59.994Z</time></trkpt><trkpt lat="46.055442" lon="13.5833587"><ele>344.0</ele><time>2026-05-03T10:01:00.995Z</time></trkpt><trkpt lat="46.0554625" lon="13.5832574"><ele>343.5</ele><time>2026-05-03T10:01:01.993Z</time></trkpt><trkpt lat="46.0555041" lon="13.5831887"><ele>343.0</ele><time>2026-05-03T10:01:03.002Z</time></trkpt><trkpt lat="46.055564" lon="13.58312"><ele>343.0</ele><time>2026-05-03T10:01:04.003Z</time></trkpt><trkpt lat="46.0556445" lon="13.5830443"><ele>343.0</ele><time>2026-05-03T10:01:04.996Z</time></trkpt><trkpt lat="46.055736" lon="13.5829753"><ele>343.0</ele><time>2026-05-03T10:01:05.999Z</time></trkpt><trkpt lat="46.0558348" lon="13.5828953"><ele>343.0</ele><time>2026-05-03T10:01:07Z</time></trkpt><trkpt lat="46.0559289" lon="13.5828064"><ele>343.0</ele><time>2026-05-03T10:01:08.001Z</time></trkpt><trkpt lat="46.0560237" lon="13.5827119"><ele>349.66666666666663</ele><time>2026-05-03T10:01:08.999Z</time></trkpt><trkpt lat="46.0560822" lon="13.5826382"><ele>356.3333333333333</ele><time>2026-05-03T10:01:10.001Z</time></trkpt><trkpt lat="46.0560867" lon="13.5825104"><ele>363.0</ele><time>2026-05-03T10:01:11.994Z</time></trkpt><trkpt lat="46.0559851" lon="13.5824407"><ele>369.6666666666667</ele><time>2026-05-03T10:01:14.005Z</time></trkpt><trkpt lat="46.055931" lon="13.5823787"><ele>376.33333333333337</ele><time>2026-05-03T10:01:14.998Z</time></trkpt><trkpt lat="46.0558713" lon="13.5822983"><ele>383.0</ele><time>2026-05-03T10:01:15.997Z</time></trkpt><trkpt lat="46.0558114" lon="13.5821987"><ele>375.59999999999997</ele><time>2026-05-03T10:01:16.999Z</time></trkpt><trkpt lat="46.055757" lon="13.5820915"><ele>368.2</ele><time>2026-05-03T10:01:17.993Z</time></trkpt><trkpt lat="46.055722" lon="13.5819794"><ele>360.8</ele><time>2026-05-03T10:01:19.001Z</time></trkpt><trkpt lat="46.0556817" lon="13.5818591"><ele>353.4</ele><time>2026-05-03T10:01:19.991Z</time></trkpt><trkpt lat="46.0556596" lon="13.5817221"><ele>346.0</ele><time>2026-05-03T10:01:20.992Z</time></trkpt><trkpt lat="46.0556499" lon="13.5815653"><ele>346.0</ele><time>2026-05-03T10:01:21.996Z</time></trkpt><trkpt lat="46.0556443" lon="13.5813907"><ele>346.0</ele><time>2026-05-03T10:01:22.995Z</time></trkpt><trkpt lat="46.0556392" lon="13.581227"><ele>346.0</ele><time>2026-05-03T10:01:23.993Z</time></trkpt><trkpt lat="46.0556449" lon="13.5810773"><ele>346.0</ele><time>2026-05-03T10:01:25.004Z</time></trkpt><trkpt lat="46.0556778" lon="13.5809522"><ele>346.0</ele><time>2026-05-03T10:01:26Z</time></trkpt><trkpt lat="46.0557263" lon="13.5808344"><ele>356.0</ele><time>2026-05-03T10:01:27.003Z</time></trkpt><trkpt lat="46.0557888" lon="13.5807309"><ele>366.0</ele><time>2026-05-03T10:01:27.994Z</time></trkpt><trkpt lat="46.0558544" lon="13.5806369"><ele>376.0</ele><time>2026-05-03T10:01:28.993Z</time></trkpt><trkpt lat="46.0559132" lon="13.5805416"><ele>386.0</ele><time>2026-05-03T10:01:29.995Z</time></trkpt><trkpt lat="46.0559393" lon="13.5804236"><ele>396.0</ele><time>2026-05-03T10:01:30.993Z</time></trkpt><trkpt lat="46.0559507" lon="13.5802922"><ele>396.0</ele><time>2026-05-03T10:01:31.988Z</time></trkpt><trkpt lat="46.0559587" lon="13.5801372"><ele>396.0</ele><time>2026-05-03T10:01:33Z</time></trkpt><trkpt lat="46.0559744" lon="13.5799765"><ele>396.0</ele><time>2026-05-03T10:01:33.995Z</time></trkpt><trkpt lat="46.0559805" lon="13.5798165"><ele>396.0</ele><time>2026-05-03T10:01:35.004Z</time></trkpt><trkpt lat="46.0560028" lon="13.5796648"><ele>396.0</ele><time>2026-05-03T10:01:36.003Z</time></trkpt><trkpt lat="46.0560343" lon="13.5795132"><ele>393.0</ele><time>2026-05-03T10:01:36.99Z</time></trkpt><trkpt lat="46.0560882" lon="13.5793651"><ele>390.0</ele><time>2026-05-03T10:01:37.994Z</time></trkpt><trkpt lat="46.0561465" lon="13.5792197"><ele>387.0</ele><time>2026-05-03T10:01:38.99Z</time></trkpt><trkpt lat="46.056203" lon="13.5790763"><ele>384.0</ele><time>2026-05-03T10:01:40.005Z</time></trkpt><trkpt lat="46.0562525" lon="13.5789371"><ele>384.0</ele><time>2026-05-03T10:01:40.996Z</time></trkpt><trkpt lat="46.0562912" lon="13.5787905"><ele>384.0</ele><time>2026-05-03T10:01:41.995Z</time></trkpt><trkpt lat="46.0563238" lon="13.5786428"><ele>384.0</ele><time>2026-05-03T10:01:42.991Z</time></trkpt><trkpt lat="46.0563378" lon="13.5785001"><ele>384.0</ele><time>2026-05-03T10:01:43.998Z</time></trkpt><trkpt lat="46.056347" lon="13.5783576"><ele>384.0</ele><time>2026-05-03T10:01:44.995Z</time></trkpt><trkpt lat="46.0563834" lon="13.578221"><ele>382.0</ele><time>2026-05-03T10:01:45.993Z</time></trkpt><trkpt lat="46.0564196" lon="13.5780998"><ele>380.0</ele><time>2026-05-03T10:01:47.002Z</time></trkpt><trkpt lat="46.0564406" lon="13.5779842"><ele>378.0</ele><time>2026-05-03T10:01:47.996Z</time></trkpt><trkpt lat="46.0564403" lon="13.5778669"><ele>376.0</ele><time>2026-05-03T10:01:48.998Z</time></trkpt><trkpt lat="46.0564302" lon="13.5777518"><ele>374.0</ele><time>2026-05-03T10:01:49.991Z</time></trkpt><trkpt lat="46.0564366" lon="13.5776189"><ele>372.0</ele><time>2026-05-03T10:01:51.004Z</time></trkpt><trkpt lat="46.0564638" lon="13.5774982"><ele>369.8</ele><time>2026-05-03T10:01:52Z</time></trkpt><trkpt lat="46.0565085" lon="13.577385"><ele>367.6</ele><time>2026-05-03T10:01:52.997Z</time></trkpt><trkpt lat="46.0565664" lon="13.5772933"><ele>365.40000000000003</ele><time>2026-05-03T10:01:53.995Z</time></trkpt><trkpt lat="46.0566271" lon="13.577212"><ele>363.20000000000005</ele><time>2026-05-03T10:01:54.999Z</time></trkpt><trkpt lat="46.0567421" lon="13.5772037"><ele>361.0</ele><time>2026-05-03T10:01:56.001Z</time></trkpt><trkpt lat="46.0568919" lon="13.5772022"><ele>369.0</ele><time>2026-05-03T10:01:56.993Z</time></trkpt><trkpt lat="46.0570195" lon="13.5771926"><ele>377.0</ele><time>2026-05-03T10:01:57.992Z</time></trkpt><trkpt lat="46.0570859" lon="13.5771533"><ele>385.0</ele><time>2026-05-03T10:01:59.002Z</time></trkpt><trkpt lat="46.0571299" lon="13.5770511"><ele>393.0</ele><time>2026-05-03T10:02:00.995Z</time></trkpt><trkpt lat="46.0571285" lon="13.5768787"><ele>401.0</ele><time>2026-05-03T10:02:03.001Z</time></trkpt><trkpt lat="46.0571011" lon="13.5767699"><ele>400.99999999999994</ele><time>2026-05-03T10:02:03.993Z</time></trkpt><trkpt lat="46.0570869" lon="13.5766564"><ele>401.0</ele><time>2026-05-03T10:02:04.992Z</time></trkpt><trkpt lat="46.0570969" lon="13.5765398"><ele>401.0</ele><time>2026-05-03T10:02:05.992Z</time></trkpt><trkpt lat="46.0571291" lon="13.5764245"><ele>401.0</ele><time>2026-05-03T10:02:06.995Z</time></trkpt><trkpt lat="46.0571886" lon="13.5763165"><ele>400.99999999999994</ele><time>2026-05-03T10:02:07.988Z</time></trkpt><trkpt lat="46.0572635" lon="13.5762226"><ele>401.0</ele><time>2026-05-03T10:02:08.99Z</time></trkpt><trkpt lat="46.0573471" lon="13.5761335"><ele>395.8</ele><time>2026-05-03T10:02:09.994Z</time></trkpt><trkpt lat="46.0574361" lon="13.5760415"><ele>390.6</ele><time>2026-05-03T10:02:11.003Z</time></trkpt><trkpt lat="46.0575323" lon="13.5759731"><ele>385.4</ele><time>2026-05-03T10:02:11.998Z</time></trkpt><trkpt lat="46.0576312" lon="13.5759063"><ele>380.2</ele><time>2026-05-03T10:02:12.999Z</time></trkpt><trkpt lat="46.057745" lon="13.5758628"><ele>375.0</ele><time>2026-05-03T10:02:14.001Z</time></trkpt><trkpt lat="46.0578611" lon="13.5758307"><ele>385.5</ele><time>2026-05-03T10:02:14.995Z</time></trkpt><trkpt lat="46.0579637" lon="13.5758074"><ele>396.0</ele><time>2026-05-03T10:02:16.001Z</time></trkpt><trkpt lat="46.0580566" lon="13.5757385"><ele>406.5</ele><time>2026-05-03T10:02:17.995Z</time></trkpt><trkpt lat="46.0580403" lon="13.5756193"><ele>417.0</ele><time>2026-05-03T10:02:19.998Z</time></trkpt><trkpt lat="46.0580095" lon="13.5755398"><ele>427.5</ele><time>2026-05-03T10:02:20.994Z</time></trkpt><trkpt lat="46.057962" lon="13.575462"><ele>438.0</ele><time>2026-05-03T10:02:21.994Z</time></trkpt><trkpt lat="46.0579183" lon="13.5753637"><ele>436.0</ele><time>2026-05-03T10:02:23.002Z</time></trkpt><trkpt lat="46.0578972" lon="13.575219"><ele>433.99999999999994</ele><time>2026-05-03T10:02:23.992Z</time></trkpt><trkpt lat="46.0578854" lon="13.575061"><ele>431.99999999999994</ele><time>2026-05-03T10:02:25Z</time></trkpt><trkpt lat="46.0578606" lon="13.5749074"><ele>430.0</ele><time>2026-05-03T10:02:25.997Z</time></trkpt><trkpt lat="46.0578405" lon="13.5747566"><ele>428.0</ele><time>2026-05-03T10:02:26.995Z</time></trkpt><trkpt lat="46.0578319" lon="13.5746175"><ele>427.75</ele><time>2026-05-03T10:02:28Z</time></trkpt><trkpt lat="46.0578464" lon="13.574475"><ele>427.5</ele><time>2026-05-03T10:02:28.997Z</time></trkpt><trkpt lat="46.057875" lon="13.5743031"><ele>427.25</ele><time>2026-05-03T10:02:29.991Z</time></trkpt><trkpt lat="46.057901" lon="13.5741145"><ele>427.0</ele><time>2026-05-03T10:02:30.995Z</time></trkpt><trkpt lat="46.0579337" lon="13.573935"><ele>427.0</ele><time>2026-05-03T10:02:32.003Z</time></trkpt><trkpt lat="46.0579744" lon="13.573768"><ele>427.0</ele><time>2026-05-03T10:02:33Z</time></trkpt><trkpt lat="46.0580361" lon="13.5736091"><ele>427.0</ele><time>2026-05-03T10:02:33.992Z</time></trkpt><trkpt lat="46.0581067" lon="13.5734561"><ele>427.0</ele><time>2026-05-03T10:02:35Z</time></trkpt><trkpt lat="46.0581795" lon="13.5732965"><ele>429.5</ele><time>2026-05-03T10:02:35.991Z</time></trkpt><trkpt lat="46.0582586" lon="13.5731261"><ele>432.0</ele><time>2026-05-03T10:02:36.999Z</time></trkpt><trkpt lat="46.0583267" lon="13.5729527"><ele>434.5</ele><time>2026-05-03T10:02:38.004Z</time></trkpt><trkpt lat="46.0583718" lon="13.5727701"><ele>437.0</ele><time>2026-05-03T10:02:38.993Z</time></trkpt><trkpt lat="46.0584065" lon="13.572586"><ele>440.8</ele><time>2026-05-03T10:02:40.005Z</time></trkpt><trkpt lat="46.0584357" lon="13.5724024"><ele>444.6</ele><time>2026-05-03T10:02:40.991Z</time></trkpt><trkpt lat="46.058452" lon="13.5722359"><ele>448.40000000000003</ele><time>2026-05-03T10:02:41.99Z</time></trkpt><trkpt lat="46.0584656" lon="13.572106"><ele>452.20000000000005</ele><time>2026-05-03T10:02:43.003Z</time></trkpt><trkpt lat="46.0584818" lon="13.5719938"><ele>456.0</ele><time>2026-05-03T10:02:43.988Z</time></trkpt><trkpt lat="46.0585162" lon="13.5718682"><ele>456.0</ele><time>2026-05-03T10:02:45.991Z</time></trkpt><trkpt lat="46.0584936" lon="13.5720218"><ele>456.0</ele><time>2026-05-03T10:02:49.998Z</time></trkpt><trkpt lat="46.0584631" lon="13.5721386"><ele>456.0</ele><time>2026-05-03T10:02:50.994Z</time></trkpt><trkpt lat="46.0584375" lon="13.5722598"><ele>456.0</ele><time>2026-05-03T10:02:51.994Z</time></trkpt><trkpt lat="46.0584238" lon="13.5724027"><ele>456.0</ele><time>2026-05-03T10:02:52.989Z</time></trkpt><trkpt lat="46.0584153" lon="13.572567"><ele>457.5</ele><time>2026-05-03T10:02:53.998Z</time></trkpt><trkpt lat="46.0583966" lon="13.5727276"><ele>459.0</ele><time>2026-05-03T10:02:54.996Z</time></trkpt><trkpt lat="46.0583697" lon="13.5729028"><ele>460.5</ele><time>2026-05-03T10:02:55.997Z</time></trkpt><trkpt lat="46.0583533" lon="13.5730768"><ele>462.0</ele><time>2026-05-03T10:02:56.991Z</time></trkpt><trkpt lat="46.0583649" lon="13.5732225"><ele>463.8</ele><time>2026-05-03T10:02:57.992Z</time></trkpt><trkpt lat="46.0583827" lon="13.5733611"><ele>465.6</ele><time>2026-05-03T10:02:58.993Z</time></trkpt><trkpt lat="46.058409" lon="13.573497"><ele>467.40000000000003</ele><time>2026-05-03T10:02:59.995Z</time></trkpt><trkpt lat="46.0584565" lon="13.5736557"><ele>469.20000000000005</ele><time>2026-05-03T10:03:01.001Z</time></trkpt><trkpt lat="46.0584971" lon="13.5738262"><ele>471.0</ele><time>2026-05-03T10:03:01.992Z</time></trkpt><trkpt lat="46.058528" lon="13.5740021"><ele>471.0</ele><time>2026-05-03T10:03:02.997Z</time></trkpt><trkpt lat="46.058546" lon="13.574171"><ele>471.0</ele><time>2026-05-03T10:03:03.999Z</time></trkpt><trkpt lat="46.0585648" lon="13.5742936"><ele>471.0</ele><time>2026-05-03T10:03:05Z</time></trkpt><trkpt lat="46.0585877" lon="13.5743846"><ele>471.0</ele><time>2026-05-03T10:03:05.989Z</time></trkpt><trkpt lat="46.0586869" lon="13.5743874"><ele>471.0</ele><time>2026-05-03T10:03:07.997Z</time></trkpt><trkpt lat="46.0587619" lon="13.5743572"><ele>471.0</ele><time>2026-05-03T10:03:08.997Z</time></trkpt><trkpt lat="46.0588382" lon="13.5743048"><ele>471.0</ele><time>2026-05-03T10:03:09.994Z</time></trkpt><trkpt lat="46.0588881" lon="13.5742422"><ele>471.0</ele><time>2026-05-03T10:03:10.992Z</time></trkpt><trkpt lat="46.0588893" lon="13.5740659"><ele>471.0</ele><time>2026-05-03T10:03:13.006Z</time></trkpt><trkpt lat="46.0588787" lon="13.573956"><ele>471.0</ele><time>2026-05-03T10:03:13.991Z</time></trkpt><trkpt lat="46.0588685" lon="13.5738355"><ele>471.0</ele><time>2026-05-03T10:03:14.997Z</time></trkpt><trkpt lat="46.058874" lon="13.5737193"><ele>471.0</ele><time>2026-05-03T10:03:16.004Z</time></trkpt><trkpt lat="46.058886" lon="13.5736263"><ele>471.0</ele><time>2026-05-03T10:03:16.994Z</time></trkpt><trkpt lat="46.0588948" lon="13.5735254"><ele>471.0</ele><time>2026-05-03T10:03:18.996Z</time></trkpt><trkpt lat="46.0588647" lon="13.573383"><ele>471.0</ele><time>2026-05-03T10:03:36.999Z</time></trkpt><trkpt lat="46.0588915" lon="13.5732023"><ele>471.0</ele><time>2026-05-03T10:03:38.994Z</time></trkpt><trkpt lat="46.0589351" lon="13.5730705"><ele>471.0</ele><time>2026-05-03T10:03:39.991Z</time></trkpt><trkpt lat="46.0589546" lon="13.5729271"><ele>471.0</ele><time>2026-05-03T10:03:40.989Z</time></trkpt><trkpt lat="46.0589985" lon="13.572778"><ele>471.0</ele><time>2026-05-03T10:03:41.997Z</time></trkpt><trkpt lat="46.059047" lon="13.5726632"><ele>471.0</ele><time>2026-05-03T10:03:43.001Z</time></trkpt><trkpt lat="46.0591287" lon="13.5725489"><ele>471.0</ele><time>2026-05-03T10:03:44.005Z</time></trkpt><trkpt lat="46.059188" lon="13.5724277"><ele>475.5</ele><time>2026-05-03T10:03:45.005Z</time></trkpt><trkpt lat="46.059234" lon="13.5723393"><ele>480.0</ele><time>2026-05-03T10:03:45.991Z</time></trkpt><trkpt lat="46.0593105" lon="13.5722428"><ele>484.5</ele><time>2026-05-03T10:03:47.993Z</time></trkpt><trkpt lat="46.0593643" lon="13.5723044"><ele>489.0</ele><time>2026-05-03T10:03:50.996Z</time></trkpt><trkpt lat="46.0593228" lon="13.5724222"><ele>493.5</ele><time>2026-05-03T10:03:52.993Z</time></trkpt><trkpt lat="46.0592831" lon="13.5725031"><ele>498.0</ele><time>2026-05-03T10:03:53.996Z</time></trkpt><trkpt lat="46.0592484" lon="13.5726024"><ele>498.0</ele><time>2026-05-03T10:03:54.991Z</time></trkpt><trkpt lat="46.059217" lon="13.5727184"><ele>498.0</ele><time>2026-05-03T10:03:55.999Z</time></trkpt><trkpt lat="46.0592037" lon="13.5728375"><ele>498.0</ele><time>2026-05-03T10:03:57Z</time></trkpt><trkpt lat="46.0592173" lon="13.5729467"><ele>498.0</ele><time>2026-05-03T10:03:57.995Z</time></trkpt><trkpt lat="46.0592397" lon="13.5730548"><ele>498.0</ele><time>2026-05-03T10:03:59.001Z</time></trkpt><trkpt lat="46.0592631" lon="13.5731502"><ele>498.0</ele><time>2026-05-03T10:03:59.992Z</time></trkpt><trkpt lat="46.059312" lon="13.5732376"><ele>498.2</ele><time>2026-05-03T10:04:00.992Z</time></trkpt><trkpt lat="46.0593884" lon="13.5733372"><ele>498.4</ele><time>2026-05-03T10:04:01.995Z</time></trkpt><trkpt lat="46.0594662" lon="13.5734433"><ele>498.59999999999997</ele><time>2026-05-03T10:04:03.001Z</time></trkpt><trkpt lat="46.0595282" lon="13.5735681"><ele>498.79999999999995</ele><time>2026-05-03T10:04:03.993Z</time></trkpt><trkpt lat="46.0595765" lon="13.5737039"><ele>499.0</ele><time>2026-05-03T10:04:04.998Z</time></trkpt><trkpt lat="46.0595967" lon="13.5738465"><ele>499.0</ele><time>2026-05-03T10:04:05.998Z</time></trkpt><trkpt lat="46.0596123" lon="13.5740162"><ele>499.0</ele><time>2026-05-03T10:04:06.999Z</time></trkpt><trkpt lat="46.0596261" lon="13.574184"><ele>499.0</ele><time>2026-05-03T10:04:07.995Z</time></trkpt><trkpt lat="46.0596087" lon="13.5743422"><ele>499.0</ele><time>2026-05-03T10:04:08.997Z</time></trkpt><trkpt lat="46.0595788" lon="13.5744882"><ele>499.33333333333337</ele><time>2026-05-03T10:04:09.998Z</time></trkpt><trkpt lat="46.0595524" lon="13.5746088"><ele>499.6666666666667</ele><time>2026-05-03T10:04:10.999Z</time></trkpt><trkpt lat="46.0595407" lon="13.5747255"><ele>500.0</ele><time>2026-05-03T10:04:11.998Z</time></trkpt><trkpt lat="46.0595422" lon="13.5748232"><ele>500.33333333333337</ele><time>2026-05-03T10:04:12.993Z</time></trkpt><trkpt lat="46.0595953" lon="13.5749188"><ele>500.6666666666667</ele><time>2026-05-03T10:04:14.997Z</time></trkpt><trkpt lat="46.0596718" lon="13.5748955"><ele>501.0</ele><time>2026-05-03T10:04:16.995Z</time></trkpt><trkpt lat="46.0596855" lon="13.5747789"><ele>501.0</ele><time>2026-05-03T10:04:19Z</time></trkpt><trkpt lat="46.0597073" lon="13.5746756"><ele>501.0</ele><time>2026-05-03T10:04:19.997Z</time></trkpt><trkpt lat="46.0597408" lon="13.5745592"><ele>501.0</ele><time>2026-05-03T10:04:20.993Z</time></trkpt><trkpt lat="46.0597827" lon="13.5744352"><ele>501.0</ele><time>2026-05-03T10:04:21.986Z</time></trkpt><trkpt lat="46.0598269" lon="13.5742933"><ele>501.0</ele><time>2026-05-03T10:04:22.995Z</time></trkpt><trkpt lat="46.0598773" lon="13.5741325"><ele>500.5</ele><time>2026-05-03T10:04:23.991Z</time></trkpt><trkpt lat="46.0599299" lon="13.5739568"><ele>500.0</ele><time>2026-05-03T10:04:24.993Z</time></trkpt><trkpt lat="46.059979" lon="13.5737985"><ele>499.5</ele><time>2026-05-03T10:04:25.998Z</time></trkpt><trkpt lat="46.0600346" lon="13.5736552"><ele>499.0</ele><time>2026-05-03T10:04:26.995Z</time></trkpt><trkpt lat="46.0601193" lon="13.5735451"><ele>504.4</ele><time>2026-05-03T10:04:27.993Z</time></trkpt><trkpt lat="46.0602015" lon="13.5734451"><ele>509.79999999999995</ele><time>2026-05-03T10:04:28.992Z</time></trkpt><trkpt lat="46.0602904" lon="13.5733576"><ele>515.2</ele><time>2026-05-03T10:04:29.991Z</time></trkpt><trkpt lat="46.060388" lon="13.5732852"><ele>520.6</ele><time>2026-05-03T10:04:30.994Z</time></trkpt><trkpt lat="46.0604807" lon="13.5732006"><ele>526.0</ele><time>2026-05-03T10:04:31.99Z</time></trkpt><trkpt lat="46.0605622" lon="13.573101"><ele>526.0</ele><time>2026-05-03T10:04:32.986Z</time></trkpt><trkpt lat="46.0606466" lon="13.5730036"><ele>526.0</ele><time>2026-05-03T10:04:33.992Z</time></trkpt><trkpt lat="46.060718" lon="13.572902"><ele>526.0</ele><time>2026-05-03T10:04:35.004Z</time></trkpt><trkpt lat="46.0607877" lon="13.5728139"><ele>526.0</ele><time>2026-05-03T10:04:36.007Z</time></trkpt><trkpt lat="46.0608642" lon="13.5727431"><ele>526.0</ele><time>2026-05-03T10:04:36.997Z</time></trkpt><trkpt lat="46.0609621" lon="13.5727002"><ele>528.6</ele><time>2026-05-03T10:04:37.992Z</time></trkpt><trkpt lat="46.0610539" lon="13.5726673"><ele>531.2</ele><time>2026-05-03T10:04:38.992Z</time></trkpt><trkpt lat="46.0611416" lon="13.5726361"><ele>533.8</ele><time>2026-05-03T10:04:39.996Z</time></trkpt><trkpt lat="46.06123" lon="13.5725603"><ele>536.4</ele><time>2026-05-03T10:04:41Z</time></trkpt><trkpt lat="46.0613241" lon="13.5724638"><ele>539.0</ele><time>2026-05-03T10:04:41.997Z</time></trkpt><trkpt lat="46.0614155" lon="13.5723617"><ele>539.0</ele><time>2026-05-03T10:04:42.996Z</time></trkpt><trkpt lat="46.0614926" lon="13.5722568"><ele>539.0</ele><time>2026-05-03T10:04:43.989Z</time></trkpt><trkpt lat="46.0615504" lon="13.5721586"><ele>539.0</ele><time>2026-05-03T10:04:44.995Z</time></trkpt><trkpt lat="46.0615943" lon="13.572048"><ele>539.0</ele><time>2026-05-03T10:04:46.004Z</time></trkpt><trkpt lat="46.0616183" lon="13.5719507"><ele>539.0</ele><time>2026-05-03T10:04:47.002Z</time></trkpt><trkpt lat="46.0616163" lon="13.5718396"><ele>539.0</ele><time>2026-05-03T10:04:47.996Z</time></trkpt><trkpt lat="46.0616004" lon="13.5717095"><ele>538.8</ele><time>2026-05-03T10:04:48.996Z</time></trkpt><trkpt lat="46.0615945" lon="13.5715734"><ele>538.5999999999999</ele><time>2026-05-03T10:04:49.994Z</time></trkpt><trkpt lat="46.0616196" lon="13.5714392"><ele>538.4</ele><time>2026-05-03T10:04:50.997Z</time></trkpt><trkpt lat="46.0616782" lon="13.5713176"><ele>538.1999999999999</ele><time>2026-05-03T10:04:51.993Z</time></trkpt><trkpt lat="46.0617487" lon="13.5712117"><ele>538.0</ele><time>2026-05-03T10:04:52.992Z</time></trkpt><trkpt lat="46.0618079" lon="13.5711547"><ele>540.8333333333334</ele><time>2026-05-03T10:04:53.995Z</time></trkpt><trkpt lat="46.0618738" lon="13.5711748"><ele>543.6666666666667</ele><time>2026-05-03T10:04:55.992Z</time></trkpt><trkpt lat="46.0618683" lon="13.571269"><ele>546.5</ele><time>2026-05-03T10:04:58.004Z</time></trkpt><trkpt lat="46.0617707" lon="13.5713844"><ele>549.3333333333334</ele><time>2026-05-03T10:04:59.991Z</time></trkpt><trkpt lat="46.0617313" lon="13.5714583"><ele>552.1666666666666</ele><time>2026-05-03T10:05:00.989Z</time></trkpt><trkpt lat="46.0617234" lon="13.5716185"><ele>555.0</ele><time>2026-05-03T10:05:02.995Z</time></trkpt><trkpt lat="46.0617652" lon="13.5717713"><ele>555.0</ele><time>2026-05-03T10:05:04.993Z</time></trkpt><trkpt lat="46.0617755" lon="13.5718726"><ele>555.0</ele><time>2026-05-03T10:05:05.999Z</time></trkpt><trkpt lat="46.0617936" lon="13.5719643"><ele>555.0</ele><time>2026-05-03T10:05:06.994Z</time></trkpt><trkpt lat="46.0618548" lon="13.5720623"><ele>555.0</ele><time>2026-05-03T10:05:08.989Z</time></trkpt><trkpt lat="46.0619187" lon="13.5720078"><ele>555.0</ele><time>2026-05-03T10:05:10.996Z</time></trkpt><trkpt lat="46.0619398" lon="13.57187"><ele>555.0</ele><time>2026-05-03T10:05:12.996Z</time></trkpt><trkpt lat="46.0619427" lon="13.5717726"><ele>555.0</ele><time>2026-05-03T10:05:14.002Z</time></trkpt><trkpt lat="46.0619453" lon="13.571657"><ele>555.0</ele><time>2026-05-03T10:05:14.991Z</time></trkpt><trkpt lat="46.0619732" lon="13.5715347"><ele>555.0</ele><time>2026-05-03T10:05:15.99Z</time></trkpt><trkpt lat="46.0620134" lon="13.5714168"><ele>555.0</ele><time>2026-05-03T10:05:16.995Z</time></trkpt><trkpt lat="46.0620722" lon="13.5713126"><ele>555.0</ele><time>2026-05-03T10:05:18Z</time></trkpt><trkpt lat="46.062148" lon="13.5712252"><ele>555.8333333333334</ele><time>2026-05-03T10:05:18.993Z</time></trkpt><trkpt lat="46.062237" lon="13.571155"><ele>556.6666666666666</ele><time>2026-05-03T10:05:19.995Z</time></trkpt><trkpt lat="46.0623336" lon="13.5711107"><ele>557.5</ele><time>2026-05-03T10:05:20.996Z</time></trkpt><trkpt lat="46.0624286" lon="13.5710702"><ele>558.3333333333333</ele><time>2026-05-03T10:05:21.991Z</time></trkpt><trkpt lat="46.0624983" lon="13.5710278"><ele>559.1666666666666</ele><time>2026-05-03T10:05:22.993Z</time></trkpt><trkpt lat="46.0625386" lon="13.5709482"><ele>560.0</ele><time>2026-05-03T10:05:24.992Z</time></trkpt><trkpt lat="46.0624637" lon="13.5708739"><ele>560.0</ele><time>2026-05-03T10:05:26.996Z</time></trkpt><trkpt lat="46.0623981" lon="13.5708242"><ele>560.0</ele><time>2026-05-03T10:05:27.996Z</time></trkpt><trkpt lat="46.0623238" lon="13.570761"><ele>560.0</ele><time>2026-05-03T10:05:29Z</time></trkpt><trkpt lat="46.0622402" lon="13.5706877"><ele>560.0</ele><time>2026-05-03T10:05:29.993Z</time></trkpt><trkpt lat="46.0621591" lon="13.5705906"><ele>560.0</ele><time>2026-05-03T10:05:31.005Z</time></trkpt><trkpt lat="46.0620912" lon="13.5704821"><ele>560.0</ele><time>2026-05-03T10:05:31.991Z</time></trkpt><trkpt lat="46.0620345" lon="13.5703709"><ele>560.0</ele><time>2026-05-03T10:05:32.996Z</time></trkpt><trkpt lat="46.061996" lon="13.5702659"><ele>560.0</ele><time>2026-05-03T10:05:33.991Z</time></trkpt><trkpt lat="46.0619812" lon="13.5701669"><ele>560.0</ele><time>2026-05-03T10:05:34.999Z</time></trkpt><trkpt lat="46.0619881" lon="13.5700586"><ele>560.0</ele><time>2026-05-03T10:05:35.99Z</time></trkpt><trkpt lat="46.0620213" lon="13.5699486"><ele>560.0</ele><time>2026-05-03T10:05:36.992Z</time></trkpt><trkpt lat="46.0620824" lon="13.5698397"><ele>559.4</ele><time>2026-05-03T10:05:37.99Z</time></trkpt><trkpt lat="46.062157" lon="13.5697257"><ele>558.8</ele><time>2026-05-03T10:05:38.996Z</time></trkpt><trkpt lat="46.0622281" lon="13.5696037"><ele>558.2</ele><time>2026-05-03T10:05:39.999Z</time></trkpt><trkpt lat="46.0622923" lon="13.5694747"><ele>557.6</ele><time>2026-05-03T10:05:40.995Z</time></trkpt><trkpt lat="46.0623531" lon="13.569339"><ele>557.0</ele><time>2026-05-03T10:05:41.99Z</time></trkpt><trkpt lat="46.0623942" lon="13.5691889"><ele>557.0</ele><time>2026-05-03T10:05:42.991Z</time></trkpt><trkpt lat="46.0624317" lon="13.5690424"><ele>557.0</ele><time>2026-05-03T10:05:43.995Z</time></trkpt><trkpt lat="46.0624591" lon="13.568901"><ele>557.0</ele><time>2026-05-03T10:05:45.004Z</time></trkpt><trkpt lat="46.0624973" lon="13.5687645"><ele>557.0</ele><time>2026-05-03T10:05:45.996Z</time></trkpt><trkpt lat="46.0625531" lon="13.5686098"><ele>557.0</ele><time>2026-05-03T10:05:46.986Z</time></trkpt><trkpt lat="46.0626222" lon="13.5684713"><ele>564.6</ele><time>2026-05-03T10:05:47.994Z</time></trkpt><trkpt lat="46.0626905" lon="13.568337"><ele>572.2</ele><time>2026-05-03T10:05:48.991Z</time></trkpt><trkpt lat="46.0627546" lon="13.5682039"><ele>579.8</ele><time>2026-05-03T10:05:49.99Z</time></trkpt><trkpt lat="46.0628006" lon="13.5680776"><ele>587.4</ele><time>2026-05-03T10:05:50.985Z</time></trkpt><trkpt lat="46.0628315" lon="13.5679638"><ele>595.0</ele><time>2026-05-03T10:05:51.998Z</time></trkpt><trkpt lat="46.062881" lon="13.5678258"><ele>595.0</ele><time>2026-05-03T10:05:53.992Z</time></trkpt><trkpt lat="46.0628722" lon="13.5679362"><ele>595.0</ele><time>2026-05-03T10:05:57.994Z</time></trkpt><trkpt lat="46.062842" lon="13.5680186"><ele>595.0</ele><time>2026-05-03T10:05:58.99Z</time></trkpt><trkpt lat="46.0628043" lon="13.56812"><ele>595.0</ele><time>2026-05-03T10:05:59.997Z</time></trkpt><trkpt lat="46.0627539" lon="13.5682518"><ele>595.0</ele><time>2026-05-03T10:06:01.005Z</time></trkpt><trkpt lat="46.0626955" lon="13.5683988"><ele>595.0</ele><time>2026-05-03T10:06:01.992Z</time></trkpt><trkpt lat="46.062644" lon="13.5685396"><ele>595.0</ele><time>2026-05-03T10:06:02.991Z</time></trkpt><trkpt lat="46.0626009" lon="13.5686741"><ele>595.0</ele><time>2026-05-03T10:06:03.986Z</time></trkpt><trkpt lat="46.0625681" lon="13.5688052"><ele>595.0</ele><time>2026-05-03T10:06:04.992Z</time></trkpt><trkpt lat="46.0625523" lon="13.5689471"><ele>595.0</ele><time>2026-05-03T10:06:05.991Z</time></trkpt><trkpt lat="46.0625438" lon="13.5691055"><ele>595.0</ele><time>2026-05-03T10:06:06.988Z</time></trkpt><trkpt lat="46.0625365" lon="13.5692874"><ele>595.0</ele><time>2026-05-03T10:06:07.998Z</time></trkpt><trkpt lat="46.0625308" lon="13.5694642"><ele>595.0</ele><time>2026-05-03T10:06:08.998Z</time></trkpt><trkpt lat="46.0625233" lon="13.5696111"><ele>595.0</ele><time>2026-05-03T10:06:09.992Z</time></trkpt><trkpt lat="46.06252" lon="13.5697474"><ele>595.0</ele><time>2026-05-03T10:06:10.991Z</time></trkpt><trkpt lat="46.0625294" lon="13.5698695"><ele>595.0</ele><time>2026-05-03T10:06:11.991Z</time></trkpt><trkpt lat="46.0625542" lon="13.5699759"><ele>595.0</ele><time>2026-05-03T10:06:12.992Z</time></trkpt><trkpt lat="46.062594" lon="13.570081"><ele>595.0</ele><time>2026-05-03T10:06:13.991Z</time></trkpt><trkpt lat="46.0626624" lon="13.5701588"><ele>595.0</ele><time>2026-05-03T10:06:14.996Z</time></trkpt><trkpt lat="46.0627606" lon="13.5702345"><ele>595.0</ele><time>2026-05-03T10:06:16.003Z</time></trkpt><trkpt lat="46.0628808" lon="13.5703055"><ele>595.0</ele><time>2026-05-03T10:06:16.993Z</time></trkpt><trkpt lat="46.0630192" lon="13.5703851"><ele>597.3333333333334</ele><time>2026-05-03T10:06:17.992Z</time></trkpt><trkpt lat="46.0631652" lon="13.5704542"><ele>599.6666666666666</ele><time>2026-05-03T10:06:18.99Z</time></trkpt><trkpt lat="46.0633136" lon="13.5705093"><ele>602.0</ele><time>2026-05-03T10:06:19.994Z</time></trkpt><trkpt lat="46.0634606" lon="13.5705566"><ele>602.0</ele><time>2026-05-03T10:06:20.995Z</time></trkpt><trkpt lat="46.0636038" lon="13.5706026"><ele>602.0</ele><time>2026-05-03T10:06:21.994Z</time></trkpt><trkpt lat="46.0637379" lon="13.5706412"><ele>602.0</ele><time>2026-05-03T10:06:22.994Z</time></trkpt><trkpt lat="46.063862" lon="13.5706753"><ele>602.0</ele><time>2026-05-03T10:06:23.996Z</time></trkpt><trkpt lat="46.0639826" lon="13.5707019"><ele>602.0</ele><time>2026-05-03T10:06:24.996Z</time></trkpt><trkpt lat="46.0640701" lon="13.5707264"><ele>602.0</ele><time>2026-05-03T10:06:26.004Z</time></trkpt><trkpt lat="46.0641314" lon="13.5707916"><ele>602.0</ele><time>2026-05-03T10:06:27.99Z</time></trkpt><trkpt lat="46.0641016" lon="13.5709301"><ele>602.0</ele><time>2026-05-03T10:06:30.991Z</time></trkpt><trkpt lat="46.0640465" lon="13.5709861"><ele>602.0</ele><time>2026-05-03T10:06:31.992Z</time></trkpt><trkpt lat="46.0639713" lon="13.571051"><ele>602.0</ele><time>2026-05-03T10:06:32.994Z</time></trkpt><trkpt lat="46.0638937" lon="13.5711264"><ele>604.25</ele><time>2026-05-03T10:06:33.99Z</time></trkpt><trkpt lat="46.0638228" lon="13.5712363"><ele>606.5</ele><time>2026-05-03T10:06:34.997Z</time></trkpt><trkpt lat="46.0637498" lon="13.5713578"><ele>608.75</ele><time>2026-05-03T10:06:35.992Z</time></trkpt><trkpt lat="46.0636874" lon="13.5715025"><ele>611.0</ele><time>2026-05-03T10:06:37Z</time></trkpt><trkpt lat="46.0636208" lon="13.5716489"><ele>611.0</ele><time>2026-05-03T10:06:37.994Z</time></trkpt><trkpt lat="46.0635506" lon="13.5718061"><ele>611.0</ele><time>2026-05-03T10:06:38.994Z</time></trkpt><trkpt lat="46.0634852" lon="13.5719572"><ele>611.0</ele><time>2026-05-03T10:06:39.998Z</time></trkpt><trkpt lat="46.0634252" lon="13.5721017"><ele>611.0</ele><time>2026-05-03T10:06:40.994Z</time></trkpt><trkpt lat="46.0633798" lon="13.5722143"><ele>612.3333333333333</ele><time>2026-05-03T10:06:41.999Z</time></trkpt><trkpt lat="46.0633564" lon="13.5723118"><ele>613.6666666666666</ele><time>2026-05-03T10:06:42.997Z</time></trkpt><trkpt lat="46.063352" lon="13.5724037"><ele>615.0</ele><time>2026-05-03T10:06:43.989Z</time></trkpt><trkpt lat="46.0633743" lon="13.5724944"><ele>616.3333333333334</ele><time>2026-05-03T10:06:44.997Z</time></trkpt><trkpt lat="46.0634236" lon="13.5725862"><ele>617.6666666666667</ele><time>2026-05-03T10:06:45.993Z</time></trkpt><trkpt lat="46.063478" lon="13.5726555"><ele>619.0</ele><time>2026-05-03T10:06:46.991Z</time></trkpt><trkpt lat="46.0635808" lon="13.5726784"><ele>619.0</ele><time>2026-05-03T10:06:48.996Z</time></trkpt><trkpt lat="46.0636277" lon="13.5725708"><ele>619.0</ele><time>2026-05-03T10:06:50.997Z</time></trkpt><trkpt lat="46.0636208" lon="13.5723908"><ele>619.0</ele><time>2026-05-03T10:06:53.005Z</time></trkpt><trkpt lat="46.0636463" lon="13.5722506"><ele>619.0</ele><time>2026-05-03T10:06:54.992Z</time></trkpt><trkpt lat="46.0636892" lon="13.5723623"><ele>619.0</ele><time>2026-05-03T10:06:58.995Z</time></trkpt><trkpt lat="46.0636999" lon="13.5725001"><ele>619.0</ele><time>2026-05-03T10:07:01.003Z</time></trkpt><trkpt lat="46.0637673" lon="13.5725367"><ele>619.0</ele><time>2026-05-03T10:07:02.998Z</time></trkpt><trkpt lat="46.063814" lon="13.5724398"><ele>619.0</ele><time>2026-05-03T10:07:04.995Z</time></trkpt><trkpt lat="46.0638209" lon="13.5722761"><ele>619.0</ele><time>2026-05-03T10:07:06.992Z</time></trkpt><trkpt lat="46.0638466" lon="13.5721903"><ele>619.0</ele><time>2026-05-03T10:07:07.99Z</time></trkpt><trkpt lat="46.0638923" lon="13.5720975"><ele>619.0</ele><time>2026-05-03T10:07:08.991Z</time></trkpt><trkpt lat="46.0639521" lon="13.5720092"><ele>617.6666666666667</ele><time>2026-05-03T10:07:09.987Z</time></trkpt><trkpt lat="46.0640127" lon="13.5719255"><ele>616.3333333333334</ele><time>2026-05-03T10:07:10.993Z</time></trkpt><trkpt lat="46.0640781" lon="13.5718322"><ele>615.0</ele><time>2026-05-03T10:07:12Z</time></trkpt><trkpt lat="46.0641377" lon="13.5717458"><ele>613.6666666666666</ele><time>2026-05-03T10:07:12.998Z</time></trkpt><trkpt lat="46.0641934" lon="13.5716587"><ele>612.3333333333333</ele><time>2026-05-03T10:07:14.004Z</time></trkpt><trkpt lat="46.0642516" lon="13.5715682"><ele>611.0</ele><time>2026-05-03T10:07:15Z</time></trkpt><trkpt lat="46.0643119" lon="13.5714752"><ele>613.6666666666666</ele><time>2026-05-03T10:07:15.991Z</time></trkpt><trkpt lat="46.0643741" lon="13.5714034"><ele>616.3333333333333</ele><time>2026-05-03T10:07:16.99Z</time></trkpt><trkpt lat="46.0644439" lon="13.5713544"><ele>619.0</ele><time>2026-05-03T10:07:17.991Z</time></trkpt><trkpt lat="46.0645182" lon="13.571322"><ele>621.6666666666666</ele><time>2026-05-03T10:07:18.997Z</time></trkpt><trkpt lat="46.0645946" lon="13.5712939"><ele>624.3333333333334</ele><time>2026-05-03T10:07:19.989Z</time></trkpt><trkpt lat="46.0646604" lon="13.5712459"><ele>627.0</ele><time>2026-05-03T10:07:20.99Z</time></trkpt><trkpt lat="46.0647118" lon="13.571188"><ele>627.0</ele><time>2026-05-03T10:07:21.998Z</time></trkpt><trkpt lat="46.0647895" lon="13.571087"><ele>627.0</ele><time>2026-05-03T10:07:23.99Z</time></trkpt><trkpt lat="46.0648313" lon="13.5711946"><ele>627.0</ele><time>2026-05-03T10:07:26.994Z</time></trkpt><trkpt lat="46.0647925" lon="13.5712746"><ele>627.0</ele><time>2026-05-03T10:07:27.991Z</time></trkpt><trkpt lat="46.064736" lon="13.5713662"><ele>627.0</ele><time>2026-05-03T10:07:28.994Z</time></trkpt><trkpt lat="46.0646712" lon="13.5714521"><ele>627.0</ele><time>2026-05-03T10:07:29.991Z</time></trkpt><trkpt lat="46.0646017" lon="13.5715169"><ele>628.8571428571429</ele><time>2026-05-03T10:07:30.99Z</time></trkpt><trkpt lat="46.0645294" lon="13.5715656"><ele>630.7142857142857</ele><time>2026-05-03T10:07:31.992Z</time></trkpt><trkpt lat="46.0644584" lon="13.5716063"><ele>632.5714285714286</ele><time>2026-05-03T10:07:32.991Z</time></trkpt><trkpt lat="46.0643985" lon="13.5716674"><ele>634.4285714285714</ele><time>2026-05-03T10:07:33.996Z</time></trkpt><trkpt lat="46.0643524" lon="13.5717429"><ele>636.2857142857143</ele><time>2026-05-03T10:07:34.992Z</time></trkpt><trkpt lat="46.0643237" lon="13.571828"><ele>638.1428571428571</ele><time>2026-05-03T10:07:36.001Z</time></trkpt><trkpt lat="46.0643093" lon="13.5719256"><ele>640.0</ele><time>2026-05-03T10:07:36.993Z</time></trkpt><trkpt lat="46.064324" lon="13.5720644"><ele>640.0</ele><time>2026-05-03T10:07:38.998Z</time></trkpt><trkpt lat="46.0644273" lon="13.5721059"><ele>640.0</ele><time>2026-05-03T10:07:40.992Z</time></trkpt><trkpt lat="46.0644962" lon="13.5720226"><ele>640.0</ele><time>2026-05-03T10:07:42.989Z</time></trkpt><trkpt lat="46.0645724" lon="13.5719318"><ele>640.0</ele><time>2026-05-03T10:07:44.99Z</time></trkpt><trkpt lat="46.0646163" lon="13.5720011"><ele>640.0</ele><time>2026-05-03T10:07:47.002Z</time></trkpt><trkpt lat="46.0646416" lon="13.5721381"><ele>645.0</ele><time>2026-05-03T10:07:48.989Z</time></trkpt><trkpt lat="46.0646682" lon="13.5722459"><ele>645.0</ele><time>2026-05-03T10:07:50.991Z</time></trkpt><trkpt lat="46.0646978" lon="13.5723308"><ele>645.0</ele><time>2026-05-03T10:07:52.988Z</time></trkpt><trkpt lat="46.0647302" lon="13.5724104"><ele>645.0</ele><time>2026-05-03T10:07:54.998Z</time></trkpt></trkseg><trkseg><trkpt lat="46.0647691" lon="13.5725799"><ele>645.0</ele><time>2026-05-03T10:32:31.98Z</time></trkpt><trkpt lat="46.0648623" lon="13.5726111"><ele>645.0</ele><time>2026-05-03T10:32:33.989Z</time></trkpt><trkpt lat="46.0649893" lon="13.572562"><ele>645.0</ele><time>2026-05-03T10:32:35.982Z</time></trkpt><trkpt lat="46.0650546" lon="13.572512"><ele>645.0</ele><time>2026-05-03T10:32:36.979Z</time></trkpt><trkpt lat="46.0651057" lon="13.5724425"><ele>645.0</ele><time>2026-05-03T10:32:37.988Z</time></trkpt><trkpt lat="46.0651344" lon="13.5723556"><ele>645.0</ele><time>2026-05-03T10:32:38.987Z</time></trkpt><trkpt lat="46.0651328" lon="13.5722486"><ele>646.6666666666666</ele><time>2026-05-03T10:32:39.983Z</time></trkpt><trkpt lat="46.0651139" lon="13.5721283"><ele>648.3333333333334</ele><time>2026-05-03T10:32:40.986Z</time></trkpt><trkpt lat="46.065087" lon="13.571997"><ele>650.0</ele><time>2026-05-03T10:32:41.98Z</time></trkpt><trkpt lat="46.0650636" lon="13.5718724"><ele>651.6666666666667</ele><time>2026-05-03T10:32:42.984Z</time></trkpt><trkpt lat="46.0650426" lon="13.5717547"><ele>653.3333333333334</ele><time>2026-05-03T10:32:43.985Z</time></trkpt><trkpt lat="46.0650398" lon="13.571663"><ele>655.0</ele><time>2026-05-03T10:32:44.982Z</time></trkpt><trkpt lat="46.0650984" lon="13.5715946"><ele>655.75</ele><time>2026-05-03T10:32:46.981Z</time></trkpt><trkpt lat="46.0652198" lon="13.5717089"><ele>656.5</ele><time>2026-05-03T10:32:48.98Z</time></trkpt><trkpt lat="46.0653166" lon="13.5717991"><ele>657.25</ele><time>2026-05-03T10:32:49.981Z</time></trkpt><trkpt lat="46.0654118" lon="13.571883"><ele>658.0</ele><time>2026-05-03T10:32:50.983Z</time></trkpt><trkpt lat="46.0654995" lon="13.5719481"><ele>658.0</ele><time>2026-05-03T10:32:51.982Z</time></trkpt><trkpt lat="46.0655696" lon="13.5719799"><ele>658.0</ele><time>2026-05-03T10:32:52.983Z</time></trkpt><trkpt lat="46.0656545" lon="13.5719249"><ele>658.0</ele><time>2026-05-03T10:32:54.981Z</time></trkpt><trkpt lat="46.0655323" lon="13.5717815"><ele>658.0</ele><time>2026-05-03T10:32:56.995Z</time></trkpt><trkpt lat="46.0654216" lon="13.5717009"><ele>658.0</ele><time>2026-05-03T10:32:57.974Z</time></trkpt><trkpt lat="46.0653392" lon="13.5716178"><ele>658.0</ele><time>2026-05-03T10:32:58.974Z</time></trkpt><trkpt lat="46.0652835" lon="13.5715366"><ele>658.0</ele><time>2026-05-03T10:32:59.986Z</time></trkpt><trkpt lat="46.0653031" lon="13.5714207"><ele>658.0</ele><time>2026-05-03T10:33:01.99Z</time></trkpt><trkpt lat="46.0653673" lon="13.5714361"><ele>658.0</ele><time>2026-05-03T10:33:02.98Z</time></trkpt><trkpt lat="46.0654662" lon="13.5714987"><ele>658.0</ele><time>2026-05-03T10:33:03.978Z</time></trkpt><trkpt lat="46.0656035" lon="13.5715797"><ele>658.0</ele><time>2026-05-03T10:33:04.977Z</time></trkpt><trkpt lat="46.0657692" lon="13.5716792"><ele>658.0</ele><time>2026-05-03T10:33:05.987Z</time></trkpt><trkpt lat="46.06597" lon="13.5717897"><ele>658.0</ele><time>2026-05-03T10:33:06.975Z</time></trkpt><trkpt lat="46.0661283" lon="13.5718703"><ele>663.5</ele><time>2026-05-03T10:33:07.983Z</time></trkpt><trkpt lat="46.0662634" lon="13.5718999"><ele>669.0</ele><time>2026-05-03T10:33:08.978Z</time></trkpt><trkpt lat="46.066417" lon="13.5718893"><ele>674.5</ele><time>2026-05-03T10:33:09.98Z</time></trkpt><trkpt lat="46.0665502" lon="13.5718443"><ele>680.0</ele><time>2026-05-03T10:33:10.988Z</time></trkpt><trkpt lat="46.0666678" lon="13.5718096"><ele>683.0</ele><time>2026-05-03T10:33:11.978Z</time></trkpt><trkpt lat="46.0667634" lon="13.5717741"><ele>686.0</ele><time>2026-05-03T10:33:12.975Z</time></trkpt><trkpt lat="46.0668439" lon="13.5716977"><ele>689.0</ele><time>2026-05-03T10:33:13.985Z</time></trkpt><trkpt lat="46.0669143" lon="13.5715909"><ele>692.0</ele><time>2026-05-03T10:33:14.984Z</time></trkpt><trkpt lat="46.0669918" lon="13.5715583"><ele>695.0</ele><time>2026-05-03T10:33:15.98Z</time></trkpt><trkpt lat="46.0670634" lon="13.571579"><ele>695.0</ele><time>2026-05-03T10:33:16.979Z</time></trkpt><trkpt lat="46.0671484" lon="13.5716752"><ele>695.0</ele><time>2026-05-03T10:33:17.984Z</time></trkpt><trkpt lat="46.0672417" lon="13.5717705"><ele>695.0</ele><time>2026-05-03T10:33:18.98Z</time></trkpt><trkpt lat="46.0673502" lon="13.5718587"><ele>695.0</ele><time>2026-05-03T10:33:19.986Z</time></trkpt><trkpt lat="46.0674728" lon="13.5719453"><ele>694.0</ele><time>2026-05-03T10:33:20.982Z</time></trkpt><trkpt lat="46.0675965" lon="13.5720399"><ele>693.0</ele><time>2026-05-03T10:33:21.984Z</time></trkpt><trkpt lat="46.0677264" lon="13.5721333"><ele>692.0</ele><time>2026-05-03T10:33:22.996Z</time></trkpt><trkpt lat="46.0678581" lon="13.5722097"><ele>691.0</ele><time>2026-05-03T10:33:23.985Z</time></trkpt><trkpt lat="46.0679763" lon="13.5722957"><ele>691.0</ele><time>2026-05-03T10:33:24.977Z</time></trkpt><trkpt lat="46.0680952" lon="13.5723742"><ele>691.0</ele><time>2026-05-03T10:33:25.983Z</time></trkpt><trkpt lat="46.0681723" lon="13.5724718"><ele>691.0</ele><time>2026-05-03T10:33:26.98Z</time></trkpt><trkpt lat="46.0682303" lon="13.572594"><ele>691.0</ele><time>2026-05-03T10:33:27.98Z</time></trkpt><trkpt lat="46.0682699" lon="13.5727348"><ele>691.0</ele><time>2026-05-03T10:33:28.99Z</time></trkpt><trkpt lat="46.0682899" lon="13.5728922"><ele>692.0</ele><time>2026-05-03T10:33:29.985Z</time></trkpt><trkpt lat="46.0683007" lon="13.5730493"><ele>693.0</ele><time>2026-05-03T10:33:30.981Z</time></trkpt><trkpt lat="46.0682834" lon="13.5731895"><ele>694.0</ele><time>2026-05-03T10:33:31.978Z</time></trkpt><trkpt lat="46.0682654" lon="13.5733312"><ele>695.0</ele><time>2026-05-03T10:33:32.98Z</time></trkpt><trkpt lat="46.0682274" lon="13.5734665"><ele>696.0</ele><time>2026-05-03T10:33:33.985Z</time></trkpt><trkpt lat="46.0681849" lon="13.5735948"><ele>697.8333333333334</ele><time>2026-05-03T10:33:34.978Z</time></trkpt><trkpt lat="46.0681493" lon="13.5737137"><ele>699.6666666666666</ele><time>2026-05-03T10:33:35.987Z</time></trkpt><trkpt lat="46.0681377" lon="13.5738401"><ele>701.5</ele><time>2026-05-03T10:33:36.987Z</time></trkpt><trkpt lat="46.0681469" lon="13.5739714"><ele>703.3333333333333</ele><time>2026-05-03T10:33:37.985Z</time></trkpt><trkpt lat="46.0681723" lon="13.5740927"><ele>705.1666666666666</ele><time>2026-05-03T10:33:38.98Z</time></trkpt><trkpt lat="46.06821" lon="13.5741855"><ele>707.0</ele><time>2026-05-03T10:33:39.975Z</time></trkpt><trkpt lat="46.0683099" lon="13.5742049"><ele>709.0</ele><time>2026-05-03T10:33:41.985Z</time></trkpt><trkpt lat="46.0683512" lon="13.5740765"><ele>711.0</ele><time>2026-05-03T10:33:43.98Z</time></trkpt><trkpt lat="46.0683495" lon="13.5739696"><ele>713.0</ele><time>2026-05-03T10:33:44.981Z</time></trkpt><trkpt lat="46.0683632" lon="13.5738392"><ele>715.0</ele><time>2026-05-03T10:33:45.975Z</time></trkpt><trkpt lat="46.0683918" lon="13.5737288"><ele>717.0</ele><time>2026-05-03T10:33:46.995Z</time></trkpt><trkpt lat="46.0684681" lon="13.5736739"><ele>719.0</ele><time>2026-05-03T10:33:48.977Z</time></trkpt><trkpt lat="46.0685177" lon="13.5738495"><ele>719.5</ele><time>2026-05-03T10:33:50.977Z</time></trkpt><trkpt lat="46.0685361" lon="13.5739585"><ele>720.0</ele><time>2026-05-03T10:33:51.983Z</time></trkpt><trkpt lat="46.0685639" lon="13.5740465"><ele>720.5</ele><time>2026-05-03T10:33:52.977Z</time></trkpt><trkpt lat="46.0686408" lon="13.5741281"><ele>721.0</ele><time>2026-05-03T10:33:54.985Z</time></trkpt><trkpt lat="46.0686874" lon="13.5740646"><ele>721.5</ele><time>2026-05-03T10:33:56.978Z</time></trkpt><trkpt lat="46.0686658" lon="13.5739033"><ele>722.0</ele><time>2026-05-03T10:33:58.983Z</time></trkpt><trkpt lat="46.0686511" lon="13.5738019"><ele>721.4000000000001</ele><time>2026-05-03T10:33:59.98Z</time></trkpt><trkpt lat="46.0686494" lon="13.5736815"><ele>720.8000000000001</ele><time>2026-05-03T10:34:00.983Z</time></trkpt><trkpt lat="46.0686436" lon="13.573549"><ele>720.2</ele><time>2026-05-03T10:34:01.977Z</time></trkpt><trkpt lat="46.0686395" lon="13.573404"><ele>719.6</ele><time>2026-05-03T10:34:02.982Z</time></trkpt><trkpt lat="46.0686355" lon="13.5732462"><ele>719.0</ele><time>2026-05-03T10:34:03.98Z</time></trkpt><trkpt lat="46.0686404" lon="13.5730748"><ele>719.0</ele><time>2026-05-03T10:34:04.985Z</time></trkpt><trkpt lat="46.0686459" lon="13.5729039"><ele>719.0</ele><time>2026-05-03T10:34:05.981Z</time></trkpt><trkpt lat="46.0686516" lon="13.5727347"><ele>719.0</ele><time>2026-05-03T10:34:06.981Z</time></trkpt><trkpt lat="46.0686475" lon="13.5725682"><ele>719.0</ele><time>2026-05-03T10:34:07.976Z</time></trkpt><trkpt lat="46.0686412" lon="13.572413"><ele>718.3333333333333</ele><time>2026-05-03T10:34:08.988Z</time></trkpt><trkpt lat="46.0686192" lon="13.572263"><ele>717.6666666666666</ele><time>2026-05-03T10:34:09.981Z</time></trkpt><trkpt lat="46.0685998" lon="13.5721291"><ele>717.0</ele><time>2026-05-03T10:34:10.977Z</time></trkpt><trkpt lat="46.0685835" lon="13.5720134"><ele>716.3333333333334</ele><time>2026-05-03T10:34:11.982Z</time></trkpt><trkpt lat="46.0685766" lon="13.5719071"><ele>715.6666666666667</ele><time>2026-05-03T10:34:12.988Z</time></trkpt><trkpt lat="46.0685871" lon="13.5718152"><ele>715.0</ele><time>2026-05-03T10:34:13.983Z</time></trkpt><trkpt lat="46.0686205" lon="13.5717342"><ele>717.0</ele><time>2026-05-03T10:34:14.977Z</time></trkpt><trkpt lat="46.0686633" lon="13.571653"><ele>719.0</ele><time>2026-05-03T10:34:15.981Z</time></trkpt><trkpt lat="46.0687247" lon="13.5715039"><ele>721.0</ele><time>2026-05-03T10:34:17.978Z</time></trkpt><trkpt lat="46.0687205" lon="13.5714101"><ele>723.0</ele><time>2026-05-03T10:34:18.977Z</time></trkpt><trkpt lat="46.0686868" lon="13.5713004"><ele>725.0</ele><time>2026-05-03T10:34:19.971Z</time></trkpt><trkpt lat="46.0686392" lon="13.5711836"><ele>727.0</ele><time>2026-05-03T10:34:20.986Z</time></trkpt><trkpt lat="46.0685931" lon="13.571058"><ele>728.6</ele><time>2026-05-03T10:34:21.98Z</time></trkpt><trkpt lat="46.0685493" lon="13.5709272"><ele>730.2</ele><time>2026-05-03T10:34:22.984Z</time></trkpt><trkpt lat="46.0685249" lon="13.5707835"><ele>731.8</ele><time>2026-05-03T10:34:23.99Z</time></trkpt><trkpt lat="46.0685073" lon="13.570629"><ele>733.4</ele><time>2026-05-03T10:34:24.976Z</time></trkpt><trkpt lat="46.0685072" lon="13.5704679"><ele>735.0</ele><time>2026-05-03T10:34:25.976Z</time></trkpt><trkpt lat="46.0685349" lon="13.5703055"><ele>735.0</ele><time>2026-05-03T10:34:26.985Z</time></trkpt><trkpt lat="46.0685719" lon="13.5701464"><ele>735.0</ele><time>2026-05-03T10:34:27.983Z</time></trkpt><trkpt lat="46.0686008" lon="13.5699952"><ele>735.0</ele><time>2026-05-03T10:34:28.983Z</time></trkpt><trkpt lat="46.0686136" lon="13.5698471"><ele>735.0</ele><time>2026-05-03T10:34:29.986Z</time></trkpt><trkpt lat="46.0685887" lon="13.5696847"><ele>735.0</ele><time>2026-05-03T10:34:30.987Z</time></trkpt><trkpt lat="46.0685296" lon="13.5695076"><ele>734.5</ele><time>2026-05-03T10:34:31.983Z</time></trkpt><trkpt lat="46.068463" lon="13.5693378"><ele>734.0</ele><time>2026-05-03T10:34:32.977Z</time></trkpt><trkpt lat="46.0683942" lon="13.5691636"><ele>733.5</ele><time>2026-05-03T10:34:33.989Z</time></trkpt><trkpt lat="46.0683187" lon="13.5689919"><ele>733.0</ele><time>2026-05-03T10:34:34.984Z</time></trkpt><trkpt lat="46.0682412" lon="13.5688301"><ele>732.0</ele><time>2026-05-03T10:34:35.991Z</time></trkpt><trkpt lat="46.0681764" lon="13.5686744"><ele>731.0</ele><time>2026-05-03T10:34:36.987Z</time></trkpt><trkpt lat="46.0681202" lon="13.5685159"><ele>730.0</ele><time>2026-05-03T10:34:37.983Z</time></trkpt><trkpt lat="46.0680818" lon="13.5683674"><ele>729.0</ele><time>2026-05-03T10:34:38.981Z</time></trkpt><trkpt lat="46.0680698" lon="13.5682386"><ele>729.0</ele><time>2026-05-03T10:34:39.973Z</time></trkpt><trkpt lat="46.0681054" lon="13.5681537"><ele>729.0</ele><time>2026-05-03T10:34:40.984Z</time></trkpt><trkpt lat="46.0681913" lon="13.5680916"><ele>729.0</ele><time>2026-05-03T10:34:41.982Z</time></trkpt><trkpt lat="46.0682841" lon="13.5680079"><ele>729.0</ele><time>2026-05-03T10:34:42.979Z</time></trkpt><trkpt lat="46.0683791" lon="13.5679216"><ele>729.0</ele><time>2026-05-03T10:34:43.986Z</time></trkpt><trkpt lat="46.0684289" lon="13.5678036"><ele>730.4000000000001</ele><time>2026-05-03T10:34:44.975Z</time></trkpt><trkpt lat="46.0684793" lon="13.5676543"><ele>731.8</ele><time>2026-05-03T10:34:46.003Z</time></trkpt><trkpt lat="46.0685441" lon="13.5675173"><ele>733.2</ele><time>2026-05-03T10:34:46.982Z</time></trkpt><trkpt lat="46.0686094" lon="13.5674318"><ele>734.5999999999999</ele><time>2026-05-03T10:34:47.979Z</time></trkpt><trkpt lat="46.068693" lon="13.5673611"><ele>736.0</ele><time>2026-05-03T10:34:49.98Z</time></trkpt><trkpt lat="46.0687793" lon="13.5672444"><ele>736.0</ele><time>2026-05-03T10:34:51.973Z</time></trkpt><trkpt lat="46.0688426" lon="13.5671607"><ele>736.0</ele><time>2026-05-03T10:34:52.981Z</time></trkpt><trkpt lat="46.0689093" lon="13.5670712"><ele>736.0</ele><time>2026-05-03T10:34:53.978Z</time></trkpt><trkpt lat="46.0689736" lon="13.566964"><ele>736.0</ele><time>2026-05-03T10:34:54.981Z</time></trkpt><trkpt lat="46.0690329" lon="13.5668471"><ele>736.0</ele><time>2026-05-03T10:34:55.978Z</time></trkpt><trkpt lat="46.069077" lon="13.5667146"><ele>735.6666666666667</ele><time>2026-05-03T10:34:56.988Z</time></trkpt><trkpt lat="46.0691039" lon="13.56658"><ele>735.3333333333334</ele><time>2026-05-03T10:34:57.981Z</time></trkpt><trkpt lat="46.0691132" lon="13.5664451"><ele>735.0</ele><time>2026-05-03T10:34:58.976Z</time></trkpt><trkpt lat="46.069106" lon="13.5663188"><ele>734.6666666666666</ele><time>2026-05-03T10:34:59.99Z</time></trkpt><trkpt lat="46.0690783" lon="13.5662032"><ele>734.3333333333333</ele><time>2026-05-03T10:35:00.981Z</time></trkpt><trkpt lat="46.0690397" lon="13.5661096"><ele>734.0</ele><time>2026-05-03T10:35:01.978Z</time></trkpt><trkpt lat="46.0689914" lon="13.566031"><ele>734.0</ele><time>2026-05-03T10:35:02.978Z</time></trkpt><trkpt lat="46.0689295" lon="13.5659553"><ele>734.0</ele><time>2026-05-03T10:35:03.985Z</time></trkpt><trkpt lat="46.0688615" lon="13.5658884"><ele>734.0</ele><time>2026-05-03T10:35:04.983Z</time></trkpt><trkpt lat="46.0687998" lon="13.565821"><ele>734.0</ele><time>2026-05-03T10:35:05.982Z</time></trkpt><trkpt lat="46.0687434" lon="13.5657565"><ele>734.0</ele><time>2026-05-03T10:35:06.988Z</time></trkpt><trkpt lat="46.0686832" lon="13.5657117"><ele>734.0</ele><time>2026-05-03T10:35:07.994Z</time></trkpt><trkpt lat="46.0685663" lon="13.565697"><ele>734.0</ele><time>2026-05-03T10:35:09.98Z</time></trkpt><trkpt lat="46.0685034" lon="13.5657314"><ele>734.0</ele><time>2026-05-03T10:35:10.974Z</time></trkpt><trkpt lat="46.068442" lon="13.565778"><ele>734.0</ele><time>2026-05-03T10:35:11.982Z</time></trkpt><trkpt lat="46.0683864" lon="13.5658241"><ele>734.0</ele><time>2026-05-03T10:35:12.982Z</time></trkpt><trkpt lat="46.0682883" lon="13.5659034"><ele>734.0</ele><time>2026-05-03T10:35:14.988Z</time></trkpt><trkpt lat="46.0681677" lon="13.565976"><ele>734.0</ele><time>2026-05-03T10:35:16.975Z</time></trkpt><trkpt lat="46.0680983" lon="13.5660111"><ele>736.0</ele><time>2026-05-03T10:35:17.979Z</time></trkpt><trkpt lat="46.0680204" lon="13.5660532"><ele>738.0</ele><time>2026-05-03T10:35:18.979Z</time></trkpt><trkpt lat="46.06794" lon="13.5661094"><ele>740.0</ele><time>2026-05-03T10:35:19.993Z</time></trkpt><trkpt lat="46.0678553" lon="13.566153"><ele>742.0</ele><time>2026-05-03T10:35:20.978Z</time></trkpt><trkpt lat="46.0677596" lon="13.5661846"><ele>744.0</ele><time>2026-05-03T10:35:21.986Z</time></trkpt><trkpt lat="46.0676498" lon="13.5661908"><ele>744.0</ele><time>2026-05-03T10:35:22.979Z</time></trkpt><trkpt lat="46.0675458" lon="13.5661712"><ele>744.0</ele><time>2026-05-03T10:35:23.989Z</time></trkpt><trkpt lat="46.0674638" lon="13.5661186"><ele>744.0</ele><time>2026-05-03T10:35:24.977Z</time></trkpt><trkpt lat="46.0673981" lon="13.5660471"><ele>744.0</ele><time>2026-05-03T10:35:25.976Z</time></trkpt><trkpt lat="46.0673562" lon="13.5659604"><ele>744.0</ele><time>2026-05-03T10:35:26.981Z</time></trkpt><trkpt lat="46.0673588" lon="13.5658451"><ele>744.0</ele><time>2026-05-03T10:35:27.988Z</time></trkpt><trkpt lat="46.067392" lon="13.5656923"><ele>745.25</ele><time>2026-05-03T10:35:28.975Z</time></trkpt><trkpt lat="46.0673943" lon="13.5655561"><ele>746.5</ele><time>2026-05-03T10:35:29.984Z</time></trkpt><trkpt lat="46.0674502" lon="13.5653452"><ele>747.75</ele><time>2026-05-03T10:35:30.987Z</time></trkpt><trkpt lat="46.0675028" lon="13.5651435"><ele>749.0</ele><time>2026-05-03T10:35:31.976Z</time></trkpt><trkpt lat="46.0675484" lon="13.5649572"><ele>749.0</ele><time>2026-05-03T10:35:32.983Z</time></trkpt><trkpt lat="46.0675455" lon="13.5648061"><ele>749.0</ele><time>2026-05-03T10:35:33.976Z</time></trkpt><trkpt lat="46.0675219" lon="13.5646642"><ele>749.0</ele><time>2026-05-03T10:35:34.98Z</time></trkpt><trkpt lat="46.0675084" lon="13.5645475"><ele>749.0</ele><time>2026-05-03T10:35:35.978Z</time></trkpt><trkpt lat="46.0675275" lon="13.5644401"><ele>749.0</ele><time>2026-05-03T10:35:36.987Z</time></trkpt><trkpt lat="46.0675875" lon="13.564327"><ele>751.25</ele><time>2026-05-03T10:35:37.978Z</time></trkpt><trkpt lat="46.0676741" lon="13.5642129"><ele>753.5</ele><time>2026-05-03T10:35:38.977Z</time></trkpt><trkpt lat="46.0677657" lon="13.5641001"><ele>755.75</ele><time>2026-05-03T10:35:39.988Z</time></trkpt><trkpt lat="46.06786" lon="13.5639809"><ele>758.0</ele><time>2026-05-03T10:35:40.971Z</time></trkpt><trkpt lat="46.0679556" lon="13.5638519"><ele>758.0</ele><time>2026-05-03T10:35:41.979Z</time></trkpt><trkpt lat="46.0680461" lon="13.5637203"><ele>758.0</ele><time>2026-05-03T10:35:42.985Z</time></trkpt><trkpt lat="46.0681389" lon="13.5635891"><ele>758.0</ele><time>2026-05-03T10:35:43.98Z</time></trkpt><trkpt lat="46.0682076" lon="13.5634395"><ele>758.0</ele><time>2026-05-03T10:35:44.982Z</time></trkpt><trkpt lat="46.0682592" lon="13.5632738"><ele>755.75</ele><time>2026-05-03T10:35:45.974Z</time></trkpt><trkpt lat="46.0682956" lon="13.5630944"><ele>753.5</ele><time>2026-05-03T10:35:46.979Z</time></trkpt><trkpt lat="46.068338" lon="13.562928"><ele>751.25</ele><time>2026-05-03T10:35:47.985Z</time></trkpt><trkpt lat="46.0683818" lon="13.5627723"><ele>749.0</ele><time>2026-05-03T10:35:48.978Z</time></trkpt><trkpt lat="46.0684261" lon="13.5626063"><ele>749.0</ele><time>2026-05-03T10:35:49.983Z</time></trkpt><trkpt lat="46.0684722" lon="13.5624415"><ele>749.0</ele><time>2026-05-03T10:35:50.976Z</time></trkpt><trkpt lat="46.0685143" lon="13.5622841"><ele>749.0</ele><time>2026-05-03T10:35:51.981Z</time></trkpt><trkpt lat="46.0685588" lon="13.5621263"><ele>749.0</ele><time>2026-05-03T10:35:52.989Z</time></trkpt><trkpt lat="46.0685956" lon="13.5619579"><ele>750.5</ele><time>2026-05-03T10:35:53.974Z</time></trkpt><trkpt lat="46.0686369" lon="13.5617821"><ele>752.0</ele><time>2026-05-03T10:35:54.976Z</time></trkpt><trkpt lat="46.0686764" lon="13.5615995"><ele>753.5</ele><time>2026-05-03T10:35:55.98Z</time></trkpt><trkpt lat="46.0687066" lon="13.5614172"><ele>755.0</ele><time>2026-05-03T10:35:56.978Z</time></trkpt><trkpt lat="46.0687286" lon="13.5612301"><ele>755.5</ele><time>2026-05-03T10:35:57.99Z</time></trkpt><trkpt lat="46.0687485" lon="13.5610346"><ele>756.0</ele><time>2026-05-03T10:35:58.982Z</time></trkpt><trkpt lat="46.0687597" lon="13.5608309"><ele>756.5</ele><time>2026-05-03T10:35:59.975Z</time></trkpt><trkpt lat="46.0687678" lon="13.5606285"><ele>757.0</ele><time>2026-05-03T10:36:00.98Z</time></trkpt><trkpt lat="46.0687703" lon="13.5604237"><ele>756.5</ele><time>2026-05-03T10:36:01.973Z</time></trkpt><trkpt lat="46.0687749" lon="13.5602281"><ele>756.0</ele><time>2026-05-03T10:36:02.985Z</time></trkpt><trkpt lat="46.0687842" lon="13.5600375"><ele>755.5</ele><time>2026-05-03T10:36:03.98Z</time></trkpt><trkpt lat="46.0688078" lon="13.5598422"><ele>755.0</ele><time>2026-05-03T10:36:04.989Z</time></trkpt><trkpt lat="46.0688339" lon="13.5596519"><ele>754.0</ele><time>2026-05-03T10:36:05.987Z</time></trkpt><trkpt lat="46.0688594" lon="13.5594635"><ele>753.0</ele><time>2026-05-03T10:36:06.978Z</time></trkpt><trkpt lat="46.0688901" lon="13.559278"><ele>752.0</ele><time>2026-05-03T10:36:07.98Z</time></trkpt><trkpt lat="46.0689092" lon="13.559111"><ele>751.0</ele><time>2026-05-03T10:36:08.976Z</time></trkpt><trkpt lat="46.0689155" lon="13.5589554"><ele>751.0</ele><time>2026-05-03T10:36:09.985Z</time></trkpt><trkpt lat="46.0689124" lon="13.5588043"><ele>751.0</ele><time>2026-05-03T10:36:10.976Z</time></trkpt><trkpt lat="46.068892" lon="13.5586482"><ele>751.0</ele><time>2026-05-03T10:36:11.979Z</time></trkpt><trkpt lat="46.0688604" lon="13.5584963"><ele>751.0</ele><time>2026-05-03T10:36:12.982Z</time></trkpt><trkpt lat="46.0688427" lon="13.5583385"><ele>751.0</ele><time>2026-05-03T10:36:13.98Z</time></trkpt><trkpt lat="46.0688521" lon="13.558177"><ele>750.5</ele><time>2026-05-03T10:36:14.978Z</time></trkpt><trkpt lat="46.0688672" lon="13.5580033"><ele>750.0</ele><time>2026-05-03T10:36:15.983Z</time></trkpt><trkpt lat="46.0688906" lon="13.5578161"><ele>749.5</ele><time>2026-05-03T10:36:16.974Z</time></trkpt><trkpt lat="46.0689257" lon="13.5576313"><ele>749.0</ele><time>2026-05-03T10:36:17.971Z</time></trkpt><trkpt lat="46.0689789" lon="13.5574353"><ele>748.75</ele><time>2026-05-03T10:36:18.98Z</time></trkpt><trkpt lat="46.06904" lon="13.5572452"><ele>748.5</ele><time>2026-05-03T10:36:20.004Z</time></trkpt><trkpt lat="46.0690997" lon="13.5570601"><ele>748.25</ele><time>2026-05-03T10:36:20.977Z</time></trkpt><trkpt lat="46.069162" lon="13.55687"><ele>748.0</ele><time>2026-05-03T10:36:21.975Z</time></trkpt><trkpt lat="46.0692251" lon="13.5566796"><ele>738.5</ele><time>2026-05-03T10:36:22.994Z</time></trkpt><trkpt lat="46.0692816" lon="13.5564781"><ele>729.0</ele><time>2026-05-03T10:36:23.973Z</time></trkpt><trkpt lat="46.0693129" lon="13.5562791"><ele>719.5</ele><time>2026-05-03T10:36:24.975Z</time></trkpt><trkpt lat="46.06933" lon="13.556089"><ele>710.0</ele><time>2026-05-03T10:36:25.975Z</time></trkpt><trkpt lat="46.0693646" lon="13.5558837"><ele>710.0</ele><time>2026-05-03T10:36:26.977Z</time></trkpt><trkpt lat="46.0694003" lon="13.5556704"><ele>710.0</ele><time>2026-05-03T10:36:27.979Z</time></trkpt><trkpt lat="46.0694523" lon="13.5554572"><ele>710.0</ele><time>2026-05-03T10:36:28.985Z</time></trkpt><trkpt lat="46.0695192" lon="13.5552684"><ele>709.5</ele><time>2026-05-03T10:36:29.985Z</time></trkpt><trkpt lat="46.0695666" lon="13.5550971"><ele>709.0</ele><time>2026-05-03T10:36:30.975Z</time></trkpt><trkpt lat="46.0696317" lon="13.5549161"><ele>708.5</ele><time>2026-05-03T10:36:31.989Z</time></trkpt><trkpt lat="46.0696867" lon="13.5547326"><ele>708.0</ele><time>2026-05-03T10:36:32.979Z</time></trkpt><trkpt lat="46.0697371" lon="13.5545726"><ele>708.5</ele><time>2026-05-03T10:36:33.976Z</time></trkpt><trkpt lat="46.0697721" lon="13.5544034"><ele>709.0</ele><time>2026-05-03T10:36:34.981Z</time></trkpt><trkpt lat="46.0697947" lon="13.5542116"><ele>709.5</ele><time>2026-05-03T10:36:35.975Z</time></trkpt><trkpt lat="46.0698127" lon="13.5540133"><ele>710.0</ele><time>2026-05-03T10:36:36.985Z</time></trkpt><trkpt lat="46.0698238" lon="13.5538245"><ele>710.25</ele><time>2026-05-03T10:36:37.985Z</time></trkpt><trkpt lat="46.0698574" lon="13.5536383"><ele>710.5</ele><time>2026-05-03T10:36:38.975Z</time></trkpt><trkpt lat="46.0698944" lon="13.5534692"><ele>710.75</ele><time>2026-05-03T10:36:39.974Z</time></trkpt><trkpt lat="46.0699133" lon="13.5533136"><ele>711.0</ele><time>2026-05-03T10:36:40.991Z</time></trkpt><trkpt lat="46.0699253" lon="13.5531466"><ele>711.0</ele><time>2026-05-03T10:36:41.981Z</time></trkpt><trkpt lat="46.0699271" lon="13.5529821"><ele>711.0</ele><time>2026-05-03T10:36:42.978Z</time></trkpt><trkpt lat="46.0699342" lon="13.5528115"><ele>711.0</ele><time>2026-05-03T10:36:43.978Z</time></trkpt><trkpt lat="46.0699489" lon="13.5526285"><ele>711.0</ele><time>2026-05-03T10:36:44.979Z</time></trkpt><trkpt lat="46.0699822" lon="13.5524371"><ele>704.25</ele><time>2026-05-03T10:36:45.981Z</time></trkpt><trkpt lat="46.070033" lon="13.5522427"><ele>697.5</ele><time>2026-05-03T10:36:46.982Z</time></trkpt><trkpt lat="46.070085" lon="13.5520572"><ele>690.75</ele><time>2026-05-03T10:36:47.981Z</time></trkpt><trkpt lat="46.0701383" lon="13.5518804"><ele>684.0</ele><time>2026-05-03T10:36:48.976Z</time></trkpt><trkpt lat="46.0701672" lon="13.5517205"><ele>684.0</ele><time>2026-05-03T10:36:49.986Z</time></trkpt><trkpt lat="46.0701765" lon="13.5515754"><ele>684.0</ele><time>2026-05-03T10:36:50.978Z</time></trkpt><trkpt lat="46.070176" lon="13.5514417"><ele>684.0</ele><time>2026-05-03T10:36:51.979Z</time></trkpt><trkpt lat="46.0701541" lon="13.5512786"><ele>684.0</ele><time>2026-05-03T10:36:52.97Z</time></trkpt><trkpt lat="46.0701089" lon="13.5511032"><ele>684.0</ele><time>2026-05-03T10:36:53.972Z</time></trkpt><trkpt lat="46.0700608" lon="13.5509454"><ele>683.4000000000001</ele><time>2026-05-03T10:36:54.982Z</time></trkpt><trkpt lat="46.0700122" lon="13.5508229"><ele>682.8</ele><time>2026-05-03T10:36:55.978Z</time></trkpt><trkpt lat="46.0699599" lon="13.550709"><ele>682.2</ele><time>2026-05-03T10:36:56.978Z</time></trkpt><trkpt lat="46.0698942" lon="13.5506087"><ele>681.5999999999999</ele><time>2026-05-03T10:36:57.986Z</time></trkpt><trkpt lat="46.0698187" lon="13.5505071"><ele>681.0</ele><time>2026-05-03T10:36:58.979Z</time></trkpt><trkpt lat="46.0697384" lon="13.5504075"><ele>678.25</ele><time>2026-05-03T10:36:59.985Z</time></trkpt><trkpt lat="46.0696505" lon="13.5503089"><ele>675.5</ele><time>2026-05-03T10:37:00.982Z</time></trkpt><trkpt lat="46.0695224" lon="13.5502134"><ele>672.75</ele><time>2026-05-03T10:37:01.978Z</time></trkpt><trkpt lat="46.0693956" lon="13.550115"><ele>670.0</ele><time>2026-05-03T10:37:02.983Z</time></trkpt><trkpt lat="46.0692717" lon="13.5500125"><ele>670.0</ele><time>2026-05-03T10:37:03.973Z</time></trkpt><trkpt lat="46.0691441" lon="13.5499142"><ele>670.0</ele><time>2026-05-03T10:37:04.984Z</time></trkpt><trkpt lat="46.0690315" lon="13.5497992"><ele>670.0</ele><time>2026-05-03T10:37:05.985Z</time></trkpt><trkpt lat="46.0689116" lon="13.5496751"><ele>670.0</ele><time>2026-05-03T10:37:06.979Z</time></trkpt><trkpt lat="46.0687966" lon="13.5495548"><ele>664.75</ele><time>2026-05-03T10:37:07.975Z</time></trkpt><trkpt lat="46.0686872" lon="13.5494277"><ele>659.5</ele><time>2026-05-03T10:37:08.971Z</time></trkpt><trkpt lat="46.0685885" lon="13.5492964"><ele>654.25</ele><time>2026-05-03T10:37:09.985Z</time></trkpt><trkpt lat="46.0685004" lon="13.5492139"><ele>649.0</ele><time>2026-05-03T10:37:10.975Z</time></trkpt><trkpt lat="46.0684203" lon="13.5491733"><ele>649.0</ele><time>2026-05-03T10:37:11.986Z</time></trkpt><trkpt lat="46.0683467" lon="13.5491699"><ele>649.0</ele><time>2026-05-03T10:37:12.986Z</time></trkpt><trkpt lat="46.0682804" lon="13.5492156"><ele>649.0</ele><time>2026-05-03T10:37:13.984Z</time></trkpt><trkpt lat="46.0682075" lon="13.5492824"><ele>649.0</ele><time>2026-05-03T10:37:14.975Z</time></trkpt><trkpt lat="46.068135" lon="13.5493827"><ele>649.0</ele><time>2026-05-03T10:37:15.989Z</time></trkpt><trkpt lat="46.0680693" lon="13.5495086"><ele>649.0</ele><time>2026-05-03T10:37:16.978Z</time></trkpt><trkpt lat="46.0680045" lon="13.5496645"><ele>643.75</ele><time>2026-05-03T10:37:17.988Z</time></trkpt><trkpt lat="46.0679427" lon="13.5498314"><ele>638.5</ele><time>2026-05-03T10:37:18.979Z</time></trkpt><trkpt lat="46.0678805" lon="13.5500058"><ele>633.25</ele><time>2026-05-03T10:37:19.977Z</time></trkpt><trkpt lat="46.0678239" lon="13.5501853"><ele>628.0</ele><time>2026-05-03T10:37:20.977Z</time></trkpt><trkpt lat="46.0677846" lon="13.5503594"><ele>632.0</ele><time>2026-05-03T10:37:21.976Z</time></trkpt><trkpt lat="46.0677466" lon="13.5505395"><ele>636.0</ele><time>2026-05-03T10:37:22.978Z</time></trkpt><trkpt lat="46.0677154" lon="13.5507258"><ele>640.0</ele><time>2026-05-03T10:37:23.979Z</time></trkpt><trkpt lat="46.0676874" lon="13.5509139"><ele>644.0</ele><time>2026-05-03T10:37:24.981Z</time></trkpt><trkpt lat="46.0676646" lon="13.5511023"><ele>647.8000000000001</ele><time>2026-05-03T10:37:25.975Z</time></trkpt><trkpt lat="46.067653" lon="13.5512697"><ele>651.6</ele><time>2026-05-03T10:37:26.978Z</time></trkpt><trkpt lat="46.0676303" lon="13.5513905"><ele>655.4</ele><time>2026-05-03T10:37:27.987Z</time></trkpt><trkpt lat="46.0676084" lon="13.5514842"><ele>659.2</ele><time>2026-05-03T10:37:28.974Z</time></trkpt><trkpt lat="46.0675862" lon="13.5516038"><ele>663.0</ele><time>2026-05-03T10:37:30.984Z</time></trkpt><trkpt lat="46.0674768" lon="13.5515931"><ele>662.5</ele><time>2026-05-03T10:37:33.974Z</time></trkpt><trkpt lat="46.0674066" lon="13.5514992"><ele>662.0</ele><time>2026-05-03T10:37:34.983Z</time></trkpt><trkpt lat="46.0673219" lon="13.5513804"><ele>661.5</ele><time>2026-05-03T10:37:35.983Z</time></trkpt><trkpt lat="46.0672359" lon="13.5512663"><ele>661.0</ele><time>2026-05-03T10:37:36.978Z</time></trkpt><trkpt lat="46.0671393" lon="13.5511309"><ele>656.1999999999999</ele><time>2026-05-03T10:37:37.976Z</time></trkpt><trkpt lat="46.0670414" lon="13.551006"><ele>651.4</ele><time>2026-05-03T10:37:38.974Z</time></trkpt><trkpt lat="46.0669621" lon="13.5509073"><ele>646.6</ele><time>2026-05-03T10:37:39.97Z</time></trkpt><trkpt lat="46.0669104" lon="13.5508448"><ele>641.8</ele><time>2026-05-03T10:37:40.985Z</time></trkpt><trkpt lat="46.0668071" lon="13.5508771"><ele>637.0</ele><time>2026-05-03T10:37:55.985Z</time></trkpt><trkpt lat="46.0667447" lon="13.5509322"><ele>637.0</ele><time>2026-05-03T10:37:56.979Z</time></trkpt><trkpt lat="46.0666642" lon="13.5509891"><ele>637.0</ele><time>2026-05-03T10:37:57.985Z</time></trkpt><trkpt lat="46.066573" lon="13.5510624"><ele>637.0</ele><time>2026-05-03T10:37:58.99Z</time></trkpt><trkpt lat="46.0664897" lon="13.5510831"><ele>637.0</ele><time>2026-05-03T10:37:59.975Z</time></trkpt><trkpt lat="46.066422" lon="13.5510857"><ele>637.0</ele><time>2026-05-03T10:38:00.976Z</time></trkpt><trkpt lat="46.0663586" lon="13.551037"><ele>637.0</ele><time>2026-05-03T10:38:01.978Z</time></trkpt><trkpt lat="46.0663013" lon="13.550923"><ele>637.25</ele><time>2026-05-03T10:38:02.981Z</time></trkpt><trkpt lat="46.066235" lon="13.5508093"><ele>637.5</ele><time>2026-05-03T10:38:03.978Z</time></trkpt><trkpt lat="46.0661888" lon="13.5506757"><ele>637.75</ele><time>2026-05-03T10:38:04.98Z</time></trkpt><trkpt lat="46.0661361" lon="13.5505224"><ele>638.0</ele><time>2026-05-03T10:38:05.971Z</time></trkpt><trkpt lat="46.0660774" lon="13.5503591"><ele>638.0</ele><time>2026-05-03T10:38:06.978Z</time></trkpt><trkpt lat="46.0660282" lon="13.5502064"><ele>638.0</ele><time>2026-05-03T10:38:07.991Z</time></trkpt><trkpt lat="46.0659789" lon="13.5500599"><ele>638.0</ele><time>2026-05-03T10:38:08.979Z</time></trkpt><trkpt lat="46.065924" lon="13.5499181"><ele>638.0</ele><time>2026-05-03T10:38:09.979Z</time></trkpt><trkpt lat="46.0658809" lon="13.5497739"><ele>638.0</ele><time>2026-05-03T10:38:10.976Z</time></trkpt><trkpt lat="46.0658286" lon="13.5496485"><ele>638.0</ele><time>2026-05-03T10:38:11.985Z</time></trkpt><trkpt lat="46.0657681" lon="13.5495217"><ele>638.0</ele><time>2026-05-03T10:38:12.986Z</time></trkpt><trkpt lat="46.0657015" lon="13.5494123"><ele>638.0</ele><time>2026-05-03T10:38:13.987Z</time></trkpt><trkpt lat="46.0656248" lon="13.5493058"><ele>638.0</ele><time>2026-05-03T10:38:14.982Z</time></trkpt><trkpt lat="46.0655395" lon="13.5492173"><ele>635.8</ele><time>2026-05-03T10:38:15.984Z</time></trkpt><trkpt lat="46.0654444" lon="13.5491429"><ele>633.5999999999999</ele><time>2026-05-03T10:38:16.978Z</time></trkpt><trkpt lat="46.0653411" lon="13.5491046"><ele>631.4000000000001</ele><time>2026-05-03T10:38:17.983Z</time></trkpt><trkpt lat="46.0652412" lon="13.5490848"><ele>629.2</ele><time>2026-05-03T10:38:18.977Z</time></trkpt><trkpt lat="46.0651509" lon="13.5490815"><ele>627.0</ele><time>2026-05-03T10:38:19.98Z</time></trkpt><trkpt lat="46.065057" lon="13.5490885"><ele>627.0</ele><time>2026-05-03T10:38:20.977Z</time></trkpt><trkpt lat="46.0649658" lon="13.5491206"><ele>627.0</ele><time>2026-05-03T10:38:21.991Z</time></trkpt><trkpt lat="46.064878" lon="13.5491788"><ele>627.0</ele><time>2026-05-03T10:38:22.98Z</time></trkpt><trkpt lat="46.0647959" lon="13.5492484"><ele>627.0</ele><time>2026-05-03T10:38:23.98Z</time></trkpt><trkpt lat="46.0647328" lon="13.5493079"><ele>627.0</ele><time>2026-05-03T10:38:24.981Z</time></trkpt><trkpt lat="46.0646148" lon="13.5492908"><ele>629.4</ele><time>2026-05-03T10:38:26.981Z</time></trkpt><trkpt lat="46.0645673" lon="13.5492165"><ele>631.8000000000001</ele><time>2026-05-03T10:38:27.982Z</time></trkpt><trkpt lat="46.0645001" lon="13.5491077"><ele>634.2</ele><time>2026-05-03T10:38:28.983Z</time></trkpt><trkpt lat="46.0644185" lon="13.5489863"><ele>636.6</ele><time>2026-05-03T10:38:29.984Z</time></trkpt><trkpt lat="46.0643313" lon="13.5488793"><ele>639.0</ele><time>2026-05-03T10:38:30.979Z</time></trkpt><trkpt lat="46.0642314" lon="13.5487968"><ele>639.0</ele><time>2026-05-03T10:38:31.985Z</time></trkpt><trkpt lat="46.0641358" lon="13.5487577"><ele>639.0</ele><time>2026-05-03T10:38:32.986Z</time></trkpt><trkpt lat="46.0640368" lon="13.5487202"><ele>639.0</ele><time>2026-05-03T10:38:33.984Z</time></trkpt><trkpt lat="46.0639576" lon="13.548696"><ele>639.0</ele><time>2026-05-03T10:38:34.983Z</time></trkpt><trkpt lat="46.0638894" lon="13.5486762"><ele>639.0</ele><time>2026-05-03T10:38:35.977Z</time></trkpt><trkpt lat="46.0637814" lon="13.5486461"><ele>637.0</ele><time>2026-05-03T10:38:37.977Z</time></trkpt><trkpt lat="46.0636658" lon="13.548619"><ele>635.0</ele><time>2026-05-03T10:38:39.981Z</time></trkpt><trkpt lat="46.0635616" lon="13.5485549"><ele>633.0</ele><time>2026-05-03T10:38:41.973Z</time></trkpt><trkpt lat="46.0634693" lon="13.548426"><ele>631.0</ele><time>2026-05-03T10:38:43.982Z</time></trkpt><trkpt lat="46.0634113" lon="13.5483416"><ele>629.0</ele><time>2026-05-03T10:38:44.975Z</time></trkpt><trkpt lat="46.0633518" lon="13.5482387"><ele>629.0</ele><time>2026-05-03T10:38:45.976Z</time></trkpt><trkpt lat="46.0632877" lon="13.5481204"><ele>629.0</ele><time>2026-05-03T10:38:46.986Z</time></trkpt><trkpt lat="46.0632167" lon="13.5480074"><ele>629.0</ele><time>2026-05-03T10:38:47.975Z</time></trkpt><trkpt lat="46.0631318" lon="13.5479079"><ele>629.0</ele><time>2026-05-03T10:38:48.977Z</time></trkpt><trkpt lat="46.063043" lon="13.547818"><ele>629.0</ele><time>2026-05-03T10:38:49.975Z</time></trkpt><trkpt lat="46.0629568" lon="13.5477383"><ele>632.2</ele><time>2026-05-03T10:38:50.979Z</time></trkpt><trkpt lat="46.0628835" lon="13.5476443"><ele>635.4</ele><time>2026-05-03T10:38:51.986Z</time></trkpt><trkpt lat="46.0628088" lon="13.5475402"><ele>638.6</ele><time>2026-05-03T10:38:52.989Z</time></trkpt><trkpt lat="46.062754" lon="13.547391"><ele>641.8</ele><time>2026-05-03T10:38:53.98Z</time></trkpt><trkpt lat="46.062716" lon="13.5472279"><ele>645.0</ele><time>2026-05-03T10:38:54.975Z</time></trkpt><trkpt lat="46.0626647" lon="13.5470735"><ele>644.25</ele><time>2026-05-03T10:38:55.983Z</time></trkpt><trkpt lat="46.0625991" lon="13.5469204"><ele>643.5</ele><time>2026-05-03T10:38:56.978Z</time></trkpt><trkpt lat="46.062525" lon="13.5467602"><ele>642.75</ele><time>2026-05-03T10:38:57.975Z</time></trkpt><trkpt lat="46.0624523" lon="13.5465933"><ele>642.0</ele><time>2026-05-03T10:38:58.989Z</time></trkpt><trkpt lat="46.0623858" lon="13.5464187"><ele>642.0</ele><time>2026-05-03T10:38:59.975Z</time></trkpt><trkpt lat="46.062332" lon="13.54624"><ele>642.0</ele><time>2026-05-03T10:39:00.978Z</time></trkpt><trkpt lat="46.0622737" lon="13.5460821"><ele>642.0</ele><time>2026-05-03T10:39:01.976Z</time></trkpt><trkpt lat="46.0622194" lon="13.5459686"><ele>642.0</ele><time>2026-05-03T10:39:02.977Z</time></trkpt><trkpt lat="46.0621551" lon="13.5458709"><ele>642.0</ele><time>2026-05-03T10:39:03.977Z</time></trkpt><trkpt lat="46.0620764" lon="13.5458147"><ele>636.0</ele><time>2026-05-03T10:39:04.978Z</time></trkpt><trkpt lat="46.0619713" lon="13.5457852"><ele>630.0</ele><time>2026-05-03T10:39:05.98Z</time></trkpt><trkpt lat="46.0618563" lon="13.5457673"><ele>624.0</ele><time>2026-05-03T10:39:06.983Z</time></trkpt><trkpt lat="46.0617484" lon="13.5457414"><ele>618.0</ele><time>2026-05-03T10:39:07.97Z</time></trkpt><trkpt lat="46.0616338" lon="13.5457016"><ele>618.1999999999999</ele><time>2026-05-03T10:39:08.985Z</time></trkpt><trkpt lat="46.0615291" lon="13.5456456"><ele>618.4</ele><time>2026-05-03T10:39:09.981Z</time></trkpt><trkpt lat="46.061433" lon="13.5455756"><ele>618.5999999999999</ele><time>2026-05-03T10:39:10.978Z</time></trkpt><trkpt lat="46.0613537" lon="13.5454963"><ele>618.8</ele><time>2026-05-03T10:39:11.983Z</time></trkpt><trkpt lat="46.0612878" lon="13.5453907"><ele>619.0</ele><time>2026-05-03T10:39:12.987Z</time></trkpt><trkpt lat="46.0612339" lon="13.5452735"><ele>619.0</ele><time>2026-05-03T10:39:13.989Z</time></trkpt><trkpt lat="46.0611827" lon="13.545136"><ele>619.0</ele><time>2026-05-03T10:39:14.977Z</time></trkpt><trkpt lat="46.0611229" lon="13.5449918"><ele>619.0</ele><time>2026-05-03T10:39:15.973Z</time></trkpt><trkpt lat="46.06107" lon="13.5448393"><ele>619.0</ele><time>2026-05-03T10:39:16.982Z</time></trkpt><trkpt lat="46.061019" lon="13.5446691"><ele>619.5</ele><time>2026-05-03T10:39:17.981Z</time></trkpt><trkpt lat="46.060966" lon="13.5444904"><ele>620.0</ele><time>2026-05-03T10:39:18.974Z</time></trkpt><trkpt lat="46.0608989" lon="13.5443122"><ele>620.5</ele><time>2026-05-03T10:39:19.971Z</time></trkpt><trkpt lat="46.0608306" lon="13.5441387"><ele>621.0</ele><time>2026-05-03T10:39:20.975Z</time></trkpt><trkpt lat="46.0607695" lon="13.5439655"><ele>621.0</ele><time>2026-05-03T10:39:21.971Z</time></trkpt><trkpt lat="46.0607138" lon="13.5438001"><ele>621.0</ele><time>2026-05-03T10:39:22.976Z</time></trkpt><trkpt lat="46.060657" lon="13.5436339"><ele>621.0</ele><time>2026-05-03T10:39:23.971Z</time></trkpt><trkpt lat="46.0606028" lon="13.5434769"><ele>621.0</ele><time>2026-05-03T10:39:24.976Z</time></trkpt><trkpt lat="46.0605392" lon="13.5433177"><ele>616.6666666666666</ele><time>2026-05-03T10:39:25.996Z</time></trkpt><trkpt lat="46.0604381" lon="13.5430034"><ele>612.3333333333333</ele><time>2026-05-03T10:39:27.978Z</time></trkpt><trkpt lat="46.0603837" lon="13.5428356"><ele>608.0</ele><time>2026-05-03T10:39:28.968Z</time></trkpt><trkpt lat="46.060323" lon="13.5426695"><ele>604.0</ele><time>2026-05-03T10:39:29.98Z</time></trkpt><trkpt lat="46.060258" lon="13.5425139"><ele>600.0</ele><time>2026-05-03T10:39:30.972Z</time></trkpt><trkpt lat="46.0601855" lon="13.5423602"><ele>596.0</ele><time>2026-05-03T10:39:31.97Z</time></trkpt><trkpt lat="46.0601114" lon="13.5422071"><ele>592.0</ele><time>2026-05-03T10:39:32.972Z</time></trkpt><trkpt lat="46.0600449" lon="13.5420672"><ele>591.0</ele><time>2026-05-03T10:39:33.975Z</time></trkpt><trkpt lat="46.059979" lon="13.5419476"><ele>590.0</ele><time>2026-05-03T10:39:34.969Z</time></trkpt><trkpt lat="46.0599133" lon="13.541852"><ele>589.0</ele><time>2026-05-03T10:39:35.978Z</time></trkpt><trkpt lat="46.0598492" lon="13.5417691"><ele>588.0</ele><time>2026-05-03T10:39:36.967Z</time></trkpt><trkpt lat="46.0597921" lon="13.5417003"><ele>587.0</ele><time>2026-05-03T10:39:37.976Z</time></trkpt><trkpt lat="46.0597461" lon="13.5416095"><ele>586.0</ele><time>2026-05-03T10:39:38.973Z</time></trkpt><trkpt lat="46.0597115" lon="13.5415105"><ele>586.0</ele><time>2026-05-03T10:39:39.982Z</time></trkpt><trkpt lat="46.0596784" lon="13.5414229"><ele>586.0</ele><time>2026-05-03T10:39:40.982Z</time></trkpt><trkpt lat="46.0596415" lon="13.5413467"><ele>586.0</ele><time>2026-05-03T10:39:41.976Z</time></trkpt><trkpt lat="46.0595741" lon="13.5412479"><ele>586.0</ele><time>2026-05-03T10:39:43.975Z</time></trkpt><trkpt lat="46.0595278" lon="13.5411517"><ele>586.0</ele><time>2026-05-03T10:40:24.978Z</time></trkpt><trkpt lat="46.0594854" lon="13.5410719"><ele>586.0</ele><time>2026-05-03T10:40:28.979Z</time></trkpt><trkpt lat="46.0594334" lon="13.5409752"><ele>582.6</ele><time>2026-05-03T10:40:30.978Z</time></trkpt><trkpt lat="46.0593632" lon="13.5408404"><ele>579.2</ele><time>2026-05-03T10:40:32.976Z</time></trkpt><trkpt lat="46.0592976" lon="13.5407"><ele>575.8</ele><time>2026-05-03T10:40:33.975Z</time></trkpt><trkpt lat="46.0592268" lon="13.5405789"><ele>572.4</ele><time>2026-05-03T10:40:34.989Z</time></trkpt><trkpt lat="46.0591621" lon="13.5404855"><ele>569.0</ele><time>2026-05-03T10:40:35.977Z</time></trkpt><trkpt lat="46.059071" lon="13.5403811"><ele>566.0</ele><time>2026-05-03T10:40:36.98Z</time></trkpt><trkpt lat="46.0589986" lon="13.540247"><ele>563.0</ele><time>2026-05-03T10:40:37.975Z</time></trkpt><trkpt lat="46.0589268" lon="13.5401305"><ele>560.0</ele><time>2026-05-03T10:40:38.995Z</time></trkpt><trkpt lat="46.0588548" lon="13.5400154"><ele>557.0</ele><time>2026-05-03T10:40:39.973Z</time></trkpt><trkpt lat="46.0587842" lon="13.5399079"><ele>554.0</ele><time>2026-05-03T10:40:40.98Z</time></trkpt><trkpt lat="46.0587197" lon="13.5397991"><ele>554.0</ele><time>2026-05-03T10:40:41.978Z</time></trkpt><trkpt lat="46.058662" lon="13.5396957"><ele>554.0</ele><time>2026-05-03T10:40:42.978Z</time></trkpt><trkpt lat="46.0586134" lon="13.5396134"><ele>554.0</ele><time>2026-05-03T10:40:43.982Z</time></trkpt><trkpt lat="46.0585627" lon="13.5395558"><ele>554.0</ele><time>2026-05-03T10:40:44.974Z</time></trkpt><trkpt lat="46.0585027" lon="13.5395069"><ele>554.0</ele><time>2026-05-03T10:40:45.985Z</time></trkpt><trkpt lat="46.0584213" lon="13.5395019"><ele>554.0</ele><time>2026-05-03T10:40:46.987Z</time></trkpt><trkpt lat="46.0583237" lon="13.5395125"><ele>550.6</ele><time>2026-05-03T10:40:47.977Z</time></trkpt><trkpt lat="46.0582166" lon="13.5395234"><ele>547.2</ele><time>2026-05-03T10:40:48.977Z</time></trkpt><trkpt lat="46.0581162" lon="13.5395407"><ele>543.8000000000001</ele><time>2026-05-03T10:40:49.981Z</time></trkpt><trkpt lat="46.0580206" lon="13.5395669"><ele>540.4</ele><time>2026-05-03T10:40:50.976Z</time></trkpt><trkpt lat="46.0579283" lon="13.5395895"><ele>537.0</ele><time>2026-05-03T10:40:51.971Z</time></trkpt><trkpt lat="46.0578405" lon="13.5396364"><ele>537.0</ele><time>2026-05-03T10:40:52.97Z</time></trkpt><trkpt lat="46.0577645" lon="13.5397009"><ele>537.0</ele><time>2026-05-03T10:40:53.972Z</time></trkpt><trkpt lat="46.0576916" lon="13.5397849"><ele>537.0</ele><time>2026-05-03T10:40:54.97Z</time></trkpt><trkpt lat="46.0576176" lon="13.5398871"><ele>537.0</ele><time>2026-05-03T10:40:55.975Z</time></trkpt><trkpt lat="46.0575465" lon="13.5399975"><ele>537.0</ele><time>2026-05-03T10:40:56.977Z</time></trkpt><trkpt lat="46.057485" lon="13.5401145"><ele>532.5</ele><time>2026-05-03T10:40:57.975Z</time></trkpt><trkpt lat="46.0574363" lon="13.5402481"><ele>528.0</ele><time>2026-05-03T10:40:58.969Z</time></trkpt><trkpt lat="46.057397" lon="13.540405"><ele>523.5</ele><time>2026-05-03T10:40:59.979Z</time></trkpt><trkpt lat="46.0573584" lon="13.5405828"><ele>519.0</ele><time>2026-05-03T10:41:00.977Z</time></trkpt><trkpt lat="46.0573131" lon="13.5407519"><ele>519.0</ele><time>2026-05-03T10:41:01.97Z</time></trkpt><trkpt lat="46.0572391" lon="13.540894"><ele>519.0</ele><time>2026-05-03T10:41:02.969Z</time></trkpt><trkpt lat="46.0571479" lon="13.5410249"><ele>519.0</ele><time>2026-05-03T10:41:03.969Z</time></trkpt><trkpt lat="46.0570336" lon="13.541133"><ele>519.0</ele><time>2026-05-03T10:41:04.969Z</time></trkpt><trkpt lat="46.0569192" lon="13.5412416"><ele>521.75</ele><time>2026-05-03T10:41:05.976Z</time></trkpt><trkpt lat="46.0568159" lon="13.5413557"><ele>524.5</ele><time>2026-05-03T10:41:06.972Z</time></trkpt><trkpt lat="46.056729" lon="13.5414661"><ele>527.25</ele><time>2026-05-03T10:41:07.976Z</time></trkpt><trkpt lat="46.0566484" lon="13.5415795"><ele>530.0</ele><time>2026-05-03T10:41:08.984Z</time></trkpt><trkpt lat="46.0565821" lon="13.5416978"><ele>525.8</ele><time>2026-05-03T10:41:09.972Z</time></trkpt><trkpt lat="46.0565298" lon="13.5418137"><ele>521.6</ele><time>2026-05-03T10:41:10.976Z</time></trkpt><trkpt lat="46.0564957" lon="13.5419133"><ele>517.4</ele><time>2026-05-03T10:41:11.982Z</time></trkpt><trkpt lat="46.0564591" lon="13.5420501"><ele>513.2</ele><time>2026-05-03T10:41:13.977Z</time></trkpt><trkpt lat="46.0564094" lon="13.5419336"><ele>509.0</ele><time>2026-05-03T10:41:19.976Z</time></trkpt><trkpt lat="46.0563918" lon="13.5418108"><ele>507.6</ele><time>2026-05-03T10:41:21.985Z</time></trkpt><trkpt lat="46.0564054" lon="13.5416406"><ele>506.2</ele><time>2026-05-03T10:41:23.981Z</time></trkpt><trkpt lat="46.0564322" lon="13.541519"><ele>504.80000000000007</ele><time>2026-05-03T10:41:24.982Z</time></trkpt><trkpt lat="46.0564616" lon="13.5413988"><ele>503.40000000000003</ele><time>2026-05-03T10:41:25.977Z</time></trkpt><trkpt lat="46.0564901" lon="13.541289"><ele>502.0</ele><time>2026-05-03T10:41:26.98Z</time></trkpt><trkpt lat="46.05652" lon="13.5411869"><ele>500.6666666666667</ele><time>2026-05-03T10:41:27.98Z</time></trkpt><trkpt lat="46.0565707" lon="13.5410814"><ele>499.33333333333337</ele><time>2026-05-03T10:41:28.981Z</time></trkpt><trkpt lat="46.056616" lon="13.5409922"><ele>498.0</ele><time>2026-05-03T10:41:29.982Z</time></trkpt><trkpt lat="46.0566535" lon="13.5409047"><ele>496.66666666666663</ele><time>2026-05-03T10:41:30.977Z</time></trkpt><trkpt lat="46.0566791" lon="13.5408171"><ele>495.3333333333333</ele><time>2026-05-03T10:41:31.972Z</time></trkpt><trkpt lat="46.0566812" lon="13.5407071"><ele>494.0</ele><time>2026-05-03T10:41:32.97Z</time></trkpt><trkpt lat="46.0566468" lon="13.5405682"><ele>494.0</ele><time>2026-05-03T10:41:33.971Z</time></trkpt><trkpt lat="46.0565894" lon="13.5404119"><ele>494.0</ele><time>2026-05-03T10:41:34.974Z</time></trkpt><trkpt lat="46.0565346" lon="13.540242"><ele>494.0</ele><time>2026-05-03T10:41:35.982Z</time></trkpt><trkpt lat="46.0564516" lon="13.5400778"><ele>494.0</ele><time>2026-05-03T10:41:36.984Z</time></trkpt><trkpt lat="46.0563644" lon="13.5399204"><ele>493.75</ele><time>2026-05-03T10:41:37.972Z</time></trkpt><trkpt lat="46.0562624" lon="13.5397569"><ele>493.5</ele><time>2026-05-03T10:41:38.977Z</time></trkpt><trkpt lat="46.0561744" lon="13.5395867"><ele>493.25</ele><time>2026-05-03T10:41:39.975Z</time></trkpt><trkpt lat="46.0560967" lon="13.5394192"><ele>493.0</ele><time>2026-05-03T10:41:40.983Z</time></trkpt><trkpt lat="46.0560308" lon="13.5392427"><ele>493.5</ele><time>2026-05-03T10:41:41.976Z</time></trkpt><trkpt lat="46.0559759" lon="13.539062"><ele>494.0</ele><time>2026-05-03T10:41:42.974Z</time></trkpt><trkpt lat="46.0559544" lon="13.5388794"><ele>494.5</ele><time>2026-05-03T10:41:43.975Z</time></trkpt><trkpt lat="46.0559569" lon="13.5387005"><ele>495.0</ele><time>2026-05-03T10:41:44.986Z</time></trkpt><trkpt lat="46.0559715" lon="13.5385208"><ele>495.0</ele><time>2026-05-03T10:41:45.975Z</time></trkpt><trkpt lat="46.0559814" lon="13.538339"><ele>495.0</ele><time>2026-05-03T10:41:46.974Z</time></trkpt><trkpt lat="46.0560045" lon="13.5381576"><ele>495.0</ele><time>2026-05-03T10:41:47.968Z</time></trkpt><trkpt lat="46.0560307" lon="13.537979"><ele>495.0</ele><time>2026-05-03T10:41:48.973Z</time></trkpt><trkpt lat="46.0560658" lon="13.537804"><ele>494.5</ele><time>2026-05-03T10:41:49.979Z</time></trkpt><trkpt lat="46.0561024" lon="13.5376584"><ele>494.0</ele><time>2026-05-03T10:41:50.98Z</time></trkpt><trkpt lat="46.0561367" lon="13.537546"><ele>493.5</ele><time>2026-05-03T10:41:51.971Z</time></trkpt><trkpt lat="46.0561596" lon="13.5374526"><ele>493.0</ele><time>2026-05-03T10:41:52.979Z</time></trkpt><trkpt lat="46.0561946" lon="13.5373244"><ele>492.5</ele><time>2026-05-03T10:41:54.979Z</time></trkpt><trkpt lat="46.0562266" lon="13.5372377"><ele>492.0</ele><time>2026-05-03T10:41:56.976Z</time></trkpt><trkpt lat="46.0562655" lon="13.5371612"><ele>492.0</ele><time>2026-05-03T10:41:59.98Z</time></trkpt></trkseg><trkseg><trkpt lat="46.0563479" lon="13.5371746"><ele>492.0</ele><time>2026-05-03T11:29:10.966Z</time></trkpt><trkpt lat="46.0564041" lon="13.5370812"><ele>492.0</ele><time>2026-05-03T11:29:13.96Z</time></trkpt><trkpt lat="46.0564635" lon="13.537008"><ele>492.0</ele><time>2026-05-03T11:29:16.958Z</time></trkpt><trkpt lat="46.0565241" lon="13.5369578"><ele>492.0</ele><time>2026-05-03T11:29:19.961Z</time></trkpt><trkpt lat="46.0565042" lon="13.5368696"><ele>492.0</ele><time>2026-05-03T11:29:49.958Z</time></trkpt><trkpt lat="46.0566188" lon="13.5368126"><ele>492.0</ele><time>2026-05-03T11:29:52.959Z</time></trkpt><trkpt lat="46.0566896" lon="13.5367824"><ele>491.5</ele><time>2026-05-03T11:29:54.969Z</time></trkpt><trkpt lat="46.0567596" lon="13.5367668"><ele>491.0</ele><time>2026-05-03T11:29:56.959Z</time></trkpt><trkpt lat="46.0568456" lon="13.5367188"><ele>490.5</ele><time>2026-05-03T11:29:59.966Z</time></trkpt><trkpt lat="46.0568922" lon="13.5366485"><ele>490.0</ele><time>2026-05-03T11:30:02.96Z</time></trkpt><trkpt lat="46.0569372" lon="13.5365669"><ele>489.5</ele><time>2026-05-03T11:30:04.958Z</time></trkpt><trkpt lat="46.0569836" lon="13.5364628"><ele>489.0</ele><time>2026-05-03T11:30:06.96Z</time></trkpt><trkpt lat="46.0570368" lon="13.5363318"><ele>489.0</ele><time>2026-05-03T11:30:08.967Z</time></trkpt><trkpt lat="46.0570695" lon="13.5362508"><ele>489.0</ele><time>2026-05-03T11:30:09.965Z</time></trkpt><trkpt lat="46.0571059" lon="13.5361677"><ele>489.0</ele><time>2026-05-03T11:30:10.966Z</time></trkpt><trkpt lat="46.0571495" lon="13.5360778"><ele>489.0</ele><time>2026-05-03T11:30:11.96Z</time></trkpt><trkpt lat="46.0572011" lon="13.535992"><ele>489.0</ele><time>2026-05-03T11:30:12.966Z</time></trkpt><trkpt lat="46.057262" lon="13.5359063"><ele>489.0</ele><time>2026-05-03T11:30:13.967Z</time></trkpt><trkpt lat="46.0573305" lon="13.535824"><ele>488.1666666666667</ele><time>2026-05-03T11:30:14.967Z</time></trkpt><trkpt lat="46.0574042" lon="13.5357523"><ele>487.33333333333337</ele><time>2026-05-03T11:30:15.972Z</time></trkpt><trkpt lat="46.0574849" lon="13.5356927"><ele>486.5</ele><time>2026-05-03T11:30:16.959Z</time></trkpt><trkpt lat="46.0575687" lon="13.5356458"><ele>485.6666666666667</ele><time>2026-05-03T11:30:17.96Z</time></trkpt><trkpt lat="46.057656" lon="13.535613"><ele>484.83333333333337</ele><time>2026-05-03T11:30:18.971Z</time></trkpt><trkpt lat="46.0577413" lon="13.5355851"><ele>484.0</ele><time>2026-05-03T11:30:19.961Z</time></trkpt><trkpt lat="46.0578353" lon="13.5355655"><ele>484.0</ele><time>2026-05-03T11:30:20.959Z</time></trkpt><trkpt lat="46.0579354" lon="13.5355591"><ele>484.0</ele><time>2026-05-03T11:30:21.965Z</time></trkpt><trkpt lat="46.0580383" lon="13.5355607"><ele>484.0</ele><time>2026-05-03T11:30:22.96Z</time></trkpt><trkpt lat="46.0581366" lon="13.5355683"><ele>484.0</ele><time>2026-05-03T11:30:23.956Z</time></trkpt><trkpt lat="46.0582262" lon="13.5355732"><ele>484.0</ele><time>2026-05-03T11:30:24.955Z</time></trkpt><trkpt lat="46.0583057" lon="13.535581"><ele>483.00000000000006</ele><time>2026-05-03T11:30:25.968Z</time></trkpt><trkpt lat="46.0583751" lon="13.5355752"><ele>482.0</ele><time>2026-05-03T11:30:26.96Z</time></trkpt><trkpt lat="46.0584463" lon="13.5355094"><ele>481.0</ele><time>2026-05-03T11:30:28.96Z</time></trkpt><trkpt lat="46.0584267" lon="13.5354062"><ele>480.0</ele><time>2026-05-03T11:30:30.968Z</time></trkpt><trkpt lat="46.0583389" lon="13.5353267"><ele>479.00000000000006</ele><time>2026-05-03T11:30:32.969Z</time></trkpt><trkpt lat="46.0582705" lon="13.5352925"><ele>478.0</ele><time>2026-05-03T11:30:33.959Z</time></trkpt><trkpt lat="46.0581834" lon="13.5352572"><ele>475.0</ele><time>2026-05-03T11:30:34.959Z</time></trkpt><trkpt lat="46.0580793" lon="13.5351903"><ele>472.0</ele><time>2026-05-03T11:30:35.961Z</time></trkpt><trkpt lat="46.0579706" lon="13.5350954"><ele>469.0</ele><time>2026-05-03T11:30:36.964Z</time></trkpt><trkpt lat="46.0578603" lon="13.5349905"><ele>466.0</ele><time>2026-05-03T11:30:37.958Z</time></trkpt><trkpt lat="46.0577596" lon="13.5348969"><ele>466.0</ele><time>2026-05-03T11:30:38.961Z</time></trkpt><trkpt lat="46.0576636" lon="13.5348141"><ele>466.0</ele><time>2026-05-03T11:30:39.961Z</time></trkpt><trkpt lat="46.0575678" lon="13.5347455"><ele>466.0</ele><time>2026-05-03T11:30:40.962Z</time></trkpt><trkpt lat="46.0574629" lon="13.5346951"><ele>466.0</ele><time>2026-05-03T11:30:41.965Z</time></trkpt><trkpt lat="46.0573492" lon="13.5346628"><ele>466.0</ele><time>2026-05-03T11:30:42.959Z</time></trkpt><trkpt lat="46.057229" lon="13.5346501"><ele>465.25</ele><time>2026-05-03T11:30:43.962Z</time></trkpt><trkpt lat="46.0571038" lon="13.5346543"><ele>464.5</ele><time>2026-05-03T11:30:44.96Z</time></trkpt><trkpt lat="46.0569765" lon="13.5346686"><ele>463.75</ele><time>2026-05-03T11:30:45.967Z</time></trkpt><trkpt lat="46.0568493" lon="13.5346827"><ele>463.0</ele><time>2026-05-03T11:30:46.969Z</time></trkpt><trkpt lat="46.0567236" lon="13.5346816"><ele>462.5</ele><time>2026-05-03T11:30:47.966Z</time></trkpt><trkpt lat="46.0566008" lon="13.5346724"><ele>462.0</ele><time>2026-05-03T11:30:48.956Z</time></trkpt><trkpt lat="46.0564836" lon="13.5346585"><ele>461.5</ele><time>2026-05-03T11:30:49.955Z</time></trkpt><trkpt lat="46.0563743" lon="13.5346342"><ele>461.0</ele><time>2026-05-03T11:30:50.96Z</time></trkpt><trkpt lat="46.0562695" lon="13.5345988"><ele>457.0</ele><time>2026-05-03T11:30:51.971Z</time></trkpt><trkpt lat="46.0561661" lon="13.534546"><ele>453.0</ele><time>2026-05-03T11:30:52.96Z</time></trkpt><trkpt lat="46.0560612" lon="13.5344759"><ele>449.0</ele><time>2026-05-03T11:30:53.955Z</time></trkpt><trkpt lat="46.0559589" lon="13.534381"><ele>445.0</ele><time>2026-05-03T11:30:54.959Z</time></trkpt><trkpt lat="46.0558584" lon="13.534261"><ele>446.0</ele><time>2026-05-03T11:30:55.957Z</time></trkpt><trkpt lat="46.0557753" lon="13.5341196"><ele>447.0</ele><time>2026-05-03T11:30:56.961Z</time></trkpt><trkpt lat="46.0556985" lon="13.5339738"><ele>448.0</ele><time>2026-05-03T11:30:57.966Z</time></trkpt><trkpt lat="46.0556232" lon="13.5338422"><ele>449.0</ele><time>2026-05-03T11:30:58.957Z</time></trkpt><trkpt lat="46.0555333" lon="13.5337325"><ele>445.0</ele><time>2026-05-03T11:30:59.956Z</time></trkpt><trkpt lat="46.0554385" lon="13.5336425"><ele>441.0</ele><time>2026-05-03T11:31:00.958Z</time></trkpt><trkpt lat="46.0553463" lon="13.5335547"><ele>437.0</ele><time>2026-05-03T11:31:01.962Z</time></trkpt><trkpt lat="46.0552475" lon="13.5334636"><ele>433.0</ele><time>2026-05-03T11:31:02.968Z</time></trkpt><trkpt lat="46.0551503" lon="13.5333692"><ele>433.0</ele><time>2026-05-03T11:31:03.957Z</time></trkpt><trkpt lat="46.0550619" lon="13.533264"><ele>433.0</ele><time>2026-05-03T11:31:04.958Z</time></trkpt><trkpt lat="46.0549617" lon="13.5331652"><ele>433.0</ele><time>2026-05-03T11:31:05.962Z</time></trkpt><trkpt lat="46.0548525" lon="13.5330687"><ele>433.0</ele><time>2026-05-03T11:31:06.958Z</time></trkpt><trkpt lat="46.054729" lon="13.5329758"><ele>429.5</ele><time>2026-05-03T11:31:07.96Z</time></trkpt><trkpt lat="46.0546039" lon="13.5328873"><ele>426.0</ele><time>2026-05-03T11:31:08.966Z</time></trkpt><trkpt lat="46.0544899" lon="13.5328095"><ele>422.5</ele><time>2026-05-03T11:31:09.959Z</time></trkpt><trkpt lat="46.0543755" lon="13.5327316"><ele>419.0</ele><time>2026-05-03T11:31:10.973Z</time></trkpt><trkpt lat="46.0542738" lon="13.5326515"><ele>419.0</ele><time>2026-05-03T11:31:11.957Z</time></trkpt><trkpt lat="46.0541695" lon="13.5325729"><ele>419.0</ele><time>2026-05-03T11:31:12.96Z</time></trkpt><trkpt lat="46.0540593" lon="13.5325121"><ele>419.0</ele><time>2026-05-03T11:31:13.957Z</time></trkpt><trkpt lat="46.0539544" lon="13.5324723"><ele>419.0</ele><time>2026-05-03T11:31:14.958Z</time></trkpt><trkpt lat="46.053847" lon="13.5324614"><ele>418.66666666666663</ele><time>2026-05-03T11:31:15.952Z</time></trkpt><trkpt lat="46.0537519" lon="13.5324814"><ele>418.3333333333333</ele><time>2026-05-03T11:31:16.96Z</time></trkpt><trkpt lat="46.0536725" lon="13.5325215"><ele>418.0</ele><time>2026-05-03T11:31:17.968Z</time></trkpt><trkpt lat="46.053585" lon="13.5325002"><ele>417.66666666666663</ele><time>2026-05-03T11:31:19.963Z</time></trkpt><trkpt lat="46.0536496" lon="13.5323999"><ele>417.3333333333333</ele><time>2026-05-03T11:31:29.955Z</time></trkpt><trkpt lat="46.0537206" lon="13.532386"><ele>417.0</ele><time>2026-05-03T11:31:30.959Z</time></trkpt><trkpt lat="46.0538102" lon="13.5323744"><ele>417.0</ele><time>2026-05-03T11:31:31.962Z</time></trkpt><trkpt lat="46.0539181" lon="13.5323419"><ele>417.0</ele><time>2026-05-03T11:31:32.956Z</time></trkpt><trkpt lat="46.0540286" lon="13.5322865"><ele>417.0</ele><time>2026-05-03T11:31:33.958Z</time></trkpt><trkpt lat="46.0541325" lon="13.5322134"><ele>417.0</ele><time>2026-05-03T11:31:34.963Z</time></trkpt><trkpt lat="46.0542372" lon="13.5321167"><ele>410.75</ele><time>2026-05-03T11:31:35.97Z</time></trkpt><trkpt lat="46.0543311" lon="13.532033"><ele>404.5</ele><time>2026-05-03T11:31:36.958Z</time></trkpt><trkpt lat="46.0544322" lon="13.5319555"><ele>398.25</ele><time>2026-05-03T11:31:37.957Z</time></trkpt><trkpt lat="46.0545387" lon="13.5319004"><ele>392.0</ele><time>2026-05-03T11:31:38.954Z</time></trkpt><trkpt lat="46.0546509" lon="13.5318853"><ele>392.0</ele><time>2026-05-03T11:31:39.958Z</time></trkpt><trkpt lat="46.0547573" lon="13.5319317"><ele>392.0</ele><time>2026-05-03T11:31:40.963Z</time></trkpt><trkpt lat="46.0548534" lon="13.5320125"><ele>392.0</ele><time>2026-05-03T11:31:41.959Z</time></trkpt><trkpt lat="46.0549504" lon="13.5321142"><ele>392.0</ele><time>2026-05-03T11:31:42.959Z</time></trkpt><trkpt lat="46.0550481" lon="13.5322156"><ele>397.25</ele><time>2026-05-03T11:31:43.961Z</time></trkpt><trkpt lat="46.0551507" lon="13.5322946"><ele>402.5</ele><time>2026-05-03T11:31:44.963Z</time></trkpt><trkpt lat="46.055261" lon="13.5323317"><ele>407.75</ele><time>2026-05-03T11:31:45.957Z</time></trkpt><trkpt lat="46.055377" lon="13.532333"><ele>413.0</ele><time>2026-05-03T11:31:46.971Z</time></trkpt><trkpt lat="46.0554954" lon="13.5323117"><ele>413.0</ele><time>2026-05-03T11:31:47.959Z</time></trkpt><trkpt lat="46.0556026" lon="13.532272"><ele>413.0</ele><time>2026-05-03T11:31:48.958Z</time></trkpt><trkpt lat="46.0557026" lon="13.5322069"><ele>413.0</ele><time>2026-05-03T11:31:49.962Z</time></trkpt><trkpt lat="46.0557945" lon="13.5321232"><ele>413.0</ele><time>2026-05-03T11:31:50.96Z</time></trkpt><trkpt lat="46.0558895" lon="13.5320354"><ele>413.0</ele><time>2026-05-03T11:31:51.955Z</time></trkpt><trkpt lat="46.055986" lon="13.5319544"><ele>407.4</ele><time>2026-05-03T11:31:52.956Z</time></trkpt><trkpt lat="46.0560756" lon="13.5318764"><ele>401.79999999999995</ele><time>2026-05-03T11:31:53.96Z</time></trkpt><trkpt lat="46.0561544" lon="13.5318003"><ele>396.2</ele><time>2026-05-03T11:31:54.958Z</time></trkpt><trkpt lat="46.0562203" lon="13.5317204"><ele>390.6</ele><time>2026-05-03T11:31:55.965Z</time></trkpt><trkpt lat="46.0562461" lon="13.5316303"><ele>385.0</ele><time>2026-05-03T11:31:56.958Z</time></trkpt><trkpt lat="46.056151" lon="13.5315136"><ele>385.0</ele><time>2026-05-03T11:31:58.962Z</time></trkpt><trkpt lat="46.0560733" lon="13.5315185"><ele>385.0</ele><time>2026-05-03T11:31:59.968Z</time></trkpt><trkpt lat="46.0559774" lon="13.5315796"><ele>385.0</ele><time>2026-05-03T11:32:00.965Z</time></trkpt><trkpt lat="46.0558767" lon="13.5316446"><ele>385.0</ele><time>2026-05-03T11:32:01.957Z</time></trkpt><trkpt lat="46.0557771" lon="13.5316987"><ele>385.0</ele><time>2026-05-03T11:32:02.957Z</time></trkpt><trkpt lat="46.0556856" lon="13.5317444"><ele>385.6666666666667</ele><time>2026-05-03T11:32:03.97Z</time></trkpt><trkpt lat="46.0556014" lon="13.5317855"><ele>386.33333333333337</ele><time>2026-05-03T11:32:04.958Z</time></trkpt><trkpt lat="46.0555255" lon="13.5318408"><ele>387.0</ele><time>2026-05-03T11:32:05.955Z</time></trkpt><trkpt lat="46.0554492" lon="13.5319068"><ele>387.66666666666663</ele><time>2026-05-03T11:32:06.955Z</time></trkpt><trkpt lat="46.0553801" lon="13.5319648"><ele>388.3333333333333</ele><time>2026-05-03T11:32:07.96Z</time></trkpt><trkpt lat="46.0553132" lon="13.5320003"><ele>389.0</ele><time>2026-05-03T11:32:08.966Z</time></trkpt><trkpt lat="46.0552472" lon="13.5320115"><ele>388.99999999999994</ele><time>2026-05-03T11:32:09.969Z</time></trkpt><trkpt lat="46.055179" lon="13.5319875"><ele>389.0</ele><time>2026-05-03T11:32:10.96Z</time></trkpt><trkpt lat="46.0551154" lon="13.5319258"><ele>389.0</ele><time>2026-05-03T11:32:11.964Z</time></trkpt><trkpt lat="46.0550527" lon="13.5318298"><ele>389.0</ele><time>2026-05-03T11:32:12.961Z</time></trkpt><trkpt lat="46.0549904" lon="13.5317179"><ele>388.99999999999994</ele><time>2026-05-03T11:32:13.957Z</time></trkpt><trkpt lat="46.0549189" lon="13.531617"><ele>389.0</ele><time>2026-05-03T11:32:14.964Z</time></trkpt><trkpt lat="46.0548543" lon="13.5315122"><ele>389.6</ele><time>2026-05-03T11:32:15.961Z</time></trkpt><trkpt lat="46.0547769" lon="13.5314238"><ele>390.2</ele><time>2026-05-03T11:32:16.959Z</time></trkpt><trkpt lat="46.0546866" lon="13.5313585"><ele>390.8</ele><time>2026-05-03T11:32:17.958Z</time></trkpt><trkpt lat="46.0545916" lon="13.5313106"><ele>391.40000000000003</ele><time>2026-05-03T11:32:18.973Z</time></trkpt><trkpt lat="46.0544897" lon="13.5312839"><ele>392.0</ele><time>2026-05-03T11:32:19.959Z</time></trkpt><trkpt lat="46.054386" lon="13.5312752"><ele>392.0</ele><time>2026-05-03T11:32:20.962Z</time></trkpt><trkpt lat="46.0542787" lon="13.5312895"><ele>392.0</ele><time>2026-05-03T11:32:21.954Z</time></trkpt><trkpt lat="46.0541633" lon="13.5313257"><ele>392.0</ele><time>2026-05-03T11:32:22.958Z</time></trkpt><trkpt lat="46.054043" lon="13.5313648"><ele>392.0</ele><time>2026-05-03T11:32:23.958Z</time></trkpt><trkpt lat="46.0539271" lon="13.5313842"><ele>391.0</ele><time>2026-05-03T11:32:24.962Z</time></trkpt><trkpt lat="46.0538084" lon="13.5313681"><ele>390.0</ele><time>2026-05-03T11:32:25.952Z</time></trkpt><trkpt lat="46.053693" lon="13.5313235"><ele>389.0</ele><time>2026-05-03T11:32:26.952Z</time></trkpt><trkpt lat="46.0535795" lon="13.5312894"><ele>388.0</ele><time>2026-05-03T11:32:27.962Z</time></trkpt><trkpt lat="46.0534726" lon="13.5312668"><ele>388.0</ele><time>2026-05-03T11:32:28.959Z</time></trkpt><trkpt lat="46.0533717" lon="13.5312806"><ele>388.0</ele><time>2026-05-03T11:32:29.966Z</time></trkpt><trkpt lat="46.0532705" lon="13.5312923"><ele>388.0</ele><time>2026-05-03T11:32:30.962Z</time></trkpt><trkpt lat="46.0531771" lon="13.5312729"><ele>388.0</ele><time>2026-05-03T11:32:31.968Z</time></trkpt><trkpt lat="46.0531002" lon="13.5312246"><ele>388.0</ele><time>2026-05-03T11:32:32.96Z</time></trkpt><trkpt lat="46.0530554" lon="13.5311414"><ele>391.4</ele><time>2026-05-03T11:32:33.957Z</time></trkpt><trkpt lat="46.0530438" lon="13.5310232"><ele>394.79999999999995</ele><time>2026-05-03T11:32:34.956Z</time></trkpt><trkpt lat="46.0530532" lon="13.5308874"><ele>398.2</ele><time>2026-05-03T11:32:35.96Z</time></trkpt><trkpt lat="46.0530857" lon="13.5307467"><ele>401.6</ele><time>2026-05-03T11:32:36.959Z</time></trkpt><trkpt lat="46.0531367" lon="13.5305962"><ele>405.0</ele><time>2026-05-03T11:32:37.972Z</time></trkpt><trkpt lat="46.0531948" lon="13.5304469"><ele>404.5</ele><time>2026-05-03T11:32:38.968Z</time></trkpt><trkpt lat="46.0532476" lon="13.530298"><ele>404.0</ele><time>2026-05-03T11:32:39.957Z</time></trkpt><trkpt lat="46.0533065" lon="13.5301319"><ele>403.5</ele><time>2026-05-03T11:32:40.957Z</time></trkpt><trkpt lat="46.0533527" lon="13.5299602"><ele>403.0</ele><time>2026-05-03T11:32:41.967Z</time></trkpt><trkpt lat="46.0534001" lon="13.5297849"><ele>393.75</ele><time>2026-05-03T11:32:42.956Z</time></trkpt><trkpt lat="46.0534672" lon="13.5296159"><ele>384.5</ele><time>2026-05-03T11:32:43.959Z</time></trkpt><trkpt lat="46.0535454" lon="13.5294666"><ele>375.25</ele><time>2026-05-03T11:32:44.97Z</time></trkpt><trkpt lat="46.0536329" lon="13.5293388"><ele>366.0</ele><time>2026-05-03T11:32:45.969Z</time></trkpt><trkpt lat="46.0537144" lon="13.5292236"><ele>366.0</ele><time>2026-05-03T11:32:46.958Z</time></trkpt><trkpt lat="46.0537915" lon="13.5291074"><ele>366.0</ele><time>2026-05-03T11:32:47.967Z</time></trkpt><trkpt lat="46.0538591" lon="13.5289886"><ele>366.0</ele><time>2026-05-03T11:32:48.958Z</time></trkpt><trkpt lat="46.0539137" lon="13.5288523"><ele>366.0</ele><time>2026-05-03T11:32:49.955Z</time></trkpt><trkpt lat="46.0539489" lon="13.5287041"><ele>366.0</ele><time>2026-05-03T11:32:50.961Z</time></trkpt><trkpt lat="46.0539465" lon="13.5285388"><ele>365.0</ele><time>2026-05-03T11:32:51.962Z</time></trkpt><trkpt lat="46.0539074" lon="13.5283912"><ele>364.0</ele><time>2026-05-03T11:32:52.965Z</time></trkpt><trkpt lat="46.0538449" lon="13.5282733"><ele>363.0</ele><time>2026-05-03T11:32:53.966Z</time></trkpt><trkpt lat="46.053757" lon="13.5281818"><ele>362.0</ele><time>2026-05-03T11:32:54.958Z</time></trkpt><trkpt lat="46.053684" lon="13.5280837"><ele>361.0</ele><time>2026-05-03T11:32:55.966Z</time></trkpt><trkpt lat="46.0536582" lon="13.5279606"><ele>361.0</ele><time>2026-05-03T11:32:56.958Z</time></trkpt><trkpt lat="46.0536599" lon="13.5278317"><ele>361.0</ele><time>2026-05-03T11:32:57.957Z</time></trkpt><trkpt lat="46.0536869" lon="13.5277036"><ele>361.0</ele><time>2026-05-03T11:32:58.965Z</time></trkpt><trkpt lat="46.0537275" lon="13.5275641"><ele>361.0</ele><time>2026-05-03T11:32:59.962Z</time></trkpt><trkpt lat="46.0537734" lon="13.5274222"><ele>361.0</ele><time>2026-05-03T11:33:00.963Z</time></trkpt><trkpt lat="46.0538141" lon="13.5272662"><ele>361.0</ele><time>2026-05-03T11:33:01.955Z</time></trkpt><trkpt lat="46.0538501" lon="13.5270844"><ele>361.0</ele><time>2026-05-03T11:33:02.956Z</time></trkpt><trkpt lat="46.0538763" lon="13.5268912"><ele>361.0</ele><time>2026-05-03T11:33:03.96Z</time></trkpt><trkpt lat="46.0538887" lon="13.5266879"><ele>361.0</ele><time>2026-05-03T11:33:04.959Z</time></trkpt><trkpt lat="46.0538939" lon="13.5264891"><ele>360.0</ele><time>2026-05-03T11:33:05.955Z</time></trkpt><trkpt lat="46.0538949" lon="13.5262976"><ele>359.0</ele><time>2026-05-03T11:33:06.965Z</time></trkpt><trkpt lat="46.0538966" lon="13.5261085"><ele>358.0</ele><time>2026-05-03T11:33:07.965Z</time></trkpt><trkpt lat="46.0538888" lon="13.5259294"><ele>357.0</ele><time>2026-05-03T11:33:08.965Z</time></trkpt><trkpt lat="46.0538822" lon="13.5257408"><ele>356.5</ele><time>2026-05-03T11:33:09.954Z</time></trkpt><trkpt lat="46.0538712" lon="13.5255529"><ele>356.0</ele><time>2026-05-03T11:33:10.961Z</time></trkpt><trkpt lat="46.0538546" lon="13.5253661"><ele>355.5</ele><time>2026-05-03T11:33:11.962Z</time></trkpt><trkpt lat="46.0538374" lon="13.5251877"><ele>355.0</ele><time>2026-05-03T11:33:12.955Z</time></trkpt><trkpt lat="46.0538325" lon="13.5250199"><ele>354.0</ele><time>2026-05-03T11:33:13.967Z</time></trkpt><trkpt lat="46.0538488" lon="13.5248542"><ele>353.0</ele><time>2026-05-03T11:33:14.959Z</time></trkpt><trkpt lat="46.0538856" lon="13.5247052"><ele>352.0</ele><time>2026-05-03T11:33:15.956Z</time></trkpt><trkpt lat="46.0539344" lon="13.5245991"><ele>351.0</ele><time>2026-05-03T11:33:16.967Z</time></trkpt><trkpt lat="46.0540059" lon="13.5245277"><ele>350.0</ele><time>2026-05-03T11:33:17.955Z</time></trkpt><trkpt lat="46.0540872" lon="13.5244424"><ele>340.75</ele><time>2026-05-03T11:33:18.957Z</time></trkpt><trkpt lat="46.0541626" lon="13.5243327"><ele>331.5</ele><time>2026-05-03T11:33:19.961Z</time></trkpt><trkpt lat="46.0542071" lon="13.5241882"><ele>322.25</ele><time>2026-05-03T11:33:20.958Z</time></trkpt><trkpt lat="46.0542534" lon="13.524024"><ele>313.0</ele><time>2026-05-03T11:33:21.955Z</time></trkpt><trkpt lat="46.0542934" lon="13.5238472"><ele>312.5</ele><time>2026-05-03T11:33:22.962Z</time></trkpt><trkpt lat="46.0543289" lon="13.5236707"><ele>312.0</ele><time>2026-05-03T11:33:23.966Z</time></trkpt><trkpt lat="46.05436" lon="13.5234918"><ele>311.5</ele><time>2026-05-03T11:33:24.954Z</time></trkpt><trkpt lat="46.0543934" lon="13.5233168"><ele>311.0</ele><time>2026-05-03T11:33:25.96Z</time></trkpt><trkpt lat="46.0544275" lon="13.5231463"><ele>311.0</ele><time>2026-05-03T11:33:26.966Z</time></trkpt><trkpt lat="46.0544674" lon="13.5229798"><ele>311.0</ele><time>2026-05-03T11:33:27.953Z</time></trkpt><trkpt lat="46.0545106" lon="13.5228061"><ele>311.0</ele><time>2026-05-03T11:33:28.953Z</time></trkpt><trkpt lat="46.0545553" lon="13.5226237"><ele>311.0</ele><time>2026-05-03T11:33:29.966Z</time></trkpt><trkpt lat="46.0545956" lon="13.5224371"><ele>310.0</ele><time>2026-05-03T11:33:30.96Z</time></trkpt><trkpt lat="46.0546262" lon="13.5222464"><ele>309.0</ele><time>2026-05-03T11:33:31.958Z</time></trkpt><trkpt lat="46.0546435" lon="13.5220468"><ele>308.0</ele><time>2026-05-03T11:33:32.96Z</time></trkpt><trkpt lat="46.054637" lon="13.5218519"><ele>307.0</ele><time>2026-05-03T11:33:33.97Z</time></trkpt><trkpt lat="46.054618" lon="13.521668"><ele>306.0</ele><time>2026-05-03T11:33:34.958Z</time></trkpt><trkpt lat="46.0545959" lon="13.5214897"><ele>305.0</ele><time>2026-05-03T11:33:35.962Z</time></trkpt><trkpt lat="46.0545659" lon="13.5213213"><ele>304.0</ele><time>2026-05-03T11:33:36.961Z</time></trkpt><trkpt lat="46.054535" lon="13.5211559"><ele>303.0</ele><time>2026-05-03T11:33:37.959Z</time></trkpt><trkpt lat="46.0545061" lon="13.5209898"><ele>299.75</ele><time>2026-05-03T11:33:38.958Z</time></trkpt><trkpt lat="46.0544602" lon="13.5208361"><ele>296.5</ele><time>2026-05-03T11:33:39.958Z</time></trkpt><trkpt lat="46.0543901" lon="13.5207038"><ele>293.25</ele><time>2026-05-03T11:33:40.956Z</time></trkpt><trkpt lat="46.0542992" lon="13.5206001"><ele>290.0</ele><time>2026-05-03T11:33:41.956Z</time></trkpt><trkpt lat="46.0541977" lon="13.5205389"><ele>291.2</ele><time>2026-05-03T11:33:42.964Z</time></trkpt><trkpt lat="46.0540953" lon="13.5205263"><ele>292.4</ele><time>2026-05-03T11:33:43.965Z</time></trkpt><trkpt lat="46.0539982" lon="13.5205298"><ele>293.6</ele><time>2026-05-03T11:33:44.957Z</time></trkpt><trkpt lat="46.0539181" lon="13.5205191"><ele>294.8</ele><time>2026-05-03T11:33:45.958Z</time></trkpt><trkpt lat="46.0538539" lon="13.5204849"><ele>296.0</ele><time>2026-05-03T11:33:46.959Z</time></trkpt><trkpt lat="46.0538109" lon="13.520353"><ele>296.0</ele><time>2026-05-03T11:33:48.956Z</time></trkpt><trkpt lat="46.0539241" lon="13.5202958"><ele>296.0</ele><time>2026-05-03T11:33:50.958Z</time></trkpt><trkpt lat="46.0540148" lon="13.5203021"><ele>296.0</ele><time>2026-05-03T11:33:51.958Z</time></trkpt><trkpt lat="46.0540994" lon="13.5202959"><ele>296.0</ele><time>2026-05-03T11:33:52.958Z</time></trkpt><trkpt lat="46.0541965" lon="13.5202831"><ele>296.0</ele><time>2026-05-03T11:33:53.959Z</time></trkpt><trkpt lat="46.0542995" lon="13.5202628"><ele>293.40000000000003</ele><time>2026-05-03T11:33:54.966Z</time></trkpt><trkpt lat="46.0544014" lon="13.5202408"><ele>290.8</ele><time>2026-05-03T11:33:55.958Z</time></trkpt><trkpt lat="46.0545078" lon="13.5202125"><ele>288.20000000000005</ele><time>2026-05-03T11:33:56.956Z</time></trkpt><trkpt lat="46.0546097" lon="13.5201686"><ele>285.6</ele><time>2026-05-03T11:33:57.959Z</time></trkpt><trkpt lat="46.054701" lon="13.5200974"><ele>283.0</ele><time>2026-05-03T11:33:58.952Z</time></trkpt><trkpt lat="46.0547807" lon="13.5199817"><ele>283.0</ele><time>2026-05-03T11:33:59.969Z</time></trkpt><trkpt lat="46.0548305" lon="13.5198196"><ele>283.0</ele><time>2026-05-03T11:34:00.964Z</time></trkpt><trkpt lat="46.0548584" lon="13.5196377"><ele>283.0</ele><time>2026-05-03T11:34:01.958Z</time></trkpt><trkpt lat="46.0548926" lon="13.5194592"><ele>283.0</ele><time>2026-05-03T11:34:02.956Z</time></trkpt><trkpt lat="46.0549417" lon="13.5192898"><ele>283.0</ele><time>2026-05-03T11:34:03.967Z</time></trkpt><trkpt lat="46.0550026" lon="13.5191449"><ele>283.0</ele><time>2026-05-03T11:34:04.968Z</time></trkpt><trkpt lat="46.0550682" lon="13.5190066"><ele>283.0</ele><time>2026-05-03T11:34:05.956Z</time></trkpt><trkpt lat="46.0551374" lon="13.5188504"><ele>283.0</ele><time>2026-05-03T11:34:06.953Z</time></trkpt><trkpt lat="46.0552049" lon="13.51869"><ele>283.0</ele><time>2026-05-03T11:34:07.962Z</time></trkpt><trkpt lat="46.0552649" lon="13.5185151"><ele>283.0</ele><time>2026-05-03T11:34:08.957Z</time></trkpt><trkpt lat="46.0553237" lon="13.5183226"><ele>283.0</ele><time>2026-05-03T11:34:09.957Z</time></trkpt><trkpt lat="46.0553892" lon="13.5181131"><ele>283.0</ele><time>2026-05-03T11:34:10.962Z</time></trkpt><trkpt lat="46.0554551" lon="13.5178784"><ele>287.0</ele><time>2026-05-03T11:34:11.956Z</time></trkpt><trkpt lat="46.0555323" lon="13.5176393"><ele>291.0</ele><time>2026-05-03T11:34:12.953Z</time></trkpt><trkpt lat="46.0556123" lon="13.5174165"><ele>295.0</ele><time>2026-05-03T11:34:13.954Z</time></trkpt><trkpt lat="46.0557044" lon="13.5171996"><ele>288.0</ele><time>2026-05-03T11:34:14.969Z</time></trkpt><trkpt lat="46.0557972" lon="13.5170193"><ele>281.0</ele><time>2026-05-03T11:34:15.96Z</time></trkpt><trkpt lat="46.0558903" lon="13.5168432"><ele>274.0</ele><time>2026-05-03T11:34:16.962Z</time></trkpt><trkpt lat="46.0559802" lon="13.5166785"><ele>274.0</ele><time>2026-05-03T11:34:17.956Z</time></trkpt><trkpt lat="46.0560673" lon="13.5165191"><ele>274.0</ele><time>2026-05-03T11:34:18.957Z</time></trkpt><trkpt lat="46.0561546" lon="13.5163608"><ele>274.0</ele><time>2026-05-03T11:34:19.966Z</time></trkpt><trkpt lat="46.0562319" lon="13.5162021"><ele>274.0</ele><time>2026-05-03T11:34:20.958Z</time></trkpt><trkpt lat="46.0563119" lon="13.5160453"><ele>275.25</ele><time>2026-05-03T11:34:21.958Z</time></trkpt><trkpt lat="46.0563861" lon="13.5158846"><ele>276.5</ele><time>2026-05-03T11:34:22.958Z</time></trkpt><trkpt lat="46.056455" lon="13.5157199"><ele>277.75</ele><time>2026-05-03T11:34:23.96Z</time></trkpt><trkpt lat="46.0565252" lon="13.5155409"><ele>279.0</ele><time>2026-05-03T11:34:24.956Z</time></trkpt><trkpt lat="46.0565982" lon="13.5153754"><ele>276.75</ele><time>2026-05-03T11:34:25.959Z</time></trkpt><trkpt lat="46.056661" lon="13.5152198"><ele>274.5</ele><time>2026-05-03T11:34:26.958Z</time></trkpt><trkpt lat="46.0566899" lon="13.5150558"><ele>272.25</ele><time>2026-05-03T11:34:27.955Z</time></trkpt><trkpt lat="46.0567282" lon="13.5148948"><ele>270.0</ele><time>2026-05-03T11:34:28.957Z</time></trkpt><trkpt lat="46.0567694" lon="13.5147504"><ele>270.0</ele><time>2026-05-03T11:34:29.966Z</time></trkpt><trkpt lat="46.0568315" lon="13.5146125"><ele>270.0</ele><time>2026-05-03T11:34:30.956Z</time></trkpt><trkpt lat="46.0568905" lon="13.5144837"><ele>270.0</ele><time>2026-05-03T11:34:31.961Z</time></trkpt><trkpt lat="46.056946" lon="13.5143466"><ele>270.0</ele><time>2026-05-03T11:34:32.961Z</time></trkpt><trkpt lat="46.0569884" lon="13.5141913"><ele>270.0</ele><time>2026-05-03T11:34:33.962Z</time></trkpt><trkpt lat="46.057015" lon="13.5140255"><ele>268.75</ele><time>2026-05-03T11:34:34.955Z</time></trkpt><trkpt lat="46.0570546" lon="13.5138575"><ele>267.5</ele><time>2026-05-03T11:34:35.962Z</time></trkpt><trkpt lat="46.0571065" lon="13.5137018"><ele>266.25</ele><time>2026-05-03T11:34:36.968Z</time></trkpt><trkpt lat="46.0571706" lon="13.5135514"><ele>265.0</ele><time>2026-05-03T11:34:37.958Z</time></trkpt><trkpt lat="46.0572462" lon="13.5133985"><ele>263.5</ele><time>2026-05-03T11:34:38.964Z</time></trkpt><trkpt lat="46.0573291" lon="13.5132461"><ele>262.0</ele><time>2026-05-03T11:34:39.967Z</time></trkpt><trkpt lat="46.0574211" lon="13.5130938"><ele>260.5</ele><time>2026-05-03T11:34:40.953Z</time></trkpt><trkpt lat="46.0575179" lon="13.5129399"><ele>259.0</ele><time>2026-05-03T11:34:41.954Z</time></trkpt><trkpt lat="46.0576099" lon="13.5127822"><ele>256.5</ele><time>2026-05-03T11:34:42.953Z</time></trkpt><trkpt lat="46.0577" lon="13.5126289"><ele>254.0</ele><time>2026-05-03T11:34:43.961Z</time></trkpt><trkpt lat="46.0577873" lon="13.5124749"><ele>251.5</ele><time>2026-05-03T11:34:44.953Z</time></trkpt><trkpt lat="46.057873" lon="13.5123324"><ele>249.0</ele><time>2026-05-03T11:34:45.96Z</time></trkpt><trkpt lat="46.0579583" lon="13.5122028"><ele>249.0</ele><time>2026-05-03T11:34:46.96Z</time></trkpt><trkpt lat="46.0580462" lon="13.5120793"><ele>249.0</ele><time>2026-05-03T11:34:47.954Z</time></trkpt><trkpt lat="46.0581383" lon="13.5119693"><ele>249.0</ele><time>2026-05-03T11:34:48.968Z</time></trkpt><trkpt lat="46.0582315" lon="13.5118542"><ele>249.0</ele><time>2026-05-03T11:34:49.96Z</time></trkpt><trkpt lat="46.0583118" lon="13.5117306"><ele>249.39999999999998</ele><time>2026-05-03T11:34:50.967Z</time></trkpt><trkpt lat="46.058389" lon="13.5116116"><ele>249.79999999999998</ele><time>2026-05-03T11:34:51.96Z</time></trkpt><trkpt lat="46.0584554" lon="13.5114878"><ele>250.20000000000002</ele><time>2026-05-03T11:34:52.97Z</time></trkpt><trkpt lat="46.0585179" lon="13.5113542"><ele>250.60000000000002</ele><time>2026-05-03T11:34:53.965Z</time></trkpt><trkpt lat="46.058533" lon="13.5112114"><ele>251.0</ele><time>2026-05-03T11:34:54.956Z</time></trkpt><trkpt lat="46.058522" lon="13.5110579"><ele>248.75</ele><time>2026-05-03T11:34:55.964Z</time></trkpt><trkpt lat="46.058497" lon="13.510899"><ele>246.5</ele><time>2026-05-03T11:34:56.952Z</time></trkpt><trkpt lat="46.0584521" lon="13.5107367"><ele>244.25</ele><time>2026-05-03T11:34:57.964Z</time></trkpt><trkpt lat="46.0583871" lon="13.5105741"><ele>242.0</ele><time>2026-05-03T11:34:58.957Z</time></trkpt><trkpt lat="46.0583174" lon="13.5104154"><ele>236.25</ele><time>2026-05-03T11:34:59.962Z</time></trkpt><trkpt lat="46.0582401" lon="13.510253"><ele>230.5</ele><time>2026-05-03T11:35:00.965Z</time></trkpt><trkpt lat="46.058172" lon="13.5100806"><ele>224.75</ele><time>2026-05-03T11:35:01.956Z</time></trkpt><trkpt lat="46.0581088" lon="13.509905"><ele>219.0</ele><time>2026-05-03T11:35:02.954Z</time></trkpt><trkpt lat="46.0580481" lon="13.5097286"><ele>218.5</ele><time>2026-05-03T11:35:03.966Z</time></trkpt><trkpt lat="46.0580096" lon="13.5095408"><ele>218.0</ele><time>2026-05-03T11:35:04.959Z</time></trkpt><trkpt lat="46.0579872" lon="13.5093625"><ele>217.5</ele><time>2026-05-03T11:35:05.958Z</time></trkpt><trkpt lat="46.0579794" lon="13.5092092"><ele>217.0</ele><time>2026-05-03T11:35:06.957Z</time></trkpt><trkpt lat="46.0579815" lon="13.5090827"><ele>217.0</ele><time>2026-05-03T11:35:07.962Z</time></trkpt><trkpt lat="46.0579913" lon="13.5089895"><ele>217.0</ele><time>2026-05-03T11:35:08.957Z</time></trkpt><trkpt lat="46.0579856" lon="13.5088678"><ele>217.0</ele><time>2026-05-03T11:35:10.958Z</time></trkpt><trkpt lat="46.0579174" lon="13.5088638"><ele>217.0</ele><time>2026-05-03T11:35:13.967Z</time></trkpt><trkpt lat="46.05788" lon="13.509078"><ele>217.0</ele><time>2026-05-03T11:35:15.959Z</time></trkpt><trkpt lat="46.0578492" lon="13.5092319"><ele>217.0</ele><time>2026-05-03T11:35:16.956Z</time></trkpt><trkpt lat="46.0578163" lon="13.5093966"><ele>217.0</ele><time>2026-05-03T11:35:17.955Z</time></trkpt><trkpt lat="46.0577828" lon="13.5095617"><ele>217.0</ele><time>2026-05-03T11:35:18.952Z</time></trkpt><trkpt lat="46.0577509" lon="13.5097202"><ele>217.0</ele><time>2026-05-03T11:35:19.955Z</time></trkpt><trkpt lat="46.0577274" lon="13.5098683"><ele>217.33333333333331</ele><time>2026-05-03T11:35:20.955Z</time></trkpt><trkpt lat="46.057727" lon="13.5099936"><ele>217.66666666666666</ele><time>2026-05-03T11:35:21.964Z</time></trkpt><trkpt lat="46.0577202" lon="13.5100999"><ele>218.0</ele><time>2026-05-03T11:35:22.957Z</time></trkpt><trkpt lat="46.0576507" lon="13.5101963"><ele>218.33333333333331</ele><time>2026-05-03T11:35:24.97Z</time></trkpt><trkpt lat="46.0575656" lon="13.5101118"><ele>218.66666666666666</ele><time>2026-05-03T11:35:26.95Z</time></trkpt><trkpt lat="46.0575425" lon="13.5100196"><ele>219.0</ele><time>2026-05-03T11:35:27.965Z</time></trkpt><trkpt lat="46.0575233" lon="13.5098896"><ele>219.0</ele><time>2026-05-03T11:35:28.964Z</time></trkpt><trkpt lat="46.0574826" lon="13.5097189"><ele>219.0</ele><time>2026-05-03T11:35:29.961Z</time></trkpt><trkpt lat="46.057426" lon="13.5094833"><ele>219.0</ele><time>2026-05-03T11:35:30.961Z</time></trkpt><trkpt lat="46.0573573" lon="13.5091505"><ele>213.0</ele><time>2026-05-03T11:35:31.963Z</time></trkpt><trkpt lat="46.0572803" lon="13.5088722"><ele>207.0</ele><time>2026-05-03T11:35:32.962Z</time></trkpt><trkpt lat="46.0572048" lon="13.5086111"><ele>201.0</ele><time>2026-05-03T11:35:33.958Z</time></trkpt><trkpt lat="46.0571146" lon="13.5083888"><ele>198.33333333333331</ele><time>2026-05-03T11:35:34.954Z</time></trkpt><trkpt lat="46.0570479" lon="13.508174"><ele>195.66666666666666</ele><time>2026-05-03T11:35:35.957Z</time></trkpt><trkpt lat="46.0570197" lon="13.5079243"><ele>193.0</ele><time>2026-05-03T11:35:36.956Z</time></trkpt><trkpt lat="46.0570122" lon="13.5076742"><ele>191.5</ele><time>2026-05-03T11:35:37.964Z</time></trkpt><trkpt lat="46.0569941" lon="13.5074535"><ele>190.0</ele><time>2026-05-03T11:35:38.954Z</time></trkpt><trkpt lat="46.0569498" lon="13.5072575"><ele>188.5</ele><time>2026-05-03T11:35:39.955Z</time></trkpt><trkpt lat="46.0569215" lon="13.5070779"><ele>187.0</ele><time>2026-05-03T11:35:40.955Z</time></trkpt><trkpt lat="46.0569083" lon="13.5069246"><ele>185.5</ele><time>2026-05-03T11:35:41.953Z</time></trkpt><trkpt lat="46.056937" lon="13.5067705"><ele>184.0</ele><time>2026-05-03T11:35:42.966Z</time></trkpt><trkpt lat="46.0569649" lon="13.5066208"><ele>182.5</ele><time>2026-05-03T11:35:43.955Z</time></trkpt><trkpt lat="46.0569888" lon="13.5064105"><ele>181.0</ele><time>2026-05-03T11:35:44.963Z</time></trkpt><trkpt lat="46.0570352" lon="13.5061785"><ele>177.0</ele><time>2026-05-03T11:35:45.967Z</time></trkpt><trkpt lat="46.0570956" lon="13.5059119"><ele>173.0</ele><time>2026-05-03T11:35:46.959Z</time></trkpt><trkpt lat="46.0571731" lon="13.5056298"><ele>169.0</ele><time>2026-05-03T11:35:47.96Z</time></trkpt><trkpt lat="46.05727" lon="13.505328"><ele>169.33333333333334</ele><time>2026-05-03T11:35:48.965Z</time></trkpt><trkpt lat="46.0573571" lon="13.5050369"><ele>169.66666666666666</ele><time>2026-05-03T11:35:49.953Z</time></trkpt><trkpt lat="46.0574355" lon="13.5047523"><ele>170.0</ele><time>2026-05-03T11:35:50.956Z</time></trkpt><trkpt lat="46.0575104" lon="13.5044932"><ele>170.0</ele><time>2026-05-03T11:35:51.968Z</time></trkpt><trkpt lat="46.0575661" lon="13.5042317"><ele>170.0</ele><time>2026-05-03T11:35:52.955Z</time></trkpt><trkpt lat="46.0575826" lon="13.5039328"><ele>170.0</ele><time>2026-05-03T11:35:53.966Z</time></trkpt><trkpt lat="46.057604" lon="13.5036157"><ele>166.66666666666666</ele><time>2026-05-03T11:35:54.957Z</time></trkpt><trkpt lat="46.057636" lon="13.5033251"><ele>163.33333333333334</ele><time>2026-05-03T11:35:55.957Z</time></trkpt><trkpt lat="46.0576732" lon="13.5030381"><ele>160.0</ele><time>2026-05-03T11:35:56.955Z</time></trkpt><trkpt lat="46.0576869" lon="13.5027586"><ele>157.66666666666669</ele><time>2026-05-03T11:35:57.961Z</time></trkpt><trkpt lat="46.0576979" lon="13.5024974"><ele>155.33333333333334</ele><time>2026-05-03T11:35:58.964Z</time></trkpt><trkpt lat="46.0577128" lon="13.5022402"><ele>153.0</ele><time>2026-05-03T11:35:59.957Z</time></trkpt><trkpt lat="46.0576988" lon="13.5019656"><ele>153.0</ele><time>2026-05-03T11:36:00.962Z</time></trkpt><trkpt lat="46.0576674" lon="13.5017062"><ele>153.0</ele><time>2026-05-03T11:36:01.967Z</time></trkpt><trkpt lat="46.0576008" lon="13.5014816"><ele>153.0</ele><time>2026-05-03T11:36:02.96Z</time></trkpt><trkpt lat="46.057496" lon="13.5012871"><ele>146.66666666666666</ele><time>2026-05-03T11:36:03.958Z</time></trkpt><trkpt lat="46.0573401" lon="13.5011273"><ele>140.33333333333331</ele><time>2026-05-03T11:36:04.958Z</time></trkpt><trkpt lat="46.0571668" lon="13.5009567"><ele>134.0</ele><time>2026-05-03T11:36:05.954Z</time></trkpt><trkpt lat="46.0570088" lon="13.5007688"><ele>134.0</ele><time>2026-05-03T11:36:06.955Z</time></trkpt><trkpt lat="46.05686" lon="13.5005792"><ele>134.0</ele><time>2026-05-03T11:36:07.965Z</time></trkpt><trkpt lat="46.0567315" lon="13.5003799"><ele>134.0</ele><time>2026-05-03T11:36:08.966Z</time></trkpt><trkpt lat="46.0566259" lon="13.500188"><ele>136.0</ele><time>2026-05-03T11:36:09.958Z</time></trkpt><trkpt lat="46.0565588" lon="13.5000062"><ele>138.0</ele><time>2026-05-03T11:36:10.959Z</time></trkpt><trkpt lat="46.0565295" lon="13.4998311"><ele>140.0</ele><time>2026-05-03T11:36:11.957Z</time></trkpt><trkpt lat="46.0565089" lon="13.499701"><ele>142.0</ele><time>2026-05-03T11:36:12.954Z</time></trkpt><trkpt lat="46.0564389" lon="13.4996151"><ele>142.0</ele><time>2026-05-03T11:36:14.961Z</time></trkpt><trkpt lat="46.056393" lon="13.4997844"><ele>142.0</ele><time>2026-05-03T11:36:16.952Z</time></trkpt><trkpt lat="46.0564138" lon="13.499925"><ele>142.0</ele><time>2026-05-03T11:36:17.963Z</time></trkpt><trkpt lat="46.0564734" lon="13.5000806"><ele>142.0</ele><time>2026-05-03T11:36:18.955Z</time></trkpt><trkpt lat="46.0565323" lon="13.5002299"><ele>142.0</ele><time>2026-05-03T11:36:19.958Z</time></trkpt><trkpt lat="46.0565586" lon="13.5003609"><ele>142.0</ele><time>2026-05-03T11:36:20.958Z</time></trkpt><trkpt lat="46.0565526" lon="13.5004594"><ele>142.0</ele><time>2026-05-03T11:36:21.956Z</time></trkpt><trkpt lat="46.0564545" lon="13.5004754"><ele>142.0</ele><time>2026-05-03T11:36:23.956Z</time></trkpt><trkpt lat="46.0563905" lon="13.5003688"><ele>142.0</ele><time>2026-05-03T11:36:24.966Z</time></trkpt><trkpt lat="46.0563357" lon="13.5002123"><ele>142.0</ele><time>2026-05-03T11:36:25.95Z</time></trkpt><trkpt lat="46.0562821" lon="13.5000412"><ele>142.0</ele><time>2026-05-03T11:36:26.957Z</time></trkpt><trkpt lat="46.0562349" lon="13.499856"><ele>142.0</ele><time>2026-05-03T11:36:27.961Z</time></trkpt><trkpt lat="46.0561953" lon="13.4996553"><ele>142.0</ele><time>2026-05-03T11:36:28.958Z</time></trkpt><trkpt lat="46.0561532" lon="13.499449"><ele>139.5</ele><time>2026-05-03T11:36:29.959Z</time></trkpt><trkpt lat="46.0561152" lon="13.4992442"><ele>137.0</ele><time>2026-05-03T11:36:30.956Z</time></trkpt><trkpt lat="46.0560806" lon="13.4990483"><ele>134.5</ele><time>2026-05-03T11:36:31.954Z</time></trkpt><trkpt lat="46.0560488" lon="13.4988437"><ele>132.0</ele><time>2026-05-03T11:36:32.958Z</time></trkpt><trkpt lat="46.0560057" lon="13.4986553"><ele>128.75</ele><time>2026-05-03T11:36:33.954Z</time></trkpt><trkpt lat="46.0559647" lon="13.4984638"><ele>125.5</ele><time>2026-05-03T11:36:34.962Z</time></trkpt><trkpt lat="46.0559189" lon="13.4982855"><ele>122.25</ele><time>2026-05-03T11:36:35.961Z</time></trkpt><trkpt lat="46.0558693" lon="13.4981296"><ele>119.0</ele><time>2026-05-03T11:36:36.958Z</time></trkpt><trkpt lat="46.0558051" lon="13.4980191"><ele>117.83333333333333</ele><time>2026-05-03T11:36:37.958Z</time></trkpt><trkpt lat="46.0557605" lon="13.4979311"><ele>116.66666666666666</ele><time>2026-05-03T11:36:38.962Z</time></trkpt><trkpt lat="46.0557362" lon="13.4978274"><ele>115.5</ele><time>2026-05-03T11:36:40.959Z</time></trkpt><trkpt lat="46.0558043" lon="13.4977834"><ele>114.33333333333334</ele><time>2026-05-03T11:36:42.957Z</time></trkpt><trkpt lat="46.0558753" lon="13.4977614"><ele>113.16666666666667</ele><time>2026-05-03T11:36:43.959Z</time></trkpt><trkpt lat="46.0559654" lon="13.4977262"><ele>112.0</ele><time>2026-05-03T11:36:44.957Z</time></trkpt><trkpt lat="46.0560587" lon="13.4976799"><ele>110.75</ele><time>2026-05-03T11:36:45.956Z</time></trkpt><trkpt lat="46.0561628" lon="13.4976231"><ele>109.5</ele><time>2026-05-03T11:36:46.955Z</time></trkpt><trkpt lat="46.0562656" lon="13.4975735"><ele>108.25</ele><time>2026-05-03T11:36:47.957Z</time></trkpt><trkpt lat="46.0563798" lon="13.4975253"><ele>107.0</ele><time>2026-05-03T11:36:48.965Z</time></trkpt><trkpt lat="46.0565002" lon="13.4974897"><ele>108.5</ele><time>2026-05-03T11:36:49.958Z</time></trkpt><trkpt lat="46.0566281" lon="13.4974679"><ele>110.0</ele><time>2026-05-03T11:36:50.955Z</time></trkpt><trkpt lat="46.056757" lon="13.4974551"><ele>111.5</ele><time>2026-05-03T11:36:51.955Z</time></trkpt><trkpt lat="46.056892" lon="13.497453"><ele>113.0</ele><time>2026-05-03T11:36:52.955Z</time></trkpt><trkpt lat="46.0570274" lon="13.4974647"><ele>113.0</ele><time>2026-05-03T11:36:53.965Z</time></trkpt><trkpt lat="46.0571568" lon="13.4974898"><ele>113.0</ele><time>2026-05-03T11:36:54.976Z</time></trkpt><trkpt lat="46.0572832" lon="13.4975397"><ele>113.0</ele><time>2026-05-03T11:36:55.957Z</time></trkpt><trkpt lat="46.0574035" lon="13.4976233"><ele>113.0</ele><time>2026-05-03T11:36:56.959Z</time></trkpt><trkpt lat="46.0575206" lon="13.4977292"><ele>111.75</ele><time>2026-05-03T11:36:57.954Z</time></trkpt><trkpt lat="46.0576449" lon="13.4978096"><ele>110.5</ele><time>2026-05-03T11:36:58.953Z</time></trkpt><trkpt lat="46.0577728" lon="13.4978742"><ele>109.25</ele><time>2026-05-03T11:36:59.963Z</time></trkpt><trkpt lat="46.0579086" lon="13.4979264"><ele>108.0</ele><time>2026-05-03T11:37:00.961Z</time></trkpt><trkpt lat="46.058047" lon="13.4979825"><ele>111.75</ele><time>2026-05-03T11:37:01.96Z</time></trkpt><trkpt lat="46.0581872" lon="13.4980452"><ele>115.5</ele><time>2026-05-03T11:37:02.961Z</time></trkpt><trkpt lat="46.0583247" lon="13.4981145"><ele>119.25</ele><time>2026-05-03T11:37:03.955Z</time></trkpt><trkpt lat="46.0584556" lon="13.498193"><ele>123.0</ele><time>2026-05-03T11:37:04.955Z</time></trkpt><trkpt lat="46.0585714" lon="13.4982785"><ele>123.0</ele><time>2026-05-03T11:37:05.959Z</time></trkpt><trkpt lat="46.0586792" lon="13.4983888"><ele>123.0</ele><time>2026-05-03T11:37:06.959Z</time></trkpt><trkpt lat="46.058777" lon="13.4985285"><ele>123.0</ele><time>2026-05-03T11:37:07.957Z</time></trkpt><trkpt lat="46.0588568" lon="13.4987063"><ele>123.0</ele><time>2026-05-03T11:37:08.952Z</time></trkpt><trkpt lat="46.0589349" lon="13.4988989"><ele>135.66666666666666</ele><time>2026-05-03T11:37:09.955Z</time></trkpt><trkpt lat="46.0590046" lon="13.499098"><ele>148.33333333333331</ele><time>2026-05-03T11:37:10.961Z</time></trkpt><trkpt lat="46.0590559" lon="13.4992937"><ele>161.0</ele><time>2026-05-03T11:37:11.959Z</time></trkpt><trkpt lat="46.059089" lon="13.4995188"><ele>167.66666666666666</ele><time>2026-05-03T11:37:12.958Z</time></trkpt><trkpt lat="46.0591144" lon="13.499735"><ele>174.33333333333334</ele><time>2026-05-03T11:37:13.955Z</time></trkpt><trkpt lat="46.0591412" lon="13.4999497"><ele>181.0</ele><time>2026-05-03T11:37:14.968Z</time></trkpt><trkpt lat="46.0591729" lon="13.5001582"><ele>166.0</ele><time>2026-05-03T11:37:15.955Z</time></trkpt><trkpt lat="46.0592009" lon="13.5003879"><ele>151.0</ele><time>2026-05-03T11:37:16.955Z</time></trkpt><trkpt lat="46.0592337" lon="13.5006202"><ele>136.0</ele><time>2026-05-03T11:37:17.958Z</time></trkpt><trkpt lat="46.0592727" lon="13.5008409"><ele>136.0</ele><time>2026-05-03T11:37:18.956Z</time></trkpt><trkpt lat="46.0593362" lon="13.5010701"><ele>136.0</ele><time>2026-05-03T11:37:19.963Z</time></trkpt><trkpt lat="46.0594163" lon="13.5012751"><ele>136.0</ele><time>2026-05-03T11:37:20.958Z</time></trkpt><trkpt lat="46.0595112" lon="13.5014731"><ele>130.0</ele><time>2026-05-03T11:37:21.958Z</time></trkpt><trkpt lat="46.0596237" lon="13.5016484"><ele>124.0</ele><time>2026-05-03T11:37:22.956Z</time></trkpt><trkpt lat="46.0597635" lon="13.5017824"><ele>118.0</ele><time>2026-05-03T11:37:23.953Z</time></trkpt><trkpt lat="46.0599546" lon="13.5018858"><ele>118.0</ele><time>2026-05-03T11:37:24.954Z</time></trkpt><trkpt lat="46.0601248" lon="13.5019992"><ele>118.0</ele><time>2026-05-03T11:37:25.977Z</time></trkpt><trkpt lat="46.0603101" lon="13.5021171"><ele>118.0</ele><time>2026-05-03T11:37:26.962Z</time></trkpt><trkpt lat="46.0604897" lon="13.5022197"><ele>118.33333333333334</ele><time>2026-05-03T11:37:27.961Z</time></trkpt><trkpt lat="46.0606521" lon="13.5023206"><ele>118.66666666666666</ele><time>2026-05-03T11:37:28.957Z</time></trkpt><trkpt lat="46.0608158" lon="13.5024284"><ele>119.0</ele><time>2026-05-03T11:37:29.957Z</time></trkpt><trkpt lat="46.0609656" lon="13.5025267"><ele>119.0</ele><time>2026-05-03T11:37:30.96Z</time></trkpt><trkpt lat="46.0611061" lon="13.5026274"><ele>119.0</ele><time>2026-05-03T11:37:31.961Z</time></trkpt><trkpt lat="46.061239" lon="13.5027391"><ele>119.0</ele><time>2026-05-03T11:37:32.956Z</time></trkpt><trkpt lat="46.0613653" lon="13.5028736"><ele>119.0</ele><time>2026-05-03T11:37:33.953Z</time></trkpt><trkpt lat="46.0614773" lon="13.5029856"><ele>119.0</ele><time>2026-05-03T11:37:34.96Z</time></trkpt><trkpt lat="46.0615819" lon="13.5031104"><ele>119.0</ele><time>2026-05-03T11:37:35.963Z</time></trkpt><trkpt lat="46.0616625" lon="13.5032662"><ele>119.0</ele><time>2026-05-03T11:37:36.954Z</time></trkpt><trkpt lat="46.0617214" lon="13.5034367"><ele>119.0</ele><time>2026-05-03T11:37:37.953Z</time></trkpt><trkpt lat="46.0617621" lon="13.5036181"><ele>119.0</ele><time>2026-05-03T11:37:38.965Z</time></trkpt><trkpt lat="46.0618059" lon="13.5038221"><ele>119.0</ele><time>2026-05-03T11:37:39.954Z</time></trkpt><trkpt lat="46.0618322" lon="13.5040215"><ele>119.0</ele><time>2026-05-03T11:37:40.961Z</time></trkpt><trkpt lat="46.0618348" lon="13.5042031"><ele>119.0</ele><time>2026-05-03T11:37:41.952Z</time></trkpt><trkpt lat="46.061792" lon="13.5043944"><ele>119.0</ele><time>2026-05-03T11:37:42.967Z</time></trkpt><trkpt lat="46.061725" lon="13.504571"><ele>119.0</ele><time>2026-05-03T11:37:43.956Z</time></trkpt><trkpt lat="46.0616405" lon="13.5047489"><ele>119.0</ele><time>2026-05-03T11:37:44.953Z</time></trkpt><trkpt lat="46.0615276" lon="13.5049247"><ele>133.33333333333331</ele><time>2026-05-03T11:37:45.956Z</time></trkpt><trkpt lat="46.0613996" lon="13.505085"><ele>147.66666666666666</ele><time>2026-05-03T11:37:46.952Z</time></trkpt><trkpt lat="46.0612855" lon="13.5052469"><ele>162.0</ele><time>2026-05-03T11:37:47.954Z</time></trkpt><trkpt lat="46.0611864" lon="13.5053896"><ele>156.6</ele><time>2026-05-03T11:37:48.949Z</time></trkpt><trkpt lat="46.0610997" lon="13.505502"><ele>151.2</ele><time>2026-05-03T11:37:49.959Z</time></trkpt><trkpt lat="46.0610322" lon="13.5056043"><ele>145.8</ele><time>2026-05-03T11:37:50.952Z</time></trkpt><trkpt lat="46.0609635" lon="13.5056967"><ele>140.4</ele><time>2026-05-03T11:37:51.958Z</time></trkpt><trkpt lat="46.0608583" lon="13.5057888"><ele>135.0</ele><time>2026-05-03T11:37:52.957Z</time></trkpt><trkpt lat="46.060763" lon="13.5058934"><ele>144.5</ele><time>2026-05-03T11:37:53.956Z</time></trkpt><trkpt lat="46.0606926" lon="13.5060077"><ele>154.0</ele><time>2026-05-03T11:37:54.956Z</time></trkpt><trkpt lat="46.0606298" lon="13.5061389"><ele>163.5</ele><time>2026-05-03T11:37:55.964Z</time></trkpt><trkpt lat="46.0605692" lon="13.5063057"><ele>173.0</ele><time>2026-05-03T11:37:56.964Z</time></trkpt><trkpt lat="46.0605056" lon="13.5064694"><ele>173.0</ele><time>2026-05-03T11:37:57.957Z</time></trkpt><trkpt lat="46.0604518" lon="13.5066118"><ele>173.0</ele><time>2026-05-03T11:37:58.96Z</time></trkpt><trkpt lat="46.0604053" lon="13.506741"><ele>173.0</ele><time>2026-05-03T11:37:59.963Z</time></trkpt><trkpt lat="46.0603611" lon="13.506866"><ele>173.0</ele><time>2026-05-03T11:38:00.951Z</time></trkpt><trkpt lat="46.0603207" lon="13.5070053"><ele>173.0</ele><time>2026-05-03T11:38:01.952Z</time></trkpt><trkpt lat="46.0603083" lon="13.5071768"><ele>173.75</ele><time>2026-05-03T11:38:02.968Z</time></trkpt><trkpt lat="46.0602993" lon="13.5073662"><ele>174.5</ele><time>2026-05-03T11:38:03.956Z</time></trkpt><trkpt lat="46.0603064" lon="13.5075636"><ele>175.25</ele><time>2026-05-03T11:38:04.956Z</time></trkpt><trkpt lat="46.0603277" lon="13.5077582"><ele>176.0</ele><time>2026-05-03T11:38:05.962Z</time></trkpt><trkpt lat="46.0603506" lon="13.5079496"><ele>176.0</ele><time>2026-05-03T11:38:06.956Z</time></trkpt><trkpt lat="46.0604103" lon="13.5081364"><ele>176.0</ele><time>2026-05-03T11:38:07.949Z</time></trkpt><trkpt lat="46.0604799" lon="13.5083138"><ele>176.0</ele><time>2026-05-03T11:38:08.952Z</time></trkpt><trkpt lat="46.0605484" lon="13.5084815"><ele>176.0</ele><time>2026-05-03T11:38:09.959Z</time></trkpt><trkpt lat="46.0605997" lon="13.5086571"><ele>180.0</ele><time>2026-05-03T11:38:10.954Z</time></trkpt><trkpt lat="46.0606537" lon="13.5088614"><ele>184.0</ele><time>2026-05-03T11:38:11.967Z</time></trkpt><trkpt lat="46.060709" lon="13.509082"><ele>188.0</ele><time>2026-05-03T11:38:12.957Z</time></trkpt><trkpt lat="46.0607618" lon="13.509313"><ele>171.66666666666666</ele><time>2026-05-03T11:38:13.952Z</time></trkpt><trkpt lat="46.0608145" lon="13.5095301"><ele>155.33333333333334</ele><time>2026-05-03T11:38:14.958Z</time></trkpt><trkpt lat="46.0608958" lon="13.5097297"><ele>139.0</ele><time>2026-05-03T11:38:15.964Z</time></trkpt><trkpt lat="46.060974" lon="13.5099293"><ele>139.0</ele><time>2026-05-03T11:38:16.955Z</time></trkpt><trkpt lat="46.061075" lon="13.5101192"><ele>139.0</ele><time>2026-05-03T11:38:17.964Z</time></trkpt><trkpt lat="46.0611908" lon="13.5103014"><ele>139.0</ele><time>2026-05-03T11:38:18.952Z</time></trkpt><trkpt lat="46.0613198" lon="13.5104766"><ele>133.66666666666669</ele><time>2026-05-03T11:38:19.957Z</time></trkpt><trkpt lat="46.0614525" lon="13.5106346"><ele>128.33333333333334</ele><time>2026-05-03T11:38:20.963Z</time></trkpt><trkpt lat="46.0615671" lon="13.5107803"><ele>123.0</ele><time>2026-05-03T11:38:21.958Z</time></trkpt><trkpt lat="46.0616761" lon="13.5109136"><ele>123.0</ele><time>2026-05-03T11:38:22.955Z</time></trkpt><trkpt lat="46.0617828" lon="13.5110699"><ele>123.0</ele><time>2026-05-03T11:38:23.957Z</time></trkpt><trkpt lat="46.0618712" lon="13.5112424"><ele>123.0</ele><time>2026-05-03T11:38:24.961Z</time></trkpt><trkpt lat="46.0619615" lon="13.5114072"><ele>123.0</ele><time>2026-05-03T11:38:25.961Z</time></trkpt><trkpt lat="46.0620532" lon="13.5115686"><ele>127.2</ele><time>2026-05-03T11:38:26.95Z</time></trkpt><trkpt lat="46.062109" lon="13.5117213"><ele>131.4</ele><time>2026-05-03T11:38:27.955Z</time></trkpt><trkpt lat="46.0621513" lon="13.5118673"><ele>135.60000000000002</ele><time>2026-05-03T11:38:28.964Z</time></trkpt><trkpt lat="46.0621783" lon="13.5119932"><ele>139.8</ele><time>2026-05-03T11:38:29.96Z</time></trkpt><trkpt lat="46.0621658" lon="13.5121551"><ele>144.0</ele><time>2026-05-03T11:38:30.951Z</time></trkpt><trkpt lat="46.0621088" lon="13.5123271"><ele>145.33333333333334</ele><time>2026-05-03T11:38:31.954Z</time></trkpt><trkpt lat="46.0620221" lon="13.512513"><ele>146.66666666666669</ele><time>2026-05-03T11:38:32.952Z</time></trkpt><trkpt lat="46.0619206" lon="13.5127235"><ele>148.0</ele><time>2026-05-03T11:38:33.961Z</time></trkpt><trkpt lat="46.0618247" lon="13.5129292"><ele>144.66666666666669</ele><time>2026-05-03T11:38:34.958Z</time></trkpt><trkpt lat="46.06174" lon="13.5131393"><ele>141.33333333333334</ele><time>2026-05-03T11:38:35.961Z</time></trkpt><trkpt lat="46.0616718" lon="13.5133522"><ele>138.0</ele><time>2026-05-03T11:38:36.959Z</time></trkpt><trkpt lat="46.061626" lon="13.513548"><ele>149.0</ele><time>2026-05-03T11:38:37.962Z</time></trkpt><trkpt lat="46.0616027" lon="13.5137345"><ele>160.0</ele><time>2026-05-03T11:38:38.96Z</time></trkpt><trkpt lat="46.0615792" lon="13.5139164"><ele>171.0</ele><time>2026-05-03T11:38:39.957Z</time></trkpt><trkpt lat="46.0615561" lon="13.5140986"><ele>182.0</ele><time>2026-05-03T11:38:40.949Z</time></trkpt><trkpt lat="46.0615665" lon="13.5142568"><ele>182.0</ele><time>2026-05-03T11:38:41.961Z</time></trkpt><trkpt lat="46.0615866" lon="13.5144088"><ele>182.0</ele><time>2026-05-03T11:38:42.958Z</time></trkpt><trkpt lat="46.0616257" lon="13.5145783"><ele>182.0</ele><time>2026-05-03T11:38:43.953Z</time></trkpt><trkpt lat="46.0616931" lon="13.5147707"><ele>182.0</ele><time>2026-05-03T11:38:44.956Z</time></trkpt><trkpt lat="46.0617679" lon="13.5149678"><ele>172.66666666666666</ele><time>2026-05-03T11:38:45.969Z</time></trkpt><trkpt lat="46.0618267" lon="13.5151949"><ele>163.33333333333334</ele><time>2026-05-03T11:38:46.96Z</time></trkpt><trkpt lat="46.0618957" lon="13.5154213"><ele>154.0</ele><time>2026-05-03T11:38:47.954Z</time></trkpt><trkpt lat="46.0619679" lon="13.5156369"><ele>154.0</ele><time>2026-05-03T11:38:48.962Z</time></trkpt><trkpt lat="46.0620397" lon="13.5158388"><ele>154.0</ele><time>2026-05-03T11:38:49.956Z</time></trkpt><trkpt lat="46.062104" lon="13.5160352"><ele>154.0</ele><time>2026-05-03T11:38:50.957Z</time></trkpt><trkpt lat="46.0621762" lon="13.5162265"><ele>159.0</ele><time>2026-05-03T11:38:51.953Z</time></trkpt><trkpt lat="46.0622484" lon="13.5164256"><ele>164.0</ele><time>2026-05-03T11:38:52.954Z</time></trkpt><trkpt lat="46.0623184" lon="13.5166161"><ele>169.0</ele><time>2026-05-03T11:38:53.96Z</time></trkpt><trkpt lat="46.0623826" lon="13.516824"><ele>169.0</ele><time>2026-05-03T11:38:54.955Z</time></trkpt><trkpt lat="46.0624354" lon="13.5170263"><ele>169.0</ele><time>2026-05-03T11:38:55.963Z</time></trkpt><trkpt lat="46.0624688" lon="13.517251"><ele>169.0</ele><time>2026-05-03T11:38:56.957Z</time></trkpt><trkpt lat="46.0625031" lon="13.5174814"><ele>161.0</ele><time>2026-05-03T11:38:57.957Z</time></trkpt><trkpt lat="46.0625353" lon="13.5177179"><ele>153.0</ele><time>2026-05-03T11:38:58.954Z</time></trkpt><trkpt lat="46.0625749" lon="13.517951"><ele>145.0</ele><time>2026-05-03T11:38:59.952Z</time></trkpt><trkpt lat="46.0626169" lon="13.5181924"><ele>145.0</ele><time>2026-05-03T11:39:00.958Z</time></trkpt><trkpt lat="46.0626781" lon="13.5184269"><ele>145.0</ele><time>2026-05-03T11:39:01.96Z</time></trkpt><trkpt lat="46.0627316" lon="13.5186713"><ele>145.0</ele><time>2026-05-03T11:39:02.956Z</time></trkpt><trkpt lat="46.0628063" lon="13.5189053"><ele>150.33333333333334</ele><time>2026-05-03T11:39:03.955Z</time></trkpt><trkpt lat="46.062873" lon="13.5191223"><ele>155.66666666666666</ele><time>2026-05-03T11:39:04.956Z</time></trkpt><trkpt lat="46.0629271" lon="13.5193243"><ele>161.0</ele><time>2026-05-03T11:39:05.956Z</time></trkpt><trkpt lat="46.0629905" lon="13.5195323"><ele>166.25</ele><time>2026-05-03T11:39:06.958Z</time></trkpt><trkpt lat="46.0630531" lon="13.519734"><ele>171.5</ele><time>2026-05-03T11:39:07.953Z</time></trkpt><trkpt lat="46.0631169" lon="13.5199273"><ele>176.75</ele><time>2026-05-03T11:39:08.953Z</time></trkpt><trkpt lat="46.0632049" lon="13.5200965"><ele>182.0</ele><time>2026-05-03T11:39:09.961Z</time></trkpt><trkpt lat="46.0632891" lon="13.52025"><ele>175.66666666666666</ele><time>2026-05-03T11:39:10.956Z</time></trkpt><trkpt lat="46.0633888" lon="13.5203779"><ele>169.33333333333334</ele><time>2026-05-03T11:39:11.957Z</time></trkpt><trkpt lat="46.0635276" lon="13.5205039"><ele>163.0</ele><time>2026-05-03T11:39:12.963Z</time></trkpt><trkpt lat="46.0636805" lon="13.5206248"><ele>163.0</ele><time>2026-05-03T11:39:13.96Z</time></trkpt><trkpt lat="46.0638213" lon="13.5207355"><ele>163.0</ele><time>2026-05-03T11:39:14.956Z</time></trkpt><trkpt lat="46.0639588" lon="13.5208517"><ele>163.0</ele><time>2026-05-03T11:39:15.954Z</time></trkpt><trkpt lat="46.0640919" lon="13.5209603"><ele>162.0</ele><time>2026-05-03T11:39:16.952Z</time></trkpt><trkpt lat="46.0642138" lon="13.5210685"><ele>161.0</ele><time>2026-05-03T11:39:17.971Z</time></trkpt><trkpt lat="46.064347" lon="13.5211907"><ele>160.0</ele><time>2026-05-03T11:39:18.954Z</time></trkpt><trkpt lat="46.0644553" lon="13.5213229"><ele>159.0</ele><time>2026-05-03T11:39:19.954Z</time></trkpt><trkpt lat="46.0645581" lon="13.5214517"><ele>159.0</ele><time>2026-05-03T11:39:20.952Z</time></trkpt><trkpt lat="46.0646476" lon="13.5215902"><ele>159.0</ele><time>2026-05-03T11:39:21.958Z</time></trkpt><trkpt lat="46.0647254" lon="13.5217141"><ele>159.0</ele><time>2026-05-03T11:39:22.955Z</time></trkpt><trkpt lat="46.0648" lon="13.5218434"><ele>159.0</ele><time>2026-05-03T11:39:23.952Z</time></trkpt><trkpt lat="46.0648789" lon="13.5219717"><ele>154.5</ele><time>2026-05-03T11:39:24.954Z</time></trkpt><trkpt lat="46.0649432" lon="13.5220987"><ele>150.0</ele><time>2026-05-03T11:39:25.951Z</time></trkpt><trkpt lat="46.0650056" lon="13.5222326"><ele>145.5</ele><time>2026-05-03T11:39:26.958Z</time></trkpt><trkpt lat="46.0650735" lon="13.522386"><ele>141.0</ele><time>2026-05-03T11:39:27.956Z</time></trkpt><trkpt lat="46.0651246" lon="13.5225599"><ele>141.0</ele><time>2026-05-03T11:39:28.954Z</time></trkpt><trkpt lat="46.0651781" lon="13.5227377"><ele>141.0</ele><time>2026-05-03T11:39:29.954Z</time></trkpt><trkpt lat="46.0652299" lon="13.5229312"><ele>141.0</ele><time>2026-05-03T11:39:30.952Z</time></trkpt><trkpt lat="46.0652922" lon="13.5231312"><ele>141.0</ele><time>2026-05-03T11:39:31.956Z</time></trkpt><trkpt lat="46.0653537" lon="13.5233485"><ele>145.0</ele><time>2026-05-03T11:39:32.956Z</time></trkpt><trkpt lat="46.0654191" lon="13.5235498"><ele>149.0</ele><time>2026-05-03T11:39:33.959Z</time></trkpt><trkpt lat="46.0654836" lon="13.5237361"><ele>153.0</ele><time>2026-05-03T11:39:34.954Z</time></trkpt><trkpt lat="46.065538" lon="13.5239177"><ele>157.0</ele><time>2026-05-03T11:39:35.963Z</time></trkpt><trkpt lat="46.0655992" lon="13.5240881"><ele>158.25</ele><time>2026-05-03T11:39:36.948Z</time></trkpt><trkpt lat="46.065689" lon="13.5242479"><ele>159.5</ele><time>2026-05-03T11:39:37.954Z</time></trkpt><trkpt lat="46.0658106" lon="13.5243855"><ele>160.75</ele><time>2026-05-03T11:39:38.953Z</time></trkpt><trkpt lat="46.0659184" lon="13.5245334"><ele>162.0</ele><time>2026-05-03T11:39:39.954Z</time></trkpt><trkpt lat="46.0660232" lon="13.5246611"><ele>159.5</ele><time>2026-05-03T11:39:40.958Z</time></trkpt><trkpt lat="46.0661145" lon="13.5247747"><ele>157.0</ele><time>2026-05-03T11:39:41.959Z</time></trkpt><trkpt lat="46.0662022" lon="13.5249235"><ele>154.5</ele><time>2026-05-03T11:39:42.952Z</time></trkpt><trkpt lat="46.0662887" lon="13.525099"><ele>152.0</ele><time>2026-05-03T11:39:43.95Z</time></trkpt><trkpt lat="46.066377" lon="13.5252776"><ele>148.0</ele><time>2026-05-03T11:39:44.953Z</time></trkpt><trkpt lat="46.0664532" lon="13.5254705"><ele>144.0</ele><time>2026-05-03T11:39:45.954Z</time></trkpt><trkpt lat="46.0665205" lon="13.5256604"><ele>140.0</ele><time>2026-05-03T11:39:46.959Z</time></trkpt><trkpt lat="46.0665907" lon="13.5258454"><ele>136.0</ele><time>2026-05-03T11:39:47.96Z</time></trkpt><trkpt lat="46.0666489" lon="13.5260285"><ele>136.25</ele><time>2026-05-03T11:39:48.953Z</time></trkpt><trkpt lat="46.066682" lon="13.5262309"><ele>136.5</ele><time>2026-05-03T11:39:49.962Z</time></trkpt><trkpt lat="46.0666976" lon="13.5264305"><ele>136.75</ele><time>2026-05-03T11:39:50.957Z</time></trkpt><trkpt lat="46.0666883" lon="13.5266237"><ele>137.0</ele><time>2026-05-03T11:39:51.959Z</time></trkpt><trkpt lat="46.0666705" lon="13.5268159"><ele>137.0</ele><time>2026-05-03T11:39:52.956Z</time></trkpt><trkpt lat="46.0666521" lon="13.5270226"><ele>137.0</ele><time>2026-05-03T11:39:53.96Z</time></trkpt><trkpt lat="46.0666164" lon="13.5272229"><ele>137.0</ele><time>2026-05-03T11:39:54.948Z</time></trkpt><trkpt lat="46.066573" lon="13.5274412"><ele>137.0</ele><time>2026-05-03T11:39:55.96Z</time></trkpt><trkpt lat="46.0665223" lon="13.5276547"><ele>155.33333333333331</ele><time>2026-05-03T11:39:56.954Z</time></trkpt><trkpt lat="46.0664677" lon="13.5278605"><ele>173.66666666666666</ele><time>2026-05-03T11:39:57.95Z</time></trkpt><trkpt lat="46.066415" lon="13.5280745"><ele>192.0</ele><time>2026-05-03T11:39:58.96Z</time></trkpt><trkpt lat="46.0663593" lon="13.5283009"><ele>192.0</ele><time>2026-05-03T11:39:59.952Z</time></trkpt><trkpt lat="46.0663091" lon="13.5285114"><ele>192.0</ele><time>2026-05-03T11:40:00.964Z</time></trkpt><trkpt lat="46.0662709" lon="13.5287026"><ele>192.0</ele><time>2026-05-03T11:40:01.953Z</time></trkpt><trkpt lat="46.06624" lon="13.5289028"><ele>192.0</ele><time>2026-05-03T11:40:02.955Z</time></trkpt><trkpt lat="46.0662376" lon="13.5291088"><ele>192.0</ele><time>2026-05-03T11:40:03.952Z</time></trkpt><trkpt lat="46.0662333" lon="13.5293291"><ele>192.0</ele><time>2026-05-03T11:40:04.964Z</time></trkpt><trkpt lat="46.0662463" lon="13.5295219"><ele>192.0</ele><time>2026-05-03T11:40:05.956Z</time></trkpt><trkpt lat="46.0662643" lon="13.5296798"><ele>192.0</ele><time>2026-05-03T11:40:06.951Z</time></trkpt><trkpt lat="46.0662949" lon="13.5298203"><ele>193.8</ele><time>2026-05-03T11:40:07.955Z</time></trkpt><trkpt lat="46.0663015" lon="13.5299519"><ele>195.6</ele><time>2026-05-03T11:40:08.966Z</time></trkpt><trkpt lat="46.0663401" lon="13.5300588"><ele>197.4</ele><time>2026-05-03T11:40:09.949Z</time></trkpt><trkpt lat="46.0664112" lon="13.5301953"><ele>199.20000000000002</ele><time>2026-05-03T11:40:10.95Z</time></trkpt><trkpt lat="46.0664773" lon="13.530322"><ele>201.0</ele><time>2026-05-03T11:40:11.955Z</time></trkpt><trkpt lat="46.066553" lon="13.5304294"><ele>193.20000000000002</ele><time>2026-05-03T11:40:12.964Z</time></trkpt><trkpt lat="46.0666279" lon="13.5305281"><ele>185.4</ele><time>2026-05-03T11:40:13.958Z</time></trkpt><trkpt lat="46.0667211" lon="13.5306072"><ele>177.6</ele><time>2026-05-03T11:40:14.96Z</time></trkpt><trkpt lat="46.0668205" lon="13.5306564"><ele>169.8</ele><time>2026-05-03T11:40:15.952Z</time></trkpt><trkpt lat="46.0669314" lon="13.530694"><ele>162.0</ele><time>2026-05-03T11:40:16.95Z</time></trkpt><trkpt lat="46.0670498" lon="13.5307275"><ele>162.0</ele><time>2026-05-03T11:40:17.948Z</time></trkpt><trkpt lat="46.0671695" lon="13.5307224"><ele>162.0</ele><time>2026-05-03T11:40:18.961Z</time></trkpt><trkpt lat="46.0673051" lon="13.530671"><ele>162.0</ele><time>2026-05-03T11:40:19.953Z</time></trkpt><trkpt lat="46.0674401" lon="13.5305946"><ele>162.0</ele><time>2026-05-03T11:40:20.959Z</time></trkpt><trkpt lat="46.0675833" lon="13.5305128"><ele>157.33333333333334</ele><time>2026-05-03T11:40:21.96Z</time></trkpt><trkpt lat="46.067735" lon="13.5304309"><ele>152.66666666666669</ele><time>2026-05-03T11:40:22.95Z</time></trkpt><trkpt lat="46.0678937" lon="13.5303446"><ele>148.0</ele><time>2026-05-03T11:40:23.956Z</time></trkpt><trkpt lat="46.068049" lon="13.530276"><ele>145.6</ele><time>2026-05-03T11:40:24.953Z</time></trkpt><trkpt lat="46.0681786" lon="13.5302278"><ele>143.20000000000002</ele><time>2026-05-03T11:40:25.962Z</time></trkpt><trkpt lat="46.0682873" lon="13.530206"><ele>140.8</ele><time>2026-05-03T11:40:26.955Z</time></trkpt><trkpt lat="46.0683726" lon="13.5302287"><ele>138.4</ele><time>2026-05-03T11:40:27.956Z</time></trkpt><trkpt lat="46.0684471" lon="13.5302595"><ele>136.0</ele><time>2026-05-03T11:40:28.959Z</time></trkpt><trkpt lat="46.0685185" lon="13.5303529"><ele>138.75</ele><time>2026-05-03T11:40:29.952Z</time></trkpt><trkpt lat="46.0686003" lon="13.5304951"><ele>141.5</ele><time>2026-05-03T11:40:30.961Z</time></trkpt><trkpt lat="46.0686994" lon="13.5306463"><ele>144.25</ele><time>2026-05-03T11:40:31.958Z</time></trkpt><trkpt lat="46.068815" lon="13.5307987"><ele>147.0</ele><time>2026-05-03T11:40:32.953Z</time></trkpt><trkpt lat="46.0689366" lon="13.5309535"><ele>147.0</ele><time>2026-05-03T11:40:33.958Z</time></trkpt><trkpt lat="46.0690655" lon="13.5311042"><ele>147.0</ele><time>2026-05-03T11:40:34.96Z</time></trkpt><trkpt lat="46.0691634" lon="13.5312367"><ele>147.0</ele><time>2026-05-03T11:40:35.953Z</time></trkpt><trkpt lat="46.06924" lon="13.5313694"><ele>147.0</ele><time>2026-05-03T11:40:36.955Z</time></trkpt><trkpt lat="46.0692878" lon="13.5314946"><ele>146.79999999999998</ele><time>2026-05-03T11:40:37.961Z</time></trkpt><trkpt lat="46.0693106" lon="13.531637"><ele>146.6</ele><time>2026-05-03T11:40:38.957Z</time></trkpt><trkpt lat="46.0693179" lon="13.5317733"><ele>146.39999999999998</ele><time>2026-05-03T11:40:39.962Z</time></trkpt><trkpt lat="46.0693022" lon="13.5319059"><ele>146.2</ele><time>2026-05-03T11:40:40.954Z</time></trkpt><trkpt lat="46.0692771" lon="13.5320367"><ele>146.0</ele><time>2026-05-03T11:40:41.957Z</time></trkpt><trkpt lat="46.0692405" lon="13.5321622"><ele>147.6</ele><time>2026-05-03T11:40:42.96Z</time></trkpt><trkpt lat="46.0691992" lon="13.5323012"><ele>149.2</ele><time>2026-05-03T11:40:43.964Z</time></trkpt><trkpt lat="46.0691719" lon="13.5324474"><ele>150.8</ele><time>2026-05-03T11:40:44.959Z</time></trkpt><trkpt lat="46.0691616" lon="13.5325932"><ele>152.4</ele><time>2026-05-03T11:40:45.953Z</time></trkpt><trkpt lat="46.0691596" lon="13.5327362"><ele>154.0</ele><time>2026-05-03T11:40:46.949Z</time></trkpt><trkpt lat="46.0691601" lon="13.5328729"><ele>156.2</ele><time>2026-05-03T11:40:47.953Z</time></trkpt><trkpt lat="46.0691486" lon="13.5330184"><ele>158.4</ele><time>2026-05-03T11:40:48.952Z</time></trkpt><trkpt lat="46.0691571" lon="13.5331504"><ele>160.6</ele><time>2026-05-03T11:40:49.956Z</time></trkpt><trkpt lat="46.0691776" lon="13.5332858"><ele>162.8</ele><time>2026-05-03T11:40:50.958Z</time></trkpt><trkpt lat="46.0692013" lon="13.5334198"><ele>165.0</ele><time>2026-05-03T11:40:51.961Z</time></trkpt><trkpt lat="46.0692321" lon="13.5335506"><ele>165.0</ele><time>2026-05-03T11:40:52.955Z</time></trkpt><trkpt lat="46.0692598" lon="13.5336777"><ele>165.0</ele><time>2026-05-03T11:40:53.959Z</time></trkpt><trkpt lat="46.0692907" lon="13.5338028"><ele>165.0</ele><time>2026-05-03T11:40:54.954Z</time></trkpt><trkpt lat="46.069328" lon="13.5339272"><ele>165.0</ele><time>2026-05-03T11:40:55.963Z</time></trkpt><trkpt lat="46.0693699" lon="13.5340499"><ele>165.0</ele><time>2026-05-03T11:40:56.953Z</time></trkpt><trkpt lat="46.069417" lon="13.5341692"><ele>168.6</ele><time>2026-05-03T11:40:57.952Z</time></trkpt><trkpt lat="46.0694761" lon="13.5342939"><ele>172.2</ele><time>2026-05-03T11:40:58.954Z</time></trkpt><trkpt lat="46.0695412" lon="13.5344214"><ele>175.8</ele><time>2026-05-03T11:40:59.953Z</time></trkpt><trkpt lat="46.0696006" lon="13.534561"><ele>179.4</ele><time>2026-05-03T11:41:00.963Z</time></trkpt><trkpt lat="46.0696619" lon="13.5346976"><ele>183.0</ele><time>2026-05-03T11:41:01.953Z</time></trkpt><trkpt lat="46.0697252" lon="13.5348334"><ele>187.2</ele><time>2026-05-03T11:41:02.965Z</time></trkpt><trkpt lat="46.0697909" lon="13.5349666"><ele>191.4</ele><time>2026-05-03T11:41:03.949Z</time></trkpt><trkpt lat="46.0698607" lon="13.5350943"><ele>195.6</ele><time>2026-05-03T11:41:04.952Z</time></trkpt><trkpt lat="46.0699315" lon="13.5352043"><ele>199.79999999999998</ele><time>2026-05-03T11:41:05.952Z</time></trkpt><trkpt lat="46.0700026" lon="13.5352984"><ele>204.0</ele><time>2026-05-03T11:41:06.965Z</time></trkpt><trkpt lat="46.0700891" lon="13.5353621"><ele>198.5</ele><time>2026-05-03T11:41:07.96Z</time></trkpt><trkpt lat="46.0701946" lon="13.5354065"><ele>193.0</ele><time>2026-05-03T11:41:08.952Z</time></trkpt><trkpt lat="46.0702945" lon="13.5354514"><ele>187.5</ele><time>2026-05-03T11:41:09.953Z</time></trkpt><trkpt lat="46.0704122" lon="13.535493"><ele>182.0</ele><time>2026-05-03T11:41:10.952Z</time></trkpt><trkpt lat="46.0705388" lon="13.5355258"><ele>182.0</ele><time>2026-05-03T11:41:11.964Z</time></trkpt><trkpt lat="46.0706909" lon="13.5355411"><ele>182.0</ele><time>2026-05-03T11:41:12.952Z</time></trkpt><trkpt lat="46.0708365" lon="13.5355344"><ele>182.0</ele><time>2026-05-03T11:41:13.96Z</time></trkpt><trkpt lat="46.0709928" lon="13.5355185"><ele>177.0</ele><time>2026-05-03T11:41:14.95Z</time></trkpt><trkpt lat="46.0711435" lon="13.5354924"><ele>172.0</ele><time>2026-05-03T11:41:15.966Z</time></trkpt><trkpt lat="46.0713018" lon="13.5354681"><ele>167.0</ele><time>2026-05-03T11:41:16.955Z</time></trkpt><trkpt lat="46.071455" lon="13.5354283"><ele>160.75</ele><time>2026-05-03T11:41:17.951Z</time></trkpt><trkpt lat="46.0715885" lon="13.5353852"><ele>154.5</ele><time>2026-05-03T11:41:18.951Z</time></trkpt><trkpt lat="46.0717167" lon="13.5353443"><ele>148.25</ele><time>2026-05-03T11:41:19.95Z</time></trkpt><trkpt lat="46.0718281" lon="13.5353137"><ele>142.0</ele><time>2026-05-03T11:41:20.955Z</time></trkpt><trkpt lat="46.0719361" lon="13.5353006"><ele>141.6</ele><time>2026-05-03T11:41:21.96Z</time></trkpt><trkpt lat="46.0720402" lon="13.5353068"><ele>141.2</ele><time>2026-05-03T11:41:22.958Z</time></trkpt><trkpt lat="46.0721378" lon="13.535325"><ele>140.8</ele><time>2026-05-03T11:41:23.956Z</time></trkpt><trkpt lat="46.0722493" lon="13.5353771"><ele>140.4</ele><time>2026-05-03T11:41:24.955Z</time></trkpt><trkpt lat="46.0723682" lon="13.5354413"><ele>140.0</ele><time>2026-05-03T11:41:25.953Z</time></trkpt><trkpt lat="46.0724996" lon="13.5355368"><ele>146.33333333333331</ele><time>2026-05-03T11:41:26.95Z</time></trkpt><trkpt lat="46.0726302" lon="13.5356384"><ele>152.66666666666666</ele><time>2026-05-03T11:41:27.952Z</time></trkpt><trkpt lat="46.0727701" lon="13.5357571"><ele>159.0</ele><time>2026-05-03T11:41:28.959Z</time></trkpt><trkpt lat="46.0729131" lon="13.5358849"><ele>159.0</ele><time>2026-05-03T11:41:29.956Z</time></trkpt><trkpt lat="46.0730494" lon="13.5360229"><ele>159.0</ele><time>2026-05-03T11:41:30.963Z</time></trkpt><trkpt lat="46.0731948" lon="13.5361738"><ele>159.0</ele><time>2026-05-03T11:41:31.959Z</time></trkpt><trkpt lat="46.0733421" lon="13.5362939"><ele>160.0</ele><time>2026-05-03T11:41:32.95Z</time></trkpt><trkpt lat="46.0734719" lon="13.5363956"><ele>161.0</ele><time>2026-05-03T11:41:33.964Z</time></trkpt><trkpt lat="46.0735845" lon="13.5365141"><ele>162.0</ele><time>2026-05-03T11:41:34.958Z</time></trkpt><trkpt lat="46.0736934" lon="13.5366419"><ele>163.0</ele><time>2026-05-03T11:41:35.958Z</time></trkpt><trkpt lat="46.0738013" lon="13.5367715"><ele>163.0</ele><time>2026-05-03T11:41:36.963Z</time></trkpt><trkpt lat="46.0738965" lon="13.5369308"><ele>163.0</ele><time>2026-05-03T11:41:37.964Z</time></trkpt><trkpt lat="46.0739811" lon="13.5371037"><ele>163.0</ele><time>2026-05-03T11:41:38.959Z</time></trkpt><trkpt lat="46.0740682" lon="13.5373008"><ele>161.25</ele><time>2026-05-03T11:41:39.96Z</time></trkpt><trkpt lat="46.0741538" lon="13.5374867"><ele>159.5</ele><time>2026-05-03T11:41:40.95Z</time></trkpt><trkpt lat="46.0742349" lon="13.5376649"><ele>157.75</ele><time>2026-05-03T11:41:41.954Z</time></trkpt><trkpt lat="46.0743292" lon="13.5378193"><ele>156.0</ele><time>2026-05-03T11:41:42.958Z</time></trkpt><trkpt lat="46.0744303" lon="13.537975"><ele>162.66666666666666</ele><time>2026-05-03T11:41:43.955Z</time></trkpt><trkpt lat="46.0745377" lon="13.5381391"><ele>169.33333333333331</ele><time>2026-05-03T11:41:44.954Z</time></trkpt><trkpt lat="46.0746731" lon="13.5382838"><ele>176.0</ele><time>2026-05-03T11:41:45.961Z</time></trkpt><trkpt lat="46.0748165" lon="13.5384448"><ele>172.33333333333331</ele><time>2026-05-03T11:41:46.965Z</time></trkpt><trkpt lat="46.0749585" lon="13.5386006"><ele>168.66666666666666</ele><time>2026-05-03T11:41:47.95Z</time></trkpt><trkpt lat="46.0751078" lon="13.5387577"><ele>165.0</ele><time>2026-05-03T11:41:48.951Z</time></trkpt><trkpt lat="46.0752551" lon="13.5389095"><ele>165.0</ele><time>2026-05-03T11:41:49.955Z</time></trkpt><trkpt lat="46.0754036" lon="13.5390572"><ele>165.0</ele><time>2026-05-03T11:41:50.954Z</time></trkpt><trkpt lat="46.0755424" lon="13.539218"><ele>165.0</ele><time>2026-05-03T11:41:51.952Z</time></trkpt><trkpt lat="46.0756866" lon="13.5393605"><ele>165.66666666666666</ele><time>2026-05-03T11:41:52.962Z</time></trkpt><trkpt lat="46.0758354" lon="13.539498"><ele>166.33333333333331</ele><time>2026-05-03T11:41:53.956Z</time></trkpt><trkpt lat="46.0759807" lon="13.5396279"><ele>167.0</ele><time>2026-05-03T11:41:54.956Z</time></trkpt><trkpt lat="46.07611" lon="13.5397626"><ele>167.0</ele><time>2026-05-03T11:41:55.958Z</time></trkpt><trkpt lat="46.076225" lon="13.5399"><ele>167.0</ele><time>2026-05-03T11:41:56.954Z</time></trkpt><trkpt lat="46.0763203" lon="13.5400223"><ele>167.0</ele><time>2026-05-03T11:41:57.962Z</time></trkpt><trkpt lat="46.076396" lon="13.5401461"><ele>167.0</ele><time>2026-05-03T11:41:58.952Z</time></trkpt><trkpt lat="46.0764526" lon="13.5402852"><ele>174.25</ele><time>2026-05-03T11:41:59.963Z</time></trkpt><trkpt lat="46.0764861" lon="13.5404777"><ele>181.5</ele><time>2026-05-03T11:42:00.955Z</time></trkpt><trkpt lat="46.0765105" lon="13.5406927"><ele>188.75</ele><time>2026-05-03T11:42:01.954Z</time></trkpt><trkpt lat="46.0765197" lon="13.5408629"><ele>196.0</ele><time>2026-05-03T11:42:02.95Z</time></trkpt><trkpt lat="46.0765222" lon="13.5410072"><ele>196.0</ele><time>2026-05-03T11:42:03.95Z</time></trkpt><trkpt lat="46.0765043" lon="13.5411615"><ele>196.0</ele><time>2026-05-03T11:42:04.955Z</time></trkpt><trkpt lat="46.0764863" lon="13.5413192"><ele>196.0</ele><time>2026-05-03T11:42:05.961Z</time></trkpt><trkpt lat="46.0764713" lon="13.5414791"><ele>196.0</ele><time>2026-05-03T11:42:06.958Z</time></trkpt><trkpt lat="46.0764807" lon="13.5416458"><ele>196.0</ele><time>2026-05-03T11:42:07.951Z</time></trkpt><trkpt lat="46.0764983" lon="13.5418207"><ele>190.75</ele><time>2026-05-03T11:42:08.965Z</time></trkpt><trkpt lat="46.0765273" lon="13.5420009"><ele>185.5</ele><time>2026-05-03T11:42:09.948Z</time></trkpt><trkpt lat="46.0765798" lon="13.5421784"><ele>180.25</ele><time>2026-05-03T11:42:10.951Z</time></trkpt><trkpt lat="46.0766675" lon="13.5423564"><ele>175.0</ele><time>2026-05-03T11:42:11.966Z</time></trkpt><trkpt lat="46.0767576" lon="13.5425258"><ele>175.0</ele><time>2026-05-03T11:42:12.957Z</time></trkpt><trkpt lat="46.0768287" lon="13.5427048"><ele>175.0</ele><time>2026-05-03T11:42:13.951Z</time></trkpt><trkpt lat="46.0769118" lon="13.5428642"><ele>175.0</ele><time>2026-05-03T11:42:14.958Z</time></trkpt><trkpt lat="46.0770017" lon="13.5430128"><ele>175.0</ele><time>2026-05-03T11:42:15.96Z</time></trkpt><trkpt lat="46.0770949" lon="13.543153"><ele>173.75</ele><time>2026-05-03T11:42:16.948Z</time></trkpt><trkpt lat="46.0772034" lon="13.5432903"><ele>172.5</ele><time>2026-05-03T11:42:17.963Z</time></trkpt><trkpt lat="46.0773181" lon="13.5434114"><ele>171.25</ele><time>2026-05-03T11:42:18.956Z</time></trkpt><trkpt lat="46.0774478" lon="13.543517"><ele>170.0</ele><time>2026-05-03T11:42:19.966Z</time></trkpt><trkpt lat="46.0776238" lon="13.543593"><ele>170.0</ele><time>2026-05-03T11:42:20.949Z</time></trkpt><trkpt lat="46.0777989" lon="13.5436517"><ele>170.0</ele><time>2026-05-03T11:42:21.96Z</time></trkpt><trkpt lat="46.0779923" lon="13.5436881"><ele>170.0</ele><time>2026-05-03T11:42:22.967Z</time></trkpt><trkpt lat="46.0781942" lon="13.5436943"><ele>166.66666666666666</ele><time>2026-05-03T11:42:23.956Z</time></trkpt><trkpt lat="46.0783873" lon="13.5436907"><ele>163.33333333333334</ele><time>2026-05-03T11:42:24.962Z</time></trkpt><trkpt lat="46.0785988" lon="13.5437044"><ele>160.0</ele><time>2026-05-03T11:42:25.952Z</time></trkpt><trkpt lat="46.0788195" lon="13.5437446"><ele>167.0</ele><time>2026-05-03T11:42:26.953Z</time></trkpt><trkpt lat="46.0790336" lon="13.5437885"><ele>174.0</ele><time>2026-05-03T11:42:27.951Z</time></trkpt><trkpt lat="46.0792484" lon="13.5438219"><ele>181.0</ele><time>2026-05-03T11:42:28.953Z</time></trkpt><trkpt lat="46.0794609" lon="13.5438626"><ele>181.0</ele><time>2026-05-03T11:42:29.958Z</time></trkpt><trkpt lat="46.0796671" lon="13.5439059"><ele>181.0</ele><time>2026-05-03T11:42:30.958Z</time></trkpt><trkpt lat="46.0798576" lon="13.5439644"><ele>181.0</ele><time>2026-05-03T11:42:31.957Z</time></trkpt><trkpt lat="46.0800415" lon="13.544"><ele>178.33333333333334</ele><time>2026-05-03T11:42:32.95Z</time></trkpt><trkpt lat="46.0802246" lon="13.5440429"><ele>175.66666666666666</ele><time>2026-05-03T11:42:33.961Z</time></trkpt><trkpt lat="46.0804072" lon="13.5441092"><ele>173.0</ele><time>2026-05-03T11:42:34.952Z</time></trkpt><trkpt lat="46.0805962" lon="13.5441752"><ele>169.66666666666666</ele><time>2026-05-03T11:42:35.953Z</time></trkpt><trkpt lat="46.080771" lon="13.5442434"><ele>166.33333333333334</ele><time>2026-05-03T11:42:36.957Z</time></trkpt><trkpt lat="46.0809334" lon="13.5442997"><ele>163.0</ele><time>2026-05-03T11:42:37.954Z</time></trkpt><trkpt lat="46.0810852" lon="13.5443494"><ele>163.0</ele><time>2026-05-03T11:42:38.955Z</time></trkpt><trkpt lat="46.0812307" lon="13.544372"><ele>163.0</ele><time>2026-05-03T11:42:39.951Z</time></trkpt><trkpt lat="46.0813432" lon="13.5443763"><ele>163.0</ele><time>2026-05-03T11:42:40.951Z</time></trkpt><trkpt lat="46.0814398" lon="13.5443795"><ele>163.0</ele><time>2026-05-03T11:42:41.959Z</time></trkpt><trkpt lat="46.0815303" lon="13.5443664"><ele>163.0</ele><time>2026-05-03T11:42:42.955Z</time></trkpt><trkpt lat="46.0816218" lon="13.5443567"><ele>162.4</ele><time>2026-05-03T11:42:43.954Z</time></trkpt><trkpt lat="46.0817356" lon="13.5443724"><ele>161.8</ele><time>2026-05-03T11:42:44.96Z</time></trkpt><trkpt lat="46.0818386" lon="13.5443939"><ele>161.2</ele><time>2026-05-03T11:42:45.952Z</time></trkpt><trkpt lat="46.0819273" lon="13.5443903"><ele>160.6</ele><time>2026-05-03T11:42:46.952Z</time></trkpt><trkpt lat="46.082008" lon="13.5444009"><ele>160.0</ele><time>2026-05-03T11:42:47.962Z</time></trkpt><trkpt lat="46.0820725" lon="13.5444176"><ele>160.0</ele><time>2026-05-03T11:42:48.957Z</time></trkpt><trkpt lat="46.0821829" lon="13.5445019"><ele>160.0</ele><time>2026-05-03T11:42:50.949Z</time></trkpt><trkpt lat="46.0822189" lon="13.5445969"><ele>160.0</ele><time>2026-05-03T11:42:51.957Z</time></trkpt><trkpt lat="46.0822364" lon="13.5447168"><ele>160.0</ele><time>2026-05-03T11:42:52.955Z</time></trkpt><trkpt lat="46.0822396" lon="13.5448479"><ele>160.0</ele><time>2026-05-03T11:42:53.96Z</time></trkpt><trkpt lat="46.0822327" lon="13.5450041"><ele>164.8</ele><time>2026-05-03T11:42:54.954Z</time></trkpt><trkpt lat="46.0822292" lon="13.5451736"><ele>169.6</ele><time>2026-05-03T11:42:55.955Z</time></trkpt><trkpt lat="46.082233" lon="13.5453334"><ele>174.39999999999998</ele><time>2026-05-03T11:42:56.952Z</time></trkpt><trkpt lat="46.0822511" lon="13.5454817"><ele>179.2</ele><time>2026-05-03T11:42:57.955Z</time></trkpt><trkpt lat="46.082284" lon="13.5456122"><ele>184.0</ele><time>2026-05-03T11:42:58.951Z</time></trkpt><trkpt lat="46.0823324" lon="13.5457279"><ele>185.79999999999998</ele><time>2026-05-03T11:42:59.959Z</time></trkpt><trkpt lat="46.0823959" lon="13.5458344"><ele>187.6</ele><time>2026-05-03T11:43:00.954Z</time></trkpt><trkpt lat="46.0824489" lon="13.5459508"><ele>189.4</ele><time>2026-05-03T11:43:01.968Z</time></trkpt><trkpt lat="46.0824996" lon="13.5460736"><ele>191.2</ele><time>2026-05-03T11:43:02.952Z</time></trkpt><trkpt lat="46.0825378" lon="13.5462076"><ele>193.0</ele><time>2026-05-03T11:43:03.957Z</time></trkpt><trkpt lat="46.0825618" lon="13.5463628"><ele>188.25</ele><time>2026-05-03T11:43:04.955Z</time></trkpt><trkpt lat="46.0825743" lon="13.5465363"><ele>183.5</ele><time>2026-05-03T11:43:05.971Z</time></trkpt><trkpt lat="46.0825881" lon="13.5467177"><ele>178.75</ele><time>2026-05-03T11:43:06.954Z</time></trkpt><trkpt lat="46.0825995" lon="13.5469056"><ele>174.0</ele><time>2026-05-03T11:43:07.957Z</time></trkpt><trkpt lat="46.0826124" lon="13.5470933"><ele>174.0</ele><time>2026-05-03T11:43:08.955Z</time></trkpt><trkpt lat="46.0826227" lon="13.5472768"><ele>174.0</ele><time>2026-05-03T11:43:09.962Z</time></trkpt><trkpt lat="46.0826216" lon="13.5474639"><ele>174.0</ele><time>2026-05-03T11:43:10.959Z</time></trkpt><trkpt lat="46.0826109" lon="13.5476457"><ele>174.0</ele><time>2026-05-03T11:43:11.945Z</time></trkpt><trkpt lat="46.0825928" lon="13.5478344"><ele>172.5</ele><time>2026-05-03T11:43:12.96Z</time></trkpt><trkpt lat="46.0825639" lon="13.5480251"><ele>171.0</ele><time>2026-05-03T11:43:13.956Z</time></trkpt><trkpt lat="46.0825321" lon="13.548212"><ele>169.5</ele><time>2026-05-03T11:43:14.952Z</time></trkpt><trkpt lat="46.0824924" lon="13.5483893"><ele>168.0</ele><time>2026-05-03T11:43:15.954Z</time></trkpt><trkpt lat="46.0824422" lon="13.5485665"><ele>183.0</ele><time>2026-05-03T11:43:16.959Z</time></trkpt><trkpt lat="46.0823756" lon="13.5487474"><ele>198.0</ele><time>2026-05-03T11:43:17.955Z</time></trkpt><trkpt lat="46.0822826" lon="13.548931"><ele>213.0</ele><time>2026-05-03T11:43:18.955Z</time></trkpt><trkpt lat="46.082181" lon="13.5491034"><ele>213.0</ele><time>2026-05-03T11:43:19.953Z</time></trkpt><trkpt lat="46.0820897" lon="13.5492541"><ele>213.0</ele><time>2026-05-03T11:43:20.949Z</time></trkpt><trkpt lat="46.0819795" lon="13.5494201"><ele>213.0</ele><time>2026-05-03T11:43:21.956Z</time></trkpt><trkpt lat="46.0818838" lon="13.5495804"><ele>213.0</ele><time>2026-05-03T11:43:22.956Z</time></trkpt><trkpt lat="46.0818195" lon="13.5497224"><ele>212.60000000000002</ele><time>2026-05-03T11:43:23.954Z</time></trkpt><trkpt lat="46.0817669" lon="13.5498552"><ele>212.20000000000002</ele><time>2026-05-03T11:43:24.952Z</time></trkpt><trkpt lat="46.081736" lon="13.5500077"><ele>211.8</ele><time>2026-05-03T11:43:25.946Z</time></trkpt><trkpt lat="46.0817326" lon="13.5501534"><ele>211.4</ele><time>2026-05-03T11:43:26.953Z</time></trkpt><trkpt lat="46.0817409" lon="13.5503088"><ele>211.0</ele><time>2026-05-03T11:43:27.959Z</time></trkpt><trkpt lat="46.0817463" lon="13.5504574"><ele>216.16666666666666</ele><time>2026-05-03T11:43:28.96Z</time></trkpt><trkpt lat="46.0817535" lon="13.5505828"><ele>221.33333333333331</ele><time>2026-05-03T11:43:29.952Z</time></trkpt><trkpt lat="46.0817769" lon="13.5506982"><ele>226.5</ele><time>2026-05-03T11:43:30.952Z</time></trkpt><trkpt lat="46.0818211" lon="13.5508087"><ele>231.66666666666669</ele><time>2026-05-03T11:43:31.953Z</time></trkpt><trkpt lat="46.081862" lon="13.5509134"><ele>236.83333333333334</ele><time>2026-05-03T11:43:32.954Z</time></trkpt><trkpt lat="46.0819539" lon="13.5509623"><ele>242.0</ele><time>2026-05-03T11:43:33.953Z</time></trkpt><trkpt lat="46.0820917" lon="13.5510028"><ele>242.0</ele><time>2026-05-03T11:43:34.956Z</time></trkpt><trkpt lat="46.0821981" lon="13.551028"><ele>242.0</ele><time>2026-05-03T11:43:35.948Z</time></trkpt><trkpt lat="46.0823126" lon="13.551056"><ele>242.0</ele><time>2026-05-03T11:43:36.954Z</time></trkpt><trkpt lat="46.0824268" lon="13.5511367"><ele>242.0</ele><time>2026-05-03T11:43:37.95Z</time></trkpt><trkpt lat="46.0825203" lon="13.5512203"><ele>230.6</ele><time>2026-05-03T11:43:38.956Z</time></trkpt><trkpt lat="46.0825938" lon="13.5513092"><ele>219.2</ele><time>2026-05-03T11:43:39.964Z</time></trkpt><trkpt lat="46.0826666" lon="13.551404"><ele>207.8</ele><time>2026-05-03T11:43:40.955Z</time></trkpt><trkpt lat="46.0827497" lon="13.5515258"><ele>196.4</ele><time>2026-05-03T11:43:41.963Z</time></trkpt><trkpt lat="46.0828328" lon="13.5516266"><ele>185.0</ele><time>2026-05-03T11:43:42.946Z</time></trkpt><trkpt lat="46.0829317" lon="13.5517226"><ele>185.0</ele><time>2026-05-03T11:43:43.955Z</time></trkpt><trkpt lat="46.0830304" lon="13.5518133"><ele>185.0</ele><time>2026-05-03T11:43:44.952Z</time></trkpt><trkpt lat="46.0831329" lon="13.5518864"><ele>185.0</ele><time>2026-05-03T11:43:45.962Z</time></trkpt><trkpt lat="46.0832361" lon="13.5519605"><ele>185.0</ele><time>2026-05-03T11:43:46.957Z</time></trkpt><trkpt lat="46.083338" lon="13.552057"><ele>183.75</ele><time>2026-05-03T11:43:47.955Z</time></trkpt><trkpt lat="46.0834333" lon="13.5521676"><ele>182.5</ele><time>2026-05-03T11:43:48.953Z</time></trkpt><trkpt lat="46.0835173" lon="13.5522906"><ele>181.25</ele><time>2026-05-03T11:43:49.956Z</time></trkpt><trkpt lat="46.0835989" lon="13.552411"><ele>180.0</ele><time>2026-05-03T11:43:50.953Z</time></trkpt><trkpt lat="46.0836649" lon="13.5525329"><ele>180.0</ele><time>2026-05-03T11:43:51.955Z</time></trkpt><trkpt lat="46.0837081" lon="13.5526505"><ele>180.0</ele><time>2026-05-03T11:43:52.952Z</time></trkpt><trkpt lat="46.0837331" lon="13.5527597"><ele>180.0</ele><time>2026-05-03T11:43:53.959Z</time></trkpt><trkpt lat="46.0837419" lon="13.5528693"><ele>180.0</ele><time>2026-05-03T11:43:54.948Z</time></trkpt><trkpt lat="46.0837218" lon="13.5529865"><ele>180.0</ele><time>2026-05-03T11:43:55.952Z</time></trkpt><trkpt lat="46.0836853" lon="13.5531153"><ele>180.0</ele><time>2026-05-03T11:43:56.964Z</time></trkpt><trkpt lat="46.0836391" lon="13.5532525"><ele>184.25</ele><time>2026-05-03T11:43:57.956Z</time></trkpt><trkpt lat="46.0835966" lon="13.5534232"><ele>188.5</ele><time>2026-05-03T11:43:58.954Z</time></trkpt><trkpt lat="46.0835696" lon="13.5536098"><ele>192.75</ele><time>2026-05-03T11:43:59.954Z</time></trkpt><trkpt lat="46.0835412" lon="13.5538024"><ele>197.0</ele><time>2026-05-03T11:44:00.956Z</time></trkpt><trkpt lat="46.0835215" lon="13.5540091"><ele>197.33333333333334</ele><time>2026-05-03T11:44:01.954Z</time></trkpt><trkpt lat="46.0835083" lon="13.5542336"><ele>197.66666666666669</ele><time>2026-05-03T11:44:02.951Z</time></trkpt><trkpt lat="46.0835138" lon="13.5544803"><ele>198.0</ele><time>2026-05-03T11:44:03.949Z</time></trkpt><trkpt lat="46.0835141" lon="13.5547249"><ele>198.0</ele><time>2026-05-03T11:44:04.96Z</time></trkpt><trkpt lat="46.0835218" lon="13.5549507"><ele>198.0</ele><time>2026-05-03T11:44:05.954Z</time></trkpt><trkpt lat="46.0835294" lon="13.5551348"><ele>198.0</ele><time>2026-05-03T11:44:06.953Z</time></trkpt><trkpt lat="46.0835412" lon="13.5553166"><ele>198.0</ele><time>2026-05-03T11:44:07.959Z</time></trkpt><trkpt lat="46.0835509" lon="13.5554963"><ele>198.75</ele><time>2026-05-03T11:44:08.957Z</time></trkpt><trkpt lat="46.0835925" lon="13.5556648"><ele>199.5</ele><time>2026-05-03T11:44:09.959Z</time></trkpt><trkpt lat="46.0836485" lon="13.555831"><ele>200.25</ele><time>2026-05-03T11:44:10.952Z</time></trkpt><trkpt lat="46.0837237" lon="13.5559722"><ele>201.0</ele><time>2026-05-03T11:44:11.954Z</time></trkpt><trkpt lat="46.083821" lon="13.5560991"><ele>201.75</ele><time>2026-05-03T11:44:12.956Z</time></trkpt><trkpt lat="46.0839093" lon="13.556227"><ele>202.5</ele><time>2026-05-03T11:44:13.951Z</time></trkpt><trkpt lat="46.0840019" lon="13.556361"><ele>203.25</ele><time>2026-05-03T11:44:14.951Z</time></trkpt><trkpt lat="46.0840803" lon="13.5565098"><ele>204.0</ele><time>2026-05-03T11:44:15.956Z</time></trkpt><trkpt lat="46.0841516" lon="13.5566596"><ele>199.5</ele><time>2026-05-03T11:44:16.956Z</time></trkpt><trkpt lat="46.0842129" lon="13.5568054"><ele>195.0</ele><time>2026-05-03T11:44:17.954Z</time></trkpt><trkpt lat="46.0842588" lon="13.5569606"><ele>190.5</ele><time>2026-05-03T11:44:18.954Z</time></trkpt><trkpt lat="46.0842999" lon="13.5571344"><ele>186.0</ele><time>2026-05-03T11:44:19.951Z</time></trkpt><trkpt lat="46.084318" lon="13.5573191"><ele>186.0</ele><time>2026-05-03T11:44:20.953Z</time></trkpt><trkpt lat="46.0843446" lon="13.5574831"><ele>186.0</ele><time>2026-05-03T11:44:21.964Z</time></trkpt><trkpt lat="46.0843925" lon="13.5576291"><ele>186.0</ele><time>2026-05-03T11:44:22.958Z</time></trkpt><trkpt lat="46.0844606" lon="13.5577716"><ele>186.0</ele><time>2026-05-03T11:44:23.952Z</time></trkpt><trkpt lat="46.0845473" lon="13.5579121"><ele>192.25</ele><time>2026-05-03T11:44:24.95Z</time></trkpt><trkpt lat="46.0846385" lon="13.5580535"><ele>198.5</ele><time>2026-05-03T11:44:25.954Z</time></trkpt><trkpt lat="46.0847342" lon="13.5581961"><ele>204.75</ele><time>2026-05-03T11:44:26.95Z</time></trkpt><trkpt lat="46.0848225" lon="13.5583388"><ele>211.0</ele><time>2026-05-03T11:44:27.952Z</time></trkpt><trkpt lat="46.0849095" lon="13.5584718"><ele>207.20000000000002</ele><time>2026-05-03T11:44:28.961Z</time></trkpt><trkpt lat="46.0849808" lon="13.558592"><ele>203.4</ele><time>2026-05-03T11:44:29.949Z</time></trkpt><trkpt lat="46.0850511" lon="13.5587156"><ele>199.6</ele><time>2026-05-03T11:44:30.958Z</time></trkpt><trkpt lat="46.0851086" lon="13.5588349"><ele>195.8</ele><time>2026-05-03T11:44:31.95Z</time></trkpt><trkpt lat="46.0851482" lon="13.5589761"><ele>192.0</ele><time>2026-05-03T11:44:32.95Z</time></trkpt><trkpt lat="46.0851801" lon="13.5591242"><ele>192.0</ele><time>2026-05-03T11:44:33.947Z</time></trkpt><trkpt lat="46.0852048" lon="13.5592846"><ele>192.0</ele><time>2026-05-03T11:44:34.955Z</time></trkpt><trkpt lat="46.0852229" lon="13.559465"><ele>192.0</ele><time>2026-05-03T11:44:35.951Z</time></trkpt><trkpt lat="46.0852345" lon="13.559648"><ele>192.0</ele><time>2026-05-03T11:44:36.95Z</time></trkpt><trkpt lat="46.085241" lon="13.5598202"><ele>198.5</ele><time>2026-05-03T11:44:37.956Z</time></trkpt><trkpt lat="46.0852642" lon="13.5599991"><ele>205.0</ele><time>2026-05-03T11:44:38.952Z</time></trkpt><trkpt lat="46.0853026" lon="13.560182"><ele>211.5</ele><time>2026-05-03T11:44:39.951Z</time></trkpt><trkpt lat="46.0853733" lon="13.5603614"><ele>218.0</ele><time>2026-05-03T11:44:40.958Z</time></trkpt><trkpt lat="46.0854668" lon="13.5605312"><ele>211.25</ele><time>2026-05-03T11:44:41.952Z</time></trkpt><trkpt lat="46.0855668" lon="13.56069"><ele>204.5</ele><time>2026-05-03T11:44:42.952Z</time></trkpt><trkpt lat="46.085658" lon="13.5608417"><ele>197.75</ele><time>2026-05-03T11:44:43.954Z</time></trkpt><trkpt lat="46.0857398" lon="13.5609842"><ele>191.0</ele><time>2026-05-03T11:44:44.957Z</time></trkpt><trkpt lat="46.085815" lon="13.5611296"><ele>196.0</ele><time>2026-05-03T11:44:45.951Z</time></trkpt><trkpt lat="46.0858734" lon="13.561292"><ele>201.0</ele><time>2026-05-03T11:44:46.954Z</time></trkpt><trkpt lat="46.0859205" lon="13.5614803"><ele>206.0</ele><time>2026-05-03T11:44:47.959Z</time></trkpt><trkpt lat="46.085966" lon="13.5616669"><ele>211.0</ele><time>2026-05-03T11:44:48.952Z</time></trkpt><trkpt lat="46.0860299" lon="13.5618553"><ele>216.33333333333331</ele><time>2026-05-03T11:44:49.958Z</time></trkpt><trkpt lat="46.0861148" lon="13.5620445"><ele>221.66666666666669</ele><time>2026-05-03T11:44:50.959Z</time></trkpt><trkpt lat="46.0862432" lon="13.562223"><ele>227.0</ele><time>2026-05-03T11:44:51.952Z</time></trkpt><trkpt lat="46.0863762" lon="13.5623947"><ele>227.0</ele><time>2026-05-03T11:44:52.954Z</time></trkpt><trkpt lat="46.0864732" lon="13.5625919"><ele>227.0</ele><time>2026-05-03T11:44:53.949Z</time></trkpt><trkpt lat="46.0865577" lon="13.5627845"><ele>227.0</ele><time>2026-05-03T11:44:54.957Z</time></trkpt><trkpt lat="46.0866444" lon="13.5629548"><ele>223.5</ele><time>2026-05-03T11:44:55.957Z</time></trkpt><trkpt lat="46.0867197" lon="13.5631487"><ele>220.0</ele><time>2026-05-03T11:44:56.952Z</time></trkpt><trkpt lat="46.0867849" lon="13.563312"><ele>216.5</ele><time>2026-05-03T11:44:57.954Z</time></trkpt><trkpt lat="46.086824" lon="13.5635067"><ele>213.0</ele><time>2026-05-03T11:44:58.952Z</time></trkpt><trkpt lat="46.0868429" lon="13.5637124"><ele>213.0</ele><time>2026-05-03T11:44:59.954Z</time></trkpt><trkpt lat="46.0868385" lon="13.5639147"><ele>213.0</ele><time>2026-05-03T11:45:00.952Z</time></trkpt><trkpt lat="46.0868635" lon="13.5641055"><ele>213.0</ele><time>2026-05-03T11:45:01.951Z</time></trkpt><trkpt lat="46.0869169" lon="13.5642736"><ele>213.0</ele><time>2026-05-03T11:45:02.952Z</time></trkpt><trkpt lat="46.0870016" lon="13.5644104"><ele>214.8</ele><time>2026-05-03T11:45:03.95Z</time></trkpt><trkpt lat="46.0870945" lon="13.5645334"><ele>216.60000000000002</ele><time>2026-05-03T11:45:04.954Z</time></trkpt><trkpt lat="46.0871462" lon="13.5646657"><ele>218.39999999999998</ele><time>2026-05-03T11:45:05.961Z</time></trkpt><trkpt lat="46.087172" lon="13.5647695"><ele>220.2</ele><time>2026-05-03T11:45:06.955Z</time></trkpt><trkpt lat="46.0871549" lon="13.5648972"><ele>222.0</ele><time>2026-05-03T11:45:07.951Z</time></trkpt><trkpt lat="46.0871239" lon="13.5650479"><ele>222.0</ele><time>2026-05-03T11:45:08.953Z</time></trkpt><trkpt lat="46.0870974" lon="13.5652409"><ele>222.0</ele><time>2026-05-03T11:45:09.95Z</time></trkpt><trkpt lat="46.0870911" lon="13.5654522"><ele>222.0</ele><time>2026-05-03T11:45:10.95Z</time></trkpt><trkpt lat="46.0870952" lon="13.5656891"><ele>222.0</ele><time>2026-05-03T11:45:11.955Z</time></trkpt><trkpt lat="46.0870803" lon="13.5659623"><ele>222.25</ele><time>2026-05-03T11:45:12.963Z</time></trkpt><trkpt lat="46.0870906" lon="13.5661954"><ele>222.5</ele><time>2026-05-03T11:45:13.952Z</time></trkpt><trkpt lat="46.0871048" lon="13.5663957"><ele>222.75</ele><time>2026-05-03T11:45:14.962Z</time></trkpt><trkpt lat="46.087108" lon="13.5665897"><ele>223.0</ele><time>2026-05-03T11:45:15.951Z</time></trkpt><trkpt lat="46.0871326" lon="13.5667774"><ele>223.0</ele><time>2026-05-03T11:45:16.951Z</time></trkpt><trkpt lat="46.0871771" lon="13.5669824"><ele>223.0</ele><time>2026-05-03T11:45:17.95Z</time></trkpt><trkpt lat="46.0872275" lon="13.5671751"><ele>223.0</ele><time>2026-05-03T11:45:18.95Z</time></trkpt><trkpt lat="46.0872638" lon="13.5673504"><ele>223.0</ele><time>2026-05-03T11:45:19.954Z</time></trkpt><trkpt lat="46.0872597" lon="13.5675162"><ele>222.75</ele><time>2026-05-03T11:45:20.952Z</time></trkpt><trkpt lat="46.0872961" lon="13.5676562"><ele>222.5</ele><time>2026-05-03T11:45:21.958Z</time></trkpt><trkpt lat="46.0873656" lon="13.5678078"><ele>222.25</ele><time>2026-05-03T11:45:22.948Z</time></trkpt><trkpt lat="46.08744" lon="13.5679531"><ele>222.0</ele><time>2026-05-03T11:45:23.95Z</time></trkpt><trkpt lat="46.0875429" lon="13.5680984"><ele>220.5</ele><time>2026-05-03T11:45:24.951Z</time></trkpt><trkpt lat="46.0876546" lon="13.5682318"><ele>219.0</ele><time>2026-05-03T11:45:25.957Z</time></trkpt><trkpt lat="46.0877722" lon="13.5683594"><ele>217.5</ele><time>2026-05-03T11:45:26.952Z</time></trkpt><trkpt lat="46.0878999" lon="13.56847"><ele>216.0</ele><time>2026-05-03T11:45:27.951Z</time></trkpt><trkpt lat="46.0880145" lon="13.5685732"><ele>213.60000000000002</ele><time>2026-05-03T11:45:28.958Z</time></trkpt><trkpt lat="46.0880974" lon="13.5687206"><ele>211.20000000000002</ele><time>2026-05-03T11:45:29.961Z</time></trkpt><trkpt lat="46.0881822" lon="13.5688789"><ele>208.8</ele><time>2026-05-03T11:45:30.957Z</time></trkpt><trkpt lat="46.0882063" lon="13.5690308"><ele>206.39999999999998</ele><time>2026-05-03T11:45:31.953Z</time></trkpt><trkpt lat="46.0882295" lon="13.5691174"><ele>204.0</ele><time>2026-05-03T11:45:32.963Z</time></trkpt><trkpt lat="46.0882691" lon="13.5692123"><ele>204.0</ele><time>2026-05-03T11:45:33.952Z</time></trkpt><trkpt lat="46.0882901" lon="13.5693162"><ele>204.0</ele><time>2026-05-03T11:45:34.959Z</time></trkpt><trkpt lat="46.0883089" lon="13.5694273"><ele>204.0</ele><time>2026-05-03T11:45:35.951Z</time></trkpt><trkpt lat="46.0883179" lon="13.5695444"><ele>204.0</ele><time>2026-05-03T11:45:36.947Z</time></trkpt><trkpt lat="46.0883217" lon="13.5696659"><ele>204.0</ele><time>2026-05-03T11:45:37.96Z</time></trkpt><trkpt lat="46.0883237" lon="13.5697855"><ele>204.0</ele><time>2026-05-03T11:45:38.953Z</time></trkpt><trkpt lat="46.0883187" lon="13.5699133"><ele>205.2</ele><time>2026-05-03T11:45:39.947Z</time></trkpt><trkpt lat="46.0883108" lon="13.5700549"><ele>206.39999999999998</ele><time>2026-05-03T11:45:40.953Z</time></trkpt><trkpt lat="46.0883082" lon="13.5702049"><ele>207.6</ele><time>2026-05-03T11:45:41.956Z</time></trkpt><trkpt lat="46.0882999" lon="13.5703593"><ele>208.8</ele><time>2026-05-03T11:45:42.951Z</time></trkpt><trkpt lat="46.0882945" lon="13.5705205"><ele>210.0</ele><time>2026-05-03T11:45:43.946Z</time></trkpt><trkpt lat="46.0882911" lon="13.5706706"><ele>210.5</ele><time>2026-05-03T11:45:44.959Z</time></trkpt><trkpt lat="46.0882756" lon="13.5708234"><ele>211.0</ele><time>2026-05-03T11:45:45.95Z</time></trkpt><trkpt lat="46.0882436" lon="13.5709833"><ele>211.5</ele><time>2026-05-03T11:45:46.951Z</time></trkpt><trkpt lat="46.0882157" lon="13.5711517"><ele>212.0</ele><time>2026-05-03T11:45:47.951Z</time></trkpt><trkpt lat="46.0881816" lon="13.5713267"><ele>219.0</ele><time>2026-05-03T11:45:48.948Z</time></trkpt><trkpt lat="46.0881509" lon="13.5715305"><ele>226.0</ele><time>2026-05-03T11:45:49.951Z</time></trkpt><trkpt lat="46.088103" lon="13.5717326"><ele>233.0</ele><time>2026-05-03T11:45:50.947Z</time></trkpt><trkpt lat="46.088056" lon="13.5719222"><ele>240.0</ele><time>2026-05-03T11:45:51.957Z</time></trkpt><trkpt lat="46.0880301" lon="13.572074"><ele>240.0</ele><time>2026-05-03T11:45:52.955Z</time></trkpt><trkpt lat="46.08798" lon="13.5721941"><ele>240.0</ele><time>2026-05-03T11:45:53.964Z</time></trkpt><trkpt lat="46.0879202" lon="13.5723486"><ele>240.0</ele><time>2026-05-03T11:45:54.946Z</time></trkpt><trkpt lat="46.0878738" lon="13.5724686"><ele>240.0</ele><time>2026-05-03T11:45:55.95Z</time></trkpt><trkpt lat="46.0878547" lon="13.5725846"><ele>240.0</ele><time>2026-05-03T11:45:56.952Z</time></trkpt><trkpt lat="46.0878293" lon="13.5727068"><ele>240.0</ele><time>2026-05-03T11:45:57.95Z</time></trkpt><trkpt lat="46.087796" lon="13.5728173"><ele>240.0</ele><time>2026-05-03T11:45:58.949Z</time></trkpt><trkpt lat="46.0877674" lon="13.5729361"><ele>240.0</ele><time>2026-05-03T11:45:59.959Z</time></trkpt><trkpt lat="46.0877343" lon="13.5730528"><ele>240.0</ele><time>2026-05-03T11:46:00.95Z</time></trkpt><trkpt lat="46.0876995" lon="13.5731726"><ele>240.0</ele><time>2026-05-03T11:46:01.961Z</time></trkpt><trkpt lat="46.0876733" lon="13.5732798"><ele>240.0</ele><time>2026-05-03T11:46:02.964Z</time></trkpt><trkpt lat="46.0876566" lon="13.5733795"><ele>237.0</ele><time>2026-05-03T11:46:03.953Z</time></trkpt><trkpt lat="46.0877271" lon="13.5734936"><ele>234.0</ele><time>2026-05-03T11:46:05.952Z</time></trkpt><trkpt lat="46.0878216" lon="13.5734862"><ele>231.0</ele><time>2026-05-03T11:46:06.949Z</time></trkpt><trkpt lat="46.0879096" lon="13.5734634"><ele>228.0</ele><time>2026-05-03T11:46:07.958Z</time></trkpt><trkpt lat="46.0880044" lon="13.5734287"><ele>225.0</ele><time>2026-05-03T11:46:08.954Z</time></trkpt><trkpt lat="46.0880912" lon="13.5734109"><ele>225.00000000000003</ele><time>2026-05-03T11:46:09.955Z</time></trkpt><trkpt lat="46.0881744" lon="13.5734139"><ele>225.0</ele><time>2026-05-03T11:46:10.958Z</time></trkpt><trkpt lat="46.0882373" lon="13.5734365"><ele>225.00000000000003</ele><time>2026-05-03T11:46:11.959Z</time></trkpt><trkpt lat="46.0882868" lon="13.5734927"><ele>225.00000000000003</ele><time>2026-05-03T11:46:12.958Z</time></trkpt><trkpt lat="46.0883337" lon="13.573578"><ele>225.0</ele><time>2026-05-03T11:46:13.959Z</time></trkpt><trkpt lat="46.0883634" lon="13.5736734"><ele>225.00000000000003</ele><time>2026-05-03T11:46:14.958Z</time></trkpt><trkpt lat="46.0883867" lon="13.5737759"><ele>225.00000000000003</ele><time>2026-05-03T11:46:15.952Z</time></trkpt><trkpt lat="46.088405" lon="13.5738664"><ele>224.66666666666666</ele><time>2026-05-03T11:46:16.95Z</time></trkpt><trkpt lat="46.0884871" lon="13.5739904"><ele>224.33333333333331</ele><time>2026-05-03T11:46:18.95Z</time></trkpt><trkpt lat="46.0885518" lon="13.5740104"><ele>224.0</ele><time>2026-05-03T11:46:19.949Z</time></trkpt><trkpt lat="46.0886156" lon="13.5739845"><ele>223.66666666666666</ele><time>2026-05-03T11:46:20.955Z</time></trkpt><trkpt lat="46.0886772" lon="13.5739202"><ele>223.33333333333331</ele><time>2026-05-03T11:46:21.95Z</time></trkpt><trkpt lat="46.0887314" lon="13.5738166"><ele>223.0</ele><time>2026-05-03T11:46:22.949Z</time></trkpt><trkpt lat="46.0887791" lon="13.573703"><ele>222.2</ele><time>2026-05-03T11:46:23.958Z</time></trkpt><trkpt lat="46.0888165" lon="13.5735879"><ele>221.4</ele><time>2026-05-03T11:46:24.946Z</time></trkpt><trkpt lat="46.0888651" lon="13.5735234"><ele>220.59999999999997</ele><time>2026-05-03T11:46:25.952Z</time></trkpt><trkpt lat="46.0889834" lon="13.5735078"><ele>219.79999999999998</ele><time>2026-05-03T11:46:27.961Z</time></trkpt><trkpt lat="46.0890508" lon="13.5735742"><ele>219.0</ele><time>2026-05-03T11:46:28.953Z</time></trkpt><trkpt lat="46.0891215" lon="13.5736908"><ele>219.0</ele><time>2026-05-03T11:46:29.956Z</time></trkpt><trkpt lat="46.0892082" lon="13.5738043"><ele>219.0</ele><time>2026-05-03T11:46:30.948Z</time></trkpt><trkpt lat="46.0893072" lon="13.5739143"><ele>219.0</ele><time>2026-05-03T11:46:31.956Z</time></trkpt><trkpt lat="46.0894024" lon="13.5740224"><ele>219.0</ele><time>2026-05-03T11:46:32.948Z</time></trkpt><trkpt lat="46.0894937" lon="13.5741407"><ele>219.0</ele><time>2026-05-03T11:46:33.951Z</time></trkpt><trkpt lat="46.0895478" lon="13.5742766"><ele>218.99999999999997</ele><time>2026-05-03T11:46:34.95Z</time></trkpt><trkpt lat="46.0895816" lon="13.5744203"><ele>218.99999999999997</ele><time>2026-05-03T11:46:35.947Z</time></trkpt><trkpt lat="46.089604" lon="13.5745507"><ele>219.0</ele><time>2026-05-03T11:46:36.953Z</time></trkpt><trkpt lat="46.0896325" lon="13.5746435"><ele>219.0</ele><time>2026-05-03T11:46:37.961Z</time></trkpt><trkpt lat="46.0896787" lon="13.5747402"><ele>218.2</ele><time>2026-05-03T11:46:39.959Z</time></trkpt><trkpt lat="46.0897478" lon="13.5747417"><ele>217.39999999999998</ele><time>2026-05-03T11:46:41.957Z</time></trkpt><trkpt lat="46.0898723" lon="13.574694"><ele>216.6</ele><time>2026-05-03T11:46:43.95Z</time></trkpt><trkpt lat="46.0899359" lon="13.5746815"><ele>215.8</ele><time>2026-05-03T11:46:44.955Z</time></trkpt><trkpt lat="46.0900003" lon="13.5747041"><ele>215.0</ele><time>2026-05-03T11:46:45.946Z</time></trkpt><trkpt lat="46.090113" lon="13.5748398"><ele>215.0</ele><time>2026-05-03T11:46:47.952Z</time></trkpt><trkpt lat="46.0901732" lon="13.5749819"><ele>215.0</ele><time>2026-05-03T11:46:48.951Z</time></trkpt><trkpt lat="46.0902355" lon="13.5751659"><ele>215.0</ele><time>2026-05-03T11:46:49.952Z</time></trkpt><trkpt lat="46.0903026" lon="13.5753562"><ele>215.0</ele><time>2026-05-03T11:46:50.963Z</time></trkpt><trkpt lat="46.0903727" lon="13.5755426"><ele>219.75</ele><time>2026-05-03T11:46:51.963Z</time></trkpt><trkpt lat="46.0904469" lon="13.5757294"><ele>224.5</ele><time>2026-05-03T11:46:52.965Z</time></trkpt><trkpt lat="46.0905268" lon="13.5759146"><ele>229.25</ele><time>2026-05-03T11:46:53.951Z</time></trkpt><trkpt lat="46.0906065" lon="13.5760906"><ele>234.0</ele><time>2026-05-03T11:46:54.952Z</time></trkpt><trkpt lat="46.0906765" lon="13.5762648"><ele>237.25</ele><time>2026-05-03T11:46:55.951Z</time></trkpt><trkpt lat="46.0907493" lon="13.5764354"><ele>240.5</ele><time>2026-05-03T11:46:56.956Z</time></trkpt><trkpt lat="46.09082" lon="13.576584"><ele>243.75</ele><time>2026-05-03T11:46:57.952Z</time></trkpt><trkpt lat="46.0908872" lon="13.5766968"><ele>247.0</ele><time>2026-05-03T11:46:58.95Z</time></trkpt><trkpt lat="46.0909561" lon="13.5767636"><ele>241.33333333333331</ele><time>2026-05-03T11:46:59.952Z</time></trkpt><trkpt lat="46.0910304" lon="13.5767905"><ele>235.66666666666666</ele><time>2026-05-03T11:47:00.947Z</time></trkpt><trkpt lat="46.0911184" lon="13.5767764"><ele>230.0</ele><time>2026-05-03T11:47:01.953Z</time></trkpt><trkpt lat="46.0911983" lon="13.5767217"><ele>224.33333333333331</ele><time>2026-05-03T11:47:02.954Z</time></trkpt><trkpt lat="46.0912599" lon="13.5766459"><ele>218.66666666666666</ele><time>2026-05-03T11:47:03.955Z</time></trkpt><trkpt lat="46.0913079" lon="13.5765289"><ele>213.0</ele><time>2026-05-03T11:47:04.951Z</time></trkpt><trkpt lat="46.0913679" lon="13.5764171"><ele>212.99999999999997</ele><time>2026-05-03T11:47:05.954Z</time></trkpt><trkpt lat="46.0914285" lon="13.5763266"><ele>213.0</ele><time>2026-05-03T11:47:06.95Z</time></trkpt><trkpt lat="46.0914917" lon="13.5762584"><ele>213.0</ele><time>2026-05-03T11:47:07.949Z</time></trkpt><trkpt lat="46.091557" lon="13.5762463"><ele>213.0</ele><time>2026-05-03T11:47:08.958Z</time></trkpt><trkpt lat="46.0916213" lon="13.576243"><ele>213.0</ele><time>2026-05-03T11:47:09.953Z</time></trkpt><trkpt lat="46.0916809" lon="13.5762972"><ele>212.99999999999997</ele><time>2026-05-03T11:47:10.951Z</time></trkpt><trkpt lat="46.0917308" lon="13.5763686"><ele>213.0</ele><time>2026-05-03T11:47:11.96Z</time></trkpt><trkpt lat="46.0917743" lon="13.5765046"><ele>213.8</ele><time>2026-05-03T11:47:12.953Z</time></trkpt><trkpt lat="46.091816" lon="13.576673"><ele>214.60000000000002</ele><time>2026-05-03T11:47:13.961Z</time></trkpt><trkpt lat="46.0918616" lon="13.5768319"><ele>215.39999999999998</ele><time>2026-05-03T11:47:14.95Z</time></trkpt><trkpt lat="46.0919179" lon="13.5769485"><ele>216.2</ele><time>2026-05-03T11:47:15.953Z</time></trkpt><trkpt lat="46.0919959" lon="13.5770547"><ele>217.0</ele><time>2026-05-03T11:47:16.95Z</time></trkpt><trkpt lat="46.0920813" lon="13.5771462"><ele>221.0</ele><time>2026-05-03T11:47:17.953Z</time></trkpt><trkpt lat="46.0921798" lon="13.5772317"><ele>225.0</ele><time>2026-05-03T11:47:18.95Z</time></trkpt><trkpt lat="46.0922933" lon="13.5773122"><ele>229.0</ele><time>2026-05-03T11:47:19.95Z</time></trkpt><trkpt lat="46.0924032" lon="13.5774143"><ele>233.0</ele><time>2026-05-03T11:47:20.948Z</time></trkpt><trkpt lat="46.0925122" lon="13.5775287"><ele>233.0</ele><time>2026-05-03T11:47:21.949Z</time></trkpt><trkpt lat="46.0926116" lon="13.5776272"><ele>233.0</ele><time>2026-05-03T11:47:22.948Z</time></trkpt><trkpt lat="46.0927134" lon="13.5777113"><ele>233.0</ele><time>2026-05-03T11:47:23.954Z</time></trkpt><trkpt lat="46.0928273" lon="13.5777844"><ele>233.0</ele><time>2026-05-03T11:47:24.949Z</time></trkpt><trkpt lat="46.092935" lon="13.5778521"><ele>236.5</ele><time>2026-05-03T11:47:25.953Z</time></trkpt><trkpt lat="46.093052" lon="13.5779076"><ele>240.0</ele><time>2026-05-03T11:47:26.956Z</time></trkpt><trkpt lat="46.0931792" lon="13.5779634"><ele>243.5</ele><time>2026-05-03T11:47:27.958Z</time></trkpt><trkpt lat="46.0933015" lon="13.578025"><ele>247.0</ele><time>2026-05-03T11:47:28.951Z</time></trkpt><trkpt lat="46.0934252" lon="13.5780872"><ele>247.0</ele><time>2026-05-03T11:47:29.954Z</time></trkpt><trkpt lat="46.0935411" lon="13.5781383"><ele>247.0</ele><time>2026-05-03T11:47:30.948Z</time></trkpt><trkpt lat="46.093661" lon="13.5781753"><ele>247.0</ele><time>2026-05-03T11:47:31.949Z</time></trkpt><trkpt lat="46.0937684" lon="13.5782174"><ele>247.0</ele><time>2026-05-03T11:47:32.948Z</time></trkpt><trkpt lat="46.0938756" lon="13.5782625"><ele>247.0</ele><time>2026-05-03T11:47:33.964Z</time></trkpt><trkpt lat="46.093997" lon="13.5783127"><ele>247.0</ele><time>2026-05-03T11:47:34.955Z</time></trkpt><trkpt lat="46.0941106" lon="13.5783566"><ele>247.0</ele><time>2026-05-03T11:47:35.952Z</time></trkpt><trkpt lat="46.0942255" lon="13.5783656"><ele>247.0</ele><time>2026-05-03T11:47:36.949Z</time></trkpt><trkpt lat="46.0943311" lon="13.5783376"><ele>245.0</ele><time>2026-05-03T11:47:37.947Z</time></trkpt><trkpt lat="46.0944295" lon="13.578272"><ele>243.0</ele><time>2026-05-03T11:47:38.953Z</time></trkpt><trkpt lat="46.0945213" lon="13.578202"><ele>241.0</ele><time>2026-05-03T11:47:39.965Z</time></trkpt><trkpt lat="46.0945969" lon="13.5781623"><ele>239.0</ele><time>2026-05-03T11:47:40.95Z</time></trkpt><trkpt lat="46.0946876" lon="13.578217"><ele>237.0</ele><time>2026-05-03T11:47:42.952Z</time></trkpt><trkpt lat="46.0947267" lon="13.578289"><ele>237.0</ele><time>2026-05-03T11:47:43.95Z</time></trkpt><trkpt lat="46.0947654" lon="13.5783665"><ele>237.0</ele><time>2026-05-03T11:47:44.947Z</time></trkpt><trkpt lat="46.0948224" lon="13.5784313"><ele>237.0</ele><time>2026-05-03T11:47:45.951Z</time></trkpt><trkpt lat="46.0948846" lon="13.5784929"><ele>237.0</ele><time>2026-05-03T11:47:46.958Z</time></trkpt><trkpt lat="46.0949574" lon="13.578565"><ele>237.0</ele><time>2026-05-03T11:47:47.952Z</time></trkpt><trkpt lat="46.0950514" lon="13.5786437"><ele>237.0</ele><time>2026-05-03T11:47:48.951Z</time></trkpt><trkpt lat="46.0951538" lon="13.5787176"><ele>240.39999999999998</ele><time>2026-05-03T11:47:49.95Z</time></trkpt><trkpt lat="46.0952413" lon="13.5788022"><ele>243.79999999999998</ele><time>2026-05-03T11:47:50.958Z</time></trkpt><trkpt lat="46.0953155" lon="13.5788887"><ele>247.2</ele><time>2026-05-03T11:47:51.958Z</time></trkpt><trkpt lat="46.0953618" lon="13.578983"><ele>250.6</ele><time>2026-05-03T11:47:52.959Z</time></trkpt><trkpt lat="46.0953306" lon="13.579092"><ele>254.0</ele><time>2026-05-03T11:47:53.952Z</time></trkpt><trkpt lat="46.0952647" lon="13.5792084"><ele>254.0</ele><time>2026-05-03T11:47:54.959Z</time></trkpt><trkpt lat="46.0951743" lon="13.5793566"><ele>254.0</ele><time>2026-05-03T11:47:55.955Z</time></trkpt><trkpt lat="46.0951062" lon="13.5795239"><ele>254.0</ele><time>2026-05-03T11:47:56.958Z</time></trkpt><trkpt lat="46.0950327" lon="13.5797149"><ele>254.0</ele><time>2026-05-03T11:47:57.959Z</time></trkpt><trkpt lat="46.0949557" lon="13.5798946"><ele>258.0</ele><time>2026-05-03T11:47:58.952Z</time></trkpt><trkpt lat="46.0948897" lon="13.5800582"><ele>262.0</ele><time>2026-05-03T11:47:59.956Z</time></trkpt><trkpt lat="46.0948055" lon="13.5801887"><ele>266.0</ele><time>2026-05-03T11:48:00.967Z</time></trkpt><trkpt lat="46.0947286" lon="13.5803144"><ele>270.0</ele><time>2026-05-03T11:48:01.948Z</time></trkpt><trkpt lat="46.0946612" lon="13.5804268"><ele>270.0</ele><time>2026-05-03T11:48:02.949Z</time></trkpt><trkpt lat="46.0946137" lon="13.580523"><ele>270.0</ele><time>2026-05-03T11:48:03.95Z</time></trkpt><trkpt lat="46.0945848" lon="13.5806115"><ele>270.0</ele><time>2026-05-03T11:48:04.946Z</time></trkpt><trkpt lat="46.0945791" lon="13.5807051"><ele>270.0</ele><time>2026-05-03T11:48:05.959Z</time></trkpt><trkpt lat="46.0946204" lon="13.5808487"><ele>270.0</ele><time>2026-05-03T11:48:07.947Z</time></trkpt><trkpt lat="46.0947278" lon="13.5809449"><ele>270.0</ele><time>2026-05-03T11:48:09.946Z</time></trkpt><trkpt lat="46.0948449" lon="13.5809481"><ele>270.0</ele><time>2026-05-03T11:48:11.953Z</time></trkpt><trkpt lat="46.0949115" lon="13.5808738"><ele>270.0</ele><time>2026-05-03T11:48:12.958Z</time></trkpt><trkpt lat="46.0949911" lon="13.5807642"><ele>270.0</ele><time>2026-05-03T11:48:13.953Z</time></trkpt><trkpt lat="46.0950784" lon="13.5806603"><ele>270.0</ele><time>2026-05-03T11:48:14.952Z</time></trkpt><trkpt lat="46.0951597" lon="13.5805736"><ele>270.0</ele><time>2026-05-03T11:48:15.958Z</time></trkpt><trkpt lat="46.0952283" lon="13.5805169"><ele>266.0</ele><time>2026-05-03T11:48:16.95Z</time></trkpt><trkpt lat="46.095304" lon="13.5805065"><ele>262.0</ele><time>2026-05-03T11:48:17.959Z</time></trkpt><trkpt lat="46.0953841" lon="13.5805533"><ele>258.0</ele><time>2026-05-03T11:48:18.947Z</time></trkpt><trkpt lat="46.0954879" lon="13.5806362"><ele>254.0</ele><time>2026-05-03T11:48:19.951Z</time></trkpt><trkpt lat="46.0956049" lon="13.5807024"><ele>250.0</ele><time>2026-05-03T11:48:20.948Z</time></trkpt><trkpt lat="46.0957255" lon="13.5807526"><ele>248.8</ele><time>2026-05-03T11:48:21.954Z</time></trkpt><trkpt lat="46.0958269" lon="13.5808007"><ele>247.6</ele><time>2026-05-03T11:48:22.953Z</time></trkpt><trkpt lat="46.0959071" lon="13.5808615"><ele>246.39999999999998</ele><time>2026-05-03T11:48:23.949Z</time></trkpt><trkpt lat="46.095953" lon="13.5809683"><ele>245.2</ele><time>2026-05-03T11:48:24.949Z</time></trkpt><trkpt lat="46.0959423" lon="13.5811125"><ele>244.0</ele><time>2026-05-03T11:48:25.959Z</time></trkpt><trkpt lat="46.0959509" lon="13.5812587"><ele>247.39999999999998</ele><time>2026-05-03T11:48:26.955Z</time></trkpt><trkpt lat="46.0960142" lon="13.5813642"><ele>250.79999999999998</ele><time>2026-05-03T11:48:27.949Z</time></trkpt><trkpt lat="46.0961081" lon="13.5814169"><ele>254.20000000000002</ele><time>2026-05-03T11:48:28.955Z</time></trkpt><trkpt lat="46.0962123" lon="13.5814168"><ele>257.6</ele><time>2026-05-03T11:48:29.95Z</time></trkpt><trkpt lat="46.0963125" lon="13.5813898"><ele>261.0</ele><time>2026-05-03T11:48:30.948Z</time></trkpt><trkpt lat="46.0964244" lon="13.5813066"><ele>257.0</ele><time>2026-05-03T11:48:31.951Z</time></trkpt><trkpt lat="46.096505" lon="13.5811662"><ele>253.0</ele><time>2026-05-03T11:48:32.952Z</time></trkpt><trkpt lat="46.0965862" lon="13.5810286"><ele>249.0</ele><time>2026-05-03T11:48:33.949Z</time></trkpt><trkpt lat="46.0966683" lon="13.5809168"><ele>245.0</ele><time>2026-05-03T11:48:34.949Z</time></trkpt><trkpt lat="46.0967294" lon="13.5808196"><ele>245.0</ele><time>2026-05-03T11:48:35.95Z</time></trkpt><trkpt lat="46.0968447" lon="13.5807629"><ele>245.0</ele><time>2026-05-03T11:48:37.945Z</time></trkpt><trkpt lat="46.0969226" lon="13.5807983"><ele>245.0</ele><time>2026-05-03T11:48:38.951Z</time></trkpt><trkpt lat="46.097013" lon="13.5808436"><ele>245.0</ele><time>2026-05-03T11:48:39.949Z</time></trkpt><trkpt lat="46.0971152" lon="13.5808948"><ele>245.0</ele><time>2026-05-03T11:48:40.945Z</time></trkpt><trkpt lat="46.0972206" lon="13.5809577"><ele>245.0</ele><time>2026-05-03T11:48:41.951Z</time></trkpt><trkpt lat="46.0973209" lon="13.5810302"><ele>245.0</ele><time>2026-05-03T11:48:42.948Z</time></trkpt><trkpt lat="46.0974058" lon="13.5811098"><ele>245.0</ele><time>2026-05-03T11:48:43.947Z</time></trkpt><trkpt lat="46.097471" lon="13.5812246"><ele>245.0</ele><time>2026-05-03T11:48:44.954Z</time></trkpt><trkpt lat="46.097521" lon="13.5813492"><ele>245.0</ele><time>2026-05-03T11:48:45.951Z</time></trkpt><trkpt lat="46.0975027" lon="13.5815145"><ele>248.25</ele><time>2026-05-03T11:48:46.957Z</time></trkpt><trkpt lat="46.0975008" lon="13.5817237"><ele>251.5</ele><time>2026-05-03T11:48:47.958Z</time></trkpt><trkpt lat="46.0975272" lon="13.5819295"><ele>254.75</ele><time>2026-05-03T11:48:48.95Z</time></trkpt><trkpt lat="46.0975581" lon="13.5821313"><ele>258.0</ele><time>2026-05-03T11:48:49.949Z</time></trkpt><trkpt lat="46.0975741" lon="13.5823168"><ele>258.8</ele><time>2026-05-03T11:48:50.951Z</time></trkpt><trkpt lat="46.097596" lon="13.5824769"><ele>259.6</ele><time>2026-05-03T11:48:51.945Z</time></trkpt><trkpt lat="46.0976141" lon="13.5826149"><ele>260.4</ele><time>2026-05-03T11:48:52.956Z</time></trkpt><trkpt lat="46.0976142" lon="13.582739"><ele>261.2</ele><time>2026-05-03T11:48:53.953Z</time></trkpt><trkpt lat="46.0975874" lon="13.5828649"><ele>262.0</ele><time>2026-05-03T11:48:54.948Z</time></trkpt><trkpt lat="46.097544" lon="13.5830055"><ele>262.0</ele><time>2026-05-03T11:48:55.96Z</time></trkpt><trkpt lat="46.0975041" lon="13.5831687"><ele>262.0</ele><time>2026-05-03T11:48:56.945Z</time></trkpt><trkpt lat="46.0974585" lon="13.583356"><ele>262.0</ele><time>2026-05-03T11:48:57.952Z</time></trkpt><trkpt lat="46.0974189" lon="13.5835705"><ele>262.0</ele><time>2026-05-03T11:48:58.951Z</time></trkpt><trkpt lat="46.0973877" lon="13.5837989"><ele>262.2</ele><time>2026-05-03T11:48:59.949Z</time></trkpt><trkpt lat="46.0973865" lon="13.5840177"><ele>262.4</ele><time>2026-05-03T11:49:00.952Z</time></trkpt><trkpt lat="46.0973707" lon="13.5841797"><ele>262.6</ele><time>2026-05-03T11:49:01.96Z</time></trkpt><trkpt lat="46.0973679" lon="13.5842818"><ele>262.8</ele><time>2026-05-03T11:49:02.955Z</time></trkpt><trkpt lat="46.097418" lon="13.5844254"><ele>263.0</ele><time>2026-05-03T11:49:04.957Z</time></trkpt><trkpt lat="46.097522" lon="13.5844664"><ele>263.0</ele><time>2026-05-03T11:49:06.957Z</time></trkpt><trkpt lat="46.0976382" lon="13.5844257"><ele>263.0</ele><time>2026-05-03T11:49:08.948Z</time></trkpt><trkpt lat="46.0977095" lon="13.5842919"><ele>263.0</ele><time>2026-05-03T11:49:10.961Z</time></trkpt><trkpt lat="46.0977473" lon="13.5841927"><ele>263.0</ele><time>2026-05-03T11:49:11.95Z</time></trkpt><trkpt lat="46.0977945" lon="13.5840774"><ele>263.0</ele><time>2026-05-03T11:49:12.951Z</time></trkpt><trkpt lat="46.0978474" lon="13.5839551"><ele>263.0</ele><time>2026-05-03T11:49:13.955Z</time></trkpt><trkpt lat="46.0978975" lon="13.5838233"><ele>263.0</ele><time>2026-05-03T11:49:14.947Z</time></trkpt><trkpt lat="46.097947" lon="13.5836904"><ele>263.0</ele><time>2026-05-03T11:49:15.95Z</time></trkpt><trkpt lat="46.0979943" lon="13.5835563"><ele>263.0</ele><time>2026-05-03T11:49:16.949Z</time></trkpt><trkpt lat="46.0980288" lon="13.5834448"><ele>263.0</ele><time>2026-05-03T11:49:17.952Z</time></trkpt><trkpt lat="46.0980687" lon="13.5833612"><ele>262.8</ele><time>2026-05-03T11:49:18.952Z</time></trkpt><trkpt lat="46.0981731" lon="13.5832925"><ele>262.6</ele><time>2026-05-03T11:49:20.948Z</time></trkpt><trkpt lat="46.0982986" lon="13.5833314"><ele>262.4</ele><time>2026-05-03T11:49:22.949Z</time></trkpt><trkpt lat="46.0983786" lon="13.5833748"><ele>262.2</ele><time>2026-05-03T11:49:23.95Z</time></trkpt><trkpt lat="46.0984757" lon="13.583425"><ele>262.0</ele><time>2026-05-03T11:49:24.954Z</time></trkpt><trkpt lat="46.0985691" lon="13.5834681"><ele>262.2</ele><time>2026-05-03T11:49:25.949Z</time></trkpt><trkpt lat="46.0986595" lon="13.5835113"><ele>262.4</ele><time>2026-05-03T11:49:26.948Z</time></trkpt><trkpt lat="46.0987495" lon="13.5835781"><ele>262.6</ele><time>2026-05-03T11:49:27.953Z</time></trkpt><trkpt lat="46.0988248" lon="13.5836767"><ele>262.8</ele><time>2026-05-03T11:49:28.945Z</time></trkpt><trkpt lat="46.0988874" lon="13.5838163"><ele>263.0</ele><time>2026-05-03T11:49:29.95Z</time></trkpt><trkpt lat="46.0989534" lon="13.5839775"><ele>263.0</ele><time>2026-05-03T11:49:30.958Z</time></trkpt><trkpt lat="46.0990119" lon="13.5841366"><ele>263.0</ele><time>2026-05-03T11:49:31.948Z</time></trkpt><trkpt lat="46.099067" lon="13.5842895"><ele>263.0</ele><time>2026-05-03T11:49:32.96Z</time></trkpt><trkpt lat="46.0991124" lon="13.5844366"><ele>263.0</ele><time>2026-05-03T11:49:33.949Z</time></trkpt><trkpt lat="46.0991442" lon="13.584585"><ele>263.1666666666667</ele><time>2026-05-03T11:49:34.949Z</time></trkpt><trkpt lat="46.0991536" lon="13.5847242"><ele>263.33333333333337</ele><time>2026-05-03T11:49:35.948Z</time></trkpt><trkpt lat="46.0991399" lon="13.5848421"><ele>263.5</ele><time>2026-05-03T11:49:36.959Z</time></trkpt><trkpt lat="46.0991001" lon="13.5849468"><ele>263.6666666666667</ele><time>2026-05-03T11:49:37.948Z</time></trkpt><trkpt lat="46.0990448" lon="13.5850378"><ele>263.8333333333333</ele><time>2026-05-03T11:49:38.958Z</time></trkpt><trkpt lat="46.0989804" lon="13.5851025"><ele>264.0</ele><time>2026-05-03T11:49:39.947Z</time></trkpt><trkpt lat="46.0989116" lon="13.585153"><ele>264.0</ele><time>2026-05-03T11:49:52.956Z</time></trkpt><trkpt lat="46.0988533" lon="13.5851896"><ele>264.0</ele><time>2026-05-03T11:49:54.947Z</time></trkpt><trkpt lat="46.0987531" lon="13.5852962"><ele>264.0</ele><time>2026-05-03T11:49:56.96Z</time></trkpt><trkpt lat="46.0987054" lon="13.5854037"><ele>264.0</ele><time>2026-05-03T11:49:57.952Z</time></trkpt><trkpt lat="46.0987113" lon="13.5855166"><ele>264.0</ele><time>2026-05-03T11:49:58.946Z</time></trkpt><trkpt lat="46.0987372" lon="13.585633"><ele>264.0</ele><time>2026-05-03T11:49:59.96Z</time></trkpt><trkpt lat="46.0987715" lon="13.5857545"><ele>263.8</ele><time>2026-05-03T11:50:00.952Z</time></trkpt><trkpt lat="46.0987819" lon="13.5858981"><ele>263.59999999999997</ele><time>2026-05-03T11:50:01.96Z</time></trkpt><trkpt lat="46.0987753" lon="13.5860383"><ele>263.4</ele><time>2026-05-03T11:50:02.95Z</time></trkpt><trkpt lat="46.0987609" lon="13.5861795"><ele>263.2</ele><time>2026-05-03T11:50:03.947Z</time></trkpt><trkpt lat="46.098736" lon="13.5863117"><ele>263.0</ele><time>2026-05-03T11:50:04.947Z</time></trkpt><trkpt lat="46.0987054" lon="13.586428"><ele>263.5</ele><time>2026-05-03T11:50:05.955Z</time></trkpt><trkpt lat="46.0986756" lon="13.5865283"><ele>264.0</ele><time>2026-05-03T11:50:06.948Z</time></trkpt><trkpt lat="46.0986638" lon="13.5866221"><ele>264.5</ele><time>2026-05-03T11:50:07.948Z</time></trkpt><trkpt lat="46.0986913" lon="13.5867879"><ele>265.0</ele><time>2026-05-03T11:50:09.941Z</time></trkpt><trkpt lat="46.0987373" lon="13.5868694"><ele>265.5</ele><time>2026-05-03T11:50:10.954Z</time></trkpt><trkpt lat="46.0987969" lon="13.5869494"><ele>266.0</ele><time>2026-05-03T11:50:11.96Z</time></trkpt><trkpt lat="46.0988607" lon="13.5870208"><ele>266.0</ele><time>2026-05-03T11:50:12.952Z</time></trkpt><trkpt lat="46.0989221" lon="13.5870701"><ele>266.0</ele><time>2026-05-03T11:50:13.957Z</time></trkpt><trkpt lat="46.0990452" lon="13.5870682"><ele>266.0</ele><time>2026-05-03T11:50:15.954Z</time></trkpt><trkpt lat="46.0991033" lon="13.586996"><ele>266.0</ele><time>2026-05-03T11:50:16.965Z</time></trkpt><trkpt lat="46.09912" lon="13.5868887"><ele>266.0</ele><time>2026-05-03T11:50:17.949Z</time></trkpt><trkpt lat="46.0990936" lon="13.5867708"><ele>266.0</ele><time>2026-05-03T11:50:18.95Z</time></trkpt><trkpt lat="46.099046" lon="13.5866375"><ele>266.0</ele><time>2026-05-03T11:50:19.953Z</time></trkpt><trkpt lat="46.0990024" lon="13.5864907"><ele>266.0</ele><time>2026-05-03T11:50:20.953Z</time></trkpt><trkpt lat="46.0989735" lon="13.5863418"><ele>266.0</ele><time>2026-05-03T11:50:21.95Z</time></trkpt><trkpt lat="46.098956" lon="13.586179"><ele>266.0</ele><time>2026-05-03T11:50:22.947Z</time></trkpt><trkpt lat="46.0989442" lon="13.5860147"><ele>266.0</ele><time>2026-05-03T11:50:23.948Z</time></trkpt><trkpt lat="46.0989402" lon="13.5858548"><ele>265.6</ele><time>2026-05-03T11:50:24.957Z</time></trkpt><trkpt lat="46.0989401" lon="13.5857002"><ele>265.20000000000005</ele><time>2026-05-03T11:50:25.953Z</time></trkpt><trkpt lat="46.0989487" lon="13.5855408"><ele>264.79999999999995</ele><time>2026-05-03T11:50:26.957Z</time></trkpt><trkpt lat="46.0989613" lon="13.5853892"><ele>264.4</ele><time>2026-05-03T11:50:27.95Z</time></trkpt><trkpt lat="46.0989968" lon="13.5852453"><ele>264.0</ele><time>2026-05-03T11:50:28.951Z</time></trkpt><trkpt lat="46.0990429" lon="13.5851112"><ele>261.8</ele><time>2026-05-03T11:50:29.949Z</time></trkpt><trkpt lat="46.0990961" lon="13.5849883"><ele>259.59999999999997</ele><time>2026-05-03T11:50:30.955Z</time></trkpt><trkpt lat="46.0991519" lon="13.5848825"><ele>257.4</ele><time>2026-05-03T11:50:31.949Z</time></trkpt><trkpt lat="46.0992259" lon="13.5848093"><ele>255.2</ele><time>2026-05-03T11:50:32.952Z</time></trkpt><trkpt lat="46.0993104" lon="13.5847449"><ele>253.0</ele><time>2026-05-03T11:50:33.948Z</time></trkpt><trkpt lat="46.0994191" lon="13.5847212"><ele>253.0</ele><time>2026-05-03T11:50:34.952Z</time></trkpt><trkpt lat="46.0995248" lon="13.5846993"><ele>253.0</ele><time>2026-05-03T11:50:35.946Z</time></trkpt><trkpt lat="46.0996304" lon="13.5846859"><ele>253.0</ele><time>2026-05-03T11:50:36.948Z</time></trkpt><trkpt lat="46.0997374" lon="13.5846954"><ele>253.0</ele><time>2026-05-03T11:50:37.946Z</time></trkpt><trkpt lat="46.0998358" lon="13.5847655"><ele>253.0</ele><time>2026-05-03T11:50:38.958Z</time></trkpt><trkpt lat="46.0999156" lon="13.5848656"><ele>249.2</ele><time>2026-05-03T11:50:39.947Z</time></trkpt><trkpt lat="46.1000056" lon="13.5849326"><ele>245.4</ele><time>2026-05-03T11:50:40.951Z</time></trkpt><trkpt lat="46.1000817" lon="13.5849357"><ele>241.59999999999997</ele><time>2026-05-03T11:50:41.954Z</time></trkpt><trkpt lat="46.100101" lon="13.5848108"><ele>237.79999999999998</ele><time>2026-05-03T11:50:43.949Z</time></trkpt><trkpt lat="46.1000292" lon="13.5847047"><ele>234.0</ele><time>2026-05-03T11:50:44.948Z</time></trkpt><trkpt lat="46.0999427" lon="13.584581"><ele>238.5</ele><time>2026-05-03T11:50:45.959Z</time></trkpt><trkpt lat="46.0998581" lon="13.584449"><ele>243.0</ele><time>2026-05-03T11:50:46.949Z</time></trkpt><trkpt lat="46.0997752" lon="13.5843283"><ele>247.5</ele><time>2026-05-03T11:50:47.945Z</time></trkpt><trkpt lat="46.0996918" lon="13.5842062"><ele>252.0</ele><time>2026-05-03T11:50:48.959Z</time></trkpt><trkpt lat="46.0996135" lon="13.5840747"><ele>252.0</ele><time>2026-05-03T11:50:49.949Z</time></trkpt><trkpt lat="46.0995418" lon="13.5839325"><ele>252.0</ele><time>2026-05-03T11:50:50.957Z</time></trkpt><trkpt lat="46.0994793" lon="13.5837828"><ele>252.0</ele><time>2026-05-03T11:50:51.947Z</time></trkpt><trkpt lat="46.0994196" lon="13.5836287"><ele>252.0</ele><time>2026-05-03T11:50:52.954Z</time></trkpt><trkpt lat="46.0993623" lon="13.5834799"><ele>248.2</ele><time>2026-05-03T11:50:53.958Z</time></trkpt><trkpt lat="46.099318" lon="13.5833273"><ele>244.39999999999998</ele><time>2026-05-03T11:50:54.953Z</time></trkpt><trkpt lat="46.0992905" lon="13.5831762"><ele>240.60000000000002</ele><time>2026-05-03T11:50:55.955Z</time></trkpt><trkpt lat="46.0992813" lon="13.5830318"><ele>236.8</ele><time>2026-05-03T11:50:56.948Z</time></trkpt><trkpt lat="46.0992849" lon="13.5828916"><ele>233.0</ele><time>2026-05-03T11:50:57.95Z</time></trkpt><trkpt lat="46.0992984" lon="13.5827467"><ele>230.2</ele><time>2026-05-03T11:50:58.942Z</time></trkpt><trkpt lat="46.099302" lon="13.582604"><ele>227.4</ele><time>2026-05-03T11:50:59.953Z</time></trkpt><trkpt lat="46.0992947" lon="13.5824682"><ele>224.59999999999997</ele><time>2026-05-03T11:51:00.946Z</time></trkpt><trkpt lat="46.0992812" lon="13.5823377"><ele>221.79999999999998</ele><time>2026-05-03T11:51:01.941Z</time></trkpt><trkpt lat="46.0992601" lon="13.5822089"><ele>219.0</ele><time>2026-05-03T11:51:02.94Z</time></trkpt><trkpt lat="46.0992429" lon="13.5820829"><ele>219.16666666666666</ele><time>2026-05-03T11:51:03.949Z</time></trkpt><trkpt lat="46.099231" lon="13.5819558"><ele>219.33333333333331</ele><time>2026-05-03T11:51:04.944Z</time></trkpt><trkpt lat="46.0992202" lon="13.5818405"><ele>219.5</ele><time>2026-05-03T11:51:05.946Z</time></trkpt><trkpt lat="46.0992119" lon="13.5817354"><ele>219.66666666666666</ele><time>2026-05-03T11:51:06.946Z</time></trkpt><trkpt lat="46.0992037" lon="13.5816381"><ele>219.83333333333331</ele><time>2026-05-03T11:51:07.943Z</time></trkpt><trkpt lat="46.0991802" lon="13.5814674"><ele>220.0</ele><time>2026-05-03T11:51:09.944Z</time></trkpt><trkpt lat="46.0991344" lon="13.5813443"><ele>219.99999999999997</ele><time>2026-05-03T11:51:11.951Z</time></trkpt><trkpt lat="46.099096" lon="13.5812655"><ele>220.0</ele><time>2026-05-03T11:51:13.943Z</time></trkpt><trkpt lat="46.0990452" lon="13.5811733"><ele>220.0</ele><time>2026-05-03T11:51:39.946Z</time></trkpt><trkpt lat="46.099009" lon="13.5810807"><ele>220.0</ele><time>2026-05-03T11:51:41.955Z</time></trkpt><trkpt lat="46.0989674" lon="13.5809914"><ele>219.99999999999997</ele><time>2026-05-03T11:51:42.946Z</time></trkpt><trkpt lat="46.0989079" lon="13.5808809"><ele>220.0</ele><time>2026-05-03T11:51:43.947Z</time></trkpt><trkpt lat="46.0988557" lon="13.5807649"><ele>219.0</ele><time>2026-05-03T11:51:44.945Z</time></trkpt><trkpt lat="46.0988123" lon="13.5806444"><ele>218.0</ele><time>2026-05-03T11:51:45.947Z</time></trkpt><trkpt lat="46.0987773" lon="13.5805337"><ele>217.0</ele><time>2026-05-03T11:51:46.956Z</time></trkpt><trkpt lat="46.0987492" lon="13.5804188"><ele>216.0</ele><time>2026-05-03T11:51:47.954Z</time></trkpt><trkpt lat="46.0987335" lon="13.5802939"><ele>215.0</ele><time>2026-05-03T11:51:48.949Z</time></trkpt><trkpt lat="46.0987186" lon="13.5801426"><ele>215.0</ele><time>2026-05-03T11:51:49.951Z</time></trkpt><trkpt lat="46.0986977" lon="13.5799714"><ele>215.0</ele><time>2026-05-03T11:51:50.948Z</time></trkpt><trkpt lat="46.0986652" lon="13.5797946"><ele>215.0</ele><time>2026-05-03T11:51:51.96Z</time></trkpt><trkpt lat="46.0986119" lon="13.5796255"><ele>215.0</ele><time>2026-05-03T11:51:52.963Z</time></trkpt><trkpt lat="46.0985426" lon="13.5794677"><ele>213.5</ele><time>2026-05-03T11:51:53.943Z</time></trkpt><trkpt lat="46.0984598" lon="13.5793261"><ele>212.0</ele><time>2026-05-03T11:51:54.948Z</time></trkpt><trkpt lat="46.0983658" lon="13.5792006"><ele>210.5</ele><time>2026-05-03T11:51:55.949Z</time></trkpt><trkpt lat="46.0982641" lon="13.5790765"><ele>209.0</ele><time>2026-05-03T11:51:56.949Z</time></trkpt><trkpt lat="46.0981559" lon="13.5789652"><ele>209.0</ele><time>2026-05-03T11:51:57.952Z</time></trkpt><trkpt lat="46.0980481" lon="13.5788614"><ele>209.0</ele><time>2026-05-03T11:51:58.947Z</time></trkpt><trkpt lat="46.0979338" lon="13.5787729"><ele>209.0</ele><time>2026-05-03T11:51:59.957Z</time></trkpt><trkpt lat="46.0978069" lon="13.5787233"><ele>209.0</ele><time>2026-05-03T11:52:00.945Z</time></trkpt><trkpt lat="46.0976716" lon="13.5786979"><ele>209.0</ele><time>2026-05-03T11:52:01.973Z</time></trkpt><trkpt lat="46.0975279" lon="13.5786802"><ele>209.0</ele><time>2026-05-03T11:52:02.954Z</time></trkpt><trkpt lat="46.0973762" lon="13.5786846"><ele>209.0</ele><time>2026-05-03T11:52:03.946Z</time></trkpt><trkpt lat="46.0972313" lon="13.5787017"><ele>209.0</ele><time>2026-05-03T11:52:04.963Z</time></trkpt><trkpt lat="46.0971091" lon="13.57871"><ele>209.0</ele><time>2026-05-03T11:52:05.947Z</time></trkpt><trkpt lat="46.0969879" lon="13.5787106"><ele>209.0</ele><time>2026-05-03T11:52:06.947Z</time></trkpt><trkpt lat="46.0968894" lon="13.5787013"><ele>209.0</ele><time>2026-05-03T11:52:07.949Z</time></trkpt><trkpt lat="46.0968158" lon="13.5786898"><ele>209.0</ele><time>2026-05-03T11:52:08.945Z</time></trkpt><trkpt lat="46.096774" lon="13.578588"><ele>209.0</ele><time>2026-05-03T11:52:10.958Z</time></trkpt><trkpt lat="46.0967805" lon="13.5783975"><ele>208.39999999999998</ele><time>2026-05-03T11:52:12.958Z</time></trkpt><trkpt lat="46.0967618" lon="13.5782839"><ele>207.8</ele><time>2026-05-03T11:52:13.954Z</time></trkpt><trkpt lat="46.0967136" lon="13.5781778"><ele>207.2</ele><time>2026-05-03T11:52:14.957Z</time></trkpt><trkpt lat="46.0966332" lon="13.5780884"><ele>206.60000000000002</ele><time>2026-05-03T11:52:15.961Z</time></trkpt><trkpt lat="46.0965398" lon="13.5780085"><ele>206.0</ele><time>2026-05-03T11:52:16.951Z</time></trkpt><trkpt lat="46.0964507" lon="13.5779289"><ele>207.20000000000002</ele><time>2026-05-03T11:52:17.942Z</time></trkpt><trkpt lat="46.0963693" lon="13.5778353"><ele>208.4</ele><time>2026-05-03T11:52:18.965Z</time></trkpt><trkpt lat="46.0963049" lon="13.5777262"><ele>209.6</ele><time>2026-05-03T11:52:19.946Z</time></trkpt><trkpt lat="46.0962316" lon="13.5776065"><ele>210.8</ele><time>2026-05-03T11:52:20.954Z</time></trkpt><trkpt lat="46.096165" lon="13.5774683"><ele>212.0</ele><time>2026-05-03T11:52:21.949Z</time></trkpt><trkpt lat="46.0961073" lon="13.5773224"><ele>212.0</ele><time>2026-05-03T11:52:22.948Z</time></trkpt><trkpt lat="46.096052" lon="13.5771705"><ele>212.0</ele><time>2026-05-03T11:52:23.95Z</time></trkpt><trkpt lat="46.0959957" lon="13.5770234"><ele>212.0</ele><time>2026-05-03T11:52:24.949Z</time></trkpt><trkpt lat="46.0959478" lon="13.5768713"><ele>212.0</ele><time>2026-05-03T11:52:25.95Z</time></trkpt><trkpt lat="46.0958697" lon="13.5767403"><ele>212.0</ele><time>2026-05-03T11:52:26.948Z</time></trkpt><trkpt lat="46.0957892" lon="13.5766078"><ele>212.0</ele><time>2026-05-03T11:52:27.954Z</time></trkpt><trkpt lat="46.0957035" lon="13.5764687"><ele>212.0</ele><time>2026-05-03T11:52:28.959Z</time></trkpt><trkpt lat="46.0956137" lon="13.5763292"><ele>212.0</ele><time>2026-05-03T11:52:29.955Z</time></trkpt><trkpt lat="46.0955044" lon="13.5762014"><ele>217.25</ele><time>2026-05-03T11:52:30.952Z</time></trkpt><trkpt lat="46.0953876" lon="13.5760882"><ele>222.5</ele><time>2026-05-03T11:52:31.958Z</time></trkpt><trkpt lat="46.0952888" lon="13.5759809"><ele>227.75</ele><time>2026-05-03T11:52:32.946Z</time></trkpt><trkpt lat="46.095211" lon="13.5758762"><ele>233.0</ele><time>2026-05-03T11:52:33.952Z</time></trkpt><trkpt lat="46.095154" lon="13.57576"><ele>233.0</ele><time>2026-05-03T11:52:34.955Z</time></trkpt><trkpt lat="46.0951026" lon="13.5756255"><ele>233.0</ele><time>2026-05-03T11:52:35.95Z</time></trkpt><trkpt lat="46.0950705" lon="13.5754688"><ele>233.0</ele><time>2026-05-03T11:52:36.952Z</time></trkpt><trkpt lat="46.0950281" lon="13.5753166"><ele>233.0</ele><time>2026-05-03T11:52:37.955Z</time></trkpt><trkpt lat="46.0949517" lon="13.5751746"><ele>234.8</ele><time>2026-05-03T11:52:38.95Z</time></trkpt><trkpt lat="46.0948697" lon="13.5750565"><ele>236.60000000000002</ele><time>2026-05-03T11:52:39.95Z</time></trkpt><trkpt lat="46.0947984" lon="13.574944"><ele>238.39999999999998</ele><time>2026-05-03T11:52:40.956Z</time></trkpt><trkpt lat="46.0947225" lon="13.5748602"><ele>240.2</ele><time>2026-05-03T11:52:41.949Z</time></trkpt><trkpt lat="46.0946354" lon="13.5748198"><ele>242.0</ele><time>2026-05-03T11:52:42.945Z</time></trkpt><trkpt lat="46.0945484" lon="13.5748174"><ele>242.0</ele><time>2026-05-03T11:52:43.968Z</time></trkpt><trkpt lat="46.0944735" lon="13.5747875"><ele>242.0</ele><time>2026-05-03T11:52:44.952Z</time></trkpt><trkpt lat="46.0943972" lon="13.5747296"><ele>242.0</ele><time>2026-05-03T11:52:45.947Z</time></trkpt><trkpt lat="46.0943102" lon="13.5746516"><ele>242.0</ele><time>2026-05-03T11:52:46.949Z</time></trkpt><trkpt lat="46.0942177" lon="13.5745941"><ele>242.0</ele><time>2026-05-03T11:52:47.945Z</time></trkpt><trkpt lat="46.0941182" lon="13.5745678"><ele>240.8</ele><time>2026-05-03T11:52:48.961Z</time></trkpt><trkpt lat="46.0940138" lon="13.5745773"><ele>239.6</ele><time>2026-05-03T11:52:49.947Z</time></trkpt><trkpt lat="46.0939114" lon="13.574615"><ele>238.40000000000003</ele><time>2026-05-03T11:52:50.956Z</time></trkpt><trkpt lat="46.0938161" lon="13.5746542"><ele>237.20000000000002</ele><time>2026-05-03T11:52:51.953Z</time></trkpt><trkpt lat="46.0937449" lon="13.5746683"><ele>236.0</ele><time>2026-05-03T11:52:52.952Z</time></trkpt><trkpt lat="46.093673" lon="13.5745975"><ele>237.8</ele><time>2026-05-03T11:52:54.951Z</time></trkpt><trkpt lat="46.0937256" lon="13.5744395"><ele>239.60000000000002</ele><time>2026-05-03T11:52:56.955Z</time></trkpt><trkpt lat="46.0937603" lon="13.5743283"><ele>241.4</ele><time>2026-05-03T11:52:57.945Z</time></trkpt><trkpt lat="46.093779" lon="13.5742023"><ele>243.2</ele><time>2026-05-03T11:52:58.955Z</time></trkpt><trkpt lat="46.0937632" lon="13.5740887"><ele>245.0</ele><time>2026-05-03T11:52:59.949Z</time></trkpt><trkpt lat="46.0937472" lon="13.5739758"><ele>245.0</ele><time>2026-05-03T11:53:00.95Z</time></trkpt><trkpt lat="46.0937522" lon="13.5738825"><ele>245.0</ele><time>2026-05-03T11:53:01.947Z</time></trkpt><trkpt lat="46.0938347" lon="13.5737686"><ele>245.0</ele><time>2026-05-03T11:53:03.954Z</time></trkpt><trkpt lat="46.093923" lon="13.5737115"><ele>245.0</ele><time>2026-05-03T11:53:04.951Z</time></trkpt><trkpt lat="46.0940314" lon="13.5736143"><ele>245.0</ele><time>2026-05-03T11:53:05.963Z</time></trkpt><trkpt lat="46.0941332" lon="13.5734944"><ele>250.0</ele><time>2026-05-03T11:53:06.95Z</time></trkpt><trkpt lat="46.0942418" lon="13.5733721"><ele>255.0</ele><time>2026-05-03T11:53:07.949Z</time></trkpt><trkpt lat="46.0943531" lon="13.5732785"><ele>260.0</ele><time>2026-05-03T11:53:08.954Z</time></trkpt><trkpt lat="46.0944554" lon="13.5732185"><ele>265.0</ele><time>2026-05-03T11:53:09.949Z</time></trkpt><trkpt lat="46.0945694" lon="13.5731748"><ele>265.0</ele><time>2026-05-03T11:53:10.948Z</time></trkpt><trkpt lat="46.0946873" lon="13.5731021"><ele>265.0</ele><time>2026-05-03T11:53:11.948Z</time></trkpt><trkpt lat="46.0948109" lon="13.5730048"><ele>265.0</ele><time>2026-05-03T11:53:12.949Z</time></trkpt><trkpt lat="46.0949363" lon="13.5728974"><ele>265.0</ele><time>2026-05-03T11:53:13.952Z</time></trkpt><trkpt lat="46.0950621" lon="13.5727822"><ele>268.25</ele><time>2026-05-03T11:53:14.952Z</time></trkpt><trkpt lat="46.095185" lon="13.572657"><ele>271.5</ele><time>2026-05-03T11:53:15.946Z</time></trkpt><trkpt lat="46.095282" lon="13.5725268"><ele>274.75</ele><time>2026-05-03T11:53:16.951Z</time></trkpt><trkpt lat="46.0953638" lon="13.5723847"><ele>278.0</ele><time>2026-05-03T11:53:17.954Z</time></trkpt><trkpt lat="46.0954069" lon="13.5722378"><ele>278.0</ele><time>2026-05-03T11:53:18.948Z</time></trkpt><trkpt lat="46.0954212" lon="13.572102"><ele>278.0</ele><time>2026-05-03T11:53:19.958Z</time></trkpt><trkpt lat="46.0954396" lon="13.5719757"><ele>278.0</ele><time>2026-05-03T11:53:20.957Z</time></trkpt><trkpt lat="46.0954593" lon="13.5718657"><ele>278.0</ele><time>2026-05-03T11:53:21.957Z</time></trkpt><trkpt lat="46.0955324" lon="13.5717777"><ele>278.0</ele><time>2026-05-03T11:53:23.946Z</time></trkpt><trkpt lat="46.0955462" lon="13.5719574"><ele>278.0</ele><time>2026-05-03T11:53:25.949Z</time></trkpt><trkpt lat="46.0955157" lon="13.5721139"><ele>278.0</ele><time>2026-05-03T11:53:26.971Z</time></trkpt><trkpt lat="46.0954689" lon="13.5722828"><ele>278.0</ele><time>2026-05-03T11:53:27.945Z</time></trkpt><trkpt lat="46.0954231" lon="13.5724624"><ele>278.0</ele><time>2026-05-03T11:53:28.948Z</time></trkpt><trkpt lat="46.0953794" lon="13.5726532"><ele>278.0</ele><time>2026-05-03T11:53:29.952Z</time></trkpt><trkpt lat="46.0953293" lon="13.5728418"><ele>278.0</ele><time>2026-05-03T11:53:30.954Z</time></trkpt><trkpt lat="46.0952848" lon="13.5730294"><ele>278.0</ele><time>2026-05-03T11:53:31.947Z</time></trkpt><trkpt lat="46.0952398" lon="13.5731962"><ele>278.0</ele><time>2026-05-03T11:53:32.953Z</time></trkpt><trkpt lat="46.0951922" lon="13.5733408"><ele>277.8</ele><time>2026-05-03T11:53:33.951Z</time></trkpt><trkpt lat="46.0951667" lon="13.5734806"><ele>277.6</ele><time>2026-05-03T11:53:34.948Z</time></trkpt><trkpt lat="46.095155" lon="13.573619"><ele>277.4</ele><time>2026-05-03T11:53:35.945Z</time></trkpt><trkpt lat="46.0951657" lon="13.5737589"><ele>277.2</ele><time>2026-05-03T11:53:36.953Z</time></trkpt><trkpt lat="46.0952141" lon="13.5738571"><ele>277.0</ele><time>2026-05-03T11:53:37.954Z</time></trkpt><trkpt lat="46.095285" lon="13.5738943"><ele>277.0</ele><time>2026-05-03T11:53:38.951Z</time></trkpt><trkpt lat="46.0953756" lon="13.5738783"><ele>277.0</ele><time>2026-05-03T11:53:39.947Z</time></trkpt><trkpt lat="46.0954857" lon="13.5738179"><ele>277.0</ele><time>2026-05-03T11:53:40.952Z</time></trkpt><trkpt lat="46.0955968" lon="13.57373"><ele>277.0</ele><time>2026-05-03T11:53:41.947Z</time></trkpt><trkpt lat="46.095705" lon="13.5736344"><ele>285.5</ele><time>2026-05-03T11:53:42.95Z</time></trkpt><trkpt lat="46.0958117" lon="13.5735469"><ele>294.0</ele><time>2026-05-03T11:53:43.948Z</time></trkpt><trkpt lat="46.0959212" lon="13.5734793"><ele>302.5</ele><time>2026-05-03T11:53:44.951Z</time></trkpt><trkpt lat="46.0960334" lon="13.5734456"><ele>311.0</ele><time>2026-05-03T11:53:45.95Z</time></trkpt><trkpt lat="46.096139" lon="13.5734543"><ele>311.0</ele><time>2026-05-03T11:53:46.952Z</time></trkpt><trkpt lat="46.0962333" lon="13.5734945"><ele>311.0</ele><time>2026-05-03T11:53:47.948Z</time></trkpt><trkpt lat="46.0963117" lon="13.5735115"><ele>311.0</ele><time>2026-05-03T11:53:48.953Z</time></trkpt><trkpt lat="46.0963737" lon="13.5734746"><ele>311.0</ele><time>2026-05-03T11:53:49.956Z</time></trkpt><trkpt lat="46.0963659" lon="13.5733203"><ele>311.0</ele><time>2026-05-03T11:53:51.948Z</time></trkpt><trkpt lat="46.0962894" lon="13.5732445"><ele>311.0</ele><time>2026-05-03T11:53:52.948Z</time></trkpt><trkpt lat="46.0961857" lon="13.5731624"><ele>311.0</ele><time>2026-05-03T11:53:53.949Z</time></trkpt><trkpt lat="46.0960687" lon="13.5731008"><ele>311.0</ele><time>2026-05-03T11:53:54.948Z</time></trkpt><trkpt lat="46.0959602" lon="13.5730613"><ele>311.0</ele><time>2026-05-03T11:53:55.953Z</time></trkpt><trkpt lat="46.0958639" lon="13.5730117"><ele>311.0</ele><time>2026-05-03T11:53:56.955Z</time></trkpt><trkpt lat="46.0958067" lon="13.572937"><ele>311.0</ele><time>2026-05-03T11:53:57.949Z</time></trkpt><trkpt lat="46.0958297" lon="13.5728444"><ele>311.0</ele><time>2026-05-03T11:53:59.949Z</time></trkpt><trkpt lat="46.0959093" lon="13.5728554"><ele>311.0</ele><time>2026-05-03T11:54:00.951Z</time></trkpt><trkpt lat="46.096031" lon="13.5728864"><ele>311.0</ele><time>2026-05-03T11:54:01.956Z</time></trkpt><trkpt lat="46.096174" lon="13.5729461"><ele>311.0</ele><time>2026-05-03T11:54:02.953Z</time></trkpt><trkpt lat="46.0963216" lon="13.5730055"><ele>311.0</ele><time>2026-05-03T11:54:03.945Z</time></trkpt><trkpt lat="46.0964731" lon="13.5730429"><ele>311.0</ele><time>2026-05-03T11:54:04.947Z</time></trkpt><trkpt lat="46.0966177" lon="13.5730684"><ele>311.0</ele><time>2026-05-03T11:54:05.95Z</time></trkpt><trkpt lat="46.0967651" lon="13.5730821"><ele>311.0</ele><time>2026-05-03T11:54:06.951Z</time></trkpt><trkpt lat="46.0968954" lon="13.5731202"><ele>314.5</ele><time>2026-05-03T11:54:07.944Z</time></trkpt><trkpt lat="46.0970215" lon="13.5732044"><ele>318.0</ele><time>2026-05-03T11:54:08.95Z</time></trkpt><trkpt lat="46.0971406" lon="13.5733059"><ele>321.5</ele><time>2026-05-03T11:54:09.945Z</time></trkpt><trkpt lat="46.0972495" lon="13.5734196"><ele>325.0</ele><time>2026-05-03T11:54:10.95Z</time></trkpt><trkpt lat="46.0973272" lon="13.5735504"><ele>325.0</ele><time>2026-05-03T11:54:11.964Z</time></trkpt><trkpt lat="46.097397" lon="13.573677"><ele>325.0</ele><time>2026-05-03T11:54:12.952Z</time></trkpt><trkpt lat="46.0974652" lon="13.5737721"><ele>325.0</ele><time>2026-05-03T11:54:13.948Z</time></trkpt><trkpt lat="46.0975193" lon="13.5738298"><ele>325.0</ele><time>2026-05-03T11:54:14.952Z</time></trkpt><trkpt lat="46.0975872" lon="13.5737687"><ele>325.0</ele><time>2026-05-03T11:54:16.954Z</time></trkpt><trkpt lat="46.0975152" lon="13.5736328"><ele>325.0</ele><time>2026-05-03T11:54:18.947Z</time></trkpt><trkpt lat="46.0974603" lon="13.5735447"><ele>325.0</ele><time>2026-05-03T11:54:19.952Z</time></trkpt><trkpt lat="46.0974103" lon="13.5734448"><ele>325.0</ele><time>2026-05-03T11:54:20.949Z</time></trkpt><trkpt lat="46.0973647" lon="13.5733115"><ele>325.0</ele><time>2026-05-03T11:54:21.958Z</time></trkpt><trkpt lat="46.0973225" lon="13.5731533"><ele>325.0</ele><time>2026-05-03T11:54:22.949Z</time></trkpt><trkpt lat="46.0972769" lon="13.5729725"><ele>329.0</ele><time>2026-05-03T11:54:23.944Z</time></trkpt><trkpt lat="46.0972332" lon="13.5727744"><ele>333.0</ele><time>2026-05-03T11:54:24.954Z</time></trkpt><trkpt lat="46.0971958" lon="13.572574"><ele>337.0</ele><time>2026-05-03T11:54:25.95Z</time></trkpt><trkpt lat="46.0971483" lon="13.5723913"><ele>341.0</ele><time>2026-05-03T11:54:26.954Z</time></trkpt><trkpt lat="46.0970772" lon="13.5722399"><ele>341.0</ele><time>2026-05-03T11:54:27.958Z</time></trkpt><trkpt lat="46.0969803" lon="13.5721133"><ele>341.0</ele><time>2026-05-03T11:54:28.948Z</time></trkpt><trkpt lat="46.0968748" lon="13.5720039"><ele>341.0</ele><time>2026-05-03T11:54:29.943Z</time></trkpt><trkpt lat="46.0967722" lon="13.5719211"><ele>341.0</ele><time>2026-05-03T11:54:30.949Z</time></trkpt><trkpt lat="46.0966767" lon="13.5718741"><ele>342.5</ele><time>2026-05-03T11:54:31.948Z</time></trkpt><trkpt lat="46.0965877" lon="13.5718413"><ele>344.0</ele><time>2026-05-03T11:54:32.955Z</time></trkpt><trkpt lat="46.0965157" lon="13.5717935"><ele>345.5</ele><time>2026-05-03T11:54:33.956Z</time></trkpt><trkpt lat="46.0964947" lon="13.5716939"><ele>347.0</ele><time>2026-05-03T11:54:35.946Z</time></trkpt><trkpt lat="46.0965649" lon="13.5716747"><ele>348.5</ele><time>2026-05-03T11:54:36.951Z</time></trkpt><trkpt lat="46.096667" lon="13.5716761"><ele>350.0</ele><time>2026-05-03T11:54:37.955Z</time></trkpt><trkpt lat="46.0968024" lon="13.5716829"><ele>350.0</ele><time>2026-05-03T11:54:38.944Z</time></trkpt><trkpt lat="46.0969518" lon="13.5716859"><ele>350.0</ele><time>2026-05-03T11:54:39.945Z</time></trkpt><trkpt lat="46.0971028" lon="13.5716943"><ele>350.0</ele><time>2026-05-03T11:54:40.942Z</time></trkpt><trkpt lat="46.0972429" lon="13.5717193"><ele>350.0</ele><time>2026-05-03T11:54:41.952Z</time></trkpt><trkpt lat="46.0973598" lon="13.5717496"><ele>350.0</ele><time>2026-05-03T11:54:42.957Z</time></trkpt><trkpt lat="46.0974336" lon="13.5717617"><ele>350.0</ele><time>2026-05-03T11:54:43.952Z</time></trkpt><trkpt lat="46.0974098" lon="13.5716461"><ele>350.0</ele><time>2026-05-03T11:54:46.947Z</time></trkpt><trkpt lat="46.0973505" lon="13.5716083"><ele>350.0</ele><time>2026-05-03T11:54:47.953Z</time></trkpt><trkpt lat="46.0972723" lon="13.5715671"><ele>350.0</ele><time>2026-05-03T11:54:48.955Z</time></trkpt><trkpt lat="46.0971939" lon="13.5715171"><ele>350.0</ele><time>2026-05-03T11:54:49.949Z</time></trkpt><trkpt lat="46.0971145" lon="13.5714768"><ele>350.0</ele><time>2026-05-03T11:54:50.946Z</time></trkpt><trkpt lat="46.0970517" lon="13.5714303"><ele>350.0</ele><time>2026-05-03T11:54:51.954Z</time></trkpt><trkpt lat="46.0969993" lon="13.5713332"><ele>350.0</ele><time>2026-05-03T11:54:53.954Z</time></trkpt><trkpt lat="46.0970745" lon="13.5712694"><ele>350.0</ele><time>2026-05-03T11:54:55.944Z</time></trkpt><trkpt lat="46.0971733" lon="13.5711712"><ele>350.0</ele><time>2026-05-03T11:54:57.944Z</time></trkpt><trkpt lat="46.0972279" lon="13.5711148"><ele>350.0</ele><time>2026-05-03T11:54:58.948Z</time></trkpt><trkpt lat="46.0972869" lon="13.5710751"><ele>350.2</ele><time>2026-05-03T11:54:59.947Z</time></trkpt><trkpt lat="46.0973919" lon="13.5709903"><ele>350.4</ele><time>2026-05-03T11:55:01.944Z</time></trkpt><trkpt lat="46.0974752" lon="13.5709187"><ele>350.6</ele><time>2026-05-03T11:55:03.948Z</time></trkpt><trkpt lat="46.0975316" lon="13.5708378"><ele>350.8</ele><time>2026-05-03T11:55:05.944Z</time></trkpt><trkpt lat="46.0975843" lon="13.5707356"><ele>351.0</ele><time>2026-05-03T11:55:07.95Z</time></trkpt><trkpt lat="46.0976587" lon="13.5706191"><ele>353.6666666666667</ele><time>2026-05-03T11:55:09.947Z</time></trkpt><trkpt lat="46.097759" lon="13.5705043"><ele>356.3333333333333</ele><time>2026-05-03T11:55:11.948Z</time></trkpt><trkpt lat="46.097821" lon="13.5704573"><ele>359.0</ele><time>2026-05-03T11:55:12.946Z</time></trkpt><trkpt lat="46.09788" lon="13.5704095"><ele>361.66666666666663</ele><time>2026-05-03T11:55:13.958Z</time></trkpt><trkpt lat="46.0979383" lon="13.5703576"><ele>364.3333333333333</ele><time>2026-05-03T11:55:14.95Z</time></trkpt><trkpt lat="46.0979986" lon="13.5702953"><ele>367.0</ele><time>2026-05-03T11:55:15.949Z</time></trkpt><trkpt lat="46.0980615" lon="13.5702359"><ele>367.0</ele><time>2026-05-03T11:55:16.943Z</time></trkpt><trkpt lat="46.0981185" lon="13.5701673"><ele>367.0</ele><time>2026-05-03T11:55:17.944Z</time></trkpt><trkpt lat="46.0981765" lon="13.5700443"><ele>367.0</ele><time>2026-05-03T11:55:19.947Z</time></trkpt><trkpt lat="46.0981461" lon="13.5698833"><ele>367.0</ele><time>2026-05-03T11:55:21.951Z</time></trkpt><trkpt lat="46.0981047" lon="13.5698118"><ele>367.0</ele><time>2026-05-03T11:55:22.947Z</time></trkpt><trkpt lat="46.0980588" lon="13.569749"><ele>367.0</ele><time>2026-05-03T11:55:23.948Z</time></trkpt><trkpt lat="46.0979962" lon="13.5696913"><ele>367.0</ele><time>2026-05-03T11:55:24.957Z</time></trkpt><trkpt lat="46.0979348" lon="13.5696339"><ele>367.0</ele><time>2026-05-03T11:55:25.96Z</time></trkpt><trkpt lat="46.0978731" lon="13.5695803"><ele>367.0</ele><time>2026-05-03T11:55:26.952Z</time></trkpt><trkpt lat="46.0978091" lon="13.5695216"><ele>367.0</ele><time>2026-05-03T11:55:27.945Z</time></trkpt><trkpt lat="46.0977413" lon="13.5694639"><ele>367.0</ele><time>2026-05-03T11:55:28.943Z</time></trkpt><trkpt lat="46.0976806" lon="13.5694091"><ele>367.0</ele><time>2026-05-03T11:55:29.95Z</time></trkpt><trkpt lat="46.0976249" lon="13.5693562"><ele>367.0</ele><time>2026-05-03T11:55:30.945Z</time></trkpt><trkpt lat="46.0975596" lon="13.5693114"><ele>367.0</ele><time>2026-05-03T11:55:31.958Z</time></trkpt><trkpt lat="46.0974895" lon="13.5692562"><ele>367.0</ele><time>2026-05-03T11:55:32.946Z</time></trkpt><trkpt lat="46.0974172" lon="13.5691962"><ele>367.0</ele><time>2026-05-03T11:55:33.949Z</time></trkpt><trkpt lat="46.0973402" lon="13.5691345"><ele>367.0</ele><time>2026-05-03T11:55:34.948Z</time></trkpt><trkpt lat="46.0972524" lon="13.5690821"><ele>367.0</ele><time>2026-05-03T11:55:35.945Z</time></trkpt><trkpt lat="46.0971556" lon="13.5690383"><ele>367.0</ele><time>2026-05-03T11:55:36.959Z</time></trkpt><trkpt lat="46.0970526" lon="13.5689944"><ele>367.0</ele><time>2026-05-03T11:55:37.953Z</time></trkpt><trkpt lat="46.0969514" lon="13.5689414"><ele>367.0</ele><time>2026-05-03T11:55:38.959Z</time></trkpt><trkpt lat="46.0968495" lon="13.568887"><ele>367.0</ele><time>2026-05-03T11:55:39.956Z</time></trkpt><trkpt lat="46.0967516" lon="13.56883"><ele>367.0</ele><time>2026-05-03T11:55:40.955Z</time></trkpt><trkpt lat="46.0966578" lon="13.5687679"><ele>367.0</ele><time>2026-05-03T11:55:41.946Z</time></trkpt><trkpt lat="46.0965654" lon="13.5687015"><ele>365.3333333333333</ele><time>2026-05-03T11:55:42.948Z</time></trkpt><trkpt lat="46.0964761" lon="13.5686268"><ele>363.66666666666663</ele><time>2026-05-03T11:55:43.95Z</time></trkpt><trkpt lat="46.0963909" lon="13.5685477"><ele>362.0</ele><time>2026-05-03T11:55:44.953Z</time></trkpt><trkpt lat="46.0963201" lon="13.5684717"><ele>360.3333333333333</ele><time>2026-05-03T11:55:45.945Z</time></trkpt><trkpt lat="46.0962576" lon="13.5683962"><ele>358.6666666666667</ele><time>2026-05-03T11:55:46.944Z</time></trkpt><trkpt lat="46.096207" lon="13.5683161"><ele>357.0</ele><time>2026-05-03T11:55:47.949Z</time></trkpt><trkpt lat="46.0961623" lon="13.56823"><ele>357.0</ele><time>2026-05-03T11:55:48.955Z</time></trkpt><trkpt lat="46.0961237" lon="13.5681464"><ele>357.0</ele><time>2026-05-03T11:55:49.945Z</time></trkpt><trkpt lat="46.0961027" lon="13.5680594"><ele>357.0</ele><time>2026-05-03T11:55:50.957Z</time></trkpt><trkpt lat="46.096098" lon="13.5679655"><ele>357.0</ele><time>2026-05-03T11:55:51.951Z</time></trkpt><trkpt lat="46.0961026" lon="13.567868"><ele>357.0</ele><time>2026-05-03T11:55:52.951Z</time></trkpt><trkpt lat="46.0961141" lon="13.5677602"><ele>357.0</ele><time>2026-05-03T11:55:53.956Z</time></trkpt><trkpt lat="46.0961382" lon="13.5676435"><ele>357.0</ele><time>2026-05-03T11:55:54.955Z</time></trkpt><trkpt lat="46.0961727" lon="13.567504"><ele>358.0</ele><time>2026-05-03T11:55:55.948Z</time></trkpt><trkpt lat="46.0962039" lon="13.5673587"><ele>359.0</ele><time>2026-05-03T11:55:56.944Z</time></trkpt><trkpt lat="46.0962337" lon="13.5672017"><ele>360.0</ele><time>2026-05-03T11:55:57.946Z</time></trkpt><trkpt lat="46.0962711" lon="13.5670654"><ele>361.0</ele><time>2026-05-03T11:55:58.957Z</time></trkpt><trkpt lat="46.0962961" lon="13.5669522"><ele>362.0</ele><time>2026-05-03T11:55:59.944Z</time></trkpt><trkpt lat="46.0963111" lon="13.566844"><ele>365.0</ele><time>2026-05-03T11:56:00.954Z</time></trkpt><trkpt lat="46.096321" lon="13.5667478"><ele>368.0</ele><time>2026-05-03T11:56:01.947Z</time></trkpt><trkpt lat="46.096326" lon="13.5666386"><ele>371.0</ele><time>2026-05-03T11:56:02.946Z</time></trkpt><trkpt lat="46.0963277" lon="13.5665275"><ele>374.0</ele><time>2026-05-03T11:56:03.945Z</time></trkpt><trkpt lat="46.0963368" lon="13.5664232"><ele>377.0</ele><time>2026-05-03T11:56:04.944Z</time></trkpt><trkpt lat="46.0963347" lon="13.5663295"><ele>380.0</ele><time>2026-05-03T11:56:05.944Z</time></trkpt><trkpt lat="46.0962939" lon="13.5662015"><ele>380.0</ele><time>2026-05-03T11:56:07.961Z</time></trkpt><trkpt lat="46.0962309" lon="13.5661843"><ele>380.0</ele><time>2026-05-03T11:56:09.95Z</time></trkpt><trkpt lat="46.0961307" lon="13.5662358"><ele>380.0</ele><time>2026-05-03T11:56:11.944Z</time></trkpt><trkpt lat="46.0960127" lon="13.5662779"><ele>380.0</ele><time>2026-05-03T11:56:13.947Z</time></trkpt><trkpt lat="46.0959407" lon="13.5662878"><ele>380.0</ele><time>2026-05-03T11:56:14.95Z</time></trkpt><trkpt lat="46.0958686" lon="13.5662789"><ele>380.0</ele><time>2026-05-03T11:56:15.957Z</time></trkpt><trkpt lat="46.0957967" lon="13.5662562"><ele>378.33333333333337</ele><time>2026-05-03T11:56:16.949Z</time></trkpt><trkpt lat="46.0957247" lon="13.5662235"><ele>376.6666666666667</ele><time>2026-05-03T11:56:17.956Z</time></trkpt><trkpt lat="46.0956456" lon="13.5661885"><ele>375.0</ele><time>2026-05-03T11:56:18.947Z</time></trkpt><trkpt lat="46.0955642" lon="13.5661548"><ele>373.3333333333333</ele><time>2026-05-03T11:56:19.946Z</time></trkpt><trkpt lat="46.0954842" lon="13.5661251"><ele>371.66666666666663</ele><time>2026-05-03T11:56:20.951Z</time></trkpt><trkpt lat="46.0954073" lon="13.5660853"><ele>370.0</ele><time>2026-05-03T11:56:21.955Z</time></trkpt><trkpt lat="46.0953269" lon="13.5660409"><ele>373.5</ele><time>2026-05-03T11:56:22.949Z</time></trkpt><trkpt lat="46.0952489" lon="13.5659927"><ele>377.0</ele><time>2026-05-03T11:56:23.949Z</time></trkpt><trkpt lat="46.0951724" lon="13.5659346"><ele>380.5</ele><time>2026-05-03T11:56:24.948Z</time></trkpt><trkpt lat="46.0950886" lon="13.5658845"><ele>384.0</ele><time>2026-05-03T11:56:25.948Z</time></trkpt><trkpt lat="46.0949987" lon="13.5658377"><ele>387.50000000000006</ele><time>2026-05-03T11:56:26.946Z</time></trkpt><trkpt lat="46.0949129" lon="13.5657942"><ele>391.0</ele><time>2026-05-03T11:56:27.943Z</time></trkpt><trkpt lat="46.0948203" lon="13.5657532"><ele>391.1666666666667</ele><time>2026-05-03T11:56:28.943Z</time></trkpt><trkpt lat="46.094735" lon="13.5657103"><ele>391.33333333333337</ele><time>2026-05-03T11:56:29.944Z</time></trkpt><trkpt lat="46.0946613" lon="13.5656747"><ele>391.5</ele><time>2026-05-03T11:56:30.943Z</time></trkpt><trkpt lat="46.094595" lon="13.5656402"><ele>391.66666666666663</ele><time>2026-05-03T11:56:31.948Z</time></trkpt><trkpt lat="46.0944855" lon="13.5656146"><ele>391.8333333333333</ele><time>2026-05-03T11:56:33.952Z</time></trkpt><trkpt lat="46.0944198" lon="13.5656101"><ele>392.0</ele><time>2026-05-03T11:56:34.941Z</time></trkpt><trkpt lat="46.0943538" lon="13.5656316"><ele>391.99999999999994</ele><time>2026-05-03T11:56:35.949Z</time></trkpt><trkpt lat="46.0942888" lon="13.5656695"><ele>392.0</ele><time>2026-05-03T11:56:36.948Z</time></trkpt><trkpt lat="46.0942227" lon="13.5657134"><ele>392.0</ele><time>2026-05-03T11:56:37.952Z</time></trkpt><trkpt lat="46.0941493" lon="13.5657727"><ele>392.0</ele><time>2026-05-03T11:56:38.94Z</time></trkpt><trkpt lat="46.0940659" lon="13.5658394"><ele>391.99999999999994</ele><time>2026-05-03T11:56:39.947Z</time></trkpt><trkpt lat="46.093981" lon="13.5659125"><ele>392.0</ele><time>2026-05-03T11:56:40.943Z</time></trkpt><trkpt lat="46.0938991" lon="13.5659735"><ele>393.8</ele><time>2026-05-03T11:56:41.95Z</time></trkpt><trkpt lat="46.0938253" lon="13.5660056"><ele>395.6</ele><time>2026-05-03T11:56:42.945Z</time></trkpt><trkpt lat="46.0937561" lon="13.5660356"><ele>397.40000000000003</ele><time>2026-05-03T11:56:43.945Z</time></trkpt><trkpt lat="46.0936302" lon="13.566057"><ele>399.20000000000005</ele><time>2026-05-03T11:56:45.945Z</time></trkpt><trkpt lat="46.0935581" lon="13.5660632"><ele>401.0</ele><time>2026-05-03T11:56:46.957Z</time></trkpt><trkpt lat="46.0934517" lon="13.5660035"><ele>401.0</ele><time>2026-05-03T11:56:48.956Z</time></trkpt><trkpt lat="46.0933635" lon="13.5659052"><ele>401.0</ele><time>2026-05-03T11:56:50.945Z</time></trkpt><trkpt lat="46.0933098" lon="13.5658161"><ele>401.0</ele><time>2026-05-03T11:56:52.953Z</time></trkpt><trkpt lat="46.0933431" lon="13.5657077"><ele>401.0</ele><time>2026-05-03T11:56:54.952Z</time></trkpt><trkpt lat="46.0934367" lon="13.5655944"><ele>401.0</ele><time>2026-05-03T11:56:56.951Z</time></trkpt><trkpt lat="46.0935322" lon="13.5654877"><ele>402.66666666666663</ele><time>2026-05-03T11:56:58.954Z</time></trkpt><trkpt lat="46.0936171" lon="13.5653587"><ele>404.3333333333333</ele><time>2026-05-03T11:57:00.951Z</time></trkpt><trkpt lat="46.0936626" lon="13.5652957"><ele>406.0</ele><time>2026-05-03T11:57:01.949Z</time></trkpt><trkpt lat="46.0937653" lon="13.5651836"><ele>407.66666666666663</ele><time>2026-05-03T11:57:03.95Z</time></trkpt><trkpt lat="46.0938146" lon="13.5651251"><ele>409.3333333333333</ele><time>2026-05-03T11:57:04.949Z</time></trkpt><trkpt lat="46.0938611" lon="13.5650541"><ele>411.0</ele><time>2026-05-03T11:57:05.945Z</time></trkpt><trkpt lat="46.0938994" lon="13.564923"><ele>411.0</ele><time>2026-05-03T11:57:07.952Z</time></trkpt><trkpt lat="46.093838" lon="13.5648373"><ele>411.0</ele><time>2026-05-03T11:57:10.951Z</time></trkpt><trkpt lat="46.0937275" lon="13.5648043"><ele>411.0</ele><time>2026-05-03T11:57:12.956Z</time></trkpt><trkpt lat="46.0936518" lon="13.5646913"><ele>411.0</ele><time>2026-05-03T11:57:14.955Z</time></trkpt><trkpt lat="46.0936391" lon="13.5645323"><ele>411.0</ele><time>2026-05-03T11:57:16.948Z</time></trkpt><trkpt lat="46.0936456" lon="13.5644272"><ele>410.1666666666667</ele><time>2026-05-03T11:57:17.945Z</time></trkpt><trkpt lat="46.0936608" lon="13.5643101"><ele>409.33333333333337</ele><time>2026-05-03T11:57:18.952Z</time></trkpt><trkpt lat="46.0936785" lon="13.5641883"><ele>408.5</ele><time>2026-05-03T11:57:19.954Z</time></trkpt><trkpt lat="46.0936882" lon="13.5640733"><ele>407.6666666666667</ele><time>2026-05-03T11:57:20.956Z</time></trkpt><trkpt lat="46.0936935" lon="13.5639617"><ele>406.83333333333337</ele><time>2026-05-03T11:57:21.958Z</time></trkpt><trkpt lat="46.0937079" lon="13.5638557"><ele>406.0</ele><time>2026-05-03T11:57:22.946Z</time></trkpt><trkpt lat="46.0937292" lon="13.5637675"><ele>404.50000000000006</ele><time>2026-05-03T11:57:23.946Z</time></trkpt><trkpt lat="46.0937537" lon="13.5636656"><ele>403.0</ele><time>2026-05-03T11:57:24.945Z</time></trkpt><trkpt lat="46.0937804" lon="13.563555"><ele>401.5</ele><time>2026-05-03T11:57:25.947Z</time></trkpt><trkpt lat="46.0938108" lon="13.563437"><ele>400.0</ele><time>2026-05-03T11:57:26.949Z</time></trkpt><trkpt lat="46.0938524" lon="13.5633256"><ele>398.50000000000006</ele><time>2026-05-03T11:57:27.943Z</time></trkpt><trkpt lat="46.0938981" lon="13.5632197"><ele>397.0</ele><time>2026-05-03T11:57:28.952Z</time></trkpt><trkpt lat="46.0939361" lon="13.5631164"><ele>397.0</ele><time>2026-05-03T11:57:29.938Z</time></trkpt><trkpt lat="46.0939776" lon="13.5630258"><ele>397.0</ele><time>2026-05-03T11:57:30.951Z</time></trkpt><trkpt lat="46.0939977" lon="13.5629259"><ele>397.0</ele><time>2026-05-03T11:57:31.944Z</time></trkpt><trkpt lat="46.0940086" lon="13.5628359"><ele>397.0</ele><time>2026-05-03T11:57:32.951Z</time></trkpt><trkpt lat="46.0940134" lon="13.5627311"><ele>397.0</ele><time>2026-05-03T11:57:33.95Z</time></trkpt><trkpt lat="46.0940088" lon="13.5626221"><ele>397.0</ele><time>2026-05-03T11:57:34.955Z</time></trkpt><trkpt lat="46.0940155" lon="13.562514"><ele>397.0</ele><time>2026-05-03T11:57:35.954Z</time></trkpt><trkpt lat="46.0940213" lon="13.5624013"><ele>396.83333333333337</ele><time>2026-05-03T11:57:36.947Z</time></trkpt><trkpt lat="46.0940178" lon="13.5622838"><ele>396.6666666666667</ele><time>2026-05-03T11:57:37.951Z</time></trkpt><trkpt lat="46.0940188" lon="13.5621904"><ele>396.5</ele><time>2026-05-03T11:57:38.946Z</time></trkpt><trkpt lat="46.0939861" lon="13.5620587"><ele>396.33333333333337</ele><time>2026-05-03T11:57:40.951Z</time></trkpt><trkpt lat="46.0939764" lon="13.5619531"><ele>396.1666666666667</ele><time>2026-05-03T11:57:52.955Z</time></trkpt><trkpt lat="46.0939617" lon="13.5618607"><ele>396.0</ele><time>2026-05-03T11:57:54.946Z</time></trkpt><trkpt lat="46.0939447" lon="13.5617177"><ele>396.0</ele><time>2026-05-03T11:57:56.953Z</time></trkpt><trkpt lat="46.0939501" lon="13.5616233"><ele>396.0</ele><time>2026-05-03T11:57:57.949Z</time></trkpt><trkpt lat="46.0939835" lon="13.5614516"><ele>396.0</ele><time>2026-05-03T11:57:59.94Z</time></trkpt><trkpt lat="46.0940501" lon="13.5612915"><ele>396.0</ele><time>2026-05-03T11:58:01.953Z</time></trkpt><trkpt lat="46.0940874" lon="13.5612063"><ele>396.0</ele><time>2026-05-03T11:58:02.948Z</time></trkpt><trkpt lat="46.0941187" lon="13.561117"><ele>405.0</ele><time>2026-05-03T11:58:03.952Z</time></trkpt><trkpt lat="46.0941367" lon="13.5610182"><ele>414.0</ele><time>2026-05-03T11:58:04.945Z</time></trkpt><trkpt lat="46.0941589" lon="13.5609209"><ele>423.0</ele><time>2026-05-03T11:58:05.953Z</time></trkpt><trkpt lat="46.0941694" lon="13.560812"><ele>432.0</ele><time>2026-05-03T11:58:06.955Z</time></trkpt><trkpt lat="46.0941724" lon="13.5606976"><ele>441.0</ele><time>2026-05-03T11:58:07.947Z</time></trkpt><trkpt lat="46.0941631" lon="13.560578"><ele>450.0</ele><time>2026-05-03T11:58:08.945Z</time></trkpt><trkpt lat="46.0941457" lon="13.5604622"><ele>450.0</ele><time>2026-05-03T11:58:09.961Z</time></trkpt><trkpt lat="46.0941221" lon="13.5603683"><ele>450.0</ele><time>2026-05-03T11:58:10.951Z</time></trkpt><trkpt lat="46.0940949" lon="13.560282"><ele>450.0</ele><time>2026-05-03T11:58:11.945Z</time></trkpt><trkpt lat="46.0940631" lon="13.5601977"><ele>450.0</ele><time>2026-05-03T11:58:12.946Z</time></trkpt><trkpt lat="46.0940236" lon="13.5601111"><ele>450.0</ele><time>2026-05-03T11:58:13.941Z</time></trkpt><trkpt lat="46.0939845" lon="13.560032"><ele>450.0</ele><time>2026-05-03T11:58:14.945Z</time></trkpt><trkpt lat="46.0939052" lon="13.5599115"><ele>453.8333333333333</ele><time>2026-05-03T11:58:16.957Z</time></trkpt><trkpt lat="46.0938149" lon="13.5598241"><ele>457.66666666666663</ele><time>2026-05-03T11:58:18.952Z</time></trkpt><trkpt lat="46.093709" lon="13.5597883"><ele>461.5</ele><time>2026-05-03T11:58:20.945Z</time></trkpt><trkpt lat="46.0936422" lon="13.5597881"><ele>465.3333333333333</ele><time>2026-05-03T11:58:21.953Z</time></trkpt><trkpt lat="46.09358" lon="13.5598153"><ele>469.16666666666663</ele><time>2026-05-03T11:58:22.948Z</time></trkpt><trkpt lat="46.0935142" lon="13.5598561"><ele>473.0</ele><time>2026-05-03T11:58:23.947Z</time></trkpt><trkpt lat="46.0934516" lon="13.5599084"><ele>472.99999999999994</ele><time>2026-05-03T11:58:24.954Z</time></trkpt><trkpt lat="46.0933778" lon="13.559946"><ele>473.0</ele><time>2026-05-03T11:58:25.948Z</time></trkpt><trkpt lat="46.0932903" lon="13.5599702"><ele>473.0</ele><time>2026-05-03T11:58:26.948Z</time></trkpt><trkpt lat="46.093202" lon="13.5599965"><ele>473.0</ele><time>2026-05-03T11:58:27.944Z</time></trkpt><trkpt lat="46.0931155" lon="13.5600171"><ele>472.99999999999994</ele><time>2026-05-03T11:58:28.958Z</time></trkpt><trkpt lat="46.0930148" lon="13.5600473"><ele>473.0</ele><time>2026-05-03T11:58:29.952Z</time></trkpt><trkpt lat="46.0929137" lon="13.5600711"><ele>474.16666666666663</ele><time>2026-05-03T11:58:30.945Z</time></trkpt><trkpt lat="46.0928138" lon="13.5600948"><ele>475.3333333333333</ele><time>2026-05-03T11:58:31.944Z</time></trkpt><trkpt lat="46.0927149" lon="13.5601172"><ele>476.5</ele><time>2026-05-03T11:58:32.943Z</time></trkpt><trkpt lat="46.0926333" lon="13.5601316"><ele>477.66666666666663</ele><time>2026-05-03T11:58:33.957Z</time></trkpt><trkpt lat="46.0925688" lon="13.560135"><ele>478.8333333333333</ele><time>2026-05-03T11:58:34.95Z</time></trkpt><trkpt lat="46.0924818" lon="13.5600692"><ele>480.0</ele><time>2026-05-03T11:58:36.948Z</time></trkpt><trkpt lat="46.0924453" lon="13.5599182"><ele>480.0</ele><time>2026-05-03T11:58:38.956Z</time></trkpt><trkpt lat="46.0924469" lon="13.5597988"><ele>480.0</ele><time>2026-05-03T11:58:39.951Z</time></trkpt><trkpt lat="46.0924539" lon="13.5596664"><ele>480.0</ele><time>2026-05-03T11:58:40.942Z</time></trkpt><trkpt lat="46.0924592" lon="13.5595322"><ele>480.0</ele><time>2026-05-03T11:58:41.951Z</time></trkpt><trkpt lat="46.0924685" lon="13.5594007"><ele>480.0</ele><time>2026-05-03T11:58:42.953Z</time></trkpt><trkpt lat="46.0924853" lon="13.5592856"><ele>480.0</ele><time>2026-05-03T11:58:43.948Z</time></trkpt><trkpt lat="46.0924992" lon="13.559181"><ele>480.4</ele><time>2026-05-03T11:58:44.946Z</time></trkpt><trkpt lat="46.0925183" lon="13.5590692"><ele>480.8</ele><time>2026-05-03T11:58:45.957Z</time></trkpt><trkpt lat="46.0925549" lon="13.5589602"><ele>481.20000000000005</ele><time>2026-05-03T11:58:46.951Z</time></trkpt><trkpt lat="46.0926025" lon="13.5588402"><ele>481.6</ele><time>2026-05-03T11:58:47.955Z</time></trkpt><trkpt lat="46.0926469" lon="13.5587104"><ele>482.0</ele><time>2026-05-03T11:58:48.952Z</time></trkpt><trkpt lat="46.0926865" lon="13.5585797"><ele>480.20000000000005</ele><time>2026-05-03T11:58:49.954Z</time></trkpt><trkpt lat="46.0927355" lon="13.558453"><ele>478.40000000000003</ele><time>2026-05-03T11:58:50.946Z</time></trkpt><trkpt lat="46.0927729" lon="13.5583312"><ele>476.59999999999997</ele><time>2026-05-03T11:58:51.953Z</time></trkpt><trkpt lat="46.0927975" lon="13.5582065"><ele>474.79999999999995</ele><time>2026-05-03T11:58:52.944Z</time></trkpt><trkpt lat="46.0928294" lon="13.5580735"><ele>473.0</ele><time>2026-05-03T11:58:53.951Z</time></trkpt><trkpt lat="46.0928474" lon="13.5579383"><ele>472.0</ele><time>2026-05-03T11:58:54.943Z</time></trkpt><trkpt lat="46.0928587" lon="13.5577939"><ele>470.99999999999994</ele><time>2026-05-03T11:58:55.95Z</time></trkpt><trkpt lat="46.0928656" lon="13.5576585"><ele>469.99999999999994</ele><time>2026-05-03T11:58:56.943Z</time></trkpt><trkpt lat="46.0928758" lon="13.5575194"><ele>469.0</ele><time>2026-05-03T11:58:57.948Z</time></trkpt><trkpt lat="46.0928862" lon="13.557383"><ele>468.0</ele><time>2026-05-03T11:58:58.95Z</time></trkpt><trkpt lat="46.0929126" lon="13.5572643"><ele>468.0</ele><time>2026-05-03T11:58:59.945Z</time></trkpt><trkpt lat="46.0929432" lon="13.557142"><ele>467.99999999999994</ele><time>2026-05-03T11:59:00.942Z</time></trkpt><trkpt lat="46.0929672" lon="13.5570186"><ele>467.99999999999994</ele><time>2026-05-03T11:59:01.944Z</time></trkpt><trkpt lat="46.0929771" lon="13.5568894"><ele>468.0</ele><time>2026-05-03T11:59:02.957Z</time></trkpt><trkpt lat="46.0929749" lon="13.5567844"><ele>468.0</ele><time>2026-05-03T11:59:03.943Z</time></trkpt><trkpt lat="46.0928992" lon="13.5566551"><ele>469.0</ele><time>2026-05-03T11:59:05.956Z</time></trkpt><trkpt lat="46.0928432" lon="13.5566038"><ele>470.0</ele><time>2026-05-03T11:59:06.946Z</time></trkpt><trkpt lat="46.0927353" lon="13.556495"><ele>471.0</ele><time>2026-05-03T11:59:08.944Z</time></trkpt><trkpt lat="46.0926812" lon="13.5564367"><ele>472.0</ele><time>2026-05-03T11:59:09.952Z</time></trkpt><trkpt lat="46.0926281" lon="13.5563455"><ele>473.0</ele><time>2026-05-03T11:59:10.949Z</time></trkpt><trkpt lat="46.0925755" lon="13.5562555"><ele>474.0</ele><time>2026-05-03T11:59:11.943Z</time></trkpt><trkpt lat="46.0925198" lon="13.5561651"><ele>475.42857142857133</ele><time>2026-05-03T11:59:12.951Z</time></trkpt><trkpt lat="46.0924722" lon="13.5560726"><ele>476.85714285714283</ele><time>2026-05-03T11:59:13.952Z</time></trkpt><trkpt lat="46.0924327" lon="13.5559775"><ele>478.2857142857142</ele><time>2026-05-03T11:59:14.952Z</time></trkpt><trkpt lat="46.0924025" lon="13.5558962"><ele>479.71428571428567</ele><time>2026-05-03T11:59:15.95Z</time></trkpt><trkpt lat="46.0923791" lon="13.5558118"><ele>481.1428571428571</ele><time>2026-05-03T11:59:16.949Z</time></trkpt><trkpt lat="46.0923626" lon="13.5557102"><ele>482.57142857142856</ele><time>2026-05-03T11:59:17.951Z</time></trkpt><trkpt lat="46.0923417" lon="13.5555968"><ele>484.0</ele><time>2026-05-03T11:59:18.951Z</time></trkpt><trkpt lat="46.0923198" lon="13.5554732"><ele>477.0</ele><time>2026-05-03T11:59:19.942Z</time></trkpt><trkpt lat="46.0923028" lon="13.555358"><ele>470.0</ele><time>2026-05-03T11:59:20.948Z</time></trkpt><trkpt lat="46.0922961" lon="13.5552362"><ele>463.0</ele><time>2026-05-03T11:59:21.944Z</time></trkpt><trkpt lat="46.0922908" lon="13.5551054"><ele>456.0</ele><time>2026-05-03T11:59:22.957Z</time></trkpt><trkpt lat="46.0922745" lon="13.5549624"><ele>449.0</ele><time>2026-05-03T11:59:23.942Z</time></trkpt><trkpt lat="46.0922566" lon="13.5548161"><ele>449.0</ele><time>2026-05-03T11:59:24.953Z</time></trkpt><trkpt lat="46.0922264" lon="13.5546765"><ele>449.0</ele><time>2026-05-03T11:59:25.947Z</time></trkpt><trkpt lat="46.0921963" lon="13.5545382"><ele>449.0</ele><time>2026-05-03T11:59:26.954Z</time></trkpt><trkpt lat="46.0921479" lon="13.5543979"><ele>449.0</ele><time>2026-05-03T11:59:27.939Z</time></trkpt><trkpt lat="46.0920858" lon="13.5542748"><ele>449.0</ele><time>2026-05-03T11:59:28.945Z</time></trkpt><trkpt lat="46.0920291" lon="13.5541607"><ele>453.0</ele><time>2026-05-03T11:59:29.943Z</time></trkpt><trkpt lat="46.0919928" lon="13.5540591"><ele>457.0</ele><time>2026-05-03T11:59:30.943Z</time></trkpt><trkpt lat="46.0919822" lon="13.5539063"><ele>461.0</ele><time>2026-05-03T11:59:32.946Z</time></trkpt><trkpt lat="46.0919956" lon="13.5537465"><ele>465.0</ele><time>2026-05-03T11:59:34.952Z</time></trkpt><trkpt lat="46.0919939" lon="13.5536338"><ele>469.0</ele><time>2026-05-03T11:59:35.945Z</time></trkpt><trkpt lat="46.0919712" lon="13.5535153"><ele>470.33333333333337</ele><time>2026-05-03T11:59:36.956Z</time></trkpt><trkpt lat="46.0919299" lon="13.5533962"><ele>471.6666666666667</ele><time>2026-05-03T11:59:37.941Z</time></trkpt><trkpt lat="46.091885" lon="13.553285"><ele>473.0</ele><time>2026-05-03T11:59:38.947Z</time></trkpt><trkpt lat="46.0918582" lon="13.5531704"><ele>474.33333333333337</ele><time>2026-05-03T11:59:39.945Z</time></trkpt><trkpt lat="46.091843" lon="13.5530454"><ele>475.6666666666667</ele><time>2026-05-03T11:59:40.944Z</time></trkpt><trkpt lat="46.0918329" lon="13.5529142"><ele>477.0</ele><time>2026-05-03T11:59:41.95Z</time></trkpt><trkpt lat="46.0918356" lon="13.5527864"><ele>477.0</ele><time>2026-05-03T11:59:42.955Z</time></trkpt><trkpt lat="46.0918457" lon="13.5526767"><ele>477.0</ele><time>2026-05-03T11:59:43.96Z</time></trkpt><trkpt lat="46.0918552" lon="13.5525714"><ele>477.0</ele><time>2026-05-03T11:59:44.952Z</time></trkpt><trkpt lat="46.0918575" lon="13.5524565"><ele>477.0</ele><time>2026-05-03T11:59:45.94Z</time></trkpt><trkpt lat="46.091856" lon="13.552337"><ele>477.0</ele><time>2026-05-03T11:59:46.945Z</time></trkpt><trkpt lat="46.0918564" lon="13.5522235"><ele>477.0</ele><time>2026-05-03T11:59:47.947Z</time></trkpt><trkpt lat="46.0918641" lon="13.5521125"><ele>475.5</ele><time>2026-05-03T11:59:48.942Z</time></trkpt><trkpt lat="46.0918793" lon="13.5519975"><ele>474.0</ele><time>2026-05-03T11:59:49.951Z</time></trkpt><trkpt lat="46.0919071" lon="13.5518933"><ele>472.5</ele><time>2026-05-03T11:59:50.95Z</time></trkpt><trkpt lat="46.0919388" lon="13.5517871"><ele>471.0</ele><time>2026-05-03T11:59:51.948Z</time></trkpt><trkpt lat="46.0919748" lon="13.5516786"><ele>469.5</ele><time>2026-05-03T11:59:52.956Z</time></trkpt><trkpt lat="46.0920164" lon="13.5515796"><ele>468.0</ele><time>2026-05-03T11:59:53.944Z</time></trkpt><trkpt lat="46.0920584" lon="13.5514936"><ele>468.0</ele><time>2026-05-03T11:59:54.941Z</time></trkpt><trkpt lat="46.0921195" lon="13.5513679"><ele>468.0</ele><time>2026-05-03T11:59:56.944Z</time></trkpt><trkpt lat="46.0920588" lon="13.5513078"><ele>468.0</ele><time>2026-05-03T12:00:00.961Z</time></trkpt><trkpt lat="46.0919965" lon="13.5513444"><ele>468.0</ele><time>2026-05-03T12:00:09.943Z</time></trkpt><trkpt lat="46.0919239" lon="13.5513744"><ele>468.0</ele><time>2026-05-03T12:00:11.958Z</time></trkpt><trkpt lat="46.0918165" lon="13.5513952"><ele>468.0</ele><time>2026-05-03T12:00:13.944Z</time></trkpt><trkpt lat="46.09173" lon="13.5513524"><ele>468.0</ele><time>2026-05-03T12:00:15.957Z</time></trkpt><trkpt lat="46.0916699" lon="13.5512711"><ele>468.0</ele><time>2026-05-03T12:00:17.943Z</time></trkpt><trkpt lat="46.0916757" lon="13.551177"><ele>468.0</ele><time>2026-05-03T12:00:19.937Z</time></trkpt><trkpt lat="46.0917124" lon="13.5510771"><ele>468.0</ele><time>2026-05-03T12:00:21.945Z</time></trkpt><trkpt lat="46.0917801" lon="13.5509217"><ele>468.0</ele><time>2026-05-03T12:00:23.951Z</time></trkpt><trkpt lat="46.0918205" lon="13.5508329"><ele>468.0</ele><time>2026-05-03T12:00:24.945Z</time></trkpt><trkpt lat="46.0918719" lon="13.5507385"><ele>466.5714285714286</ele><time>2026-05-03T12:00:25.951Z</time></trkpt><trkpt lat="46.0919289" lon="13.5506559"><ele>465.1428571428572</ele><time>2026-05-03T12:00:26.946Z</time></trkpt><trkpt lat="46.0919737" lon="13.5505804"><ele>463.7142857142857</ele><time>2026-05-03T12:00:27.943Z</time></trkpt><trkpt lat="46.0919862" lon="13.5504888"><ele>462.28571428571433</ele><time>2026-05-03T12:00:29.955Z</time></trkpt><trkpt lat="46.0919093" lon="13.5504594"><ele>460.8571428571429</ele><time>2026-05-03T12:00:31.942Z</time></trkpt><trkpt lat="46.0918654" lon="13.5503916"><ele>459.42857142857144</ele><time>2026-05-03T12:00:33.944Z</time></trkpt><trkpt lat="46.0918967" lon="13.5502792"><ele>458.0</ele><time>2026-05-03T12:00:35.942Z</time></trkpt><trkpt lat="46.0919153" lon="13.5501838"><ele>455.59999999999997</ele><time>2026-05-03T12:00:37.948Z</time></trkpt><trkpt lat="46.0918218" lon="13.5501791"><ele>453.19999999999993</ele><time>2026-05-03T12:00:41.944Z</time></trkpt><trkpt lat="46.0917036" lon="13.5502996"><ele>450.8</ele><time>2026-05-03T12:00:43.955Z</time></trkpt><trkpt lat="46.0916187" lon="13.5503714"><ele>448.4</ele><time>2026-05-03T12:00:44.955Z</time></trkpt><trkpt lat="46.0915387" lon="13.550437"><ele>446.0</ele><time>2026-05-03T12:00:45.945Z</time></trkpt><trkpt lat="46.0914647" lon="13.550502"><ele>443.0</ele><time>2026-05-03T12:00:46.947Z</time></trkpt><trkpt lat="46.0913783" lon="13.5505718"><ele>440.0</ele><time>2026-05-03T12:00:47.943Z</time></trkpt><trkpt lat="46.0913005" lon="13.5506479"><ele>437.0</ele><time>2026-05-03T12:00:48.95Z</time></trkpt><trkpt lat="46.0912158" lon="13.5507271"><ele>434.0</ele><time>2026-05-03T12:00:49.951Z</time></trkpt><trkpt lat="46.0911381" lon="13.5508168"><ele>431.0</ele><time>2026-05-03T12:00:50.951Z</time></trkpt><trkpt lat="46.0910699" lon="13.5509075"><ele>430.99999999999994</ele><time>2026-05-03T12:00:51.949Z</time></trkpt><trkpt lat="46.091011" lon="13.5510053"><ele>431.0</ele><time>2026-05-03T12:00:52.946Z</time></trkpt><trkpt lat="46.0909564" lon="13.5511008"><ele>431.0</ele><time>2026-05-03T12:00:53.958Z</time></trkpt><trkpt lat="46.0909059" lon="13.5511789"><ele>431.0</ele><time>2026-05-03T12:00:54.942Z</time></trkpt><trkpt lat="46.0908027" lon="13.5511745"><ele>430.99999999999994</ele><time>2026-05-03T12:00:56.945Z</time></trkpt><trkpt lat="46.0907901" lon="13.5510712"><ele>431.0</ele><time>2026-05-03T12:00:57.95Z</time></trkpt><trkpt lat="46.0908274" lon="13.5509661"><ele>431.0</ele><time>2026-05-03T12:00:58.953Z</time></trkpt><trkpt lat="46.0908991" lon="13.5508513"><ele>431.0</ele><time>2026-05-03T12:00:59.962Z</time></trkpt><trkpt lat="46.0909861" lon="13.5507165"><ele>431.0</ele><time>2026-05-03T12:01:00.946Z</time></trkpt><trkpt lat="46.0910756" lon="13.5505664"><ele>431.0</ele><time>2026-05-03T12:01:01.946Z</time></trkpt><trkpt lat="46.0911635" lon="13.5504207"><ele>428.6</ele><time>2026-05-03T12:01:02.942Z</time></trkpt><trkpt lat="46.0912374" lon="13.5502847"><ele>426.20000000000005</ele><time>2026-05-03T12:01:03.958Z</time></trkpt><trkpt lat="46.0912804" lon="13.5501578"><ele>423.79999999999995</ele><time>2026-05-03T12:01:04.947Z</time></trkpt><trkpt lat="46.0912978" lon="13.5500317"><ele>421.4</ele><time>2026-05-03T12:01:05.952Z</time></trkpt><trkpt lat="46.0912791" lon="13.5499204"><ele>419.0</ele><time>2026-05-03T12:01:06.944Z</time></trkpt><trkpt lat="46.0912226" lon="13.5498161"><ele>419.0</ele><time>2026-05-03T12:01:07.945Z</time></trkpt><trkpt lat="46.0911586" lon="13.5497057"><ele>419.0</ele><time>2026-05-03T12:01:08.946Z</time></trkpt><trkpt lat="46.0911046" lon="13.5495867"><ele>419.0</ele><time>2026-05-03T12:01:09.942Z</time></trkpt><trkpt lat="46.0910935" lon="13.5494429"><ele>419.0</ele><time>2026-05-03T12:01:10.956Z</time></trkpt><trkpt lat="46.0911228" lon="13.549273"><ele>419.0</ele><time>2026-05-03T12:01:11.948Z</time></trkpt><trkpt lat="46.0911701" lon="13.5491076"><ele>417.75</ele><time>2026-05-03T12:01:12.944Z</time></trkpt><trkpt lat="46.091222" lon="13.5489405"><ele>416.5</ele><time>2026-05-03T12:01:13.944Z</time></trkpt><trkpt lat="46.0912824" lon="13.5487832"><ele>415.25</ele><time>2026-05-03T12:01:14.949Z</time></trkpt><trkpt lat="46.0913579" lon="13.5486545"><ele>414.0</ele><time>2026-05-03T12:01:15.946Z</time></trkpt><trkpt lat="46.0914472" lon="13.5485735"><ele>414.75</ele><time>2026-05-03T12:01:16.941Z</time></trkpt><trkpt lat="46.0915623" lon="13.5485345"><ele>415.5</ele><time>2026-05-03T12:01:17.948Z</time></trkpt><trkpt lat="46.0916929" lon="13.5484962"><ele>416.25</ele><time>2026-05-03T12:01:18.948Z</time></trkpt><trkpt lat="46.0918236" lon="13.5484393"><ele>417.0</ele><time>2026-05-03T12:01:19.939Z</time></trkpt><trkpt lat="46.0919453" lon="13.5483658"><ele>417.0</ele><time>2026-05-03T12:01:20.946Z</time></trkpt><trkpt lat="46.092048" lon="13.5482901"><ele>417.0</ele><time>2026-05-03T12:01:21.956Z</time></trkpt><trkpt lat="46.0921219" lon="13.5482166"><ele>417.0</ele><time>2026-05-03T12:01:22.949Z</time></trkpt><trkpt lat="46.0921691" lon="13.5481475"><ele>417.0</ele><time>2026-05-03T12:01:23.944Z</time></trkpt><trkpt lat="46.0921251" lon="13.5480207"><ele>417.0</ele><time>2026-05-03T12:01:25.937Z</time></trkpt><trkpt lat="46.0920506" lon="13.5480312"><ele>417.0</ele><time>2026-05-03T12:01:26.95Z</time></trkpt><trkpt lat="46.091947" lon="13.5480853"><ele>417.0</ele><time>2026-05-03T12:01:27.942Z</time></trkpt><trkpt lat="46.0918216" lon="13.5481399"><ele>417.0</ele><time>2026-05-03T12:01:28.946Z</time></trkpt><trkpt lat="46.0916762" lon="13.5481677"><ele>417.0</ele><time>2026-05-03T12:01:29.947Z</time></trkpt><trkpt lat="46.0915228" lon="13.5481564"><ele>417.0</ele><time>2026-05-03T12:01:30.952Z</time></trkpt><trkpt lat="46.091377" lon="13.5481068"><ele>415.0</ele><time>2026-05-03T12:01:31.952Z</time></trkpt><trkpt lat="46.0912464" lon="13.5480586"><ele>413.0</ele><time>2026-05-03T12:01:32.954Z</time></trkpt><trkpt lat="46.0911198" lon="13.5480369"><ele>411.0</ele><time>2026-05-03T12:01:33.943Z</time></trkpt><trkpt lat="46.0909939" lon="13.5480581"><ele>409.0</ele><time>2026-05-03T12:01:34.947Z</time></trkpt><trkpt lat="46.0908638" lon="13.5481384"><ele>406.0</ele><time>2026-05-03T12:01:35.945Z</time></trkpt><trkpt lat="46.0907352" lon="13.5482436"><ele>403.0</ele><time>2026-05-03T12:01:36.949Z</time></trkpt><trkpt lat="46.0905985" lon="13.5483688"><ele>400.0</ele><time>2026-05-03T12:01:37.945Z</time></trkpt><trkpt lat="46.0904602" lon="13.5484957"><ele>400.0</ele><time>2026-05-03T12:01:38.944Z</time></trkpt><trkpt lat="46.0903324" lon="13.5485943"><ele>400.0</ele><time>2026-05-03T12:01:39.943Z</time></trkpt><trkpt lat="46.0902069" lon="13.5486867"><ele>400.0</ele><time>2026-05-03T12:01:40.945Z</time></trkpt><trkpt lat="46.0900934" lon="13.5487687"><ele>400.0</ele><time>2026-05-03T12:01:41.945Z</time></trkpt><trkpt lat="46.0899767" lon="13.5488399"><ele>397.75</ele><time>2026-05-03T12:01:42.945Z</time></trkpt><trkpt lat="46.0898563" lon="13.5488564"><ele>395.5</ele><time>2026-05-03T12:01:43.937Z</time></trkpt><trkpt lat="46.0897407" lon="13.5488056"><ele>393.25</ele><time>2026-05-03T12:01:44.957Z</time></trkpt><trkpt lat="46.0896163" lon="13.5487335"><ele>391.0</ele><time>2026-05-03T12:01:45.943Z</time></trkpt><trkpt lat="46.0894929" lon="13.5486549"><ele>391.0</ele><time>2026-05-03T12:01:46.947Z</time></trkpt><trkpt lat="46.0893767" lon="13.5485544"><ele>391.0</ele><time>2026-05-03T12:01:47.951Z</time></trkpt><trkpt lat="46.0892667" lon="13.5484357"><ele>391.0</ele><time>2026-05-03T12:01:48.948Z</time></trkpt><trkpt lat="46.0891632" lon="13.5483165"><ele>391.0</ele><time>2026-05-03T12:01:49.943Z</time></trkpt><trkpt lat="46.089064" lon="13.5481939"><ele>387.75</ele><time>2026-05-03T12:01:50.944Z</time></trkpt><trkpt lat="46.0889654" lon="13.5480852"><ele>384.5</ele><time>2026-05-03T12:01:51.957Z</time></trkpt><trkpt lat="46.0888611" lon="13.5479898"><ele>381.25</ele><time>2026-05-03T12:01:52.945Z</time></trkpt><trkpt lat="46.0887396" lon="13.5479222"><ele>378.0</ele><time>2026-05-03T12:01:53.949Z</time></trkpt><trkpt lat="46.0885979" lon="13.5479246"><ele>378.0</ele><time>2026-05-03T12:01:54.954Z</time></trkpt><trkpt lat="46.0884562" lon="13.5480112"><ele>378.0</ele><time>2026-05-03T12:01:55.947Z</time></trkpt><trkpt lat="46.0883449" lon="13.5481348"><ele>378.0</ele><time>2026-05-03T12:01:56.949Z</time></trkpt><trkpt lat="46.0882494" lon="13.5482818"><ele>378.0</ele><time>2026-05-03T12:01:57.955Z</time></trkpt><trkpt lat="46.0881749" lon="13.5484638"><ele>373.0</ele><time>2026-05-03T12:01:58.948Z</time></trkpt><trkpt lat="46.0881195" lon="13.5486869"><ele>368.0</ele><time>2026-05-03T12:01:59.944Z</time></trkpt><trkpt lat="46.088069" lon="13.5488891"><ele>363.0</ele><time>2026-05-03T12:02:00.957Z</time></trkpt><trkpt lat="46.088062" lon="13.5490761"><ele>358.0</ele><time>2026-05-03T12:02:01.963Z</time></trkpt><trkpt lat="46.0880979" lon="13.5492119"><ele>358.0</ele><time>2026-05-03T12:02:02.945Z</time></trkpt><trkpt lat="46.0881848" lon="13.54934"><ele>358.0</ele><time>2026-05-03T12:02:03.945Z</time></trkpt><trkpt lat="46.0882936" lon="13.5494166"><ele>358.0</ele><time>2026-05-03T12:02:04.944Z</time></trkpt><trkpt lat="46.0884068" lon="13.5494759"><ele>358.0</ele><time>2026-05-03T12:02:05.951Z</time></trkpt><trkpt lat="46.0884891" lon="13.5495255"><ele>356.5</ele><time>2026-05-03T12:02:06.947Z</time></trkpt><trkpt lat="46.0885329" lon="13.5496138"><ele>355.0</ele><time>2026-05-03T12:02:07.946Z</time></trkpt><trkpt lat="46.0885274" lon="13.549728"><ele>353.5</ele><time>2026-05-03T12:02:08.946Z</time></trkpt><trkpt lat="46.0884817" lon="13.5498179"><ele>352.0</ele><time>2026-05-03T12:02:09.951Z</time></trkpt><trkpt lat="46.0883993" lon="13.5498702"><ele>350.5</ele><time>2026-05-03T12:02:10.941Z</time></trkpt><trkpt lat="46.0882857" lon="13.5499147"><ele>349.0</ele><time>2026-05-03T12:02:11.948Z</time></trkpt><trkpt lat="46.0881675" lon="13.5499922"><ele>349.0</ele><time>2026-05-03T12:02:12.948Z</time></trkpt><trkpt lat="46.088047" lon="13.5501059"><ele>349.0</ele><time>2026-05-03T12:02:13.952Z</time></trkpt><trkpt lat="46.0879266" lon="13.5502221"><ele>349.0</ele><time>2026-05-03T12:02:14.952Z</time></trkpt><trkpt lat="46.0878152" lon="13.5503296"><ele>349.0</ele><time>2026-05-03T12:02:15.953Z</time></trkpt><trkpt lat="46.0877173" lon="13.5504628"><ele>347.5</ele><time>2026-05-03T12:02:16.951Z</time></trkpt><trkpt lat="46.0876382" lon="13.5506248"><ele>346.0</ele><time>2026-05-03T12:02:17.944Z</time></trkpt><trkpt lat="46.0876014" lon="13.5508261"><ele>344.5</ele><time>2026-05-03T12:02:18.947Z</time></trkpt><trkpt lat="46.0875874" lon="13.5510325"><ele>343.0</ele><time>2026-05-03T12:02:19.955Z</time></trkpt><trkpt lat="46.0876104" lon="13.5512214"><ele>341.0</ele><time>2026-05-03T12:02:20.951Z</time></trkpt><trkpt lat="46.0876846" lon="13.5513991"><ele>339.0</ele><time>2026-05-03T12:02:21.942Z</time></trkpt><trkpt lat="46.0877795" lon="13.5515361"><ele>337.0</ele><time>2026-05-03T12:02:22.955Z</time></trkpt><trkpt lat="46.0878597" lon="13.5516678"><ele>335.0</ele><time>2026-05-03T12:02:23.945Z</time></trkpt><trkpt lat="46.0879313" lon="13.5518286"><ele>335.0</ele><time>2026-05-03T12:02:24.943Z</time></trkpt><trkpt lat="46.0879561" lon="13.5520189"><ele>335.0</ele><time>2026-05-03T12:02:25.943Z</time></trkpt><trkpt lat="46.0879939" lon="13.5522194"><ele>335.0</ele><time>2026-05-03T12:02:26.947Z</time></trkpt><trkpt lat="46.0880534" lon="13.5524303"><ele>335.0</ele><time>2026-05-03T12:02:27.939Z</time></trkpt><trkpt lat="46.0881503" lon="13.552619"><ele>332.5</ele><time>2026-05-03T12:02:28.952Z</time></trkpt><trkpt lat="46.0882513" lon="13.5527914"><ele>330.0</ele><time>2026-05-03T12:02:29.95Z</time></trkpt><trkpt lat="46.0883523" lon="13.5529572"><ele>327.5</ele><time>2026-05-03T12:02:30.942Z</time></trkpt><trkpt lat="46.0884531" lon="13.5530943"><ele>325.0</ele><time>2026-05-03T12:02:31.947Z</time></trkpt><trkpt lat="46.0885645" lon="13.553227"><ele>325.0</ele><time>2026-05-03T12:02:32.945Z</time></trkpt><trkpt lat="46.0886612" lon="13.5533551"><ele>325.0</ele><time>2026-05-03T12:02:33.948Z</time></trkpt><trkpt lat="46.0887284" lon="13.5534993"><ele>325.0</ele><time>2026-05-03T12:02:34.94Z</time></trkpt><trkpt lat="46.088762" lon="13.5536352"><ele>325.0</ele><time>2026-05-03T12:02:35.945Z</time></trkpt><trkpt lat="46.0887472" lon="13.5537901"><ele>321.5</ele><time>2026-05-03T12:02:36.945Z</time></trkpt><trkpt lat="46.0886888" lon="13.5539766"><ele>318.0</ele><time>2026-05-03T12:02:37.943Z</time></trkpt><trkpt lat="46.0886606" lon="13.5541584"><ele>314.5</ele><time>2026-05-03T12:02:38.944Z</time></trkpt><trkpt lat="46.08865" lon="13.554346"><ele>311.0</ele><time>2026-05-03T12:02:39.943Z</time></trkpt><trkpt lat="46.0886461" lon="13.5545497"><ele>309.6666666666667</ele><time>2026-05-03T12:02:40.95Z</time></trkpt><trkpt lat="46.0886639" lon="13.5547752"><ele>308.3333333333333</ele><time>2026-05-03T12:02:41.944Z</time></trkpt><trkpt lat="46.0887067" lon="13.5549728"><ele>307.0</ele><time>2026-05-03T12:02:42.951Z</time></trkpt><trkpt lat="46.0887498" lon="13.5551827"><ele>305.5</ele><time>2026-05-03T12:02:43.942Z</time></trkpt><trkpt lat="46.0888041" lon="13.5553801"><ele>304.0</ele><time>2026-05-03T12:02:44.946Z</time></trkpt><trkpt lat="46.0888817" lon="13.5555874"><ele>302.5</ele><time>2026-05-03T12:02:45.948Z</time></trkpt><trkpt lat="46.0889705" lon="13.5557179"><ele>301.0</ele><time>2026-05-03T12:02:46.942Z</time></trkpt><trkpt lat="46.0890275" lon="13.555811"><ele>301.0</ele><time>2026-05-03T12:02:47.945Z</time></trkpt><trkpt lat="46.0890343" lon="13.5559462"><ele>301.0</ele><time>2026-05-03T12:02:48.946Z</time></trkpt><trkpt lat="46.0889795" lon="13.5561264"><ele>301.0</ele><time>2026-05-03T12:02:49.951Z</time></trkpt><trkpt lat="46.0889351" lon="13.5563028"><ele>301.0</ele><time>2026-05-03T12:02:50.94Z</time></trkpt><trkpt lat="46.0889092" lon="13.5564755"><ele>300.40000000000003</ele><time>2026-05-03T12:02:51.944Z</time></trkpt><trkpt lat="46.0888971" lon="13.5566476"><ele>299.8</ele><time>2026-05-03T12:02:52.938Z</time></trkpt><trkpt lat="46.0888862" lon="13.5568056"><ele>299.20000000000005</ele><time>2026-05-03T12:02:53.946Z</time></trkpt><trkpt lat="46.0888875" lon="13.556936"><ele>298.6</ele><time>2026-05-03T12:02:54.936Z</time></trkpt><trkpt lat="46.0889057" lon="13.5570586"><ele>298.0</ele><time>2026-05-03T12:02:55.951Z</time></trkpt><trkpt lat="46.088998" lon="13.5571701"><ele>298.0</ele><time>2026-05-03T12:02:57.945Z</time></trkpt><trkpt lat="46.089056" lon="13.557215"><ele>298.0</ele><time>2026-05-03T12:02:58.949Z</time></trkpt><trkpt lat="46.0889463" lon="13.5572724"><ele>298.0</ele><time>2026-05-03T12:03:01.944Z</time></trkpt><trkpt lat="46.0888457" lon="13.5573094"><ele>298.0</ele><time>2026-05-03T12:03:02.946Z</time></trkpt><trkpt lat="46.0887606" lon="13.5573724"><ele>298.0</ele><time>2026-05-03T12:03:03.942Z</time></trkpt><trkpt lat="46.0886997" lon="13.5574557"><ele>298.0</ele><time>2026-05-03T12:03:04.949Z</time></trkpt><trkpt lat="46.0886784" lon="13.5575608"><ele>298.0</ele><time>2026-05-03T12:03:05.944Z</time></trkpt><trkpt lat="46.0886663" lon="13.5576714"><ele>298.0</ele><time>2026-05-03T12:03:06.956Z</time></trkpt><trkpt lat="46.0886247" lon="13.557754"><ele>298.0</ele><time>2026-05-03T12:03:07.953Z</time></trkpt><trkpt lat="46.0885558" lon="13.5578111"><ele>298.0</ele><time>2026-05-03T12:03:08.942Z</time></trkpt><trkpt lat="46.0884654" lon="13.5578273"><ele>298.0</ele><time>2026-05-03T12:03:09.944Z</time></trkpt><trkpt lat="46.0883541" lon="13.557786"><ele>291.75</ele><time>2026-05-03T12:03:10.939Z</time></trkpt><trkpt lat="46.088237" lon="13.5577092"><ele>285.5</ele><time>2026-05-03T12:03:11.943Z</time></trkpt><trkpt lat="46.0881369" lon="13.5576235"><ele>279.25</ele><time>2026-05-03T12:03:12.952Z</time></trkpt><trkpt lat="46.0880248" lon="13.5575833"><ele>273.0</ele><time>2026-05-03T12:03:13.948Z</time></trkpt><trkpt lat="46.0879025" lon="13.5575649"><ele>273.0</ele><time>2026-05-03T12:03:14.939Z</time></trkpt><trkpt lat="46.087776" lon="13.5575659"><ele>273.0</ele><time>2026-05-03T12:03:15.946Z</time></trkpt><trkpt lat="46.0876484" lon="13.557604"><ele>273.0</ele><time>2026-05-03T12:03:16.944Z</time></trkpt><trkpt lat="46.087555" lon="13.5576576"><ele>273.0</ele><time>2026-05-03T12:03:17.943Z</time></trkpt><trkpt lat="46.0874823" lon="13.5576848"><ele>273.0</ele><time>2026-05-03T12:03:18.952Z</time></trkpt><trkpt lat="46.0874343" lon="13.5576028"><ele>273.0</ele><time>2026-05-03T12:03:20.943Z</time></trkpt><trkpt lat="46.0875232" lon="13.5575004"><ele>273.0</ele><time>2026-05-03T12:03:22.941Z</time></trkpt><trkpt lat="46.0876022" lon="13.5574476"><ele>273.0</ele><time>2026-05-03T12:03:23.948Z</time></trkpt><trkpt lat="46.087703" lon="13.5573916"><ele>273.0</ele><time>2026-05-03T12:03:24.942Z</time></trkpt><trkpt lat="46.087806" lon="13.5573417"><ele>273.0</ele><time>2026-05-03T12:03:25.942Z</time></trkpt><trkpt lat="46.0879072" lon="13.5573119"><ele>273.0</ele><time>2026-05-03T12:03:26.948Z</time></trkpt><trkpt lat="46.0879991" lon="13.5573129"><ele>273.0</ele><time>2026-05-03T12:03:27.948Z</time></trkpt><trkpt lat="46.0880769" lon="13.5572946"><ele>273.0</ele><time>2026-05-03T12:03:28.944Z</time></trkpt><trkpt lat="46.0881478" lon="13.5572168"><ele>273.0</ele><time>2026-05-03T12:03:30.945Z</time></trkpt><trkpt lat="46.0880267" lon="13.5571746"><ele>273.0</ele><time>2026-05-03T12:03:32.944Z</time></trkpt><trkpt lat="46.087935" lon="13.5571833"><ele>273.0</ele><time>2026-05-03T12:03:33.95Z</time></trkpt><trkpt lat="46.0878266" lon="13.5571939"><ele>273.0</ele><time>2026-05-03T12:03:34.941Z</time></trkpt><trkpt lat="46.0877033" lon="13.5572129"><ele>273.0</ele><time>2026-05-03T12:03:35.943Z</time></trkpt><trkpt lat="46.0875738" lon="13.55722"><ele>273.0</ele><time>2026-05-03T12:03:36.95Z</time></trkpt><trkpt lat="46.0874507" lon="13.5572094"><ele>264.6</ele><time>2026-05-03T12:03:37.956Z</time></trkpt><trkpt lat="46.0873319" lon="13.5572051"><ele>256.20000000000005</ele><time>2026-05-03T12:03:38.958Z</time></trkpt><trkpt lat="46.0872278" lon="13.5572264"><ele>247.8</ele><time>2026-05-03T12:03:39.944Z</time></trkpt><trkpt lat="46.0871456" lon="13.5572743"><ele>239.4</ele><time>2026-05-03T12:03:40.944Z</time></trkpt><trkpt lat="46.0871105" lon="13.5573539"><ele>231.0</ele><time>2026-05-03T12:03:41.942Z</time></trkpt><trkpt lat="46.0871125" lon="13.5574708"><ele>231.0</ele><time>2026-05-03T12:03:42.946Z</time></trkpt><trkpt lat="46.0871464" lon="13.5576376"><ele>231.0</ele><time>2026-05-03T12:03:43.944Z</time></trkpt><trkpt lat="46.0871899" lon="13.557839"><ele>231.0</ele><time>2026-05-03T12:03:44.944Z</time></trkpt><trkpt lat="46.0872359" lon="13.5580667"><ele>231.0</ele><time>2026-05-03T12:03:45.947Z</time></trkpt><trkpt lat="46.0873107" lon="13.5583174"><ele>227.0</ele><time>2026-05-03T12:03:46.943Z</time></trkpt><trkpt lat="46.0873961" lon="13.5585695"><ele>223.0</ele><time>2026-05-03T12:03:47.95Z</time></trkpt><trkpt lat="46.087462" lon="13.5588119"><ele>219.0</ele><time>2026-05-03T12:03:48.954Z</time></trkpt><trkpt lat="46.0875161" lon="13.5590484"><ele>219.33333333333331</ele><time>2026-05-03T12:03:49.947Z</time></trkpt><trkpt lat="46.0875679" lon="13.5592817"><ele>219.66666666666666</ele><time>2026-05-03T12:03:50.944Z</time></trkpt><trkpt lat="46.0876387" lon="13.5595106"><ele>220.0</ele><time>2026-05-03T12:03:51.942Z</time></trkpt><trkpt lat="46.0877335" lon="13.5597133"><ele>220.0</ele><time>2026-05-03T12:03:52.943Z</time></trkpt><trkpt lat="46.0878314" lon="13.5599045"><ele>220.0</ele><time>2026-05-03T12:03:53.944Z</time></trkpt><trkpt lat="46.0879044" lon="13.5601112"><ele>220.0</ele><time>2026-05-03T12:03:54.941Z</time></trkpt><trkpt lat="46.0879651" lon="13.560318"><ele>213.33333333333331</ele><time>2026-05-03T12:03:55.947Z</time></trkpt><trkpt lat="46.0880481" lon="13.5605129"><ele>206.66666666666669</ele><time>2026-05-03T12:03:56.945Z</time></trkpt><trkpt lat="46.0881632" lon="13.5606927"><ele>200.0</ele><time>2026-05-03T12:03:57.945Z</time></trkpt><trkpt lat="46.0883148" lon="13.5608858"><ele>200.0</ele><time>2026-05-03T12:03:58.949Z</time></trkpt><trkpt lat="46.0884361" lon="13.5610747"><ele>200.0</ele><time>2026-05-03T12:03:59.947Z</time></trkpt><trkpt lat="46.0885409" lon="13.5612512"><ele>200.0</ele><time>2026-05-03T12:04:00.945Z</time></trkpt><trkpt lat="46.0886476" lon="13.561437"><ele>200.33333333333334</ele><time>2026-05-03T12:04:01.944Z</time></trkpt><trkpt lat="46.0887369" lon="13.5616475"><ele>200.66666666666669</ele><time>2026-05-03T12:04:02.952Z</time></trkpt><trkpt lat="46.0888275" lon="13.5618556"><ele>201.0</ele><time>2026-05-03T12:04:03.951Z</time></trkpt><trkpt lat="46.0889086" lon="13.5620611"><ele>201.0</ele><time>2026-05-03T12:04:04.947Z</time></trkpt><trkpt lat="46.0889878" lon="13.5622654"><ele>201.0</ele><time>2026-05-03T12:04:05.943Z</time></trkpt><trkpt lat="46.0890519" lon="13.5624875"><ele>201.0</ele><time>2026-05-03T12:04:06.942Z</time></trkpt><trkpt lat="46.0890996" lon="13.5627137"><ele>210.66666666666669</ele><time>2026-05-03T12:04:07.942Z</time></trkpt><trkpt lat="46.0891452" lon="13.5629545"><ele>220.33333333333334</ele><time>2026-05-03T12:04:08.944Z</time></trkpt><trkpt lat="46.0891641" lon="13.5631927"><ele>230.0</ele><time>2026-05-03T12:04:09.939Z</time></trkpt><trkpt lat="46.0891781" lon="13.5634227"><ele>230.0</ele><time>2026-05-03T12:04:10.948Z</time></trkpt><trkpt lat="46.0891778" lon="13.5636512"><ele>230.0</ele><time>2026-05-03T12:04:11.938Z</time></trkpt><trkpt lat="46.0891627" lon="13.563879"><ele>230.0</ele><time>2026-05-03T12:04:12.944Z</time></trkpt><trkpt lat="46.0891146" lon="13.5640772"><ele>218.0</ele><time>2026-05-03T12:04:13.936Z</time></trkpt><trkpt lat="46.0890458" lon="13.5642669"><ele>206.0</ele><time>2026-05-03T12:04:14.94Z</time></trkpt><trkpt lat="46.0890012" lon="13.5644719"><ele>194.0</ele><time>2026-05-03T12:04:15.948Z</time></trkpt><trkpt lat="46.0889747" lon="13.5647043"><ele>193.75</ele><time>2026-05-03T12:04:16.949Z</time></trkpt><trkpt lat="46.0889549" lon="13.5649366"><ele>193.5</ele><time>2026-05-03T12:04:17.952Z</time></trkpt><trkpt lat="46.0889488" lon="13.5651444"><ele>193.25</ele><time>2026-05-03T12:04:18.948Z</time></trkpt><trkpt lat="46.0889313" lon="13.5653318"><ele>193.0</ele><time>2026-05-03T12:04:19.942Z</time></trkpt><trkpt lat="46.0889305" lon="13.5654925"><ele>193.0</ele><time>2026-05-03T12:04:20.936Z</time></trkpt><trkpt lat="46.0889522" lon="13.5656219"><ele>193.0</ele><time>2026-05-03T12:04:21.948Z</time></trkpt><trkpt lat="46.0889976" lon="13.565734"><ele>193.0</ele><time>2026-05-03T12:04:22.952Z</time></trkpt><trkpt lat="46.0890666" lon="13.5658479"><ele>193.0</ele><time>2026-05-03T12:04:23.941Z</time></trkpt><trkpt lat="46.089157" lon="13.5660008"><ele>193.0</ele><time>2026-05-03T12:04:24.94Z</time></trkpt><trkpt lat="46.0892261" lon="13.5661263"><ele>195.2</ele><time>2026-05-03T12:04:25.943Z</time></trkpt><trkpt lat="46.0893027" lon="13.5662446"><ele>197.4</ele><time>2026-05-03T12:04:26.937Z</time></trkpt><trkpt lat="46.0893699" lon="13.5663553"><ele>199.6</ele><time>2026-05-03T12:04:27.949Z</time></trkpt><trkpt lat="46.0894206" lon="13.5664466"><ele>201.79999999999998</ele><time>2026-05-03T12:04:28.938Z</time></trkpt><trkpt lat="46.0894516" lon="13.5665389"><ele>204.0</ele><time>2026-05-03T12:04:29.942Z</time></trkpt><trkpt lat="46.0894653" lon="13.5666817"><ele>204.0</ele><time>2026-05-03T12:04:31.94Z</time></trkpt><trkpt lat="46.0893884" lon="13.5666437"><ele>204.0</ele><time>2026-05-03T12:04:33.945Z</time></trkpt><trkpt lat="46.0893271" lon="13.5665615"><ele>204.0</ele><time>2026-05-03T12:04:34.954Z</time></trkpt><trkpt lat="46.0892333" lon="13.566452"><ele>204.0</ele><time>2026-05-03T12:04:35.954Z</time></trkpt><trkpt lat="46.0891249" lon="13.5663286"><ele>204.0</ele><time>2026-05-03T12:04:36.952Z</time></trkpt><trkpt lat="46.0890233" lon="13.5661929"><ele>201.25</ele><time>2026-05-03T12:04:37.946Z</time></trkpt><trkpt lat="46.0889202" lon="13.5660491"><ele>198.5</ele><time>2026-05-03T12:04:38.944Z</time></trkpt><trkpt lat="46.0888225" lon="13.565896"><ele>195.75</ele><time>2026-05-03T12:04:39.946Z</time></trkpt><trkpt lat="46.0887314" lon="13.5657433"><ele>193.0</ele><time>2026-05-03T12:04:40.943Z</time></trkpt><trkpt lat="46.0886498" lon="13.5655874"><ele>193.0</ele><time>2026-05-03T12:04:41.943Z</time></trkpt><trkpt lat="46.0885837" lon="13.5654301"><ele>193.0</ele><time>2026-05-03T12:04:42.946Z</time></trkpt><trkpt lat="46.0885511" lon="13.5652589"><ele>193.0</ele><time>2026-05-03T12:04:43.946Z</time></trkpt><trkpt lat="46.0885656" lon="13.5650874"><ele>193.0</ele><time>2026-05-03T12:04:44.945Z</time></trkpt><trkpt lat="46.0885893" lon="13.5649028"><ele>193.0</ele><time>2026-05-03T12:04:45.947Z</time></trkpt><trkpt lat="46.0886189" lon="13.5647103"><ele>193.0</ele><time>2026-05-03T12:04:46.947Z</time></trkpt><trkpt lat="46.088635" lon="13.5645317"><ele>193.0</ele><time>2026-05-03T12:04:47.944Z</time></trkpt><trkpt lat="46.0886385" lon="13.5643632"><ele>193.0</ele><time>2026-05-03T12:04:48.941Z</time></trkpt><trkpt lat="46.0886363" lon="13.564196"><ele>193.25</ele><time>2026-05-03T12:04:49.946Z</time></trkpt><trkpt lat="46.0886306" lon="13.5640299"><ele>193.5</ele><time>2026-05-03T12:04:50.937Z</time></trkpt><trkpt lat="46.0886243" lon="13.5638606"><ele>193.75</ele><time>2026-05-03T12:04:51.955Z</time></trkpt><trkpt lat="46.0886118" lon="13.5636936"><ele>194.0</ele><time>2026-05-03T12:04:52.943Z</time></trkpt><trkpt lat="46.0885861" lon="13.5635143"><ele>195.0</ele><time>2026-05-03T12:04:53.942Z</time></trkpt><trkpt lat="46.0885409" lon="13.563331"><ele>196.0</ele><time>2026-05-03T12:04:54.953Z</time></trkpt><trkpt lat="46.0884835" lon="13.5631483"><ele>197.0</ele><time>2026-05-03T12:04:55.94Z</time></trkpt><trkpt lat="46.0884133" lon="13.5629474"><ele>198.0</ele><time>2026-05-03T12:04:56.951Z</time></trkpt><trkpt lat="46.0883513" lon="13.5627426"><ele>198.75</ele><time>2026-05-03T12:04:57.94Z</time></trkpt><trkpt lat="46.0883046" lon="13.5625417"><ele>199.5</ele><time>2026-05-03T12:04:58.939Z</time></trkpt><trkpt lat="46.0882513" lon="13.562346"><ele>200.25</ele><time>2026-05-03T12:04:59.941Z</time></trkpt><trkpt lat="46.0881963" lon="13.5621594"><ele>201.0</ele><time>2026-05-03T12:05:00.939Z</time></trkpt><trkpt lat="46.0881334" lon="13.5619748"><ele>197.33333333333334</ele><time>2026-05-03T12:05:01.952Z</time></trkpt><trkpt lat="46.0880575" lon="13.5617924"><ele>193.66666666666669</ele><time>2026-05-03T12:05:02.94Z</time></trkpt><trkpt lat="46.0879531" lon="13.5616376"><ele>190.0</ele><time>2026-05-03T12:05:03.939Z</time></trkpt><trkpt lat="46.0878325" lon="13.5614983"><ele>190.0</ele><time>2026-05-03T12:05:04.94Z</time></trkpt><trkpt lat="46.0877073" lon="13.5613545"><ele>190.0</ele><time>2026-05-03T12:05:05.941Z</time></trkpt><trkpt lat="46.0875872" lon="13.5612034"><ele>190.0</ele><time>2026-05-03T12:05:06.939Z</time></trkpt><trkpt lat="46.0874627" lon="13.5610556"><ele>188.0</ele><time>2026-05-03T12:05:07.944Z</time></trkpt><trkpt lat="46.0873393" lon="13.5608823"><ele>186.0</ele><time>2026-05-03T12:05:08.949Z</time></trkpt><trkpt lat="46.0872233" lon="13.5607364"><ele>184.0</ele><time>2026-05-03T12:05:09.942Z</time></trkpt><trkpt lat="46.0871075" lon="13.5606"><ele>184.0</ele><time>2026-05-03T12:05:10.943Z</time></trkpt><trkpt lat="46.0870006" lon="13.5604733"><ele>184.0</ele><time>2026-05-03T12:05:11.953Z</time></trkpt><trkpt lat="46.0868908" lon="13.5603364"><ele>184.0</ele><time>2026-05-03T12:05:12.942Z</time></trkpt><trkpt lat="46.0867846" lon="13.560165"><ele>184.0</ele><time>2026-05-03T12:05:13.944Z</time></trkpt><trkpt lat="46.0866749" lon="13.5600041"><ele>181.66666666666669</ele><time>2026-05-03T12:05:14.948Z</time></trkpt><trkpt lat="46.0865801" lon="13.5598164"><ele>179.33333333333334</ele><time>2026-05-03T12:05:15.941Z</time></trkpt><trkpt lat="46.0864952" lon="13.5596227"><ele>177.0</ele><time>2026-05-03T12:05:16.938Z</time></trkpt><trkpt lat="46.0864192" lon="13.559395"><ele>177.0</ele><time>2026-05-03T12:05:17.942Z</time></trkpt><trkpt lat="46.0863491" lon="13.5591612"><ele>177.0</ele><time>2026-05-03T12:05:18.944Z</time></trkpt><trkpt lat="46.0862812" lon="13.5589314"><ele>177.0</ele><time>2026-05-03T12:05:19.938Z</time></trkpt><trkpt lat="46.0862183" lon="13.5586911"><ele>178.66666666666666</ele><time>2026-05-03T12:05:20.948Z</time></trkpt><trkpt lat="46.0861397" lon="13.5584383"><ele>180.33333333333331</ele><time>2026-05-03T12:05:21.94Z</time></trkpt><trkpt lat="46.0860725" lon="13.5581844"><ele>182.0</ele><time>2026-05-03T12:05:22.954Z</time></trkpt><trkpt lat="46.0859909" lon="13.55795"><ele>184.66666666666666</ele><time>2026-05-03T12:05:23.948Z</time></trkpt><trkpt lat="46.0858979" lon="13.5576996"><ele>187.33333333333334</ele><time>2026-05-03T12:05:24.94Z</time></trkpt><trkpt lat="46.0858086" lon="13.5574525"><ele>190.0</ele><time>2026-05-03T12:05:25.946Z</time></trkpt><trkpt lat="46.0857158" lon="13.5572057"><ele>184.0</ele><time>2026-05-03T12:05:26.942Z</time></trkpt><trkpt lat="46.0856288" lon="13.5569747"><ele>178.0</ele><time>2026-05-03T12:05:27.947Z</time></trkpt><trkpt lat="46.0855359" lon="13.5567344"><ele>172.0</ele><time>2026-05-03T12:05:28.942Z</time></trkpt><trkpt lat="46.0854312" lon="13.5565187"><ele>172.0</ele><time>2026-05-03T12:05:29.939Z</time></trkpt><trkpt lat="46.0853218" lon="13.5563201"><ele>172.0</ele><time>2026-05-03T12:05:30.953Z</time></trkpt><trkpt lat="46.0851958" lon="13.556142"><ele>172.0</ele><time>2026-05-03T12:05:31.944Z</time></trkpt><trkpt lat="46.0850665" lon="13.5559776"><ele>173.0</ele><time>2026-05-03T12:05:32.939Z</time></trkpt><trkpt lat="46.0849219" lon="13.555817"><ele>174.0</ele><time>2026-05-03T12:05:33.95Z</time></trkpt><trkpt lat="46.0847738" lon="13.5556636"><ele>175.0</ele><time>2026-05-03T12:05:34.937Z</time></trkpt><trkpt lat="46.0846295" lon="13.5555273"><ele>175.0</ele><time>2026-05-03T12:05:35.941Z</time></trkpt><trkpt lat="46.0845034" lon="13.5553916"><ele>175.0</ele><time>2026-05-03T12:05:36.938Z</time></trkpt><trkpt lat="46.0843989" lon="13.555249"><ele>175.0</ele><time>2026-05-03T12:05:37.941Z</time></trkpt><trkpt lat="46.0843177" lon="13.5550732"><ele>175.0</ele><time>2026-05-03T12:05:38.94Z</time></trkpt><trkpt lat="46.0842674" lon="13.5548564"><ele>174.66666666666669</ele><time>2026-05-03T12:05:39.944Z</time></trkpt><trkpt lat="46.0842093" lon="13.5546372"><ele>174.33333333333334</ele><time>2026-05-03T12:05:40.939Z</time></trkpt><trkpt lat="46.0841711" lon="13.5544236"><ele>174.0</ele><time>2026-05-03T12:05:41.94Z</time></trkpt><trkpt lat="46.0841544" lon="13.5542035"><ele>173.66666666666666</ele><time>2026-05-03T12:05:42.948Z</time></trkpt><trkpt lat="46.084182" lon="13.5539854"><ele>173.33333333333331</ele><time>2026-05-03T12:05:43.941Z</time></trkpt><trkpt lat="46.084226" lon="13.5537641"><ele>173.0</ele><time>2026-05-03T12:05:44.946Z</time></trkpt><trkpt lat="46.0842846" lon="13.5535459"><ele>172.0</ele><time>2026-05-03T12:05:45.942Z</time></trkpt><trkpt lat="46.0843508" lon="13.5533198"><ele>171.0</ele><time>2026-05-03T12:05:46.944Z</time></trkpt><trkpt lat="46.0844114" lon="13.5530865"><ele>170.0</ele><time>2026-05-03T12:05:47.941Z</time></trkpt><trkpt lat="46.0844754" lon="13.5528558"><ele>169.66666666666666</ele><time>2026-05-03T12:05:48.938Z</time></trkpt><trkpt lat="46.0845501" lon="13.5526289"><ele>169.33333333333334</ele><time>2026-05-03T12:05:49.956Z</time></trkpt><trkpt lat="46.0846228" lon="13.5524226"><ele>169.0</ele><time>2026-05-03T12:05:50.938Z</time></trkpt><trkpt lat="46.0846912" lon="13.5522277"><ele>170.0</ele><time>2026-05-03T12:05:51.942Z</time></trkpt><trkpt lat="46.084738" lon="13.5520142"><ele>171.0</ele><time>2026-05-03T12:05:52.943Z</time></trkpt><trkpt lat="46.084756" lon="13.551793"><ele>172.0</ele><time>2026-05-03T12:05:53.949Z</time></trkpt><trkpt lat="46.0847402" lon="13.5515738"><ele>172.0</ele><time>2026-05-03T12:05:54.946Z</time></trkpt><trkpt lat="46.0846838" lon="13.5513872"><ele>172.0</ele><time>2026-05-03T12:05:55.943Z</time></trkpt><trkpt lat="46.0846062" lon="13.5512126"><ele>172.0</ele><time>2026-05-03T12:05:56.956Z</time></trkpt><trkpt lat="46.0844982" lon="13.5510695"><ele>172.0</ele><time>2026-05-03T12:05:57.949Z</time></trkpt><trkpt lat="46.0844012" lon="13.5509545"><ele>172.25</ele><time>2026-05-03T12:05:58.948Z</time></trkpt><trkpt lat="46.0842885" lon="13.5508739"><ele>172.5</ele><time>2026-05-03T12:05:59.953Z</time></trkpt><trkpt lat="46.0841711" lon="13.5508283"><ele>172.75</ele><time>2026-05-03T12:06:00.935Z</time></trkpt><trkpt lat="46.084014" lon="13.5508222"><ele>173.0</ele><time>2026-05-03T12:06:01.943Z</time></trkpt><trkpt lat="46.0838554" lon="13.5508252"><ele>173.0</ele><time>2026-05-03T12:06:02.948Z</time></trkpt><trkpt lat="46.0836983" lon="13.5507893"><ele>173.0</ele><time>2026-05-03T12:06:03.941Z</time></trkpt><trkpt lat="46.0835552" lon="13.5507641"><ele>173.0</ele><time>2026-05-03T12:06:04.948Z</time></trkpt><trkpt lat="46.0834183" lon="13.5507691"><ele>173.0</ele><time>2026-05-03T12:06:05.955Z</time></trkpt><trkpt lat="46.0832912" lon="13.5507405"><ele>171.0</ele><time>2026-05-03T12:06:06.939Z</time></trkpt><trkpt lat="46.0831627" lon="13.5506904"><ele>169.0</ele><time>2026-05-03T12:06:07.944Z</time></trkpt><trkpt lat="46.0830524" lon="13.5505926"><ele>167.0</ele><time>2026-05-03T12:06:08.944Z</time></trkpt><trkpt lat="46.0829908" lon="13.5504514"><ele>165.0</ele><time>2026-05-03T12:06:09.95Z</time></trkpt><trkpt lat="46.0829645" lon="13.5502695"><ele>164.25</ele><time>2026-05-03T12:06:10.943Z</time></trkpt><trkpt lat="46.0829691" lon="13.550083"><ele>163.5</ele><time>2026-05-03T12:06:11.94Z</time></trkpt><trkpt lat="46.0830081" lon="13.5498894"><ele>162.75</ele><time>2026-05-03T12:06:12.942Z</time></trkpt><trkpt lat="46.0830397" lon="13.5496825"><ele>162.0</ele><time>2026-05-03T12:06:13.956Z</time></trkpt><trkpt lat="46.0830691" lon="13.5494721"><ele>161.66666666666666</ele><time>2026-05-03T12:06:14.939Z</time></trkpt><trkpt lat="46.0831018" lon="13.5492637"><ele>161.33333333333331</ele><time>2026-05-03T12:06:15.94Z</time></trkpt><trkpt lat="46.0831345" lon="13.5490453"><ele>161.0</ele><time>2026-05-03T12:06:16.943Z</time></trkpt><trkpt lat="46.0831777" lon="13.5488105"><ele>163.33333333333331</ele><time>2026-05-03T12:06:17.944Z</time></trkpt><trkpt lat="46.0832292" lon="13.5485726"><ele>165.66666666666666</ele><time>2026-05-03T12:06:18.944Z</time></trkpt><trkpt lat="46.0832811" lon="13.548332"><ele>168.0</ele><time>2026-05-03T12:06:19.951Z</time></trkpt><trkpt lat="46.0833497" lon="13.5480776"><ele>168.0</ele><time>2026-05-03T12:06:20.946Z</time></trkpt><trkpt lat="46.0834092" lon="13.5478246"><ele>168.0</ele><time>2026-05-03T12:06:21.951Z</time></trkpt><trkpt lat="46.0834624" lon="13.5475655"><ele>168.0</ele><time>2026-05-03T12:06:22.94Z</time></trkpt><trkpt lat="46.0835106" lon="13.5473102"><ele>168.0</ele><time>2026-05-03T12:06:23.941Z</time></trkpt><trkpt lat="46.0835506" lon="13.5470799"><ele>168.0</ele><time>2026-05-03T12:06:24.942Z</time></trkpt><trkpt lat="46.0835803" lon="13.5468779"><ele>168.0</ele><time>2026-05-03T12:06:25.939Z</time></trkpt><trkpt lat="46.0836064" lon="13.5466562"><ele>166.66666666666666</ele><time>2026-05-03T12:06:26.944Z</time></trkpt><trkpt lat="46.0836004" lon="13.5464305"><ele>165.33333333333331</ele><time>2026-05-03T12:06:27.943Z</time></trkpt><trkpt lat="46.0835468" lon="13.546211"><ele>164.0</ele><time>2026-05-03T12:06:28.941Z</time></trkpt><trkpt lat="46.0834858" lon="13.5459937"><ele>164.0</ele><time>2026-05-03T12:06:29.938Z</time></trkpt><trkpt lat="46.0834432" lon="13.5457559"><ele>164.0</ele><time>2026-05-03T12:06:30.944Z</time></trkpt><trkpt lat="46.0834148" lon="13.5455011"><ele>164.0</ele><time>2026-05-03T12:06:31.942Z</time></trkpt><trkpt lat="46.0833753" lon="13.5452517"><ele>162.66666666666666</ele><time>2026-05-03T12:06:32.945Z</time></trkpt><trkpt lat="46.0833383" lon="13.5450243"><ele>161.33333333333334</ele><time>2026-05-03T12:06:33.951Z</time></trkpt><trkpt lat="46.0833018" lon="13.5447815"><ele>160.0</ele><time>2026-05-03T12:06:34.949Z</time></trkpt><trkpt lat="46.0832473" lon="13.5445437"><ele>160.0</ele><time>2026-05-03T12:06:35.942Z</time></trkpt><trkpt lat="46.0831837" lon="13.5443078"><ele>160.0</ele><time>2026-05-03T12:06:36.94Z</time></trkpt><trkpt lat="46.0831085" lon="13.5440773"><ele>160.0</ele><time>2026-05-03T12:06:37.954Z</time></trkpt><trkpt lat="46.0830244" lon="13.5438715"><ele>159.0</ele><time>2026-05-03T12:06:38.943Z</time></trkpt><trkpt lat="46.0829495" lon="13.5436776"><ele>158.0</ele><time>2026-05-03T12:06:39.941Z</time></trkpt><trkpt lat="46.0828779" lon="13.5434941"><ele>157.0</ele><time>2026-05-03T12:06:40.938Z</time></trkpt><trkpt lat="46.082828" lon="13.5433312"><ele>156.0</ele><time>2026-05-03T12:06:41.947Z</time></trkpt><trkpt lat="46.0827959" lon="13.5432067"><ele>156.0</ele><time>2026-05-03T12:06:42.941Z</time></trkpt><trkpt lat="46.0827577" lon="13.5430971"><ele>156.0</ele><time>2026-05-03T12:06:43.942Z</time></trkpt><trkpt lat="46.082702" lon="13.5430076"><ele>156.0</ele><time>2026-05-03T12:06:44.943Z</time></trkpt><trkpt lat="46.0826617" lon="13.5428675"><ele>156.0</ele><time>2026-05-03T12:06:46.95Z</time></trkpt><trkpt lat="46.0826794" lon="13.5426774"><ele>156.0</ele><time>2026-05-03T12:06:48.946Z</time></trkpt><trkpt lat="46.0827069" lon="13.5425431"><ele>157.2</ele><time>2026-05-03T12:06:49.946Z</time></trkpt><trkpt lat="46.0827403" lon="13.5423972"><ele>158.39999999999998</ele><time>2026-05-03T12:06:50.95Z</time></trkpt><trkpt lat="46.0827799" lon="13.5422439"><ele>159.6</ele><time>2026-05-03T12:06:51.952Z</time></trkpt><trkpt lat="46.0828181" lon="13.5420982"><ele>160.79999999999998</ele><time>2026-05-03T12:06:52.948Z</time></trkpt><trkpt lat="46.0828594" lon="13.5419616"><ele>162.0</ele><time>2026-05-03T12:06:53.945Z</time></trkpt><trkpt lat="46.0828998" lon="13.5418247"><ele>165.8</ele><time>2026-05-03T12:06:54.939Z</time></trkpt><trkpt lat="46.0829412" lon="13.541691"><ele>169.6</ele><time>2026-05-03T12:06:55.939Z</time></trkpt><trkpt lat="46.0829843" lon="13.5415545"><ele>173.4</ele><time>2026-05-03T12:06:56.947Z</time></trkpt><trkpt lat="46.0830335" lon="13.5414146"><ele>177.20000000000002</ele><time>2026-05-03T12:06:57.943Z</time></trkpt><trkpt lat="46.083083" lon="13.5412724"><ele>181.0</ele><time>2026-05-03T12:06:58.952Z</time></trkpt><trkpt lat="46.0831286" lon="13.5411345"><ele>180.4</ele><time>2026-05-03T12:06:59.948Z</time></trkpt><trkpt lat="46.083179" lon="13.5409894"><ele>179.8</ele><time>2026-05-03T12:07:00.945Z</time></trkpt><trkpt lat="46.083229" lon="13.5408409"><ele>179.20000000000002</ele><time>2026-05-03T12:07:01.94Z</time></trkpt><trkpt lat="46.083285" lon="13.5407063"><ele>178.60000000000002</ele><time>2026-05-03T12:07:02.942Z</time></trkpt><trkpt lat="46.083328" lon="13.5405855"><ele>178.0</ele><time>2026-05-03T12:07:03.949Z</time></trkpt><trkpt lat="46.0833681" lon="13.5404628"><ele>180.0</ele><time>2026-05-03T12:07:04.938Z</time></trkpt><trkpt lat="46.0834131" lon="13.5403423"><ele>182.0</ele><time>2026-05-03T12:07:05.941Z</time></trkpt><trkpt lat="46.0834709" lon="13.5402385"><ele>184.0</ele><time>2026-05-03T12:07:06.947Z</time></trkpt><trkpt lat="46.0835412" lon="13.5401418"><ele>186.0</ele><time>2026-05-03T12:07:07.942Z</time></trkpt><trkpt lat="46.0836196" lon="13.5400562"><ele>188.0</ele><time>2026-05-03T12:07:08.94Z</time></trkpt><trkpt lat="46.083708" lon="13.5399839"><ele>188.0</ele><time>2026-05-03T12:07:09.948Z</time></trkpt><trkpt lat="46.0838056" lon="13.5399138"><ele>188.0</ele><time>2026-05-03T12:07:10.959Z</time></trkpt><trkpt lat="46.0839038" lon="13.5398586"><ele>188.0</ele><time>2026-05-03T12:07:11.94Z</time></trkpt><trkpt lat="46.0839889" lon="13.5398182"><ele>188.0</ele><time>2026-05-03T12:07:12.941Z</time></trkpt><trkpt lat="46.0840595" lon="13.5397874"><ele>188.0</ele><time>2026-05-03T12:07:13.942Z</time></trkpt><trkpt lat="46.0841237" lon="13.5397353"><ele>187.16666666666666</ele><time>2026-05-03T12:07:14.949Z</time></trkpt><trkpt lat="46.0841838" lon="13.5396567"><ele>186.33333333333331</ele><time>2026-05-03T12:07:15.945Z</time></trkpt><trkpt lat="46.0842315" lon="13.5395482"><ele>185.5</ele><time>2026-05-03T12:07:16.94Z</time></trkpt><trkpt lat="46.0842769" lon="13.5394691"><ele>184.66666666666666</ele><time>2026-05-03T12:07:17.949Z</time></trkpt><trkpt lat="46.0843093" lon="13.5393754"><ele>183.83333333333334</ele><time>2026-05-03T12:07:18.941Z</time></trkpt><trkpt lat="46.0843465" lon="13.5392947"><ele>183.0</ele><time>2026-05-03T12:07:19.942Z</time></trkpt><trkpt lat="46.0844002" lon="13.5392129"><ele>183.0</ele><time>2026-05-03T12:07:20.942Z</time></trkpt><trkpt lat="46.0844636" lon="13.5391379"><ele>183.0</ele><time>2026-05-03T12:07:21.951Z</time></trkpt><trkpt lat="46.0845334" lon="13.5390721"><ele>183.0</ele><time>2026-05-03T12:07:22.944Z</time></trkpt><trkpt lat="46.0846007" lon="13.5390265"><ele>183.0</ele><time>2026-05-03T12:07:23.946Z</time></trkpt><trkpt lat="46.0846647" lon="13.5390073"><ele>183.0</ele><time>2026-05-03T12:07:24.947Z</time></trkpt><trkpt lat="46.084738" lon="13.5390095"><ele>183.0</ele><time>2026-05-03T12:07:25.944Z</time></trkpt><trkpt lat="46.0848249" lon="13.5390093"><ele>183.0</ele><time>2026-05-03T12:07:26.942Z</time></trkpt><trkpt lat="46.0849236" lon="13.53902"><ele>183.0</ele><time>2026-05-03T12:07:27.943Z</time></trkpt><trkpt lat="46.0850154" lon="13.5390274"><ele>183.0</ele><time>2026-05-03T12:07:28.944Z</time></trkpt><trkpt lat="46.0851022" lon="13.5390148"><ele>183.0</ele><time>2026-05-03T12:07:29.951Z</time></trkpt><trkpt lat="46.0851894" lon="13.5389899"><ele>183.0</ele><time>2026-05-03T12:07:30.948Z</time></trkpt><trkpt lat="46.0852774" lon="13.5389399"><ele>184.2</ele><time>2026-05-03T12:07:31.943Z</time></trkpt><trkpt lat="46.0853573" lon="13.5388748"><ele>185.4</ele><time>2026-05-03T12:07:32.942Z</time></trkpt><trkpt lat="46.0854371" lon="13.5388251"><ele>186.6</ele><time>2026-05-03T12:07:33.936Z</time></trkpt><trkpt lat="46.0855269" lon="13.538791"><ele>187.79999999999998</ele><time>2026-05-03T12:07:34.94Z</time></trkpt><trkpt lat="46.0856155" lon="13.5387522"><ele>189.0</ele><time>2026-05-03T12:07:35.94Z</time></trkpt><trkpt lat="46.0857376" lon="13.5387275"><ele>189.25</ele><time>2026-05-03T12:07:36.937Z</time></trkpt><trkpt lat="46.0858545" lon="13.5387013"><ele>189.5</ele><time>2026-05-03T12:07:37.941Z</time></trkpt><trkpt lat="46.085968" lon="13.5386796"><ele>189.75</ele><time>2026-05-03T12:07:38.943Z</time></trkpt><trkpt lat="46.0860801" lon="13.538652"><ele>190.0</ele><time>2026-05-03T12:07:39.94Z</time></trkpt><trkpt lat="46.0861851" lon="13.5386239"><ele>190.0</ele><time>2026-05-03T12:07:40.944Z</time></trkpt><trkpt lat="46.0862733" lon="13.5385873"><ele>190.0</ele><time>2026-05-03T12:07:41.95Z</time></trkpt><trkpt lat="46.0863497" lon="13.538567"><ele>190.0</ele><time>2026-05-03T12:07:42.948Z</time></trkpt><trkpt lat="46.0864134" lon="13.538569"><ele>190.0</ele><time>2026-05-03T12:07:43.942Z</time></trkpt><trkpt lat="46.0864814" lon="13.538638"><ele>190.0</ele><time>2026-05-03T12:07:45.941Z</time></trkpt><trkpt lat="46.086521" lon="13.5387835"><ele>190.0</ele><time>2026-05-03T12:07:47.937Z</time></trkpt><trkpt lat="46.0865967" lon="13.5389075"><ele>193.0</ele><time>2026-05-03T12:07:49.941Z</time></trkpt><trkpt lat="46.0866898" lon="13.5390166"><ele>196.0</ele><time>2026-05-03T12:07:51.944Z</time></trkpt><trkpt lat="46.0867666" lon="13.5390648"><ele>199.0</ele><time>2026-05-03T12:07:52.935Z</time></trkpt><trkpt lat="46.0868477" lon="13.5391039"><ele>202.0</ele><time>2026-05-03T12:07:53.939Z</time></trkpt><trkpt lat="46.0869317" lon="13.5391356"><ele>205.0</ele><time>2026-05-03T12:07:54.938Z</time></trkpt><trkpt lat="46.087019" lon="13.5391253"><ele>204.99999999999997</ele><time>2026-05-03T12:07:55.942Z</time></trkpt><trkpt lat="46.0871037" lon="13.5391068"><ele>205.0</ele><time>2026-05-03T12:07:56.944Z</time></trkpt><trkpt lat="46.0871862" lon="13.5390966"><ele>205.0</ele><time>2026-05-03T12:07:57.949Z</time></trkpt><trkpt lat="46.0872709" lon="13.5390802"><ele>205.0</ele><time>2026-05-03T12:07:58.94Z</time></trkpt><trkpt lat="46.0873498" lon="13.5390486"><ele>204.99999999999997</ele><time>2026-05-03T12:07:59.938Z</time></trkpt><trkpt lat="46.08742" lon="13.5390017"><ele>205.0</ele><time>2026-05-03T12:08:00.94Z</time></trkpt><trkpt lat="46.0874832" lon="13.5389428"><ele>205.6</ele><time>2026-05-03T12:08:01.936Z</time></trkpt><trkpt lat="46.0875416" lon="13.5388666"><ele>206.2</ele><time>2026-05-03T12:08:02.942Z</time></trkpt><trkpt lat="46.0875875" lon="13.5387846"><ele>206.8</ele><time>2026-05-03T12:08:03.943Z</time></trkpt><trkpt lat="46.0876362" lon="13.5387014"><ele>207.4</ele><time>2026-05-03T12:08:04.94Z</time></trkpt><trkpt lat="46.087743" lon="13.5385574"><ele>208.0</ele><time>2026-05-03T12:08:06.945Z</time></trkpt><trkpt lat="46.0878625" lon="13.5384955"><ele>208.60000000000002</ele><time>2026-05-03T12:08:08.945Z</time></trkpt><trkpt lat="46.0879283" lon="13.5384958"><ele>209.20000000000002</ele><time>2026-05-03T12:08:09.938Z</time></trkpt><trkpt lat="46.0880421" lon="13.5385153"><ele>209.8</ele><time>2026-05-03T12:08:11.941Z</time></trkpt><trkpt lat="46.088134" lon="13.5385633"><ele>210.4</ele><time>2026-05-03T12:08:13.94Z</time></trkpt><trkpt lat="46.0882207" lon="13.5386184"><ele>211.0</ele><time>2026-05-03T12:08:15.939Z</time></trkpt><trkpt lat="46.0883262" lon="13.5386735"><ele>212.20000000000002</ele><time>2026-05-03T12:08:17.946Z</time></trkpt><trkpt lat="46.088412" lon="13.5386883"><ele>213.4</ele><time>2026-05-03T12:08:19.94Z</time></trkpt><trkpt lat="46.0884995" lon="13.5386487"><ele>214.6</ele><time>2026-05-03T12:08:21.936Z</time></trkpt><trkpt lat="46.0885872" lon="13.5385258"><ele>215.8</ele><time>2026-05-03T12:08:24.945Z</time></trkpt><trkpt lat="46.0886573" lon="13.5384115"><ele>217.0</ele><time>2026-05-03T12:08:26.94Z</time></trkpt><trkpt lat="46.0887374" lon="13.5382899"><ele>216.99999999999997</ele><time>2026-05-03T12:08:28.944Z</time></trkpt><trkpt lat="46.0887909" lon="13.5382195"><ele>217.0</ele><time>2026-05-03T12:08:29.937Z</time></trkpt><trkpt lat="46.0888478" lon="13.5381386"><ele>217.0</ele><time>2026-05-03T12:08:30.941Z</time></trkpt><trkpt lat="46.0889109" lon="13.5380582"><ele>217.0</ele><time>2026-05-03T12:08:31.951Z</time></trkpt><trkpt lat="46.0889746" lon="13.5379766"><ele>216.99999999999997</ele><time>2026-05-03T12:08:32.942Z</time></trkpt><trkpt lat="46.0890386" lon="13.5378969"><ele>217.0</ele><time>2026-05-03T12:08:33.941Z</time></trkpt><trkpt lat="46.0891024" lon="13.5378335"><ele>219.49999999999997</ele><time>2026-05-03T12:08:34.948Z</time></trkpt><trkpt lat="46.0891692" lon="13.5377786"><ele>222.0</ele><time>2026-05-03T12:08:35.939Z</time></trkpt><trkpt lat="46.0892228" lon="13.5377278"><ele>224.5</ele><time>2026-05-03T12:08:36.933Z</time></trkpt><trkpt lat="46.0893087" lon="13.5376612"><ele>227.0</ele><time>2026-05-03T12:08:38.937Z</time></trkpt><trkpt lat="46.0893526" lon="13.5377383"><ele>229.49999999999997</ele><time>2026-05-03T12:08:41.947Z</time></trkpt><trkpt lat="46.0893143" lon="13.5379072"><ele>232.0</ele><time>2026-05-03T12:08:43.943Z</time></trkpt><trkpt lat="46.0892735" lon="13.5380197"><ele>233.16666666666666</ele><time>2026-05-03T12:08:44.952Z</time></trkpt><trkpt lat="46.0892357" lon="13.538143"><ele>234.33333333333331</ele><time>2026-05-03T12:08:45.942Z</time></trkpt><trkpt lat="46.0892038" lon="13.5382662"><ele>235.5</ele><time>2026-05-03T12:08:46.941Z</time></trkpt><trkpt lat="46.0891693" lon="13.5383836"><ele>236.66666666666669</ele><time>2026-05-03T12:08:47.939Z</time></trkpt><trkpt lat="46.0891334" lon="13.5384944"><ele>237.83333333333334</ele><time>2026-05-03T12:08:48.938Z</time></trkpt><trkpt lat="46.0891062" lon="13.5386188"><ele>239.0</ele><time>2026-05-03T12:08:49.948Z</time></trkpt><trkpt lat="46.0890856" lon="13.5387293"><ele>238.6</ele><time>2026-05-03T12:08:50.94Z</time></trkpt><trkpt lat="46.0890872" lon="13.5388755"><ele>238.2</ele><time>2026-05-03T12:08:52.944Z</time></trkpt><trkpt lat="46.0891746" lon="13.5389761"><ele>237.79999999999998</ele><time>2026-05-03T12:08:54.938Z</time></trkpt><trkpt lat="46.0892792" lon="13.5390098"><ele>237.39999999999998</ele><time>2026-05-03T12:08:56.937Z</time></trkpt><trkpt lat="46.0894021" lon="13.5389963"><ele>237.0</ele><time>2026-05-03T12:08:58.939Z</time></trkpt><trkpt lat="46.0894663" lon="13.5389662"><ele>237.0</ele><time>2026-05-03T12:08:59.943Z</time></trkpt><trkpt lat="46.0895336" lon="13.5389182"><ele>237.0</ele><time>2026-05-03T12:09:00.952Z</time></trkpt><trkpt lat="46.0896049" lon="13.5388617"><ele>237.0</ele><time>2026-05-03T12:09:01.941Z</time></trkpt><trkpt lat="46.0896683" lon="13.5388014"><ele>237.0</ele><time>2026-05-03T12:09:02.942Z</time></trkpt><trkpt lat="46.0897346" lon="13.5387262"><ele>237.0</ele><time>2026-05-03T12:09:03.942Z</time></trkpt><trkpt lat="46.0898007" lon="13.5386425"><ele>237.0</ele><time>2026-05-03T12:09:04.951Z</time></trkpt><trkpt lat="46.0898587" lon="13.5385407"><ele>237.39999999999998</ele><time>2026-05-03T12:09:05.946Z</time></trkpt><trkpt lat="46.0899144" lon="13.5384305"><ele>237.79999999999998</ele><time>2026-05-03T12:09:06.942Z</time></trkpt><trkpt lat="46.0899699" lon="13.5383157"><ele>238.2</ele><time>2026-05-03T12:09:07.947Z</time></trkpt><trkpt lat="46.0900309" lon="13.5382138"><ele>238.6</ele><time>2026-05-03T12:09:08.948Z</time></trkpt><trkpt lat="46.0900954" lon="13.5381123"><ele>239.0</ele><time>2026-05-03T12:09:09.942Z</time></trkpt><trkpt lat="46.0901598" lon="13.5380195"><ele>241.83333333333334</ele><time>2026-05-03T12:09:10.944Z</time></trkpt><trkpt lat="46.0902244" lon="13.5379338"><ele>244.66666666666669</ele><time>2026-05-03T12:09:11.944Z</time></trkpt><trkpt lat="46.0902946" lon="13.5378733"><ele>247.5</ele><time>2026-05-03T12:09:12.939Z</time></trkpt><trkpt lat="46.0903666" lon="13.5378342"><ele>250.33333333333331</ele><time>2026-05-03T12:09:13.941Z</time></trkpt><trkpt lat="46.0904506" lon="13.5378159"><ele>253.16666666666666</ele><time>2026-05-03T12:09:14.936Z</time></trkpt><trkpt lat="46.0905387" lon="13.5378028"><ele>256.0</ele><time>2026-05-03T12:09:15.939Z</time></trkpt><trkpt lat="46.0906309" lon="13.537797"><ele>256.40000000000003</ele><time>2026-05-03T12:09:16.947Z</time></trkpt><trkpt lat="46.0907149" lon="13.5377944"><ele>256.8</ele><time>2026-05-03T12:09:17.947Z</time></trkpt><trkpt lat="46.0907857" lon="13.5377972"><ele>257.20000000000005</ele><time>2026-05-03T12:09:18.945Z</time></trkpt><trkpt lat="46.0908624" lon="13.5378616"><ele>257.6</ele><time>2026-05-03T12:09:20.939Z</time></trkpt><trkpt lat="46.0908366" lon="13.538025"><ele>258.0</ele><time>2026-05-03T12:09:22.934Z</time></trkpt><trkpt lat="46.0907951" lon="13.5381455"><ele>257.8</ele><time>2026-05-03T12:09:23.939Z</time></trkpt><trkpt lat="46.0907472" lon="13.538262"><ele>257.6</ele><time>2026-05-03T12:09:24.94Z</time></trkpt><trkpt lat="46.0907077" lon="13.5383882"><ele>257.4</ele><time>2026-05-03T12:09:25.949Z</time></trkpt><trkpt lat="46.0906727" lon="13.5385318"><ele>257.2</ele><time>2026-05-03T12:09:26.942Z</time></trkpt><trkpt lat="46.0906279" lon="13.5386856"><ele>257.0</ele><time>2026-05-03T12:09:27.947Z</time></trkpt><trkpt lat="46.0905886" lon="13.5388422"><ele>257.0</ele><time>2026-05-03T12:09:28.942Z</time></trkpt><trkpt lat="46.0905522" lon="13.5389907"><ele>257.0</ele><time>2026-05-03T12:09:29.942Z</time></trkpt><trkpt lat="46.0905102" lon="13.539131"><ele>257.0</ele><time>2026-05-03T12:09:30.949Z</time></trkpt><trkpt lat="46.0904726" lon="13.5392474"><ele>257.0</ele><time>2026-05-03T12:09:31.952Z</time></trkpt><trkpt lat="46.090443" lon="13.5393402"><ele>257.0</ele><time>2026-05-03T12:09:32.94Z</time></trkpt><trkpt lat="46.0904603" lon="13.5394281"><ele>257.0</ele><time>2026-05-03T12:09:35.942Z</time></trkpt><trkpt lat="46.0905472" lon="13.539327"><ele>257.0</ele><time>2026-05-03T12:09:37.945Z</time></trkpt><trkpt lat="46.0905863" lon="13.5392314"><ele>257.0</ele><time>2026-05-03T12:09:38.944Z</time></trkpt><trkpt lat="46.0906245" lon="13.5391228"><ele>257.0</ele><time>2026-05-03T12:09:39.947Z</time></trkpt><trkpt lat="46.0906777" lon="13.5389803"><ele>257.0</ele><time>2026-05-03T12:09:40.944Z</time></trkpt><trkpt lat="46.0907321" lon="13.5388217"><ele>257.0</ele><time>2026-05-03T12:09:41.947Z</time></trkpt><trkpt lat="46.0907898" lon="13.5386703"><ele>262.0</ele><time>2026-05-03T12:09:42.939Z</time></trkpt><trkpt lat="46.0908389" lon="13.5385239"><ele>267.0</ele><time>2026-05-03T12:09:43.942Z</time></trkpt><trkpt lat="46.0908809" lon="13.5383884"><ele>272.0</ele><time>2026-05-03T12:09:44.942Z</time></trkpt><trkpt lat="46.0909191" lon="13.5382664"><ele>277.0</ele><time>2026-05-03T12:09:45.949Z</time></trkpt><trkpt lat="46.0909576" lon="13.5381597"><ele>282.0</ele><time>2026-05-03T12:09:46.945Z</time></trkpt><trkpt lat="46.0910024" lon="13.5380528"><ele>282.0</ele><time>2026-05-03T12:09:47.951Z</time></trkpt><trkpt lat="46.0910587" lon="13.5379553"><ele>282.0</ele><time>2026-05-03T12:09:48.938Z</time></trkpt><trkpt lat="46.0911181" lon="13.5378573"><ele>282.0</ele><time>2026-05-03T12:09:49.943Z</time></trkpt><trkpt lat="46.0911844" lon="13.5377563"><ele>282.0</ele><time>2026-05-03T12:09:50.941Z</time></trkpt><trkpt lat="46.0912509" lon="13.5376551"><ele>282.0</ele><time>2026-05-03T12:09:51.948Z</time></trkpt><trkpt lat="46.0913072" lon="13.5375543"><ele>280.6</ele><time>2026-05-03T12:09:52.933Z</time></trkpt><trkpt lat="46.0913627" lon="13.5374376"><ele>279.2</ele><time>2026-05-03T12:09:53.942Z</time></trkpt><trkpt lat="46.0914098" lon="13.5373174"><ele>277.8</ele><time>2026-05-03T12:09:54.952Z</time></trkpt><trkpt lat="46.0914624" lon="13.5372033"><ele>276.4</ele><time>2026-05-03T12:09:55.938Z</time></trkpt><trkpt lat="46.0915086" lon="13.5370946"><ele>275.0</ele><time>2026-05-03T12:09:56.94Z</time></trkpt><trkpt lat="46.091556" lon="13.5369791"><ele>280.0</ele><time>2026-05-03T12:09:57.94Z</time></trkpt><trkpt lat="46.0916112" lon="13.5368818"><ele>285.0</ele><time>2026-05-03T12:09:58.95Z</time></trkpt><trkpt lat="46.0916616" lon="13.5367882"><ele>290.0</ele><time>2026-05-03T12:09:59.94Z</time></trkpt><trkpt lat="46.0917165" lon="13.5367124"><ele>295.0</ele><time>2026-05-03T12:10:00.941Z</time></trkpt><trkpt lat="46.091818" lon="13.5366659"><ele>300.0</ele><time>2026-05-03T12:10:02.948Z</time></trkpt><trkpt lat="46.0919099" lon="13.5367387"><ele>300.0</ele><time>2026-05-03T12:10:04.938Z</time></trkpt><trkpt lat="46.0919771" lon="13.5367313"><ele>300.0</ele><time>2026-05-03T12:10:12.937Z</time></trkpt><trkpt lat="46.0920253" lon="13.5366573"><ele>300.0</ele><time>2026-05-03T12:10:14.943Z</time></trkpt><trkpt lat="46.0921017" lon="13.5365555"><ele>300.0</ele><time>2026-05-03T12:10:16.939Z</time></trkpt><trkpt lat="46.0921676" lon="13.5364309"><ele>300.0</ele><time>2026-05-03T12:10:18.934Z</time></trkpt><trkpt lat="46.0921826" lon="13.5363123"><ele>300.0</ele><time>2026-05-03T12:10:20.937Z</time></trkpt><trkpt lat="46.0921976" lon="13.5361548"><ele>299.5</ele><time>2026-05-03T12:10:22.946Z</time></trkpt><trkpt lat="46.0922069" lon="13.5359696"><ele>299.0</ele><time>2026-05-03T12:10:24.937Z</time></trkpt><trkpt lat="46.092211" lon="13.5358744"><ele>298.5</ele><time>2026-05-03T12:10:25.946Z</time></trkpt><trkpt lat="46.0922066" lon="13.5357797"><ele>298.0</ele><time>2026-05-03T12:10:26.939Z</time></trkpt><trkpt lat="46.0921955" lon="13.5356792"><ele>297.5</ele><time>2026-05-03T12:10:27.939Z</time></trkpt><trkpt lat="46.0921843" lon="13.535573"><ele>297.0</ele><time>2026-05-03T12:10:28.943Z</time></trkpt><trkpt lat="46.0921768" lon="13.5354796"><ele>295.8</ele><time>2026-05-03T12:10:29.955Z</time></trkpt><trkpt lat="46.09217" lon="13.5353197"><ele>294.6</ele><time>2026-05-03T12:10:31.944Z</time></trkpt><trkpt lat="46.092195" lon="13.5352"><ele>293.40000000000003</ele><time>2026-05-03T12:10:33.939Z</time></trkpt><trkpt lat="46.0922537" lon="13.5351193"><ele>292.2</ele><time>2026-05-03T12:10:35.948Z</time></trkpt><trkpt lat="46.0923701" lon="13.535056"><ele>291.0</ele><time>2026-05-03T12:10:37.939Z</time></trkpt><trkpt lat="46.0924399" lon="13.5350167"><ele>296.6666666666667</ele><time>2026-05-03T12:10:38.951Z</time></trkpt><trkpt lat="46.0925078" lon="13.5349768"><ele>302.3333333333333</ele><time>2026-05-03T12:10:39.952Z</time></trkpt><trkpt lat="46.0925764" lon="13.5349412"><ele>308.0</ele><time>2026-05-03T12:10:40.939Z</time></trkpt><trkpt lat="46.0926443" lon="13.5348963"><ele>313.66666666666663</ele><time>2026-05-03T12:10:41.944Z</time></trkpt><trkpt lat="46.09271" lon="13.5348446"><ele>319.3333333333333</ele><time>2026-05-03T12:10:42.947Z</time></trkpt><trkpt lat="46.0927714" lon="13.5347931"><ele>325.0</ele><time>2026-05-03T12:10:43.947Z</time></trkpt><trkpt lat="46.0928715" lon="13.5346973"><ele>325.0</ele><time>2026-05-03T12:10:45.939Z</time></trkpt><trkpt lat="46.0929772" lon="13.5346148"><ele>325.0</ele><time>2026-05-03T12:10:47.943Z</time></trkpt><trkpt lat="46.0930446" lon="13.5345815"><ele>325.0</ele><time>2026-05-03T12:10:48.94Z</time></trkpt><trkpt lat="46.0931188" lon="13.5345537"><ele>325.0</ele><time>2026-05-03T12:10:49.936Z</time></trkpt><trkpt lat="46.0931966" lon="13.5345119"><ele>325.0</ele><time>2026-05-03T12:10:50.936Z</time></trkpt><trkpt lat="46.0932856" lon="13.5344763"><ele>325.0</ele><time>2026-05-03T12:10:51.946Z</time></trkpt><trkpt lat="46.0933667" lon="13.5344463"><ele>323.8333333333333</ele><time>2026-05-03T12:10:52.945Z</time></trkpt><trkpt lat="46.0934391" lon="13.5344314"><ele>322.66666666666663</ele><time>2026-05-03T12:10:53.945Z</time></trkpt><trkpt lat="46.093562" lon="13.5343991"><ele>321.5</ele><time>2026-05-03T12:10:55.939Z</time></trkpt><trkpt lat="46.0936265" lon="13.5343627"><ele>320.3333333333333</ele><time>2026-05-03T12:10:56.938Z</time></trkpt><trkpt lat="46.0936933" lon="13.5343148"><ele>319.1666666666667</ele><time>2026-05-03T12:10:57.95Z</time></trkpt><trkpt lat="46.093759" lon="13.5342578"><ele>318.0</ele><time>2026-05-03T12:10:58.946Z</time></trkpt><trkpt lat="46.0938276" lon="13.5342039"><ele>318.0</ele><time>2026-05-03T12:10:59.939Z</time></trkpt><trkpt lat="46.0939082" lon="13.5341588"><ele>318.0</ele><time>2026-05-03T12:11:00.941Z</time></trkpt><trkpt lat="46.0939854" lon="13.5341239"><ele>318.0</ele><time>2026-05-03T12:11:01.938Z</time></trkpt><trkpt lat="46.0940572" lon="13.5340893"><ele>318.0</ele><time>2026-05-03T12:11:02.942Z</time></trkpt><trkpt lat="46.0941215" lon="13.5340643"><ele>318.0</ele><time>2026-05-03T12:11:03.947Z</time></trkpt><trkpt lat="46.0942152" lon="13.5339597"><ele>318.0</ele><time>2026-05-03T12:11:05.936Z</time></trkpt><trkpt lat="46.0942695" lon="13.5338491"><ele>318.0</ele><time>2026-05-03T12:11:07.946Z</time></trkpt><trkpt lat="46.0942228" lon="13.5337787"><ele>318.0</ele><time>2026-05-03T12:12:01.945Z</time></trkpt><trkpt lat="46.094137" lon="13.5338062"><ele>318.0</ele><time>2026-05-03T12:12:06.936Z</time></trkpt><trkpt lat="46.0940469" lon="13.5337914"><ele>318.0</ele><time>2026-05-03T12:12:08.946Z</time></trkpt><trkpt lat="46.0939767" lon="13.533782"><ele>318.0</ele><time>2026-05-03T12:12:10.943Z</time></trkpt><trkpt lat="46.0938753" lon="13.5337573"><ele>318.0</ele><time>2026-05-03T12:12:12.938Z</time></trkpt><trkpt lat="46.0937885" lon="13.5337179"><ele>319.3333333333333</ele><time>2026-05-03T12:12:14.936Z</time></trkpt><trkpt lat="46.093706" lon="13.5337019"><ele>320.6666666666667</ele><time>2026-05-03T12:12:16.943Z</time></trkpt><trkpt lat="46.0936041" lon="13.5336583"><ele>322.0</ele><time>2026-05-03T12:12:18.943Z</time></trkpt><trkpt lat="46.0935443" lon="13.5336275"><ele>323.33333333333337</ele><time>2026-05-03T12:12:19.936Z</time></trkpt><trkpt lat="46.0934775" lon="13.5335926"><ele>324.6666666666667</ele><time>2026-05-03T12:12:20.94Z</time></trkpt><trkpt lat="46.0934087" lon="13.5335571"><ele>326.0</ele><time>2026-05-03T12:12:21.939Z</time></trkpt><trkpt lat="46.0933448" lon="13.5335209"><ele>326.0</ele><time>2026-05-03T12:12:22.941Z</time></trkpt><trkpt lat="46.0932808" lon="13.5334869"><ele>326.0</ele><time>2026-05-03T12:12:23.947Z</time></trkpt><trkpt lat="46.0932121" lon="13.5334516"><ele>326.0</ele><time>2026-05-03T12:12:24.943Z</time></trkpt><trkpt lat="46.0931343" lon="13.5334145"><ele>326.0</ele><time>2026-05-03T12:12:25.934Z</time></trkpt><trkpt lat="46.0930483" lon="13.5333766"><ele>326.0</ele><time>2026-05-03T12:12:26.944Z</time></trkpt><trkpt lat="46.0929666" lon="13.5333324"><ele>326.0</ele><time>2026-05-03T12:12:27.936Z</time></trkpt><trkpt lat="46.0928907" lon="13.5332788"><ele>322.83333333333337</ele><time>2026-05-03T12:12:28.94Z</time></trkpt><trkpt lat="46.0928251" lon="13.5332217"><ele>319.6666666666667</ele><time>2026-05-03T12:12:29.946Z</time></trkpt><trkpt lat="46.0927584" lon="13.5331565"><ele>316.5</ele><time>2026-05-03T12:12:30.938Z</time></trkpt><trkpt lat="46.092716" lon="13.533074"><ele>313.3333333333333</ele><time>2026-05-03T12:12:31.94Z</time></trkpt><trkpt lat="46.09269" lon="13.5329701"><ele>310.16666666666663</ele><time>2026-05-03T12:12:32.949Z</time></trkpt><trkpt lat="46.0926774" lon="13.5328399"><ele>307.0</ele><time>2026-05-03T12:12:33.944Z</time></trkpt><trkpt lat="46.0926656" lon="13.5327048"><ele>307.0</ele><time>2026-05-03T12:12:34.948Z</time></trkpt><trkpt lat="46.0926701" lon="13.5325573"><ele>307.0</ele><time>2026-05-03T12:12:35.939Z</time></trkpt><trkpt lat="46.0926778" lon="13.5324064"><ele>307.0</ele><time>2026-05-03T12:12:36.932Z</time></trkpt><trkpt lat="46.0927027" lon="13.5322433"><ele>307.0</ele><time>2026-05-03T12:12:37.94Z</time></trkpt><trkpt lat="46.0927274" lon="13.5320678"><ele>307.0</ele><time>2026-05-03T12:12:38.938Z</time></trkpt><trkpt lat="46.0927493" lon="13.5319011"><ele>308.0</ele><time>2026-05-03T12:12:39.947Z</time></trkpt><trkpt lat="46.092755" lon="13.5317316"><ele>309.0</ele><time>2026-05-03T12:12:40.946Z</time></trkpt><trkpt lat="46.0927502" lon="13.5315696"><ele>310.0</ele><time>2026-05-03T12:12:41.937Z</time></trkpt><trkpt lat="46.0927465" lon="13.5314244"><ele>311.0</ele><time>2026-05-03T12:12:42.94Z</time></trkpt><trkpt lat="46.0927549" lon="13.5312914"><ele>312.0</ele><time>2026-05-03T12:12:43.94Z</time></trkpt><trkpt lat="46.0927622" lon="13.5311531"><ele>313.5</ele><time>2026-05-03T12:12:44.939Z</time></trkpt><trkpt lat="46.0927536" lon="13.531002"><ele>315.0</ele><time>2026-05-03T12:12:45.946Z</time></trkpt><trkpt lat="46.0927346" lon="13.530873"><ele>316.5</ele><time>2026-05-03T12:12:46.938Z</time></trkpt><trkpt lat="46.0927108" lon="13.5307541"><ele>318.0</ele><time>2026-05-03T12:12:47.939Z</time></trkpt><trkpt lat="46.0926954" lon="13.530645"><ele>319.5</ele><time>2026-05-03T12:12:48.943Z</time></trkpt><trkpt lat="46.0926913" lon="13.5305217"><ele>321.0</ele><time>2026-05-03T12:12:49.937Z</time></trkpt><trkpt lat="46.0927" lon="13.5304046"><ele>322.4</ele><time>2026-05-03T12:12:50.949Z</time></trkpt><trkpt lat="46.0927074" lon="13.5302566"><ele>323.8</ele><time>2026-05-03T12:12:51.953Z</time></trkpt><trkpt lat="46.0927204" lon="13.5300918"><ele>325.2</ele><time>2026-05-03T12:12:52.94Z</time></trkpt><trkpt lat="46.0927324" lon="13.5299322"><ele>326.59999999999997</ele><time>2026-05-03T12:12:53.941Z</time></trkpt><trkpt lat="46.0927469" lon="13.5297866"><ele>328.0</ele><time>2026-05-03T12:12:54.938Z</time></trkpt><trkpt lat="46.0927649" lon="13.5296503"><ele>329.5</ele><time>2026-05-03T12:12:55.933Z</time></trkpt><trkpt lat="46.0927902" lon="13.5295317"><ele>331.0</ele><time>2026-05-03T12:12:56.952Z</time></trkpt><trkpt lat="46.09283" lon="13.5294279"><ele>332.5</ele><time>2026-05-03T12:12:57.946Z</time></trkpt><trkpt lat="46.092869" lon="13.5293324"><ele>334.0</ele><time>2026-05-03T12:12:58.938Z</time></trkpt><trkpt lat="46.0929106" lon="13.5292464"><ele>335.5</ele><time>2026-05-03T12:12:59.934Z</time></trkpt><trkpt lat="46.092926" lon="13.5291576"><ele>337.0</ele><time>2026-05-03T12:13:00.942Z</time></trkpt><trkpt lat="46.0929074" lon="13.529037"><ele>337.0</ele><time>2026-05-03T12:13:02.936Z</time></trkpt><trkpt lat="46.0928193" lon="13.5289925"><ele>337.0</ele><time>2026-05-03T12:13:05.938Z</time></trkpt><trkpt lat="46.0927399" lon="13.528903"><ele>337.0</ele><time>2026-05-03T12:13:08.941Z</time></trkpt><trkpt lat="46.0927268" lon="13.5288139"><ele>337.0</ele><time>2026-05-03T12:13:09.936Z</time></trkpt><trkpt lat="46.0926759" lon="13.5286626"><ele>337.0</ele><time>2026-05-03T12:13:11.94Z</time></trkpt><trkpt lat="46.0926368" lon="13.5285864"><ele>337.0</ele><time>2026-05-03T12:13:12.94Z</time></trkpt><trkpt lat="46.0925886" lon="13.5285208"><ele>337.0</ele><time>2026-05-03T12:13:13.944Z</time></trkpt><trkpt lat="46.0924967" lon="13.5284473"><ele>337.0</ele><time>2026-05-03T12:13:15.939Z</time></trkpt><trkpt lat="46.0924387" lon="13.5285441"><ele>337.0</ele><time>2026-05-03T12:13:18.938Z</time></trkpt><trkpt lat="46.0924453" lon="13.5286475"><ele>337.0</ele><time>2026-05-03T12:13:19.953Z</time></trkpt><trkpt lat="46.0924607" lon="13.5287606"><ele>337.0</ele><time>2026-05-03T12:13:20.936Z</time></trkpt><trkpt lat="46.0924757" lon="13.5288642"><ele>337.0</ele><time>2026-05-03T12:13:21.935Z</time></trkpt><trkpt lat="46.0924723" lon="13.5289604"><ele>337.0</ele><time>2026-05-03T12:13:22.939Z</time></trkpt><trkpt lat="46.0924524" lon="13.5290513"><ele>337.0</ele><time>2026-05-03T12:13:23.942Z</time></trkpt><trkpt lat="46.0924323" lon="13.5291485"><ele>337.0</ele><time>2026-05-03T12:13:24.949Z</time></trkpt><trkpt lat="46.0924076" lon="13.5292516"><ele>337.0</ele><time>2026-05-03T12:13:25.946Z</time></trkpt><trkpt lat="46.0923733" lon="13.5293601"><ele>337.0</ele><time>2026-05-03T12:13:26.933Z</time></trkpt><trkpt lat="46.0923378" lon="13.5294659"><ele>337.0</ele><time>2026-05-03T12:13:27.93Z</time></trkpt><trkpt lat="46.0922992" lon="13.529573"><ele>342.6</ele><time>2026-05-03T12:13:28.945Z</time></trkpt><trkpt lat="46.0922555" lon="13.529682"><ele>348.20000000000005</ele><time>2026-05-03T12:13:29.938Z</time></trkpt><trkpt lat="46.0922176" lon="13.529798"><ele>353.8</ele><time>2026-05-03T12:13:30.932Z</time></trkpt><trkpt lat="46.0921703" lon="13.5299181"><ele>359.4</ele><time>2026-05-03T12:13:31.935Z</time></trkpt><trkpt lat="46.0921122" lon="13.5300332"><ele>365.0</ele><time>2026-05-03T12:13:32.947Z</time></trkpt><trkpt lat="46.0920604" lon="13.5301576"><ele>365.0</ele><time>2026-05-03T12:13:33.937Z</time></trkpt><trkpt lat="46.0920109" lon="13.530289"><ele>365.0</ele><time>2026-05-03T12:13:34.938Z</time></trkpt><trkpt lat="46.0919697" lon="13.5304077"><ele>365.0</ele><time>2026-05-03T12:13:35.937Z</time></trkpt><trkpt lat="46.091939" lon="13.530532"><ele>365.0</ele><time>2026-05-03T12:13:36.932Z</time></trkpt><trkpt lat="46.0919081" lon="13.5306516"><ele>365.0</ele><time>2026-05-03T12:13:37.939Z</time></trkpt><trkpt lat="46.0918721" lon="13.530762"><ele>362.5</ele><time>2026-05-03T12:13:38.94Z</time></trkpt><trkpt lat="46.0918367" lon="13.5308646"><ele>360.0</ele><time>2026-05-03T12:13:39.932Z</time></trkpt><trkpt lat="46.0917924" lon="13.5309668"><ele>357.5</ele><time>2026-05-03T12:13:40.942Z</time></trkpt><trkpt lat="46.0917476" lon="13.5310655"><ele>355.0</ele><time>2026-05-03T12:13:41.939Z</time></trkpt><trkpt lat="46.0917146" lon="13.5311612"><ele>352.5</ele><time>2026-05-03T12:13:42.935Z</time></trkpt><trkpt lat="46.091691" lon="13.5312708"><ele>350.0</ele><time>2026-05-03T12:13:43.937Z</time></trkpt><trkpt lat="46.091662" lon="13.5313813"><ele>350.83333333333337</ele><time>2026-05-03T12:13:44.939Z</time></trkpt><trkpt lat="46.0916258" lon="13.5314928"><ele>351.6666666666667</ele><time>2026-05-03T12:13:45.937Z</time></trkpt><trkpt lat="46.0915845" lon="13.5316006"><ele>352.5</ele><time>2026-05-03T12:13:46.946Z</time></trkpt><trkpt lat="46.0915398" lon="13.5317031"><ele>353.3333333333333</ele><time>2026-05-03T12:13:47.937Z</time></trkpt><trkpt lat="46.0914789" lon="13.5317817"><ele>354.16666666666663</ele><time>2026-05-03T12:13:48.935Z</time></trkpt><trkpt lat="46.0914035" lon="13.5318511"><ele>355.0</ele><time>2026-05-03T12:13:49.934Z</time></trkpt><trkpt lat="46.0913142" lon="13.5319053"><ele>355.0</ele><time>2026-05-03T12:13:50.938Z</time></trkpt><trkpt lat="46.0912222" lon="13.5319489"><ele>355.0</ele><time>2026-05-03T12:13:51.947Z</time></trkpt><trkpt lat="46.0911274" lon="13.5319539"><ele>355.0</ele><time>2026-05-03T12:13:52.945Z</time></trkpt><trkpt lat="46.0910215" lon="13.5319458"><ele>355.0</ele><time>2026-05-03T12:13:53.935Z</time></trkpt><trkpt lat="46.0909068" lon="13.5319293"><ele>355.0</ele><time>2026-05-03T12:13:54.943Z</time></trkpt><trkpt lat="46.0907915" lon="13.5318989"><ele>358.4</ele><time>2026-05-03T12:13:55.95Z</time></trkpt><trkpt lat="46.0906794" lon="13.5318659"><ele>361.8</ele><time>2026-05-03T12:13:56.937Z</time></trkpt><trkpt lat="46.0905878" lon="13.5318309"><ele>365.20000000000005</ele><time>2026-05-03T12:13:57.936Z</time></trkpt><trkpt lat="46.090523" lon="13.5318193"><ele>368.6</ele><time>2026-05-03T12:13:58.941Z</time></trkpt><trkpt lat="46.0904411" lon="13.5318739"><ele>372.0</ele><time>2026-05-03T12:14:00.946Z</time></trkpt><trkpt lat="46.0903706" lon="13.5320174"><ele>367.8</ele><time>2026-05-03T12:14:02.939Z</time></trkpt><trkpt lat="46.0903095" lon="13.5321599"><ele>363.6</ele><time>2026-05-03T12:14:04.942Z</time></trkpt><trkpt lat="46.0902345" lon="13.532313"><ele>359.40000000000003</ele><time>2026-05-03T12:14:06.937Z</time></trkpt><trkpt lat="46.0901859" lon="13.5324069"><ele>355.20000000000005</ele><time>2026-05-03T12:14:07.944Z</time></trkpt><trkpt lat="46.0901222" lon="13.5325012"><ele>351.0</ele><time>2026-05-03T12:14:08.938Z</time></trkpt><trkpt lat="46.0900532" lon="13.5325993"><ele>351.0</ele><time>2026-05-03T12:14:09.942Z</time></trkpt><trkpt lat="46.0899755" lon="13.5327028"><ele>351.0</ele><time>2026-05-03T12:14:10.941Z</time></trkpt><trkpt lat="46.0898915" lon="13.5328053"><ele>351.0</ele><time>2026-05-03T12:14:11.951Z</time></trkpt><trkpt lat="46.0898093" lon="13.5329128"><ele>351.0</ele><time>2026-05-03T12:14:12.945Z</time></trkpt><trkpt lat="46.089744" lon="13.5330147"><ele>351.0</ele><time>2026-05-03T12:14:13.937Z</time></trkpt><trkpt lat="46.0896851" lon="13.5331209"><ele>352.8333333333333</ele><time>2026-05-03T12:14:14.947Z</time></trkpt><trkpt lat="46.089628" lon="13.5332261"><ele>354.6666666666667</ele><time>2026-05-03T12:14:15.935Z</time></trkpt><trkpt lat="46.089586" lon="13.533334"><ele>356.5</ele><time>2026-05-03T12:14:16.948Z</time></trkpt><trkpt lat="46.0895481" lon="13.5334476"><ele>358.33333333333337</ele><time>2026-05-03T12:14:17.937Z</time></trkpt><trkpt lat="46.0895078" lon="13.5335463"><ele>360.1666666666667</ele><time>2026-05-03T12:14:18.937Z</time></trkpt><trkpt lat="46.0894557" lon="13.5336306"><ele>362.0</ele><time>2026-05-03T12:14:19.939Z</time></trkpt><trkpt lat="46.0893991" lon="13.53371"><ele>361.8</ele><time>2026-05-03T12:14:20.944Z</time></trkpt><trkpt lat="46.0893233" lon="13.5337828"><ele>361.6</ele><time>2026-05-03T12:14:21.94Z</time></trkpt><trkpt lat="46.0892452" lon="13.5338559"><ele>361.40000000000003</ele><time>2026-05-03T12:14:22.944Z</time></trkpt><trkpt lat="46.0891684" lon="13.5339411"><ele>361.20000000000005</ele><time>2026-05-03T12:14:23.946Z</time></trkpt><trkpt lat="46.0890871" lon="13.5340294"><ele>361.0</ele><time>2026-05-03T12:14:24.936Z</time></trkpt><trkpt lat="46.0890027" lon="13.5341137"><ele>361.0</ele><time>2026-05-03T12:14:25.943Z</time></trkpt><trkpt lat="46.0889252" lon="13.5341936"><ele>361.0</ele><time>2026-05-03T12:14:26.949Z</time></trkpt><trkpt lat="46.0888544" lon="13.5342773"><ele>361.0</ele><time>2026-05-03T12:14:27.945Z</time></trkpt><trkpt lat="46.0887856" lon="13.5343639"><ele>361.0</ele><time>2026-05-03T12:14:28.946Z</time></trkpt><trkpt lat="46.0887166" lon="13.5344597"><ele>361.0</ele><time>2026-05-03T12:14:29.943Z</time></trkpt><trkpt lat="46.088659" lon="13.5345547"><ele>357.16666666666663</ele><time>2026-05-03T12:14:30.936Z</time></trkpt><trkpt lat="46.0886062" lon="13.5346469"><ele>353.3333333333333</ele><time>2026-05-03T12:14:31.944Z</time></trkpt><trkpt lat="46.0885596" lon="13.5347289"><ele>349.5</ele><time>2026-05-03T12:14:32.937Z</time></trkpt><trkpt lat="46.0885114" lon="13.5347999"><ele>345.6666666666667</ele><time>2026-05-03T12:14:33.941Z</time></trkpt><trkpt lat="46.0884477" lon="13.5348902"><ele>341.83333333333337</ele><time>2026-05-03T12:14:35.942Z</time></trkpt><trkpt lat="46.0883761" lon="13.534926"><ele>338.0</ele><time>2026-05-03T12:14:39.943Z</time></trkpt><trkpt lat="46.0883076" lon="13.5349362"><ele>334.0</ele><time>2026-05-03T12:14:42.932Z</time></trkpt><trkpt lat="46.0882389" lon="13.5349343"><ele>330.0</ele><time>2026-05-03T12:14:44.941Z</time></trkpt><trkpt lat="46.0881474" lon="13.5349104"><ele>326.0</ele><time>2026-05-03T12:14:46.938Z</time></trkpt><trkpt lat="46.0880546" lon="13.5348253"><ele>322.0</ele><time>2026-05-03T12:14:48.939Z</time></trkpt><trkpt lat="46.0879555" lon="13.5347151"><ele>318.0</ele><time>2026-05-03T12:14:50.937Z</time></trkpt><trkpt lat="46.0878965" lon="13.5346616"><ele>318.0</ele><time>2026-05-03T12:14:51.941Z</time></trkpt><trkpt lat="46.0878417" lon="13.534612"><ele>318.0</ele><time>2026-05-03T12:14:52.935Z</time></trkpt><trkpt lat="46.0877685" lon="13.5344865"><ele>318.0</ele><time>2026-05-03T12:14:54.934Z</time></trkpt><trkpt lat="46.0877478" lon="13.5343108"><ele>318.0</ele><time>2026-05-03T12:14:56.94Z</time></trkpt><trkpt lat="46.0877458" lon="13.5341925"><ele>318.0</ele><time>2026-05-03T12:14:57.948Z</time></trkpt><trkpt lat="46.0877381" lon="13.534067"><ele>321.4</ele><time>2026-05-03T12:14:58.944Z</time></trkpt><trkpt lat="46.0877239" lon="13.5339448"><ele>324.8</ele><time>2026-05-03T12:14:59.938Z</time></trkpt><trkpt lat="46.0876869" lon="13.5338256"><ele>328.2</ele><time>2026-05-03T12:15:00.935Z</time></trkpt><trkpt lat="46.0876442" lon="13.5337169"><ele>331.6</ele><time>2026-05-03T12:15:01.943Z</time></trkpt><trkpt lat="46.087574" lon="13.5336116"><ele>335.0</ele><time>2026-05-03T12:15:02.934Z</time></trkpt><trkpt lat="46.0874967" lon="13.5335143"><ele>337.2</ele><time>2026-05-03T12:15:03.941Z</time></trkpt><trkpt lat="46.0874164" lon="13.533412"><ele>339.4</ele><time>2026-05-03T12:15:04.933Z</time></trkpt><trkpt lat="46.0873485" lon="13.533301"><ele>341.6</ele><time>2026-05-03T12:15:05.943Z</time></trkpt><trkpt lat="46.0872853" lon="13.5331819"><ele>343.8</ele><time>2026-05-03T12:15:06.936Z</time></trkpt><trkpt lat="46.0872125" lon="13.5330761"><ele>346.0</ele><time>2026-05-03T12:15:07.941Z</time></trkpt><trkpt lat="46.0871464" lon="13.5329801"><ele>350.16666666666663</ele><time>2026-05-03T12:15:08.942Z</time></trkpt><trkpt lat="46.0870919" lon="13.5328784"><ele>354.3333333333333</ele><time>2026-05-03T12:15:09.934Z</time></trkpt><trkpt lat="46.0870492" lon="13.5327782"><ele>358.5</ele><time>2026-05-03T12:15:10.942Z</time></trkpt><trkpt lat="46.0870103" lon="13.5326865"><ele>362.6666666666667</ele><time>2026-05-03T12:15:11.938Z</time></trkpt><trkpt lat="46.0869738" lon="13.5325988"><ele>366.83333333333337</ele><time>2026-05-03T12:15:12.938Z</time></trkpt><trkpt lat="46.0869345" lon="13.5325126"><ele>371.0</ele><time>2026-05-03T12:15:13.94Z</time></trkpt><trkpt lat="46.0868925" lon="13.5324304"><ele>371.0</ele><time>2026-05-03T12:15:14.941Z</time></trkpt><trkpt lat="46.0868144" lon="13.5323287"><ele>371.0</ele><time>2026-05-03T12:15:16.934Z</time></trkpt><trkpt lat="46.0867568" lon="13.5323662"><ele>371.0</ele><time>2026-05-03T12:15:19.934Z</time></trkpt><trkpt lat="46.0867456" lon="13.5324633"><ele>371.0</ele><time>2026-05-03T12:15:28.935Z</time></trkpt><trkpt lat="46.0867127" lon="13.5325793"><ele>371.0</ele><time>2026-05-03T12:15:31.937Z</time></trkpt><trkpt lat="46.0866641" lon="13.5327209"><ele>371.0</ele><time>2026-05-03T12:15:33.941Z</time></trkpt><trkpt lat="46.0866234" lon="13.5328195"><ele>368.5</ele><time>2026-05-03T12:15:34.934Z</time></trkpt><trkpt lat="46.0865594" lon="13.5329144"><ele>366.0</ele><time>2026-05-03T12:15:35.936Z</time></trkpt><trkpt lat="46.0864887" lon="13.5330012"><ele>363.5</ele><time>2026-05-03T12:15:36.941Z</time></trkpt><trkpt lat="46.0864191" lon="13.5330686"><ele>361.0</ele><time>2026-05-03T12:15:37.949Z</time></trkpt><trkpt lat="46.0863489" lon="13.5330927"><ele>358.5</ele><time>2026-05-03T12:15:38.943Z</time></trkpt><trkpt lat="46.086268" lon="13.5331088"><ele>356.0</ele><time>2026-05-03T12:15:39.946Z</time></trkpt><trkpt lat="46.086187" lon="13.5331376"><ele>356.0</ele><time>2026-05-03T12:15:40.94Z</time></trkpt><trkpt lat="46.086111" lon="13.5331827"><ele>356.0</ele><time>2026-05-03T12:15:41.933Z</time></trkpt><trkpt lat="46.08604" lon="13.5332206"><ele>356.0</ele><time>2026-05-03T12:15:42.937Z</time></trkpt><trkpt lat="46.0859712" lon="13.5332402"><ele>356.0</ele><time>2026-05-03T12:15:43.936Z</time></trkpt><trkpt lat="46.0858985" lon="13.5332387"><ele>356.0</ele><time>2026-05-03T12:15:44.933Z</time></trkpt><trkpt lat="46.0858198" lon="13.5332246"><ele>356.0</ele><time>2026-05-03T12:15:45.94Z</time></trkpt><trkpt lat="46.0857434" lon="13.5331966"><ele>353.6</ele><time>2026-05-03T12:15:46.937Z</time></trkpt><trkpt lat="46.0856636" lon="13.533155"><ele>351.20000000000005</ele><time>2026-05-03T12:15:47.938Z</time></trkpt><trkpt lat="46.0855826" lon="13.533093"><ele>348.79999999999995</ele><time>2026-05-03T12:15:48.949Z</time></trkpt><trkpt lat="46.0855083" lon="13.5330173"><ele>346.4</ele><time>2026-05-03T12:15:49.935Z</time></trkpt><trkpt lat="46.0854354" lon="13.5329321"><ele>344.0</ele><time>2026-05-03T12:15:50.935Z</time></trkpt><trkpt lat="46.0853662" lon="13.5328439"><ele>348.28571428571433</ele><time>2026-05-03T12:15:51.936Z</time></trkpt><trkpt lat="46.0853028" lon="13.5327617"><ele>352.57142857142856</ele><time>2026-05-03T12:15:52.938Z</time></trkpt><trkpt lat="46.085243" lon="13.5326974"><ele>356.8571428571429</ele><time>2026-05-03T12:15:53.935Z</time></trkpt><trkpt lat="46.0851768" lon="13.5326662"><ele>361.14285714285717</ele><time>2026-05-03T12:15:54.945Z</time></trkpt><trkpt lat="46.0851083" lon="13.5326589"><ele>365.42857142857144</ele><time>2026-05-03T12:15:55.945Z</time></trkpt><trkpt lat="46.085034" lon="13.5326624"><ele>369.7142857142857</ele><time>2026-05-03T12:15:56.952Z</time></trkpt><trkpt lat="46.0849645" lon="13.5326865"><ele>374.0</ele><time>2026-05-03T12:15:57.941Z</time></trkpt><trkpt lat="46.0848981" lon="13.5327216"><ele>375.5</ele><time>2026-05-03T12:15:58.937Z</time></trkpt><trkpt lat="46.0848256" lon="13.5327412"><ele>377.0</ele><time>2026-05-03T12:15:59.943Z</time></trkpt><trkpt lat="46.0847409" lon="13.5327409"><ele>378.5</ele><time>2026-05-03T12:16:00.936Z</time></trkpt><trkpt lat="46.0846505" lon="13.5327293"><ele>380.0</ele><time>2026-05-03T12:16:01.936Z</time></trkpt><trkpt lat="46.0845603" lon="13.5327156"><ele>381.5</ele><time>2026-05-03T12:16:02.939Z</time></trkpt><trkpt lat="46.0844885" lon="13.5327011"><ele>383.0</ele><time>2026-05-03T12:16:03.944Z</time></trkpt><trkpt lat="46.0844243" lon="13.5326787"><ele>383.0</ele><time>2026-05-03T12:16:04.935Z</time></trkpt><trkpt lat="46.0843203" lon="13.5326298"><ele>383.0</ele><time>2026-05-03T12:16:06.952Z</time></trkpt><trkpt lat="46.0843026" lon="13.5327267"><ele>383.0</ele><time>2026-05-03T12:16:11.937Z</time></trkpt><trkpt lat="46.0842187" lon="13.5328146"><ele>383.0</ele><time>2026-05-03T12:16:13.945Z</time></trkpt><trkpt lat="46.0841725" lon="13.5329021"><ele>383.0</ele><time>2026-05-03T12:16:14.942Z</time></trkpt><trkpt lat="46.0841205" lon="13.5330013"><ele>383.0</ele><time>2026-05-03T12:16:15.939Z</time></trkpt><trkpt lat="46.0840581" lon="13.5331191"><ele>386.25</ele><time>2026-05-03T12:16:16.933Z</time></trkpt><trkpt lat="46.0839932" lon="13.533253"><ele>389.5</ele><time>2026-05-03T12:16:17.936Z</time></trkpt><trkpt lat="46.0839385" lon="13.533394"><ele>392.75</ele><time>2026-05-03T12:16:18.932Z</time></trkpt><trkpt lat="46.0838611" lon="13.5335286"><ele>396.0</ele><time>2026-05-03T12:16:19.937Z</time></trkpt><trkpt lat="46.0837901" lon="13.5336486"><ele>392.5</ele><time>2026-05-03T12:16:20.939Z</time></trkpt><trkpt lat="46.0837212" lon="13.533751"><ele>389.0</ele><time>2026-05-03T12:16:21.942Z</time></trkpt><trkpt lat="46.0836571" lon="13.5338351"><ele>385.5</ele><time>2026-05-03T12:16:22.937Z</time></trkpt><trkpt lat="46.0835837" lon="13.5339027"><ele>382.0</ele><time>2026-05-03T12:16:23.94Z</time></trkpt><trkpt lat="46.0835076" lon="13.533962"><ele>378.5</ele><time>2026-05-03T12:16:24.936Z</time></trkpt><trkpt lat="46.083442" lon="13.5340179"><ele>375.0</ele><time>2026-05-03T12:16:25.933Z</time></trkpt><trkpt lat="46.0833811" lon="13.5340675"><ele>375.0</ele><time>2026-05-03T12:16:26.933Z</time></trkpt><trkpt lat="46.083331" lon="13.5341272"><ele>375.0</ele><time>2026-05-03T12:16:27.938Z</time></trkpt><trkpt lat="46.0832477" lon="13.5342654"><ele>375.0</ele><time>2026-05-03T12:16:29.939Z</time></trkpt><trkpt lat="46.0831967" lon="13.5343448"><ele>375.0</ele><time>2026-05-03T12:16:30.942Z</time></trkpt><trkpt lat="46.0831271" lon="13.5344126"><ele>375.0</ele><time>2026-05-03T12:16:31.943Z</time></trkpt><trkpt lat="46.0830479" lon="13.5344845"><ele>375.0</ele><time>2026-05-03T12:16:32.936Z</time></trkpt><trkpt lat="46.0829673" lon="13.534551"><ele>374.6666666666667</ele><time>2026-05-03T12:16:33.937Z</time></trkpt><trkpt lat="46.0828814" lon="13.5346023"><ele>374.3333333333333</ele><time>2026-05-03T12:16:34.939Z</time></trkpt><trkpt lat="46.0827911" lon="13.5346388"><ele>374.0</ele><time>2026-05-03T12:16:35.942Z</time></trkpt><trkpt lat="46.0827045" lon="13.5346557"><ele>373.66666666666663</ele><time>2026-05-03T12:16:36.939Z</time></trkpt><trkpt lat="46.0826231" lon="13.5346482"><ele>373.3333333333333</ele><time>2026-05-03T12:16:37.944Z</time></trkpt><trkpt lat="46.0825358" lon="13.5346211"><ele>373.0</ele><time>2026-05-03T12:16:38.944Z</time></trkpt><trkpt lat="46.0824528" lon="13.5345732"><ele>375.3333333333333</ele><time>2026-05-03T12:16:39.933Z</time></trkpt><trkpt lat="46.0823763" lon="13.5345073"><ele>377.66666666666663</ele><time>2026-05-03T12:16:40.944Z</time></trkpt><trkpt lat="46.0823196" lon="13.5344192"><ele>380.0</ele><time>2026-05-03T12:16:41.936Z</time></trkpt><trkpt lat="46.0823052" lon="13.5343256"><ele>382.3333333333333</ele><time>2026-05-03T12:16:42.938Z</time></trkpt><trkpt lat="46.0823759" lon="13.5342088"><ele>384.6666666666667</ele><time>2026-05-03T12:16:44.936Z</time></trkpt><trkpt lat="46.0824551" lon="13.5341878"><ele>387.0</ele><time>2026-05-03T12:16:45.936Z</time></trkpt><trkpt lat="46.0825419" lon="13.5341806"><ele>387.0</ele><time>2026-05-03T12:16:46.932Z</time></trkpt><trkpt lat="46.0826315" lon="13.5341591"><ele>387.0</ele><time>2026-05-03T12:16:47.932Z</time></trkpt><trkpt lat="46.0827166" lon="13.5341262"><ele>387.0</ele><time>2026-05-03T12:16:48.934Z</time></trkpt><trkpt lat="46.0827912" lon="13.5340689"><ele>387.0</ele><time>2026-05-03T12:16:49.938Z</time></trkpt><trkpt lat="46.0828566" lon="13.5339959"><ele>387.0</ele><time>2026-05-03T12:16:50.943Z</time></trkpt><trkpt lat="46.0828972" lon="13.5338775"><ele>387.0</ele><time>2026-05-03T12:16:51.941Z</time></trkpt><trkpt lat="46.0829158" lon="13.5337341"><ele>388.6</ele><time>2026-05-03T12:16:52.937Z</time></trkpt><trkpt lat="46.0829339" lon="13.5335944"><ele>390.20000000000005</ele><time>2026-05-03T12:16:53.944Z</time></trkpt><trkpt lat="46.0829659" lon="13.533466"><ele>391.8</ele><time>2026-05-03T12:16:54.934Z</time></trkpt><trkpt lat="46.0830088" lon="13.5333627"><ele>393.4</ele><time>2026-05-03T12:16:55.937Z</time></trkpt><trkpt lat="46.0830695" lon="13.5332831"><ele>395.0</ele><time>2026-05-03T12:16:56.935Z</time></trkpt><trkpt lat="46.0831456" lon="13.5332111"><ele>395.0</ele><time>2026-05-03T12:16:57.935Z</time></trkpt><trkpt lat="46.0832242" lon="13.5331307"><ele>395.0</ele><time>2026-05-03T12:16:58.938Z</time></trkpt><trkpt lat="46.0833113" lon="13.5330484"><ele>395.0</ele><time>2026-05-03T12:16:59.938Z</time></trkpt><trkpt lat="46.0833941" lon="13.5329611"><ele>395.0</ele><time>2026-05-03T12:17:00.936Z</time></trkpt><trkpt lat="46.083475" lon="13.5328612"><ele>395.0</ele><time>2026-05-03T12:17:01.943Z</time></trkpt><trkpt lat="46.0835479" lon="13.5327573"><ele>397.66666666666663</ele><time>2026-05-03T12:17:02.929Z</time></trkpt><trkpt lat="46.0836006" lon="13.5326593"><ele>400.3333333333333</ele><time>2026-05-03T12:17:03.931Z</time></trkpt><trkpt lat="46.083644" lon="13.5325696"><ele>403.0</ele><time>2026-05-03T12:17:04.943Z</time></trkpt><trkpt lat="46.0836736" lon="13.5324712"><ele>405.66666666666663</ele><time>2026-05-03T12:17:05.945Z</time></trkpt><trkpt lat="46.0836934" lon="13.5323609"><ele>408.3333333333333</ele><time>2026-05-03T12:17:06.932Z</time></trkpt><trkpt lat="46.0837112" lon="13.5322415"><ele>411.0</ele><time>2026-05-03T12:17:07.931Z</time></trkpt><trkpt lat="46.0837344" lon="13.5321081"><ele>412.6</ele><time>2026-05-03T12:17:08.942Z</time></trkpt><trkpt lat="46.083755" lon="13.5319704"><ele>414.20000000000005</ele><time>2026-05-03T12:17:09.939Z</time></trkpt><trkpt lat="46.083779" lon="13.5318453"><ele>415.79999999999995</ele><time>2026-05-03T12:17:10.934Z</time></trkpt><trkpt lat="46.0838005" lon="13.5317191"><ele>417.4</ele><time>2026-05-03T12:17:11.935Z</time></trkpt><trkpt lat="46.0838286" lon="13.5315958"><ele>419.0</ele><time>2026-05-03T12:17:12.94Z</time></trkpt><trkpt lat="46.0838647" lon="13.5314823"><ele>419.0</ele><time>2026-05-03T12:17:13.945Z</time></trkpt><trkpt lat="46.0839072" lon="13.5313809"><ele>419.0</ele><time>2026-05-03T12:17:14.935Z</time></trkpt><trkpt lat="46.0839609" lon="13.531278"><ele>419.0</ele><time>2026-05-03T12:17:15.945Z</time></trkpt><trkpt lat="46.0840163" lon="13.5311608"><ele>419.0</ele><time>2026-05-03T12:17:16.944Z</time></trkpt><trkpt lat="46.0840846" lon="13.5310473"><ele>419.0</ele><time>2026-05-03T12:17:17.937Z</time></trkpt><trkpt lat="46.0841558" lon="13.5309278"><ele>420.0</ele><time>2026-05-03T12:17:18.944Z</time></trkpt><trkpt lat="46.0842313" lon="13.5308026"><ele>421.0</ele><time>2026-05-03T12:17:19.939Z</time></trkpt><trkpt lat="46.0843067" lon="13.5306749"><ele>422.0</ele><time>2026-05-03T12:17:20.942Z</time></trkpt><trkpt lat="46.0843835" lon="13.530558"><ele>423.0</ele><time>2026-05-03T12:17:21.935Z</time></trkpt><trkpt lat="46.084463" lon="13.5304513"><ele>427.2</ele><time>2026-05-03T12:17:22.935Z</time></trkpt><trkpt lat="46.0845414" lon="13.530362"><ele>431.4</ele><time>2026-05-03T12:17:23.945Z</time></trkpt><trkpt lat="46.084617" lon="13.5302911"><ele>435.59999999999997</ele><time>2026-05-03T12:17:24.947Z</time></trkpt><trkpt lat="46.0846859" lon="13.5302368"><ele>439.79999999999995</ele><time>2026-05-03T12:17:25.935Z</time></trkpt><trkpt lat="46.0847902" lon="13.5302261"><ele>444.0</ele><time>2026-05-03T12:17:27.933Z</time></trkpt><trkpt lat="46.0848503" lon="13.5303687"><ele>440.5</ele><time>2026-05-03T12:17:29.938Z</time></trkpt><trkpt lat="46.0848738" lon="13.5304703"><ele>437.0</ele><time>2026-05-03T12:17:30.931Z</time></trkpt><trkpt lat="46.0848981" lon="13.5305881"><ele>433.5</ele><time>2026-05-03T12:17:31.932Z</time></trkpt><trkpt lat="46.0849399" lon="13.5307023"><ele>430.0</ele><time>2026-05-03T12:17:32.94Z</time></trkpt><trkpt lat="46.0849879" lon="13.5308251"><ele>426.5</ele><time>2026-05-03T12:17:33.934Z</time></trkpt><trkpt lat="46.0850496" lon="13.5309368"><ele>423.0</ele><time>2026-05-03T12:17:34.934Z</time></trkpt><trkpt lat="46.0851115" lon="13.5310388"><ele>422.5</ele><time>2026-05-03T12:17:35.938Z</time></trkpt><trkpt lat="46.0851856" lon="13.5311363"><ele>422.0</ele><time>2026-05-03T12:17:36.932Z</time></trkpt><trkpt lat="46.0852553" lon="13.5312291"><ele>421.5</ele><time>2026-05-03T12:17:37.935Z</time></trkpt><trkpt lat="46.0853241" lon="13.5312742"><ele>421.0</ele><time>2026-05-03T12:17:38.932Z</time></trkpt><trkpt lat="46.0854103" lon="13.5312877"><ele>420.5</ele><time>2026-05-03T12:17:39.934Z</time></trkpt><trkpt lat="46.0855" lon="13.5313067"><ele>420.0</ele><time>2026-05-03T12:17:40.936Z</time></trkpt><trkpt lat="46.0855868" lon="13.5313331"><ele>418.2</ele><time>2026-05-03T12:17:41.934Z</time></trkpt><trkpt lat="46.0856747" lon="13.5313643"><ele>416.4</ele><time>2026-05-03T12:17:42.932Z</time></trkpt><trkpt lat="46.0857605" lon="13.5313809"><ele>414.6</ele><time>2026-05-03T12:17:43.931Z</time></trkpt><trkpt lat="46.0858523" lon="13.5313834"><ele>412.8</ele><time>2026-05-03T12:17:44.937Z</time></trkpt><trkpt lat="46.0859539" lon="13.5313727"><ele>411.0</ele><time>2026-05-03T12:17:45.937Z</time></trkpt><trkpt lat="46.0860545" lon="13.5313372"><ele>411.0</ele><time>2026-05-03T12:17:46.941Z</time></trkpt><trkpt lat="46.0861457" lon="13.5312773"><ele>411.0</ele><time>2026-05-03T12:17:47.942Z</time></trkpt><trkpt lat="46.0862304" lon="13.5311974"><ele>411.0</ele><time>2026-05-03T12:17:48.94Z</time></trkpt><trkpt lat="46.0863203" lon="13.5311134"><ele>411.0</ele><time>2026-05-03T12:17:49.944Z</time></trkpt><trkpt lat="46.0864177" lon="13.5310378"><ele>411.0</ele><time>2026-05-03T12:17:50.94Z</time></trkpt><trkpt lat="46.0865114" lon="13.5309734"><ele>415.0</ele><time>2026-05-03T12:17:51.939Z</time></trkpt><trkpt lat="46.0865979" lon="13.5309051"><ele>419.0</ele><time>2026-05-03T12:17:52.936Z</time></trkpt><trkpt lat="46.0866841" lon="13.5308334"><ele>423.0</ele><time>2026-05-03T12:17:53.932Z</time></trkpt><trkpt lat="46.0867649" lon="13.5307667"><ele>427.0</ele><time>2026-05-03T12:17:54.93Z</time></trkpt><trkpt lat="46.0868401" lon="13.5307024"><ele>431.0</ele><time>2026-05-03T12:17:55.95Z</time></trkpt><trkpt lat="46.086905" lon="13.5306423"><ele>430.99999999999994</ele><time>2026-05-03T12:17:56.93Z</time></trkpt><trkpt lat="46.0869615" lon="13.5305735"><ele>431.0</ele><time>2026-05-03T12:17:57.934Z</time></trkpt><trkpt lat="46.0870078" lon="13.5304928"><ele>431.0</ele><time>2026-05-03T12:17:58.937Z</time></trkpt><trkpt lat="46.0870519" lon="13.5304264"><ele>431.0</ele><time>2026-05-03T12:17:59.934Z</time></trkpt><trkpt lat="46.0871368" lon="13.5303257"><ele>430.99999999999994</ele><time>2026-05-03T12:18:01.937Z</time></trkpt><trkpt lat="46.0872321" lon="13.5303005"><ele>431.0</ele><time>2026-05-03T12:18:03.935Z</time></trkpt><trkpt lat="46.0873461" lon="13.5303471"><ele>432.20000000000005</ele><time>2026-05-03T12:18:05.939Z</time></trkpt><trkpt lat="46.08744" lon="13.5304724"><ele>433.40000000000003</ele><time>2026-05-03T12:18:07.931Z</time></trkpt><trkpt lat="46.0874988" lon="13.5305301"><ele>434.6</ele><time>2026-05-03T12:18:08.936Z</time></trkpt><trkpt lat="46.0875802" lon="13.5305749"><ele>435.8</ele><time>2026-05-03T12:18:09.935Z</time></trkpt><trkpt lat="46.0876674" lon="13.5306079"><ele>437.0</ele><time>2026-05-03T12:18:10.933Z</time></trkpt><trkpt lat="46.0877491" lon="13.5306347"><ele>436.99999999999994</ele><time>2026-05-03T12:18:11.937Z</time></trkpt><trkpt lat="46.0878353" lon="13.5306496"><ele>437.0</ele><time>2026-05-03T12:18:12.933Z</time></trkpt><trkpt lat="46.0879284" lon="13.5306648"><ele>437.0</ele><time>2026-05-03T12:18:13.934Z</time></trkpt><trkpt lat="46.0880235" lon="13.5306741"><ele>437.0</ele><time>2026-05-03T12:18:14.932Z</time></trkpt><trkpt lat="46.0881142" lon="13.5306648"><ele>436.99999999999994</ele><time>2026-05-03T12:18:15.938Z</time></trkpt><trkpt lat="46.0881926" lon="13.5306381"><ele>437.0</ele><time>2026-05-03T12:18:16.935Z</time></trkpt><trkpt lat="46.0882506" lon="13.5306008"><ele>439.20000000000005</ele><time>2026-05-03T12:18:17.936Z</time></trkpt><trkpt lat="46.0883403" lon="13.5304641"><ele>441.40000000000003</ele><time>2026-05-03T12:18:19.939Z</time></trkpt><trkpt lat="46.0883789" lon="13.5303587"><ele>443.59999999999997</ele><time>2026-05-03T12:18:20.938Z</time></trkpt><trkpt lat="46.0884015" lon="13.5302397"><ele>445.79999999999995</ele><time>2026-05-03T12:18:21.943Z</time></trkpt><trkpt lat="46.0884238" lon="13.530114"><ele>448.0</ele><time>2026-05-03T12:18:22.944Z</time></trkpt><trkpt lat="46.0884448" lon="13.5299938"><ele>452.1666666666667</ele><time>2026-05-03T12:18:23.94Z</time></trkpt><trkpt lat="46.0884638" lon="13.5298859"><ele>456.33333333333337</ele><time>2026-05-03T12:18:24.948Z</time></trkpt><trkpt lat="46.0884954" lon="13.5297741"><ele>460.5</ele><time>2026-05-03T12:18:25.931Z</time></trkpt><trkpt lat="46.0885274" lon="13.5296522"><ele>464.66666666666663</ele><time>2026-05-03T12:18:26.931Z</time></trkpt><trkpt lat="46.088558" lon="13.5295376"><ele>468.8333333333333</ele><time>2026-05-03T12:18:27.939Z</time></trkpt><trkpt lat="46.0885815" lon="13.5294145"><ele>473.0</ele><time>2026-05-03T12:18:28.936Z</time></trkpt><trkpt lat="46.088607" lon="13.5292886"><ele>478.0</ele><time>2026-05-03T12:18:29.942Z</time></trkpt><trkpt lat="46.0886324" lon="13.5291621"><ele>482.99999999999994</ele><time>2026-05-03T12:18:30.947Z</time></trkpt><trkpt lat="46.0886675" lon="13.5290348"><ele>487.99999999999994</ele><time>2026-05-03T12:18:31.94Z</time></trkpt><trkpt lat="46.0887024" lon="13.5289027"><ele>493.0</ele><time>2026-05-03T12:18:32.935Z</time></trkpt><trkpt lat="46.0887358" lon="13.5287728"><ele>498.0</ele><time>2026-05-03T12:18:33.933Z</time></trkpt><trkpt lat="46.0887746" lon="13.5286353"><ele>501.2</ele><time>2026-05-03T12:18:34.94Z</time></trkpt><trkpt lat="46.0888176" lon="13.5284882"><ele>504.4</ele><time>2026-05-03T12:18:35.937Z</time></trkpt><trkpt lat="46.0888594" lon="13.5283445"><ele>507.59999999999997</ele><time>2026-05-03T12:18:36.934Z</time></trkpt><trkpt lat="46.0889074" lon="13.5282057"><ele>510.79999999999995</ele><time>2026-05-03T12:18:37.932Z</time></trkpt><trkpt lat="46.0889506" lon="13.5280694"><ele>514.0</ele><time>2026-05-03T12:18:38.932Z</time></trkpt><trkpt lat="46.0890009" lon="13.5279459"><ele>518.4</ele><time>2026-05-03T12:18:39.936Z</time></trkpt><trkpt lat="46.089046" lon="13.5278221"><ele>522.8</ele><time>2026-05-03T12:18:40.943Z</time></trkpt><trkpt lat="46.089083" lon="13.5276944"><ele>527.2</ele><time>2026-05-03T12:18:41.937Z</time></trkpt><trkpt lat="46.0891071" lon="13.5275545"><ele>531.6</ele><time>2026-05-03T12:18:42.939Z</time></trkpt><trkpt lat="46.0891243" lon="13.5274011"><ele>536.0</ele><time>2026-05-03T12:18:43.942Z</time></trkpt><trkpt lat="46.0891334" lon="13.5272474"><ele>529.2</ele><time>2026-05-03T12:18:44.931Z</time></trkpt><trkpt lat="46.0891458" lon="13.527096"><ele>522.4000000000001</ele><time>2026-05-03T12:18:45.934Z</time></trkpt><trkpt lat="46.0891611" lon="13.5269371"><ele>515.6</ele><time>2026-05-03T12:18:46.938Z</time></trkpt><trkpt lat="46.0891829" lon="13.5267789"><ele>508.8</ele><time>2026-05-03T12:18:47.935Z</time></trkpt><trkpt lat="46.0892036" lon="13.5266155"><ele>502.0</ele><time>2026-05-03T12:18:48.928Z</time></trkpt><trkpt lat="46.0892213" lon="13.5264501"><ele>502.0</ele><time>2026-05-03T12:18:49.938Z</time></trkpt><trkpt lat="46.0892364" lon="13.5262858"><ele>502.00000000000006</ele><time>2026-05-03T12:18:50.936Z</time></trkpt><trkpt lat="46.0892528" lon="13.5261231"><ele>502.00000000000006</ele><time>2026-05-03T12:18:51.936Z</time></trkpt><trkpt lat="46.0892698" lon="13.5259651"><ele>502.0</ele><time>2026-05-03T12:18:52.944Z</time></trkpt><trkpt lat="46.0892895" lon="13.5258166"><ele>502.0</ele><time>2026-05-03T12:18:53.932Z</time></trkpt><trkpt lat="46.0893058" lon="13.5256639"><ele>504.1666666666667</ele><time>2026-05-03T12:18:54.933Z</time></trkpt><trkpt lat="46.0893248" lon="13.5255166"><ele>506.33333333333337</ele><time>2026-05-03T12:18:55.933Z</time></trkpt><trkpt lat="46.0893364" lon="13.5253885"><ele>508.5</ele><time>2026-05-03T12:18:56.938Z</time></trkpt><trkpt lat="46.0893484" lon="13.525269"><ele>510.66666666666663</ele><time>2026-05-03T12:18:57.933Z</time></trkpt><trkpt lat="46.0893497" lon="13.5251557"><ele>512.8333333333333</ele><time>2026-05-03T12:18:58.936Z</time></trkpt><trkpt lat="46.0893372" lon="13.5250394"><ele>515.0</ele><time>2026-05-03T12:18:59.934Z</time></trkpt><trkpt lat="46.089318" lon="13.5249007"><ele>515.5</ele><time>2026-05-03T12:19:00.942Z</time></trkpt><trkpt lat="46.0892882" lon="13.5247701"><ele>516.0</ele><time>2026-05-03T12:19:01.935Z</time></trkpt><trkpt lat="46.0892501" lon="13.5246499"><ele>516.5</ele><time>2026-05-03T12:19:02.931Z</time></trkpt><trkpt lat="46.0892196" lon="13.5245281"><ele>517.0</ele><time>2026-05-03T12:19:03.939Z</time></trkpt><trkpt lat="46.0891897" lon="13.524413"><ele>517.5</ele><time>2026-05-03T12:19:04.934Z</time></trkpt><trkpt lat="46.0891639" lon="13.5243275"><ele>518.0</ele><time>2026-05-03T12:19:05.944Z</time></trkpt><trkpt lat="46.0891248" lon="13.5242435"><ele>522.6</ele><time>2026-05-03T12:19:06.934Z</time></trkpt><trkpt lat="46.0890661" lon="13.5241465"><ele>527.1999999999999</ele><time>2026-05-03T12:19:07.935Z</time></trkpt><trkpt lat="46.0889969" lon="13.5240424"><ele>531.8</ele><time>2026-05-03T12:19:08.949Z</time></trkpt><trkpt lat="46.0889329" lon="13.5239394"><ele>536.4</ele><time>2026-05-03T12:19:09.931Z</time></trkpt><trkpt lat="46.0888783" lon="13.5238224"><ele>541.0</ele><time>2026-05-03T12:19:10.936Z</time></trkpt><trkpt lat="46.0888364" lon="13.5236913"><ele>541.0</ele><time>2026-05-03T12:19:11.933Z</time></trkpt><trkpt lat="46.0888002" lon="13.5235471"><ele>541.0</ele><time>2026-05-03T12:19:12.95Z</time></trkpt><trkpt lat="46.0887731" lon="13.523403"><ele>541.0</ele><time>2026-05-03T12:19:13.931Z</time></trkpt><trkpt lat="46.088747" lon="13.5232533"><ele>541.0</ele><time>2026-05-03T12:19:14.929Z</time></trkpt><trkpt lat="46.0887281" lon="13.523111"><ele>541.0</ele><time>2026-05-03T12:19:15.936Z</time></trkpt><trkpt lat="46.0887107" lon="13.5229738"><ele>542.0</ele><time>2026-05-03T12:19:16.926Z</time></trkpt><trkpt lat="46.0886945" lon="13.5228459"><ele>543.0</ele><time>2026-05-03T12:19:17.939Z</time></trkpt><trkpt lat="46.0886801" lon="13.5227241"><ele>544.0</ele><time>2026-05-03T12:19:18.944Z</time></trkpt><trkpt lat="46.0886726" lon="13.5226047"><ele>545.0</ele><time>2026-05-03T12:19:19.935Z</time></trkpt><trkpt lat="46.0886792" lon="13.5224764"><ele>546.0</ele><time>2026-05-03T12:19:20.934Z</time></trkpt><trkpt lat="46.0886829" lon="13.5223515"><ele>547.0</ele><time>2026-05-03T12:19:21.939Z</time></trkpt><trkpt lat="46.088677" lon="13.522229"><ele>547.0</ele><time>2026-05-03T12:19:22.95Z</time></trkpt><trkpt lat="46.0886667" lon="13.5221043"><ele>547.0</ele><time>2026-05-03T12:19:23.937Z</time></trkpt><trkpt lat="46.0886455" lon="13.5219766"><ele>547.0</ele><time>2026-05-03T12:19:24.933Z</time></trkpt><trkpt lat="46.0886118" lon="13.5218476"><ele>547.0</ele><time>2026-05-03T12:19:25.946Z</time></trkpt><trkpt lat="46.0885778" lon="13.5217142"><ele>547.0</ele><time>2026-05-03T12:19:26.934Z</time></trkpt><trkpt lat="46.0885537" lon="13.52159"><ele>547.0</ele><time>2026-05-03T12:19:27.933Z</time></trkpt><trkpt lat="46.0885315" lon="13.5214723"><ele>547.0</ele><time>2026-05-03T12:19:28.937Z</time></trkpt><trkpt lat="46.0885221" lon="13.5213646"><ele>547.0</ele><time>2026-05-03T12:19:29.942Z</time></trkpt><trkpt lat="46.0885203" lon="13.5212503"><ele>547.0</ele><time>2026-05-03T12:19:30.941Z</time></trkpt><trkpt lat="46.0885095" lon="13.5211377"><ele>547.0</ele><time>2026-05-03T12:19:31.93Z</time></trkpt><trkpt lat="46.0884979" lon="13.5210286"><ele>547.0</ele><time>2026-05-03T12:19:32.932Z</time></trkpt><trkpt lat="46.0884917" lon="13.5209255"><ele>547.0</ele><time>2026-05-03T12:19:33.941Z</time></trkpt><trkpt lat="46.0884922" lon="13.520826"><ele>547.0</ele><time>2026-05-03T12:19:34.935Z</time></trkpt><trkpt lat="46.0884854" lon="13.5207028"><ele>547.0</ele><time>2026-05-03T12:19:35.94Z</time></trkpt><trkpt lat="46.0884866" lon="13.520562"><ele>547.0</ele><time>2026-05-03T12:19:36.939Z</time></trkpt><trkpt lat="46.088498" lon="13.5204233"><ele>547.0</ele><time>2026-05-03T12:19:37.941Z</time></trkpt><trkpt lat="46.0885053" lon="13.5202886"><ele>547.0</ele><time>2026-05-03T12:19:38.934Z</time></trkpt><trkpt lat="46.0885174" lon="13.5201578"><ele>547.5</ele><time>2026-05-03T12:19:39.931Z</time></trkpt><trkpt lat="46.0885248" lon="13.5200296"><ele>548.0</ele><time>2026-05-03T12:19:40.947Z</time></trkpt><trkpt lat="46.0885348" lon="13.5199146"><ele>548.5</ele><time>2026-05-03T12:19:41.933Z</time></trkpt><trkpt lat="46.0885462" lon="13.5197972"><ele>549.0</ele><time>2026-05-03T12:19:42.936Z</time></trkpt><trkpt lat="46.0885484" lon="13.5196765"><ele>549.5</ele><time>2026-05-03T12:19:43.941Z</time></trkpt><trkpt lat="46.0885549" lon="13.5195641"><ele>550.0</ele><time>2026-05-03T12:19:44.937Z</time></trkpt><trkpt lat="46.088567" lon="13.5194655"><ele>552.8</ele><time>2026-05-03T12:19:45.934Z</time></trkpt><trkpt lat="46.0886094" lon="13.5193363"><ele>555.6</ele><time>2026-05-03T12:19:47.935Z</time></trkpt><trkpt lat="46.0886977" lon="13.5192498"><ele>558.4</ele><time>2026-05-03T12:19:49.933Z</time></trkpt><trkpt lat="46.0888247" lon="13.5192154"><ele>561.2</ele><time>2026-05-03T12:19:51.936Z</time></trkpt><trkpt lat="46.088906" lon="13.5192"><ele>564.0</ele><time>2026-05-03T12:19:52.939Z</time></trkpt><trkpt lat="46.0889936" lon="13.519183"><ele>564.0</ele><time>2026-05-03T12:19:53.928Z</time></trkpt><trkpt lat="46.0890795" lon="13.5191477"><ele>564.0</ele><time>2026-05-03T12:19:54.94Z</time></trkpt><trkpt lat="46.0891597" lon="13.5190947"><ele>564.0</ele><time>2026-05-03T12:19:55.935Z</time></trkpt><trkpt lat="46.0892333" lon="13.5190308"><ele>564.0</ele><time>2026-05-03T12:19:56.93Z</time></trkpt><trkpt lat="46.0893026" lon="13.5189811"><ele>564.0</ele><time>2026-05-03T12:19:57.938Z</time></trkpt><trkpt lat="46.0893735" lon="13.5189517"><ele>564.0</ele><time>2026-05-03T12:19:58.934Z</time></trkpt><trkpt lat="46.0894555" lon="13.5189365"><ele>558.8</ele><time>2026-05-03T12:19:59.933Z</time></trkpt><trkpt lat="46.0895483" lon="13.5189252"><ele>553.5999999999999</ele><time>2026-05-03T12:20:00.93Z</time></trkpt><trkpt lat="46.089661" lon="13.5189096"><ele>548.4</ele><time>2026-05-03T12:20:01.932Z</time></trkpt><trkpt lat="46.0897676" lon="13.5188947"><ele>543.1999999999999</ele><time>2026-05-03T12:20:02.931Z</time></trkpt><trkpt lat="46.0898567" lon="13.5188856"><ele>538.0</ele><time>2026-05-03T12:20:03.935Z</time></trkpt><trkpt lat="46.0899454" lon="13.5188702"><ele>537.5</ele><time>2026-05-03T12:20:04.932Z</time></trkpt><trkpt lat="46.0900187" lon="13.5188526"><ele>537.0</ele><time>2026-05-03T12:20:05.934Z</time></trkpt><trkpt lat="46.0901295" lon="13.5188842"><ele>536.5</ele><time>2026-05-03T12:20:07.937Z</time></trkpt><trkpt lat="46.0901787" lon="13.518954"><ele>536.0</ele><time>2026-05-03T12:20:08.937Z</time></trkpt><trkpt lat="46.0902344" lon="13.5190572"><ele>535.5</ele><time>2026-05-03T12:20:09.94Z</time></trkpt><trkpt lat="46.0902729" lon="13.5191402"><ele>535.0</ele><time>2026-05-03T12:20:10.938Z</time></trkpt><trkpt lat="46.0903727" lon="13.5191561"><ele>535.0</ele><time>2026-05-03T12:20:12.93Z</time></trkpt><trkpt lat="46.0904424" lon="13.519101"><ele>535.0</ele><time>2026-05-03T12:20:13.941Z</time></trkpt><trkpt lat="46.0905184" lon="13.5189976"><ele>535.0</ele><time>2026-05-03T12:20:14.939Z</time></trkpt><trkpt lat="46.090598" lon="13.5188768"><ele>535.0</ele><time>2026-05-03T12:20:15.93Z</time></trkpt><trkpt lat="46.0906635" lon="13.5187592"><ele>535.0</ele><time>2026-05-03T12:20:16.948Z</time></trkpt><trkpt lat="46.090729" lon="13.518664"><ele>540.0</ele><time>2026-05-03T12:20:17.928Z</time></trkpt><trkpt lat="46.0908031" lon="13.5185862"><ele>545.0</ele><time>2026-05-03T12:20:18.934Z</time></trkpt><trkpt lat="46.090889" lon="13.5185148"><ele>550.0</ele><time>2026-05-03T12:20:19.939Z</time></trkpt><trkpt lat="46.0909833" lon="13.5184426"><ele>555.0</ele><time>2026-05-03T12:20:20.936Z</time></trkpt><trkpt lat="46.0910847" lon="13.518369"><ele>560.0</ele><time>2026-05-03T12:20:21.932Z</time></trkpt><trkpt lat="46.0911834" lon="13.5182833"><ele>560.0</ele><time>2026-05-03T12:20:22.936Z</time></trkpt><trkpt lat="46.091276" lon="13.5181963"><ele>560.0</ele><time>2026-05-03T12:20:23.934Z</time></trkpt><trkpt lat="46.0913626" lon="13.5181053"><ele>560.0</ele><time>2026-05-03T12:20:24.939Z</time></trkpt><trkpt lat="46.091457" lon="13.518014"><ele>560.0</ele><time>2026-05-03T12:20:25.937Z</time></trkpt><trkpt lat="46.0915418" lon="13.517936"><ele>560.0</ele><time>2026-05-03T12:20:26.934Z</time></trkpt><trkpt lat="46.0916277" lon="13.5178579"><ele>564.0</ele><time>2026-05-03T12:20:27.945Z</time></trkpt><trkpt lat="46.0917247" lon="13.5177579"><ele>568.0</ele><time>2026-05-03T12:20:28.94Z</time></trkpt><trkpt lat="46.0918303" lon="13.5176495"><ele>572.0</ele><time>2026-05-03T12:20:29.933Z</time></trkpt><trkpt lat="46.0919457" lon="13.5175268"><ele>576.0</ele><time>2026-05-03T12:20:30.933Z</time></trkpt><trkpt lat="46.0920569" lon="13.5174127"><ele>576.0</ele><time>2026-05-03T12:20:31.947Z</time></trkpt><trkpt lat="46.0921691" lon="13.5173199"><ele>576.0</ele><time>2026-05-03T12:20:32.936Z</time></trkpt><trkpt lat="46.092273" lon="13.5172358"><ele>576.0</ele><time>2026-05-03T12:20:33.939Z</time></trkpt><trkpt lat="46.0923626" lon="13.5171506"><ele>576.0</ele><time>2026-05-03T12:20:34.937Z</time></trkpt><trkpt lat="46.0924393" lon="13.5170723"><ele>575.4</ele><time>2026-05-03T12:20:35.937Z</time></trkpt><trkpt lat="46.0924966" lon="13.5169867"><ele>574.8</ele><time>2026-05-03T12:20:36.936Z</time></trkpt><trkpt lat="46.0925433" lon="13.5169095"><ele>574.1999999999999</ele><time>2026-05-03T12:20:37.935Z</time></trkpt><trkpt lat="46.0926229" lon="13.516829"><ele>573.6</ele><time>2026-05-03T12:20:39.937Z</time></trkpt><trkpt lat="46.0926547" lon="13.516999"><ele>573.0</ele><time>2026-05-03T12:20:42.933Z</time></trkpt><trkpt lat="46.0926523" lon="13.5171149"><ele>573.0</ele><time>2026-05-03T12:20:43.943Z</time></trkpt><trkpt lat="46.0926523" lon="13.5172407"><ele>573.0</ele><time>2026-05-03T12:20:44.933Z</time></trkpt><trkpt lat="46.0926559" lon="13.5173757"><ele>573.0</ele><time>2026-05-03T12:20:45.939Z</time></trkpt><trkpt lat="46.0926677" lon="13.5175199"><ele>573.0</ele><time>2026-05-03T12:20:46.939Z</time></trkpt><trkpt lat="46.0926863" lon="13.5176678"><ele>573.0</ele><time>2026-05-03T12:20:47.939Z</time></trkpt><trkpt lat="46.0927122" lon="13.5178299"><ele>571.5</ele><time>2026-05-03T12:20:48.938Z</time></trkpt><trkpt lat="46.0927413" lon="13.5180033"><ele>570.0</ele><time>2026-05-03T12:20:49.932Z</time></trkpt><trkpt lat="46.0927675" lon="13.5181781"><ele>568.5</ele><time>2026-05-03T12:20:50.94Z</time></trkpt><trkpt lat="46.0927945" lon="13.5183503"><ele>567.0</ele><time>2026-05-03T12:20:51.939Z</time></trkpt><trkpt lat="46.0928166" lon="13.5185211"><ele>567.0</ele><time>2026-05-03T12:20:52.928Z</time></trkpt><trkpt lat="46.092836" lon="13.5186889"><ele>567.0</ele><time>2026-05-03T12:20:53.936Z</time></trkpt><trkpt lat="46.0928561" lon="13.5188572"><ele>567.0</ele><time>2026-05-03T12:20:54.939Z</time></trkpt><trkpt lat="46.0928803" lon="13.5190229"><ele>567.0</ele><time>2026-05-03T12:20:55.933Z</time></trkpt><trkpt lat="46.0929155" lon="13.5191834"><ele>565.6</ele><time>2026-05-03T12:20:56.931Z</time></trkpt><trkpt lat="46.0929643" lon="13.5193158"><ele>564.2</ele><time>2026-05-03T12:20:57.941Z</time></trkpt><trkpt lat="46.0930324" lon="13.5194213"><ele>562.8</ele><time>2026-05-03T12:20:58.935Z</time></trkpt><trkpt lat="46.0931186" lon="13.519496"><ele>561.4</ele><time>2026-05-03T12:20:59.933Z</time></trkpt><trkpt lat="46.0932193" lon="13.5195634"><ele>560.0</ele><time>2026-05-03T12:21:00.934Z</time></trkpt><trkpt lat="46.0933234" lon="13.5196208"><ele>564.2</ele><time>2026-05-03T12:21:01.94Z</time></trkpt><trkpt lat="46.0934156" lon="13.5196596"><ele>568.4</ele><time>2026-05-03T12:21:02.931Z</time></trkpt><trkpt lat="46.0935045" lon="13.5196624"><ele>572.6</ele><time>2026-05-03T12:21:03.944Z</time></trkpt><trkpt lat="46.0935993" lon="13.519635"><ele>576.8</ele><time>2026-05-03T12:21:04.939Z</time></trkpt><trkpt lat="46.0936897" lon="13.5195986"><ele>581.0</ele><time>2026-05-03T12:21:05.942Z</time></trkpt><trkpt lat="46.0937704" lon="13.5195575"><ele>581.8333333333333</ele><time>2026-05-03T12:21:06.929Z</time></trkpt><trkpt lat="46.09383" lon="13.5195249"><ele>582.6666666666666</ele><time>2026-05-03T12:21:07.944Z</time></trkpt><trkpt lat="46.0939191" lon="13.51946"><ele>583.5</ele><time>2026-05-03T12:21:09.942Z</time></trkpt><trkpt lat="46.0939877" lon="13.5194345"><ele>584.3333333333334</ele><time>2026-05-03T12:21:11.934Z</time></trkpt><trkpt lat="46.0940969" lon="13.519426"><ele>585.1666666666667</ele><time>2026-05-03T12:21:13.93Z</time></trkpt><trkpt lat="46.0941727" lon="13.5194045"><ele>586.0</ele><time>2026-05-03T12:21:15.94Z</time></trkpt><trkpt lat="46.0942326" lon="13.5193688"><ele>586.0</ele><time>2026-05-03T12:21:18.932Z</time></trkpt><trkpt lat="46.0941521" lon="13.5193881"><ele>586.0</ele><time>2026-05-03T12:21:23.933Z</time></trkpt><trkpt lat="46.0940352" lon="13.5194197"><ele>586.0</ele><time>2026-05-03T12:21:25.935Z</time></trkpt><trkpt lat="46.0939637" lon="13.5194185"><ele>586.0</ele><time>2026-05-03T12:21:26.943Z</time></trkpt><trkpt lat="46.0938538" lon="13.5194066"><ele>586.0</ele><time>2026-05-03T12:21:28.93Z</time></trkpt><trkpt lat="46.0937908" lon="13.5193488"><ele>586.2</ele><time>2026-05-03T12:21:31.932Z</time></trkpt><trkpt lat="46.0937288" lon="13.5192572"><ele>586.4000000000001</ele><time>2026-05-03T12:21:34.934Z</time></trkpt><trkpt lat="46.0936738" lon="13.5191465"><ele>586.6</ele><time>2026-05-03T12:21:36.941Z</time></trkpt><trkpt lat="46.0936532" lon="13.5189704"><ele>586.8000000000001</ele><time>2026-05-03T12:21:38.936Z</time></trkpt><trkpt lat="46.0936636" lon="13.5188589"><ele>587.0</ele><time>2026-05-03T12:21:39.932Z</time></trkpt><trkpt lat="46.0936819" lon="13.5187342"><ele>589.2</ele><time>2026-05-03T12:21:40.935Z</time></trkpt><trkpt lat="46.0936989" lon="13.5185992"><ele>591.4000000000001</ele><time>2026-05-03T12:21:41.94Z</time></trkpt><trkpt lat="46.0937124" lon="13.5184592"><ele>593.5999999999999</ele><time>2026-05-03T12:21:42.936Z</time></trkpt><trkpt lat="46.0937228" lon="13.5183194"><ele>595.8</ele><time>2026-05-03T12:21:43.946Z</time></trkpt><trkpt lat="46.0937324" lon="13.5181732"><ele>598.0</ele><time>2026-05-03T12:21:44.939Z</time></trkpt><trkpt lat="46.0937403" lon="13.5180325"><ele>598.0</ele><time>2026-05-03T12:21:45.933Z</time></trkpt><trkpt lat="46.0937515" lon="13.5178986"><ele>598.0</ele><time>2026-05-03T12:21:46.931Z</time></trkpt><trkpt lat="46.0937659" lon="13.5177654"><ele>598.0</ele><time>2026-05-03T12:21:47.935Z</time></trkpt><trkpt lat="46.0937841" lon="13.5176207"><ele>598.0</ele><time>2026-05-03T12:21:48.93Z</time></trkpt><trkpt lat="46.0938144" lon="13.5174645"><ele>598.0</ele><time>2026-05-03T12:21:49.937Z</time></trkpt><trkpt lat="46.0938499" lon="13.5172981"><ele>598.0</ele><time>2026-05-03T12:21:50.936Z</time></trkpt><trkpt lat="46.0938903" lon="13.5171338"><ele>598.0</ele><time>2026-05-03T12:21:51.932Z</time></trkpt><trkpt lat="46.0939307" lon="13.5169813"><ele>598.0</ele><time>2026-05-03T12:21:52.93Z</time></trkpt><trkpt lat="46.0939678" lon="13.5168441"><ele>598.0</ele><time>2026-05-03T12:21:53.933Z</time></trkpt><trkpt lat="46.0939837" lon="13.5167203"><ele>598.0</ele><time>2026-05-03T12:21:54.936Z</time></trkpt><trkpt lat="46.0939671" lon="13.5166156"><ele>592.5</ele><time>2026-05-03T12:21:55.944Z</time></trkpt><trkpt lat="46.0938652" lon="13.516549"><ele>587.0</ele><time>2026-05-03T12:21:57.933Z</time></trkpt><trkpt lat="46.0937599" lon="13.516564"><ele>581.5</ele><time>2026-05-03T12:21:58.934Z</time></trkpt><trkpt lat="46.0936225" lon="13.5165792"><ele>576.0</ele><time>2026-05-03T12:21:59.936Z</time></trkpt><trkpt lat="46.0934743" lon="13.5166011"><ele>576.0</ele><time>2026-05-03T12:22:00.943Z</time></trkpt><trkpt lat="46.0933292" lon="13.5166104"><ele>576.0</ele><time>2026-05-03T12:22:01.931Z</time></trkpt><trkpt lat="46.0931845" lon="13.5166242"><ele>576.0</ele><time>2026-05-03T12:22:02.935Z</time></trkpt><trkpt lat="46.0930452" lon="13.5166335"><ele>576.0</ele><time>2026-05-03T12:22:03.929Z</time></trkpt><trkpt lat="46.0929252" lon="13.5166296"><ele>576.8</ele><time>2026-05-03T12:22:04.93Z</time></trkpt><trkpt lat="46.0928093" lon="13.5166087"><ele>577.6</ele><time>2026-05-03T12:22:05.936Z</time></trkpt><trkpt lat="46.0927143" lon="13.516557"><ele>578.4</ele><time>2026-05-03T12:22:06.942Z</time></trkpt><trkpt lat="46.0926387" lon="13.5164612"><ele>579.2</ele><time>2026-05-03T12:22:07.935Z</time></trkpt><trkpt lat="46.0925936" lon="13.5163099"><ele>580.0</ele><time>2026-05-03T12:22:08.946Z</time></trkpt><trkpt lat="46.0925696" lon="13.5161162"><ele>581.0</ele><time>2026-05-03T12:22:09.933Z</time></trkpt><trkpt lat="46.0925514" lon="13.5158946"><ele>582.0</ele><time>2026-05-03T12:22:10.94Z</time></trkpt><trkpt lat="46.0925482" lon="13.5156647"><ele>583.0</ele><time>2026-05-03T12:22:11.938Z</time></trkpt><trkpt lat="46.0925573" lon="13.5154084"><ele>582.75</ele><time>2026-05-03T12:22:12.934Z</time></trkpt><trkpt lat="46.0925627" lon="13.5151683"><ele>582.5</ele><time>2026-05-03T12:22:13.933Z</time></trkpt><trkpt lat="46.0925667" lon="13.5149617"><ele>582.25</ele><time>2026-05-03T12:22:14.946Z</time></trkpt><trkpt lat="46.0925842" lon="13.5147786"><ele>582.0</ele><time>2026-05-03T12:22:15.942Z</time></trkpt><trkpt lat="46.0925805" lon="13.5146259"><ele>582.25</ele><time>2026-05-03T12:22:16.933Z</time></trkpt><trkpt lat="46.0925825" lon="13.5144621"><ele>582.5</ele><time>2026-05-03T12:22:17.935Z</time></trkpt><trkpt lat="46.0925805" lon="13.5142898"><ele>582.75</ele><time>2026-05-03T12:22:18.933Z</time></trkpt><trkpt lat="46.0925943" lon="13.514098"><ele>583.0</ele><time>2026-05-03T12:22:19.93Z</time></trkpt><trkpt lat="46.0926183" lon="13.5138708"><ele>580.3333333333334</ele><time>2026-05-03T12:22:20.942Z</time></trkpt><trkpt lat="46.0926354" lon="13.5136301"><ele>577.6666666666666</ele><time>2026-05-03T12:22:21.931Z</time></trkpt><trkpt lat="46.092652" lon="13.5134125"><ele>575.0</ele><time>2026-05-03T12:22:22.933Z</time></trkpt><trkpt lat="46.0926676" lon="13.5131762"><ele>575.0</ele><time>2026-05-03T12:22:23.939Z</time></trkpt><trkpt lat="46.0926872" lon="13.5129614"><ele>575.0</ele><time>2026-05-03T12:22:24.942Z</time></trkpt><trkpt lat="46.0926761" lon="13.5127667"><ele>575.0</ele><time>2026-05-03T12:22:25.932Z</time></trkpt><trkpt lat="46.09268" lon="13.5125547"><ele>575.0</ele><time>2026-05-03T12:22:26.934Z</time></trkpt><trkpt lat="46.0927062" lon="13.512347"><ele>573.0</ele><time>2026-05-03T12:22:27.93Z</time></trkpt><trkpt lat="46.0927506" lon="13.5121304"><ele>571.0</ele><time>2026-05-03T12:22:28.947Z</time></trkpt><trkpt lat="46.0928202" lon="13.511929"><ele>569.0</ele><time>2026-05-03T12:22:29.938Z</time></trkpt><trkpt lat="46.092906" lon="13.5117371"><ele>567.3333333333333</ele><time>2026-05-03T12:22:30.93Z</time></trkpt><trkpt lat="46.0929925" lon="13.5115283"><ele>565.6666666666666</ele><time>2026-05-03T12:22:31.933Z</time></trkpt><trkpt lat="46.0930904" lon="13.5113254"><ele>564.0</ele><time>2026-05-03T12:22:32.932Z</time></trkpt><trkpt lat="46.0931809" lon="13.5110908"><ele>562.0</ele><time>2026-05-03T12:22:33.935Z</time></trkpt><trkpt lat="46.0932753" lon="13.5108741"><ele>560.0</ele><time>2026-05-03T12:22:34.931Z</time></trkpt><trkpt lat="46.0933513" lon="13.510652"><ele>558.0</ele><time>2026-05-03T12:22:35.935Z</time></trkpt><trkpt lat="46.0934075" lon="13.5104069"><ele>556.0</ele><time>2026-05-03T12:22:36.941Z</time></trkpt><trkpt lat="46.0934599" lon="13.510172"><ele>554.0</ele><time>2026-05-03T12:22:37.938Z</time></trkpt><trkpt lat="46.0934969" lon="13.5099041"><ele>552.0</ele><time>2026-05-03T12:22:38.944Z</time></trkpt><trkpt lat="46.0935391" lon="13.5096577"><ele>549.0</ele><time>2026-05-03T12:22:39.93Z</time></trkpt><trkpt lat="46.0935525" lon="13.5094098"><ele>546.0</ele><time>2026-05-03T12:22:40.943Z</time></trkpt><trkpt lat="46.0935561" lon="13.5091459"><ele>543.0</ele><time>2026-05-03T12:22:41.931Z</time></trkpt><trkpt lat="46.0935289" lon="13.5088744"><ele>539.3333333333334</ele><time>2026-05-03T12:22:42.934Z</time></trkpt><trkpt lat="46.0935049" lon="13.5086175"><ele>535.6666666666667</ele><time>2026-05-03T12:22:43.934Z</time></trkpt><trkpt lat="46.0934974" lon="13.5083513"><ele>532.0</ele><time>2026-05-03T12:22:44.932Z</time></trkpt><trkpt lat="46.0934941" lon="13.5080976"><ele>529.0</ele><time>2026-05-03T12:22:45.929Z</time></trkpt><trkpt lat="46.0934939" lon="13.5078521"><ele>526.0</ele><time>2026-05-03T12:22:46.93Z</time></trkpt><trkpt lat="46.0934866" lon="13.5075972"><ele>523.0</ele><time>2026-05-03T12:22:47.94Z</time></trkpt><trkpt lat="46.09349" lon="13.5073497"><ele>523.0</ele><time>2026-05-03T12:22:48.936Z</time></trkpt><trkpt lat="46.093506" lon="13.5071034"><ele>523.0</ele><time>2026-05-03T12:22:49.95Z</time></trkpt><trkpt lat="46.0935427" lon="13.5069004"><ele>523.0</ele><time>2026-05-03T12:22:50.932Z</time></trkpt><trkpt lat="46.0935733" lon="13.5067284"><ele>523.0</ele><time>2026-05-03T12:22:51.941Z</time></trkpt><trkpt lat="46.0935525" lon="13.5065741"><ele>521.75</ele><time>2026-05-03T12:22:52.936Z</time></trkpt><trkpt lat="46.0934948" lon="13.5064159"><ele>520.5</ele><time>2026-05-03T12:22:53.939Z</time></trkpt><trkpt lat="46.0934148" lon="13.506277"><ele>519.25</ele><time>2026-05-03T12:22:54.932Z</time></trkpt><trkpt lat="46.0933506" lon="13.5061293"><ele>518.0</ele><time>2026-05-03T12:22:55.934Z</time></trkpt><trkpt lat="46.0932859" lon="13.5060072"><ele>514.0</ele><time>2026-05-03T12:22:56.933Z</time></trkpt><trkpt lat="46.0932253" lon="13.5059245"><ele>510.0</ele><time>2026-05-03T12:22:57.932Z</time></trkpt><trkpt lat="46.0931665" lon="13.5058878"><ele>506.0</ele><time>2026-05-03T12:22:58.944Z</time></trkpt><trkpt lat="46.0930871" lon="13.5059907"><ele>502.0</ele><time>2026-05-03T12:23:00.932Z</time></trkpt><trkpt lat="46.0930824" lon="13.5060936"><ele>497.99999999999994</ele><time>2026-05-03T12:23:01.931Z</time></trkpt><trkpt lat="46.0930973" lon="13.5062081"><ele>494.0</ele><time>2026-05-03T12:23:02.93Z</time></trkpt><trkpt lat="46.0930475" lon="13.50633"><ele>494.0</ele><time>2026-05-03T12:23:04.933Z</time></trkpt><trkpt lat="46.0929855" lon="13.5061907"><ele>494.0</ele><time>2026-05-03T12:23:06.934Z</time></trkpt><trkpt lat="46.09298" lon="13.5060659"><ele>494.0</ele><time>2026-05-03T12:23:07.934Z</time></trkpt><trkpt lat="46.0929774" lon="13.505949"><ele>494.0</ele><time>2026-05-03T12:23:08.939Z</time></trkpt><trkpt lat="46.0929802" lon="13.5058105"><ele>494.0</ele><time>2026-05-03T12:23:09.929Z</time></trkpt><trkpt lat="46.0929922" lon="13.5056532"><ele>494.0</ele><time>2026-05-03T12:23:10.939Z</time></trkpt><trkpt lat="46.0930216" lon="13.50547"><ele>494.0</ele><time>2026-05-03T12:23:11.935Z</time></trkpt><trkpt lat="46.0930772" lon="13.5052985"><ele>494.0</ele><time>2026-05-03T12:23:12.933Z</time></trkpt><trkpt lat="46.0931436" lon="13.5051726"><ele>494.0</ele><time>2026-05-03T12:23:13.937Z</time></trkpt><trkpt lat="46.0931905" lon="13.5050797"><ele>493.6</ele><time>2026-05-03T12:23:14.951Z</time></trkpt><trkpt lat="46.0931574" lon="13.50497"><ele>493.2</ele><time>2026-05-03T12:23:16.928Z</time></trkpt><trkpt lat="46.0930892" lon="13.5049731"><ele>492.80000000000007</ele><time>2026-05-03T12:23:17.947Z</time></trkpt><trkpt lat="46.0929971" lon="13.5050064"><ele>492.40000000000003</ele><time>2026-05-03T12:23:18.941Z</time></trkpt><trkpt lat="46.0928819" lon="13.5050329"><ele>492.0</ele><time>2026-05-03T12:23:19.932Z</time></trkpt><trkpt lat="46.0927439" lon="13.5050515"><ele>492.0</ele><time>2026-05-03T12:23:20.94Z</time></trkpt><trkpt lat="46.0926009" lon="13.5050412"><ele>492.0</ele><time>2026-05-03T12:23:21.939Z</time></trkpt><trkpt lat="46.0924679" lon="13.5049932"><ele>492.0</ele><time>2026-05-03T12:23:22.932Z</time></trkpt><trkpt lat="46.092338" lon="13.504938"><ele>492.0</ele><time>2026-05-03T12:23:23.939Z</time></trkpt><trkpt lat="46.0922307" lon="13.5048786"><ele>488.6</ele><time>2026-05-03T12:23:24.944Z</time></trkpt><trkpt lat="46.0921491" lon="13.5047974"><ele>485.20000000000005</ele><time>2026-05-03T12:23:25.931Z</time></trkpt><trkpt lat="46.0920777" lon="13.5046754"><ele>481.8</ele><time>2026-05-03T12:23:26.931Z</time></trkpt><trkpt lat="46.0920112" lon="13.5045418"><ele>478.4</ele><time>2026-05-03T12:23:27.938Z</time></trkpt><trkpt lat="46.0919517" lon="13.5044212"><ele>475.0</ele><time>2026-05-03T12:23:28.932Z</time></trkpt><trkpt lat="46.0918978" lon="13.5043233"><ele>475.00000000000006</ele><time>2026-05-03T12:23:29.933Z</time></trkpt><trkpt lat="46.0918489" lon="13.5042405"><ele>475.0</ele><time>2026-05-03T12:23:30.933Z</time></trkpt><trkpt lat="46.0918071" lon="13.5041724"><ele>475.0</ele><time>2026-05-03T12:23:31.938Z</time></trkpt><trkpt lat="46.0917441" lon="13.504137"><ele>475.0</ele><time>2026-05-03T12:23:34.931Z</time></trkpt><trkpt lat="46.0918131" lon="13.5042685"><ele>475.00000000000006</ele><time>2026-05-03T12:23:39.945Z</time></trkpt><trkpt lat="46.0918652" lon="13.504335"><ele>475.0</ele><time>2026-05-03T12:23:40.933Z</time></trkpt><trkpt lat="46.09193" lon="13.5044382"><ele>475.0</ele><time>2026-05-03T12:23:41.931Z</time></trkpt><trkpt lat="46.0920016" lon="13.504561"><ele>475.0</ele><time>2026-05-03T12:23:42.94Z</time></trkpt><trkpt lat="46.0920784" lon="13.5046887"><ele>475.0</ele><time>2026-05-03T12:23:43.933Z</time></trkpt><trkpt lat="46.0921554" lon="13.5047957"><ele>475.0</ele><time>2026-05-03T12:23:44.941Z</time></trkpt><trkpt lat="46.092237" lon="13.5048794"><ele>475.0</ele><time>2026-05-03T12:23:45.934Z</time></trkpt><trkpt lat="46.0923216" lon="13.5049328"><ele>474.50000000000006</ele><time>2026-05-03T12:23:46.936Z</time></trkpt><trkpt lat="46.0924079" lon="13.50496"><ele>474.0</ele><time>2026-05-03T12:23:47.939Z</time></trkpt><trkpt lat="46.092481" lon="13.5049783"><ele>473.5</ele><time>2026-05-03T12:23:48.939Z</time></trkpt><trkpt lat="46.0925528" lon="13.5049966"><ele>473.0</ele><time>2026-05-03T12:23:49.942Z</time></trkpt><trkpt lat="46.0926342" lon="13.5049391"><ele>472.50000000000006</ele><time>2026-05-03T12:23:51.953Z</time></trkpt><trkpt lat="46.0926728" lon="13.5048548"><ele>472.0</ele><time>2026-05-03T12:23:53.93Z</time></trkpt><trkpt lat="46.0927746" lon="13.504802"><ele>475.33333333333337</ele><time>2026-05-03T12:23:55.938Z</time></trkpt><trkpt lat="46.0928464" lon="13.5047925"><ele>478.6666666666667</ele><time>2026-05-03T12:23:56.939Z</time></trkpt><trkpt lat="46.0929316" lon="13.5047851"><ele>482.0</ele><time>2026-05-03T12:23:57.928Z</time></trkpt><trkpt lat="46.0930164" lon="13.5047807"><ele>485.33333333333337</ele><time>2026-05-03T12:23:58.933Z</time></trkpt><trkpt lat="46.0931014" lon="13.5047787"><ele>488.6666666666667</ele><time>2026-05-03T12:23:59.929Z</time></trkpt><trkpt lat="46.0931825" lon="13.5047739"><ele>492.0</ele><time>2026-05-03T12:24:00.931Z</time></trkpt><trkpt lat="46.0932536" lon="13.5047711"><ele>492.8333333333333</ele><time>2026-05-03T12:24:01.93Z</time></trkpt><trkpt lat="46.0933174" lon="13.5047781"><ele>493.66666666666663</ele><time>2026-05-03T12:24:02.934Z</time></trkpt><trkpt lat="46.0933816" lon="13.5048097"><ele>494.5</ele><time>2026-05-03T12:24:03.933Z</time></trkpt><trkpt lat="46.0934568" lon="13.5048566"><ele>495.3333333333333</ele><time>2026-05-03T12:24:04.934Z</time></trkpt><trkpt lat="46.093541" lon="13.5049281"><ele>496.16666666666663</ele><time>2026-05-03T12:24:05.933Z</time></trkpt><trkpt lat="46.0936458" lon="13.5050251"><ele>497.0</ele><time>2026-05-03T12:24:06.942Z</time></trkpt><trkpt lat="46.0937552" lon="13.5051316"><ele>497.0</ele><time>2026-05-03T12:24:07.929Z</time></trkpt><trkpt lat="46.0938662" lon="13.5052344"><ele>497.0</ele><time>2026-05-03T12:24:08.93Z</time></trkpt><trkpt lat="46.0939761" lon="13.5053323"><ele>497.0</ele><time>2026-05-03T12:24:09.933Z</time></trkpt><trkpt lat="46.0940874" lon="13.5054237"><ele>497.0</ele><time>2026-05-03T12:24:10.935Z</time></trkpt><trkpt lat="46.0941944" lon="13.5055064"><ele>496.99999999999994</ele><time>2026-05-03T12:24:11.939Z</time></trkpt><trkpt lat="46.0943023" lon="13.5055705"><ele>497.0</ele><time>2026-05-03T12:24:12.933Z</time></trkpt><trkpt lat="46.0943973" lon="13.5056246"><ele>497.0</ele><time>2026-05-03T12:24:13.935Z</time></trkpt><trkpt lat="46.0944798" lon="13.5056576"><ele>497.0</ele><time>2026-05-03T12:24:14.939Z</time></trkpt><trkpt lat="46.0945564" lon="13.5056685"><ele>496.99999999999994</ele><time>2026-05-03T12:24:15.936Z</time></trkpt><trkpt lat="46.0946235" lon="13.5056533"><ele>497.0</ele><time>2026-05-03T12:24:16.924Z</time></trkpt><trkpt lat="46.0946892" lon="13.5056006"><ele>496.99999999999994</ele><time>2026-05-03T12:24:17.931Z</time></trkpt><trkpt lat="46.0947617" lon="13.5055259"><ele>497.0</ele><time>2026-05-03T12:24:18.941Z</time></trkpt><trkpt lat="46.0948289" lon="13.5054386"><ele>497.0</ele><time>2026-05-03T12:24:19.93Z</time></trkpt><trkpt lat="46.0948897" lon="13.5053546"><ele>497.0</ele><time>2026-05-03T12:24:20.932Z</time></trkpt><trkpt lat="46.0949505" lon="13.5052888"><ele>496.99999999999994</ele><time>2026-05-03T12:24:21.926Z</time></trkpt><trkpt lat="46.0950099" lon="13.5052387"><ele>497.0</ele><time>2026-05-03T12:24:22.929Z</time></trkpt><trkpt lat="46.0951388" lon="13.5052193"><ele>492.16666666666663</ele><time>2026-05-03T12:24:24.933Z</time></trkpt><trkpt lat="46.0952164" lon="13.5052272"><ele>487.3333333333333</ele><time>2026-05-03T12:24:25.934Z</time></trkpt><trkpt lat="46.0953031" lon="13.5052295"><ele>482.5</ele><time>2026-05-03T12:24:26.933Z</time></trkpt><trkpt lat="46.0953912" lon="13.505219"><ele>477.66666666666663</ele><time>2026-05-03T12:24:27.93Z</time></trkpt><trkpt lat="46.095478" lon="13.5051989"><ele>472.8333333333333</ele><time>2026-05-03T12:24:28.943Z</time></trkpt><trkpt lat="46.0955546" lon="13.5051521"><ele>468.0</ele><time>2026-05-03T12:24:29.936Z</time></trkpt><trkpt lat="46.0956338" lon="13.5050611"><ele>468.0</ele><time>2026-05-03T12:24:30.943Z</time></trkpt><trkpt lat="46.0957077" lon="13.5049353"><ele>467.99999999999994</ele><time>2026-05-03T12:24:31.938Z</time></trkpt><trkpt lat="46.0957686" lon="13.5048181"><ele>467.99999999999994</ele><time>2026-05-03T12:24:32.933Z</time></trkpt><trkpt lat="46.0958291" lon="13.5047042"><ele>468.0</ele><time>2026-05-03T12:24:33.927Z</time></trkpt><trkpt lat="46.0958984" lon="13.5045967"><ele>468.0</ele><time>2026-05-03T12:24:34.934Z</time></trkpt><trkpt lat="46.0959686" lon="13.5044924"><ele>465.2</ele><time>2026-05-03T12:24:35.93Z</time></trkpt><trkpt lat="46.0960473" lon="13.5043927"><ele>462.4</ele><time>2026-05-03T12:24:36.951Z</time></trkpt><trkpt lat="46.0961257" lon="13.5042992"><ele>459.59999999999997</ele><time>2026-05-03T12:24:37.941Z</time></trkpt><trkpt lat="46.0962111" lon="13.5042136"><ele>456.79999999999995</ele><time>2026-05-03T12:24:38.934Z</time></trkpt><trkpt lat="46.0962973" lon="13.504131"><ele>454.0</ele><time>2026-05-03T12:24:39.931Z</time></trkpt><trkpt lat="46.0963829" lon="13.5040461"><ele>454.0</ele><time>2026-05-03T12:24:40.929Z</time></trkpt><trkpt lat="46.0964723" lon="13.5039569"><ele>454.0</ele><time>2026-05-03T12:24:41.93Z</time></trkpt><trkpt lat="46.0965646" lon="13.5038754"><ele>454.0</ele><time>2026-05-03T12:24:42.939Z</time></trkpt><trkpt lat="46.0966557" lon="13.503789"><ele>454.0</ele><time>2026-05-03T12:24:43.929Z</time></trkpt><trkpt lat="46.0967428" lon="13.5036988"><ele>454.0</ele><time>2026-05-03T12:24:44.927Z</time></trkpt><trkpt lat="46.0968219" lon="13.5036113"><ele>452.5</ele><time>2026-05-03T12:24:45.938Z</time></trkpt><trkpt lat="46.0969101" lon="13.5035229"><ele>451.0</ele><time>2026-05-03T12:24:46.932Z</time></trkpt><trkpt lat="46.0970087" lon="13.503451"><ele>449.5</ele><time>2026-05-03T12:24:47.933Z</time></trkpt><trkpt lat="46.0971158" lon="13.5033869"><ele>448.0</ele><time>2026-05-03T12:24:48.936Z</time></trkpt><trkpt lat="46.0972272" lon="13.5033265"><ele>448.0</ele><time>2026-05-03T12:24:49.93Z</time></trkpt><trkpt lat="46.0973459" lon="13.5032708"><ele>448.0</ele><time>2026-05-03T12:24:50.937Z</time></trkpt><trkpt lat="46.0974697" lon="13.5032147"><ele>448.0</ele><time>2026-05-03T12:24:51.933Z</time></trkpt><trkpt lat="46.0975948" lon="13.5031571"><ele>448.0</ele><time>2026-05-03T12:24:52.927Z</time></trkpt><trkpt lat="46.0977191" lon="13.5030977"><ele>446.75</ele><time>2026-05-03T12:24:53.939Z</time></trkpt><trkpt lat="46.0978383" lon="13.5030373"><ele>445.5</ele><time>2026-05-03T12:24:54.932Z</time></trkpt><trkpt lat="46.0979569" lon="13.5029777"><ele>444.25</ele><time>2026-05-03T12:24:55.935Z</time></trkpt><trkpt lat="46.0980669" lon="13.5029163"><ele>443.0</ele><time>2026-05-03T12:24:56.943Z</time></trkpt><trkpt lat="46.0981728" lon="13.5028568"><ele>441.2</ele><time>2026-05-03T12:24:57.942Z</time></trkpt><trkpt lat="46.0982717" lon="13.5028005"><ele>439.4</ele><time>2026-05-03T12:24:58.932Z</time></trkpt><trkpt lat="46.0983654" lon="13.5027344"><ele>437.59999999999997</ele><time>2026-05-03T12:24:59.939Z</time></trkpt><trkpt lat="46.0984541" lon="13.5026655"><ele>435.79999999999995</ele><time>2026-05-03T12:25:00.928Z</time></trkpt><trkpt lat="46.0985401" lon="13.5025715"><ele>434.0</ele><time>2026-05-03T12:25:01.939Z</time></trkpt><trkpt lat="46.098628" lon="13.5024489"><ele>434.0</ele><time>2026-05-03T12:25:02.934Z</time></trkpt><trkpt lat="46.0987204" lon="13.5022979"><ele>434.0</ele><time>2026-05-03T12:25:03.928Z</time></trkpt><trkpt lat="46.0988127" lon="13.5021341"><ele>434.0</ele><time>2026-05-03T12:25:04.938Z</time></trkpt><trkpt lat="46.0988822" lon="13.5019866"><ele>434.0</ele><time>2026-05-03T12:25:05.945Z</time></trkpt><trkpt lat="46.0989515" lon="13.5018228"><ele>432.6</ele><time>2026-05-03T12:25:06.931Z</time></trkpt><trkpt lat="46.099026" lon="13.5016863"><ele>431.2</ele><time>2026-05-03T12:25:07.934Z</time></trkpt><trkpt lat="46.0991018" lon="13.5015814"><ele>429.80000000000007</ele><time>2026-05-03T12:25:08.936Z</time></trkpt><trkpt lat="46.0991851" lon="13.5014776"><ele>428.40000000000003</ele><time>2026-05-03T12:25:09.93Z</time></trkpt><trkpt lat="46.0992581" lon="13.5013516"><ele>427.0</ele><time>2026-05-03T12:25:10.933Z</time></trkpt><trkpt lat="46.0993147" lon="13.5012107"><ele>425.25</ele><time>2026-05-03T12:25:11.945Z</time></trkpt><trkpt lat="46.0993652" lon="13.5010349"><ele>423.5</ele><time>2026-05-03T12:25:12.935Z</time></trkpt><trkpt lat="46.0994117" lon="13.5008313"><ele>421.75</ele><time>2026-05-03T12:25:13.936Z</time></trkpt><trkpt lat="46.0994519" lon="13.5006104"><ele>420.0</ele><time>2026-05-03T12:25:14.932Z</time></trkpt><trkpt lat="46.0994887" lon="13.5003749"><ele>418.25</ele><time>2026-05-03T12:25:15.94Z</time></trkpt><trkpt lat="46.0995095" lon="13.5001591"><ele>416.5</ele><time>2026-05-03T12:25:16.933Z</time></trkpt><trkpt lat="46.0995358" lon="13.4999723"><ele>414.75</ele><time>2026-05-03T12:25:17.928Z</time></trkpt><trkpt lat="46.0995374" lon="13.4997821"><ele>413.0</ele><time>2026-05-03T12:25:18.928Z</time></trkpt><trkpt lat="46.0995485" lon="13.4996101"><ele>411.25</ele><time>2026-05-03T12:25:19.929Z</time></trkpt><trkpt lat="46.0995771" lon="13.4994456"><ele>409.5</ele><time>2026-05-03T12:25:20.937Z</time></trkpt><trkpt lat="46.0996135" lon="13.4992971"><ele>407.75</ele><time>2026-05-03T12:25:21.936Z</time></trkpt><trkpt lat="46.0996646" lon="13.4991212"><ele>406.0</ele><time>2026-05-03T12:25:22.947Z</time></trkpt><trkpt lat="46.0997412" lon="13.4989236"><ele>401.6666666666667</ele><time>2026-05-03T12:25:23.934Z</time></trkpt><trkpt lat="46.0998253" lon="13.4987285"><ele>397.33333333333337</ele><time>2026-05-03T12:25:24.932Z</time></trkpt><trkpt lat="46.0998944" lon="13.4985401"><ele>393.0</ele><time>2026-05-03T12:25:25.936Z</time></trkpt><trkpt lat="46.099959" lon="13.4983502"><ele>400.66666666666663</ele><time>2026-05-03T12:25:26.934Z</time></trkpt><trkpt lat="46.1000328" lon="13.4981619"><ele>408.3333333333333</ele><time>2026-05-03T12:25:27.929Z</time></trkpt><trkpt lat="46.1000957" lon="13.497961"><ele>416.0</ele><time>2026-05-03T12:25:28.937Z</time></trkpt><trkpt lat="46.1001524" lon="13.4977641"><ele>416.0</ele><time>2026-05-03T12:25:29.929Z</time></trkpt><trkpt lat="46.1002061" lon="13.4975712"><ele>416.0</ele><time>2026-05-03T12:25:30.93Z</time></trkpt><trkpt lat="46.1002609" lon="13.4973713"><ele>416.0</ele><time>2026-05-03T12:25:31.932Z</time></trkpt><trkpt lat="46.1003134" lon="13.497159"><ele>416.0</ele><time>2026-05-03T12:25:32.931Z</time></trkpt><trkpt lat="46.1003481" lon="13.4969651"><ele>414.0</ele><time>2026-05-03T12:25:33.938Z</time></trkpt><trkpt lat="46.1003845" lon="13.496785"><ele>412.0</ele><time>2026-05-03T12:25:34.934Z</time></trkpt><trkpt lat="46.1004167" lon="13.4966148"><ele>410.0</ele><time>2026-05-03T12:25:35.937Z</time></trkpt><trkpt lat="46.1004495" lon="13.4964376"><ele>408.0</ele><time>2026-05-03T12:25:36.937Z</time></trkpt><trkpt lat="46.10048" lon="13.4962464"><ele>404.75</ele><time>2026-05-03T12:25:37.931Z</time></trkpt><trkpt lat="46.1005065" lon="13.4960654"><ele>401.5</ele><time>2026-05-03T12:25:38.93Z</time></trkpt><trkpt lat="46.1005415" lon="13.4958945"><ele>398.25</ele><time>2026-05-03T12:25:39.93Z</time></trkpt><trkpt lat="46.1005922" lon="13.495726"><ele>395.0</ele><time>2026-05-03T12:25:40.942Z</time></trkpt><trkpt lat="46.1006617" lon="13.495564"><ele>392.25</ele><time>2026-05-03T12:25:41.931Z</time></trkpt><trkpt lat="46.1007317" lon="13.4954066"><ele>389.5</ele><time>2026-05-03T12:25:42.937Z</time></trkpt><trkpt lat="46.1008055" lon="13.4952337"><ele>386.75</ele><time>2026-05-03T12:25:43.932Z</time></trkpt><trkpt lat="46.1008885" lon="13.4950627"><ele>384.0</ele><time>2026-05-03T12:25:44.944Z</time></trkpt><trkpt lat="46.1009768" lon="13.4948809"><ele>390.0</ele><time>2026-05-03T12:25:45.932Z</time></trkpt><trkpt lat="46.1010721" lon="13.4947079"><ele>396.0</ele><time>2026-05-03T12:25:46.937Z</time></trkpt><trkpt lat="46.1011657" lon="13.4945193"><ele>402.0</ele><time>2026-05-03T12:25:47.924Z</time></trkpt><trkpt lat="46.1012561" lon="13.4943355"><ele>402.0</ele><time>2026-05-03T12:25:48.934Z</time></trkpt><trkpt lat="46.1013363" lon="13.4941534"><ele>402.0</ele><time>2026-05-03T12:25:49.934Z</time></trkpt><trkpt lat="46.1014237" lon="13.4939806"><ele>402.0</ele><time>2026-05-03T12:25:50.928Z</time></trkpt><trkpt lat="46.101507" lon="13.4938279"><ele>402.0</ele><time>2026-05-03T12:25:51.93Z</time></trkpt><trkpt lat="46.101589" lon="13.4936978"><ele>402.0</ele><time>2026-05-03T12:25:52.941Z</time></trkpt><trkpt lat="46.101651" lon="13.4935838"><ele>402.0</ele><time>2026-05-03T12:25:53.93Z</time></trkpt><trkpt lat="46.1017297" lon="13.4934809"><ele>402.0</ele><time>2026-05-03T12:25:54.939Z</time></trkpt><trkpt lat="46.1018209" lon="13.4933866"><ele>402.0</ele><time>2026-05-03T12:25:55.935Z</time></trkpt><trkpt lat="46.1019085" lon="13.4933114"><ele>402.0</ele><time>2026-05-03T12:25:56.932Z</time></trkpt><trkpt lat="46.1019829" lon="13.4932191"><ele>402.0</ele><time>2026-05-03T12:25:57.929Z</time></trkpt><trkpt lat="46.1020472" lon="13.4930627"><ele>402.0</ele><time>2026-05-03T12:25:58.936Z</time></trkpt><trkpt lat="46.1021148" lon="13.4928894"><ele>402.0</ele><time>2026-05-03T12:25:59.936Z</time></trkpt><trkpt lat="46.1021865" lon="13.492702"><ele>402.0</ele><time>2026-05-03T12:26:00.935Z</time></trkpt><trkpt lat="46.1022557" lon="13.4925299"><ele>402.5</ele><time>2026-05-03T12:26:01.939Z</time></trkpt><trkpt lat="46.1023159" lon="13.4923537"><ele>403.0</ele><time>2026-05-03T12:26:02.932Z</time></trkpt><trkpt lat="46.1023819" lon="13.4921863"><ele>403.5</ele><time>2026-05-03T12:26:03.929Z</time></trkpt><trkpt lat="46.1024526" lon="13.4919983"><ele>404.0</ele><time>2026-05-03T12:26:04.93Z</time></trkpt><trkpt lat="46.1025143" lon="13.4918206"><ele>404.0</ele><time>2026-05-03T12:26:05.933Z</time></trkpt><trkpt lat="46.1025833" lon="13.4916678"><ele>404.0</ele><time>2026-05-03T12:26:06.943Z</time></trkpt><trkpt lat="46.1026275" lon="13.4915238"><ele>404.0</ele><time>2026-05-03T12:26:07.934Z</time></trkpt><trkpt lat="46.1026646" lon="13.4913892"><ele>404.0</ele><time>2026-05-03T12:26:08.93Z</time></trkpt><trkpt lat="46.1027056" lon="13.4912416"><ele>404.0</ele><time>2026-05-03T12:26:09.931Z</time></trkpt><trkpt lat="46.1027416" lon="13.4911121"><ele>402.49999999999994</ele><time>2026-05-03T12:26:10.926Z</time></trkpt><trkpt lat="46.1027858" lon="13.4910258"><ele>401.0</ele><time>2026-05-03T12:26:11.944Z</time></trkpt><trkpt lat="46.1028475" lon="13.4909647"><ele>399.5</ele><time>2026-05-03T12:26:12.941Z</time></trkpt><trkpt lat="46.1029089" lon="13.4909285"><ele>398.0</ele><time>2026-05-03T12:26:13.938Z</time></trkpt><trkpt lat="46.1030256" lon="13.490939"><ele>396.49999999999994</ele><time>2026-05-03T12:26:15.934Z</time></trkpt><trkpt lat="46.1030963" lon="13.490888"><ele>395.0</ele><time>2026-05-03T12:26:17.934Z</time></trkpt><trkpt lat="46.1030536" lon="13.490804"><ele>395.0</ele><time>2026-05-03T12:26:19.932Z</time></trkpt><trkpt lat="46.1029576" lon="13.490659"><ele>395.0</ele><time>2026-05-03T12:26:21.941Z</time></trkpt><trkpt lat="46.1028979" lon="13.4905654"><ele>395.0</ele><time>2026-05-03T12:26:22.931Z</time></trkpt><trkpt lat="46.1028351" lon="13.4904652"><ele>395.0</ele><time>2026-05-03T12:26:23.929Z</time></trkpt><trkpt lat="46.1027755" lon="13.4903666"><ele>395.0</ele><time>2026-05-03T12:26:24.929Z</time></trkpt><trkpt lat="46.1027229" lon="13.4902803"><ele>391.8</ele><time>2026-05-03T12:26:25.938Z</time></trkpt><trkpt lat="46.1026972" lon="13.4901482"><ele>388.6</ele><time>2026-05-03T12:26:27.938Z</time></trkpt><trkpt lat="46.1027731" lon="13.4900846"><ele>385.4</ele><time>2026-05-03T12:26:29.931Z</time></trkpt><trkpt lat="46.1029057" lon="13.4900726"><ele>382.2</ele><time>2026-05-03T12:26:31.927Z</time></trkpt><trkpt lat="46.1029797" lon="13.490032"><ele>379.0</ele><time>2026-05-03T12:26:32.927Z</time></trkpt><trkpt lat="46.1030525" lon="13.4899544"><ele>379.0</ele><time>2026-05-03T12:26:33.939Z</time></trkpt><trkpt lat="46.103097" lon="13.4898479"><ele>379.0</ele><time>2026-05-03T12:26:34.929Z</time></trkpt><trkpt lat="46.1031145" lon="13.4897385"><ele>379.0</ele><time>2026-05-03T12:26:35.931Z</time></trkpt><trkpt lat="46.1031258" lon="13.4895881"><ele>379.0</ele><time>2026-05-03T12:26:37.932Z</time></trkpt><trkpt lat="46.1031151" lon="13.4894674"><ele>379.0</ele><time>2026-05-03T12:26:40.93Z</time></trkpt><trkpt lat="46.1030841" lon="13.4893517"><ele>379.0</ele><time>2026-05-03T12:26:44.934Z</time></trkpt><trkpt lat="46.103086" lon="13.4892162"><ele>375.2</ele><time>2026-05-03T12:26:50.931Z</time></trkpt><trkpt lat="46.1030797" lon="13.4891157"><ele>371.4</ele><time>2026-05-03T12:26:51.944Z</time></trkpt><trkpt lat="46.1030749" lon="13.4889917"><ele>367.6</ele><time>2026-05-03T12:26:52.942Z</time></trkpt><trkpt lat="46.1030801" lon="13.4888481"><ele>363.8</ele><time>2026-05-03T12:26:53.939Z</time></trkpt><trkpt lat="46.1030674" lon="13.4886861"><ele>360.0</ele><time>2026-05-03T12:26:54.927Z</time></trkpt><trkpt lat="46.103064" lon="13.4885315"><ele>358.4</ele><time>2026-05-03T12:26:55.93Z</time></trkpt><trkpt lat="46.1030774" lon="13.4883917"><ele>356.8</ele><time>2026-05-03T12:26:56.93Z</time></trkpt><trkpt lat="46.1030918" lon="13.4882581"><ele>355.20000000000005</ele><time>2026-05-03T12:26:57.938Z</time></trkpt><trkpt lat="46.1031121" lon="13.4881515"><ele>353.6</ele><time>2026-05-03T12:26:58.938Z</time></trkpt><trkpt lat="46.1031163" lon="13.4879703"><ele>352.0</ele><time>2026-05-03T12:27:00.931Z</time></trkpt><trkpt lat="46.1030919" lon="13.4878724"><ele>351.3333333333333</ele><time>2026-05-03T12:27:01.932Z</time></trkpt><trkpt lat="46.1030603" lon="13.4877681"><ele>350.66666666666663</ele><time>2026-05-03T12:27:02.937Z</time></trkpt><trkpt lat="46.1030304" lon="13.4876577"><ele>350.0</ele><time>2026-05-03T12:27:03.934Z</time></trkpt><trkpt lat="46.1030138" lon="13.4875344"><ele>349.3333333333333</ele><time>2026-05-03T12:27:04.929Z</time></trkpt><trkpt lat="46.1030099" lon="13.4874085"><ele>348.6666666666667</ele><time>2026-05-03T12:27:05.93Z</time></trkpt><trkpt lat="46.1030215" lon="13.4872814"><ele>348.0</ele><time>2026-05-03T12:27:06.932Z</time></trkpt><trkpt lat="46.1030459" lon="13.4871532"><ele>346.2</ele><time>2026-05-03T12:27:07.94Z</time></trkpt><trkpt lat="46.1030809" lon="13.4870238"><ele>344.4</ele><time>2026-05-03T12:27:08.941Z</time></trkpt><trkpt lat="46.1031149" lon="13.4868863"><ele>342.59999999999997</ele><time>2026-05-03T12:27:09.932Z</time></trkpt><trkpt lat="46.1031551" lon="13.4867371"><ele>340.79999999999995</ele><time>2026-05-03T12:27:10.943Z</time></trkpt><trkpt lat="46.103186" lon="13.4865817"><ele>339.0</ele><time>2026-05-03T12:27:11.928Z</time></trkpt><trkpt lat="46.1032127" lon="13.4864352"><ele>339.0</ele><time>2026-05-03T12:27:12.927Z</time></trkpt><trkpt lat="46.1032292" lon="13.4862893"><ele>339.0</ele><time>2026-05-03T12:27:13.932Z</time></trkpt><trkpt lat="46.1032367" lon="13.48614"><ele>339.0</ele><time>2026-05-03T12:27:14.947Z</time></trkpt><trkpt lat="46.1032332" lon="13.4859827"><ele>339.0</ele><time>2026-05-03T12:27:15.927Z</time></trkpt><trkpt lat="46.1032174" lon="13.4858101"><ele>339.0</ele><time>2026-05-03T12:27:16.938Z</time></trkpt><trkpt lat="46.1032016" lon="13.4856378"><ele>336.75</ele><time>2026-05-03T12:27:17.935Z</time></trkpt><trkpt lat="46.1031874" lon="13.4854674"><ele>334.5</ele><time>2026-05-03T12:27:18.932Z</time></trkpt><trkpt lat="46.1031791" lon="13.4852961"><ele>332.25</ele><time>2026-05-03T12:27:19.928Z</time></trkpt><trkpt lat="46.1031738" lon="13.4851299"><ele>330.0</ele><time>2026-05-03T12:27:20.929Z</time></trkpt><trkpt lat="46.1031748" lon="13.4849662"><ele>329.0</ele><time>2026-05-03T12:27:21.937Z</time></trkpt><trkpt lat="46.1031741" lon="13.4848045"><ele>328.0</ele><time>2026-05-03T12:27:22.929Z</time></trkpt><trkpt lat="46.1031817" lon="13.4846449"><ele>327.0</ele><time>2026-05-03T12:27:23.937Z</time></trkpt><trkpt lat="46.1031928" lon="13.4844832"><ele>326.0</ele><time>2026-05-03T12:27:24.932Z</time></trkpt><trkpt lat="46.1032092" lon="13.4843181"><ele>324.5</ele><time>2026-05-03T12:27:25.924Z</time></trkpt><trkpt lat="46.1032331" lon="13.4841592"><ele>323.0</ele><time>2026-05-03T12:27:26.932Z</time></trkpt><trkpt lat="46.103259" lon="13.4839914"><ele>321.5</ele><time>2026-05-03T12:27:27.932Z</time></trkpt><trkpt lat="46.1032863" lon="13.4838189"><ele>320.0</ele><time>2026-05-03T12:27:28.941Z</time></trkpt><trkpt lat="46.1033131" lon="13.4836417"><ele>323.75</ele><time>2026-05-03T12:27:29.931Z</time></trkpt><trkpt lat="46.1033331" lon="13.4834703"><ele>327.5</ele><time>2026-05-03T12:27:30.932Z</time></trkpt><trkpt lat="46.1033549" lon="13.483301"><ele>331.25</ele><time>2026-05-03T12:27:31.928Z</time></trkpt><trkpt lat="46.1033819" lon="13.4831557"><ele>335.0</ele><time>2026-05-03T12:27:32.933Z</time></trkpt><trkpt lat="46.1034204" lon="13.4830127"><ele>332.6666666666667</ele><time>2026-05-03T12:27:33.93Z</time></trkpt><trkpt lat="46.1034682" lon="13.4828851"><ele>330.33333333333337</ele><time>2026-05-03T12:27:34.945Z</time></trkpt><trkpt lat="46.103526" lon="13.4827784"><ele>328.0</ele><time>2026-05-03T12:27:35.929Z</time></trkpt><trkpt lat="46.1035892" lon="13.482699"><ele>325.6666666666667</ele><time>2026-05-03T12:27:36.935Z</time></trkpt><trkpt lat="46.1036608" lon="13.4826533"><ele>323.3333333333333</ele><time>2026-05-03T12:27:37.93Z</time></trkpt><trkpt lat="46.1037368" lon="13.4826403"><ele>321.0</ele><time>2026-05-03T12:27:38.938Z</time></trkpt><trkpt lat="46.1038156" lon="13.4826378"><ele>321.0</ele><time>2026-05-03T12:27:39.93Z</time></trkpt><trkpt lat="46.1038929" lon="13.4826275"><ele>321.0</ele><time>2026-05-03T12:27:40.933Z</time></trkpt><trkpt lat="46.1039559" lon="13.4826077"><ele>321.0</ele><time>2026-05-03T12:27:41.933Z</time></trkpt><trkpt lat="46.1040081" lon="13.4825521"><ele>321.0</ele><time>2026-05-03T12:27:42.938Z</time></trkpt><trkpt lat="46.1040519" lon="13.4824639"><ele>321.0</ele><time>2026-05-03T12:27:43.931Z</time></trkpt><trkpt lat="46.104098" lon="13.4823329"><ele>321.0</ele><time>2026-05-03T12:27:44.94Z</time></trkpt><trkpt lat="46.104148" lon="13.4821809"><ele>320.6</ele><time>2026-05-03T12:27:45.934Z</time></trkpt><trkpt lat="46.1041915" lon="13.4820323"><ele>320.20000000000005</ele><time>2026-05-03T12:27:46.93Z</time></trkpt><trkpt lat="46.1042441" lon="13.481896"><ele>319.79999999999995</ele><time>2026-05-03T12:27:47.93Z</time></trkpt><trkpt lat="46.1042971" lon="13.4817651"><ele>319.4</ele><time>2026-05-03T12:27:48.926Z</time></trkpt><trkpt lat="46.1043596" lon="13.4816439"><ele>319.0</ele><time>2026-05-03T12:27:49.943Z</time></trkpt><trkpt lat="46.104424" lon="13.4815324"><ele>319.0</ele><time>2026-05-03T12:27:50.937Z</time></trkpt><trkpt lat="46.1045019" lon="13.4814384"><ele>319.0</ele><time>2026-05-03T12:27:51.939Z</time></trkpt><trkpt lat="46.1045929" lon="13.4813763"><ele>319.0</ele><time>2026-05-03T12:27:52.929Z</time></trkpt><trkpt lat="46.1046805" lon="13.4813468"><ele>319.0</ele><time>2026-05-03T12:27:53.931Z</time></trkpt><trkpt lat="46.1047658" lon="13.4813435"><ele>319.0</ele><time>2026-05-03T12:27:54.94Z</time></trkpt><trkpt lat="46.10483" lon="13.4813666"><ele>319.0</ele><time>2026-05-03T12:27:55.938Z</time></trkpt><trkpt lat="46.1049051" lon="13.4814061"><ele>320.0</ele><time>2026-05-03T12:27:56.926Z</time></trkpt><trkpt lat="46.1049738" lon="13.4814997"><ele>321.0</ele><time>2026-05-03T12:27:57.931Z</time></trkpt><trkpt lat="46.1050486" lon="13.4816048"><ele>322.0</ele><time>2026-05-03T12:27:58.932Z</time></trkpt><trkpt lat="46.1051283" lon="13.4817118"><ele>323.0</ele><time>2026-05-03T12:27:59.941Z</time></trkpt><trkpt lat="46.1052053" lon="13.4818261"><ele>324.0</ele><time>2026-05-03T12:28:00.939Z</time></trkpt><trkpt lat="46.1052846" lon="13.4819307"><ele>324.0</ele><time>2026-05-03T12:28:01.927Z</time></trkpt><trkpt lat="46.1053696" lon="13.4820084"><ele>324.0</ele><time>2026-05-03T12:28:02.929Z</time></trkpt><trkpt lat="46.1054195" lon="13.4820644"><ele>324.0</ele><time>2026-05-03T12:28:03.935Z</time></trkpt><trkpt lat="46.10551" lon="13.4819954"><ele>324.0</ele><time>2026-05-03T12:28:05.936Z</time></trkpt><trkpt lat="46.1055629" lon="13.4818872"><ele>324.0</ele><time>2026-05-03T12:28:06.934Z</time></trkpt><trkpt lat="46.1056099" lon="13.4817538"><ele>324.0</ele><time>2026-05-03T12:28:07.929Z</time></trkpt><trkpt lat="46.1056677" lon="13.4816217"><ele>324.0</ele><time>2026-05-03T12:28:08.936Z</time></trkpt><trkpt lat="46.1057293" lon="13.4814802"><ele>324.0</ele><time>2026-05-03T12:28:09.942Z</time></trkpt><trkpt lat="46.1058102" lon="13.4813419"><ele>324.0</ele><time>2026-05-03T12:28:10.937Z</time></trkpt><trkpt lat="46.1059012" lon="13.4812074"><ele>317.5</ele><time>2026-05-03T12:28:11.942Z</time></trkpt><trkpt lat="46.1059945" lon="13.4810741"><ele>311.0</ele><time>2026-05-03T12:28:12.948Z</time></trkpt><trkpt lat="46.1060921" lon="13.4809373"><ele>304.5</ele><time>2026-05-03T12:28:13.934Z</time></trkpt><trkpt lat="46.1061932" lon="13.4807962"><ele>298.0</ele><time>2026-05-03T12:28:14.928Z</time></trkpt><trkpt lat="46.1062925" lon="13.4806574"><ele>298.0</ele><time>2026-05-03T12:28:15.935Z</time></trkpt><trkpt lat="46.1063926" lon="13.4805161"><ele>298.0</ele><time>2026-05-03T12:28:16.929Z</time></trkpt><trkpt lat="46.1064973" lon="13.4803896"><ele>298.0</ele><time>2026-05-03T12:28:17.944Z</time></trkpt><trkpt lat="46.1065963" lon="13.4802853"><ele>298.0</ele><time>2026-05-03T12:28:18.932Z</time></trkpt><trkpt lat="46.1066931" lon="13.4802149"><ele>296.0</ele><time>2026-05-03T12:28:19.932Z</time></trkpt><trkpt lat="46.1067969" lon="13.4801547"><ele>294.0</ele><time>2026-05-03T12:28:20.941Z</time></trkpt><trkpt lat="46.106905" lon="13.4800989"><ele>292.0</ele><time>2026-05-03T12:28:21.931Z</time></trkpt><trkpt lat="46.1070004" lon="13.4800497"><ele>290.0</ele><time>2026-05-03T12:28:22.931Z</time></trkpt><trkpt lat="46.1070919" lon="13.4800215"><ele>288.0</ele><time>2026-05-03T12:28:23.944Z</time></trkpt><trkpt lat="46.1071595" lon="13.4800316"><ele>288.0</ele><time>2026-05-03T12:28:24.937Z</time></trkpt><trkpt lat="46.1072677" lon="13.4800334"><ele>288.0</ele><time>2026-05-03T12:28:26.935Z</time></trkpt><trkpt lat="46.1072028" lon="13.4799283"><ele>288.0</ele><time>2026-05-03T12:28:30.932Z</time></trkpt><trkpt lat="46.1071333" lon="13.4799137"><ele>288.0</ele><time>2026-05-03T12:28:31.934Z</time></trkpt><trkpt lat="46.10704" lon="13.4799208"><ele>288.0</ele><time>2026-05-03T12:28:32.928Z</time></trkpt><trkpt lat="46.1069129" lon="13.4799402"><ele>288.0</ele><time>2026-05-03T12:28:33.938Z</time></trkpt><trkpt lat="46.1067671" lon="13.4799641"><ele>288.0</ele><time>2026-05-03T12:28:34.928Z</time></trkpt><trkpt lat="46.1066259" lon="13.4799944"><ele>288.0</ele><time>2026-05-03T12:28:35.928Z</time></trkpt><trkpt lat="46.1064975" lon="13.4800288"><ele>288.0</ele><time>2026-05-03T12:28:36.93Z</time></trkpt><trkpt lat="46.1063916" lon="13.4800792"><ele>290.5</ele><time>2026-05-03T12:28:37.938Z</time></trkpt><trkpt lat="46.1062943" lon="13.4801625"><ele>293.0</ele><time>2026-05-03T12:28:38.929Z</time></trkpt><trkpt lat="46.1061866" lon="13.4802704"><ele>295.5</ele><time>2026-05-03T12:28:39.927Z</time></trkpt><trkpt lat="46.1060656" lon="13.4803851"><ele>298.0</ele><time>2026-05-03T12:28:40.941Z</time></trkpt><trkpt lat="46.1059485" lon="13.4804995"><ele>298.0</ele><time>2026-05-03T12:28:41.933Z</time></trkpt><trkpt lat="46.1058291" lon="13.4806347"><ele>298.0</ele><time>2026-05-03T12:28:42.932Z</time></trkpt><trkpt lat="46.1057204" lon="13.4807571"><ele>298.0</ele><time>2026-05-03T12:28:43.93Z</time></trkpt><trkpt lat="46.1056361" lon="13.4808682"><ele>298.0</ele><time>2026-05-03T12:28:44.939Z</time></trkpt><trkpt lat="46.105562" lon="13.4809714"><ele>300.2</ele><time>2026-05-03T12:28:45.93Z</time></trkpt><trkpt lat="46.1055046" lon="13.4810534"><ele>302.4</ele><time>2026-05-03T12:28:46.928Z</time></trkpt><trkpt lat="46.105421" lon="13.4810998"><ele>304.59999999999997</ele><time>2026-05-03T12:28:48.927Z</time></trkpt><trkpt lat="46.1053622" lon="13.481018"><ele>306.8</ele><time>2026-05-03T12:28:50.928Z</time></trkpt><trkpt lat="46.1053318" lon="13.4808297"><ele>309.0</ele><time>2026-05-03T12:28:52.93Z</time></trkpt><trkpt lat="46.1053259" lon="13.4807087"><ele>309.0</ele><time>2026-05-03T12:28:53.932Z</time></trkpt><trkpt lat="46.1053275" lon="13.4805618"><ele>309.0</ele><time>2026-05-03T12:28:54.931Z</time></trkpt><trkpt lat="46.1053356" lon="13.4804002"><ele>309.0</ele><time>2026-05-03T12:28:55.934Z</time></trkpt><trkpt lat="46.1053379" lon="13.4802385"><ele>309.0</ele><time>2026-05-03T12:28:56.931Z</time></trkpt><trkpt lat="46.1053417" lon="13.4800764"><ele>309.0</ele><time>2026-05-03T12:28:57.936Z</time></trkpt><trkpt lat="46.1053511" lon="13.4799264"><ele>306.0</ele><time>2026-05-03T12:28:58.922Z</time></trkpt><trkpt lat="46.1053557" lon="13.4797764"><ele>303.0</ele><time>2026-05-03T12:28:59.927Z</time></trkpt><trkpt lat="46.1053421" lon="13.4796328"><ele>300.0</ele><time>2026-05-03T12:29:00.937Z</time></trkpt><trkpt lat="46.1053096" lon="13.479519"><ele>297.0</ele><time>2026-05-03T12:29:01.931Z</time></trkpt><trkpt lat="46.1052667" lon="13.4794349"><ele>294.0</ele><time>2026-05-03T12:29:02.937Z</time></trkpt><trkpt lat="46.1052062" lon="13.4793926"><ele>291.0</ele><time>2026-05-03T12:29:03.945Z</time></trkpt><trkpt lat="46.1051426" lon="13.4793625"><ele>287.8333333333333</ele><time>2026-05-03T12:29:04.93Z</time></trkpt><trkpt lat="46.1050689" lon="13.4793433"><ele>284.6666666666667</ele><time>2026-05-03T12:29:05.926Z</time></trkpt><trkpt lat="46.1049912" lon="13.4793098"><ele>281.5</ele><time>2026-05-03T12:29:06.924Z</time></trkpt><trkpt lat="46.10491" lon="13.4792767"><ele>278.33333333333337</ele><time>2026-05-03T12:29:07.936Z</time></trkpt><trkpt lat="46.1048317" lon="13.4792429"><ele>275.1666666666667</ele><time>2026-05-03T12:29:08.942Z</time></trkpt><trkpt lat="46.1047537" lon="13.4792169"><ele>272.0</ele><time>2026-05-03T12:29:09.938Z</time></trkpt><trkpt lat="46.104688" lon="13.4791903"><ele>272.0</ele><time>2026-05-03T12:29:10.93Z</time></trkpt><trkpt lat="46.1045895" lon="13.4791204"><ele>272.0</ele><time>2026-05-03T12:29:12.933Z</time></trkpt><trkpt lat="46.1045564" lon="13.4789513"><ele>272.0</ele><time>2026-05-03T12:29:14.934Z</time></trkpt><trkpt lat="46.1045342" lon="13.4788433"><ele>272.0</ele><time>2026-05-03T12:29:15.928Z</time></trkpt><trkpt lat="46.1045152" lon="13.478732"><ele>272.0</ele><time>2026-05-03T12:29:16.936Z</time></trkpt><trkpt lat="46.104503" lon="13.4786088"><ele>269.8</ele><time>2026-05-03T12:29:17.94Z</time></trkpt><trkpt lat="46.1044765" lon="13.4784854"><ele>267.6</ele><time>2026-05-03T12:29:18.927Z</time></trkpt><trkpt lat="46.1044464" lon="13.4783546"><ele>265.40000000000003</ele><time>2026-05-03T12:29:19.93Z</time></trkpt><trkpt lat="46.1044189" lon="13.4782219"><ele>263.2</ele><time>2026-05-03T12:29:20.94Z</time></trkpt><trkpt lat="46.1043933" lon="13.4780936"><ele>261.0</ele><time>2026-05-03T12:29:21.931Z</time></trkpt><trkpt lat="46.1043692" lon="13.4779644"><ele>258.0</ele><time>2026-05-03T12:29:22.943Z</time></trkpt><trkpt lat="46.1043491" lon="13.4778371"><ele>255.00000000000003</ele><time>2026-05-03T12:29:23.942Z</time></trkpt><trkpt lat="46.1043367" lon="13.4777162"><ele>252.00000000000003</ele><time>2026-05-03T12:29:24.929Z</time></trkpt><trkpt lat="46.104321" lon="13.4775932"><ele>249.0</ele><time>2026-05-03T12:29:25.93Z</time></trkpt><trkpt lat="46.104293" lon="13.4774912"><ele>246.0</ele><time>2026-05-03T12:29:26.931Z</time></trkpt><trkpt lat="46.1042029" lon="13.4773871"><ele>246.0</ele><time>2026-05-03T12:29:28.928Z</time></trkpt><trkpt lat="46.1041381" lon="13.4774001"><ele>246.0</ele><time>2026-05-03T12:29:29.935Z</time></trkpt><trkpt lat="46.1040715" lon="13.4774408"><ele>246.0</ele><time>2026-05-03T12:29:30.928Z</time></trkpt><trkpt lat="46.1039736" lon="13.4775052"><ele>246.0</ele><time>2026-05-03T12:29:32.93Z</time></trkpt><trkpt lat="46.1039034" lon="13.4775723"><ele>246.0</ele><time>2026-05-03T12:29:34.935Z</time></trkpt><trkpt lat="46.1038038" lon="13.4776656"><ele>246.0</ele><time>2026-05-03T12:29:39.927Z</time></trkpt><trkpt lat="46.1037489" lon="13.4777648"><ele>242.75</ele><time>2026-05-03T12:29:40.932Z</time></trkpt><trkpt lat="46.1036883" lon="13.4778736"><ele>239.5</ele><time>2026-05-03T12:29:41.932Z</time></trkpt><trkpt lat="46.1036339" lon="13.4780158"><ele>236.25</ele><time>2026-05-03T12:29:42.935Z</time></trkpt><trkpt lat="46.1035804" lon="13.478182"><ele>233.0</ele><time>2026-05-03T12:29:43.932Z</time></trkpt><trkpt lat="46.1035314" lon="13.4783367"><ele>233.0</ele><time>2026-05-03T12:29:44.936Z</time></trkpt><trkpt lat="46.1034726" lon="13.4784734"><ele>233.0</ele><time>2026-05-03T12:29:45.94Z</time></trkpt><trkpt lat="46.1034167" lon="13.4786065"><ele>233.0</ele><time>2026-05-03T12:29:46.93Z</time></trkpt><trkpt lat="46.1033621" lon="13.4787385"><ele>233.0</ele><time>2026-05-03T12:29:47.932Z</time></trkpt><trkpt lat="46.1033094" lon="13.4788658"><ele>233.0</ele><time>2026-05-03T12:29:48.941Z</time></trkpt><trkpt lat="46.1032604" lon="13.4790004"><ele>231.4</ele><time>2026-05-03T12:29:49.937Z</time></trkpt><trkpt lat="46.1032114" lon="13.4791358"><ele>229.8</ele><time>2026-05-03T12:29:50.941Z</time></trkpt><trkpt lat="46.1031653" lon="13.479272"><ele>228.2</ele><time>2026-05-03T12:29:51.927Z</time></trkpt><trkpt lat="46.1031209" lon="13.4794129"><ele>226.6</ele><time>2026-05-03T12:29:52.934Z</time></trkpt><trkpt lat="46.1030709" lon="13.4795544"><ele>225.0</ele><time>2026-05-03T12:29:53.929Z</time></trkpt><trkpt lat="46.1030131" lon="13.4796928"><ele>225.0</ele><time>2026-05-03T12:29:54.936Z</time></trkpt><trkpt lat="46.1029412" lon="13.4798368"><ele>225.0</ele><time>2026-05-03T12:29:55.938Z</time></trkpt><trkpt lat="46.1028511" lon="13.4799682"><ele>225.0</ele><time>2026-05-03T12:29:56.929Z</time></trkpt><trkpt lat="46.1027519" lon="13.4800817"><ele>225.0</ele><time>2026-05-03T12:29:57.927Z</time></trkpt><trkpt lat="46.1026483" lon="13.4801867"><ele>225.0</ele><time>2026-05-03T12:29:58.94Z</time></trkpt><trkpt lat="46.1025317" lon="13.4802689"><ele>225.0</ele><time>2026-05-03T12:29:59.94Z</time></trkpt><trkpt lat="46.1024133" lon="13.4803475"><ele>225.0</ele><time>2026-05-03T12:30:00.935Z</time></trkpt><trkpt lat="46.1022889" lon="13.4804266"><ele>225.0</ele><time>2026-05-03T12:30:01.928Z</time></trkpt><trkpt lat="46.1021748" lon="13.4805185"><ele>220.75</ele><time>2026-05-03T12:30:02.932Z</time></trkpt><trkpt lat="46.1020595" lon="13.4806162"><ele>216.5</ele><time>2026-05-03T12:30:03.929Z</time></trkpt><trkpt lat="46.1019616" lon="13.4807292"><ele>212.25</ele><time>2026-05-03T12:30:04.93Z</time></trkpt><trkpt lat="46.1018681" lon="13.4808592"><ele>208.0</ele><time>2026-05-03T12:30:05.935Z</time></trkpt><trkpt lat="46.1017801" lon="13.4810053"><ele>208.0</ele><time>2026-05-03T12:30:06.929Z</time></trkpt><trkpt lat="46.1017091" lon="13.4811655"><ele>208.0</ele><time>2026-05-03T12:30:07.934Z</time></trkpt><trkpt lat="46.1016519" lon="13.48133"><ele>208.0</ele><time>2026-05-03T12:30:08.941Z</time></trkpt><trkpt lat="46.1016187" lon="13.4814822"><ele>208.0</ele><time>2026-05-03T12:30:09.928Z</time></trkpt><trkpt lat="46.101598" lon="13.4815978"><ele>207.83333333333331</ele><time>2026-05-03T12:30:10.931Z</time></trkpt><trkpt lat="46.1015013" lon="13.4816427"><ele>207.66666666666666</ele><time>2026-05-03T12:30:12.939Z</time></trkpt><trkpt lat="46.1014271" lon="13.4815833"><ele>207.5</ele><time>2026-05-03T12:30:13.936Z</time></trkpt><trkpt lat="46.1013527" lon="13.4815389"><ele>207.33333333333331</ele><time>2026-05-03T12:30:14.927Z</time></trkpt><trkpt lat="46.101288" lon="13.48154"><ele>207.16666666666666</ele><time>2026-05-03T12:30:15.933Z</time></trkpt><trkpt lat="46.1012164" lon="13.4815988"><ele>207.0</ele><time>2026-05-03T12:30:16.94Z</time></trkpt><trkpt lat="46.1011519" lon="13.4816943"><ele>207.0</ele><time>2026-05-03T12:30:17.933Z</time></trkpt><trkpt lat="46.1010891" lon="13.4817762"><ele>207.0</ele><time>2026-05-03T12:30:18.927Z</time></trkpt><trkpt lat="46.1010158" lon="13.4818365"><ele>207.0</ele><time>2026-05-03T12:30:19.927Z</time></trkpt><trkpt lat="46.1009445" lon="13.4818659"><ele>207.0</ele><time>2026-05-03T12:30:20.931Z</time></trkpt><trkpt lat="46.1008667" lon="13.4818665"><ele>207.0</ele><time>2026-05-03T12:30:21.942Z</time></trkpt><trkpt lat="46.1007843" lon="13.4818302"><ele>207.0</ele><time>2026-05-03T12:30:22.932Z</time></trkpt><trkpt lat="46.1006984" lon="13.4817701"><ele>205.8</ele><time>2026-05-03T12:30:23.931Z</time></trkpt><trkpt lat="46.1006205" lon="13.4817024"><ele>204.6</ele><time>2026-05-03T12:30:24.93Z</time></trkpt><trkpt lat="46.1005519" lon="13.4816275"><ele>203.4</ele><time>2026-05-03T12:30:25.927Z</time></trkpt><trkpt lat="46.1004722" lon="13.481542"><ele>202.20000000000002</ele><time>2026-05-03T12:30:26.928Z</time></trkpt><trkpt lat="46.1003939" lon="13.4814343"><ele>201.0</ele><time>2026-05-03T12:30:27.929Z</time></trkpt><trkpt lat="46.1003239" lon="13.4813069"><ele>197.0</ele><time>2026-05-03T12:30:28.927Z</time></trkpt><trkpt lat="46.1002422" lon="13.4811873"><ele>193.0</ele><time>2026-05-03T12:30:29.93Z</time></trkpt><trkpt lat="46.1001662" lon="13.4810784"><ele>189.0</ele><time>2026-05-03T12:30:30.935Z</time></trkpt><trkpt lat="46.1001031" lon="13.4809879"><ele>185.0</ele><time>2026-05-03T12:30:31.926Z</time></trkpt><trkpt lat="46.1000369" lon="13.4809323"><ele>181.0</ele><time>2026-05-03T12:30:32.928Z</time></trkpt><trkpt lat="46.0999604" lon="13.4809286"><ele>179.8</ele><time>2026-05-03T12:30:33.933Z</time></trkpt><trkpt lat="46.0998798" lon="13.4810066"><ele>178.60000000000002</ele><time>2026-05-03T12:30:34.927Z</time></trkpt><trkpt lat="46.0998111" lon="13.4811311"><ele>177.4</ele><time>2026-05-03T12:30:35.926Z</time></trkpt><trkpt lat="46.0997568" lon="13.4812639"><ele>176.2</ele><time>2026-05-03T12:30:36.937Z</time></trkpt><trkpt lat="46.0996953" lon="13.4813539"><ele>175.0</ele><time>2026-05-03T12:30:37.926Z</time></trkpt><trkpt lat="46.09963" lon="13.4814058"><ele>175.0</ele><time>2026-05-03T12:30:38.927Z</time></trkpt><trkpt lat="46.0995263" lon="13.4813587"><ele>175.0</ele><time>2026-05-03T12:30:40.928Z</time></trkpt><trkpt lat="46.0995742" lon="13.4811776"><ele>175.0</ele><time>2026-05-03T12:30:42.929Z</time></trkpt><trkpt lat="46.0996571" lon="13.4810701"><ele>175.0</ele><time>2026-05-03T12:30:43.937Z</time></trkpt><trkpt lat="46.0997443" lon="13.4809479"><ele>174.0</ele><time>2026-05-03T12:30:44.925Z</time></trkpt><trkpt lat="46.099823" lon="13.4808245"><ele>173.0</ele><time>2026-05-03T12:30:45.926Z</time></trkpt><trkpt lat="46.099877" lon="13.4806933"><ele>172.0</ele><time>2026-05-03T12:30:46.935Z</time></trkpt><trkpt lat="46.099922" lon="13.4805661"><ele>171.0</ele><time>2026-05-03T12:30:47.925Z</time></trkpt><trkpt lat="46.099984" lon="13.4804619"><ele>170.0</ele><time>2026-05-03T12:30:48.939Z</time></trkpt><trkpt lat="46.1000478" lon="13.480388"><ele>168.6</ele><time>2026-05-03T12:30:49.925Z</time></trkpt><trkpt lat="46.1001507" lon="13.4803667"><ele>167.2</ele><time>2026-05-03T12:30:51.932Z</time></trkpt><trkpt lat="46.1001985" lon="13.4804592"><ele>165.8</ele><time>2026-05-03T12:30:52.926Z</time></trkpt><trkpt lat="46.1002742" lon="13.4805817"><ele>164.4</ele><time>2026-05-03T12:30:53.926Z</time></trkpt><trkpt lat="46.1003625" lon="13.4806664"><ele>163.0</ele><time>2026-05-03T12:30:54.934Z</time></trkpt><trkpt lat="46.1004661" lon="13.480781"><ele>166.0</ele><time>2026-05-03T12:30:55.935Z</time></trkpt><trkpt lat="46.100561" lon="13.4808599"><ele>169.0</ele><time>2026-05-03T12:30:56.926Z</time></trkpt><trkpt lat="46.1006611" lon="13.4809282"><ele>172.0</ele><time>2026-05-03T12:30:57.927Z</time></trkpt><trkpt lat="46.1007504" lon="13.480942"><ele>175.0</ele><time>2026-05-03T12:30:58.939Z</time></trkpt><trkpt lat="46.1008164" lon="13.4809176"><ele>178.0</ele><time>2026-05-03T12:30:59.93Z</time></trkpt><trkpt lat="46.10087" lon="13.4808662"><ele>181.0</ele><time>2026-05-03T12:31:00.938Z</time></trkpt><trkpt lat="46.100904" lon="13.4807589"><ele>181.25</ele><time>2026-05-03T12:31:01.927Z</time></trkpt><trkpt lat="46.1009432" lon="13.4806086"><ele>181.5</ele><time>2026-05-03T12:31:02.928Z</time></trkpt><trkpt lat="46.1009758" lon="13.4804311"><ele>181.75</ele><time>2026-05-03T12:31:03.924Z</time></trkpt><trkpt lat="46.1010071" lon="13.4802545"><ele>182.0</ele><time>2026-05-03T12:31:04.936Z</time></trkpt><trkpt lat="46.1010297" lon="13.4800621"><ele>177.75</ele><time>2026-05-03T12:31:05.932Z</time></trkpt><trkpt lat="46.1010429" lon="13.479868"><ele>173.5</ele><time>2026-05-03T12:31:06.93Z</time></trkpt><trkpt lat="46.1010633" lon="13.4796737"><ele>169.25</ele><time>2026-05-03T12:31:07.937Z</time></trkpt><trkpt lat="46.1010859" lon="13.479483"><ele>165.0</ele><time>2026-05-03T12:31:08.938Z</time></trkpt><trkpt lat="46.1011239" lon="13.4793137"><ele>164.0</ele><time>2026-05-03T12:31:09.934Z</time></trkpt><trkpt lat="46.1011675" lon="13.4791866"><ele>163.0</ele><time>2026-05-03T12:31:10.929Z</time></trkpt><trkpt lat="46.1012257" lon="13.479088"><ele>162.0</ele><time>2026-05-03T12:31:11.932Z</time></trkpt><trkpt lat="46.1012944" lon="13.479008"><ele>161.0</ele><time>2026-05-03T12:31:12.941Z</time></trkpt><trkpt lat="46.1013736" lon="13.4789381"><ele>160.0</ele><time>2026-05-03T12:31:13.936Z</time></trkpt><trkpt lat="46.1014609" lon="13.4788696"><ele>160.0</ele><time>2026-05-03T12:31:14.939Z</time></trkpt><trkpt lat="46.1015458" lon="13.4787919"><ele>160.0</ele><time>2026-05-03T12:31:15.928Z</time></trkpt><trkpt lat="46.1016267" lon="13.4787075"><ele>160.0</ele><time>2026-05-03T12:31:16.928Z</time></trkpt><trkpt lat="46.1016994" lon="13.4786169"><ele>160.0</ele><time>2026-05-03T12:31:17.936Z</time></trkpt><trkpt lat="46.1017535" lon="13.4785038"><ele>160.0</ele><time>2026-05-03T12:31:18.933Z</time></trkpt><trkpt lat="46.1017968" lon="13.4783666"><ele>159.8</ele><time>2026-05-03T12:31:19.93Z</time></trkpt><trkpt lat="46.1018271" lon="13.4782134"><ele>159.6</ele><time>2026-05-03T12:31:20.925Z</time></trkpt><trkpt lat="46.1018434" lon="13.4780595"><ele>159.4</ele><time>2026-05-03T12:31:21.926Z</time></trkpt><trkpt lat="46.1018607" lon="13.4778975"><ele>159.2</ele><time>2026-05-03T12:31:22.932Z</time></trkpt><trkpt lat="46.1018719" lon="13.4777375"><ele>159.0</ele><time>2026-05-03T12:31:23.93Z</time></trkpt><trkpt lat="46.1018685" lon="13.4775781"><ele>159.0</ele><time>2026-05-03T12:31:24.932Z</time></trkpt><trkpt lat="46.1018649" lon="13.4774117"><ele>159.0</ele><time>2026-05-03T12:31:25.933Z</time></trkpt><trkpt lat="46.1018687" lon="13.4772403"><ele>159.0</ele><time>2026-05-03T12:31:26.925Z</time></trkpt><trkpt lat="46.1018798" lon="13.4770695"><ele>159.0</ele><time>2026-05-03T12:31:27.935Z</time></trkpt><trkpt lat="46.1018899" lon="13.4769044"><ele>159.0</ele><time>2026-05-03T12:31:28.93Z</time></trkpt><trkpt lat="46.1018891" lon="13.4767438"><ele>159.0</ele><time>2026-05-03T12:31:29.935Z</time></trkpt><trkpt lat="46.1018804" lon="13.4765907"><ele>159.0</ele><time>2026-05-03T12:31:30.927Z</time></trkpt><trkpt lat="46.1018714" lon="13.4764393"><ele>159.0</ele><time>2026-05-03T12:31:31.934Z</time></trkpt><trkpt lat="46.1018718" lon="13.4762965"><ele>159.0</ele><time>2026-05-03T12:31:32.935Z</time></trkpt><trkpt lat="46.1018802" lon="13.4761636"><ele>159.0</ele><time>2026-05-03T12:31:33.937Z</time></trkpt><trkpt lat="46.1018914" lon="13.4760453"><ele>159.0</ele><time>2026-05-03T12:31:34.925Z</time></trkpt><trkpt lat="46.1018949" lon="13.475929"><ele>159.0</ele><time>2026-05-03T12:31:35.931Z</time></trkpt><trkpt lat="46.1018839" lon="13.4758035"><ele>159.0</ele><time>2026-05-03T12:31:36.923Z</time></trkpt><trkpt lat="46.1018572" lon="13.4756777"><ele>159.0</ele><time>2026-05-03T12:31:37.948Z</time></trkpt><trkpt lat="46.1018336" lon="13.475557"><ele>159.0</ele><time>2026-05-03T12:31:38.935Z</time></trkpt><trkpt lat="46.1018211" lon="13.4754453"><ele>158.83333333333334</ele><time>2026-05-03T12:31:39.928Z</time></trkpt><trkpt lat="46.1018127" lon="13.4753418"><ele>158.66666666666666</ele><time>2026-05-03T12:31:40.933Z</time></trkpt><trkpt lat="46.1018485" lon="13.4751917"><ele>158.5</ele><time>2026-05-03T12:31:42.937Z</time></trkpt><trkpt lat="46.1018937" lon="13.4751205"><ele>158.33333333333331</ele><time>2026-05-03T12:31:43.932Z</time></trkpt><trkpt lat="46.1019544" lon="13.4750466"><ele>158.16666666666666</ele><time>2026-05-03T12:31:44.931Z</time></trkpt><trkpt lat="46.1020251" lon="13.4749824"><ele>158.0</ele><time>2026-05-03T12:31:45.929Z</time></trkpt><trkpt lat="46.1021071" lon="13.4749139"><ele>158.0</ele><time>2026-05-03T12:31:46.931Z</time></trkpt><trkpt lat="46.1021916" lon="13.4748443"><ele>158.0</ele><time>2026-05-03T12:31:47.926Z</time></trkpt><trkpt lat="46.1022831" lon="13.4747664"><ele>158.0</ele><time>2026-05-03T12:31:48.939Z</time></trkpt><trkpt lat="46.102373" lon="13.4746808"><ele>158.0</ele><time>2026-05-03T12:31:49.932Z</time></trkpt><trkpt lat="46.1024507" lon="13.4745746"><ele>158.0</ele><time>2026-05-03T12:31:50.926Z</time></trkpt><trkpt lat="46.1025147" lon="13.4744525"><ele>157.5</ele><time>2026-05-03T12:31:51.927Z</time></trkpt><trkpt lat="46.1025709" lon="13.4743119"><ele>157.0</ele><time>2026-05-03T12:31:52.927Z</time></trkpt><trkpt lat="46.1026177" lon="13.4741621"><ele>156.5</ele><time>2026-05-03T12:31:53.933Z</time></trkpt><trkpt lat="46.1026564" lon="13.4740068"><ele>156.0</ele><time>2026-05-03T12:31:54.933Z</time></trkpt><trkpt lat="46.102708" lon="13.4738585"><ele>155.25</ele><time>2026-05-03T12:31:55.922Z</time></trkpt><trkpt lat="46.1027912" lon="13.4737353"><ele>154.5</ele><time>2026-05-03T12:31:56.926Z</time></trkpt><trkpt lat="46.1028939" lon="13.4736148"><ele>153.75</ele><time>2026-05-03T12:31:57.935Z</time></trkpt><trkpt lat="46.1029838" lon="13.4734854"><ele>153.0</ele><time>2026-05-03T12:31:58.939Z</time></trkpt><trkpt lat="46.1030677" lon="13.4733414"><ele>153.0</ele><time>2026-05-03T12:31:59.93Z</time></trkpt><trkpt lat="46.1031301" lon="13.4731921"><ele>153.0</ele><time>2026-05-03T12:32:00.928Z</time></trkpt><trkpt lat="46.1031829" lon="13.4730461"><ele>153.0</ele><time>2026-05-03T12:32:01.931Z</time></trkpt><trkpt lat="46.1032345" lon="13.4729132"><ele>153.0</ele><time>2026-05-03T12:32:02.923Z</time></trkpt><trkpt lat="46.1032857" lon="13.4727847"><ele>153.0</ele><time>2026-05-03T12:32:03.93Z</time></trkpt><trkpt lat="46.1033274" lon="13.4726577"><ele>152.5</ele><time>2026-05-03T12:32:04.925Z</time></trkpt><trkpt lat="46.1033559" lon="13.4725392"><ele>152.0</ele><time>2026-05-03T12:32:05.931Z</time></trkpt><trkpt lat="46.1033796" lon="13.4724182"><ele>151.5</ele><time>2026-05-03T12:32:06.926Z</time></trkpt><trkpt lat="46.1034049" lon="13.472301"><ele>151.0</ele><time>2026-05-03T12:32:07.925Z</time></trkpt><trkpt lat="46.1034274" lon="13.472186"><ele>150.5</ele><time>2026-05-03T12:32:08.927Z</time></trkpt><trkpt lat="46.1034524" lon="13.4720751"><ele>150.0</ele><time>2026-05-03T12:32:09.929Z</time></trkpt><trkpt lat="46.1034791" lon="13.4719697"><ele>149.66666666666666</ele><time>2026-05-03T12:32:10.937Z</time></trkpt><trkpt lat="46.1035042" lon="13.4718641"><ele>149.33333333333334</ele><time>2026-05-03T12:32:11.932Z</time></trkpt><trkpt lat="46.1035283" lon="13.4717603"><ele>149.0</ele><time>2026-05-03T12:32:12.941Z</time></trkpt><trkpt lat="46.1035555" lon="13.4716608"><ele>148.66666666666669</ele><time>2026-05-03T12:32:13.931Z</time></trkpt><trkpt lat="46.1035779" lon="13.4715602"><ele>148.33333333333334</ele><time>2026-05-03T12:32:14.932Z</time></trkpt><trkpt lat="46.1036034" lon="13.4714551"><ele>148.0</ele><time>2026-05-03T12:32:15.932Z</time></trkpt><trkpt lat="46.1036303" lon="13.4713434"><ele>147.83333333333334</ele><time>2026-05-03T12:32:16.926Z</time></trkpt><trkpt lat="46.1036566" lon="13.4712345"><ele>147.66666666666669</ele><time>2026-05-03T12:32:17.934Z</time></trkpt><trkpt lat="46.103686" lon="13.4711255"><ele>147.5</ele><time>2026-05-03T12:32:18.93Z</time></trkpt><trkpt lat="46.1037211" lon="13.4710271"><ele>147.33333333333334</ele><time>2026-05-03T12:32:19.928Z</time></trkpt><trkpt lat="46.1037697" lon="13.4709474"><ele>147.16666666666666</ele><time>2026-05-03T12:32:20.923Z</time></trkpt><trkpt lat="46.1038384" lon="13.4708989"><ele>147.0</ele><time>2026-05-03T12:32:21.941Z</time></trkpt><trkpt lat="46.1039199" lon="13.4708901"><ele>147.0</ele><time>2026-05-03T12:32:22.927Z</time></trkpt><trkpt lat="46.1040138" lon="13.4709151"><ele>147.0</ele><time>2026-05-03T12:32:23.934Z</time></trkpt><trkpt lat="46.1041107" lon="13.4709761"><ele>147.0</ele><time>2026-05-03T12:32:24.937Z</time></trkpt><trkpt lat="46.1042067" lon="13.4710568"><ele>147.0</ele><time>2026-05-03T12:32:25.933Z</time></trkpt><trkpt lat="46.1043065" lon="13.4711442"><ele>147.0</ele><time>2026-05-03T12:32:26.932Z</time></trkpt><trkpt lat="46.1044112" lon="13.4712297"><ele>147.0</ele><time>2026-05-03T12:32:27.936Z</time></trkpt><trkpt lat="46.1045177" lon="13.4713146"><ele>147.0</ele><time>2026-05-03T12:32:28.935Z</time></trkpt><trkpt lat="46.1046243" lon="13.4713991"><ele>147.0</ele><time>2026-05-03T12:32:29.928Z</time></trkpt><trkpt lat="46.1047345" lon="13.4714892"><ele>147.0</ele><time>2026-05-03T12:32:30.939Z</time></trkpt><trkpt lat="46.1048414" lon="13.4715831"><ele>146.0</ele><time>2026-05-03T12:32:31.927Z</time></trkpt><trkpt lat="46.1049466" lon="13.4716775"><ele>145.0</ele><time>2026-05-03T12:32:32.926Z</time></trkpt><trkpt lat="46.1050461" lon="13.4717935"><ele>144.0</ele><time>2026-05-03T12:32:33.934Z</time></trkpt><trkpt lat="46.105139" lon="13.4719251"><ele>143.0</ele><time>2026-05-03T12:32:34.935Z</time></trkpt><trkpt lat="46.105223" lon="13.4720777"><ele>143.75</ele><time>2026-05-03T12:32:35.934Z</time></trkpt><trkpt lat="46.1053076" lon="13.4722374"><ele>144.5</ele><time>2026-05-03T12:32:36.927Z</time></trkpt><trkpt lat="46.1053902" lon="13.4724107"><ele>145.25</ele><time>2026-05-03T12:32:37.927Z</time></trkpt><trkpt lat="46.1054709" lon="13.4725832"><ele>146.0</ele><time>2026-05-03T12:32:38.93Z</time></trkpt><trkpt lat="46.1055522" lon="13.4727711"><ele>144.0</ele><time>2026-05-03T12:32:39.937Z</time></trkpt><trkpt lat="46.1056315" lon="13.4729575"><ele>142.0</ele><time>2026-05-03T12:32:40.929Z</time></trkpt><trkpt lat="46.1057083" lon="13.4731475"><ele>140.0</ele><time>2026-05-03T12:32:41.932Z</time></trkpt><trkpt lat="46.1057894" lon="13.473323"><ele>140.0</ele><time>2026-05-03T12:32:42.934Z</time></trkpt><trkpt lat="46.1058756" lon="13.4734895"><ele>140.0</ele><time>2026-05-03T12:32:43.923Z</time></trkpt><trkpt lat="46.1059754" lon="13.4736514"><ele>140.0</ele><time>2026-05-03T12:32:44.93Z</time></trkpt><trkpt lat="46.1060788" lon="13.4738003"><ele>140.0</ele><time>2026-05-03T12:32:45.927Z</time></trkpt><trkpt lat="46.1061941" lon="13.4739403"><ele>139.33333333333331</ele><time>2026-05-03T12:32:46.922Z</time></trkpt><trkpt lat="46.1063143" lon="13.4740534"><ele>138.66666666666666</ele><time>2026-05-03T12:32:47.936Z</time></trkpt><trkpt lat="46.1064634" lon="13.4741434"><ele>138.0</ele><time>2026-05-03T12:32:48.926Z</time></trkpt><trkpt lat="46.106626" lon="13.4742"><ele>138.0</ele><time>2026-05-03T12:32:49.928Z</time></trkpt><trkpt lat="46.1068056" lon="13.4742329"><ele>138.0</ele><time>2026-05-03T12:32:50.93Z</time></trkpt><trkpt lat="46.1069828" lon="13.474253"><ele>138.0</ele><time>2026-05-03T12:32:51.933Z</time></trkpt><trkpt lat="46.1071673" lon="13.474265"><ele>138.0</ele><time>2026-05-03T12:32:52.924Z</time></trkpt><trkpt lat="46.1073524" lon="13.4742708"><ele>138.0</ele><time>2026-05-03T12:32:53.929Z</time></trkpt><trkpt lat="46.1075361" lon="13.474286"><ele>138.0</ele><time>2026-05-03T12:32:54.929Z</time></trkpt><trkpt lat="46.1077143" lon="13.4743039"><ele>136.33333333333334</ele><time>2026-05-03T12:32:55.926Z</time></trkpt><trkpt lat="46.1078993" lon="13.4743304"><ele>134.66666666666669</ele><time>2026-05-03T12:32:56.924Z</time></trkpt><trkpt lat="46.1080708" lon="13.4743562"><ele>133.0</ele><time>2026-05-03T12:32:57.935Z</time></trkpt><trkpt lat="46.108242" lon="13.4743779"><ele>132.66666666666669</ele><time>2026-05-03T12:32:58.927Z</time></trkpt><trkpt lat="46.1084199" lon="13.4744002"><ele>132.33333333333334</ele><time>2026-05-03T12:32:59.927Z</time></trkpt><trkpt lat="46.1085858" lon="13.4744276"><ele>132.0</ele><time>2026-05-03T12:33:00.936Z</time></trkpt><trkpt lat="46.1087432" lon="13.4744459"><ele>132.0</ele><time>2026-05-03T12:33:01.927Z</time></trkpt><trkpt lat="46.1088895" lon="13.4744826"><ele>132.0</ele><time>2026-05-03T12:33:02.931Z</time></trkpt><trkpt lat="46.1090309" lon="13.4745482"><ele>132.0</ele><time>2026-05-03T12:33:03.927Z</time></trkpt><trkpt lat="46.1091772" lon="13.4746391"><ele>131.66666666666666</ele><time>2026-05-03T12:33:04.924Z</time></trkpt><trkpt lat="46.1093166" lon="13.4747632"><ele>131.33333333333331</ele><time>2026-05-03T12:33:05.951Z</time></trkpt><trkpt lat="46.1094486" lon="13.4749023"><ele>131.0</ele><time>2026-05-03T12:33:06.928Z</time></trkpt><trkpt lat="46.1095872" lon="13.4750399"><ele>131.0</ele><time>2026-05-03T12:33:07.929Z</time></trkpt><trkpt lat="46.1097193" lon="13.4751754"><ele>131.0</ele><time>2026-05-03T12:33:08.93Z</time></trkpt><trkpt lat="46.1098581" lon="13.4753224"><ele>131.0</ele><time>2026-05-03T12:33:09.927Z</time></trkpt><trkpt lat="46.1099901" lon="13.4754553"><ele>132.5</ele><time>2026-05-03T12:33:10.925Z</time></trkpt><trkpt lat="46.1101201" lon="13.4755786"><ele>134.0</ele><time>2026-05-03T12:33:11.939Z</time></trkpt><trkpt lat="46.1102362" lon="13.4756906"><ele>135.5</ele><time>2026-05-03T12:33:12.925Z</time></trkpt><trkpt lat="46.1103397" lon="13.4757969"><ele>137.0</ele><time>2026-05-03T12:33:13.926Z</time></trkpt><trkpt lat="46.1104083" lon="13.4759138"><ele>137.0</ele><time>2026-05-03T12:33:14.939Z</time></trkpt><trkpt lat="46.1104607" lon="13.4760661"><ele>137.0</ele><time>2026-05-03T12:33:15.935Z</time></trkpt><trkpt lat="46.1105027" lon="13.4762224"><ele>137.0</ele><time>2026-05-03T12:33:16.932Z</time></trkpt><trkpt lat="46.1105319" lon="13.4763758"><ele>137.0</ele><time>2026-05-03T12:33:17.929Z</time></trkpt><trkpt lat="46.1105614" lon="13.4765137"><ele>137.0</ele><time>2026-05-03T12:33:18.929Z</time></trkpt><trkpt lat="46.1106116" lon="13.4766374"><ele>136.66666666666666</ele><time>2026-05-03T12:33:19.926Z</time></trkpt><trkpt lat="46.1106673" lon="13.4767327"><ele>136.33333333333331</ele><time>2026-05-03T12:33:20.928Z</time></trkpt><trkpt lat="46.1107285" lon="13.4768053"><ele>136.0</ele><time>2026-05-03T12:33:21.939Z</time></trkpt><trkpt lat="46.1108049" lon="13.4768555"><ele>135.66666666666666</ele><time>2026-05-03T12:33:22.935Z</time></trkpt><trkpt lat="46.1108803" lon="13.4769021"><ele>135.33333333333334</ele><time>2026-05-03T12:33:23.924Z</time></trkpt><trkpt lat="46.1109539" lon="13.4769514"><ele>135.0</ele><time>2026-05-03T12:33:24.929Z</time></trkpt><trkpt lat="46.1110298" lon="13.4770096"><ele>135.66666666666666</ele><time>2026-05-03T12:33:25.926Z</time></trkpt><trkpt lat="46.1111013" lon="13.4770676"><ele>136.33333333333334</ele><time>2026-05-03T12:33:26.932Z</time></trkpt><trkpt lat="46.1111682" lon="13.4771205"><ele>137.0</ele><time>2026-05-03T12:33:27.932Z</time></trkpt><trkpt lat="46.1112346" lon="13.4771683"><ele>137.66666666666669</ele><time>2026-05-03T12:33:28.926Z</time></trkpt><trkpt lat="46.1113419" lon="13.4772187"><ele>138.33333333333334</ele><time>2026-05-03T12:33:30.922Z</time></trkpt><trkpt lat="46.1114205" lon="13.4772288"><ele>139.0</ele><time>2026-05-03T12:33:32.933Z</time></trkpt><trkpt lat="46.1115063" lon="13.4772487"><ele>140.5</ele><time>2026-05-03T12:33:34.939Z</time></trkpt><trkpt lat="46.1116" lon="13.4772832"><ele>142.0</ele><time>2026-05-03T12:33:36.93Z</time></trkpt><trkpt lat="46.1116717" lon="13.4773236"><ele>143.5</ele><time>2026-05-03T12:33:38.935Z</time></trkpt><trkpt lat="46.11174" lon="13.4774"><ele>145.0</ele><time>2026-05-03T12:33:46.927Z</time></trkpt><trkpt lat="46.1117826" lon="13.4774685"><ele>146.5</ele><time>2026-05-03T12:33:48.927Z</time></trkpt><trkpt lat="46.111787" lon="13.4776019"><ele>148.0</ele><time>2026-05-03T12:33:50.934Z</time></trkpt><trkpt lat="46.1117781" lon="13.4776993"><ele>148.0</ele><time>2026-05-03T12:33:51.932Z</time></trkpt><trkpt lat="46.111758" lon="13.4778182"><ele>148.0</ele><time>2026-05-03T12:33:52.923Z</time></trkpt><trkpt lat="46.111733" lon="13.4779569"><ele>148.0</ele><time>2026-05-03T12:33:53.927Z</time></trkpt><trkpt lat="46.111702" lon="13.4781143"><ele>148.0</ele><time>2026-05-03T12:33:54.933Z</time></trkpt><trkpt lat="46.1116674" lon="13.4782793"><ele>148.0</ele><time>2026-05-03T12:33:55.94Z</time></trkpt><trkpt lat="46.1116286" lon="13.4784409"><ele>147.5</ele><time>2026-05-03T12:33:56.936Z</time></trkpt><trkpt lat="46.1115993" lon="13.478606"><ele>147.0</ele><time>2026-05-03T12:33:57.936Z</time></trkpt><trkpt lat="46.1115648" lon="13.4787818"><ele>146.5</ele><time>2026-05-03T12:33:58.934Z</time></trkpt><trkpt lat="46.1115297" lon="13.4789558"><ele>146.0</ele><time>2026-05-03T12:33:59.93Z</time></trkpt><trkpt lat="46.1114927" lon="13.4791291"><ele>144.25</ele><time>2026-05-03T12:34:00.929Z</time></trkpt><trkpt lat="46.1114656" lon="13.4793054"><ele>142.5</ele><time>2026-05-03T12:34:01.928Z</time></trkpt><trkpt lat="46.1114564" lon="13.4794994"><ele>140.75</ele><time>2026-05-03T12:34:02.927Z</time></trkpt><trkpt lat="46.1114615" lon="13.4797279"><ele>139.0</ele><time>2026-05-03T12:34:03.924Z</time></trkpt><trkpt lat="46.1114826" lon="13.4800171"><ele>139.0</ele><time>2026-05-03T12:34:04.929Z</time></trkpt><trkpt lat="46.111499" lon="13.4803099"><ele>139.0</ele><time>2026-05-03T12:34:05.927Z</time></trkpt><trkpt lat="46.1115076" lon="13.4805917"><ele>139.0</ele><time>2026-05-03T12:34:06.93Z</time></trkpt><trkpt lat="46.1115207" lon="13.4808753"><ele>138.33333333333334</ele><time>2026-05-03T12:34:07.934Z</time></trkpt><trkpt lat="46.1115266" lon="13.4811472"><ele>137.66666666666666</ele><time>2026-05-03T12:34:08.93Z</time></trkpt><trkpt lat="46.111536" lon="13.4813961"><ele>137.0</ele><time>2026-05-03T12:34:09.93Z</time></trkpt><trkpt lat="46.1115407" lon="13.4816482"><ele>137.0</ele><time>2026-05-03T12:34:10.93Z</time></trkpt><trkpt lat="46.1115553" lon="13.4818664"><ele>137.0</ele><time>2026-05-03T12:34:11.924Z</time></trkpt><trkpt lat="46.1115632" lon="13.4820497"><ele>137.0</ele><time>2026-05-03T12:34:12.927Z</time></trkpt><trkpt lat="46.111569" lon="13.4822057"><ele>137.0</ele><time>2026-05-03T12:34:13.929Z</time></trkpt><trkpt lat="46.1115713" lon="13.4823602"><ele>139.25</ele><time>2026-05-03T12:34:14.931Z</time></trkpt><trkpt lat="46.1115747" lon="13.4825091"><ele>141.5</ele><time>2026-05-03T12:34:15.925Z</time></trkpt><trkpt lat="46.1115927" lon="13.4826559"><ele>143.75</ele><time>2026-05-03T12:34:16.924Z</time></trkpt><trkpt lat="46.1116325" lon="13.4827993"><ele>146.0</ele><time>2026-05-03T12:34:17.928Z</time></trkpt><trkpt lat="46.1116944" lon="13.4829961"><ele>146.0</ele><time>2026-05-03T12:34:18.924Z</time></trkpt><trkpt lat="46.1117661" lon="13.4832244"><ele>146.0</ele><time>2026-05-03T12:34:19.921Z</time></trkpt><trkpt lat="46.111832" lon="13.4834513"><ele>146.0</ele><time>2026-05-03T12:34:20.934Z</time></trkpt><trkpt lat="46.1119002" lon="13.483669"><ele>145.33333333333331</ele><time>2026-05-03T12:34:21.926Z</time></trkpt><trkpt lat="46.1119727" lon="13.4838858"><ele>144.66666666666666</ele><time>2026-05-03T12:34:22.932Z</time></trkpt><trkpt lat="46.1120551" lon="13.4840742"><ele>144.0</ele><time>2026-05-03T12:34:23.93Z</time></trkpt><trkpt lat="46.1121626" lon="13.4842459"><ele>144.0</ele><time>2026-05-03T12:34:24.931Z</time></trkpt><trkpt lat="46.11229" lon="13.4843806"><ele>144.0</ele><time>2026-05-03T12:34:25.931Z</time></trkpt><trkpt lat="46.112444" lon="13.4845084"><ele>144.0</ele><time>2026-05-03T12:34:26.931Z</time></trkpt><trkpt lat="46.112604" lon="13.4846363"><ele>145.0</ele><time>2026-05-03T12:34:27.925Z</time></trkpt><trkpt lat="46.1127637" lon="13.4847797"><ele>146.0</ele><time>2026-05-03T12:34:28.935Z</time></trkpt><trkpt lat="46.1129121" lon="13.4849252"><ele>147.0</ele><time>2026-05-03T12:34:29.923Z</time></trkpt><trkpt lat="46.1130575" lon="13.4850614"><ele>147.0</ele><time>2026-05-03T12:34:30.934Z</time></trkpt><trkpt lat="46.1131934" lon="13.4852105"><ele>147.0</ele><time>2026-05-03T12:34:31.942Z</time></trkpt><trkpt lat="46.1133216" lon="13.4853889"><ele>147.0</ele><time>2026-05-03T12:34:32.941Z</time></trkpt><trkpt lat="46.1134107" lon="13.4855806"><ele>147.0</ele><time>2026-05-03T12:34:33.93Z</time></trkpt><trkpt lat="46.1134711" lon="13.4857824"><ele>147.0</ele><time>2026-05-03T12:34:34.929Z</time></trkpt><trkpt lat="46.1135429" lon="13.4859868"><ele>147.0</ele><time>2026-05-03T12:34:35.935Z</time></trkpt><trkpt lat="46.1136195" lon="13.4861971"><ele>146.0</ele><time>2026-05-03T12:34:36.926Z</time></trkpt><trkpt lat="46.1136865" lon="13.4864014"><ele>145.0</ele><time>2026-05-03T12:34:37.924Z</time></trkpt><trkpt lat="46.1137589" lon="13.4866018"><ele>144.0</ele><time>2026-05-03T12:34:38.93Z</time></trkpt><trkpt lat="46.1138334" lon="13.4867965"><ele>144.0</ele><time>2026-05-03T12:34:39.928Z</time></trkpt><trkpt lat="46.1139095" lon="13.4870076"><ele>144.0</ele><time>2026-05-03T12:34:40.928Z</time></trkpt><trkpt lat="46.1139821" lon="13.4872162"><ele>144.0</ele><time>2026-05-03T12:34:41.93Z</time></trkpt><trkpt lat="46.1140592" lon="13.4874178"><ele>146.66666666666666</ele><time>2026-05-03T12:34:42.927Z</time></trkpt><trkpt lat="46.1141189" lon="13.4876152"><ele>149.33333333333331</ele><time>2026-05-03T12:34:43.923Z</time></trkpt><trkpt lat="46.1141662" lon="13.4878233"><ele>152.0</ele><time>2026-05-03T12:34:44.937Z</time></trkpt><trkpt lat="46.1141953" lon="13.4880451"><ele>152.0</ele><time>2026-05-03T12:34:45.928Z</time></trkpt><trkpt lat="46.1142142" lon="13.4882649"><ele>152.0</ele><time>2026-05-03T12:34:46.928Z</time></trkpt><trkpt lat="46.1142194" lon="13.488468"><ele>152.0</ele><time>2026-05-03T12:34:47.942Z</time></trkpt><trkpt lat="46.11422" lon="13.4886701"><ele>152.0</ele><time>2026-05-03T12:34:48.934Z</time></trkpt><trkpt lat="46.1142454" lon="13.4888754"><ele>150.66666666666666</ele><time>2026-05-03T12:34:49.925Z</time></trkpt><trkpt lat="46.1142859" lon="13.4890918"><ele>149.33333333333334</ele><time>2026-05-03T12:34:50.924Z</time></trkpt><trkpt lat="46.1143429" lon="13.4893083"><ele>148.0</ele><time>2026-05-03T12:34:51.926Z</time></trkpt><trkpt lat="46.114394" lon="13.4895228"><ele>146.66666666666669</ele><time>2026-05-03T12:34:52.926Z</time></trkpt><trkpt lat="46.1144493" lon="13.4897371"><ele>145.33333333333334</ele><time>2026-05-03T12:34:53.927Z</time></trkpt><trkpt lat="46.1145158" lon="13.4899459"><ele>144.0</ele><time>2026-05-03T12:34:54.933Z</time></trkpt><trkpt lat="46.1145777" lon="13.4901611"><ele>144.0</ele><time>2026-05-03T12:34:55.926Z</time></trkpt><trkpt lat="46.1146502" lon="13.4903746"><ele>144.0</ele><time>2026-05-03T12:34:56.93Z</time></trkpt><trkpt lat="46.114732" lon="13.4905876"><ele>144.0</ele><time>2026-05-03T12:34:57.929Z</time></trkpt><trkpt lat="46.1148161" lon="13.4907861"><ele>145.0</ele><time>2026-05-03T12:34:58.935Z</time></trkpt><trkpt lat="46.1149157" lon="13.4909985"><ele>146.0</ele><time>2026-05-03T12:34:59.925Z</time></trkpt><trkpt lat="46.1150214" lon="13.4912232"><ele>147.0</ele><time>2026-05-03T12:35:00.924Z</time></trkpt><trkpt lat="46.115135" lon="13.4914327"><ele>147.0</ele><time>2026-05-03T12:35:01.926Z</time></trkpt><trkpt lat="46.1152506" lon="13.4916294"><ele>147.0</ele><time>2026-05-03T12:35:02.938Z</time></trkpt><trkpt lat="46.1153598" lon="13.4918029"><ele>147.0</ele><time>2026-05-03T12:35:03.933Z</time></trkpt><trkpt lat="46.1154678" lon="13.4919535"><ele>147.0</ele><time>2026-05-03T12:35:04.928Z</time></trkpt><trkpt lat="46.1155972" lon="13.4920905"><ele>147.0</ele><time>2026-05-03T12:35:05.932Z</time></trkpt><trkpt lat="46.1157608" lon="13.4922152"><ele>147.0</ele><time>2026-05-03T12:35:06.925Z</time></trkpt><trkpt lat="46.1159415" lon="13.4923307"><ele>147.0</ele><time>2026-05-03T12:35:07.94Z</time></trkpt><trkpt lat="46.1161278" lon="13.4924515"><ele>147.0</ele><time>2026-05-03T12:35:08.928Z</time></trkpt><trkpt lat="46.1163195" lon="13.4925653"><ele>147.0</ele><time>2026-05-03T12:35:09.933Z</time></trkpt><trkpt lat="46.1165035" lon="13.4926468"><ele>148.33333333333334</ele><time>2026-05-03T12:35:10.936Z</time></trkpt><trkpt lat="46.1166701" lon="13.492727"><ele>149.66666666666669</ele><time>2026-05-03T12:35:11.925Z</time></trkpt><trkpt lat="46.1168268" lon="13.4927852"><ele>151.0</ele><time>2026-05-03T12:35:12.931Z</time></trkpt><trkpt lat="46.1169922" lon="13.4928398"><ele>151.0</ele><time>2026-05-03T12:35:13.931Z</time></trkpt><trkpt lat="46.1171645" lon="13.4928858"><ele>151.0</ele><time>2026-05-03T12:35:14.937Z</time></trkpt><trkpt lat="46.1173344" lon="13.492934"><ele>151.0</ele><time>2026-05-03T12:35:15.925Z</time></trkpt><trkpt lat="46.1174998" lon="13.4929855"><ele>150.33333333333334</ele><time>2026-05-03T12:35:16.925Z</time></trkpt><trkpt lat="46.1176591" lon="13.4930394"><ele>149.66666666666666</ele><time>2026-05-03T12:35:17.935Z</time></trkpt><trkpt lat="46.1178266" lon="13.4931034"><ele>149.0</ele><time>2026-05-03T12:35:18.927Z</time></trkpt><trkpt lat="46.1179885" lon="13.4931758"><ele>149.0</ele><time>2026-05-03T12:35:19.929Z</time></trkpt><trkpt lat="46.1181417" lon="13.4932394"><ele>149.0</ele><time>2026-05-03T12:35:20.926Z</time></trkpt><trkpt lat="46.1182811" lon="13.4932951"><ele>149.0</ele><time>2026-05-03T12:35:21.925Z</time></trkpt><trkpt lat="46.1184139" lon="13.4933498"><ele>149.0</ele><time>2026-05-03T12:35:22.925Z</time></trkpt><trkpt lat="46.1185447" lon="13.4934035"><ele>149.2</ele><time>2026-05-03T12:35:23.941Z</time></trkpt><trkpt lat="46.1186573" lon="13.4934504"><ele>149.4</ele><time>2026-05-03T12:35:24.922Z</time></trkpt><trkpt lat="46.1187565" lon="13.4935241"><ele>149.6</ele><time>2026-05-03T12:35:25.923Z</time></trkpt><trkpt lat="46.1188258" lon="13.4936276"><ele>149.8</ele><time>2026-05-03T12:35:26.922Z</time></trkpt><trkpt lat="46.1188631" lon="13.4937573"><ele>150.0</ele><time>2026-05-03T12:35:27.926Z</time></trkpt><trkpt lat="46.1188666" lon="13.4939165"><ele>148.75</ele><time>2026-05-03T12:35:28.923Z</time></trkpt><trkpt lat="46.1188329" lon="13.494073"><ele>147.5</ele><time>2026-05-03T12:35:29.927Z</time></trkpt><trkpt lat="46.1187608" lon="13.4942257"><ele>146.25</ele><time>2026-05-03T12:35:30.938Z</time></trkpt><trkpt lat="46.1186584" lon="13.4943503"><ele>145.0</ele><time>2026-05-03T12:35:31.927Z</time></trkpt><trkpt lat="46.1185624" lon="13.4944711"><ele>145.0</ele><time>2026-05-03T12:35:32.933Z</time></trkpt><trkpt lat="46.1184722" lon="13.4945859"><ele>145.0</ele><time>2026-05-03T12:35:33.931Z</time></trkpt><trkpt lat="46.118388" lon="13.4946945"><ele>145.0</ele><time>2026-05-03T12:35:34.928Z</time></trkpt><trkpt lat="46.1183114" lon="13.4947986"><ele>145.0</ele><time>2026-05-03T12:35:35.93Z</time></trkpt><trkpt lat="46.1182434" lon="13.49489"><ele>145.0</ele><time>2026-05-03T12:35:36.934Z</time></trkpt><trkpt lat="46.1181801" lon="13.4949649"><ele>144.8</ele><time>2026-05-03T12:35:37.938Z</time></trkpt><trkpt lat="46.1180827" lon="13.4950107"><ele>144.6</ele><time>2026-05-03T12:35:39.937Z</time></trkpt><trkpt lat="46.11805" lon="13.494866"><ele>144.4</ele><time>2026-05-03T12:35:41.93Z</time></trkpt><trkpt lat="46.1180323" lon="13.4947488"><ele>144.2</ele><time>2026-05-03T12:35:42.925Z</time></trkpt><trkpt lat="46.1179943" lon="13.4946247"><ele>144.0</ele><time>2026-05-03T12:35:43.938Z</time></trkpt><trkpt lat="46.1179255" lon="13.4945027"><ele>144.0</ele><time>2026-05-03T12:35:44.932Z</time></trkpt><trkpt lat="46.1178348" lon="13.49438"><ele>144.0</ele><time>2026-05-03T12:35:45.926Z</time></trkpt><trkpt lat="46.1177418" lon="13.4942646"><ele>144.0</ele><time>2026-05-03T12:35:46.932Z</time></trkpt><trkpt lat="46.1176497" lon="13.4941476"><ele>144.0</ele><time>2026-05-03T12:35:47.927Z</time></trkpt><trkpt lat="46.1175555" lon="13.4940357"><ele>144.0</ele><time>2026-05-03T12:35:48.933Z</time></trkpt><trkpt lat="46.1174557" lon="13.4939287"><ele>144.0</ele><time>2026-05-03T12:35:49.927Z</time></trkpt><trkpt lat="46.1173515" lon="13.4938305"><ele>144.0</ele><time>2026-05-03T12:35:50.932Z</time></trkpt><trkpt lat="46.1172388" lon="13.4937412"><ele>144.0</ele><time>2026-05-03T12:35:51.925Z</time></trkpt><trkpt lat="46.1171235" lon="13.4936662"><ele>144.25</ele><time>2026-05-03T12:35:52.927Z</time></trkpt><trkpt lat="46.117004" lon="13.4935955"><ele>144.5</ele><time>2026-05-03T12:35:53.929Z</time></trkpt><trkpt lat="46.116886" lon="13.4935308"><ele>144.75</ele><time>2026-05-03T12:35:54.934Z</time></trkpt><trkpt lat="46.1167756" lon="13.4934685"><ele>145.0</ele><time>2026-05-03T12:35:55.927Z</time></trkpt><trkpt lat="46.1166709" lon="13.4934151"><ele>145.0</ele><time>2026-05-03T12:35:56.931Z</time></trkpt><trkpt lat="46.1165761" lon="13.4933639"><ele>145.0</ele><time>2026-05-03T12:35:57.934Z</time></trkpt><trkpt lat="46.1164957" lon="13.493322"><ele>145.0</ele><time>2026-05-03T12:35:58.936Z</time></trkpt><trkpt lat="46.1164265" lon="13.493296"><ele>145.0</ele><time>2026-05-03T12:35:59.929Z</time></trkpt><trkpt lat="46.116305" lon="13.4932957"><ele>145.0</ele><time>2026-05-03T12:36:01.92Z</time></trkpt><trkpt lat="46.1162352" lon="13.4933069"><ele>144.5</ele><time>2026-05-03T12:36:02.928Z</time></trkpt><trkpt lat="46.1161582" lon="13.493312"><ele>144.0</ele><time>2026-05-03T12:36:03.926Z</time></trkpt><trkpt lat="46.1160816" lon="13.4933107"><ele>143.5</ele><time>2026-05-03T12:36:04.925Z</time></trkpt><trkpt lat="46.1160085" lon="13.4932936"><ele>143.0</ele><time>2026-05-03T12:36:05.928Z</time></trkpt><trkpt lat="46.1159312" lon="13.4932674"><ele>142.5</ele><time>2026-05-03T12:36:06.936Z</time></trkpt><trkpt lat="46.1158402" lon="13.4932364"><ele>142.0</ele><time>2026-05-03T12:36:07.929Z</time></trkpt><trkpt lat="46.1157394" lon="13.4931951"><ele>141.6</ele><time>2026-05-03T12:36:08.924Z</time></trkpt><trkpt lat="46.1156379" lon="13.4931435"><ele>141.2</ele><time>2026-05-03T12:36:09.949Z</time></trkpt><trkpt lat="46.115542" lon="13.4930824"><ele>140.8</ele><time>2026-05-03T12:36:10.931Z</time></trkpt><trkpt lat="46.1154527" lon="13.4930334"><ele>140.4</ele><time>2026-05-03T12:36:11.925Z</time></trkpt><trkpt lat="46.1153652" lon="13.4930195"><ele>140.0</ele><time>2026-05-03T12:36:12.925Z</time></trkpt><trkpt lat="46.1152819" lon="13.4930431"><ele>140.0</ele><time>2026-05-03T12:36:13.931Z</time></trkpt><trkpt lat="46.1152046" lon="13.4930964"><ele>140.0</ele><time>2026-05-03T12:36:14.924Z</time></trkpt><trkpt lat="46.1151379" lon="13.4931522"><ele>140.0</ele><time>2026-05-03T12:36:15.926Z</time></trkpt><trkpt lat="46.115071" lon="13.4932039"><ele>140.0</ele><time>2026-05-03T12:36:16.938Z</time></trkpt><trkpt lat="46.115005" lon="13.493255"><ele>140.0</ele><time>2026-05-03T12:36:17.945Z</time></trkpt><trkpt lat="46.1149518" lon="13.4933067"><ele>140.0</ele><time>2026-05-03T12:36:18.923Z</time></trkpt><trkpt lat="46.114856" lon="13.4933866"><ele>139.6</ele><time>2026-05-03T12:36:20.926Z</time></trkpt><trkpt lat="46.1147565" lon="13.4933842"><ele>139.2</ele><time>2026-05-03T12:36:22.931Z</time></trkpt><trkpt lat="46.1146618" lon="13.4932984"><ele>138.8</ele><time>2026-05-03T12:36:24.939Z</time></trkpt><trkpt lat="46.1146048" lon="13.4931961"><ele>138.4</ele><time>2026-05-03T12:36:26.928Z</time></trkpt><trkpt lat="46.1146497" lon="13.4930978"><ele>138.0</ele><time>2026-05-03T12:36:29.927Z</time></trkpt><trkpt lat="46.1147312" lon="13.4931787"><ele>138.0</ele><time>2026-05-03T12:36:32.926Z</time></trkpt><trkpt lat="46.1148232" lon="13.4933003"><ele>138.0</ele><time>2026-05-03T12:36:34.924Z</time></trkpt><trkpt lat="46.1148654" lon="13.4933766"><ele>138.0</ele><time>2026-05-03T12:36:35.932Z</time></trkpt><trkpt lat="46.1149051" lon="13.4934553"><ele>138.0</ele><time>2026-05-03T12:36:36.934Z</time></trkpt><trkpt lat="46.1149453" lon="13.4935283"><ele>138.0</ele><time>2026-05-03T12:36:37.926Z</time></trkpt><trkpt lat="46.1149961" lon="13.4936656"><ele>138.0</ele><time>2026-05-03T12:36:39.927Z</time></trkpt><trkpt lat="46.1149733" lon="13.4937796"><ele>137.83333333333334</ele><time>2026-05-03T12:36:41.924Z</time></trkpt><trkpt lat="46.1148893" lon="13.4938346"><ele>137.66666666666666</ele><time>2026-05-03T12:36:43.929Z</time></trkpt><trkpt lat="46.1148099" lon="13.493881"><ele>137.5</ele><time>2026-05-03T12:36:45.925Z</time></trkpt><trkpt lat="46.1147458" lon="13.4939181"><ele>137.33333333333331</ele><time>2026-05-03T12:36:48.929Z</time></trkpt><trkpt lat="46.1147429" lon="13.4940472"><ele>137.16666666666666</ele><time>2026-05-03T12:36:52.925Z</time></trkpt><trkpt lat="46.1147504" lon="13.4941404"><ele>137.0</ele><time>2026-05-03T12:36:54.923Z</time></trkpt><trkpt lat="46.114767" lon="13.4942646"><ele>137.0</ele><time>2026-05-03T12:36:56.921Z</time></trkpt><trkpt lat="46.1147797" lon="13.4944134"><ele>137.0</ele><time>2026-05-03T12:36:58.928Z</time></trkpt><trkpt lat="46.1148074" lon="13.4946008"><ele>137.0</ele><time>2026-05-03T12:37:00.932Z</time></trkpt><trkpt lat="46.1148162" lon="13.4947046"><ele>137.0</ele><time>2026-05-03T12:37:01.925Z</time></trkpt><trkpt lat="46.1148219" lon="13.4948053"><ele>137.0</ele><time>2026-05-03T12:37:02.938Z</time></trkpt><trkpt lat="46.1148303" lon="13.4949801"><ele>137.33333333333331</ele><time>2026-05-03T12:37:04.928Z</time></trkpt><trkpt lat="46.1148374" lon="13.4951203"><ele>137.66666666666666</ele><time>2026-05-03T12:37:06.927Z</time></trkpt><trkpt lat="46.1148606" lon="13.4952406"><ele>138.0</ele><time>2026-05-03T12:37:08.927Z</time></trkpt><trkpt lat="46.1148979" lon="13.4953476"><ele>138.33333333333334</ele><time>2026-05-03T12:37:10.928Z</time></trkpt><trkpt lat="46.1149046" lon="13.4954498"><ele>138.66666666666669</ele><time>2026-05-03T12:37:13.926Z</time></trkpt><trkpt lat="46.1148902" lon="13.4955415"><ele>139.0</ele><time>2026-05-03T12:37:15.929Z</time></trkpt><trkpt lat="46.1148512" lon="13.4956261"><ele>139.0</ele><time>2026-05-03T12:37:17.925Z</time></trkpt><trkpt lat="46.1148106" lon="13.495716"><ele>139.0</ele><time>2026-05-03T12:37:19.933Z</time></trkpt><trkpt lat="46.1147887" lon="13.4958181"><ele>139.0</ele><time>2026-05-03T12:37:21.925Z</time></trkpt><trkpt lat="46.1147865" lon="13.4959451"><ele>139.0</ele><time>2026-05-03T12:37:23.924Z</time></trkpt><trkpt lat="46.114772" lon="13.4960763"><ele>139.0</ele><time>2026-05-03T12:37:25.923Z</time></trkpt><trkpt lat="46.1147615" lon="13.4962032"><ele>139.0</ele><time>2026-05-03T12:37:27.929Z</time></trkpt><trkpt lat="46.1147478" lon="13.4963304"><ele>139.0</ele><time>2026-05-03T12:37:29.924Z</time></trkpt><trkpt lat="46.1147298" lon="13.4964526"><ele>139.0</ele><time>2026-05-03T12:37:31.928Z</time></trkpt><trkpt lat="46.1147201" lon="13.4965914"><ele>139.0</ele><time>2026-05-03T12:37:33.933Z</time></trkpt><trkpt lat="46.1147043" lon="13.4966923"><ele>139.0</ele><time>2026-05-03T12:37:35.926Z</time></trkpt><trkpt lat="46.1146901" lon="13.496824"><ele>139.0</ele><time>2026-05-03T12:37:37.92Z</time></trkpt><trkpt lat="46.1146847" lon="13.4969505"><ele>139.0</ele><time>2026-05-03T12:37:39.935Z</time></trkpt><trkpt lat="46.1146383" lon="13.4970504"><ele>139.33333333333334</ele><time>2026-05-03T12:37:42.925Z</time></trkpt><trkpt lat="46.114611" lon="13.4971626"><ele>139.66666666666669</ele><time>2026-05-03T12:37:45.932Z</time></trkpt><trkpt lat="46.1146025" lon="13.497292"><ele>140.0</ele><time>2026-05-03T12:37:48.93Z</time></trkpt><trkpt lat="46.1146076" lon="13.4973836"><ele>140.33333333333334</ele><time>2026-05-03T12:37:50.93Z</time></trkpt><trkpt lat="46.1146269" lon="13.497519"><ele>140.66666666666666</ele><time>2026-05-03T12:37:53.927Z</time></trkpt><trkpt lat="46.1146177" lon="13.4976542"><ele>141.0</ele><time>2026-05-03T12:37:56.929Z</time></trkpt><trkpt lat="46.1145929" lon="13.4977381"><ele>141.0</ele><time>2026-05-03T12:37:58.924Z</time></trkpt><trkpt lat="46.1145834" lon="13.4978776"><ele>141.0</ele><time>2026-05-03T12:38:01.936Z</time></trkpt><trkpt lat="46.1145991" lon="13.4979983"><ele>141.0</ele><time>2026-05-03T12:38:03.925Z</time></trkpt><trkpt lat="46.1145974" lon="13.4981444"><ele>141.0</ele><time>2026-05-03T12:38:05.933Z</time></trkpt><trkpt lat="46.114578" lon="13.4983013"><ele>141.0</ele><time>2026-05-03T12:38:07.932Z</time></trkpt><trkpt lat="46.114565" lon="13.4983903"><ele>141.0</ele><time>2026-05-03T12:38:08.939Z</time></trkpt><trkpt lat="46.1145487" lon="13.4984839"><ele>141.0</ele><time>2026-05-03T12:38:09.928Z</time></trkpt><trkpt lat="46.1145349" lon="13.4985807"><ele>141.0</ele><time>2026-05-03T12:38:10.934Z</time></trkpt><trkpt lat="46.1145251" lon="13.4986827"><ele>141.0</ele><time>2026-05-03T12:38:11.928Z</time></trkpt><trkpt lat="46.1145102" lon="13.4987868"><ele>141.0</ele><time>2026-05-03T12:38:12.926Z</time></trkpt><trkpt lat="46.1144974" lon="13.4988983"><ele>141.0</ele><time>2026-05-03T12:38:13.921Z</time></trkpt><trkpt lat="46.114488" lon="13.4989975"><ele>141.0</ele><time>2026-05-03T12:38:14.927Z</time></trkpt><trkpt lat="46.1144821" lon="13.4991467"><ele>141.0</ele><time>2026-05-03T12:38:16.925Z</time></trkpt><trkpt lat="46.1145062" lon="13.4992471"><ele>141.0</ele><time>2026-05-03T12:38:18.923Z</time></trkpt><trkpt lat="46.1145126" lon="13.4993586"><ele>141.0</ele><time>2026-05-03T12:38:20.926Z</time></trkpt><trkpt lat="46.114485" lon="13.4995026"><ele>141.0</ele><time>2026-05-03T12:38:22.923Z</time></trkpt><trkpt lat="46.1144466" lon="13.4996635"><ele>141.0</ele><time>2026-05-03T12:38:24.932Z</time></trkpt><trkpt lat="46.1144078" lon="13.4998452"><ele>141.4</ele><time>2026-05-03T12:38:26.928Z</time></trkpt><trkpt lat="46.1143861" lon="13.4999547"><ele>141.8</ele><time>2026-05-03T12:38:27.925Z</time></trkpt><trkpt lat="46.1143635" lon="13.5000792"><ele>142.20000000000002</ele><time>2026-05-03T12:38:28.937Z</time></trkpt><trkpt lat="46.1143385" lon="13.5002108"><ele>142.6</ele><time>2026-05-03T12:38:29.929Z</time></trkpt><trkpt lat="46.1143187" lon="13.5003573"><ele>143.0</ele><time>2026-05-03T12:38:30.927Z</time></trkpt><trkpt lat="46.1142973" lon="13.500516"><ele>143.75</ele><time>2026-05-03T12:38:31.927Z</time></trkpt><trkpt lat="46.1142777" lon="13.5006816"><ele>144.5</ele><time>2026-05-03T12:38:32.923Z</time></trkpt><trkpt lat="46.1142549" lon="13.5008641"><ele>145.25</ele><time>2026-05-03T12:38:33.929Z</time></trkpt><trkpt lat="46.1142306" lon="13.5010566"><ele>146.0</ele><time>2026-05-03T12:38:34.925Z</time></trkpt><trkpt lat="46.1142047" lon="13.5012506"><ele>146.25</ele><time>2026-05-03T12:38:35.927Z</time></trkpt><trkpt lat="46.1141731" lon="13.5014536"><ele>146.5</ele><time>2026-05-03T12:38:36.933Z</time></trkpt><trkpt lat="46.1141368" lon="13.5016644"><ele>146.75</ele><time>2026-05-03T12:38:37.924Z</time></trkpt><trkpt lat="46.1141058" lon="13.501876"><ele>147.0</ele><time>2026-05-03T12:38:38.928Z</time></trkpt><trkpt lat="46.1140642" lon="13.5020949"><ele>147.5</ele><time>2026-05-03T12:38:39.92Z</time></trkpt><trkpt lat="46.1140222" lon="13.5023064"><ele>148.0</ele><time>2026-05-03T12:38:40.931Z</time></trkpt><trkpt lat="46.1139847" lon="13.5024893"><ele>148.5</ele><time>2026-05-03T12:38:41.925Z</time></trkpt><trkpt lat="46.1139558" lon="13.5026532"><ele>149.0</ele><time>2026-05-03T12:38:42.922Z</time></trkpt><trkpt lat="46.1139302" lon="13.5027908"><ele>148.0</ele><time>2026-05-03T12:38:43.927Z</time></trkpt><trkpt lat="46.1139123" lon="13.5029235"><ele>147.0</ele><time>2026-05-03T12:38:44.927Z</time></trkpt><trkpt lat="46.1139011" lon="13.5030466"><ele>146.0</ele><time>2026-05-03T12:38:45.929Z</time></trkpt><trkpt lat="46.1138766" lon="13.503166"><ele>145.0</ele><time>2026-05-03T12:38:46.939Z</time></trkpt><trkpt lat="46.1138576" lon="13.5032823"><ele>144.0</ele><time>2026-05-03T12:38:47.928Z</time></trkpt><trkpt lat="46.1138421" lon="13.5033881"><ele>143.0</ele><time>2026-05-03T12:38:48.929Z</time></trkpt><trkpt lat="46.1138299" lon="13.5034847"><ele>143.0</ele><time>2026-05-03T12:38:49.925Z</time></trkpt><trkpt lat="46.1138164" lon="13.5035746"><ele>143.0</ele><time>2026-05-03T12:38:50.932Z</time></trkpt><trkpt lat="46.113782" lon="13.5037318"><ele>143.0</ele><time>2026-05-03T12:38:52.924Z</time></trkpt><trkpt lat="46.1137468" lon="13.503887"><ele>143.0</ele><time>2026-05-03T12:38:54.922Z</time></trkpt><trkpt lat="46.113728" lon="13.5039757"><ele>143.0</ele><time>2026-05-03T12:38:55.926Z</time></trkpt><trkpt lat="46.113715" lon="13.5040821"><ele>143.0</ele><time>2026-05-03T12:38:56.924Z</time></trkpt><trkpt lat="46.1136955" lon="13.5042046"><ele>143.0</ele><time>2026-05-03T12:38:57.932Z</time></trkpt><trkpt lat="46.1136776" lon="13.5043345"><ele>143.0</ele><time>2026-05-03T12:38:58.928Z</time></trkpt><trkpt lat="46.1136616" lon="13.5044742"><ele>143.0</ele><time>2026-05-03T12:38:59.93Z</time></trkpt><trkpt lat="46.1136502" lon="13.5046286"><ele>143.0</ele><time>2026-05-03T12:39:00.925Z</time></trkpt><trkpt lat="46.1136442" lon="13.5047974"><ele>143.0</ele><time>2026-05-03T12:39:01.929Z</time></trkpt><trkpt lat="46.1136378" lon="13.504984"><ele>143.0</ele><time>2026-05-03T12:39:02.931Z</time></trkpt><trkpt lat="46.1136431" lon="13.5051982"><ele>143.0</ele><time>2026-05-03T12:39:03.928Z</time></trkpt><trkpt lat="46.1136544" lon="13.5054263"><ele>143.0</ele><time>2026-05-03T12:39:04.929Z</time></trkpt><trkpt lat="46.1136784" lon="13.5056761"><ele>143.66666666666666</ele><time>2026-05-03T12:39:05.919Z</time></trkpt><trkpt lat="46.1136972" lon="13.5059225"><ele>144.33333333333334</ele><time>2026-05-03T12:39:06.929Z</time></trkpt><trkpt lat="46.1137116" lon="13.5061577"><ele>145.0</ele><time>2026-05-03T12:39:07.927Z</time></trkpt><trkpt lat="46.1137274" lon="13.5063817"><ele>146.25</ele><time>2026-05-03T12:39:08.927Z</time></trkpt><trkpt lat="46.1137437" lon="13.5065863"><ele>147.5</ele><time>2026-05-03T12:39:09.929Z</time></trkpt><trkpt lat="46.1137586" lon="13.5067933"><ele>148.75</ele><time>2026-05-03T12:39:10.928Z</time></trkpt><trkpt lat="46.1137842" lon="13.5069898"><ele>150.0</ele><time>2026-05-03T12:39:11.924Z</time></trkpt><trkpt lat="46.1138144" lon="13.5071631"><ele>151.25</ele><time>2026-05-03T12:39:12.927Z</time></trkpt><trkpt lat="46.1138529" lon="13.5073512"><ele>152.5</ele><time>2026-05-03T12:39:13.939Z</time></trkpt><trkpt lat="46.1138874" lon="13.5075385"><ele>153.75</ele><time>2026-05-03T12:39:14.93Z</time></trkpt><trkpt lat="46.1139459" lon="13.5077235"><ele>155.0</ele><time>2026-05-03T12:39:15.921Z</time></trkpt><trkpt lat="46.1139989" lon="13.5079043"><ele>153.0</ele><time>2026-05-03T12:39:16.932Z</time></trkpt><trkpt lat="46.1140802" lon="13.5080788"><ele>151.0</ele><time>2026-05-03T12:39:17.934Z</time></trkpt><trkpt lat="46.1141577" lon="13.5082406"><ele>149.0</ele><time>2026-05-03T12:39:18.928Z</time></trkpt><trkpt lat="46.1142237" lon="13.5083723"><ele>147.0</ele><time>2026-05-03T12:39:19.928Z</time></trkpt><trkpt lat="46.1142843" lon="13.5084786"><ele>147.0</ele><time>2026-05-03T12:39:20.932Z</time></trkpt><trkpt lat="46.1143349" lon="13.5085689"><ele>147.0</ele><time>2026-05-03T12:39:21.924Z</time></trkpt><trkpt lat="46.1143994" lon="13.508673"><ele>147.0</ele><time>2026-05-03T12:39:23.924Z</time></trkpt><trkpt lat="46.1143361" lon="13.5087929"><ele>147.0</ele><time>2026-05-03T12:39:26.932Z</time></trkpt><trkpt lat="46.1142802" lon="13.5088579"><ele>147.0</ele><time>2026-05-03T12:39:27.935Z</time></trkpt><trkpt lat="46.1142141" lon="13.5089339"><ele>147.0</ele><time>2026-05-03T12:39:28.92Z</time></trkpt><trkpt lat="46.114155" lon="13.509016"><ele>146.66666666666666</ele><time>2026-05-03T12:39:29.925Z</time></trkpt><trkpt lat="46.1140932" lon="13.5090997"><ele>146.33333333333334</ele><time>2026-05-03T12:39:30.928Z</time></trkpt><trkpt lat="46.1140227" lon="13.5091845"><ele>146.0</ele><time>2026-05-03T12:39:31.932Z</time></trkpt><trkpt lat="46.1139449" lon="13.5092616"><ele>145.66666666666669</ele><time>2026-05-03T12:39:32.926Z</time></trkpt><trkpt lat="46.1138672" lon="13.5093154"><ele>145.33333333333334</ele><time>2026-05-03T12:39:33.931Z</time></trkpt><trkpt lat="46.1137961" lon="13.5093682"><ele>145.0</ele><time>2026-05-03T12:39:34.923Z</time></trkpt><trkpt lat="46.1137509" lon="13.5094401"><ele>147.6</ele><time>2026-05-03T12:39:35.921Z</time></trkpt><trkpt lat="46.1137244" lon="13.5095282"><ele>150.2</ele><time>2026-05-03T12:39:36.923Z</time></trkpt><trkpt lat="46.1137191" lon="13.5096444"><ele>152.8</ele><time>2026-05-03T12:39:37.935Z</time></trkpt><trkpt lat="46.1137344" lon="13.5097995"><ele>155.4</ele><time>2026-05-03T12:39:38.923Z</time></trkpt><trkpt lat="46.1137573" lon="13.509979"><ele>158.0</ele><time>2026-05-03T12:39:39.931Z</time></trkpt><trkpt lat="46.1137789" lon="13.5101634"><ele>159.0</ele><time>2026-05-03T12:39:40.925Z</time></trkpt><trkpt lat="46.1138013" lon="13.5103526"><ele>160.0</ele><time>2026-05-03T12:39:41.933Z</time></trkpt><trkpt lat="46.1138229" lon="13.5105434"><ele>161.0</ele><time>2026-05-03T12:39:42.92Z</time></trkpt><trkpt lat="46.1138414" lon="13.5107255"><ele>162.0</ele><time>2026-05-03T12:39:43.928Z</time></trkpt><trkpt lat="46.1138554" lon="13.5109005"><ele>162.0</ele><time>2026-05-03T12:39:44.932Z</time></trkpt><trkpt lat="46.1138681" lon="13.5110779"><ele>162.0</ele><time>2026-05-03T12:39:45.933Z</time></trkpt><trkpt lat="46.1138753" lon="13.5112466"><ele>162.0</ele><time>2026-05-03T12:39:46.931Z</time></trkpt><trkpt lat="46.1138764" lon="13.5114174"><ele>162.0</ele><time>2026-05-03T12:39:47.924Z</time></trkpt><trkpt lat="46.113875" lon="13.511586"><ele>162.2</ele><time>2026-05-03T12:39:48.934Z</time></trkpt><trkpt lat="46.1138719" lon="13.5117445"><ele>162.39999999999998</ele><time>2026-05-03T12:39:49.933Z</time></trkpt><trkpt lat="46.1138748" lon="13.5118863"><ele>162.60000000000002</ele><time>2026-05-03T12:39:50.933Z</time></trkpt><trkpt lat="46.1138939" lon="13.5120285"><ele>162.8</ele><time>2026-05-03T12:39:51.927Z</time></trkpt><trkpt lat="46.1139238" lon="13.5121722"><ele>163.0</ele><time>2026-05-03T12:39:52.927Z</time></trkpt><trkpt lat="46.1139611" lon="13.5123278"><ele>162.8</ele><time>2026-05-03T12:39:53.923Z</time></trkpt><trkpt lat="46.114" lon="13.5124804"><ele>162.60000000000002</ele><time>2026-05-03T12:39:54.93Z</time></trkpt><trkpt lat="46.1140326" lon="13.5126224"><ele>162.39999999999998</ele><time>2026-05-03T12:39:55.927Z</time></trkpt><trkpt lat="46.1140584" lon="13.5127563"><ele>162.2</ele><time>2026-05-03T12:39:56.937Z</time></trkpt><trkpt lat="46.1140759" lon="13.5128888"><ele>162.0</ele><time>2026-05-03T12:39:57.923Z</time></trkpt><trkpt lat="46.1140836" lon="13.5130223"><ele>162.0</ele><time>2026-05-03T12:39:58.927Z</time></trkpt><trkpt lat="46.1140924" lon="13.513158"><ele>162.0</ele><time>2026-05-03T12:39:59.922Z</time></trkpt><trkpt lat="46.11411" lon="13.5133043"><ele>162.0</ele><time>2026-05-03T12:40:00.934Z</time></trkpt><trkpt lat="46.1141435" lon="13.5134545"><ele>162.0</ele><time>2026-05-03T12:40:01.928Z</time></trkpt><trkpt lat="46.1141814" lon="13.5136185"><ele>162.0</ele><time>2026-05-03T12:40:02.925Z</time></trkpt><trkpt lat="46.1142265" lon="13.513759"><ele>162.6</ele><time>2026-05-03T12:40:03.926Z</time></trkpt><trkpt lat="46.114267" lon="13.5138801"><ele>163.2</ele><time>2026-05-03T12:40:04.928Z</time></trkpt><trkpt lat="46.1143074" lon="13.5140146"><ele>163.8</ele><time>2026-05-03T12:40:05.926Z</time></trkpt><trkpt lat="46.1143499" lon="13.514146"><ele>164.4</ele><time>2026-05-03T12:40:06.924Z</time></trkpt><trkpt lat="46.114363" lon="13.5142852"><ele>165.0</ele><time>2026-05-03T12:40:07.937Z</time></trkpt><trkpt lat="46.1143881" lon="13.5144358"><ele>166.0</ele><time>2026-05-03T12:40:08.921Z</time></trkpt><trkpt lat="46.1144118" lon="13.5146001"><ele>167.0</ele><time>2026-05-03T12:40:09.926Z</time></trkpt><trkpt lat="46.114428" lon="13.5147669"><ele>168.0</ele><time>2026-05-03T12:40:10.923Z</time></trkpt><trkpt lat="46.1144376" lon="13.5149223"><ele>169.0</ele><time>2026-05-03T12:40:11.929Z</time></trkpt><trkpt lat="46.1144448" lon="13.5150788"><ele>169.0</ele><time>2026-05-03T12:40:12.924Z</time></trkpt><trkpt lat="46.1144539" lon="13.5152371"><ele>169.0</ele><time>2026-05-03T12:40:13.931Z</time></trkpt><trkpt lat="46.114457" lon="13.5153857"><ele>169.0</ele><time>2026-05-03T12:40:14.927Z</time></trkpt><trkpt lat="46.1144653" lon="13.515533"><ele>169.0</ele><time>2026-05-03T12:40:15.926Z</time></trkpt><trkpt lat="46.1144647" lon="13.5156662"><ele>169.0</ele><time>2026-05-03T12:40:16.922Z</time></trkpt><trkpt lat="46.114458" lon="13.5157853"><ele>169.6</ele><time>2026-05-03T12:40:17.924Z</time></trkpt><trkpt lat="46.1144664" lon="13.5158871"><ele>170.2</ele><time>2026-05-03T12:40:18.923Z</time></trkpt><trkpt lat="46.1144939" lon="13.5159941"><ele>170.79999999999998</ele><time>2026-05-03T12:40:19.927Z</time></trkpt><trkpt lat="46.1145363" lon="13.5161163"><ele>171.39999999999998</ele><time>2026-05-03T12:40:20.923Z</time></trkpt><trkpt lat="46.1145808" lon="13.5162483"><ele>172.0</ele><time>2026-05-03T12:40:21.924Z</time></trkpt><trkpt lat="46.1146188" lon="13.516388"><ele>172.0</ele><time>2026-05-03T12:40:22.929Z</time></trkpt><trkpt lat="46.1146617" lon="13.5165318"><ele>172.0</ele><time>2026-05-03T12:40:23.923Z</time></trkpt><trkpt lat="46.1147133" lon="13.5166699"><ele>172.0</ele><time>2026-05-03T12:40:24.925Z</time></trkpt><trkpt lat="46.1147744" lon="13.5168097"><ele>172.0</ele><time>2026-05-03T12:40:25.94Z</time></trkpt><trkpt lat="46.114841" lon="13.5169495"><ele>172.0</ele><time>2026-05-03T12:40:26.934Z</time></trkpt><trkpt lat="46.1149145" lon="13.517099"><ele>167.0</ele><time>2026-05-03T12:40:27.922Z</time></trkpt><trkpt lat="46.1149952" lon="13.5172408"><ele>162.0</ele><time>2026-05-03T12:40:28.925Z</time></trkpt><trkpt lat="46.1150789" lon="13.5173777"><ele>157.0</ele><time>2026-05-03T12:40:29.923Z</time></trkpt><trkpt lat="46.1151645" lon="13.5175089"><ele>152.0</ele><time>2026-05-03T12:40:30.929Z</time></trkpt><trkpt lat="46.1152559" lon="13.5176397"><ele>152.0</ele><time>2026-05-03T12:40:31.93Z</time></trkpt><trkpt lat="46.1153446" lon="13.5177713"><ele>152.0</ele><time>2026-05-03T12:40:32.927Z</time></trkpt><trkpt lat="46.1154229" lon="13.5178911"><ele>152.0</ele><time>2026-05-03T12:40:33.925Z</time></trkpt><trkpt lat="46.1155002" lon="13.5180022"><ele>152.0</ele><time>2026-05-03T12:40:34.929Z</time></trkpt><trkpt lat="46.1155738" lon="13.518102"><ele>151.79999999999998</ele><time>2026-05-03T12:40:35.94Z</time></trkpt><trkpt lat="46.1156491" lon="13.5181657"><ele>151.6</ele><time>2026-05-03T12:40:36.925Z</time></trkpt><trkpt lat="46.1157324" lon="13.5182243"><ele>151.39999999999998</ele><time>2026-05-03T12:40:37.925Z</time></trkpt><trkpt lat="46.1158365" lon="13.5182885"><ele>151.2</ele><time>2026-05-03T12:40:38.927Z</time></trkpt><trkpt lat="46.115941" lon="13.5183736"><ele>151.0</ele><time>2026-05-03T12:40:39.929Z</time></trkpt><trkpt lat="46.1160596" lon="13.5184635"><ele>151.0</ele><time>2026-05-03T12:40:40.929Z</time></trkpt><trkpt lat="46.1161777" lon="13.5185558"><ele>151.0</ele><time>2026-05-03T12:40:41.919Z</time></trkpt><trkpt lat="46.1162837" lon="13.5186598"><ele>151.0</ele><time>2026-05-03T12:40:42.93Z</time></trkpt><trkpt lat="46.1163756" lon="13.5187681"><ele>151.0</ele><time>2026-05-03T12:40:43.927Z</time></trkpt><trkpt lat="46.1164687" lon="13.5188817"><ele>151.0</ele><time>2026-05-03T12:40:44.928Z</time></trkpt><trkpt lat="46.1165688" lon="13.5189929"><ele>151.0</ele><time>2026-05-03T12:40:45.927Z</time></trkpt><trkpt lat="46.1166752" lon="13.5190883"><ele>151.0</ele><time>2026-05-03T12:40:46.929Z</time></trkpt><trkpt lat="46.1167825" lon="13.5191796"><ele>151.0</ele><time>2026-05-03T12:40:47.923Z</time></trkpt><trkpt lat="46.1168984" lon="13.5192806"><ele>151.25</ele><time>2026-05-03T12:40:48.928Z</time></trkpt><trkpt lat="46.1170206" lon="13.519398"><ele>151.5</ele><time>2026-05-03T12:40:49.922Z</time></trkpt><trkpt lat="46.1171472" lon="13.5195236"><ele>151.75</ele><time>2026-05-03T12:40:50.924Z</time></trkpt><trkpt lat="46.1172679" lon="13.5196421"><ele>152.0</ele><time>2026-05-03T12:40:51.927Z</time></trkpt><trkpt lat="46.1173404" lon="13.5197357"><ele>152.0</ele><time>2026-05-03T12:40:52.929Z</time></trkpt><trkpt lat="46.1173849" lon="13.5198235"><ele>152.0</ele><time>2026-05-03T12:40:53.928Z</time></trkpt><trkpt lat="46.1174132" lon="13.5199372"><ele>152.0</ele><time>2026-05-03T12:40:54.928Z</time></trkpt><trkpt lat="46.1174414" lon="13.5200753"><ele>152.0</ele><time>2026-05-03T12:40:55.926Z</time></trkpt><trkpt lat="46.1174639" lon="13.5202287"><ele>152.0</ele><time>2026-05-03T12:40:56.92Z</time></trkpt><trkpt lat="46.1175008" lon="13.5203772"><ele>152.16666666666666</ele><time>2026-05-03T12:40:57.928Z</time></trkpt><trkpt lat="46.1175491" lon="13.5204914"><ele>152.33333333333331</ele><time>2026-05-03T12:40:58.938Z</time></trkpt><trkpt lat="46.1176036" lon="13.520587"><ele>152.5</ele><time>2026-05-03T12:40:59.933Z</time></trkpt><trkpt lat="46.1176636" lon="13.5206742"><ele>152.66666666666666</ele><time>2026-05-03T12:41:00.92Z</time></trkpt><trkpt lat="46.117728" lon="13.520751"><ele>152.83333333333334</ele><time>2026-05-03T12:41:01.925Z</time></trkpt><trkpt lat="46.117784" lon="13.5208121"><ele>153.0</ele><time>2026-05-03T12:41:02.927Z</time></trkpt><trkpt lat="46.1178362" lon="13.5208659"><ele>153.0</ele><time>2026-05-03T12:41:03.93Z</time></trkpt><trkpt lat="46.1179461" lon="13.5209611"><ele>153.0</ele><time>2026-05-03T12:41:05.924Z</time></trkpt><trkpt lat="46.1180112" lon="13.5210173"><ele>153.0</ele><time>2026-05-03T12:41:06.918Z</time></trkpt><trkpt lat="46.1180866" lon="13.5210805"><ele>153.0</ele><time>2026-05-03T12:41:07.923Z</time></trkpt><trkpt lat="46.1181515" lon="13.5211432"><ele>153.0</ele><time>2026-05-03T12:41:08.928Z</time></trkpt><trkpt lat="46.1182183" lon="13.5212797"><ele>153.0</ele><time>2026-05-03T12:41:10.927Z</time></trkpt><trkpt lat="46.1181966" lon="13.5214496"><ele>153.0</ele><time>2026-05-03T12:41:12.925Z</time></trkpt><trkpt lat="46.1181636" lon="13.5215394"><ele>153.0</ele><time>2026-05-03T12:41:13.93Z</time></trkpt><trkpt lat="46.1181376" lon="13.5216235"><ele>153.0</ele><time>2026-05-03T12:41:14.939Z</time></trkpt><trkpt lat="46.1181033" lon="13.5217588"><ele>153.0</ele><time>2026-05-03T12:41:16.925Z</time></trkpt><trkpt lat="46.1181255" lon="13.5218537"><ele>153.0</ele><time>2026-05-03T12:41:18.93Z</time></trkpt><trkpt lat="46.1182445" lon="13.5218944"><ele>153.25</ele><time>2026-05-03T12:41:20.932Z</time></trkpt><trkpt lat="46.1183431" lon="13.5219019"><ele>153.5</ele><time>2026-05-03T12:41:21.931Z</time></trkpt><trkpt lat="46.1184484" lon="13.5219325"><ele>153.75</ele><time>2026-05-03T12:41:22.92Z</time></trkpt><trkpt lat="46.1185641" lon="13.5219935"><ele>154.0</ele><time>2026-05-03T12:41:23.938Z</time></trkpt><trkpt lat="46.1186883" lon="13.5220643"><ele>153.75</ele><time>2026-05-03T12:41:24.924Z</time></trkpt><trkpt lat="46.1188244" lon="13.5221356"><ele>153.5</ele><time>2026-05-03T12:41:25.927Z</time></trkpt><trkpt lat="46.1189622" lon="13.5221998"><ele>153.25</ele><time>2026-05-03T12:41:26.932Z</time></trkpt><trkpt lat="46.1190946" lon="13.5222575"><ele>153.0</ele><time>2026-05-03T12:41:27.925Z</time></trkpt><trkpt lat="46.1192297" lon="13.5223046"><ele>153.5</ele><time>2026-05-03T12:41:28.93Z</time></trkpt><trkpt lat="46.1193604" lon="13.5223236"><ele>154.0</ele><time>2026-05-03T12:41:29.93Z</time></trkpt><trkpt lat="46.1194841" lon="13.5223041"><ele>154.5</ele><time>2026-05-03T12:41:30.919Z</time></trkpt><trkpt lat="46.1195878" lon="13.5223169"><ele>155.0</ele><time>2026-05-03T12:41:31.94Z</time></trkpt><trkpt lat="46.1196691" lon="13.5223855"><ele>155.0</ele><time>2026-05-03T12:41:32.926Z</time></trkpt><trkpt lat="46.1197463" lon="13.5225066"><ele>155.0</ele><time>2026-05-03T12:41:33.923Z</time></trkpt><trkpt lat="46.1198373" lon="13.5226423"><ele>155.0</ele><time>2026-05-03T12:41:34.924Z</time></trkpt><trkpt lat="46.1199225" lon="13.522778"><ele>155.0</ele><time>2026-05-03T12:41:35.922Z</time></trkpt><trkpt lat="46.1200036" lon="13.5229279"><ele>155.0</ele><time>2026-05-03T12:41:36.917Z</time></trkpt><trkpt lat="46.1200851" lon="13.5230988"><ele>155.0</ele><time>2026-05-03T12:41:37.925Z</time></trkpt><trkpt lat="46.1201616" lon="13.5232726"><ele>155.0</ele><time>2026-05-03T12:41:38.921Z</time></trkpt><trkpt lat="46.120235" lon="13.5234437"><ele>155.0</ele><time>2026-05-03T12:41:39.933Z</time></trkpt><trkpt lat="46.1202949" lon="13.5235756"><ele>155.0</ele><time>2026-05-03T12:41:40.925Z</time></trkpt><trkpt lat="46.120321" lon="13.5236629"><ele>155.0</ele><time>2026-05-03T12:41:41.923Z</time></trkpt><trkpt lat="46.1202686" lon="13.5238033"><ele>155.0</ele><time>2026-05-03T12:41:43.917Z</time></trkpt><trkpt lat="46.1202369" lon="13.5239082"><ele>155.0</ele><time>2026-05-03T12:41:44.936Z</time></trkpt><trkpt lat="46.1202294" lon="13.5240215"><ele>155.0</ele><time>2026-05-03T12:41:45.925Z</time></trkpt><trkpt lat="46.1202223" lon="13.5241142"><ele>155.0</ele><time>2026-05-03T12:41:46.932Z</time></trkpt><trkpt lat="46.1202104" lon="13.5242618"><ele>155.0</ele><time>2026-05-03T12:41:48.926Z</time></trkpt><trkpt lat="46.1201898" lon="13.5243596"><ele>155.0</ele><time>2026-05-03T12:43:38.931Z</time></trkpt><trkpt lat="46.1201329" lon="13.5242984"><ele>155.0</ele><time>2026-05-03T12:43:43.93Z</time></trkpt></trkseg></trk></gpx>